<?xml version='1.0' encoding='UTF-8'?><gpx version="1.1" creator="JPX - https://github.com/jenetics/jpx" xmlns="http://www.topografix.com/GPX/1/1"><trk><trkseg><trkpt lat="43.54447266992935" lon="6.968113484479101"><ele>1.0</ele><time>2026-04-12T05:26:14.999Z</time></trkpt><trkpt lat="43.544436172796736" lon="6.968021011850899"><ele>0.9999999999999999</ele><time>2026-04-12T05:26:19.999Z</time></trkpt><trkpt lat="43.54439514706951" lon="6.967947546741219"><ele>1.0</ele><time>2026-04-12T05:26:26.999Z</time></trkpt><trkpt lat="43.54435794523669" lon="6.967844202157368"><ele>1.0</ele><time>2026-04-12T05:31:26Z</time></trkpt><trkpt lat="43.54432753471704" lon="6.967753141889977"><ele>0.9999999999999999</ele><time>2026-04-12T05:31:32Z</time></trkpt><trkpt lat="43.5443120998636" lon="6.967660322703775"><ele>1.0</ele><time>2026-04-12T05:31:39Z</time></trkpt><trkpt lat="43.54429539843736" lon="6.967572815666925"><ele>1.0</ele><time>2026-04-12T05:31:45Z</time></trkpt><trkpt lat="43.5442663340061" lon="6.9674881491479494"><ele>1.2857142857142856</ele><time>2026-04-12T05:31:51Z</time></trkpt><trkpt lat="43.54423746655478" lon="6.9674091453906035"><ele>1.5714285714285712</ele><time>2026-04-12T05:31:57Z</time></trkpt><trkpt lat="43.5442037072727" lon="6.96732496406769"><ele>1.857142857142857</ele><time>2026-04-12T05:32:03Z</time></trkpt><trkpt lat="43.544157327303246" lon="6.967244419550753"><ele>2.142857142857143</ele><time>2026-04-12T05:32:09Z</time></trkpt><trkpt lat="43.54411976432557" lon="6.967169322840311"><ele>2.4285714285714284</ele><time>2026-04-12T05:32:15Z</time></trkpt><trkpt lat="43.54408389948061" lon="6.967092015092127"><ele>2.714285714285714</ele><time>2026-04-12T05:32:20Z</time></trkpt><trkpt lat="43.544057909579834" lon="6.9670125538485355"><ele>3.0</ele><time>2026-04-12T05:32:24.999Z</time></trkpt><trkpt lat="43.54403663150453" lon="6.966917189615093"><ele>3.0</ele><time>2026-04-12T05:32:30.999Z</time></trkpt><trkpt lat="43.54401955335635" lon="6.966821605669563"><ele>3.0</ele><time>2026-04-12T05:32:36.999Z</time></trkpt><trkpt lat="43.54400076767999" lon="6.966737928582332"><ele>3.0</ele><time>2026-04-12T05:32:42.999Z</time></trkpt><trkpt lat="43.54394522525239" lon="6.966659237588972"><ele>3.0</ele><time>2026-04-12T05:32:46.999Z</time></trkpt><trkpt lat="43.54390283459353" lon="6.9665496314637565"><ele>3.0</ele><time>2026-04-12T05:32:48.999Z</time></trkpt><trkpt lat="43.54389462434143" lon="6.966411151614029"><ele>3.0</ele><time>2026-04-12T05:32:50.999Z</time></trkpt><trkpt lat="43.54385066901695" lon="6.9662868212030045"><ele>3.0</ele><time>2026-04-12T05:32:52.999Z</time></trkpt><trkpt lat="43.54379306697767" lon="6.966125604377811"><ele>3.0</ele><time>2026-04-12T05:32:54.999Z</time></trkpt><trkpt lat="43.543762949716886" lon="6.966037661038409"><ele>3.0</ele><time>2026-04-12T05:32:55.999Z</time></trkpt><trkpt lat="43.54372953582246" lon="6.965952389351871"><ele>3.0</ele><time>2026-04-12T05:32:56.999Z</time></trkpt><trkpt lat="43.54369868798558" lon="6.965864906141104"><ele>3.0</ele><time>2026-04-12T05:32:57.999Z</time></trkpt><trkpt lat="43.543671941116735" lon="6.965778377969639"><ele>3.0</ele><time>2026-04-12T05:32:58.999Z</time></trkpt><trkpt lat="43.543614194593786" lon="6.965632476353652"><ele>3.0</ele><time>2026-04-12T05:33:00.999Z</time></trkpt><trkpt lat="43.543571169743295" lon="6.965493408639298"><ele>3.0</ele><time>2026-04-12T05:33:02.999Z</time></trkpt><trkpt lat="43.54355136481956" lon="6.965400771439432"><ele>3.0</ele><time>2026-04-12T05:33:03.999Z</time></trkpt><trkpt lat="43.54353787953048" lon="6.965307452525344"><ele>3.0</ele><time>2026-04-12T05:33:04.999Z</time></trkpt><trkpt lat="43.54348236740864" lon="6.96518639890752"><ele>3.0</ele><time>2026-04-12T05:33:06.999Z</time></trkpt><trkpt lat="43.543427100419166" lon="6.9650495214288135"><ele>4.0</ele><time>2026-04-12T05:33:08.999Z</time></trkpt><trkpt lat="43.54339521882919" lon="6.964965526091222"><ele>5.0</ele><time>2026-04-12T05:33:09.999Z</time></trkpt><trkpt lat="43.543362673761024" lon="6.964869545530466"><ele>6.0</ele><time>2026-04-12T05:33:10.999Z</time></trkpt><trkpt lat="43.5433243132411" lon="6.964775805157672"><ele>7.0</ele><time>2026-04-12T05:33:11.999Z</time></trkpt><trkpt lat="43.54328362651283" lon="6.964676588529558"><ele>8.0</ele><time>2026-04-12T05:33:12.999Z</time></trkpt><trkpt lat="43.54324041078992" lon="6.964574052863429"><ele>9.0</ele><time>2026-04-12T05:33:13.999Z</time></trkpt><trkpt lat="43.54319600842049" lon="6.964469701448839"><ele>9.0</ele><time>2026-04-12T05:33:14.999Z</time></trkpt><trkpt lat="43.54315079021865" lon="6.964366629424662"><ele>9.0</ele><time>2026-04-12T05:33:15.999Z</time></trkpt><trkpt lat="43.54310635508088" lon="6.964265342359041"><ele>9.0</ele><time>2026-04-12T05:33:16.999Z</time></trkpt><trkpt lat="43.54306073186129" lon="6.964162408840496"><ele>9.0</ele><time>2026-04-12T05:33:17.999Z</time></trkpt><trkpt lat="43.54301325325843" lon="6.964056177463906"><ele>9.0</ele><time>2026-04-12T05:33:18.999Z</time></trkpt><trkpt lat="43.54296624826325" lon="6.963951005741024"><ele>9.0</ele><time>2026-04-12T05:33:19.999Z</time></trkpt><trkpt lat="43.54292108899748" lon="6.963849963763627"><ele>9.0</ele><time>2026-04-12T05:33:20.999Z</time></trkpt><trkpt lat="43.54287824880847" lon="6.963754110643737"><ele>9.0</ele><time>2026-04-12T05:33:22Z</time></trkpt><trkpt lat="43.54283923692676" lon="6.963666801553086"><ele>9.0</ele><time>2026-04-12T05:33:23Z</time></trkpt><trkpt lat="43.54280433814354" lon="6.963588616883052"><ele>9.0</ele><time>2026-04-12T05:33:24Z</time></trkpt><trkpt lat="43.54276292685889" lon="6.9634958421190944"><ele>9.0</ele><time>2026-04-12T05:33:25Z</time></trkpt><trkpt lat="43.54271666591023" lon="6.9633969686200325"><ele>9.0</ele><time>2026-04-12T05:33:26Z</time></trkpt><trkpt lat="43.542669213683745" lon="6.9632977745784075"><ele>9.0</ele><time>2026-04-12T05:33:27Z</time></trkpt><trkpt lat="43.54262003342884" lon="6.963194968205098"><ele>9.0</ele><time>2026-04-12T05:33:28Z</time></trkpt><trkpt lat="43.5425689579941" lon="6.963087912952571"><ele>9.0</ele><time>2026-04-12T05:33:29Z</time></trkpt><trkpt lat="43.542516553085086" lon="6.962977572268697"><ele>9.0</ele><time>2026-04-12T05:33:30Z</time></trkpt><trkpt lat="43.54246377330229" lon="6.962863621713659"><ele>9.0</ele><time>2026-04-12T05:33:31Z</time></trkpt><trkpt lat="43.54241124285843" lon="6.962749957066026"><ele>9.0</ele><time>2026-04-12T05:33:32Z</time></trkpt><trkpt lat="43.54235799617102" lon="6.962634702865202"><ele>9.0</ele><time>2026-04-12T05:33:33Z</time></trkpt><trkpt lat="43.542306134513524" lon="6.962522422364756"><ele>9.0</ele><time>2026-04-12T05:33:34Z</time></trkpt><trkpt lat="43.54225449977844" lon="6.962410633169539"><ele>9.0</ele><time>2026-04-12T05:33:35Z</time></trkpt><trkpt lat="43.54220139041897" lon="6.962296166218711"><ele>9.0</ele><time>2026-04-12T05:33:36Z</time></trkpt><trkpt lat="43.54214801380583" lon="6.962181162553733"><ele>9.4</ele><time>2026-04-12T05:33:37Z</time></trkpt><trkpt lat="43.54209326120032" lon="6.962064196775367"><ele>9.8</ele><time>2026-04-12T05:33:38Z</time></trkpt><trkpt lat="43.5420370113785" lon="6.961949589709661"><ele>10.200000000000001</ele><time>2026-04-12T05:33:39Z</time></trkpt><trkpt lat="43.541983699586154" lon="6.961840968724564"><ele>10.600000000000001</ele><time>2026-04-12T05:33:40Z</time></trkpt><trkpt lat="43.54193420151387" lon="6.961748204654024"><ele>11.0</ele><time>2026-04-12T05:33:41Z</time></trkpt><trkpt lat="43.541895403792985" lon="6.961650594635963"><ele>10.166666666666666</ele><time>2026-04-12T05:33:42Z</time></trkpt><trkpt lat="43.54185293456468" lon="6.961560994769753"><ele>9.333333333333332</ele><time>2026-04-12T05:33:43Z</time></trkpt><trkpt lat="43.54181006040202" lon="6.961473308804168"><ele>8.5</ele><time>2026-04-12T05:33:44Z</time></trkpt><trkpt lat="43.54177349795422" lon="6.961375600419958"><ele>7.666666666666666</ele><time>2026-04-12T05:33:45Z</time></trkpt><trkpt lat="43.541752544737264" lon="6.961268013944261"><ele>6.833333333333333</ele><time>2026-04-12T05:33:46Z</time></trkpt><trkpt lat="43.54177383299721" lon="6.961157538151164"><ele>6.0</ele><time>2026-04-12T05:33:47Z</time></trkpt><trkpt lat="43.54183134708717" lon="6.961067799361066"><ele>6.0</ele><time>2026-04-12T05:33:48Z</time></trkpt><trkpt lat="43.54190102130685" lon="6.960988587991255"><ele>6.0</ele><time>2026-04-12T05:33:49Z</time></trkpt><trkpt lat="43.54197561572331" lon="6.960904552611642"><ele>6.0</ele><time>2026-04-12T05:33:50Z</time></trkpt><trkpt lat="43.542057243090916" lon="6.960816468216635"><ele>6.0</ele><time>2026-04-12T05:33:51Z</time></trkpt><trkpt lat="43.542148078098876" lon="6.960721636618532"><ele>6.0</ele><time>2026-04-12T05:33:52Z</time></trkpt><trkpt lat="43.542239954249744" lon="6.960625161901951"><ele>6.25</ele><time>2026-04-12T05:33:53Z</time></trkpt><trkpt lat="43.54233406387514" lon="6.9605259909654995"><ele>6.5</ele><time>2026-04-12T05:33:54Z</time></trkpt><trkpt lat="43.542433696362124" lon="6.960440376067359"><ele>6.75</ele><time>2026-04-12T05:33:55Z</time></trkpt><trkpt lat="43.54253471267893" lon="6.960362775858925"><ele>7.0</ele><time>2026-04-12T05:33:56Z</time></trkpt><trkpt lat="43.54261775928419" lon="6.960272917012353"><ele>7.0</ele><time>2026-04-12T05:33:57Z</time></trkpt><trkpt lat="43.54269914402733" lon="6.960185237144798"><ele>6.999999999999999</ele><time>2026-04-12T05:33:58Z</time></trkpt><trkpt lat="43.54278198961279" lon="6.960104469774208"><ele>6.999999999999999</ele><time>2026-04-12T05:33:59Z</time></trkpt><trkpt lat="43.54285679969825" lon="6.960020750409025"><ele>7.0</ele><time>2026-04-12T05:34:00Z</time></trkpt><trkpt lat="43.54293293759525" lon="6.959945388437923"><ele>7.0</ele><time>2026-04-12T05:34:01Z</time></trkpt><trkpt lat="43.54301549262211" lon="6.959911060813853"><ele>6.6</ele><time>2026-04-12T05:34:02Z</time></trkpt><trkpt lat="43.5430951566687" lon="6.959932890361212"><ele>6.199999999999999</ele><time>2026-04-12T05:34:03Z</time></trkpt><trkpt lat="43.543127580066816" lon="6.960053468579876"><ele>5.8</ele><time>2026-04-12T05:34:04Z</time></trkpt><trkpt lat="43.54323979024397" lon="6.960151063214646"><ele>5.4</ele><time>2026-04-12T05:34:06Z</time></trkpt><trkpt lat="43.543318900870084" lon="6.960108686114193"><ele>5.0</ele><time>2026-04-12T05:34:07Z</time></trkpt><trkpt lat="43.543386107450175" lon="6.960064224568878"><ele>5.0</ele><time>2026-04-12T05:34:08Z</time></trkpt><trkpt lat="43.5434560662982" lon="6.960031154627145"><ele>5.0</ele><time>2026-04-12T05:34:09Z</time></trkpt><trkpt lat="43.54353421924237" lon="6.960021926266073"><ele>5.0</ele><time>2026-04-12T05:34:10Z</time></trkpt><trkpt lat="43.54361124360695" lon="6.960057323652722"><ele>5.0</ele><time>2026-04-12T05:34:11Z</time></trkpt><trkpt lat="43.54368045449361" lon="6.960125231729293"><ele>5.0</ele><time>2026-04-12T05:34:12Z</time></trkpt><trkpt lat="43.543745341163735" lon="6.96019339771284"><ele>5.0</ele><time>2026-04-12T05:34:13Z</time></trkpt><trkpt lat="43.54380846716349" lon="6.960263324178455"><ele>5.0</ele><time>2026-04-12T05:34:14Z</time></trkpt><trkpt lat="43.54387983738172" lon="6.960324965293378"><ele>5.0</ele><time>2026-04-12T05:34:15Z</time></trkpt><trkpt lat="43.54395857120431" lon="6.960370611073903"><ele>5.0</ele><time>2026-04-12T05:34:16Z</time></trkpt><trkpt lat="43.54403866080411" lon="6.960422252989582"><ele>5.0</ele><time>2026-04-12T05:34:17Z</time></trkpt><trkpt lat="43.54411348030807" lon="6.960490495399738"><ele>5.0</ele><time>2026-04-12T05:34:18Z</time></trkpt><trkpt lat="43.544183074171144" lon="6.960567221672115"><ele>5.0</ele><time>2026-04-12T05:34:19Z</time></trkpt><trkpt lat="43.544253025315044" lon="6.960648176765975"><ele>5.0</ele><time>2026-04-12T05:34:20Z</time></trkpt><trkpt lat="43.54432893335026" lon="6.960724851806847"><ele>5.0</ele><time>2026-04-12T05:34:21Z</time></trkpt><trkpt lat="43.54438374227924" lon="6.96083748746473"><ele>5.0</ele><time>2026-04-12T05:34:22Z</time></trkpt><trkpt lat="43.54445901477778" lon="6.960918735545067"><ele>5.0</ele><time>2026-04-12T05:34:23Z</time></trkpt><trkpt lat="43.54453466216462" lon="6.961000388267067"><ele>5.0</ele><time>2026-04-12T05:34:24Z</time></trkpt><trkpt lat="43.54461048707791" lon="6.961082232615351"><ele>4.6</ele><time>2026-04-12T05:34:24.999Z</time></trkpt><trkpt lat="43.544688733899235" lon="6.961166691123338"><ele>4.2</ele><time>2026-04-12T05:34:25.999Z</time></trkpt><trkpt lat="43.54476819641369" lon="6.961252195774371"><ele>3.8</ele><time>2026-04-12T05:34:26.999Z</time></trkpt><trkpt lat="43.54484736453555" lon="6.961336586934967"><ele>3.4</ele><time>2026-04-12T05:34:27.999Z</time></trkpt><trkpt lat="43.54492699343972" lon="6.961421469281254"><ele>3.0</ele><time>2026-04-12T05:34:28.999Z</time></trkpt><trkpt lat="43.54500874336212" lon="6.96150720486301"><ele>3.0</ele><time>2026-04-12T05:34:29.999Z</time></trkpt><trkpt lat="43.54509045310963" lon="6.961591980631311"><ele>3.0</ele><time>2026-04-12T05:34:30.999Z</time></trkpt><trkpt lat="43.545174570675144" lon="6.961676210235429"><ele>3.0</ele><time>2026-04-12T05:34:31.999Z</time></trkpt><trkpt lat="43.54526146217018" lon="6.961756355882051"><ele>3.0</ele><time>2026-04-12T05:34:32.999Z</time></trkpt><trkpt lat="43.54535242907704" lon="6.961831400587089"><ele>3.0</ele><time>2026-04-12T05:34:33.999Z</time></trkpt><trkpt lat="43.54544391281351" lon="6.961901303749518"><ele>3.0</ele><time>2026-04-12T05:34:34.999Z</time></trkpt><trkpt lat="43.5455387395792" lon="6.961969058588809"><ele>3.0</ele><time>2026-04-12T05:34:35.999Z</time></trkpt><trkpt lat="43.54563339144862" lon="6.96203012113791"><ele>3.0</ele><time>2026-04-12T05:34:36.999Z</time></trkpt><trkpt lat="43.54572986840256" lon="6.962087683592591"><ele>3.0</ele><time>2026-04-12T05:34:37.999Z</time></trkpt><trkpt lat="43.54582868156869" lon="6.962141227034115"><ele>3.0</ele><time>2026-04-12T05:34:38.999Z</time></trkpt><trkpt lat="43.54592877349297" lon="6.962187791182929"><ele>3.0</ele><time>2026-04-12T05:34:39.999Z</time></trkpt><trkpt lat="43.54603017992464" lon="6.962228061824173"><ele>3.0</ele><time>2026-04-12T05:34:40.999Z</time></trkpt><trkpt lat="43.54612894599858" lon="6.962268425425485"><ele>3.0</ele><time>2026-04-12T05:34:41.999Z</time></trkpt><trkpt lat="43.54622734396035" lon="6.962312496237055"><ele>3.0</ele><time>2026-04-12T05:34:42.999Z</time></trkpt><trkpt lat="43.54632589682192" lon="6.962357396342986"><ele>3.0</ele><time>2026-04-12T05:34:43.999Z</time></trkpt><trkpt lat="43.546425525248054" lon="6.962405440151709"><ele>3.8</ele><time>2026-04-12T05:34:44.999Z</time></trkpt><trkpt lat="43.546530668310176" lon="6.962434806590615"><ele>4.6</ele><time>2026-04-12T05:34:45.999Z</time></trkpt><trkpt lat="43.54663682808137" lon="6.9624441619422095"><ele>5.3999999999999995</ele><time>2026-04-12T05:34:46.999Z</time></trkpt><trkpt lat="43.546739463452724" lon="6.9624478891174615"><ele>6.199999999999999</ele><time>2026-04-12T05:34:47.999Z</time></trkpt><trkpt lat="43.54684167981843" lon="6.9624469541633625"><ele>7.0</ele><time>2026-04-12T05:34:48.999Z</time></trkpt><trkpt lat="43.54694347558513" lon="6.962441258159334"><ele>6.6</ele><time>2026-04-12T05:34:49.999Z</time></trkpt><trkpt lat="43.54704480306739" lon="6.9624358830806194"><ele>6.199999999999999</ele><time>2026-04-12T05:34:50.999Z</time></trkpt><trkpt lat="43.547148677087435" lon="6.962429767128709"><ele>5.8</ele><time>2026-04-12T05:34:51.999Z</time></trkpt><trkpt lat="43.54725255436507" lon="6.962422495716795"><ele>5.4</ele><time>2026-04-12T05:34:52.999Z</time></trkpt><trkpt lat="43.5473549304829" lon="6.962414865399494"><ele>5.0</ele><time>2026-04-12T05:34:53.999Z</time></trkpt><trkpt lat="43.54745860254023" lon="6.962406095497064"><ele>5.0</ele><time>2026-04-12T05:34:54.999Z</time></trkpt><trkpt lat="43.5475606994303" lon="6.962397458834408"><ele>5.0</ele><time>2026-04-12T05:34:55.999Z</time></trkpt><trkpt lat="43.54766386381516" lon="6.962388731872665"><ele>5.0</ele><time>2026-04-12T05:34:56.999Z</time></trkpt><trkpt lat="43.54776832362063" lon="6.962379895328042"><ele>5.0</ele><time>2026-04-12T05:34:57.999Z</time></trkpt><trkpt lat="43.54787079822006" lon="6.962372271187484"><ele>5.0</ele><time>2026-04-12T05:34:58.999Z</time></trkpt><trkpt lat="43.54797458583196" lon="6.962365012656311"><ele>4.8</ele><time>2026-04-12T05:34:59.999Z</time></trkpt><trkpt lat="43.548076293753205" lon="6.962357899564246"><ele>4.6</ele><time>2026-04-12T05:35:00.999Z</time></trkpt><trkpt lat="43.5481806397695" lon="6.962350603762796"><ele>4.4</ele><time>2026-04-12T05:35:01.999Z</time></trkpt><trkpt lat="43.54828163884275" lon="6.962343191462815"><ele>4.2</ele><time>2026-04-12T05:35:02.999Z</time></trkpt><trkpt lat="43.54838282204716" lon="6.962335269661214"><ele>4.0</ele><time>2026-04-12T05:35:03.999Z</time></trkpt><trkpt lat="43.54848484827947" lon="6.962305650965628"><ele>4.0</ele><time>2026-04-12T05:35:04.999Z</time></trkpt><trkpt lat="43.548585356160814" lon="6.962300326003486"><ele>4.0</ele><time>2026-04-12T05:35:05.999Z</time></trkpt><trkpt lat="43.5486840966668" lon="6.962295480664811"><ele>4.0</ele><time>2026-04-12T05:35:06.999Z</time></trkpt><trkpt lat="43.548782323255" lon="6.962287498005134"><ele>4.0</ele><time>2026-04-12T05:35:07.999Z</time></trkpt><trkpt lat="43.54888144595992" lon="6.96228040113709"><ele>4.0</ele><time>2026-04-12T05:35:08.999Z</time></trkpt><trkpt lat="43.54897499037022" lon="6.962269229962315"><ele>3.8000000000000003</ele><time>2026-04-12T05:35:09.999Z</time></trkpt><trkpt lat="43.549073834862746" lon="6.962261704256007"><ele>3.6000000000000005</ele><time>2026-04-12T05:35:10.999Z</time></trkpt><trkpt lat="43.549172571327944" lon="6.96224779738781"><ele>3.4</ele><time>2026-04-12T05:35:11.999Z</time></trkpt><trkpt lat="43.54927070034741" lon="6.962235813297389"><ele>3.2</ele><time>2026-04-12T05:35:12.999Z</time></trkpt><trkpt lat="43.54936855440366" lon="6.962225308609106"><ele>3.0</ele><time>2026-04-12T05:35:13.999Z</time></trkpt><trkpt lat="43.54946686149018" lon="6.962215360874613"><ele>3.0</ele><time>2026-04-12T05:35:14.999Z</time></trkpt><trkpt lat="43.549564989241354" lon="6.9622122266369395"><ele>3.0</ele><time>2026-04-12T05:35:15.999Z</time></trkpt><trkpt lat="43.54966464414033" lon="6.962211253602576"><ele>3.0</ele><time>2026-04-12T05:35:16.999Z</time></trkpt><trkpt lat="43.54975985304365" lon="6.962222195515429"><ele>3.0</ele><time>2026-04-12T05:35:17.999Z</time></trkpt><trkpt lat="43.54985471730206" lon="6.962246296551422"><ele>3.0</ele><time>2026-04-12T05:35:18.999Z</time></trkpt><trkpt lat="43.54994008168507" lon="6.962284650006502"><ele>3.0</ele><time>2026-04-12T05:35:19.999Z</time></trkpt><trkpt lat="43.55000573744304" lon="6.962347001419814"><ele>3.0</ele><time>2026-04-12T05:35:20.999Z</time></trkpt><trkpt lat="43.550050230268994" lon="6.9624318152496585"><ele>3.0</ele><time>2026-04-12T05:35:21.999Z</time></trkpt><trkpt lat="43.55009147447842" lon="6.962502256096927"><ele>3.0</ele><time>2026-04-12T05:35:22.999Z</time></trkpt><trkpt lat="43.55019534424894" lon="6.962580453909597"><ele>3.0</ele><time>2026-04-12T05:35:24.999Z</time></trkpt><trkpt lat="43.55026306310067" lon="6.962514806875966"><ele>3.0</ele><time>2026-04-12T05:35:25.999Z</time></trkpt><trkpt lat="43.55030605072483" lon="6.962449736472824"><ele>2.9999999999999996</ele><time>2026-04-12T05:35:26.999Z</time></trkpt><trkpt lat="43.55032786131732" lon="6.96236450429772"><ele>3.0</ele><time>2026-04-12T05:35:28Z</time></trkpt><trkpt lat="43.550319987466445" lon="6.962214891794934"><ele>3.0</ele><time>2026-04-12T05:35:30Z</time></trkpt><trkpt lat="43.5502828415912" lon="6.962140923497656"><ele>3.0</ele><time>2026-04-12T05:35:31Z</time></trkpt><trkpt lat="43.55023305856694" lon="6.962074959264294"><ele>3.0</ele><time>2026-04-12T05:35:32Z</time></trkpt><trkpt lat="43.55019914237146" lon="6.961995894149072"><ele>2.9999999999999996</ele><time>2026-04-12T05:35:33Z</time></trkpt><trkpt lat="43.550191498683475" lon="6.9619001903434095"><ele>3.0</ele><time>2026-04-12T05:35:34Z</time></trkpt><trkpt lat="43.5501963031947" lon="6.961794828754688"><ele>2.8333333333333335</ele><time>2026-04-12T05:35:35Z</time></trkpt><trkpt lat="43.55020606490801" lon="6.961682818356611"><ele>2.6666666666666665</ele><time>2026-04-12T05:35:36Z</time></trkpt><trkpt lat="43.55021364537935" lon="6.961566228273912"><ele>2.5</ele><time>2026-04-12T05:35:37Z</time></trkpt><trkpt lat="43.550225190216594" lon="6.961441570304667"><ele>2.333333333333333</ele><time>2026-04-12T05:35:38Z</time></trkpt><trkpt lat="43.55024318774151" lon="6.961313394514393"><ele>2.1666666666666665</ele><time>2026-04-12T05:35:39Z</time></trkpt><trkpt lat="43.55026005011548" lon="6.961184899670333"><ele>2.0</ele><time>2026-04-12T05:35:40Z</time></trkpt><trkpt lat="43.55027077959122" lon="6.961048768199588"><ele>2.0</ele><time>2026-04-12T05:35:41Z</time></trkpt><trkpt lat="43.5502762426025" lon="6.960916464314616"><ele>2.0</ele><time>2026-04-12T05:35:42Z</time></trkpt><trkpt lat="43.55028397758231" lon="6.960769681798329"><ele>2.0</ele><time>2026-04-12T05:35:43Z</time></trkpt><trkpt lat="43.550288194895145" lon="6.960623044583918"><ele>2.0</ele><time>2026-04-12T05:35:44Z</time></trkpt><trkpt lat="43.55029818245709" lon="6.960473340646712"><ele>2.0</ele><time>2026-04-12T05:35:45Z</time></trkpt><trkpt lat="43.5503070879098" lon="6.960325157545982"><ele>2.4000000000000004</ele><time>2026-04-12T05:35:46Z</time></trkpt><trkpt lat="43.5503125216731" lon="6.9601742252933"><ele>2.8000000000000003</ele><time>2026-04-12T05:35:47Z</time></trkpt><trkpt lat="43.550315970977636" lon="6.960027324883261"><ele>3.2</ele><time>2026-04-12T05:35:48Z</time></trkpt><trkpt lat="43.55032007274552" lon="6.95987836588944"><ele>3.6</ele><time>2026-04-12T05:35:49Z</time></trkpt><trkpt lat="43.55032313116959" lon="6.959735675183917"><ele>4.0</ele><time>2026-04-12T05:35:50Z</time></trkpt><trkpt lat="43.55032618373162" lon="6.9595939848662365"><ele>4.0</ele><time>2026-04-12T05:35:51Z</time></trkpt><trkpt lat="43.55033503388148" lon="6.959454355711278"><ele>4.0</ele><time>2026-04-12T05:35:52Z</time></trkpt><trkpt lat="43.55034024429255" lon="6.959324103310397"><ele>4.0</ele><time>2026-04-12T05:35:53Z</time></trkpt><trkpt lat="43.550345357648744" lon="6.959192055391129"><ele>4.0</ele><time>2026-04-12T05:35:54Z</time></trkpt><trkpt lat="43.55035154153045" lon="6.959050803546969"><ele>4.0</ele><time>2026-04-12T05:35:55Z</time></trkpt><trkpt lat="43.550362789158996" lon="6.958906113530187"><ele>4.0</ele><time>2026-04-12T05:35:56Z</time></trkpt><trkpt lat="43.55037364555039" lon="6.9587559516269675"><ele>4.0</ele><time>2026-04-12T05:35:57Z</time></trkpt><trkpt lat="43.55038257120064" lon="6.958605714988607"><ele>4.0</ele><time>2026-04-12T05:35:58Z</time></trkpt><trkpt lat="43.550392457681966" lon="6.958457335437134"><ele>4.0</ele><time>2026-04-12T05:35:59Z</time></trkpt><trkpt lat="43.5504007721809" lon="6.958308386350307"><ele>4.0</ele><time>2026-04-12T05:36:00Z</time></trkpt><trkpt lat="43.55040771559468" lon="6.958160357351989"><ele>4.4</ele><time>2026-04-12T05:36:01Z</time></trkpt><trkpt lat="43.55040753340091" lon="6.958012681034445"><ele>4.800000000000001</ele><time>2026-04-12T05:36:02Z</time></trkpt><trkpt lat="43.55041896821854" lon="6.957869781036231"><ele>5.199999999999999</ele><time>2026-04-12T05:36:03Z</time></trkpt><trkpt lat="43.55044039535561" lon="6.957730849177875"><ele>5.6</ele><time>2026-04-12T05:36:04Z</time></trkpt><trkpt lat="43.55047901399227" lon="6.957605149482893"><ele>6.0</ele><time>2026-04-12T05:36:05Z</time></trkpt><trkpt lat="43.550542242346836" lon="6.9575016149648485"><ele>6.0</ele><time>2026-04-12T05:36:06Z</time></trkpt><trkpt lat="43.55059722382326" lon="6.957395533322488"><ele>6.0</ele><time>2026-04-12T05:36:07Z</time></trkpt><trkpt lat="43.55062901120193" lon="6.957276856483376"><ele>6.0</ele><time>2026-04-12T05:36:08Z</time></trkpt><trkpt lat="43.550650857879496" lon="6.9571484039223055"><ele>6.0</ele><time>2026-04-12T05:36:09Z</time></trkpt><trkpt lat="43.55069668455017" lon="6.957028383382987"><ele>6.0</ele><time>2026-04-12T05:36:10Z</time></trkpt><trkpt lat="43.550756858688004" lon="6.9569101897145655"><ele>6.0</ele><time>2026-04-12T05:36:11Z</time></trkpt><trkpt lat="43.550815854556866" lon="6.956792413339178"><ele>6.0</ele><time>2026-04-12T05:36:12Z</time></trkpt><trkpt lat="43.550876996566366" lon="6.9566780257482375"><ele>6.0</ele><time>2026-04-12T05:36:13Z</time></trkpt><trkpt lat="43.55094018348943" lon="6.956571104280981"><ele>6.0</ele><time>2026-04-12T05:36:14Z</time></trkpt><trkpt lat="43.55100273994928" lon="6.956464327373077"><ele>6.0</ele><time>2026-04-12T05:36:15Z</time></trkpt><trkpt lat="43.55106854277591" lon="6.956359851334299"><ele>6.0</ele><time>2026-04-12T05:36:16Z</time></trkpt><trkpt lat="43.55113967480296" lon="6.956265088819453"><ele>6.0</ele><time>2026-04-12T05:36:17Z</time></trkpt><trkpt lat="43.55121385048319" lon="6.956174439214564"><ele>6.0</ele><time>2026-04-12T05:36:18Z</time></trkpt><trkpt lat="43.55129199963742" lon="6.956094607601277"><ele>6.0</ele><time>2026-04-12T05:36:19Z</time></trkpt><trkpt lat="43.55137178228944" lon="6.956017021215051"><ele>6.0</ele><time>2026-04-12T05:36:20Z</time></trkpt><trkpt lat="43.55145058329305" lon="6.955940157130403"><ele>5.8</ele><time>2026-04-12T05:36:21Z</time></trkpt><trkpt lat="43.55152472131711" lon="6.955865994338355"><ele>5.6</ele><time>2026-04-12T05:36:22Z</time></trkpt><trkpt lat="43.55160658786735" lon="6.955792062787318"><ele>5.4</ele><time>2026-04-12T05:36:23Z</time></trkpt><trkpt lat="43.55169412726154" lon="6.955728581965971"><ele>5.2</ele><time>2026-04-12T05:36:24Z</time></trkpt><trkpt lat="43.55178126378639" lon="6.955660760252773"><ele>5.0</ele><time>2026-04-12T05:36:25Z</time></trkpt><trkpt lat="43.55186813271492" lon="6.955587839902046"><ele>5.0</ele><time>2026-04-12T05:36:26Z</time></trkpt><trkpt lat="43.55195930403508" lon="6.955522281773698"><ele>5.0</ele><time>2026-04-12T05:36:27Z</time></trkpt><trkpt lat="43.55205468104793" lon="6.955471820498496"><ele>5.0</ele><time>2026-04-12T05:36:28Z</time></trkpt><trkpt lat="43.5521541637228" lon="6.955430660281446"><ele>5.0</ele><time>2026-04-12T05:36:29Z</time></trkpt><trkpt lat="43.55224916036282" lon="6.955387395019187"><ele>5.0</ele><time>2026-04-12T05:36:30Z</time></trkpt><trkpt lat="43.55234342114784" lon="6.955346036686844"><ele>5.2</ele><time>2026-04-12T05:36:31Z</time></trkpt><trkpt lat="43.55243898970337" lon="6.95530678142477"><ele>5.4</ele><time>2026-04-12T05:36:32Z</time></trkpt><trkpt lat="43.552533035395136" lon="6.955263707507014"><ele>5.6</ele><time>2026-04-12T05:36:33Z</time></trkpt><trkpt lat="43.55262817625704" lon="6.955224287842725"><ele>5.8</ele><time>2026-04-12T05:36:33.999Z</time></trkpt><trkpt lat="43.55272398784267" lon="6.955190081919595"><ele>6.0</ele><time>2026-04-12T05:36:34.999Z</time></trkpt><trkpt lat="43.55281897131671" lon="6.955154614865617"><ele>6.0</ele><time>2026-04-12T05:36:35.999Z</time></trkpt><trkpt lat="43.55291611084721" lon="6.955119417695523"><ele>6.0</ele><time>2026-04-12T05:36:36.999Z</time></trkpt><trkpt lat="43.55300948103231" lon="6.955080889620651"><ele>6.0</ele><time>2026-04-12T05:36:37.999Z</time></trkpt><trkpt lat="43.553104037099885" lon="6.955044632032023"><ele>6.0</ele><time>2026-04-12T05:36:38.999Z</time></trkpt><trkpt lat="43.553198249485646" lon="6.955006216972786"><ele>6.0</ele><time>2026-04-12T05:36:39.999Z</time></trkpt><trkpt lat="43.55329051829309" lon="6.954964960187469"><ele>6.0</ele><time>2026-04-12T05:36:40.999Z</time></trkpt><trkpt lat="43.55338284947158" lon="6.9549306401833695"><ele>6.0</ele><time>2026-04-12T05:36:41.999Z</time></trkpt><trkpt lat="43.55347654018961" lon="6.954898679346335"><ele>6.0</ele><time>2026-04-12T05:36:42.999Z</time></trkpt><trkpt lat="43.55357129958148" lon="6.954867760997903"><ele>6.0</ele><time>2026-04-12T05:36:43.999Z</time></trkpt><trkpt lat="43.55366652457337" lon="6.9548319709482005"><ele>6.0</ele><time>2026-04-12T05:36:44.999Z</time></trkpt><trkpt lat="43.55376132957554" lon="6.954798052241873"><ele>6.0</ele><time>2026-04-12T05:36:45.999Z</time></trkpt><trkpt lat="43.55385928890116" lon="6.954765230832108"><ele>6.0</ele><time>2026-04-12T05:36:46.999Z</time></trkpt><trkpt lat="43.55395682197601" lon="6.954728347318927"><ele>6.0</ele><time>2026-04-12T05:36:47.999Z</time></trkpt><trkpt lat="43.554055420520704" lon="6.954694184578259"><ele>6.0</ele><time>2026-04-12T05:36:48.999Z</time></trkpt><trkpt lat="43.55415526467304" lon="6.954659963614032"><ele>6.0</ele><time>2026-04-12T05:36:49.999Z</time></trkpt><trkpt lat="43.55425230245643" lon="6.954626568242346"><ele>6.0</ele><time>2026-04-12T05:36:50.999Z</time></trkpt><trkpt lat="43.554351658529" lon="6.954600732275479"><ele>6.0</ele><time>2026-04-12T05:36:51.999Z</time></trkpt><trkpt lat="43.55445101641939" lon="6.954585673435186"><ele>6.0</ele><time>2026-04-12T05:36:52.999Z</time></trkpt><trkpt lat="43.554548601451934" lon="6.954567664482291"><ele>6.0</ele><time>2026-04-12T05:36:53.999Z</time></trkpt><trkpt lat="43.5546443728858" lon="6.954535292207951"><ele>6.0</ele><time>2026-04-12T05:36:54.999Z</time></trkpt><trkpt lat="43.554736656678706" lon="6.954498159085555"><ele>6.199999999999999</ele><time>2026-04-12T05:36:55.999Z</time></trkpt><trkpt lat="43.5548332253327" lon="6.954461798430464"><ele>6.3999999999999995</ele><time>2026-04-12T05:36:56.999Z</time></trkpt><trkpt lat="43.55492587060696" lon="6.954419758075813"><ele>6.6</ele><time>2026-04-12T05:36:57.999Z</time></trkpt><trkpt lat="43.55502069527415" lon="6.954368998433342"><ele>6.8</ele><time>2026-04-12T05:36:58.999Z</time></trkpt><trkpt lat="43.55511592195953" lon="6.95432575084886"><ele>7.0</ele><time>2026-04-12T05:36:59.999Z</time></trkpt><trkpt lat="43.55521361178783" lon="6.95429053429411"><ele>7.0</ele><time>2026-04-12T05:37:00.999Z</time></trkpt><trkpt lat="43.55531206721089" lon="6.954253652589647"><ele>6.999999999999999</ele><time>2026-04-12T05:37:01.999Z</time></trkpt><trkpt lat="43.555410384139655" lon="6.954214844127314"><ele>6.999999999999999</ele><time>2026-04-12T05:37:02.999Z</time></trkpt><trkpt lat="43.55550884789937" lon="6.954173278648182"><ele>7.0</ele><time>2026-04-12T05:37:03.999Z</time></trkpt><trkpt lat="43.555606883336864" lon="6.954127653534628"><ele>7.0</ele><time>2026-04-12T05:37:04.999Z</time></trkpt><trkpt lat="43.555707166364144" lon="6.9540754659078186"><ele>7.199999999999999</ele><time>2026-04-12T05:37:05.999Z</time></trkpt><trkpt lat="43.55580616176369" lon="6.954011915411231"><ele>7.3999999999999995</ele><time>2026-04-12T05:37:06.999Z</time></trkpt><trkpt lat="43.555902194932344" lon="6.953940594344097"><ele>7.6000000000000005</ele><time>2026-04-12T05:37:07.999Z</time></trkpt><trkpt lat="43.5559946974647" lon="6.953862902171109"><ele>7.800000000000001</ele><time>2026-04-12T05:37:08.999Z</time></trkpt><trkpt lat="43.55608644745764" lon="6.953780528263102"><ele>8.0</ele><time>2026-04-12T05:37:09.999Z</time></trkpt><trkpt lat="43.55617577370739" lon="6.953701829478153"><ele>7.4</ele><time>2026-04-12T05:37:10.999Z</time></trkpt><trkpt lat="43.55626717814305" lon="6.9536255977272665"><ele>6.800000000000001</ele><time>2026-04-12T05:37:11.999Z</time></trkpt><trkpt lat="43.55635962917734" lon="6.953548406070668"><ele>6.2</ele><time>2026-04-12T05:37:12.999Z</time></trkpt><trkpt lat="43.55645214583222" lon="6.953476613298873"><ele>5.6</ele><time>2026-04-12T05:37:13.999Z</time></trkpt><trkpt lat="43.55654806094706" lon="6.9534182876379305"><ele>5.0</ele><time>2026-04-12T05:37:14.999Z</time></trkpt><trkpt lat="43.556629231089104" lon="6.953355736745433"><ele>5.0</ele><time>2026-04-12T05:37:15.999Z</time></trkpt><trkpt lat="43.55673812492011" lon="6.953461130975054"><ele>5.0</ele><time>2026-04-12T05:37:16.999Z</time></trkpt><trkpt lat="43.55683144351083" lon="6.953450041181315"><ele>5.0</ele><time>2026-04-12T05:37:17.999Z</time></trkpt><trkpt lat="43.55691689676031" lon="6.953393718704905"><ele>5.0</ele><time>2026-04-12T05:37:18.999Z</time></trkpt><trkpt lat="43.55698964442362" lon="6.953280187679657"><ele>5.0</ele><time>2026-04-12T05:37:19.999Z</time></trkpt><trkpt lat="43.55704486723856" lon="6.953162504148577"><ele>5.2</ele><time>2026-04-12T05:37:20.999Z</time></trkpt><trkpt lat="43.55713403077714" lon="6.953078084453038"><ele>5.4</ele><time>2026-04-12T05:37:21.999Z</time></trkpt><trkpt lat="43.557212845462445" lon="6.952980445616971"><ele>5.6</ele><time>2026-04-12T05:37:22.999Z</time></trkpt><trkpt lat="43.55729281423909" lon="6.952869852288246"><ele>5.8</ele><time>2026-04-12T05:37:23.999Z</time></trkpt><trkpt lat="43.55731889000068" lon="6.95270697476153"><ele>6.0</ele><time>2026-04-12T05:37:24.999Z</time></trkpt><trkpt lat="43.557339209403" lon="6.952547378874705"><ele>5.75</ele><time>2026-04-12T05:37:25.999Z</time></trkpt><trkpt lat="43.55735780572531" lon="6.952389270977691"><ele>5.5</ele><time>2026-04-12T05:37:26.999Z</time></trkpt><trkpt lat="43.557392228695186" lon="6.952236261499578"><ele>5.25</ele><time>2026-04-12T05:37:27.999Z</time></trkpt><trkpt lat="43.557456761462426" lon="6.952100426403236"><ele>5.0</ele><time>2026-04-12T05:37:28.999Z</time></trkpt><trkpt lat="43.557551194641555" lon="6.9519915034819055"><ele>5.0</ele><time>2026-04-12T05:37:29.999Z</time></trkpt><trkpt lat="43.55766819943354" lon="6.95192453796946"><ele>5.0</ele><time>2026-04-12T05:37:30.999Z</time></trkpt><trkpt lat="43.55779048209119" lon="6.951889795867042"><ele>5.0</ele><time>2026-04-12T05:37:31.999Z</time></trkpt><trkpt lat="43.55790389987059" lon="6.951863121876049"><ele>5.0</ele><time>2026-04-12T05:37:32.999Z</time></trkpt><trkpt lat="43.55800565016907" lon="6.951833129687306"><ele>5.0</ele><time>2026-04-12T05:37:34Z</time></trkpt><trkpt lat="43.55811262584273" lon="6.951798245733913"><ele>5.0</ele><time>2026-04-12T05:37:35Z</time></trkpt><trkpt lat="43.55823064189985" lon="6.951763872676381"><ele>5.0</ele><time>2026-04-12T05:37:36Z</time></trkpt><trkpt lat="43.558354912013236" lon="6.951721870415544"><ele>5.0</ele><time>2026-04-12T05:37:37Z</time></trkpt><trkpt lat="43.558440622822076" lon="6.951667192579948"><ele>5.0</ele><time>2026-04-12T05:37:38Z</time></trkpt><trkpt lat="43.55854155316142" lon="6.951629729482828"><ele>5.0</ele><time>2026-04-12T05:37:39Z</time></trkpt><trkpt lat="43.558640041866155" lon="6.951592499814153"><ele>5.0</ele><time>2026-04-12T05:37:40Z</time></trkpt><trkpt lat="43.55874097126739" lon="6.951555385784123"><ele>5.0</ele><time>2026-04-12T05:37:41Z</time></trkpt><trkpt lat="43.55883879379671" lon="6.95151712149322"><ele>5.0</ele><time>2026-04-12T05:37:42Z</time></trkpt><trkpt lat="43.55893485770489" lon="6.951483654017303"><ele>5.4</ele><time>2026-04-12T05:37:43Z</time></trkpt><trkpt lat="43.55902717500235" lon="6.9514550125395695"><ele>5.8</ele><time>2026-04-12T05:37:44Z</time></trkpt><trkpt lat="43.55911439738862" lon="6.951421677461025"><ele>6.199999999999999</ele><time>2026-04-12T05:37:45Z</time></trkpt><trkpt lat="43.559205578080885" lon="6.951388352971864"><ele>6.6</ele><time>2026-04-12T05:37:46Z</time></trkpt><trkpt lat="43.5592953148862" lon="6.951355557250589"><ele>7.0</ele><time>2026-04-12T05:37:47Z</time></trkpt><trkpt lat="43.559385409407476" lon="6.9513231256369465"><ele>7.0</ele><time>2026-04-12T05:37:48Z</time></trkpt><trkpt lat="43.5594740860626" lon="6.951285720560533"><ele>6.999999999999999</ele><time>2026-04-12T05:37:49Z</time></trkpt><trkpt lat="43.55956534939401" lon="6.951239401567767"><ele>6.999999999999999</ele><time>2026-04-12T05:37:50Z</time></trkpt><trkpt lat="43.55966093245668" lon="6.951222502214417"><ele>7.0</ele><time>2026-04-12T05:37:51Z</time></trkpt><trkpt lat="43.559758478202724" lon="6.9511894742242735"><ele>7.0</ele><time>2026-04-12T05:37:52Z</time></trkpt><trkpt lat="43.55985446031524" lon="6.9511574489729595"><ele>7.0</ele><time>2026-04-12T05:37:53Z</time></trkpt><trkpt lat="43.55995534415803" lon="6.951123789071351"><ele>6.999999999999999</ele><time>2026-04-12T05:37:54Z</time></trkpt><trkpt lat="43.56005344737935" lon="6.951087385721509"><ele>6.999999999999999</ele><time>2026-04-12T05:37:55Z</time></trkpt><trkpt lat="43.56015231506886" lon="6.951052254061958"><ele>7.0</ele><time>2026-04-12T05:37:56Z</time></trkpt><trkpt lat="43.560244937002714" lon="6.950992284301558"><ele>7.0</ele><time>2026-04-12T05:37:57Z</time></trkpt><trkpt lat="43.560344096997795" lon="6.950963501858117"><ele>6.8</ele><time>2026-04-12T05:37:58Z</time></trkpt><trkpt lat="43.560445968047745" lon="6.950945065134995"><ele>6.6</ele><time>2026-04-12T05:37:59Z</time></trkpt><trkpt lat="43.56054638854635" lon="6.950936086135785"><ele>6.3999999999999995</ele><time>2026-04-12T05:38:00Z</time></trkpt><trkpt lat="43.56064463564687" lon="6.950950458661982"><ele>6.199999999999999</ele><time>2026-04-12T05:38:01Z</time></trkpt><trkpt lat="43.56073129059243" lon="6.951000469178842"><ele>6.0</ele><time>2026-04-12T05:38:02Z</time></trkpt><trkpt lat="43.560807697975186" lon="6.951063373696"><ele>6.0</ele><time>2026-04-12T05:38:03Z</time></trkpt><trkpt lat="43.56088532355805" lon="6.951095930260556"><ele>6.0</ele><time>2026-04-12T05:38:04Z</time></trkpt><trkpt lat="43.560966772710664" lon="6.9510711379381105"><ele>6.0</ele><time>2026-04-12T05:38:05Z</time></trkpt><trkpt lat="43.5610461164126" lon="6.951001296986819"><ele>6.0</ele><time>2026-04-12T05:38:06Z</time></trkpt><trkpt lat="43.56111066391356" lon="6.95090269761877"><ele>6.0</ele><time>2026-04-12T05:38:07Z</time></trkpt><trkpt lat="43.56117472200397" lon="6.950795551455858"><ele>5.6</ele><time>2026-04-12T05:38:08Z</time></trkpt><trkpt lat="43.56126339974095" lon="6.950728745203856"><ele>5.199999999999999</ele><time>2026-04-12T05:38:09Z</time></trkpt><trkpt lat="43.56136338291784" lon="6.950693772869057"><ele>4.800000000000001</ele><time>2026-04-12T05:38:10Z</time></trkpt><trkpt lat="43.56145976151609" lon="6.950668824830846"><ele>4.4</ele><time>2026-04-12T05:38:11Z</time></trkpt><trkpt lat="43.561551172159014" lon="6.950634785033052"><ele>4.0</ele><time>2026-04-12T05:38:12Z</time></trkpt><trkpt lat="43.56164451331406" lon="6.950600119954911"><ele>4.0</ele><time>2026-04-12T05:38:13Z</time></trkpt><trkpt lat="43.561743874716946" lon="6.950563641693131"><ele>4.0</ele><time>2026-04-12T05:38:14Z</time></trkpt><trkpt lat="43.561845421004556" lon="6.950525853638355"><ele>4.0</ele><time>2026-04-12T05:38:15Z</time></trkpt><trkpt lat="43.56194792443987" lon="6.9504864768247385"><ele>4.0</ele><time>2026-04-12T05:38:16Z</time></trkpt><trkpt lat="43.562050870530776" lon="6.950446671098294"><ele>4.0</ele><time>2026-04-12T05:38:17Z</time></trkpt><trkpt lat="43.56215414518545" lon="6.950410112603948"><ele>4.2</ele><time>2026-04-12T05:38:18Z</time></trkpt><trkpt lat="43.562258307253934" lon="6.950372843891986"><ele>4.4</ele><time>2026-04-12T05:38:19Z</time></trkpt><trkpt lat="43.56236217404238" lon="6.950335365129734"><ele>4.6</ele><time>2026-04-12T05:38:20Z</time></trkpt><trkpt lat="43.56247155479956" lon="6.950295860617206"><ele>4.8</ele><time>2026-04-12T05:38:21Z</time></trkpt><trkpt lat="43.56257507426242" lon="6.950254873942707"><ele>5.0</ele><time>2026-04-12T05:38:22Z</time></trkpt><trkpt lat="43.56268319484411" lon="6.950214968302434"><ele>5.0</ele><time>2026-04-12T05:38:23Z</time></trkpt><trkpt lat="43.56279450404537" lon="6.950173279286457"><ele>5.0</ele><time>2026-04-12T05:38:24Z</time></trkpt><trkpt lat="43.562899284197044" lon="6.95013327246417"><ele>5.0</ele><time>2026-04-12T05:38:25Z</time></trkpt><trkpt lat="43.56301035449248" lon="6.950094438265557"><ele>5.0</ele><time>2026-04-12T05:38:26Z</time></trkpt><trkpt lat="43.56311504799848" lon="6.950053919338953"><ele>5.0</ele><time>2026-04-12T05:38:27Z</time></trkpt><trkpt lat="43.56322355481926" lon="6.950016886161387"><ele>5.0</ele><time>2026-04-12T05:38:28Z</time></trkpt><trkpt lat="43.56332874149447" lon="6.949979869505884"><ele>5.0</ele><time>2026-04-12T05:38:29Z</time></trkpt><trkpt lat="43.56343659403649" lon="6.949942130914353"><ele>5.0</ele><time>2026-04-12T05:38:30Z</time></trkpt><trkpt lat="43.56354302114376" lon="6.949903623568548"><ele>5.0</ele><time>2026-04-12T05:38:31Z</time></trkpt><trkpt lat="43.563649548119464" lon="6.949866740835136"><ele>5.0</ele><time>2026-04-12T05:38:32Z</time></trkpt><trkpt lat="43.56375578998372" lon="6.949829662286445"><ele>5.0</ele><time>2026-04-12T05:38:33Z</time></trkpt><trkpt lat="43.56386640869231" lon="6.949795672219751"><ele>5.0</ele><time>2026-04-12T05:38:34Z</time></trkpt><trkpt lat="43.56397253762344" lon="6.949761950135054"><ele>5.0</ele><time>2026-04-12T05:38:35Z</time></trkpt><trkpt lat="43.56407882415182" lon="6.949725184392358"><ele>5.0</ele><time>2026-04-12T05:38:36Z</time></trkpt><trkpt lat="43.56418746513178" lon="6.949694473687247"><ele>5.0</ele><time>2026-04-12T05:38:37Z</time></trkpt><trkpt lat="43.564294425355406" lon="6.949660376617502"><ele>5.0</ele><time>2026-04-12T05:38:38Z</time></trkpt><trkpt lat="43.56440152245399" lon="6.949624502509265"><ele>5.0</ele><time>2026-04-12T05:38:39Z</time></trkpt><trkpt lat="43.564507820393274" lon="6.9495814983208835"><ele>5.0</ele><time>2026-04-12T05:38:40Z</time></trkpt><trkpt lat="43.564614631992555" lon="6.949528620861132"><ele>5.0</ele><time>2026-04-12T05:38:40.999Z</time></trkpt><trkpt lat="43.56472350297002" lon="6.949486957228465"><ele>5.0</ele><time>2026-04-12T05:38:41.999Z</time></trkpt><trkpt lat="43.564832960249625" lon="6.949454137112296"><ele>5.2</ele><time>2026-04-12T05:38:42.999Z</time></trkpt><trkpt lat="43.56494134074354" lon="6.949418368609586"><ele>5.4</ele><time>2026-04-12T05:38:43.999Z</time></trkpt><trkpt lat="43.56505010670958" lon="6.949385171568872"><ele>5.6</ele><time>2026-04-12T05:38:44.999Z</time></trkpt><trkpt lat="43.56515624005646" lon="6.949343811067487"><ele>5.8</ele><time>2026-04-12T05:38:45.999Z</time></trkpt><trkpt lat="43.56525870090936" lon="6.949296390890976"><ele>6.0</ele><time>2026-04-12T05:38:46.999Z</time></trkpt><trkpt lat="43.56536538958594" lon="6.949254608419996"><ele>6.8</ele><time>2026-04-12T05:38:47.999Z</time></trkpt><trkpt lat="43.56546917965134" lon="6.949213378345798"><ele>7.6</ele><time>2026-04-12T05:38:48.999Z</time></trkpt><trkpt lat="43.56557522176923" lon="6.949174525003861"><ele>8.4</ele><time>2026-04-12T05:38:49.999Z</time></trkpt><trkpt lat="43.56567859518221" lon="6.94913451542577"><ele>9.2</ele><time>2026-04-12T05:38:50.999Z</time></trkpt><trkpt lat="43.56578621749053" lon="6.949101393340216"><ele>10.0</ele><time>2026-04-12T05:38:51.999Z</time></trkpt><trkpt lat="43.56589095103763" lon="6.949060007763901"><ele>10.0</ele><time>2026-04-12T05:38:52.999Z</time></trkpt><trkpt lat="43.56599405796141" lon="6.949018984964197"><ele>10.0</ele><time>2026-04-12T05:38:53.999Z</time></trkpt><trkpt lat="43.56609815619806" lon="6.948984645484799"><ele>10.0</ele><time>2026-04-12T05:38:54.999Z</time></trkpt><trkpt lat="43.56619993599362" lon="6.948944994964918"><ele>10.0</ele><time>2026-04-12T05:38:55.999Z</time></trkpt><trkpt lat="43.566302513075186" lon="6.948907283228631"><ele>10.0</ele><time>2026-04-12T05:38:56.999Z</time></trkpt><trkpt lat="43.5664082933553" lon="6.94887381472504"><ele>10.2</ele><time>2026-04-12T05:38:57.999Z</time></trkpt><trkpt lat="43.56651599516739" lon="6.948851381989233"><ele>10.4</ele><time>2026-04-12T05:38:58.999Z</time></trkpt><trkpt lat="43.566621760570875" lon="6.948872171797045"><ele>10.600000000000001</ele><time>2026-04-12T05:38:59.999Z</time></trkpt><trkpt lat="43.566725085382465" lon="6.9489187716953875"><ele>10.8</ele><time>2026-04-12T05:39:00.999Z</time></trkpt><trkpt lat="43.56682988322843" lon="6.948951511321311"><ele>11.0</ele><time>2026-04-12T05:39:01.999Z</time></trkpt><trkpt lat="43.56693378609199" lon="6.948944423190449"><ele>11.0</ele><time>2026-04-12T05:39:02.999Z</time></trkpt><trkpt lat="43.56702699463028" lon="6.948875963490313"><ele>11.0</ele><time>2026-04-12T05:39:03.999Z</time></trkpt><trkpt lat="43.567103502446365" lon="6.94876872007572"><ele>11.0</ele><time>2026-04-12T05:39:04.999Z</time></trkpt><trkpt lat="43.567174943106096" lon="6.948657051933854"><ele>11.0</ele><time>2026-04-12T05:39:05.999Z</time></trkpt><trkpt lat="43.56725864424051" lon="6.948571915109173"><ele>11.0</ele><time>2026-04-12T05:39:06.999Z</time></trkpt><trkpt lat="43.567356273924496" lon="6.948518188834168"><ele>10.8</ele><time>2026-04-12T05:39:07.999Z</time></trkpt><trkpt lat="43.56745224899626" lon="6.948473014683714"><ele>10.600000000000001</ele><time>2026-04-12T05:39:08.999Z</time></trkpt><trkpt lat="43.56754519659299" lon="6.948419702353257"><ele>10.4</ele><time>2026-04-12T05:39:09.999Z</time></trkpt><trkpt lat="43.56763902020937" lon="6.948367507073602"><ele>10.2</ele><time>2026-04-12T05:39:10.999Z</time></trkpt><trkpt lat="43.5677384066988" lon="6.948338392626467"><ele>10.0</ele><time>2026-04-12T05:39:11.999Z</time></trkpt><trkpt lat="43.567835514056654" lon="6.948289068241144"><ele>9.4</ele><time>2026-04-12T05:39:12.999Z</time></trkpt><trkpt lat="43.56792705622531" lon="6.948215337791008"><ele>8.8</ele><time>2026-04-12T05:39:13.999Z</time></trkpt><trkpt lat="43.56803191026345" lon="6.948179203373877"><ele>8.2</ele><time>2026-04-12T05:39:14.999Z</time></trkpt><trkpt lat="43.56812852152159" lon="6.948120132327737"><ele>7.6</ele><time>2026-04-12T05:39:15.999Z</time></trkpt><trkpt lat="43.568224218041" lon="6.948056421541568"><ele>7.0</ele><time>2026-04-12T05:39:16.999Z</time></trkpt><trkpt lat="43.5683189053087" lon="6.947989786894236"><ele>7.0</ele><time>2026-04-12T05:39:17.999Z</time></trkpt><trkpt lat="43.568413391242046" lon="6.947917827558265"><ele>6.999999999999999</ele><time>2026-04-12T05:39:18.999Z</time></trkpt><trkpt lat="43.568504042898745" lon="6.947845224847436"><ele>6.999999999999999</ele><time>2026-04-12T05:39:19.999Z</time></trkpt><trkpt lat="43.5685942317783" lon="6.947768612963968"><ele>7.0</ele><time>2026-04-12T05:39:20.999Z</time></trkpt><trkpt lat="43.568684568041945" lon="6.9476889112958"><ele>7.0</ele><time>2026-04-12T05:39:21.999Z</time></trkpt><trkpt lat="43.56877441500047" lon="6.947606771870643"><ele>6.8</ele><time>2026-04-12T05:39:22.999Z</time></trkpt><trkpt lat="43.56885963538164" lon="6.947526222402663"><ele>6.6</ele><time>2026-04-12T05:39:23.999Z</time></trkpt><trkpt lat="43.56894666154587" lon="6.9474426229942745"><ele>6.3999999999999995</ele><time>2026-04-12T05:39:24.999Z</time></trkpt><trkpt lat="43.569032789806776" lon="6.947355988193654"><ele>6.199999999999999</ele><time>2026-04-12T05:39:25.999Z</time></trkpt><trkpt lat="43.56911881053213" lon="6.947269461369793"><ele>6.0</ele><time>2026-04-12T05:39:26.999Z</time></trkpt><trkpt lat="43.569203263509735" lon="6.947183593239067"><ele>6.0</ele><time>2026-04-12T05:39:27.999Z</time></trkpt><trkpt lat="43.56929039552062" lon="6.947094874343897"><ele>6.0</ele><time>2026-04-12T05:39:28.999Z</time></trkpt><trkpt lat="43.569376472546296" lon="6.9470072296970615"><ele>6.0</ele><time>2026-04-12T05:39:29.999Z</time></trkpt><trkpt lat="43.56946242264939" lon="6.946919714272611"><ele>6.0</ele><time>2026-04-12T05:39:30.999Z</time></trkpt><trkpt lat="43.569546585020625" lon="6.946834019135188"><ele>6.0</ele><time>2026-04-12T05:39:31.999Z</time></trkpt><trkpt lat="43.56963325051605" lon="6.946748422622404"><ele>6.4</ele><time>2026-04-12T05:39:32.999Z</time></trkpt><trkpt lat="43.56972126867823" lon="6.946661651956964"><ele>6.8</ele><time>2026-04-12T05:39:33.999Z</time></trkpt><trkpt lat="43.5698098465464" lon="6.946576394381041"><ele>7.200000000000001</ele><time>2026-04-12T05:39:34.999Z</time></trkpt><trkpt lat="43.569898076811995" lon="6.946492092015279"><ele>7.6000000000000005</ele><time>2026-04-12T05:39:35.999Z</time></trkpt><trkpt lat="43.56998614135911" lon="6.946410985389798"><ele>8.0</ele><time>2026-04-12T05:39:36.999Z</time></trkpt><trkpt lat="43.57007573138506" lon="6.946329576655118"><ele>8.0</ele><time>2026-04-12T05:39:37.999Z</time></trkpt><trkpt lat="43.57016543690894" lon="6.94624966363353"><ele>8.0</ele><time>2026-04-12T05:39:38.999Z</time></trkpt><trkpt lat="43.570255730372466" lon="6.94617081433451"><ele>8.0</ele><time>2026-04-12T05:39:40Z</time></trkpt><trkpt lat="43.57034588455626" lon="6.946093864085742"><ele>8.0</ele><time>2026-04-12T05:39:41Z</time></trkpt><trkpt lat="43.57043343495327" lon="6.946020298222138"><ele>8.0</ele><time>2026-04-12T05:39:42Z</time></trkpt><trkpt lat="43.57051743326876" lon="6.945949717191538"><ele>7.999999999999999</ele><time>2026-04-12T05:39:43Z</time></trkpt><trkpt lat="43.570598425960355" lon="6.945885322319342"><ele>8.0</ele><time>2026-04-12T05:39:44Z</time></trkpt><trkpt lat="43.5706796931503" lon="6.9458206113324605"><ele>8.0</ele><time>2026-04-12T05:39:45Z</time></trkpt><trkpt lat="43.57075824992174" lon="6.945758058518977"><ele>8.0</ele><time>2026-04-12T05:39:46Z</time></trkpt><trkpt lat="43.57082668024596" lon="6.94570356912471"><ele>7.999999999999999</ele><time>2026-04-12T05:39:47Z</time></trkpt><trkpt lat="43.570889005550036" lon="6.945653941059382"><ele>8.0</ele><time>2026-04-12T05:39:48Z</time></trkpt><trkpt lat="43.57095136710173" lon="6.945604444468269"><ele>8.0</ele><time>2026-04-12T05:39:49Z</time></trkpt><trkpt lat="43.571030822929885" lon="6.945543017022705"><ele>8.0</ele><time>2026-04-12T05:39:51Z</time></trkpt><trkpt lat="43.57111798158164" lon="6.945475634597703"><ele>8.0</ele><time>2026-04-12T05:39:53Z</time></trkpt><trkpt lat="43.571192342986436" lon="6.945418146710216"><ele>8.0</ele><time>2026-04-12T05:39:56Z</time></trkpt><trkpt lat="43.57152308032251" lon="6.945349192576184"><ele>8.0</ele><time>2026-04-12T05:39:59Z</time></trkpt><trkpt lat="43.57158913946112" lon="6.945158626313962"><ele>8.0</ele><time>2026-04-12T05:40:00Z</time></trkpt><trkpt lat="43.571684209696095" lon="6.945055033151193"><ele>8.0</ele><time>2026-04-12T05:40:04Z</time></trkpt><trkpt lat="43.57174607046538" lon="6.945020146699924"><ele>8.0</ele><time>2026-04-12T05:40:05Z</time></trkpt><trkpt lat="43.571819434624786" lon="6.9449786093065935"><ele>8.0</ele><time>2026-04-12T05:40:06Z</time></trkpt><trkpt lat="43.57188904631344" lon="6.944939196440433"><ele>7.999999999999999</ele><time>2026-04-12T05:40:07Z</time></trkpt><trkpt lat="43.57195676475073" lon="6.944900855497756"><ele>8.0</ele><time>2026-04-12T05:40:08Z</time></trkpt><trkpt lat="43.57203491080276" lon="6.944856610775287"><ele>8.0</ele><time>2026-04-12T05:40:09Z</time></trkpt><trkpt lat="43.57210948617782" lon="6.944814389261104"><ele>8.0</ele><time>2026-04-12T05:40:10Z</time></trkpt><trkpt lat="43.57218745385081" lon="6.9447616926481315"><ele>7.999999999999999</ele><time>2026-04-12T05:40:11Z</time></trkpt><trkpt lat="43.57226670958879" lon="6.9447117623035615"><ele>8.0</ele><time>2026-04-12T05:40:12Z</time></trkpt><trkpt lat="43.57235490135824" lon="6.944655910389117"><ele>8.0</ele><time>2026-04-12T05:40:13Z</time></trkpt><trkpt lat="43.57243635515584" lon="6.9445982365095436"><ele>8.0</ele><time>2026-04-12T05:40:14Z</time></trkpt><trkpt lat="43.572519463968625" lon="6.944541309335962"><ele>8.0</ele><time>2026-04-12T05:40:15Z</time></trkpt><trkpt lat="43.57260412469924" lon="6.944481496258076"><ele>8.0</ele><time>2026-04-12T05:40:16Z</time></trkpt><trkpt lat="43.57268748827866" lon="6.944420433035594"><ele>8.0</ele><time>2026-04-12T05:40:17Z</time></trkpt><trkpt lat="43.572761539404006" lon="6.944364696701268"><ele>8.0</ele><time>2026-04-12T05:40:18Z</time></trkpt><trkpt lat="43.57284707589226" lon="6.944298768562397"><ele>8.0</ele><time>2026-04-12T05:40:19Z</time></trkpt><trkpt lat="43.57293644200306" lon="6.944228662261558"><ele>8.0</ele><time>2026-04-12T05:40:20Z</time></trkpt><trkpt lat="43.573021771055934" lon="6.944161457042649"><ele>8.0</ele><time>2026-04-12T05:40:21Z</time></trkpt><trkpt lat="43.57310014356315" lon="6.944072947202882"><ele>8.0</ele><time>2026-04-12T05:40:22Z</time></trkpt><trkpt lat="43.573188350444624" lon="6.944002597939634"><ele>8.4</ele><time>2026-04-12T05:40:23Z</time></trkpt><trkpt lat="43.573275479453116" lon="6.943928041521583"><ele>8.8</ele><time>2026-04-12T05:40:24Z</time></trkpt><trkpt lat="43.573375101545025" lon="6.943868817046908"><ele>9.2</ele><time>2026-04-12T05:40:25Z</time></trkpt><trkpt lat="43.573466916086154" lon="6.943792838843393"><ele>9.6</ele><time>2026-04-12T05:40:26Z</time></trkpt><trkpt lat="43.57356397279344" lon="6.943712522839805"><ele>10.0</ele><time>2026-04-12T05:40:27Z</time></trkpt><trkpt lat="43.57365902365116" lon="6.943633866503062"><ele>9.5</ele><time>2026-04-12T05:40:28Z</time></trkpt><trkpt lat="43.57375516015643" lon="6.943554311918028"><ele>9.0</ele><time>2026-04-12T05:40:29Z</time></trkpt><trkpt lat="43.57385116574854" lon="6.943474865585429"><ele>8.5</ele><time>2026-04-12T05:40:30Z</time></trkpt><trkpt lat="43.57394857045696" lon="6.943394261549792"><ele>8.0</ele><time>2026-04-12T05:40:31Z</time></trkpt><trkpt lat="43.57404616780357" lon="6.94331394102685"><ele>8.0</ele><time>2026-04-12T05:40:32Z</time></trkpt><trkpt lat="43.57414470355378" lon="6.943232952043546"><ele>8.0</ele><time>2026-04-12T05:40:33Z</time></trkpt><trkpt lat="43.57424308650561" lon="6.943150448276055"><ele>8.0</ele><time>2026-04-12T05:40:34Z</time></trkpt><trkpt lat="43.574345002895306" lon="6.943064191147936"><ele>8.0</ele><time>2026-04-12T05:40:35Z</time></trkpt><trkpt lat="43.57444813896657" lon="6.942979573889955"><ele>8.0</ele><time>2026-04-12T05:40:36Z</time></trkpt><trkpt lat="43.57454015954035" lon="6.942879624440992"><ele>8.0</ele><time>2026-04-12T05:40:37Z</time></trkpt><trkpt lat="43.574650799775696" lon="6.942817016187954"><ele>8.0</ele><time>2026-04-12T05:40:38Z</time></trkpt><trkpt lat="43.57475269023455" lon="6.942731904968778"><ele>8.0</ele><time>2026-04-12T05:40:39Z</time></trkpt><trkpt lat="43.57485481515847" lon="6.942646606864575"><ele>8.0</ele><time>2026-04-12T05:40:40Z</time></trkpt><trkpt lat="43.574955771614604" lon="6.942563207130198"><ele>8.0</ele><time>2026-04-12T05:40:41Z</time></trkpt><trkpt lat="43.57505562094942" lon="6.942478778360407"><ele>8.0</ele><time>2026-04-12T05:40:42Z</time></trkpt><trkpt lat="43.57515757414395" lon="6.942395019556897"><ele>8.0</ele><time>2026-04-12T05:40:43Z</time></trkpt><trkpt lat="43.57525933676014" lon="6.942310827585706"><ele>8.25</ele><time>2026-04-12T05:40:44Z</time></trkpt><trkpt lat="43.5753601548116" lon="6.942225555099552"><ele>8.5</ele><time>2026-04-12T05:40:45Z</time></trkpt><trkpt lat="43.575460463914986" lon="6.942140713032592"><ele>8.75</ele><time>2026-04-12T05:40:45.999Z</time></trkpt><trkpt lat="43.5755604064512" lon="6.942056181084926"><ele>9.0</ele><time>2026-04-12T05:40:46.999Z</time></trkpt><trkpt lat="43.57565866174752" lon="6.941975971530036"><ele>9.0</ele><time>2026-04-12T05:40:47.999Z</time></trkpt><trkpt lat="43.575757835572794" lon="6.9418952018954325"><ele>9.0</ele><time>2026-04-12T05:40:48.999Z</time></trkpt><trkpt lat="43.57585342571542" lon="6.941817350797951"><ele>9.0</ele><time>2026-04-12T05:40:49.999Z</time></trkpt><trkpt lat="43.575948815702205" lon="6.94173901631581"><ele>9.0</ele><time>2026-04-12T05:40:50.999Z</time></trkpt><trkpt lat="43.576044390601545" lon="6.941659225126361"><ele>9.0</ele><time>2026-04-12T05:40:51.999Z</time></trkpt><trkpt lat="43.57613613471879" lon="6.94158263219233"><ele>9.0</ele><time>2026-04-12T05:40:52.999Z</time></trkpt><trkpt lat="43.576229010890664" lon="6.9415050941022"><ele>9.0</ele><time>2026-04-12T05:40:53.999Z</time></trkpt><trkpt lat="43.57632032085085" lon="6.941427021167585"><ele>9.0</ele><time>2026-04-12T05:40:54.999Z</time></trkpt><trkpt lat="43.57641105007846" lon="6.941347238621084"><ele>9.0</ele><time>2026-04-12T05:40:55.999Z</time></trkpt><trkpt lat="43.57649997304673" lon="6.941260979836043"><ele>9.0</ele><time>2026-04-12T05:40:56.999Z</time></trkpt><trkpt lat="43.57658010786528" lon="6.941172900005853"><ele>9.0</ele><time>2026-04-12T05:40:57.999Z</time></trkpt><trkpt lat="43.576648112174844" lon="6.941084056538528"><ele>9.0</ele><time>2026-04-12T05:40:58.999Z</time></trkpt><trkpt lat="43.57670803966899" lon="6.940994454657205"><ele>9.0</ele><time>2026-04-12T05:40:59.999Z</time></trkpt><trkpt lat="43.57677012919751" lon="6.940898954392518"><ele>9.0</ele><time>2026-04-12T05:41:00.999Z</time></trkpt><trkpt lat="43.57683210269943" lon="6.940803410305723"><ele>9.0</ele><time>2026-04-12T05:41:01.999Z</time></trkpt><trkpt lat="43.57689373472754" lon="6.940708396492551"><ele>9.0</ele><time>2026-04-12T05:41:02.999Z</time></trkpt><trkpt lat="43.576944316340466" lon="6.940630419312331"><ele>9.0</ele><time>2026-04-12T05:41:03.999Z</time></trkpt><trkpt lat="43.577023857373916" lon="6.9406129640407626"><ele>9.0</ele><time>2026-04-12T05:41:05.999Z</time></trkpt><trkpt lat="43.57708286825909" lon="6.940556434526027"><ele>9.0</ele><time>2026-04-12T05:41:07.999Z</time></trkpt><trkpt lat="43.57719660210473" lon="6.940503145640974"><ele>9.0</ele><time>2026-04-12T05:41:09.999Z</time></trkpt><trkpt lat="43.57724452425263" lon="6.940431784417372"><ele>9.0</ele><time>2026-04-12T05:41:10.999Z</time></trkpt><trkpt lat="43.577265985601976" lon="6.940335877485349"><ele>9.0</ele><time>2026-04-12T05:41:11.999Z</time></trkpt><trkpt lat="43.57726372087146" lon="6.9402290463356495"><ele>9.0</ele><time>2026-04-12T05:41:12.999Z</time></trkpt><trkpt lat="43.57725452216893" lon="6.94011760094845"><ele>9.0</ele><time>2026-04-12T05:41:13.999Z</time></trkpt><trkpt lat="43.57728540373127" lon="6.940003358168159"><ele>9.0</ele><time>2026-04-12T05:41:14.999Z</time></trkpt><trkpt lat="43.57728909939173" lon="6.939882062610747"><ele>9.0</ele><time>2026-04-12T05:41:15.999Z</time></trkpt><trkpt lat="43.57732769968759" lon="6.93976947863606"><ele>9.0</ele><time>2026-04-12T05:41:16.999Z</time></trkpt><trkpt lat="43.5773955084327" lon="6.939676265588437"><ele>9.0</ele><time>2026-04-12T05:41:17.999Z</time></trkpt><trkpt lat="43.57744253582864" lon="6.939556171679825"><ele>9.0</ele><time>2026-04-12T05:41:18.999Z</time></trkpt><trkpt lat="43.57748476083074" lon="6.9394252134035534"><ele>9.0</ele><time>2026-04-12T05:41:19.999Z</time></trkpt><trkpt lat="43.57751676094457" lon="6.939282701420734"><ele>9.0</ele><time>2026-04-12T05:41:20.999Z</time></trkpt><trkpt lat="43.57754335662586" lon="6.939144274318297"><ele>9.0</ele><time>2026-04-12T05:41:21.999Z</time></trkpt><trkpt lat="43.57757563841534" lon="6.938999197454744"><ele>9.0</ele><time>2026-04-12T05:41:22.999Z</time></trkpt><trkpt lat="43.577610490906636" lon="6.938852486348512"><ele>9.0</ele><time>2026-04-12T05:41:23.999Z</time></trkpt><trkpt lat="43.57764648713014" lon="6.938700960563425"><ele>9.0</ele><time>2026-04-12T05:41:24.999Z</time></trkpt><trkpt lat="43.5776825053666" lon="6.938549342271137"><ele>9.0</ele><time>2026-04-12T05:41:25.999Z</time></trkpt><trkpt lat="43.57771973514076" lon="6.938394170004947"><ele>9.0</ele><time>2026-04-12T05:41:26.999Z</time></trkpt><trkpt lat="43.57775673130404" lon="6.9382439688727695"><ele>9.0</ele><time>2026-04-12T05:41:27.999Z</time></trkpt><trkpt lat="43.57779454568697" lon="6.9380968912270005"><ele>9.0</ele><time>2026-04-12T05:41:28.999Z</time></trkpt><trkpt lat="43.57783474975152" lon="6.937946530208662"><ele>9.0</ele><time>2026-04-12T05:41:29.999Z</time></trkpt><trkpt lat="43.5778764480678" lon="6.9377988735833425"><ele>8.75</ele><time>2026-04-12T05:41:30.999Z</time></trkpt><trkpt lat="43.57790758573816" lon="6.9376412581798315"><ele>8.5</ele><time>2026-04-12T05:41:31.999Z</time></trkpt><trkpt lat="43.57795619863697" lon="6.937493997574999"><ele>8.25</ele><time>2026-04-12T05:41:32.999Z</time></trkpt><trkpt lat="43.57802109079464" lon="6.937356586829135"><ele>8.0</ele><time>2026-04-12T05:41:33.999Z</time></trkpt><trkpt lat="43.57807296301262" lon="6.937210765733466"><ele>8.0</ele><time>2026-04-12T05:41:34.999Z</time></trkpt><trkpt lat="43.57812674315057" lon="6.93706564057069"><ele>8.0</ele><time>2026-04-12T05:41:35.999Z</time></trkpt><trkpt lat="43.578182106349836" lon="6.936923594880501"><ele>8.0</ele><time>2026-04-12T05:41:36.999Z</time></trkpt><trkpt lat="43.57824316620062" lon="6.936784952609096"><ele>8.0</ele><time>2026-04-12T05:41:37.999Z</time></trkpt><trkpt lat="43.578307658075275" lon="6.936644983135217"><ele>8.0</ele><time>2026-04-12T05:41:38.999Z</time></trkpt><trkpt lat="43.57837331775845" lon="6.936506845594283"><ele>8.0</ele><time>2026-04-12T05:41:39.999Z</time></trkpt><trkpt lat="43.578440306999234" lon="6.936369591349218"><ele>8.0</ele><time>2026-04-12T05:41:40.999Z</time></trkpt><trkpt lat="43.578495100028384" lon="6.936221452148168"><ele>8.0</ele><time>2026-04-12T05:41:41.999Z</time></trkpt><trkpt lat="43.578578598799346" lon="6.9361018498194165"><ele>8.0</ele><time>2026-04-12T05:41:42.999Z</time></trkpt><trkpt lat="43.57865237891942" lon="6.9359715314642685"><ele>8.0</ele><time>2026-04-12T05:41:43.999Z</time></trkpt><trkpt lat="43.57871348264587" lon="6.935823219849147"><ele>8.0</ele><time>2026-04-12T05:41:44.999Z</time></trkpt><trkpt lat="43.57879178941205" lon="6.935691918686341"><ele>8.0</ele><time>2026-04-12T05:41:46Z</time></trkpt><trkpt lat="43.57888795371771" lon="6.935585574838885"><ele>8.5</ele><time>2026-04-12T05:41:47Z</time></trkpt><trkpt lat="43.578971339438695" lon="6.935460183380787"><ele>9.0</ele><time>2026-04-12T05:41:48Z</time></trkpt><trkpt lat="43.57905687037315" lon="6.935339040868887"><ele>9.5</ele><time>2026-04-12T05:41:49Z</time></trkpt><trkpt lat="43.5791341574218" lon="6.935204764941397"><ele>10.0</ele><time>2026-04-12T05:41:50Z</time></trkpt><trkpt lat="43.57922420388634" lon="6.935089607413868"><ele>10.0</ele><time>2026-04-12T05:41:51Z</time></trkpt><trkpt lat="43.57931108447233" lon="6.934982957960231"><ele>10.0</ele><time>2026-04-12T05:41:52Z</time></trkpt><trkpt lat="43.57939301922933" lon="6.9348789844433325"><ele>10.0</ele><time>2026-04-12T05:41:53Z</time></trkpt><trkpt lat="43.579477009337644" lon="6.934778594925332"><ele>10.0</ele><time>2026-04-12T05:41:54Z</time></trkpt><trkpt lat="43.5795636518693" lon="6.934678780790236"><ele>10.0</ele><time>2026-04-12T05:41:55Z</time></trkpt><trkpt lat="43.57965041382868" lon="6.934581385917811"><ele>10.0</ele><time>2026-04-12T05:41:56Z</time></trkpt><trkpt lat="43.579737804229644" lon="6.934484303044074"><ele>10.0</ele><time>2026-04-12T05:41:57Z</time></trkpt><trkpt lat="43.57982458645766" lon="6.934396622588573"><ele>10.0</ele><time>2026-04-12T05:41:58Z</time></trkpt><trkpt lat="43.57991168743217" lon="6.934310132219165"><ele>10.0</ele><time>2026-04-12T05:41:59Z</time></trkpt><trkpt lat="43.58002434039989" lon="6.934276560570472"><ele>10.0</ele><time>2026-04-12T05:42:00Z</time></trkpt><trkpt lat="43.580109203148055" lon="6.934204027637138"><ele>10.0</ele><time>2026-04-12T05:42:01Z</time></trkpt><trkpt lat="43.5801820096497" lon="6.9341429986132574"><ele>10.0</ele><time>2026-04-12T05:42:02Z</time></trkpt><trkpt lat="43.58025091906476" lon="6.934089603296003"><ele>10.0</ele><time>2026-04-12T05:42:03Z</time></trkpt><trkpt lat="43.5803102508889" lon="6.9340450521109815"><ele>10.0</ele><time>2026-04-12T05:42:04Z</time></trkpt><trkpt lat="43.580372050271656" lon="6.933977026388098"><ele>10.0</ele><time>2026-04-12T05:42:05Z</time></trkpt><trkpt lat="43.58045139903716" lon="6.933923561208092"><ele>10.2</ele><time>2026-04-12T05:42:06Z</time></trkpt><trkpt lat="43.58052789483107" lon="6.933864123669816"><ele>10.4</ele><time>2026-04-12T05:42:07Z</time></trkpt><trkpt lat="43.58060678655566" lon="6.933807461098743"><ele>10.600000000000001</ele><time>2026-04-12T05:42:08Z</time></trkpt><trkpt lat="43.58069479456112" lon="6.933774799776504"><ele>10.8</ele><time>2026-04-12T05:42:09Z</time></trkpt><trkpt lat="43.58077893531119" lon="6.933724807005468"><ele>11.0</ele><time>2026-04-12T05:42:10Z</time></trkpt><trkpt lat="43.5808651329271" lon="6.93367581694525"><ele>11.0</ele><time>2026-04-12T05:42:11Z</time></trkpt><trkpt lat="43.580953498761595" lon="6.933630028317737"><ele>11.0</ele><time>2026-04-12T05:42:12Z</time></trkpt><trkpt lat="43.58104566538933" lon="6.933581975846758"><ele>11.0</ele><time>2026-04-12T05:42:13Z</time></trkpt><trkpt lat="43.5811398933968" lon="6.933534349406958"><ele>11.0</ele><time>2026-04-12T05:42:14Z</time></trkpt><trkpt lat="43.58123816696883" lon="6.933486912360963"><ele>11.0</ele><time>2026-04-12T05:42:15Z</time></trkpt><trkpt lat="43.58133179056398" lon="6.933445904099261"><ele>11.200000000000001</ele><time>2026-04-12T05:42:16Z</time></trkpt><trkpt lat="43.58142422175499" lon="6.933407129040985"><ele>11.4</ele><time>2026-04-12T05:42:17Z</time></trkpt><trkpt lat="43.58151709163506" lon="6.933371742130455"><ele>11.6</ele><time>2026-04-12T05:42:18Z</time></trkpt><trkpt lat="43.581609605034345" lon="6.933339100810456"><ele>11.8</ele><time>2026-04-12T05:42:19Z</time></trkpt><trkpt lat="43.58169766685121" lon="6.933309778741637"><ele>12.0</ele><time>2026-04-12T05:42:20Z</time></trkpt><trkpt lat="43.581778222231264" lon="6.933284394062894"><ele>12.0</ele><time>2026-04-12T05:42:21Z</time></trkpt><trkpt lat="43.58186146034269" lon="6.933260305014609"><ele>12.0</ele><time>2026-04-12T05:42:22Z</time></trkpt><trkpt lat="43.58195123546758" lon="6.933236721237194"><ele>12.0</ele><time>2026-04-12T05:42:23Z</time></trkpt><trkpt lat="43.58204194404404" lon="6.933214940343956"><ele>12.0</ele><time>2026-04-12T05:42:24Z</time></trkpt><trkpt lat="43.58213210571905" lon="6.933195553128333"><ele>12.0</ele><time>2026-04-12T05:42:25Z</time></trkpt><trkpt lat="43.582224090708216" lon="6.933178186059081"><ele>12.0</ele><time>2026-04-12T05:42:26Z</time></trkpt><trkpt lat="43.58231488225327" lon="6.933163250019044"><ele>12.0</ele><time>2026-04-12T05:42:27Z</time></trkpt><trkpt lat="43.58240512530762" lon="6.93314989263667"><ele>12.0</ele><time>2026-04-12T05:42:28Z</time></trkpt><trkpt lat="43.58249886914547" lon="6.933137452938549"><ele>12.0</ele><time>2026-04-12T05:42:29Z</time></trkpt><trkpt lat="43.58259234337622" lon="6.933126890896917"><ele>12.0</ele><time>2026-04-12T05:42:30Z</time></trkpt><trkpt lat="43.582683865580165" lon="6.933119988087285"><ele>12.0</ele><time>2026-04-12T05:42:31Z</time></trkpt><trkpt lat="43.582778414650484" lon="6.933115014601501"><ele>12.0</ele><time>2026-04-12T05:42:32Z</time></trkpt><trkpt lat="43.58286746749301" lon="6.933111916298499"><ele>12.0</ele><time>2026-04-12T05:42:33Z</time></trkpt><trkpt lat="43.58296088391241" lon="6.933111164239325"><ele>12.0</ele><time>2026-04-12T05:42:34Z</time></trkpt><trkpt lat="43.58305405056997" lon="6.933112365231712"><ele>12.0</ele><time>2026-04-12T05:42:35Z</time></trkpt><trkpt lat="43.58314934414305" lon="6.933115408314752"><ele>11.6</ele><time>2026-04-12T05:42:36Z</time></trkpt><trkpt lat="43.58325085821362" lon="6.933121830734206"><ele>11.2</ele><time>2026-04-12T05:42:37Z</time></trkpt><trkpt lat="43.58334441125194" lon="6.933128986340276"><ele>10.8</ele><time>2026-04-12T05:42:38Z</time></trkpt><trkpt lat="43.58343893918836" lon="6.933140765749244"><ele>10.4</ele><time>2026-04-12T05:42:39Z</time></trkpt><trkpt lat="43.58353144959626" lon="6.933154736696294"><ele>10.0</ele><time>2026-04-12T05:42:40Z</time></trkpt><trkpt lat="43.58362566938125" lon="6.933170058607004"><ele>9.8</ele><time>2026-04-12T05:42:41Z</time></trkpt><trkpt lat="43.583718858878626" lon="6.933188395355731"><ele>9.6</ele><time>2026-04-12T05:42:42Z</time></trkpt><trkpt lat="43.58381301708036" lon="6.933208477777277"><ele>9.4</ele><time>2026-04-12T05:42:43Z</time></trkpt><trkpt lat="43.5839083249039" lon="6.9332300637603135"><ele>9.2</ele><time>2026-04-12T05:42:44Z</time></trkpt><trkpt lat="43.584002075390046" lon="6.933253087066257"><ele>9.0</ele><time>2026-04-12T05:42:45Z</time></trkpt><trkpt lat="43.58409554759529" lon="6.933279303636922"><ele>9.0</ele><time>2026-04-12T05:42:46Z</time></trkpt><trkpt lat="43.58418826737031" lon="6.9333076009767804"><ele>9.0</ele><time>2026-04-12T05:42:47Z</time></trkpt><trkpt lat="43.584280143643824" lon="6.933339851929211"><ele>9.0</ele><time>2026-04-12T05:42:48Z</time></trkpt><trkpt lat="43.584365869819294" lon="6.933370623949127"><ele>9.0</ele><time>2026-04-12T05:42:49Z</time></trkpt><trkpt lat="43.58444978623436" lon="6.9334016969529095"><ele>9.0</ele><time>2026-04-12T05:42:50Z</time></trkpt><trkpt lat="43.58453403786243" lon="6.933434663354335"><ele>9.333333333333334</ele><time>2026-04-12T05:42:51Z</time></trkpt><trkpt lat="43.58461883401803" lon="6.933471972615447"><ele>9.666666666666666</ele><time>2026-04-12T05:42:51.999Z</time></trkpt><trkpt lat="43.58470581613193" lon="6.9335116582756475"><ele>10.0</ele><time>2026-04-12T05:42:52.999Z</time></trkpt><trkpt lat="43.58478948883922" lon="6.933552695408704"><ele>10.333333333333332</ele><time>2026-04-12T05:42:53.999Z</time></trkpt><trkpt lat="43.58487270082827" lon="6.933594500451398"><ele>10.666666666666666</ele><time>2026-04-12T05:42:54.999Z</time></trkpt><trkpt lat="43.584952993005174" lon="6.933637984830145"><ele>11.0</ele><time>2026-04-12T05:42:55.999Z</time></trkpt><trkpt lat="43.585033018217196" lon="6.933681968293134"><ele>11.0</ele><time>2026-04-12T05:42:56.999Z</time></trkpt><trkpt lat="43.58511375299424" lon="6.933726410435545"><ele>11.0</ele><time>2026-04-12T05:42:57.999Z</time></trkpt><trkpt lat="43.58519639354161" lon="6.933775011290601"><ele>11.0</ele><time>2026-04-12T05:42:58.999Z</time></trkpt><trkpt lat="43.58528091123509" lon="6.933825671272041"><ele>11.0</ele><time>2026-04-12T05:42:59.999Z</time></trkpt><trkpt lat="43.58536359195929" lon="6.933875772648539"><ele>11.0</ele><time>2026-04-12T05:43:00.999Z</time></trkpt><trkpt lat="43.58544129661678" lon="6.933922858673621"><ele>11.0</ele><time>2026-04-12T05:43:01.999Z</time></trkpt><trkpt lat="43.5855172251365" lon="6.93396886846833"><ele>11.0</ele><time>2026-04-12T05:43:02.999Z</time></trkpt><trkpt lat="43.585600341657226" lon="6.934019233927117"><ele>11.0</ele><time>2026-04-12T05:43:03.999Z</time></trkpt><trkpt lat="43.585683190134326" lon="6.9340693507063"><ele>11.0</ele><time>2026-04-12T05:43:04.999Z</time></trkpt><trkpt lat="43.58576684581105" lon="6.934119720605962"><ele>11.0</ele><time>2026-04-12T05:43:05.999Z</time></trkpt><trkpt lat="43.58585286574712" lon="6.934171514271444"><ele>11.0</ele><time>2026-04-12T05:43:06.999Z</time></trkpt><trkpt lat="43.5859385001903" lon="6.9342230753862735"><ele>10.833333333333332</ele><time>2026-04-12T05:43:07.999Z</time></trkpt><trkpt lat="43.58602190928074" lon="6.934273297045808"><ele>10.666666666666666</ele><time>2026-04-12T05:43:08.999Z</time></trkpt><trkpt lat="43.586105311656134" lon="6.934323514395691"><ele>10.5</ele><time>2026-04-12T05:43:09.999Z</time></trkpt><trkpt lat="43.58618510525143" lon="6.934371558996218"><ele>10.333333333333334</ele><time>2026-04-12T05:43:10.999Z</time></trkpt><trkpt lat="43.586259483843385" lon="6.934416343141084"><ele>10.166666666666668</ele><time>2026-04-12T05:43:11.999Z</time></trkpt><trkpt lat="43.586329972079575" lon="6.934458784834895"><ele>10.0</ele><time>2026-04-12T05:43:12.999Z</time></trkpt><trkpt lat="43.586404314430546" lon="6.934503547100935"><ele>10.4</ele><time>2026-04-12T05:43:13.999Z</time></trkpt><trkpt lat="43.5864731903121" lon="6.934545017951982"><ele>10.8</ele><time>2026-04-12T05:43:14.999Z</time></trkpt><trkpt lat="43.58658288932825" lon="6.934611068736781"><ele>11.2</ele><time>2026-04-12T05:43:16.999Z</time></trkpt><trkpt lat="43.58669281644003" lon="6.93467725712151"><ele>11.6</ele><time>2026-04-12T05:43:18.999Z</time></trkpt><trkpt lat="43.58679015847364" lon="6.934734161322272"><ele>12.0</ele><time>2026-04-12T05:43:20.999Z</time></trkpt><trkpt lat="43.58688083322335" lon="6.934786973851858"><ele>12.0</ele><time>2026-04-12T05:43:22.999Z</time></trkpt><trkpt lat="43.58695064191071" lon="6.934808833565888"><ele>12.0</ele><time>2026-04-12T05:43:24.999Z</time></trkpt><trkpt lat="43.5870237790206" lon="6.934869566201687"><ele>12.0</ele><time>2026-04-12T05:43:26.999Z</time></trkpt><trkpt lat="43.58712154974739" lon="6.934961890955662"><ele>12.0</ele><time>2026-04-12T05:43:28.999Z</time></trkpt><trkpt lat="43.58718987691369" lon="6.935076694230021"><ele>12.0</ele><time>2026-04-12T05:43:30.999Z</time></trkpt><trkpt lat="43.587226811778635" lon="6.935225632311379"><ele>12.0</ele><time>2026-04-12T05:43:32.999Z</time></trkpt><trkpt lat="43.58727939732777" lon="6.935277823244656"><ele>12.0</ele><time>2026-04-12T05:43:33.999Z</time></trkpt><trkpt lat="43.58740612818317" lon="6.9352972823334165"><ele>12.0</ele><time>2026-04-12T05:43:35.999Z</time></trkpt><trkpt lat="43.58747108747401" lon="6.9352450753244375"><ele>12.0</ele><time>2026-04-12T05:43:36.999Z</time></trkpt><trkpt lat="43.58751919703229" lon="6.935178945401782"><ele>12.0</ele><time>2026-04-12T05:43:37.999Z</time></trkpt><trkpt lat="43.587543007516615" lon="6.93507477163591"><ele>12.0</ele><time>2026-04-12T05:43:38.999Z</time></trkpt><trkpt lat="43.58753592884104" lon="6.934977460983764"><ele>12.0</ele><time>2026-04-12T05:43:39.999Z</time></trkpt><trkpt lat="43.58750210145091" lon="6.934892043002942"><ele>12.0</ele><time>2026-04-12T05:43:40.999Z</time></trkpt><trkpt lat="43.58750922709297" lon="6.934801483796415"><ele>12.0</ele><time>2026-04-12T05:43:41.999Z</time></trkpt><trkpt lat="43.587531782209986" lon="6.934705111315762"><ele>12.0</ele><time>2026-04-12T05:43:42.999Z</time></trkpt><trkpt lat="43.5875651262415" lon="6.934609119815051"><ele>12.0</ele><time>2026-04-12T05:43:43.999Z</time></trkpt><trkpt lat="43.58760646558437" lon="6.934517803038386"><ele>12.0</ele><time>2026-04-12T05:43:44.999Z</time></trkpt><trkpt lat="43.58765207987926" lon="6.9344179732086415"><ele>12.0</ele><time>2026-04-12T05:43:45.999Z</time></trkpt><trkpt lat="43.587691991180954" lon="6.934316041727332"><ele>12.0</ele><time>2026-04-12T05:43:46.999Z</time></trkpt><trkpt lat="43.58775248429186" lon="6.934226317106559"><ele>12.0</ele><time>2026-04-12T05:43:47.999Z</time></trkpt><trkpt lat="43.587787915481336" lon="6.934112335864804"><ele>12.0</ele><time>2026-04-12T05:43:48.999Z</time></trkpt><trkpt lat="43.58784051392762" lon="6.9340132584041205"><ele>12.0</ele><time>2026-04-12T05:43:49.999Z</time></trkpt><trkpt lat="43.587890150533894" lon="6.9339085704171115"><ele>12.0</ele><time>2026-04-12T05:43:50.999Z</time></trkpt><trkpt lat="43.58793889936399" lon="6.9338046725131095"><ele>12.2</ele><time>2026-04-12T05:43:52Z</time></trkpt><trkpt lat="43.58798838531789" lon="6.933707833231982"><ele>12.399999999999999</ele><time>2026-04-12T05:43:53Z</time></trkpt><trkpt lat="43.58803782655983" lon="6.933607590618364"><ele>12.600000000000001</ele><time>2026-04-12T05:43:54Z</time></trkpt><trkpt lat="43.588091444201936" lon="6.933506176148504"><ele>12.8</ele><time>2026-04-12T05:43:55Z</time></trkpt><trkpt lat="43.588150929859914" lon="6.933406250120366"><ele>13.0</ele><time>2026-04-12T05:43:56Z</time></trkpt><trkpt lat="43.58821296131044" lon="6.933306014789034"><ele>13.0</ele><time>2026-04-12T05:43:57Z</time></trkpt><trkpt lat="43.58827807892811" lon="6.933203429486982"><ele>13.0</ele><time>2026-04-12T05:43:58Z</time></trkpt><trkpt lat="43.58834389513994" lon="6.933102250915412"><ele>13.0</ele><time>2026-04-12T05:43:59Z</time></trkpt><trkpt lat="43.58841200379455" lon="6.933003766044429"><ele>13.0</ele><time>2026-04-12T05:44:00Z</time></trkpt><trkpt lat="43.58847803373315" lon="6.932908046457314"><ele>13.0</ele><time>2026-04-12T05:44:01Z</time></trkpt><trkpt lat="43.58854531483215" lon="6.932816097869943"><ele>12.999999999999998</ele><time>2026-04-12T05:44:02Z</time></trkpt><trkpt lat="43.58862295868742" lon="6.932746365786434"><ele>13.0</ele><time>2026-04-12T05:44:03Z</time></trkpt><trkpt lat="43.58868651479855" lon="6.932663759198129"><ele>13.0</ele><time>2026-04-12T05:44:04Z</time></trkpt><trkpt lat="43.58874888548991" lon="6.932583556485934"><ele>13.0</ele><time>2026-04-12T05:44:05Z</time></trkpt><trkpt lat="43.58881035995598" lon="6.932505417249103"><ele>12.999999999999998</ele><time>2026-04-12T05:44:06Z</time></trkpt><trkpt lat="43.58887041646229" lon="6.932429080334833"><ele>13.0</ele><time>2026-04-12T05:44:07Z</time></trkpt><trkpt lat="43.58893241050592" lon="6.932349655861767"><ele>13.333333333333332</ele><time>2026-04-12T05:44:08Z</time></trkpt><trkpt lat="43.58899557069752" lon="6.932268103437519"><ele>13.666666666666666</ele><time>2026-04-12T05:44:09Z</time></trkpt><trkpt lat="43.58905772173593" lon="6.932187853966576"><ele>14.0</ele><time>2026-04-12T05:44:10Z</time></trkpt><trkpt lat="43.58912114320415" lon="6.932105964191451"><ele>14.333333333333332</ele><time>2026-04-12T05:44:11Z</time></trkpt><trkpt lat="43.58918340680034" lon="6.932025569406885"><ele>14.666666666666666</ele><time>2026-04-12T05:44:12Z</time></trkpt><trkpt lat="43.58924594940072" lon="6.931944814423221"><ele>15.0</ele><time>2026-04-12T05:44:13Z</time></trkpt><trkpt lat="43.58930915466938" lon="6.9318636241837535"><ele>15.0</ele><time>2026-04-12T05:44:14Z</time></trkpt><trkpt lat="43.58937065774093" lon="6.931784999946505"><ele>15.0</ele><time>2026-04-12T05:44:15Z</time></trkpt><trkpt lat="43.58943022092757" lon="6.931708855605896"><ele>15.0</ele><time>2026-04-12T05:44:16Z</time></trkpt><trkpt lat="43.58949010502729" lon="6.931632301073855"><ele>15.0</ele><time>2026-04-12T05:44:17Z</time></trkpt><trkpt lat="43.589551064381574" lon="6.931554371901512"><ele>15.0</ele><time>2026-04-12T05:44:18Z</time></trkpt><trkpt lat="43.58961217179621" lon="6.931476253481127"><ele>15.0</ele><time>2026-04-12T05:44:19Z</time></trkpt><trkpt lat="43.58967350449694" lon="6.93139784699171"><ele>14.5</ele><time>2026-04-12T05:44:20Z</time></trkpt><trkpt lat="43.58973375124342" lon="6.931320631869947"><ele>14.0</ele><time>2026-04-12T05:44:21Z</time></trkpt><trkpt lat="43.58979336975092" lon="6.931243908376429"><ele>13.5</ele><time>2026-04-12T05:44:22Z</time></trkpt><trkpt lat="43.58985437572311" lon="6.9311653993169156"><ele>13.0</ele><time>2026-04-12T05:44:23Z</time></trkpt><trkpt lat="43.58991668111701" lon="6.931085218047029"><ele>12.5</ele><time>2026-04-12T05:44:24Z</time></trkpt><trkpt lat="43.589977847091625" lon="6.931006503113887"><ele>12.0</ele><time>2026-04-12T05:44:25Z</time></trkpt><trkpt lat="43.590038842134526" lon="6.930928008109186"><ele>12.166666666666666</ele><time>2026-04-12T05:44:26Z</time></trkpt><trkpt lat="43.59009602724566" lon="6.930854416177049"><ele>12.333333333333332</ele><time>2026-04-12T05:44:27Z</time></trkpt><trkpt lat="43.590153756426005" lon="6.930780124070509"><ele>12.5</ele><time>2026-04-12T05:44:28Z</time></trkpt><trkpt lat="43.59021061530969" lon="6.930704563285709"><ele>12.666666666666666</ele><time>2026-04-12T05:44:29Z</time></trkpt><trkpt lat="43.59026525862115" lon="6.93062982445542"><ele>12.833333333333332</ele><time>2026-04-12T05:44:30Z</time></trkpt><trkpt lat="43.59031690556557" lon="6.9305581076198335"><ele>13.0</ele><time>2026-04-12T05:44:31Z</time></trkpt><trkpt lat="43.59036461427324" lon="6.93049185948112"><ele>13.142857142857142</ele><time>2026-04-12T05:44:32Z</time></trkpt><trkpt lat="43.59041099284851" lon="6.930425569843675"><ele>13.285714285714286</ele><time>2026-04-12T05:44:33Z</time></trkpt><trkpt lat="43.590457302106714" lon="6.930352178797782"><ele>13.428571428571429</ele><time>2026-04-12T05:44:34Z</time></trkpt><trkpt lat="43.59048946427306" lon="6.930265259856198"><ele>13.571428571428571</ele><time>2026-04-12T05:44:35Z</time></trkpt><trkpt lat="43.590536788439096" lon="6.930192808894133"><ele>13.714285714285715</ele><time>2026-04-12T05:44:36Z</time></trkpt><trkpt lat="43.590578883415446" lon="6.930119845971791"><ele>13.857142857142858</ele><time>2026-04-12T05:44:37Z</time></trkpt><trkpt lat="43.59062131622553" lon="6.930047368849167"><ele>14.0</ele><time>2026-04-12T05:44:38Z</time></trkpt><trkpt lat="43.59066440959433" lon="6.92997602712646"><ele>14.0</ele><time>2026-04-12T05:44:39Z</time></trkpt><trkpt lat="43.59073500332625" lon="6.929844766979306"><ele>13.999999999999998</ele><time>2026-04-12T05:44:41Z</time></trkpt><trkpt lat="43.59079700083387" lon="6.929710215374685"><ele>13.999999999999998</ele><time>2026-04-12T05:44:43Z</time></trkpt><trkpt lat="43.59085371806897" lon="6.9296030886323"><ele>14.0</ele><time>2026-04-12T05:44:45Z</time></trkpt><trkpt lat="43.590894578783384" lon="6.929516493008065"><ele>14.0</ele><time>2026-04-12T05:44:47Z</time></trkpt><trkpt lat="43.59094587651443" lon="6.9294335242619844"><ele>14.000000000000002</ele><time>2026-04-12T05:44:49Z</time></trkpt><trkpt lat="43.59100726549521" lon="6.92935496215196"><ele>14.0</ele><time>2026-04-12T05:44:51Z</time></trkpt><trkpt lat="43.59107464218197" lon="6.929297114542126"><ele>14.0</ele><time>2026-04-12T05:44:53Z</time></trkpt><trkpt lat="43.59113452928383" lon="6.929261368520858"><ele>14.0</ele><time>2026-04-12T05:44:55Z</time></trkpt><trkpt lat="43.591179996983286" lon="6.929182950711962"><ele>14.000000000000002</ele><time>2026-04-12T05:44:57Z</time></trkpt><trkpt lat="43.59116584351432" lon="6.929050661403446"><ele>14.0</ele><time>2026-04-12T05:44:58.999Z</time></trkpt><trkpt lat="43.59105449880542" lon="6.92898850387701"><ele>14.166666666666668</ele><time>2026-04-12T05:45:00.999Z</time></trkpt><trkpt lat="43.59098464617981" lon="6.92900952801838"><ele>14.333333333333334</ele><time>2026-04-12T05:45:01.999Z</time></trkpt><trkpt lat="43.59091515194683" lon="6.929025243875487"><ele>14.5</ele><time>2026-04-12T05:45:02.999Z</time></trkpt><trkpt lat="43.590837302826856" lon="6.929021250429042"><ele>14.666666666666668</ele><time>2026-04-12T05:45:03.999Z</time></trkpt><trkpt lat="43.590754462311764" lon="6.928989798905995"><ele>14.833333333333334</ele><time>2026-04-12T05:45:04.999Z</time></trkpt><trkpt lat="43.590672161681816" lon="6.928949078220405"><ele>15.0</ele><time>2026-04-12T05:45:05.999Z</time></trkpt><trkpt lat="43.590589670640114" lon="6.92890804440499"><ele>15.0</ele><time>2026-04-12T05:45:06.999Z</time></trkpt><trkpt lat="43.59050432290596" lon="6.928870384782037"><ele>15.0</ele><time>2026-04-12T05:45:07.999Z</time></trkpt><trkpt lat="43.59041705474054" lon="6.9288374135874475"><ele>15.0</ele><time>2026-04-12T05:45:08.999Z</time></trkpt><trkpt lat="43.59032639867574" lon="6.928798485701126"><ele>15.0</ele><time>2026-04-12T05:45:09.999Z</time></trkpt><trkpt lat="43.59022988078403" lon="6.928761494013534"><ele>15.0</ele><time>2026-04-12T05:45:10.999Z</time></trkpt><trkpt lat="43.590133306605544" lon="6.9287205132215455"><ele>14.8</ele><time>2026-04-12T05:45:11.999Z</time></trkpt><trkpt lat="43.59003389012891" lon="6.928672602280607"><ele>14.6</ele><time>2026-04-12T05:45:12.999Z</time></trkpt><trkpt lat="43.589937223919726" lon="6.928606264047552"><ele>14.399999999999999</ele><time>2026-04-12T05:45:13.999Z</time></trkpt><trkpt lat="43.58984691376391" lon="6.928524685136695"><ele>14.2</ele><time>2026-04-12T05:45:14.999Z</time></trkpt><trkpt lat="43.58976794721098" lon="6.9284358232119745"><ele>14.0</ele><time>2026-04-12T05:45:15.999Z</time></trkpt><trkpt lat="43.589699391525606" lon="6.928343228143976"><ele>14.000000000000002</ele><time>2026-04-12T05:45:16.999Z</time></trkpt><trkpt lat="43.58963520567665" lon="6.928261592422716"><ele>14.0</ele><time>2026-04-12T05:45:17.999Z</time></trkpt><trkpt lat="43.58957294801382" lon="6.928185035318453"><ele>14.0</ele><time>2026-04-12T05:45:18.999Z</time></trkpt><trkpt lat="43.58951462530303" lon="6.928115263454181"><ele>14.0</ele><time>2026-04-12T05:45:19.999Z</time></trkpt><trkpt lat="43.589455077414996" lon="6.9280412242320555"><ele>14.000000000000002</ele><time>2026-04-12T05:45:20.999Z</time></trkpt><trkpt lat="43.58939413136481" lon="6.927967060462927"><ele>14.0</ele><time>2026-04-12T05:45:21.999Z</time></trkpt><trkpt lat="43.58933252243218" lon="6.927889299854455"><ele>13.833333333333334</ele><time>2026-04-12T05:45:22.999Z</time></trkpt><trkpt lat="43.58926874497243" lon="6.927812352504297"><ele>13.666666666666668</ele><time>2026-04-12T05:45:23.999Z</time></trkpt><trkpt lat="43.589205265829484" lon="6.927734224270487"><ele>13.5</ele><time>2026-04-12T05:45:24.999Z</time></trkpt><trkpt lat="43.5891406996987" lon="6.927655960977721"><ele>13.333333333333332</ele><time>2026-04-12T05:45:25.999Z</time></trkpt><trkpt lat="43.58908738016605" lon="6.927559313343172"><ele>13.166666666666666</ele><time>2026-04-12T05:45:26.999Z</time></trkpt><trkpt lat="43.58902264416857" lon="6.9274782527504435"><ele>13.0</ele><time>2026-04-12T05:45:27.999Z</time></trkpt><trkpt lat="43.588945291278776" lon="6.927413085221496"><ele>13.0</ele><time>2026-04-12T05:45:28.999Z</time></trkpt><trkpt lat="43.5888763100162" lon="6.927328837616732"><ele>13.0</ele><time>2026-04-12T05:45:29.999Z</time></trkpt><trkpt lat="43.58880408562106" lon="6.927243983960066"><ele>13.0</ele><time>2026-04-12T05:45:30.999Z</time></trkpt><trkpt lat="43.5887276338493" lon="6.927166216022484"><ele>13.0</ele><time>2026-04-12T05:45:31.999Z</time></trkpt><trkpt lat="43.58864773954266" lon="6.927090753404574"><ele>13.0</ele><time>2026-04-12T05:45:32.999Z</time></trkpt><trkpt lat="43.588563109944914" lon="6.927013999966299"><ele>12.8</ele><time>2026-04-12T05:45:33.999Z</time></trkpt><trkpt lat="43.58848786440292" lon="6.926913884184914"><ele>12.600000000000001</ele><time>2026-04-12T05:45:34.999Z</time></trkpt><trkpt lat="43.58840079073336" lon="6.926829623803914"><ele>12.399999999999999</ele><time>2026-04-12T05:45:35.999Z</time></trkpt><trkpt lat="43.58830372842264" lon="6.9267643443536215"><ele>12.2</ele><time>2026-04-12T05:45:36.999Z</time></trkpt><trkpt lat="43.588228461637954" lon="6.9266858179431114"><ele>12.0</ele><time>2026-04-12T05:45:37.999Z</time></trkpt><trkpt lat="43.588154183871566" lon="6.926610331212147"><ele>12.0</ele><time>2026-04-12T05:45:38.999Z</time></trkpt><trkpt lat="43.58807383927824" lon="6.9265360501327"><ele>12.0</ele><time>2026-04-12T05:45:39.999Z</time></trkpt><trkpt lat="43.587996264183026" lon="6.926461334199482"><ele>12.0</ele><time>2026-04-12T05:45:40.999Z</time></trkpt><trkpt lat="43.587923268264916" lon="6.92639420536528"><ele>12.0</ele><time>2026-04-12T05:45:41.999Z</time></trkpt><trkpt lat="43.587852126507066" lon="6.926330702406463"><ele>12.0</ele><time>2026-04-12T05:45:42.999Z</time></trkpt><trkpt lat="43.58777990590271" lon="6.926261263551951"><ele>12.166666666666666</ele><time>2026-04-12T05:45:43.999Z</time></trkpt><trkpt lat="43.587708854917345" lon="6.9261899781073755"><ele>12.333333333333332</ele><time>2026-04-12T05:45:44.999Z</time></trkpt><trkpt lat="43.587636138765646" lon="6.926122074147817"><ele>12.5</ele><time>2026-04-12T05:45:45.999Z</time></trkpt><trkpt lat="43.587570390430336" lon="6.926056101437808"><ele>12.666666666666666</ele><time>2026-04-12T05:45:46.999Z</time></trkpt><trkpt lat="43.58750853126338" lon="6.925994499667837"><ele>12.833333333333332</ele><time>2026-04-12T05:45:47.999Z</time></trkpt><trkpt lat="43.58743918046212" lon="6.92593255325009"><ele>13.0</ele><time>2026-04-12T05:45:48.999Z</time></trkpt><trkpt lat="43.58737187474266" lon="6.9258671880092235"><ele>12.999999999999998</ele><time>2026-04-12T05:45:49.999Z</time></trkpt><trkpt lat="43.58730619474387" lon="6.9257977330108424"><ele>13.0</ele><time>2026-04-12T05:45:50.999Z</time></trkpt><trkpt lat="43.58724112733137" lon="6.925741445759818"><ele>13.0</ele><time>2026-04-12T05:45:51.999Z</time></trkpt><trkpt lat="43.58718420990487" lon="6.925692853196708"><ele>13.0</ele><time>2026-04-12T05:45:52.999Z</time></trkpt><trkpt lat="43.58713975784551" lon="6.9256251703536105"><ele>12.999999999999998</ele><time>2026-04-12T05:45:53.999Z</time></trkpt><trkpt lat="43.587059927595995" lon="6.925576159435219"><ele>13.0</ele><time>2026-04-12T05:45:55.999Z</time></trkpt><trkpt lat="43.58700304201763" lon="6.925517785156091"><ele>12.999999999999998</ele><time>2026-04-12T05:45:58Z</time></trkpt><trkpt lat="43.586960605968315" lon="6.925450556405862"><ele>13.0</ele><time>2026-04-12T05:46:00Z</time></trkpt><trkpt lat="43.5869636109528" lon="6.925334053622327"><ele>13.0</ele><time>2026-04-12T05:46:02Z</time></trkpt><trkpt lat="43.58705394134431" lon="6.925220799432952"><ele>13.0</ele><time>2026-04-12T05:46:04Z</time></trkpt><trkpt lat="43.58712112991829" lon="6.925185456659105"><ele>12.999999999999998</ele><time>2026-04-12T05:46:05Z</time></trkpt><trkpt lat="43.58719392659423" lon="6.925158983530247"><ele>13.0</ele><time>2026-04-12T05:46:06Z</time></trkpt><trkpt lat="43.587269093105604" lon="6.925143802286366"><ele>12.999999999999998</ele><time>2026-04-12T05:46:07Z</time></trkpt><trkpt lat="43.58734941443058" lon="6.925148401115725"><ele>13.0</ele><time>2026-04-12T05:46:08Z</time></trkpt><trkpt lat="43.58742818842149" lon="6.925160056933442"><ele>13.0</ele><time>2026-04-12T05:46:09Z</time></trkpt><trkpt lat="43.58749699456206" lon="6.925168570649692"><ele>13.0</ele><time>2026-04-12T05:46:10Z</time></trkpt><trkpt lat="43.58758407844773" lon="6.9251451827683645"><ele>12.999999999999998</ele><time>2026-04-12T05:46:12Z</time></trkpt><trkpt lat="43.58764196932797" lon="6.925082677953874"><ele>13.0</ele><time>2026-04-12T05:46:14Z</time></trkpt><trkpt lat="43.587700578794276" lon="6.924953955547993"><ele>12.857142857142856</ele><time>2026-04-12T05:46:16Z</time></trkpt><trkpt lat="43.587735901950396" lon="6.924879890485626"><ele>12.714285714285715</ele><time>2026-04-12T05:46:17Z</time></trkpt><trkpt lat="43.587770078914254" lon="6.924797933554992"><ele>12.571428571428571</ele><time>2026-04-12T05:46:18Z</time></trkpt><trkpt lat="43.58780470166494" lon="6.924716273855311"><ele>12.428571428571427</ele><time>2026-04-12T05:46:19Z</time></trkpt><trkpt lat="43.587853581769835" lon="6.924638031632964"><ele>12.285714285714285</ele><time>2026-04-12T05:46:20Z</time></trkpt><trkpt lat="43.58788068878485" lon="6.924534997271734"><ele>12.142857142857142</ele><time>2026-04-12T05:46:21Z</time></trkpt><trkpt lat="43.587879426978105" lon="6.924421397615583"><ele>12.0</ele><time>2026-04-12T05:46:22Z</time></trkpt><trkpt lat="43.587883285987665" lon="6.924304975998475"><ele>12.5</ele><time>2026-04-12T05:46:23Z</time></trkpt><trkpt lat="43.58788352251331" lon="6.924189531840543"><ele>13.0</ele><time>2026-04-12T05:46:24Z</time></trkpt><trkpt lat="43.58788473959128" lon="6.9240724349364"><ele>13.5</ele><time>2026-04-12T05:46:25Z</time></trkpt><trkpt lat="43.5878855093543" lon="6.923949903145383"><ele>14.0</ele><time>2026-04-12T05:46:26Z</time></trkpt><trkpt lat="43.587890810934944" lon="6.923832940621804"><ele>14.5</ele><time>2026-04-12T05:46:27Z</time></trkpt><trkpt lat="43.587892759793704" lon="6.92371038527064"><ele>15.0</ele><time>2026-04-12T05:46:28Z</time></trkpt><trkpt lat="43.58789608258169" lon="6.923585896231904"><ele>15.0</ele><time>2026-04-12T05:46:29Z</time></trkpt><trkpt lat="43.58790852415528" lon="6.9234630801545265"><ele>15.0</ele><time>2026-04-12T05:46:30Z</time></trkpt><trkpt lat="43.587921416254055" lon="6.92334318230897"><ele>15.0</ele><time>2026-04-12T05:46:31Z</time></trkpt><trkpt lat="43.58794002174719" lon="6.9232221778555765"><ele>15.0</ele><time>2026-04-12T05:46:32Z</time></trkpt><trkpt lat="43.58790082441537" lon="6.923093171681163"><ele>15.0</ele><time>2026-04-12T05:46:33Z</time></trkpt><trkpt lat="43.587877333050706" lon="6.922968332315668"><ele>14.8</ele><time>2026-04-12T05:46:34Z</time></trkpt><trkpt lat="43.58785422174709" lon="6.922841644393398"><ele>14.6</ele><time>2026-04-12T05:46:35Z</time></trkpt><trkpt lat="43.58782747294685" lon="6.922713964774458"><ele>14.399999999999999</ele><time>2026-04-12T05:46:36Z</time></trkpt><trkpt lat="43.58779561027774" lon="6.922587237827685"><ele>14.2</ele><time>2026-04-12T05:46:37Z</time></trkpt><trkpt lat="43.587761713335965" lon="6.92246837285427"><ele>14.0</ele><time>2026-04-12T05:46:38Z</time></trkpt><trkpt lat="43.587724145560124" lon="6.922349840884473"><ele>17.166666666666668</ele><time>2026-04-12T05:46:39Z</time></trkpt><trkpt lat="43.58769263305706" lon="6.9222397232441395"><ele>20.333333333333336</ele><time>2026-04-12T05:46:40Z</time></trkpt><trkpt lat="43.58767397522114" lon="6.922128231049772"><ele>23.5</ele><time>2026-04-12T05:46:41Z</time></trkpt><trkpt lat="43.587679936259065" lon="6.922015808798593"><ele>26.666666666666668</ele><time>2026-04-12T05:46:42Z</time></trkpt><trkpt lat="43.58771153498459" lon="6.921910513971527"><ele>29.833333333333332</ele><time>2026-04-12T05:46:43Z</time></trkpt><trkpt lat="43.58773502799214" lon="6.921816431822777"><ele>33.0</ele><time>2026-04-12T05:46:44Z</time></trkpt><trkpt lat="43.58774800453737" lon="6.921718153100091"><ele>33.0</ele><time>2026-04-12T05:46:45Z</time></trkpt><trkpt lat="43.58774315292594" lon="6.921618289702459"><ele>33.0</ele><time>2026-04-12T05:46:46Z</time></trkpt><trkpt lat="43.58773351756638" lon="6.921519775736762"><ele>33.0</ele><time>2026-04-12T05:46:47Z</time></trkpt><trkpt lat="43.58772454909642" lon="6.921422345255308"><ele>33.0</ele><time>2026-04-12T05:46:48Z</time></trkpt><trkpt lat="43.58771576604697" lon="6.921322826901324"><ele>33.0</ele><time>2026-04-12T05:46:49Z</time></trkpt><trkpt lat="43.5877030586451" lon="6.921228082550914"><ele>33.0</ele><time>2026-04-12T05:46:50Z</time></trkpt><trkpt lat="43.58769219203893" lon="6.921140695089929"><ele>33.0</ele><time>2026-04-12T05:46:51Z</time></trkpt><trkpt lat="43.58767068977606" lon="6.92097757130347"><ele>31.2</ele><time>2026-04-12T05:46:53Z</time></trkpt><trkpt lat="43.58769933525717" lon="6.920823543175758"><ele>29.4</ele><time>2026-04-12T05:46:55Z</time></trkpt><trkpt lat="43.58781174429471" lon="6.920746328350324"><ele>27.599999999999998</ele><time>2026-04-12T05:46:57Z</time></trkpt><trkpt lat="43.587877318749975" lon="6.920764386021021"><ele>25.799999999999997</ele><time>2026-04-12T05:46:58Z</time></trkpt><trkpt lat="43.58799060483743" lon="6.920819910984603"><ele>24.0</ele><time>2026-04-12T05:47:00Z</time></trkpt><trkpt lat="43.588112253133104" lon="6.920787521161782"><ele>24.0</ele><time>2026-04-12T05:47:02Z</time></trkpt><trkpt lat="43.588160755763305" lon="6.920722650805341"><ele>24.0</ele><time>2026-04-12T05:47:02.999Z</time></trkpt><trkpt lat="43.58819194080607" lon="6.9206454869227905"><ele>24.0</ele><time>2026-04-12T05:47:03.999Z</time></trkpt><trkpt lat="43.588204791912524" lon="6.920492378208352"><ele>24.0</ele><time>2026-04-12T05:47:05.999Z</time></trkpt><trkpt lat="43.588201700438404" lon="6.920335304996076"><ele>24.0</ele><time>2026-04-12T05:47:07.999Z</time></trkpt><trkpt lat="43.58823185552827" lon="6.920179237982732"><ele>26.25</ele><time>2026-04-12T05:47:09.999Z</time></trkpt><trkpt lat="43.588274023314895" lon="6.920038290134419"><ele>28.5</ele><time>2026-04-12T05:47:11.999Z</time></trkpt><trkpt lat="43.58832038720622" lon="6.919908083792236"><ele>30.75</ele><time>2026-04-12T05:47:13.999Z</time></trkpt><trkpt lat="43.58835774997405" lon="6.9197595060399255"><ele>33.0</ele><time>2026-04-12T05:47:15.999Z</time></trkpt><trkpt lat="43.58833533177199" lon="6.919591355690331"><ele>33.0</ele><time>2026-04-12T05:47:17.999Z</time></trkpt><trkpt lat="43.58829370341844" lon="6.9195157249561055"><ele>33.0</ele><time>2026-04-12T05:47:18.999Z</time></trkpt><trkpt lat="43.58825068630895" lon="6.9194495587244536"><ele>33.0</ele><time>2026-04-12T05:47:19.999Z</time></trkpt><trkpt lat="43.58815950401404" lon="6.919335820356197"><ele>33.0</ele><time>2026-04-12T05:47:21.999Z</time></trkpt><trkpt lat="43.58811975831511" lon="6.91926714197988"><ele>33.0</ele><time>2026-04-12T05:47:22.999Z</time></trkpt><trkpt lat="43.58809327825601" lon="6.9191874809478024"><ele>33.0</ele><time>2026-04-12T05:47:23.999Z</time></trkpt><trkpt lat="43.58806574165921" lon="6.919105734792852"><ele>33.0</ele><time>2026-04-12T05:47:24.999Z</time></trkpt><trkpt lat="43.588035977452265" lon="6.91902403762852"><ele>32.8</ele><time>2026-04-12T05:47:25.999Z</time></trkpt><trkpt lat="43.588005122403096" lon="6.918946719056204"><ele>32.599999999999994</ele><time>2026-04-12T05:47:26.999Z</time></trkpt><trkpt lat="43.587966724131775" lon="6.918876627241236"><ele>32.400000000000006</ele><time>2026-04-12T05:47:27.999Z</time></trkpt><trkpt lat="43.58787650214509" lon="6.9187847853692395"><ele>32.2</ele><time>2026-04-12T05:47:29.999Z</time></trkpt><trkpt lat="43.58778664967308" lon="6.918668890480299"><ele>32.0</ele><time>2026-04-12T05:47:31.999Z</time></trkpt><trkpt lat="43.58769898589514" lon="6.91855229050531"><ele>36.33333333333333</ele><time>2026-04-12T05:47:33.999Z</time></trkpt><trkpt lat="43.5876070687418" lon="6.918430622503853"><ele>40.666666666666664</ele><time>2026-04-12T05:47:35.999Z</time></trkpt><trkpt lat="43.58756295695781" lon="6.918365061191824"><ele>45.0</ele><time>2026-04-12T05:47:36.999Z</time></trkpt><trkpt lat="43.58752466243792" lon="6.918292459655158"><ele>49.33333333333333</ele><time>2026-04-12T05:47:37.999Z</time></trkpt><trkpt lat="43.58749474205644" lon="6.918210948282717"><ele>53.666666666666664</ele><time>2026-04-12T05:47:38.999Z</time></trkpt><trkpt lat="43.58747117949939" lon="6.918125628820185"><ele>58.0</ele><time>2026-04-12T05:47:39.999Z</time></trkpt><trkpt lat="43.58745521765528" lon="6.91803923160858"><ele>57.99999999999999</ele><time>2026-04-12T05:47:40.999Z</time></trkpt><trkpt lat="43.58745828777036" lon="6.917950598497964"><ele>58.0</ele><time>2026-04-12T05:47:41.999Z</time></trkpt><trkpt lat="43.58748890226608" lon="6.91786754132545"><ele>58.0</ele><time>2026-04-12T05:47:42.999Z</time></trkpt><trkpt lat="43.58755524300584" lon="6.917825393967807"><ele>58.0</ele><time>2026-04-12T05:47:43.999Z</time></trkpt><trkpt lat="43.58762784062362" lon="6.917827818569163"><ele>57.99999999999999</ele><time>2026-04-12T05:47:44.999Z</time></trkpt><trkpt lat="43.587734475595816" lon="6.91790203926668"><ele>58.0</ele><time>2026-04-12T05:47:46.999Z</time></trkpt><trkpt lat="43.58783545852776" lon="6.917960182493518"><ele>54.0</ele><time>2026-04-12T05:47:48.999Z</time></trkpt><trkpt lat="43.5879426900176" lon="6.918023563696796"><ele>50.0</ele><time>2026-04-12T05:47:50.999Z</time></trkpt><trkpt lat="43.588053410663946" lon="6.918086050523281"><ele>46.0</ele><time>2026-04-12T05:47:52.999Z</time></trkpt><trkpt lat="43.58815254640129" lon="6.918156276364564"><ele>42.0</ele><time>2026-04-12T05:47:54.999Z</time></trkpt><trkpt lat="43.58825732936381" lon="6.918199759352994"><ele>42.0</ele><time>2026-04-12T05:47:56.999Z</time></trkpt><trkpt lat="43.58836275007835" lon="6.918189000423693"><ele>42.0</ele><time>2026-04-12T05:47:58.999Z</time></trkpt><trkpt lat="43.58844589844991" lon="6.918093971956764"><ele>42.0</ele><time>2026-04-12T05:48:00.999Z</time></trkpt><trkpt lat="43.58849570753422" lon="6.917977848592114"><ele>42.0</ele><time>2026-04-12T05:48:02.999Z</time></trkpt><trkpt lat="43.588535263780976" lon="6.917859591902804"><ele>42.0</ele><time>2026-04-12T05:48:05Z</time></trkpt><trkpt lat="43.588569319332784" lon="6.9177477794773665"><ele>42.0</ele><time>2026-04-12T05:48:07Z</time></trkpt><trkpt lat="43.588601551920384" lon="6.917639726385906"><ele>42.0</ele><time>2026-04-12T05:48:09Z</time></trkpt><trkpt lat="43.58865162939358" lon="6.917540228970852"><ele>42.0</ele><time>2026-04-12T05:48:11Z</time></trkpt><trkpt lat="43.588728976984534" lon="6.91745653444463"><ele>42.0</ele><time>2026-04-12T05:48:13Z</time></trkpt><trkpt lat="43.58882633536098" lon="6.917425482543612"><ele>42.0</ele><time>2026-04-12T05:48:15Z</time></trkpt><trkpt lat="43.58891968175817" lon="6.917433743590385"><ele>43.400000000000006</ele><time>2026-04-12T05:48:17Z</time></trkpt><trkpt lat="43.589008431321076" lon="6.9174753920557395"><ele>44.800000000000004</ele><time>2026-04-12T05:48:19Z</time></trkpt><trkpt lat="43.58905995436417" lon="6.917570291113374"><ele>46.2</ele><time>2026-04-12T05:48:22Z</time></trkpt><trkpt lat="43.58911568716718" lon="6.917679037312301"><ele>47.6</ele><time>2026-04-12T05:48:23Z</time></trkpt><trkpt lat="43.58914594468461" lon="6.917812484346822"><ele>49.0</ele><time>2026-04-12T05:48:25Z</time></trkpt><trkpt lat="43.58919875261511" lon="6.917933817512314"><ele>48.99999999999999</ele><time>2026-04-12T05:48:27Z</time></trkpt><trkpt lat="43.589251576886646" lon="6.918039387734735"><ele>49.0</ele><time>2026-04-12T05:48:29Z</time></trkpt><trkpt lat="43.58932711757329" lon="6.9180991954862066"><ele>49.0</ele><time>2026-04-12T05:48:31Z</time></trkpt><trkpt lat="43.58941175584448" lon="6.918116542923951"><ele>49.0</ele><time>2026-04-12T05:48:33Z</time></trkpt><trkpt lat="43.58949459979982" lon="6.918109038278953"><ele>48.99999999999999</ele><time>2026-04-12T05:48:35Z</time></trkpt><trkpt lat="43.58957140633107" lon="6.918043988504311"><ele>49.0</ele><time>2026-04-12T05:48:37Z</time></trkpt><trkpt lat="43.58964774742008" lon="6.917959497871715"><ele>48.400000000000006</ele><time>2026-04-12T05:48:39Z</time></trkpt><trkpt lat="43.589691865059514" lon="6.9178469782923155"><ele>47.8</ele><time>2026-04-12T05:48:41Z</time></trkpt><trkpt lat="43.589742507544926" lon="6.917742885220112"><ele>47.2</ele><time>2026-04-12T05:48:43Z</time></trkpt><trkpt lat="43.589739968134694" lon="6.917623629692046"><ele>46.599999999999994</ele><time>2026-04-12T05:48:45Z</time></trkpt><trkpt lat="43.58964806306081" lon="6.917563847676633"><ele>46.0</ele><time>2026-04-12T05:48:47Z</time></trkpt><trkpt lat="43.589570711304795" lon="6.917584116547259"><ele>46.5</ele><time>2026-04-12T05:48:49Z</time></trkpt><trkpt lat="43.58950829583693" lon="6.917626791054484"><ele>47.0</ele><time>2026-04-12T05:48:51Z</time></trkpt><trkpt lat="43.58943924970002" lon="6.917652641574739"><ele>47.5</ele><time>2026-04-12T05:48:53Z</time></trkpt><trkpt lat="43.589366914601754" lon="6.917620941668891"><ele>48.0</ele><time>2026-04-12T05:48:55Z</time></trkpt><trkpt lat="43.58931594872705" lon="6.9175343792174235"><ele>48.49999999999999</ele><time>2026-04-12T05:48:57Z</time></trkpt><trkpt lat="43.58928551978289" lon="6.917432641013288"><ele>49.0</ele><time>2026-04-12T05:48:59Z</time></trkpt><trkpt lat="43.589268962871756" lon="6.917313447131102"><ele>52.166666666666664</ele><time>2026-04-12T05:49:01Z</time></trkpt><trkpt lat="43.589234922312855" lon="6.917203713964137"><ele>55.33333333333333</ele><time>2026-04-12T05:49:03Z</time></trkpt><trkpt lat="43.58920485543497" lon="6.917094482032374"><ele>58.5</ele><time>2026-04-12T05:49:05Z</time></trkpt><trkpt lat="43.58916315084954" lon="6.917000657200101"><ele>61.66666666666667</ele><time>2026-04-12T05:49:07Z</time></trkpt><trkpt lat="43.589099949548604" lon="6.916919228648845"><ele>64.83333333333334</ele><time>2026-04-12T05:49:09Z</time></trkpt><trkpt lat="43.58901456785475" lon="6.916875253931023"><ele>68.0</ele><time>2026-04-12T05:49:10.999Z</time></trkpt><trkpt lat="43.58893475955958" lon="6.916826739216492"><ele>68.0</ele><time>2026-04-12T05:49:12.999Z</time></trkpt><trkpt lat="43.5888682723443" lon="6.9167576342791905"><ele>68.0</ele><time>2026-04-12T05:49:14.999Z</time></trkpt><trkpt lat="43.588813597401604" lon="6.916677847650128"><ele>68.0</ele><time>2026-04-12T05:49:16.999Z</time></trkpt><trkpt lat="43.58876513459779" lon="6.91658890755987"><ele>68.0</ele><time>2026-04-12T05:49:18.999Z</time></trkpt><trkpt lat="43.58871739038272" lon="6.916508200486553"><ele>68.0</ele><time>2026-04-12T05:49:20.999Z</time></trkpt><trkpt lat="43.588656268340436" lon="6.916431019547062"><ele>68.0</ele><time>2026-04-12T05:49:22.999Z</time></trkpt><trkpt lat="43.58858895403313" lon="6.916374237546451"><ele>67.2</ele><time>2026-04-12T05:49:24.999Z</time></trkpt><trkpt lat="43.58850807790183" lon="6.916359899718656"><ele>66.4</ele><time>2026-04-12T05:49:26.999Z</time></trkpt><trkpt lat="43.58843076527647" lon="6.916414828128623"><ele>65.60000000000001</ele><time>2026-04-12T05:49:28.999Z</time></trkpt><trkpt lat="43.58839542726617" lon="6.91653328583184"><ele>64.8</ele><time>2026-04-12T05:49:30.999Z</time></trkpt><trkpt lat="43.58834680913452" lon="6.91665635630984"><ele>64.0</ele><time>2026-04-12T05:49:32.999Z</time></trkpt><trkpt lat="43.588304929066865" lon="6.916791154860503"><ele>64.0</ele><time>2026-04-12T05:49:34.999Z</time></trkpt><trkpt lat="43.588247234231595" lon="6.916901412495151"><ele>64.0</ele><time>2026-04-12T05:49:36.999Z</time></trkpt><trkpt lat="43.5881588430057" lon="6.916945283841867"><ele>64.0</ele><time>2026-04-12T05:49:38.999Z</time></trkpt><trkpt lat="43.58806488121108" lon="6.916939477880058"><ele>64.0</ele><time>2026-04-12T05:49:40.999Z</time></trkpt><trkpt lat="43.58796827666825" lon="6.91692429016778"><ele>64.0</ele><time>2026-04-12T05:49:42.999Z</time></trkpt><trkpt lat="43.58787626847653" lon="6.916903862436207"><ele>63.666666666666664</ele><time>2026-04-12T05:49:44.999Z</time></trkpt><trkpt lat="43.58779260807003" lon="6.916872444677273"><ele>63.33333333333333</ele><time>2026-04-12T05:49:46.999Z</time></trkpt><trkpt lat="43.58772991450086" lon="6.9167919933633595"><ele>63.0</ele><time>2026-04-12T05:49:48.999Z</time></trkpt><trkpt lat="43.58772791521055" lon="6.916674975439678"><ele>62.66666666666667</ele><time>2026-04-12T05:49:50.999Z</time></trkpt><trkpt lat="43.58778645500595" lon="6.91660391851127"><ele>62.333333333333336</ele><time>2026-04-12T05:49:52.999Z</time></trkpt><trkpt lat="43.58786169816464" lon="6.91659997007455"><ele>62.0</ele><time>2026-04-12T05:49:54.999Z</time></trkpt><trkpt lat="43.58793111269828" lon="6.916638164428655"><ele>67.2</ele><time>2026-04-12T05:49:56.999Z</time></trkpt><trkpt lat="43.588003406782924" lon="6.916674084568665"><ele>72.4</ele><time>2026-04-12T05:49:58.999Z</time></trkpt><trkpt lat="43.58809620146922" lon="6.916668645859186"><ele>77.60000000000001</ele><time>2026-04-12T05:50:00.999Z</time></trkpt><trkpt lat="43.58816899670328" lon="6.916571076359436"><ele>82.80000000000001</ele><time>2026-04-12T05:50:02.999Z</time></trkpt><trkpt lat="43.58820129476011" lon="6.9164441987012415"><ele>88.0</ele><time>2026-04-12T05:50:04.999Z</time></trkpt><trkpt lat="43.588234546909675" lon="6.916328117832217"><ele>88.0</ele><time>2026-04-12T05:50:06.999Z</time></trkpt><trkpt lat="43.588270221330966" lon="6.916211554040711"><ele>88.0</ele><time>2026-04-12T05:50:08.999Z</time></trkpt><trkpt lat="43.58830787539306" lon="6.91610165142232"><ele>88.0</ele><time>2026-04-12T05:50:11Z</time></trkpt><trkpt lat="43.58835408401522" lon="6.916003667951978"><ele>88.0</ele><time>2026-04-12T05:50:13Z</time></trkpt><trkpt lat="43.588411166638785" lon="6.915916863923512"><ele>88.0</ele><time>2026-04-12T05:50:15Z</time></trkpt><trkpt lat="43.58847991576406" lon="6.915837236303151"><ele>88.0</ele><time>2026-04-12T05:50:17Z</time></trkpt><trkpt lat="43.588565549559966" lon="6.915800602406986"><ele>87.2</ele><time>2026-04-12T05:50:19Z</time></trkpt><trkpt lat="43.58865512294266" lon="6.915830609426468"><ele>86.4</ele><time>2026-04-12T05:50:21Z</time></trkpt><trkpt lat="43.58872692648695" lon="6.915889345486677"><ele>85.60000000000001</ele><time>2026-04-12T05:50:23Z</time></trkpt><trkpt lat="43.58880252998298" lon="6.915947618144593"><ele>84.80000000000001</ele><time>2026-04-12T05:50:25Z</time></trkpt><trkpt lat="43.588900444680725" lon="6.916001846337246"><ele>84.0</ele><time>2026-04-12T05:50:28Z</time></trkpt><trkpt lat="43.58905485367128" lon="6.916061514561372"><ele>84.0</ele><time>2026-04-12T05:50:31Z</time></trkpt><trkpt lat="43.589146835789215" lon="6.916043386129578"><ele>84.0</ele><time>2026-04-12T05:50:33Z</time></trkpt><trkpt lat="43.58921167312217" lon="6.9159573057814425"><ele>84.0</ele><time>2026-04-12T05:50:35Z</time></trkpt><trkpt lat="43.58919833051289" lon="6.915824758914798"><ele>84.0</ele><time>2026-04-12T05:50:37Z</time></trkpt><trkpt lat="43.589143631390805" lon="6.915733794530713"><ele>84.0</ele><time>2026-04-12T05:50:39Z</time></trkpt><trkpt lat="43.58908824369424" lon="6.915658841417363"><ele>84.0</ele><time>2026-04-12T05:50:41Z</time></trkpt><trkpt lat="43.58903521480362" lon="6.9155715098393475"><ele>86.16666666666667</ele><time>2026-04-12T05:50:43Z</time></trkpt><trkpt lat="43.58897180005182" lon="6.915499944341951"><ele>88.33333333333334</ele><time>2026-04-12T05:50:45Z</time></trkpt><trkpt lat="43.588903247127035" lon="6.915418321597882"><ele>90.5</ele><time>2026-04-12T05:50:47Z</time></trkpt><trkpt lat="43.5888348775631" lon="6.915359038571044"><ele>92.66666666666667</ele><time>2026-04-12T05:50:49Z</time></trkpt><trkpt lat="43.58876097155701" lon="6.915305558657212"><ele>94.83333333333334</ele><time>2026-04-12T05:50:51Z</time></trkpt><trkpt lat="43.58870156864084" lon="6.915219281310717"><ele>97.0</ele><time>2026-04-12T05:50:53Z</time></trkpt><trkpt lat="43.588651769037035" lon="6.91512278380851"><ele>100.83333333333334</ele><time>2026-04-12T05:50:55Z</time></trkpt><trkpt lat="43.58861808119111" lon="6.915005418456414"><ele>104.66666666666667</ele><time>2026-04-12T05:50:57Z</time></trkpt><trkpt lat="43.5885969781637" lon="6.914892783346888"><ele>108.5</ele><time>2026-04-12T05:50:59Z</time></trkpt><trkpt lat="43.58856117013318" lon="6.9147948357868945"><ele>112.33333333333334</ele><time>2026-04-12T05:51:01Z</time></trkpt><trkpt lat="43.58848926774306" lon="6.91473012837679"><ele>116.16666666666667</ele><time>2026-04-12T05:51:03Z</time></trkpt><trkpt lat="43.58840581340224" lon="6.914761867021438"><ele>120.0</ele><time>2026-04-12T05:51:05Z</time></trkpt><trkpt lat="43.588356424753506" lon="6.914852089848073"><ele>120.0</ele><time>2026-04-12T05:51:07Z</time></trkpt><trkpt lat="43.58835447875729" lon="6.9149630679270055"><ele>120.0</ele><time>2026-04-12T05:51:09Z</time></trkpt><trkpt lat="43.58834545169679" lon="6.91507498129223"><ele>120.0</ele><time>2026-04-12T05:51:11Z</time></trkpt><trkpt lat="43.588333486776875" lon="6.9151872053949335"><ele>120.0</ele><time>2026-04-12T05:51:13Z</time></trkpt><trkpt lat="43.588297137994616" lon="6.91529542594146"><ele>120.0</ele><time>2026-04-12T05:51:15Z</time></trkpt><trkpt lat="43.58823251587648" lon="6.9153797861977235"><ele>120.0</ele><time>2026-04-12T05:51:17Z</time></trkpt><trkpt lat="43.58815140332615" lon="6.915429775972053"><ele>118.0</ele><time>2026-04-12T05:51:18.999Z</time></trkpt><trkpt lat="43.58807011249484" lon="6.915456817375747"><ele>116.0</ele><time>2026-04-12T05:51:20.999Z</time></trkpt><trkpt lat="43.58798818486079" lon="6.915455910285761"><ele>114.0</ele><time>2026-04-12T05:51:22.999Z</time></trkpt><trkpt lat="43.58790801246518" lon="6.915462212713308"><ele>112.0</ele><time>2026-04-12T05:51:24.999Z</time></trkpt><trkpt lat="43.58782983632941" lon="6.915466616231582"><ele>110.0</ele><time>2026-04-12T05:51:26.999Z</time></trkpt><trkpt lat="43.58774923520184" lon="6.915458099406945"><ele>108.0</ele><time>2026-04-12T05:51:28.999Z</time></trkpt><trkpt lat="43.587668765214666" lon="6.915427637310965"><ele>107.66666666666667</ele><time>2026-04-12T05:51:30.999Z</time></trkpt><trkpt lat="43.58760604261618" lon="6.915349326005129"><ele>107.33333333333334</ele><time>2026-04-12T05:51:32.999Z</time></trkpt><trkpt lat="43.58758333846748" lon="6.915232555132322"><ele>107.0</ele><time>2026-04-12T05:51:34.999Z</time></trkpt><trkpt lat="43.58760333152605" lon="6.915119181330291"><ele>106.66666666666667</ele><time>2026-04-12T05:51:36.999Z</time></trkpt><trkpt lat="43.58765424387972" lon="6.915030571496615"><ele>106.33333333333334</ele><time>2026-04-12T05:51:38.999Z</time></trkpt><trkpt lat="43.58772180715876" lon="6.914981296610813"><ele>106.0</ele><time>2026-04-12T05:51:40.999Z</time></trkpt><trkpt lat="43.58779613762379" lon="6.9149818295407615"><ele>108.33333333333334</ele><time>2026-04-12T05:51:42.999Z</time></trkpt><trkpt lat="43.58787231632073" lon="6.914970735574765"><ele>110.66666666666667</ele><time>2026-04-12T05:51:44.999Z</time></trkpt><trkpt lat="43.58793908140379" lon="6.914928365823277"><ele>113.0</ele><time>2026-04-12T05:51:46.999Z</time></trkpt><trkpt lat="43.58801086308969" lon="6.914855952009962"><ele>115.33333333333334</ele><time>2026-04-12T05:51:48.999Z</time></trkpt><trkpt lat="43.58806534782207" lon="6.914753114576414"><ele>117.66666666666667</ele><time>2026-04-12T05:51:50.999Z</time></trkpt><trkpt lat="43.588113748908334" lon="6.914627691647476"><ele>120.0</ele><time>2026-04-12T05:51:52.999Z</time></trkpt><trkpt lat="43.588148033096594" lon="6.914492953483019"><ele>120.0</ele><time>2026-04-12T05:51:54.999Z</time></trkpt><trkpt lat="43.58816692280856" lon="6.914364044411364"><ele>120.0</ele><time>2026-04-12T05:51:56.999Z</time></trkpt><trkpt lat="43.58818174436189" lon="6.914239902087192"><ele>120.0</ele><time>2026-04-12T05:51:58.999Z</time></trkpt><trkpt lat="43.58818331038424" lon="6.914112369624172"><ele>120.0</ele><time>2026-04-12T05:52:00.999Z</time></trkpt><trkpt lat="43.588187928292825" lon="6.913979678147798"><ele>120.0</ele><time>2026-04-12T05:52:02.999Z</time></trkpt><trkpt lat="43.588192509944484" lon="6.913859299702284"><ele>121.33333333333333</ele><time>2026-04-12T05:52:04.999Z</time></trkpt><trkpt lat="43.58819310490287" lon="6.913739492613167"><ele>122.66666666666666</ele><time>2026-04-12T05:52:06.999Z</time></trkpt><trkpt lat="43.58819643184646" lon="6.9136165244295205"><ele>124.0</ele><time>2026-04-12T05:52:08.999Z</time></trkpt><trkpt lat="43.5882066330664" lon="6.9134982621880985"><ele>125.33333333333333</ele><time>2026-04-12T05:52:10.999Z</time></trkpt><trkpt lat="43.58822190735979" lon="6.9133771650341265"><ele>126.66666666666666</ele><time>2026-04-12T05:52:12.999Z</time></trkpt><trkpt lat="43.5882463785672" lon="6.913265112489794"><ele>128.0</ele><time>2026-04-12T05:52:14.999Z</time></trkpt><trkpt lat="43.58826287718725" lon="6.913143853185557"><ele>128.66666666666666</ele><time>2026-04-12T05:52:17Z</time></trkpt><trkpt lat="43.588257109058304" lon="6.913025031561923"><ele>129.33333333333331</ele><time>2026-04-12T05:52:19Z</time></trkpt><trkpt lat="43.588241052534606" lon="6.912909980459789"><ele>130.0</ele><time>2026-04-12T05:52:21Z</time></trkpt><trkpt lat="43.588219013881236" lon="6.912793902402674"><ele>130.66666666666666</ele><time>2026-04-12T05:52:23Z</time></trkpt><trkpt lat="43.58819449957626" lon="6.912684445157061"><ele>131.33333333333334</ele><time>2026-04-12T05:52:25Z</time></trkpt><trkpt lat="43.58817525211463" lon="6.912567729144075"><ele>132.0</ele><time>2026-04-12T05:52:27Z</time></trkpt><trkpt lat="43.588156300300035" lon="6.9124541282697125"><ele>132.0</ele><time>2026-04-12T05:52:29Z</time></trkpt><trkpt lat="43.58813814129718" lon="6.912334585807389"><ele>132.0</ele><time>2026-04-12T05:52:31Z</time></trkpt><trkpt lat="43.58811696719709" lon="6.91220945259624"><ele>132.0</ele><time>2026-04-12T05:52:33Z</time></trkpt><trkpt lat="43.58809386744607" lon="6.912088201220546"><ele>132.0</ele><time>2026-04-12T05:52:35Z</time></trkpt><trkpt lat="43.588074299081875" lon="6.911964778967912"><ele>132.0</ele><time>2026-04-12T05:52:37Z</time></trkpt><trkpt lat="43.58805739084201" lon="6.911840154373169"><ele>132.4</ele><time>2026-04-12T05:52:39Z</time></trkpt><trkpt lat="43.58805168433286" lon="6.911716179393863"><ele>132.79999999999998</ele><time>2026-04-12T05:52:41Z</time></trkpt><trkpt lat="43.58804452121483" lon="6.911585188484889"><ele>133.2</ele><time>2026-04-12T05:52:43Z</time></trkpt><trkpt lat="43.588038965901" lon="6.911456880545618"><ele>133.6</ele><time>2026-04-12T05:52:45Z</time></trkpt><trkpt lat="43.588035573524095" lon="6.911330540353458"><ele>134.0</ele><time>2026-04-12T05:52:47Z</time></trkpt><trkpt lat="43.588030575805384" lon="6.911202149577081"><ele>134.0</ele><time>2026-04-12T05:52:49Z</time></trkpt><trkpt lat="43.58802735667637" lon="6.911076638493687"><ele>134.0</ele><time>2026-04-12T05:52:51Z</time></trkpt><trkpt lat="43.588019525297334" lon="6.9109475275519525"><ele>134.0</ele><time>2026-04-12T05:52:53Z</time></trkpt><trkpt lat="43.58801398207438" lon="6.910821828474297"><ele>134.0</ele><time>2026-04-12T05:52:55Z</time></trkpt><trkpt lat="43.58801126803546" lon="6.910695834920958"><ele>134.0</ele><time>2026-04-12T05:52:57Z</time></trkpt><trkpt lat="43.58800577335717" lon="6.910568880098196"><ele>136.0</ele><time>2026-04-12T05:52:59Z</time></trkpt><trkpt lat="43.588004350095055" lon="6.9104453596164195"><ele>138.0</ele><time>2026-04-12T05:53:01Z</time></trkpt><trkpt lat="43.58800466739895" lon="6.910284502736056"><ele>140.0</ele><time>2026-04-12T05:53:04Z</time></trkpt><trkpt lat="43.58803352500791" lon="6.910143651069156"><ele>142.0</ele><time>2026-04-12T05:53:06Z</time></trkpt><trkpt lat="43.588089166835054" lon="6.910044008888083"><ele>144.0</ele><time>2026-04-12T05:53:08Z</time></trkpt><trkpt lat="43.58817363058539" lon="6.910002189258312"><ele>144.0</ele><time>2026-04-12T05:53:10Z</time></trkpt><trkpt lat="43.58824757134282" lon="6.9100044918627574"><ele>144.0</ele><time>2026-04-12T05:53:12Z</time></trkpt><trkpt lat="43.58842334997308" lon="6.910039510276411"><ele>144.0</ele><time>2026-04-12T05:53:15Z</time></trkpt><trkpt lat="43.58851559063516" lon="6.910082315603737"><ele>144.0</ele><time>2026-04-12T05:53:17Z</time></trkpt><trkpt lat="43.588601566231446" lon="6.9101442026546"><ele>144.0</ele><time>2026-04-12T05:53:19Z</time></trkpt><trkpt lat="43.58870572434787" lon="6.910118281488406"><ele>144.0</ele><time>2026-04-12T05:53:21Z</time></trkpt><trkpt lat="43.58881006435138" lon="6.910144420218413"><ele>144.0</ele><time>2026-04-12T05:53:22.999Z</time></trkpt><trkpt lat="43.58891218549134" lon="6.910209218570264"><ele>144.0</ele><time>2026-04-12T05:53:24.999Z</time></trkpt><trkpt lat="43.58899667203704" lon="6.910290539649011"><ele>144.0</ele><time>2026-04-12T05:53:26.999Z</time></trkpt><trkpt lat="43.58912083458293" lon="6.910310691558919"><ele>144.0</ele><time>2026-04-12T05:53:28.999Z</time></trkpt><trkpt lat="43.589186027415124" lon="6.910240641379531"><ele>144.0</ele><time>2026-04-12T05:53:29.999Z</time></trkpt><trkpt lat="43.5892393239456" lon="6.9100914337407024"><ele>144.0</ele><time>2026-04-12T05:53:31.999Z</time></trkpt><trkpt lat="43.58926061789309" lon="6.909978947128085"><ele>144.0</ele><time>2026-04-12T05:53:33.999Z</time></trkpt><trkpt lat="43.58929324140706" lon="6.909848692801326"><ele>144.0</ele><time>2026-04-12T05:53:35.999Z</time></trkpt><trkpt lat="43.589324117642334" lon="6.90972059448857"><ele>144.0</ele><time>2026-04-12T05:53:37.999Z</time></trkpt><trkpt lat="43.589349298038655" lon="6.90959166956437"><ele>148.0</ele><time>2026-04-12T05:53:39.999Z</time></trkpt><trkpt lat="43.58938066619407" lon="6.909461215342847"><ele>152.0</ele><time>2026-04-12T05:53:41.999Z</time></trkpt><trkpt lat="43.58941960388904" lon="6.909327948102239"><ele>156.0</ele><time>2026-04-12T05:53:43.999Z</time></trkpt><trkpt lat="43.58946818640924" lon="6.909207087402508"><ele>160.0</ele><time>2026-04-12T05:53:45.999Z</time></trkpt><trkpt lat="43.5895004409299" lon="6.909078505532035"><ele>164.0</ele><time>2026-04-12T05:53:47.999Z</time></trkpt><trkpt lat="43.58950850302577" lon="6.908936985672991"><ele>167.2</ele><time>2026-04-12T05:53:49.999Z</time></trkpt><trkpt lat="43.589490855295956" lon="6.908806420222591"><ele>170.39999999999998</ele><time>2026-04-12T05:53:51.999Z</time></trkpt><trkpt lat="43.58946352633194" lon="6.90868436666628"><ele>173.6</ele><time>2026-04-12T05:53:53.999Z</time></trkpt><trkpt lat="43.58942718354375" lon="6.908565773667861"><ele>176.8</ele><time>2026-04-12T05:53:55.999Z</time></trkpt><trkpt lat="43.58937019930733" lon="6.908459659203406"><ele>180.0</ele><time>2026-04-12T05:53:57.999Z</time></trkpt><trkpt lat="43.589301249400805" lon="6.908372842297451"><ele>180.2</ele><time>2026-04-12T05:53:59.999Z</time></trkpt><trkpt lat="43.58922271800418" lon="6.908300918903445"><ele>180.4</ele><time>2026-04-12T05:54:01.999Z</time></trkpt><trkpt lat="43.589148598056646" lon="6.908214794724648"><ele>180.60000000000002</ele><time>2026-04-12T05:54:03.999Z</time></trkpt><trkpt lat="43.589090767317856" lon="6.908102544943769"><ele>180.8</ele><time>2026-04-12T05:54:05.999Z</time></trkpt><trkpt lat="43.58905449493696" lon="6.90797784427894"><ele>181.0</ele><time>2026-04-12T05:54:07.999Z</time></trkpt><trkpt lat="43.589023674977106" lon="6.907853816410248"><ele>181.0</ele><time>2026-04-12T05:54:09.999Z</time></trkpt><trkpt lat="43.58898477094309" lon="6.907738913552769"><ele>181.0</ele><time>2026-04-12T05:54:11.999Z</time></trkpt><trkpt lat="43.588952801719365" lon="6.907647583189845"><ele>181.0</ele><time>2026-04-12T05:54:13.999Z</time></trkpt><trkpt lat="43.588877683992834" lon="6.9074427967561896"><ele>181.0</ele><time>2026-04-12T05:54:16.999Z</time></trkpt><trkpt lat="43.58884350285732" lon="6.907318799979665"><ele>181.0</ele><time>2026-04-12T05:54:18.999Z</time></trkpt><trkpt lat="43.5888317991526" lon="6.907188875670771"><ele>181.60000000000002</ele><time>2026-04-12T05:54:20.999Z</time></trkpt><trkpt lat="43.588831499241635" lon="6.907066389514811"><ele>182.2</ele><time>2026-04-12T05:54:23Z</time></trkpt><trkpt lat="43.58880338791973" lon="6.906951093656087"><ele>182.8</ele><time>2026-04-12T05:54:25Z</time></trkpt><trkpt lat="43.5887872176838" lon="6.906831034495691"><ele>183.39999999999998</ele><time>2026-04-12T05:54:27Z</time></trkpt><trkpt lat="43.58875452622009" lon="6.906710851700901"><ele>184.0</ele><time>2026-04-12T05:54:29Z</time></trkpt><trkpt lat="43.58871595765746" lon="6.906574332561568"><ele>184.0</ele><time>2026-04-12T05:54:31Z</time></trkpt><trkpt lat="43.588688640661346" lon="6.9064374694996316"><ele>184.0</ele><time>2026-04-12T05:54:33Z</time></trkpt><trkpt lat="43.58868556450954" lon="6.906301235278602"><ele>184.0</ele><time>2026-04-12T05:54:35Z</time></trkpt><trkpt lat="43.58868545850184" lon="6.906179074415796"><ele>184.0</ele><time>2026-04-12T05:54:37Z</time></trkpt><trkpt lat="43.58867858526941" lon="6.90606681666068"><ele>184.0</ele><time>2026-04-12T05:54:39Z</time></trkpt><trkpt lat="43.58873831882409" lon="6.90593905749408"><ele>184.0</ele><time>2026-04-12T05:54:41Z</time></trkpt><trkpt lat="43.58884419437787" lon="6.905924124155445"><ele>184.0</ele><time>2026-04-12T05:54:43Z</time></trkpt><trkpt lat="43.58892462767423" lon="6.905957739974218"><ele>184.0</ele><time>2026-04-12T05:54:45Z</time></trkpt><trkpt lat="43.58899593083597" lon="6.906025649847834"><ele>184.0</ele><time>2026-04-12T05:54:47Z</time></trkpt><trkpt lat="43.5890943548378" lon="6.906096483480577"><ele>184.0</ele><time>2026-04-12T05:54:49Z</time></trkpt><trkpt lat="43.589158566968706" lon="6.90606326808607"><ele>184.0</ele><time>2026-04-12T05:54:50Z</time></trkpt><trkpt lat="43.58927156200299" lon="6.906079905566066"><ele>184.0</ele><time>2026-04-12T05:54:52Z</time></trkpt><trkpt lat="43.58931079448197" lon="6.906001068063935"><ele>184.0</ele><time>2026-04-12T05:54:53Z</time></trkpt><trkpt lat="43.58935119652889" lon="6.905888734539522"><ele>184.0</ele><time>2026-04-12T05:54:55Z</time></trkpt><trkpt lat="43.589409658224476" lon="6.905781961600659"><ele>184.0</ele><time>2026-04-12T05:54:57Z</time></trkpt><trkpt lat="43.58947839689901" lon="6.905704510272072"><ele>185.66666666666669</ele><time>2026-04-12T05:54:59Z</time></trkpt><trkpt lat="43.589548345978166" lon="6.905648951492738"><ele>187.33333333333334</ele><time>2026-04-12T05:55:01Z</time></trkpt><trkpt lat="43.58963437968571" lon="6.905618581439101"><ele>189.0</ele><time>2026-04-12T05:55:03Z</time></trkpt><trkpt lat="43.58971242662212" lon="6.905670152723842"><ele>190.66666666666669</ele><time>2026-04-12T05:55:05Z</time></trkpt><trkpt lat="43.589777742919196" lon="6.9057774503194125"><ele>192.33333333333334</ele><time>2026-04-12T05:55:07Z</time></trkpt><trkpt lat="43.58981036441204" lon="6.905888111359457"><ele>194.0</ele><time>2026-04-12T05:55:09Z</time></trkpt><trkpt lat="43.589857372257065" lon="6.906051741847"><ele>194.0</ele><time>2026-04-12T05:55:11Z</time></trkpt><trkpt lat="43.589896818549" lon="6.906181436494553"><ele>194.0</ele><time>2026-04-12T05:55:13Z</time></trkpt><trkpt lat="43.58996906792355" lon="6.9062911812402366"><ele>194.0</ele><time>2026-04-12T05:55:15Z</time></trkpt><trkpt lat="43.590037083039576" lon="6.906397515995503"><ele>194.0</ele><time>2026-04-12T05:55:17Z</time></trkpt><trkpt lat="43.590118568839394" lon="6.906477047189517"><ele>194.0</ele><time>2026-04-12T05:55:19Z</time></trkpt><trkpt lat="43.59020972032336" lon="6.906520262990067"><ele>194.00000000000003</ele><time>2026-04-12T05:55:21Z</time></trkpt><trkpt lat="43.590299347759384" lon="6.906557243806916"><ele>194.0</ele><time>2026-04-12T05:55:23Z</time></trkpt><trkpt lat="43.590390422531435" lon="6.90657915858407"><ele>194.0</ele><time>2026-04-12T05:55:25Z</time></trkpt><trkpt lat="43.59046386476251" lon="6.906618905569602"><ele>194.0</ele><time>2026-04-12T05:55:26Z</time></trkpt><trkpt lat="43.5904971380602" lon="6.906526674103222"><ele>194.00000000000003</ele><time>2026-04-12T05:55:27Z</time></trkpt><trkpt lat="43.59055344311636" lon="6.906461560719545"><ele>194.0</ele><time>2026-04-12T05:55:28.999Z</time></trkpt><trkpt lat="43.59060638624973" lon="6.906404457283577"><ele>195.0</ele><time>2026-04-12T05:55:30.999Z</time></trkpt><trkpt lat="43.59067425254948" lon="6.906310578116466"><ele>196.0</ele><time>2026-04-12T05:55:32.999Z</time></trkpt><trkpt lat="43.590762015468236" lon="6.906242443279995"><ele>197.0</ele><time>2026-04-12T05:55:34.999Z</time></trkpt><trkpt lat="43.59087053743782" lon="6.906257625802314"><ele>198.0</ele><time>2026-04-12T05:55:36.999Z</time></trkpt><trkpt lat="43.59096263970222" lon="6.906280460226447"><ele>199.0</ele><time>2026-04-12T05:55:38.999Z</time></trkpt><trkpt lat="43.59106025807232" lon="6.906269672041409"><ele>199.0</ele><time>2026-04-12T05:55:40.999Z</time></trkpt><trkpt lat="43.59115456367405" lon="6.906225623642993"><ele>199.0</ele><time>2026-04-12T05:55:42.999Z</time></trkpt><trkpt lat="43.59124099588724" lon="6.906178958549896"><ele>199.0</ele><time>2026-04-12T05:55:44.999Z</time></trkpt><trkpt lat="43.591338182362634" lon="6.906156723276976"><ele>199.0</ele><time>2026-04-12T05:55:46.999Z</time></trkpt><trkpt lat="43.59143305483468" lon="6.906148327203069"><ele>199.0</ele><time>2026-04-12T05:55:48.999Z</time></trkpt><trkpt lat="43.59152335546463" lon="6.906143536429496"><ele>198.6</ele><time>2026-04-12T05:55:50.999Z</time></trkpt><trkpt lat="43.59161148801239" lon="6.906118524276277"><ele>198.2</ele><time>2026-04-12T05:55:52.999Z</time></trkpt><trkpt lat="43.5916981728806" lon="6.9060736505137115"><ele>197.79999999999998</ele><time>2026-04-12T05:55:54.999Z</time></trkpt><trkpt lat="43.59179152834948" lon="6.906028412104287"><ele>197.39999999999998</ele><time>2026-04-12T05:55:56.999Z</time></trkpt><trkpt lat="43.59188935742501" lon="6.905985527498152"><ele>197.0</ele><time>2026-04-12T05:55:58.999Z</time></trkpt><trkpt lat="43.591986936696465" lon="6.9059164356946985"><ele>201.39999999999998</ele><time>2026-04-12T05:56:00.999Z</time></trkpt><trkpt lat="43.59209370896238" lon="6.905857249929907"><ele>205.79999999999998</ele><time>2026-04-12T05:56:02.999Z</time></trkpt><trkpt lat="43.5921982180553" lon="6.905808882164421"><ele>210.2</ele><time>2026-04-12T05:56:04.999Z</time></trkpt><trkpt lat="43.592295039440195" lon="6.9057547917652276"><ele>214.6</ele><time>2026-04-12T05:56:06.999Z</time></trkpt><trkpt lat="43.592391908604434" lon="6.90569728187554"><ele>219.0</ele><time>2026-04-12T05:56:08.999Z</time></trkpt><trkpt lat="43.59249069989904" lon="6.905645712779615"><ele>219.0</ele><time>2026-04-12T05:56:10.999Z</time></trkpt><trkpt lat="43.59258588878054" lon="6.905594307252179"><ele>218.99999999999997</ele><time>2026-04-12T05:56:12.999Z</time></trkpt><trkpt lat="43.59267873509948" lon="6.905549158471957"><ele>218.99999999999997</ele><time>2026-04-12T05:56:14.999Z</time></trkpt><trkpt lat="43.59276702066102" lon="6.905489310227248"><ele>219.0</ele><time>2026-04-12T05:56:16.999Z</time></trkpt><trkpt lat="43.59285435766299" lon="6.905423507856569"><ele>219.0</ele><time>2026-04-12T05:56:18.999Z</time></trkpt><trkpt lat="43.59291839731874" lon="6.905321753433245"><ele>218.6</ele><time>2026-04-12T05:56:20.999Z</time></trkpt><trkpt lat="43.59294576768666" lon="6.9051816047738335"><ele>218.2</ele><time>2026-04-12T05:56:22.999Z</time></trkpt><trkpt lat="43.592922315356134" lon="6.90505001443294"><ele>217.79999999999998</ele><time>2026-04-12T05:56:24.999Z</time></trkpt><trkpt lat="43.592871374980305" lon="6.904943553233082"><ele>217.39999999999998</ele><time>2026-04-12T05:56:26.999Z</time></trkpt><trkpt lat="43.59280526760347" lon="6.904852561557006"><ele>217.0</ele><time>2026-04-12T05:56:29Z</time></trkpt><trkpt lat="43.5927392232782" lon="6.904762379956985"><ele>219.39999999999998</ele><time>2026-04-12T05:56:31Z</time></trkpt><trkpt lat="43.59267176281505" lon="6.9046739270218715"><ele>221.79999999999998</ele><time>2026-04-12T05:56:33Z</time></trkpt><trkpt lat="43.592606796742565" lon="6.90458683757904"><ele>224.2</ele><time>2026-04-12T05:56:35Z</time></trkpt><trkpt lat="43.59254143005932" lon="6.904502771631662"><ele>226.6</ele><time>2026-04-12T05:56:37Z</time></trkpt><trkpt lat="43.59247673248223" lon="6.904418802685804"><ele>229.0</ele><time>2026-04-12T05:56:39Z</time></trkpt><trkpt lat="43.59241287020711" lon="6.904334207906804"><ele>229.0</ele><time>2026-04-12T05:56:41Z</time></trkpt><trkpt lat="43.592348587343444" lon="6.9042492373469875"><ele>228.99999999999997</ele><time>2026-04-12T05:56:43Z</time></trkpt><trkpt lat="43.59227540281635" lon="6.904142164233329"><ele>228.99999999999997</ele><time>2026-04-12T05:56:46Z</time></trkpt><trkpt lat="43.592217731789844" lon="6.904056653024951"><ele>229.0</ele><time>2026-04-12T05:56:48Z</time></trkpt><trkpt lat="43.592131374285906" lon="6.903927581306057"><ele>229.0</ele><time>2026-04-12T05:56:50Z</time></trkpt><trkpt lat="43.59205953323491" lon="6.903848237464635"><ele>232.0</ele><time>2026-04-12T05:56:52Z</time></trkpt><trkpt lat="43.59198789416512" lon="6.90377467809035"><ele>234.99999999999997</ele><time>2026-04-12T05:56:54Z</time></trkpt><trkpt lat="43.59190235790419" lon="6.903723087534532"><ele>237.99999999999997</ele><time>2026-04-12T05:56:56Z</time></trkpt><trkpt lat="43.59182383825465" lon="6.903670770182574"><ele>241.0</ele><time>2026-04-12T05:56:58Z</time></trkpt><trkpt lat="43.59173229443695" lon="6.903636633017597"><ele>244.0</ele><time>2026-04-12T05:57:00Z</time></trkpt><trkpt lat="43.59164852289929" lon="6.903580382246365"><ele>244.0</ele><time>2026-04-12T05:57:02Z</time></trkpt><trkpt lat="43.59158290337954" lon="6.90348300309069"><ele>243.99999999999997</ele><time>2026-04-12T05:57:04Z</time></trkpt><trkpt lat="43.5915234823195" lon="6.903377479862717"><ele>243.99999999999997</ele><time>2026-04-12T05:57:06Z</time></trkpt><trkpt lat="43.59145891493812" lon="6.903275124223215"><ele>244.0</ele><time>2026-04-12T05:57:08Z</time></trkpt><trkpt lat="43.5913735336904" lon="6.9032125560062285"><ele>244.0</ele><time>2026-04-12T05:57:10Z</time></trkpt><trkpt lat="43.591290516325344" lon="6.903110980868351"><ele>245.0</ele><time>2026-04-12T05:57:12Z</time></trkpt><trkpt lat="43.59122750076777" lon="6.903099592826278"><ele>245.99999999999997</ele><time>2026-04-12T05:57:14Z</time></trkpt><trkpt lat="43.591122610293475" lon="6.903108262049153"><ele>246.99999999999997</ele><time>2026-04-12T05:57:15Z</time></trkpt><trkpt lat="43.59102568930708" lon="6.903088843738473"><ele>248.0</ele><time>2026-04-12T05:57:17Z</time></trkpt><trkpt lat="43.590930470098264" lon="6.903048975432677"><ele>249.0</ele><time>2026-04-12T05:57:19Z</time></trkpt><trkpt lat="43.590830676649745" lon="6.9030219838887605"><ele>249.0</ele><time>2026-04-12T05:57:21Z</time></trkpt><trkpt lat="43.590736087007826" lon="6.902974436390219"><ele>248.99999999999997</ele><time>2026-04-12T05:57:23Z</time></trkpt><trkpt lat="43.59064105702825" lon="6.902990383301867"><ele>248.99999999999997</ele><time>2026-04-12T05:57:25Z</time></trkpt><trkpt lat="43.59054974467731" lon="6.902991331478821"><ele>249.0</ele><time>2026-04-12T05:57:27Z</time></trkpt><trkpt lat="43.5904528561862" lon="6.90298259151685"><ele>249.0</ele><time>2026-04-12T05:57:29Z</time></trkpt><trkpt lat="43.5903547373707" lon="6.902970928831942"><ele>249.79999999999998</ele><time>2026-04-12T05:57:31Z</time></trkpt><trkpt lat="43.59026885843136" lon="6.90287924002213"><ele>250.59999999999997</ele><time>2026-04-12T05:57:32.999Z</time></trkpt><trkpt lat="43.59025320489673" lon="6.902739431346321"><ele>251.4</ele><time>2026-04-12T05:57:34.999Z</time></trkpt><trkpt lat="43.59023257402918" lon="6.902614005270108"><ele>252.2</ele><time>2026-04-12T05:57:36.999Z</time></trkpt><trkpt lat="43.59018985945448" lon="6.902515381001584"><ele>253.0</ele><time>2026-04-12T05:57:38.999Z</time></trkpt><trkpt lat="43.59009707630634" lon="6.902334073157908"><ele>253.0</ele><time>2026-04-12T05:57:41.999Z</time></trkpt><trkpt lat="43.590031661151954" lon="6.9022445716833145"><ele>253.0</ele><time>2026-04-12T05:57:43.999Z</time></trkpt><trkpt lat="43.5899467171676" lon="6.902171312174112"><ele>253.0</ele><time>2026-04-12T05:57:45.999Z</time></trkpt><trkpt lat="43.58986678425496" lon="6.902099742211224"><ele>253.0</ele><time>2026-04-12T05:57:47.999Z</time></trkpt><trkpt lat="43.589789688057934" lon="6.902032530032089"><ele>253.0</ele><time>2026-04-12T05:57:49.999Z</time></trkpt><trkpt lat="43.589705000896394" lon="6.901977108513058"><ele>253.0</ele><time>2026-04-12T05:57:51.999Z</time></trkpt><trkpt lat="43.58962592504927" lon="6.901900561289459"><ele>253.0</ele><time>2026-04-12T05:57:53.999Z</time></trkpt><trkpt lat="43.589538279766074" lon="6.90184486531692"><ele>253.0</ele><time>2026-04-12T05:57:55.999Z</time></trkpt><trkpt lat="43.58945328795183" lon="6.901789358053375"><ele>253.0</ele><time>2026-04-12T05:57:57.999Z</time></trkpt><trkpt lat="43.58935715477785" lon="6.901761936507578"><ele>253.0</ele><time>2026-04-12T05:57:59.999Z</time></trkpt><trkpt lat="43.58925499099324" lon="6.901771313534077"><ele>255.60000000000002</ele><time>2026-04-12T05:58:01.999Z</time></trkpt><trkpt lat="43.58916051588154" lon="6.901828723721032"><ele>258.20000000000005</ele><time>2026-04-12T05:58:03.999Z</time></trkpt><trkpt lat="43.589094409147286" lon="6.901928433812425"><ele>260.8</ele><time>2026-04-12T05:58:05.999Z</time></trkpt><trkpt lat="43.58905009074091" lon="6.90204206310309"><ele>263.40000000000003</ele><time>2026-04-12T05:58:07.999Z</time></trkpt><trkpt lat="43.589005348611536" lon="6.9021556693893595"><ele>266.0</ele><time>2026-04-12T05:58:09.999Z</time></trkpt><trkpt lat="43.58895813943416" lon="6.902272994786484"><ele>266.0</ele><time>2026-04-12T05:58:11.999Z</time></trkpt><trkpt lat="43.58888602156203" lon="6.902352743742156"><ele>266.0</ele><time>2026-04-12T05:58:13.999Z</time></trkpt><trkpt lat="43.5887960414267" lon="6.902344891563732"><ele>266.0</ele><time>2026-04-12T05:58:15.999Z</time></trkpt><trkpt lat="43.588714623316505" lon="6.902273235196062"><ele>266.0</ele><time>2026-04-12T05:58:17.999Z</time></trkpt><trkpt lat="43.58863852801015" lon="6.902200187332072"><ele>266.0</ele><time>2026-04-12T05:58:19.999Z</time></trkpt><trkpt lat="43.58854985888258" lon="6.902105942551075"><ele>267.6</ele><time>2026-04-12T05:58:21.999Z</time></trkpt><trkpt lat="43.588469833056706" lon="6.902022323336565"><ele>269.20000000000005</ele><time>2026-04-12T05:58:23.999Z</time></trkpt><trkpt lat="43.58838953972803" lon="6.901959328071653"><ele>270.79999999999995</ele><time>2026-04-12T05:58:25.999Z</time></trkpt><trkpt lat="43.58831837075176" lon="6.9019011671963435"><ele>272.4</ele><time>2026-04-12T05:58:27.999Z</time></trkpt><trkpt lat="43.588240865502804" lon="6.9018451675385775"><ele>274.0</ele><time>2026-04-12T05:58:29.999Z</time></trkpt><trkpt lat="43.58815628214666" lon="6.90176964656075"><ele>271.8</ele><time>2026-04-12T05:58:31.999Z</time></trkpt><trkpt lat="43.588083560919245" lon="6.901667887912624"><ele>269.59999999999997</ele><time>2026-04-12T05:58:34Z</time></trkpt><trkpt lat="43.588040244417016" lon="6.901545346086385"><ele>267.4</ele><time>2026-04-12T05:58:36Z</time></trkpt><trkpt lat="43.58802070215283" lon="6.901414709709462"><ele>265.2</ele><time>2026-04-12T05:58:38Z</time></trkpt><trkpt lat="43.58802584224632" lon="6.901272113509565"><ele>263.0</ele><time>2026-04-12T05:58:40Z</time></trkpt><trkpt lat="43.58803478247919" lon="6.901130652766156"><ele>263.0</ele><time>2026-04-12T05:58:42Z</time></trkpt><trkpt lat="43.588027333134484" lon="6.900979069422556"><ele>263.0</ele><time>2026-04-12T05:58:44Z</time></trkpt><trkpt lat="43.587997760004185" lon="6.900848228314226"><ele>263.0</ele><time>2026-04-12T05:58:46Z</time></trkpt><trkpt lat="43.587956315607734" lon="6.900725113777908"><ele>263.0</ele><time>2026-04-12T05:58:48Z</time></trkpt><trkpt lat="43.58792007342813" lon="6.900596161383428"><ele>263.0</ele><time>2026-04-12T05:58:50Z</time></trkpt><trkpt lat="43.58786102114398" lon="6.900390689059978"><ele>269.2</ele><time>2026-04-12T05:58:53Z</time></trkpt><trkpt lat="43.5878249873225" lon="6.9002644361755925"><ele>275.4</ele><time>2026-04-12T05:58:55Z</time></trkpt><trkpt lat="43.58778633335971" lon="6.900136275045881"><ele>281.59999999999997</ele><time>2026-04-12T05:58:57Z</time></trkpt><trkpt lat="43.58775086532771" lon="6.900000787735867"><ele>287.8</ele><time>2026-04-12T05:58:59Z</time></trkpt><trkpt lat="43.587772262859005" lon="6.899862900450655"><ele>294.0</ele><time>2026-04-12T05:59:01Z</time></trkpt><trkpt lat="43.587807712807674" lon="6.899744025430579"><ele>288.2</ele><time>2026-04-12T05:59:03Z</time></trkpt><trkpt lat="43.58785654848555" lon="6.899633173442162"><ele>282.4</ele><time>2026-04-12T05:59:05Z</time></trkpt><trkpt lat="43.58789921167734" lon="6.899505218445837"><ele>276.6</ele><time>2026-04-12T05:59:07Z</time></trkpt><trkpt lat="43.58793596510288" lon="6.899378974198094"><ele>270.8</ele><time>2026-04-12T05:59:09Z</time></trkpt><trkpt lat="43.5879698191827" lon="6.8992467903758765"><ele>265.0</ele><time>2026-04-12T05:59:11Z</time></trkpt><trkpt lat="43.58799265051055" lon="6.899100259663602"><ele>265.0</ele><time>2026-04-12T05:59:13Z</time></trkpt><trkpt lat="43.58801129934391" lon="6.898951013500997"><ele>265.0</ele><time>2026-04-12T05:59:15Z</time></trkpt><trkpt lat="43.588036652346524" lon="6.898806038214348"><ele>265.0</ele><time>2026-04-12T05:59:17Z</time></trkpt><trkpt lat="43.58805685825039" lon="6.898664134255341"><ele>265.0</ele><time>2026-04-12T05:59:19Z</time></trkpt><trkpt lat="43.58807350504859" lon="6.898521326935239"><ele>265.0</ele><time>2026-04-12T05:59:21Z</time></trkpt><trkpt lat="43.5881007953719" lon="6.898382178468167"><ele>268.2</ele><time>2026-04-12T05:59:23Z</time></trkpt><trkpt lat="43.58814877157512" lon="6.89824561032433"><ele>271.4</ele><time>2026-04-12T05:59:25Z</time></trkpt><trkpt lat="43.58821363241387" lon="6.8982115305958205"><ele>274.6</ele><time>2026-04-12T05:59:26Z</time></trkpt><trkpt lat="43.58827829564423" lon="6.898076338370165"><ele>277.8</ele><time>2026-04-12T05:59:28Z</time></trkpt><trkpt lat="43.58836129438514" lon="6.897957381387539"><ele>281.0</ele><time>2026-04-12T05:59:30Z</time></trkpt><trkpt lat="43.58837546263049" lon="6.897870416485139"><ele>281.0</ele><time>2026-04-12T05:59:31Z</time></trkpt><trkpt lat="43.588427856795114" lon="6.897741159286584"><ele>281.0</ele><time>2026-04-12T05:59:33Z</time></trkpt><trkpt lat="43.58847960099015" lon="6.89761479242231"><ele>281.0</ele><time>2026-04-12T05:59:35Z</time></trkpt><trkpt lat="43.5885351584489" lon="6.897465290673762"><ele>281.0</ele><time>2026-04-12T05:59:37Z</time></trkpt><trkpt lat="43.588592290573764" lon="6.89733661892905"><ele>281.0</ele><time>2026-04-12T05:59:39Z</time></trkpt><trkpt lat="43.588664832469554" lon="6.897217649408451"><ele>280.6</ele><time>2026-04-12T05:59:40.999Z</time></trkpt><trkpt lat="43.58869092936552" lon="6.8971378947552475"><ele>280.20000000000005</ele><time>2026-04-12T05:59:41.999Z</time></trkpt><trkpt lat="43.58871145027638" lon="6.896963508314094"><ele>279.79999999999995</ele><time>2026-04-12T05:59:43.999Z</time></trkpt><trkpt lat="43.58866324877284" lon="6.896789382056659"><ele>279.4</ele><time>2026-04-12T05:59:45.999Z</time></trkpt><trkpt lat="43.58859299287312" lon="6.89672081465053"><ele>279.0</ele><time>2026-04-12T05:59:46.999Z</time></trkpt><trkpt lat="43.588524230323834" lon="6.896663033157594"><ele>280.6666666666667</ele><time>2026-04-12T05:59:47.999Z</time></trkpt><trkpt lat="43.5884688527304" lon="6.896611096657999"><ele>282.3333333333333</ele><time>2026-04-12T05:59:48.999Z</time></trkpt><trkpt lat="43.588406379564006" lon="6.8965584256472825"><ele>284.0</ele><time>2026-04-12T05:59:49.999Z</time></trkpt><trkpt lat="43.58832995544224" lon="6.896515256322225"><ele>285.66666666666663</ele><time>2026-04-12T05:59:50.999Z</time></trkpt><trkpt lat="43.58824046281013" lon="6.896498701404776"><ele>287.3333333333333</ele><time>2026-04-12T05:59:51.999Z</time></trkpt><trkpt lat="43.588144796838854" lon="6.896556086143255"><ele>289.0</ele><time>2026-04-12T05:59:52.999Z</time></trkpt><trkpt lat="43.58805630512228" lon="6.89658961404953"><ele>289.0</ele><time>2026-04-12T05:59:53.999Z</time></trkpt><trkpt lat="43.58797427344694" lon="6.896628070147369"><ele>289.0</ele><time>2026-04-12T05:59:54.999Z</time></trkpt><trkpt lat="43.587884981872186" lon="6.896647002028796"><ele>289.0</ele><time>2026-04-12T05:59:55.999Z</time></trkpt><trkpt lat="43.58779369702753" lon="6.8966391063749635"><ele>289.0</ele><time>2026-04-12T05:59:56.999Z</time></trkpt><trkpt lat="43.58769895565499" lon="6.8966505626949335"><ele>289.0</ele><time>2026-04-12T05:59:57.999Z</time></trkpt><trkpt lat="43.587603219820544" lon="6.896662305817676"><ele>289.0</ele><time>2026-04-12T05:59:58.999Z</time></trkpt><trkpt lat="43.587510955507135" lon="6.896599866742504"><ele>289.0</ele><time>2026-04-12T05:59:59.999Z</time></trkpt><trkpt lat="43.58745045554863" lon="6.896477554733476"><ele>289.0</ele><time>2026-04-12T06:00:00.999Z</time></trkpt><trkpt lat="43.58738116669465" lon="6.896371466212689"><ele>289.0</ele><time>2026-04-12T06:00:01.999Z</time></trkpt><trkpt lat="43.587288426116494" lon="6.896295021813785"><ele>289.0</ele><time>2026-04-12T06:00:02.999Z</time></trkpt><trkpt lat="43.5871776393472" lon="6.896275346013336"><ele>289.0</ele><time>2026-04-12T06:00:03.999Z</time></trkpt><trkpt lat="43.58705956451474" lon="6.896358195857853"><ele>289.0</ele><time>2026-04-12T06:00:04.999Z</time></trkpt><trkpt lat="43.58696299465356" lon="6.896448523868441"><ele>289.0</ele><time>2026-04-12T06:00:05.999Z</time></trkpt><trkpt lat="43.58688113959091" lon="6.896562238266041"><ele>289.0</ele><time>2026-04-12T06:00:06.999Z</time></trkpt><trkpt lat="43.5885351584489" lon="6.897465290673762"><ele>290.2</ele><time>2026-04-12T05:59:37Z</time></trkpt><trkpt lat="43.588592290573764" lon="6.89733661892905"><ele>291.4</ele><time>2026-04-12T05:59:39Z</time></trkpt><trkpt lat="43.588664832469554" lon="6.897217649408451"><ele>292.6</ele><time>2026-04-12T05:59:40.999Z</time></trkpt><trkpt lat="43.58869092936552" lon="6.8971378947552475"><ele>293.8</ele><time>2026-04-12T05:59:41.999Z</time></trkpt><trkpt lat="43.58871145027638" lon="6.896963508314094"><ele>295.0</ele><time>2026-04-12T05:59:43.999Z</time></trkpt><trkpt lat="43.58866324877284" lon="6.896789382056659"><ele>294.0</ele><time>2026-04-12T05:59:45.999Z</time></trkpt><trkpt lat="43.58859299287312" lon="6.89672081465053"><ele>293.0</ele><time>2026-04-12T05:59:46.999Z</time></trkpt><trkpt lat="43.588524230323834" lon="6.896663033157594"><ele>292.0</ele><time>2026-04-12T05:59:47.999Z</time></trkpt><trkpt lat="43.5884688527304" lon="6.896611096657999"><ele>291.0</ele><time>2026-04-12T05:59:48.999Z</time></trkpt><trkpt lat="43.588406379564006" lon="6.8965584256472825"><ele>290.0</ele><time>2026-04-12T05:59:49.999Z</time></trkpt><trkpt lat="43.58832995544224" lon="6.896515256322225"><ele>289.0</ele><time>2026-04-12T05:59:50.999Z</time></trkpt><trkpt lat="43.58824046281013" lon="6.896498701404776"><ele>289.0</ele><time>2026-04-12T05:59:51.999Z</time></trkpt><trkpt lat="43.588144796838854" lon="6.896556086143255"><ele>289.0</ele><time>2026-04-12T05:59:52.999Z</time></trkpt><trkpt lat="43.58805630512228" lon="6.89658961404953"><ele>289.0</ele><time>2026-04-12T05:59:53.999Z</time></trkpt><trkpt lat="43.58797427344694" lon="6.896628070147369"><ele>289.0</ele><time>2026-04-12T05:59:54.999Z</time></trkpt><trkpt lat="43.587884981872186" lon="6.896647002028796"><ele>289.0</ele><time>2026-04-12T05:59:55.999Z</time></trkpt><trkpt lat="43.58779369702753" lon="6.8966391063749635"><ele>289.0</ele><time>2026-04-12T05:59:56.999Z</time></trkpt><trkpt lat="43.58769895565499" lon="6.8966505626949335"><ele>289.0</ele><time>2026-04-12T05:59:57.999Z</time></trkpt><trkpt lat="43.587603219820544" lon="6.896662305817676"><ele>289.0</ele><time>2026-04-12T05:59:58.999Z</time></trkpt><trkpt lat="43.587510955507135" lon="6.896599866742504"><ele>289.0</ele><time>2026-04-12T05:59:59.999Z</time></trkpt><trkpt lat="43.58745045554863" lon="6.896477554733476"><ele>289.0</ele><time>2026-04-12T06:00:00.999Z</time></trkpt><trkpt lat="43.58738116669465" lon="6.896371466212689"><ele>289.0</ele><time>2026-04-12T06:00:01.999Z</time></trkpt><trkpt lat="43.587288426116494" lon="6.896295021813785"><ele>289.0</ele><time>2026-04-12T06:00:02.999Z</time></trkpt><trkpt lat="43.5871776393472" lon="6.896275346013336"><ele>289.0</ele><time>2026-04-12T06:00:03.999Z</time></trkpt><trkpt lat="43.58705956451474" lon="6.896358195857853"><ele>289.0</ele><time>2026-04-12T06:00:04.999Z</time></trkpt><trkpt lat="43.58696299465356" lon="6.896448523868441"><ele>290.5</ele><time>2026-04-12T06:00:05.999Z</time></trkpt><trkpt lat="43.58688113959091" lon="6.896562238266041"><ele>292.0</ele><time>2026-04-12T06:00:06.999Z</time></trkpt><trkpt lat="43.58680565391482" lon="6.896689929643387"><ele>293.5</ele><time>2026-04-12T06:00:07.999Z</time></trkpt><trkpt lat="43.58672176662669" lon="6.896803777652953"><ele>295.0</ele><time>2026-04-12T06:00:08.999Z</time></trkpt><trkpt lat="43.58664411002405" lon="6.896924155612351"><ele>295.0</ele><time>2026-04-12T06:00:09.999Z</time></trkpt><trkpt lat="43.58655884554967" lon="6.897031408240144"><ele>295.0</ele><time>2026-04-12T06:00:10.999Z</time></trkpt><trkpt lat="43.58646371519708" lon="6.897127823269663"><ele>295.0</ele><time>2026-04-12T06:00:11.999Z</time></trkpt><trkpt lat="43.58636874606276" lon="6.8972316734135894"><ele>295.0</ele><time>2026-04-12T06:00:12.999Z</time></trkpt><trkpt lat="43.58625504039867" lon="6.897294164832163"><ele>293.25</ele><time>2026-04-12T06:00:13.999Z</time></trkpt><trkpt lat="43.58616320174354" lon="6.897416065853234"><ele>291.5</ele><time>2026-04-12T06:00:14.999Z</time></trkpt><trkpt lat="43.58606960583183" lon="6.8975214275848264"><ele>289.75</ele><time>2026-04-12T06:00:15.999Z</time></trkpt><trkpt lat="43.586006245449525" lon="6.897677616677101"><ele>288.0</ele><time>2026-04-12T06:00:16.999Z</time></trkpt><trkpt lat="43.58598650035869" lon="6.897861415156456"><ele>288.0</ele><time>2026-04-12T06:00:17.999Z</time></trkpt><trkpt lat="43.585936302363834" lon="6.898009883701051"><ele>288.0</ele><time>2026-04-12T06:00:18.999Z</time></trkpt><trkpt lat="43.58578222190013" lon="6.898015596663911"><ele>288.0</ele><time>2026-04-12T06:00:19.999Z</time></trkpt><trkpt lat="43.58567788254193" lon="6.898115400851133"><ele>288.0</ele><time>2026-04-12T06:00:20.999Z</time></trkpt><trkpt lat="43.5855992903106" lon="6.898262723012466"><ele>288.0</ele><time>2026-04-12T06:00:21.999Z</time></trkpt><trkpt lat="43.58553866235444" lon="6.898413811385611"><ele>288.0</ele><time>2026-04-12T06:00:22.999Z</time></trkpt><trkpt lat="43.58545215710879" lon="6.8985127648456075"><ele>288.0</ele><time>2026-04-12T06:00:23.999Z</time></trkpt><trkpt lat="43.58532752031487" lon="6.898490195122983"><ele>288.0</ele><time>2026-04-12T06:00:24.999Z</time></trkpt><trkpt lat="43.58522366905039" lon="6.898449682732744"><ele>285.0</ele><time>2026-04-12T06:00:25.999Z</time></trkpt><trkpt lat="43.58511772668597" lon="6.8983404900347"><ele>282.0</ele><time>2026-04-12T06:00:26.999Z</time></trkpt><trkpt lat="43.58503268905364" lon="6.898210626638438"><ele>279.0</ele><time>2026-04-12T06:00:27.999Z</time></trkpt><trkpt lat="43.585032158825335" lon="6.898035490350219"><ele>276.0</ele><time>2026-04-12T06:00:28.999Z</time></trkpt><trkpt lat="43.58513510738763" lon="6.8979080614181525"><ele>276.0</ele><time>2026-04-12T06:00:29.999Z</time></trkpt><trkpt lat="43.58519035882627" lon="6.8977637157759935"><ele>276.0</ele><time>2026-04-12T06:00:30.999Z</time></trkpt><trkpt lat="43.58522022272571" lon="6.897619865102773"><ele>276.0</ele><time>2026-04-12T06:00:31.999Z</time></trkpt><trkpt lat="43.585208615654" lon="6.897470906977729"><ele>276.0</ele><time>2026-04-12T06:00:32.999Z</time></trkpt><trkpt lat="43.585208004073465" lon="6.897329496480241"><ele>276.0</ele><time>2026-04-12T06:00:33.999Z</time></trkpt><trkpt lat="43.58528141911535" lon="6.897231490596735"><ele>277.40000000000003</ele><time>2026-04-12T06:00:34.999Z</time></trkpt><trkpt lat="43.585321493992765" lon="6.897111699877299"><ele>278.8</ele><time>2026-04-12T06:00:35.999Z</time></trkpt><trkpt lat="43.58532686571173" lon="6.896972438690975"><ele>280.20000000000005</ele><time>2026-04-12T06:00:36.999Z</time></trkpt><trkpt lat="43.5853227681483" lon="6.896843381344991"><ele>281.6</ele><time>2026-04-12T06:00:37.999Z</time></trkpt><trkpt lat="43.585323473176146" lon="6.896716844837802"><ele>283.0</ele><time>2026-04-12T06:00:38.999Z</time></trkpt><trkpt lat="43.5853552008904" lon="6.896595683095106"><ele>278.6</ele><time>2026-04-12T06:00:40Z</time></trkpt><trkpt lat="43.585439591862" lon="6.896511580928828"><ele>274.20000000000005</ele><time>2026-04-12T06:00:41Z</time></trkpt><trkpt lat="43.58548066534572" lon="6.896404703669884"><ele>269.8</ele><time>2026-04-12T06:00:42Z</time></trkpt><trkpt lat="43.585506028547506" lon="6.896275949635884"><ele>265.40000000000003</ele><time>2026-04-12T06:00:43Z</time></trkpt><trkpt lat="43.58547685025683" lon="6.8961441044010545"><ele>261.0</ele><time>2026-04-12T06:00:44Z</time></trkpt><trkpt lat="43.58544459100896" lon="6.896026297851629"><ele>261.0</ele><time>2026-04-12T06:00:45Z</time></trkpt><trkpt lat="43.58538878128698" lon="6.895931135767734"><ele>261.0</ele><time>2026-04-12T06:00:46Z</time></trkpt><trkpt lat="43.58533685654071" lon="6.895845604695514"><ele>261.0</ele><time>2026-04-12T06:00:47Z</time></trkpt><trkpt lat="43.58531001618528" lon="6.895746010939534"><ele>261.0</ele><time>2026-04-12T06:00:48Z</time></trkpt><trkpt lat="43.585323864095486" lon="6.8956331514838896"><ele>261.0</ele><time>2026-04-12T06:00:49Z</time></trkpt><trkpt lat="43.58537298504794" lon="6.895540500834159"><ele>261.0</ele><time>2026-04-12T06:00:50Z</time></trkpt><trkpt lat="43.5854554212713" lon="6.895511790443118"><ele>261.6666666666667</ele><time>2026-04-12T06:00:51Z</time></trkpt><trkpt lat="43.58552070532716" lon="6.895454419022667"><ele>262.3333333333333</ele><time>2026-04-12T06:00:52Z</time></trkpt><trkpt lat="43.58557961624113" lon="6.89539423549814"><ele>263.0</ele><time>2026-04-12T06:00:53Z</time></trkpt><trkpt lat="43.585638316437645" lon="6.895321495314309"><ele>263.66666666666663</ele><time>2026-04-12T06:00:54Z</time></trkpt><trkpt lat="43.585685759690904" lon="6.895229704868664"><ele>264.3333333333333</ele><time>2026-04-12T06:00:55Z</time></trkpt><trkpt lat="43.58572529123956" lon="6.895124955614458"><ele>265.0</ele><time>2026-04-12T06:00:56Z</time></trkpt><trkpt lat="43.5857301431707" lon="6.8950005533172085"><ele>267.3333333333333</ele><time>2026-04-12T06:00:57Z</time></trkpt><trkpt lat="43.58575645458112" lon="6.894896374147101"><ele>269.66666666666663</ele><time>2026-04-12T06:00:58Z</time></trkpt><trkpt lat="43.5857824762032" lon="6.894792715020301"><ele>272.0</ele><time>2026-04-12T06:00:59Z</time></trkpt><trkpt lat="43.58582147245313" lon="6.894694959414421"><ele>274.3333333333333</ele><time>2026-04-12T06:01:00Z</time></trkpt><trkpt lat="43.58588539611674" lon="6.894621182481194"><ele>276.6666666666667</ele><time>2026-04-12T06:01:01Z</time></trkpt><trkpt lat="43.58592819207979" lon="6.894524790735299"><ele>279.0</ele><time>2026-04-12T06:01:02Z</time></trkpt><trkpt lat="43.585948021759506" lon="6.89440244930445"><ele>279.0</ele><time>2026-04-12T06:01:03Z</time></trkpt><trkpt lat="43.58592686062014" lon="6.89427974486583"><ele>279.0</ele><time>2026-04-12T06:01:04Z</time></trkpt><trkpt lat="43.58590442309113" lon="6.894168077731015"><ele>279.0</ele><time>2026-04-12T06:01:05Z</time></trkpt><trkpt lat="43.58585847861403" lon="6.894068892367629"><ele>279.0</ele><time>2026-04-12T06:01:06Z</time></trkpt><trkpt lat="43.58580079227496" lon="6.893987364955468"><ele>279.0</ele><time>2026-04-12T06:01:07Z</time></trkpt><trkpt lat="43.58574092363476" lon="6.893917363427513"><ele>279.0</ele><time>2026-04-12T06:01:08Z</time></trkpt><trkpt lat="43.585689084549315" lon="6.893831275526709"><ele>278.99999999999994</ele><time>2026-04-12T06:01:09Z</time></trkpt><trkpt lat="43.585611681077026" lon="6.893794531903357"><ele>279.0</ele><time>2026-04-12T06:01:10Z</time></trkpt><trkpt lat="43.585544373185094" lon="6.893749631922788"><ele>279.0</ele><time>2026-04-12T06:01:11Z</time></trkpt><trkpt lat="43.58547509072804" lon="6.893708155531019"><ele>279.0</ele><time>2026-04-12T06:01:12Z</time></trkpt><trkpt lat="43.585408819565686" lon="6.893667899412116"><ele>279.0</ele><time>2026-04-12T06:01:13Z</time></trkpt><trkpt lat="43.585341658168865" lon="6.893634244257944"><ele>278.99999999999994</ele><time>2026-04-12T06:01:14Z</time></trkpt><trkpt lat="43.585275044396944" lon="6.893600494737105"><ele>279.0</ele><time>2026-04-12T06:01:15Z</time></trkpt><trkpt lat="43.58520662521425" lon="6.893560405462593"><ele>282.1428571428571</ele><time>2026-04-12T06:01:16Z</time></trkpt><trkpt lat="43.58514047925712" lon="6.893519391424342"><ele>285.2857142857143</ele><time>2026-04-12T06:01:17Z</time></trkpt><trkpt lat="43.58509085279632" lon="6.8934519662003675"><ele>288.42857142857144</ele><time>2026-04-12T06:01:18Z</time></trkpt><trkpt lat="43.58507262523067" lon="6.893346330751237"><ele>291.57142857142856</ele><time>2026-04-12T06:01:19Z</time></trkpt><trkpt lat="43.585087434644024" lon="6.893236854839161"><ele>294.7142857142857</ele><time>2026-04-12T06:01:20Z</time></trkpt><trkpt lat="43.58511116862632" lon="6.893142435379283"><ele>297.85714285714283</ele><time>2026-04-12T06:01:21Z</time></trkpt><trkpt lat="43.585158135342986" lon="6.893070874096687"><ele>301.0</ele><time>2026-04-12T06:01:22Z</time></trkpt><trkpt lat="43.585221858879635" lon="6.893029426648035"><ele>301.0</ele><time>2026-04-12T06:01:23Z</time></trkpt><trkpt lat="43.58529325764866" lon="6.893056829852287"><ele>301.0</ele><time>2026-04-12T06:01:24Z</time></trkpt><trkpt lat="43.585355635214334" lon="6.893037839474217"><ele>301.0</ele><time>2026-04-12T06:01:25Z</time></trkpt><trkpt lat="43.58541981811395" lon="6.893017063714795"><ele>301.0</ele><time>2026-04-12T06:01:26Z</time></trkpt><trkpt lat="43.58548498286832" lon="6.892984029813343"><ele>301.0</ele><time>2026-04-12T06:01:27Z</time></trkpt><trkpt lat="43.585545191647036" lon="6.892934605947897"><ele>301.0</ele><time>2026-04-12T06:01:28Z</time></trkpt><trkpt lat="43.58558746977957" lon="6.892853605841392"><ele>301.0</ele><time>2026-04-12T06:01:29Z</time></trkpt><trkpt lat="43.58563780650841" lon="6.89279727233388"><ele>298.5</ele><time>2026-04-12T06:01:30Z</time></trkpt><trkpt lat="43.585686133918244" lon="6.8927406216700655"><ele>296.0</ele><time>2026-04-12T06:01:31Z</time></trkpt><trkpt lat="43.585742822338865" lon="6.8926963737075715"><ele>293.5</ele><time>2026-04-12T06:01:32Z</time></trkpt><trkpt lat="43.58581957512633" lon="6.892714863129018"><ele>291.0</ele><time>2026-04-12T06:01:33Z</time></trkpt><trkpt lat="43.58588239274247" lon="6.8926684710655355"><ele>288.5</ele><time>2026-04-12T06:01:34Z</time></trkpt><trkpt lat="43.58593057481731" lon="6.892575615424607"><ele>286.0</ele><time>2026-04-12T06:01:35Z</time></trkpt><trkpt lat="43.58592718789188" lon="6.892443271249221"><ele>285.99999999999994</ele><time>2026-04-12T06:01:36Z</time></trkpt><trkpt lat="43.585904491706465" lon="6.892342065904664"><ele>286.0</ele><time>2026-04-12T06:01:37Z</time></trkpt><trkpt lat="43.58588582429583" lon="6.892255578383377"><ele>286.0</ele><time>2026-04-12T06:01:38Z</time></trkpt><trkpt lat="43.58585248897397" lon="6.892177073967965"><ele>286.0</ele><time>2026-04-12T06:01:39Z</time></trkpt><trkpt lat="43.58581641530176" lon="6.89209807004298"><ele>286.0</ele><time>2026-04-12T06:01:40Z</time></trkpt><trkpt lat="43.58578495438503" lon="6.892021211931399"><ele>285.99999999999994</ele><time>2026-04-12T06:01:41Z</time></trkpt><trkpt lat="43.58575338738929" lon="6.8919408602252155"><ele>286.0</ele><time>2026-04-12T06:01:42Z</time></trkpt><trkpt lat="43.5857189293156" lon="6.891854875937346"><ele>285.99999999999994</ele><time>2026-04-12T06:01:43Z</time></trkpt><trkpt lat="43.58569383792985" lon="6.891764655623254"><ele>286.0</ele><time>2026-04-12T06:01:44Z</time></trkpt><trkpt lat="43.58568795386202" lon="6.891665802348703"><ele>286.0</ele><time>2026-04-12T06:01:45Z</time></trkpt><trkpt lat="43.58570728507518" lon="6.891562909858737"><ele>286.0</ele><time>2026-04-12T06:01:46Z</time></trkpt><trkpt lat="43.5856886458104" lon="6.891470700773041"><ele>286.0</ele><time>2026-04-12T06:01:46.999Z</time></trkpt><trkpt lat="43.585674748886504" lon="6.89137510317837"><ele>285.99999999999994</ele><time>2026-04-12T06:01:47.999Z</time></trkpt><trkpt lat="43.58564661821264" lon="6.891286969984108"><ele>286.0</ele><time>2026-04-12T06:01:48.999Z</time></trkpt><trkpt lat="43.58560617815024" lon="6.891206515973473"><ele>285.85714285714283</ele><time>2026-04-12T06:01:49.999Z</time></trkpt><trkpt lat="43.58556093332424" lon="6.891138230189453"><ele>285.7142857142857</ele><time>2026-04-12T06:01:50.999Z</time></trkpt><trkpt lat="43.58551121214972" lon="6.891074557147725"><ele>285.57142857142856</ele><time>2026-04-12T06:01:51.999Z</time></trkpt><trkpt lat="43.58546058609382" lon="6.891010337274775"><ele>285.42857142857144</ele><time>2026-04-12T06:01:52.999Z</time></trkpt><trkpt lat="43.58540490060314" lon="6.890949386997082"><ele>285.2857142857143</ele><time>2026-04-12T06:01:53.999Z</time></trkpt><trkpt lat="43.58535127106586" lon="6.890888993330873"><ele>285.1428571428571</ele><time>2026-04-12T06:01:54.999Z</time></trkpt><trkpt lat="43.585296092267384" lon="6.890822426489275"><ele>285.0</ele><time>2026-04-12T06:01:55.999Z</time></trkpt><trkpt lat="43.585248814551235" lon="6.890747899287786"><ele>289.2857142857143</ele><time>2026-04-12T06:01:56.999Z</time></trkpt><trkpt lat="43.58519817827072" lon="6.890666452416639"><ele>293.57142857142856</ele><time>2026-04-12T06:01:57.999Z</time></trkpt><trkpt lat="43.585164718958765" lon="6.890569642849982"><ele>297.8571428571429</ele><time>2026-04-12T06:01:58.999Z</time></trkpt><trkpt lat="43.585116931146544" lon="6.890492180421192"><ele>302.1428571428571</ele><time>2026-04-12T06:01:59.999Z</time></trkpt><trkpt lat="43.585054667122904" lon="6.8904400403429795"><ele>306.42857142857144</ele><time>2026-04-12T06:02:00.999Z</time></trkpt><trkpt lat="43.585001375598175" lon="6.8903718773864"><ele>310.7142857142857</ele><time>2026-04-12T06:02:01.999Z</time></trkpt><trkpt lat="43.58495817196584" lon="6.8902894449136"><ele>315.0</ele><time>2026-04-12T06:02:02.999Z</time></trkpt><trkpt lat="43.584939575906645" lon="6.890189631973546"><ele>313.5</ele><time>2026-04-12T06:02:03.999Z</time></trkpt><trkpt lat="43.58493114846462" lon="6.890077885089643"><ele>312.0</ele><time>2026-04-12T06:02:04.999Z</time></trkpt><trkpt lat="43.58494284375" lon="6.889976937598491"><ele>310.5</ele><time>2026-04-12T06:02:05.999Z</time></trkpt><trkpt lat="43.584958466841805" lon="6.889874128355378"><ele>309.0</ele><time>2026-04-12T06:02:06.999Z</time></trkpt><trkpt lat="43.5849857336889" lon="6.889769529581043"><ele>307.5</ele><time>2026-04-12T06:02:07.999Z</time></trkpt><trkpt lat="43.585017978397275" lon="6.88966860579953"><ele>306.0</ele><time>2026-04-12T06:02:08.999Z</time></trkpt><trkpt lat="43.58504605227285" lon="6.889568146534346"><ele>306.0</ele><time>2026-04-12T06:02:09.999Z</time></trkpt><trkpt lat="43.58505461334868" lon="6.889463978564322"><ele>306.0</ele><time>2026-04-12T06:02:10.999Z</time></trkpt><trkpt lat="43.585045646685" lon="6.889350924454739"><ele>306.0</ele><time>2026-04-12T06:02:11.999Z</time></trkpt><trkpt lat="43.58501532809722" lon="6.889245042009364"><ele>306.0</ele><time>2026-04-12T06:02:12.999Z</time></trkpt><trkpt lat="43.58497105569204" lon="6.889140582222386"><ele>306.0</ele><time>2026-04-12T06:02:13.999Z</time></trkpt><trkpt lat="43.58487933942452" lon="6.88909102390481"><ele>306.0</ele><time>2026-04-12T06:02:14.999Z</time></trkpt><trkpt lat="43.58481125801634" lon="6.889026601303964"><ele>304.8333333333333</ele><time>2026-04-12T06:02:15.999Z</time></trkpt><trkpt lat="43.58476068792436" lon="6.888931725373487"><ele>303.6666666666667</ele><time>2026-04-12T06:02:16.999Z</time></trkpt><trkpt lat="43.58473438519961" lon="6.888814934372443"><ele>302.5</ele><time>2026-04-12T06:02:17.999Z</time></trkpt><trkpt lat="43.584728605078205" lon="6.88869188822739"><ele>301.33333333333337</ele><time>2026-04-12T06:02:18.999Z</time></trkpt><trkpt lat="43.584730642129855" lon="6.888572412456749"><ele>300.1666666666667</ele><time>2026-04-12T06:02:19.999Z</time></trkpt><trkpt lat="43.58474531223569" lon="6.888456110978485"><ele>299.0</ele><time>2026-04-12T06:02:20.999Z</time></trkpt><trkpt lat="43.584775711302086" lon="6.8883450082122"><ele>297.59999999999997</ele><time>2026-04-12T06:02:21.999Z</time></trkpt><trkpt lat="43.58480023826874" lon="6.888234036921564"><ele>296.2</ele><time>2026-04-12T06:02:22.999Z</time></trkpt><trkpt lat="43.584821807444285" lon="6.888114813793968"><ele>294.79999999999995</ele><time>2026-04-12T06:02:23.999Z</time></trkpt><trkpt lat="43.584845544193605" lon="6.887993382930879"><ele>293.4</ele><time>2026-04-12T06:02:24.999Z</time></trkpt><trkpt lat="43.58487762406982" lon="6.887871887563543"><ele>292.0</ele><time>2026-04-12T06:02:25.999Z</time></trkpt><trkpt lat="43.584916484096865" lon="6.887752586028235"><ele>292.0</ele><time>2026-04-12T06:02:26.999Z</time></trkpt><trkpt lat="43.584955981077734" lon="6.887636480888283"><ele>292.0</ele><time>2026-04-12T06:02:27.999Z</time></trkpt><trkpt lat="43.58498101130356" lon="6.887517975501503"><ele>292.0</ele><time>2026-04-12T06:02:28.999Z</time></trkpt><trkpt lat="43.58498170731995" lon="6.88738887948029"><ele>292.0</ele><time>2026-04-12T06:02:29.999Z</time></trkpt><trkpt lat="43.58496423281478" lon="6.887262022712316"><ele>292.0</ele><time>2026-04-12T06:02:30.999Z</time></trkpt><trkpt lat="43.58493062230635" lon="6.887143224268423"><ele>292.2</ele><time>2026-04-12T06:02:31.999Z</time></trkpt><trkpt lat="43.58487052181358" lon="6.887042608280542"><ele>292.4</ele><time>2026-04-12T06:02:32.999Z</time></trkpt><trkpt lat="43.58480203284901" lon="6.8869584786085065"><ele>292.6</ele><time>2026-04-12T06:02:33.999Z</time></trkpt><trkpt lat="43.58473424254794" lon="6.886871589249206"><ele>292.8</ele><time>2026-04-12T06:02:34.999Z</time></trkpt><trkpt lat="43.58467450988894" lon="6.8867777979009315"><ele>293.0</ele><time>2026-04-12T06:02:35.999Z</time></trkpt><trkpt lat="43.58462540452838" lon="6.88667064903472"><ele>293.83333333333337</ele><time>2026-04-12T06:02:36.999Z</time></trkpt><trkpt lat="43.58462319253476" lon="6.8865548230799485"><ele>294.6666666666667</ele><time>2026-04-12T06:02:37.999Z</time></trkpt><trkpt lat="43.58465834921359" lon="6.886446612861475"><ele>295.5</ele><time>2026-04-12T06:02:38.999Z</time></trkpt><trkpt lat="43.58470640276638" lon="6.88637152544601"><ele>296.3333333333333</ele><time>2026-04-12T06:02:39.999Z</time></trkpt><trkpt lat="43.58477314987581" lon="6.88632400096198"><ele>297.16666666666663</ele><time>2026-04-12T06:02:40.999Z</time></trkpt><trkpt lat="43.58485121306692" lon="6.886336608514022"><ele>298.0</ele><time>2026-04-12T06:02:41.999Z</time></trkpt><trkpt lat="43.58491485583929" lon="6.886318482498798"><ele>298.0</ele><time>2026-04-12T06:02:42.999Z</time></trkpt><trkpt lat="43.58503390289633" lon="6.886285137774784"><ele>298.0</ele><time>2026-04-12T06:02:44.999Z</time></trkpt><trkpt lat="43.58514713828619" lon="6.88622697022742"><ele>298.0</ele><time>2026-04-12T06:02:47Z</time></trkpt><trkpt lat="43.5852688281509" lon="6.886192761038483"><ele>298.0</ele><time>2026-04-12T06:02:49Z</time></trkpt><trkpt lat="43.5853873365291" lon="6.886155373440098"><ele>300.6</ele><time>2026-04-12T06:02:51Z</time></trkpt><trkpt lat="43.58551160205101" lon="6.886128575965942"><ele>303.20000000000005</ele><time>2026-04-12T06:02:53Z</time></trkpt><trkpt lat="43.58557226940584" lon="6.886099103516041"><ele>305.8</ele><time>2026-04-12T06:02:54Z</time></trkpt><trkpt lat="43.58568513143968" lon="6.8860245336119625"><ele>308.40000000000003</ele><time>2026-04-12T06:02:56Z</time></trkpt><trkpt lat="43.585782442346655" lon="6.885925053810282"><ele>311.0</ele><time>2026-04-12T06:02:58Z</time></trkpt><trkpt lat="43.5858937500056" lon="6.885845613770255"><ele>311.0</ele><time>2026-04-12T06:03:00Z</time></trkpt><trkpt lat="43.585962538880835" lon="6.8858398151201525"><ele>311.0</ele><time>2026-04-12T06:03:01Z</time></trkpt><trkpt lat="43.58602083822624" lon="6.885802155991052"><ele>311.0</ele><time>2026-04-12T06:03:02Z</time></trkpt><trkpt lat="43.58607877610665" lon="6.885755420460302"><ele>311.0</ele><time>2026-04-12T06:03:03Z</time></trkpt><trkpt lat="43.58613337405452" lon="6.885694850277162"><ele>311.0</ele><time>2026-04-12T06:03:04Z</time></trkpt><trkpt lat="43.58615198986014" lon="6.885584373020164"><ele>311.0</ele><time>2026-04-12T06:03:05Z</time></trkpt><trkpt lat="43.586189084030124" lon="6.885508298984033"><ele>311.0</ele><time>2026-04-12T06:03:06Z</time></trkpt><trkpt lat="43.58621719578289" lon="6.885429526236919"><ele>312.8</ele><time>2026-04-12T06:03:07Z</time></trkpt><trkpt lat="43.58628359249163" lon="6.885277912278161"><ele>314.6</ele><time>2026-04-12T06:03:09Z</time></trkpt><trkpt lat="43.58632368746817" lon="6.885206963438754"><ele>316.4</ele><time>2026-04-12T06:03:10Z</time></trkpt><trkpt lat="43.586372671110034" lon="6.88514370643203"><ele>318.2</ele><time>2026-04-12T06:03:11Z</time></trkpt><trkpt lat="43.58646568948473" lon="6.8850307277443985"><ele>320.0</ele><time>2026-04-12T06:03:13Z</time></trkpt><trkpt lat="43.58655818677007" lon="6.884926324102892"><ele>320.0</ele><time>2026-04-12T06:03:15Z</time></trkpt><trkpt lat="43.58666732562537" lon="6.884851881948989"><ele>320.0</ele><time>2026-04-12T06:03:17Z</time></trkpt><trkpt lat="43.58678501136977" lon="6.884821591219973"><ele>320.0</ele><time>2026-04-12T06:03:19Z</time></trkpt><trkpt lat="43.586906633233895" lon="6.884808363184363"><ele>320.0</ele><time>2026-04-12T06:03:21Z</time></trkpt><trkpt lat="43.58702368039919" lon="6.884765421533791"><ele>315.25</ele><time>2026-04-12T06:03:23Z</time></trkpt><trkpt lat="43.58713418567264" lon="6.884690094526233"><ele>310.5</ele><time>2026-04-12T06:03:25Z</time></trkpt><trkpt lat="43.58722965710859" lon="6.884601399023327"><ele>305.75</ele><time>2026-04-12T06:03:27Z</time></trkpt><trkpt lat="43.58733373594671" lon="6.884527243857867"><ele>301.0</ele><time>2026-04-12T06:03:29Z</time></trkpt><trkpt lat="43.58743165529108" lon="6.884441985983902"><ele>301.0</ele><time>2026-04-12T06:03:31Z</time></trkpt><trkpt lat="43.58752602955966" lon="6.884345389910595"><ele>301.0</ele><time>2026-04-12T06:03:33Z</time></trkpt><trkpt lat="43.58760943586264" lon="6.8842275931455825"><ele>301.0</ele><time>2026-04-12T06:03:35Z</time></trkpt><trkpt lat="43.58767767695227" lon="6.8841018488944785"><ele>301.0</ele><time>2026-04-12T06:03:37Z</time></trkpt><trkpt lat="43.58774077359189" lon="6.8839721756356065"><ele>300.2</ele><time>2026-04-12T06:03:39Z</time></trkpt><trkpt lat="43.58778721662006" lon="6.8838347349923135"><ele>299.40000000000003</ele><time>2026-04-12T06:03:41Z</time></trkpt><trkpt lat="43.58783674521028" lon="6.883699137990289"><ele>298.6</ele><time>2026-04-12T06:03:43Z</time></trkpt><trkpt lat="43.587893955636915" lon="6.883575926555668"><ele>297.8</ele><time>2026-04-12T06:03:45Z</time></trkpt><trkpt lat="43.58796000708348" lon="6.883463849104348"><ele>297.0</ele><time>2026-04-12T06:03:47Z</time></trkpt><trkpt lat="43.58801142582803" lon="6.883345746539182"><ele>300.2</ele><time>2026-04-12T06:03:49Z</time></trkpt><trkpt lat="43.58808223423678" lon="6.883228169252758"><ele>303.4</ele><time>2026-04-12T06:03:51Z</time></trkpt><trkpt lat="43.58806234259094" lon="6.883070203166022"><ele>306.6</ele><time>2026-04-12T06:03:52.999Z</time></trkpt><trkpt lat="43.58804884024297" lon="6.882941259537343"><ele>309.8</ele><time>2026-04-12T06:03:54.999Z</time></trkpt><trkpt lat="43.58801795974932" lon="6.882812803543387"><ele>313.0</ele><time>2026-04-12T06:03:56.999Z</time></trkpt><trkpt lat="43.58795955367033" lon="6.8827033914550615"><ele>313.0</ele><time>2026-04-12T06:03:58.999Z</time></trkpt><trkpt lat="43.58790164724026" lon="6.882610258138289"><ele>313.0</ele><time>2026-04-12T06:04:00.999Z</time></trkpt><trkpt lat="43.58784139023865" lon="6.8825211916028675"><ele>313.0</ele><time>2026-04-12T06:04:02.999Z</time></trkpt><trkpt lat="43.58777471040872" lon="6.882451457933126"><ele>313.0</ele><time>2026-04-12T06:04:04.999Z</time></trkpt><trkpt lat="43.58770263008039" lon="6.882397407252996"><ele>313.0</ele><time>2026-04-12T06:04:06.999Z</time></trkpt><trkpt lat="43.58763512127412" lon="6.882327745817534"><ele>313.0</ele><time>2026-04-12T06:04:08.999Z</time></trkpt><trkpt lat="43.587585626726565" lon="6.882259133287507"><ele>318.8</ele><time>2026-04-12T06:04:10.999Z</time></trkpt><trkpt lat="43.58753867777874" lon="6.882160627219296"><ele>324.6</ele><time>2026-04-12T06:04:12.999Z</time></trkpt><trkpt lat="43.58749382572895" lon="6.882057980026105"><ele>330.40000000000003</ele><time>2026-04-12T06:04:14.999Z</time></trkpt><trkpt lat="43.587456632666445" lon="6.881938754274657"><ele>336.20000000000005</ele><time>2026-04-12T06:04:16.999Z</time></trkpt><trkpt lat="43.587412125069264" lon="6.881804362122061"><ele>342.0</ele><time>2026-04-12T06:04:18.999Z</time></trkpt><trkpt lat="43.587386631927785" lon="6.881686184142653"><ele>342.0</ele><time>2026-04-12T06:04:20.999Z</time></trkpt><trkpt lat="43.5873534121962" lon="6.881572944897605"><ele>342.0</ele><time>2026-04-12T06:04:22.999Z</time></trkpt><trkpt lat="43.58732476306393" lon="6.881455768556279"><ele>342.0</ele><time>2026-04-12T06:04:24.999Z</time></trkpt><trkpt lat="43.58730840507342" lon="6.881336643672024"><ele>342.0</ele><time>2026-04-12T06:04:26.999Z</time></trkpt><trkpt lat="43.58732088696819" lon="6.881216053641197"><ele>342.0</ele><time>2026-04-12T06:04:28.999Z</time></trkpt><trkpt lat="43.58736220826005" lon="6.881101946323598"><ele>342.0</ele><time>2026-04-12T06:04:30.999Z</time></trkpt><trkpt lat="43.58742463528856" lon="6.881027135378518"><ele>342.0</ele><time>2026-04-12T06:04:32.999Z</time></trkpt><trkpt lat="43.58749928487074" lon="6.880977032777609"><ele>342.0</ele><time>2026-04-12T06:04:34.999Z</time></trkpt><trkpt lat="43.58757109378523" lon="6.880925188455553"><ele>342.0</ele><time>2026-04-12T06:04:36.999Z</time></trkpt><trkpt lat="43.5876426911471" lon="6.880878451575405"><ele>342.0</ele><time>2026-04-12T06:04:38.999Z</time></trkpt><trkpt lat="43.587713484692244" lon="6.880829284491479"><ele>342.0</ele><time>2026-04-12T06:04:40.999Z</time></trkpt><trkpt lat="43.58778344514223" lon="6.880780718226169"><ele>342.0</ele><time>2026-04-12T06:04:42.999Z</time></trkpt><trkpt lat="43.58784907100364" lon="6.880728181016906"><ele>340.8333333333333</ele><time>2026-04-12T06:04:44.999Z</time></trkpt><trkpt lat="43.587913880166816" lon="6.88067066129417"><ele>339.6666666666667</ele><time>2026-04-12T06:04:46.999Z</time></trkpt><trkpt lat="43.587981559411006" lon="6.880626098230004"><ele>338.5</ele><time>2026-04-12T06:04:48.999Z</time></trkpt><trkpt lat="43.58804897994268" lon="6.88057104154645"><ele>337.33333333333337</ele><time>2026-04-12T06:04:50.999Z</time></trkpt><trkpt lat="43.58811833057571" lon="6.880525842818113"><ele>336.1666666666667</ele><time>2026-04-12T06:04:53Z</time></trkpt><trkpt lat="43.58819007840305" lon="6.880475335336352"><ele>335.0</ele><time>2026-04-12T06:04:55Z</time></trkpt><trkpt lat="43.58825759949239" lon="6.880424912216596"><ele>335.0</ele><time>2026-04-12T06:04:57Z</time></trkpt><trkpt lat="43.58833038548636" lon="6.880395386727149"><ele>335.0</ele><time>2026-04-12T06:04:59Z</time></trkpt><trkpt lat="43.58840091343934" lon="6.880352722510804"><ele>335.0</ele><time>2026-04-12T06:05:01Z</time></trkpt><trkpt lat="43.588474277321446" lon="6.880308172629807"><ele>335.0</ele><time>2026-04-12T06:05:03Z</time></trkpt><trkpt lat="43.58855216313209" lon="6.880249545016499"><ele>335.0</ele><time>2026-04-12T06:05:05Z</time></trkpt><trkpt lat="43.58860936337718" lon="6.880194765222973"><ele>335.0</ele><time>2026-04-12T06:05:07Z</time></trkpt><trkpt lat="43.588659443809384" lon="6.880130214800511"><ele>336.8</ele><time>2026-04-12T06:05:09Z</time></trkpt><trkpt lat="43.588720685243715" lon="6.880041672657675"><ele>338.6</ele><time>2026-04-12T06:05:11Z</time></trkpt><trkpt lat="43.58877733810211" lon="6.8799786265501615"><ele>340.4</ele><time>2026-04-12T06:05:13Z</time></trkpt><trkpt lat="43.588848336486485" lon="6.8799011570863575"><ele>342.2</ele><time>2026-04-12T06:05:15Z</time></trkpt><trkpt lat="43.58892479902187" lon="6.879810085027506"><ele>344.0</ele><time>2026-04-12T06:05:18Z</time></trkpt><trkpt lat="43.58898764449813" lon="6.879708346722069"><ele>344.0</ele><time>2026-04-12T06:05:20Z</time></trkpt><trkpt lat="43.58902428055701" lon="6.879625933398345"><ele>344.0</ele><time>2026-04-12T06:05:22Z</time></trkpt><trkpt lat="43.58909058918023" lon="6.879427148056024"><ele>344.0</ele><time>2026-04-12T06:05:25Z</time></trkpt><trkpt lat="43.589081978255756" lon="6.879306754346297"><ele>344.0</ele><time>2026-04-12T06:05:27Z</time></trkpt><trkpt lat="43.58905239226895" lon="6.879194535551363"><ele>344.0</ele><time>2026-04-12T06:05:29Z</time></trkpt><trkpt lat="43.58901228650041" lon="6.879090005617647"><ele>346.0</ele><time>2026-04-12T06:05:31Z</time></trkpt><trkpt lat="43.588964111821156" lon="6.878993215672518"><ele>348.0</ele><time>2026-04-12T06:05:33Z</time></trkpt><trkpt lat="43.58888984741341" lon="6.878900495458597"><ele>350.0</ele><time>2026-04-12T06:05:35Z</time></trkpt><trkpt lat="43.588837846624756" lon="6.878810142593955"><ele>352.0</ele><time>2026-04-12T06:05:37Z</time></trkpt><trkpt lat="43.58879330243668" lon="6.8787111096810944"><ele>354.0</ele><time>2026-04-12T06:05:39Z</time></trkpt><trkpt lat="43.588752889293396" lon="6.878620831878531"><ele>356.0</ele><time>2026-04-12T06:05:41Z</time></trkpt><trkpt lat="43.58873178126606" lon="6.878525283991506"><ele>356.83333333333337</ele><time>2026-04-12T06:05:43Z</time></trkpt><trkpt lat="43.5887427104742" lon="6.878417655430461"><ele>357.6666666666667</ele><time>2026-04-12T06:05:45Z</time></trkpt><trkpt lat="43.58880588220756" lon="6.878323874499546"><ele>358.5</ele><time>2026-04-12T06:05:47Z</time></trkpt><trkpt lat="43.58885033124576" lon="6.878222177239771"><ele>359.3333333333333</ele><time>2026-04-12T06:05:49Z</time></trkpt><trkpt lat="43.588911743866674" lon="6.878145500912626"><ele>360.16666666666663</ele><time>2026-04-12T06:05:51Z</time></trkpt><trkpt lat="43.58898044747151" lon="6.878068224154379"><ele>361.0</ele><time>2026-04-12T06:05:53Z</time></trkpt><trkpt lat="43.58905777013663" lon="6.877955005411281"><ele>361.0</ele><time>2026-04-12T06:05:56Z</time></trkpt><trkpt lat="43.58911528144996" lon="6.877901277847058"><ele>361.0</ele><time>2026-04-12T06:05:58Z</time></trkpt><trkpt lat="43.589171662552324" lon="6.8778381057533595"><ele>361.0</ele><time>2026-04-12T06:05:58.999Z</time></trkpt><trkpt lat="43.58925986281799" lon="6.87773930540722"><ele>361.0</ele><time>2026-04-12T06:06:01.999Z</time></trkpt><trkpt lat="43.58935166387797" lon="6.877598507390794"><ele>361.0</ele><time>2026-04-12T06:06:03.999Z</time></trkpt><trkpt lat="43.589427362829774" lon="6.877488611959057"><ele>359.4</ele><time>2026-04-12T06:06:05.999Z</time></trkpt><trkpt lat="43.58945676091239" lon="6.877340274753323"><ele>357.8</ele><time>2026-04-12T06:06:07.999Z</time></trkpt><trkpt lat="43.589484153094034" lon="6.877201432935373"><ele>356.2</ele><time>2026-04-12T06:06:09.999Z</time></trkpt><trkpt lat="43.58951346211487" lon="6.877064328162878"><ele>354.59999999999997</ele><time>2026-04-12T06:06:11.999Z</time></trkpt><trkpt lat="43.589547119410895" lon="6.876933389374575"><ele>353.0</ele><time>2026-04-12T06:06:13.999Z</time></trkpt><trkpt lat="43.58959790779481" lon="6.876796022436089"><ele>357.75</ele><time>2026-04-12T06:06:15.999Z</time></trkpt><trkpt lat="43.589661679412075" lon="6.876673283664232"><ele>362.5</ele><time>2026-04-12T06:06:17.999Z</time></trkpt><trkpt lat="43.58975415031646" lon="6.8765613317864664"><ele>367.25</ele><time>2026-04-12T06:06:19.999Z</time></trkpt><trkpt lat="43.58983755393408" lon="6.876456653642767"><ele>372.0</ele><time>2026-04-12T06:06:21.999Z</time></trkpt><trkpt lat="43.5899286781657" lon="6.876354441840842"><ele>372.0</ele><time>2026-04-12T06:06:23.999Z</time></trkpt><trkpt lat="43.59003110022514" lon="6.876256625114783"><ele>372.0</ele><time>2026-04-12T06:06:25.999Z</time></trkpt><trkpt lat="43.59008143532758" lon="6.876192770336852"><ele>372.0</ele><time>2026-04-12T06:06:26.999Z</time></trkpt><trkpt lat="43.59013045076348" lon="6.8761280633208965"><ele>372.0</ele><time>2026-04-12T06:06:27.999Z</time></trkpt><trkpt lat="43.59018320830803" lon="6.876058227679898"><ele>372.0</ele><time>2026-04-12T06:06:28.999Z</time></trkpt><trkpt lat="43.590235042326576" lon="6.875989555831836"><ele>372.0</ele><time>2026-04-12T06:06:29.999Z</time></trkpt><trkpt lat="43.59028993297232" lon="6.875920547696012"><ele>371.0</ele><time>2026-04-12T06:06:30.999Z</time></trkpt><trkpt lat="43.590347161326385" lon="6.875848757915984"><ele>370.0</ele><time>2026-04-12T06:06:31.999Z</time></trkpt><trkpt lat="43.59040538752829" lon="6.875779268314964"><ele>369.0</ele><time>2026-04-12T06:06:32.999Z</time></trkpt><trkpt lat="43.59046690073914" lon="6.875705649514543"><ele>368.0</ele><time>2026-04-12T06:06:33.999Z</time></trkpt><trkpt lat="43.590528269551704" lon="6.875632182695819"><ele>367.0</ele><time>2026-04-12T06:06:34.999Z</time></trkpt><trkpt lat="43.590579499135806" lon="6.87554692011487"><ele>366.0</ele><time>2026-04-12T06:06:35.999Z</time></trkpt><trkpt lat="43.59063997858084" lon="6.875478836554464"><ele>366.0</ele><time>2026-04-12T06:06:36.999Z</time></trkpt><trkpt lat="43.59070808328701" lon="6.875414037498975"><ele>366.0</ele><time>2026-04-12T06:06:37.999Z</time></trkpt><trkpt lat="43.59077828117647" lon="6.875346271906451"><ele>366.0</ele><time>2026-04-12T06:06:38.999Z</time></trkpt><trkpt lat="43.590847948656645" lon="6.8752831578770115"><ele>366.0</ele><time>2026-04-12T06:06:39.999Z</time></trkpt><trkpt lat="43.59091857931354" lon="6.875211857056474"><ele>366.0</ele><time>2026-04-12T06:06:40.999Z</time></trkpt><trkpt lat="43.59098938558653" lon="6.875127057354918"><ele>366.0</ele><time>2026-04-12T06:06:41.999Z</time></trkpt><trkpt lat="43.5910596593912" lon="6.875023482449669"><ele>367.25</ele><time>2026-04-12T06:06:42.999Z</time></trkpt><trkpt lat="43.5911264216009" lon="6.874909538732264"><ele>368.5</ele><time>2026-04-12T06:06:43.999Z</time></trkpt><trkpt lat="43.59118357795951" lon="6.874772966362225"><ele>369.75</ele><time>2026-04-12T06:06:44.999Z</time></trkpt><trkpt lat="43.59121717134287" lon="6.874617584227433"><ele>371.0</ele><time>2026-04-12T06:06:45.999Z</time></trkpt><trkpt lat="43.59122966570081" lon="6.8744515351739315"><ele>367.0</ele><time>2026-04-12T06:06:46.999Z</time></trkpt><trkpt lat="43.591245917661475" lon="6.874291748619459"><ele>363.0</ele><time>2026-04-12T06:06:47.999Z</time></trkpt><trkpt lat="43.591240753264984" lon="6.874123928980845"><ele>359.0</ele><time>2026-04-12T06:06:48.999Z</time></trkpt><trkpt lat="43.59126107691354" lon="6.8739593588465695"><ele>355.0</ele><time>2026-04-12T06:06:49.999Z</time></trkpt><trkpt lat="43.59130883006174" lon="6.873807274933674"><ele>355.0</ele><time>2026-04-12T06:06:50.999Z</time></trkpt><trkpt lat="43.59135385277882" lon="6.8736510245854685"><ele>355.0</ele><time>2026-04-12T06:06:51.999Z</time></trkpt><trkpt lat="43.5913885475688" lon="6.873489441743643"><ele>355.0</ele><time>2026-04-12T06:06:52.999Z</time></trkpt><trkpt lat="43.59143564040793" lon="6.873333932641736"><ele>355.0</ele><time>2026-04-12T06:06:53.999Z</time></trkpt><trkpt lat="43.591479215844956" lon="6.873175478786416"><ele>356.5</ele><time>2026-04-12T06:06:54.999Z</time></trkpt><trkpt lat="43.59153410994759" lon="6.873026107566909"><ele>358.0</ele><time>2026-04-12T06:06:55.999Z</time></trkpt><trkpt lat="43.59162086993472" lon="6.872901730228401"><ele>359.5</ele><time>2026-04-12T06:06:56.999Z</time></trkpt><trkpt lat="43.59170788776039" lon="6.872783087543572"><ele>361.0</ele><time>2026-04-12T06:06:58Z</time></trkpt><trkpt lat="43.591808435222255" lon="6.872683426459898"><ele>360.25</ele><time>2026-04-12T06:06:59Z</time></trkpt><trkpt lat="43.59191968832309" lon="6.872602523555037"><ele>359.5</ele><time>2026-04-12T06:07:00Z</time></trkpt><trkpt lat="43.592035620011664" lon="6.872552611260596"><ele>358.75</ele><time>2026-04-12T06:07:01Z</time></trkpt><trkpt lat="43.592167195844816" lon="6.87253599216684"><ele>358.0</ele><time>2026-04-12T06:07:02Z</time></trkpt><trkpt lat="43.59229511298348" lon="6.872487508238977"><ele>358.0</ele><time>2026-04-12T06:07:03Z</time></trkpt><trkpt lat="43.59242454152957" lon="6.872446965097015"><ele>358.0</ele><time>2026-04-12T06:07:04Z</time></trkpt><trkpt lat="43.59254982361795" lon="6.872380983751161"><ele>358.0</ele><time>2026-04-12T06:07:05Z</time></trkpt><trkpt lat="43.592668684747885" lon="6.872291414913067"><ele>358.0</ele><time>2026-04-12T06:07:06Z</time></trkpt><trkpt lat="43.592783197381536" lon="6.8721880624625395"><ele>353.5</ele><time>2026-04-12T06:07:07Z</time></trkpt><trkpt lat="43.59288038046118" lon="6.87204829636241"><ele>349.0</ele><time>2026-04-12T06:07:08Z</time></trkpt><trkpt lat="43.592943746906" lon="6.871872703576941"><ele>344.5</ele><time>2026-04-12T06:07:09Z</time></trkpt><trkpt lat="43.592968653349196" lon="6.871676029419699"><ele>340.0</ele><time>2026-04-12T06:07:10Z</time></trkpt><trkpt lat="43.5929746934548" lon="6.8714766457791825"><ele>340.0</ele><time>2026-04-12T06:07:11Z</time></trkpt><trkpt lat="43.59297864142313" lon="6.871288499852906"><ele>340.0</ele><time>2026-04-12T06:07:12Z</time></trkpt><trkpt lat="43.59297465695478" lon="6.871094976950402"><ele>340.0</ele><time>2026-04-12T06:07:13Z</time></trkpt><trkpt lat="43.59299512796397" lon="6.870905275976127"><ele>340.0</ele><time>2026-04-12T06:07:14Z</time></trkpt><trkpt lat="43.593019780761985" lon="6.8707194256703366"><ele>342.0</ele><time>2026-04-12T06:07:15Z</time></trkpt><trkpt lat="43.59308437996133" lon="6.870558509982901"><ele>344.0</ele><time>2026-04-12T06:07:16Z</time></trkpt><trkpt lat="43.593191029550326" lon="6.870456915805597"><ele>346.0</ele><time>2026-04-12T06:07:17Z</time></trkpt><trkpt lat="43.593315365874396" lon="6.870384420702829"><ele>348.0</ele><time>2026-04-12T06:07:18Z</time></trkpt><trkpt lat="43.59344819385424" lon="6.870313825138712"><ele>348.0</ele><time>2026-04-12T06:07:19Z</time></trkpt><trkpt lat="43.59357643299566" lon="6.870243472204654"><ele>348.0</ele><time>2026-04-12T06:07:20Z</time></trkpt><trkpt lat="43.593683074434644" lon="6.870152891346248"><ele>348.0</ele><time>2026-04-12T06:07:21Z</time></trkpt><trkpt lat="43.59377637010518" lon="6.870062693547159"><ele>348.0</ele><time>2026-04-12T06:07:22Z</time></trkpt><trkpt lat="43.59382453988409" lon="6.869912563633656"><ele>351.25</ele><time>2026-04-12T06:07:23Z</time></trkpt><trkpt lat="43.59381266786078" lon="6.869730292070997"><ele>354.5</ele><time>2026-04-12T06:07:24Z</time></trkpt><trkpt lat="43.59377030347534" lon="6.8695615370395124"><ele>357.75</ele><time>2026-04-12T06:07:25Z</time></trkpt><trkpt lat="43.59372140805521" lon="6.869405940011368"><ele>361.0</ele><time>2026-04-12T06:07:26Z</time></trkpt><trkpt lat="43.59366077126878" lon="6.869263342251644"><ele>361.0</ele><time>2026-04-12T06:07:27Z</time></trkpt><trkpt lat="43.59356385512013" lon="6.869153841671983"><ele>361.0</ele><time>2026-04-12T06:07:28Z</time></trkpt><trkpt lat="43.5934697101034" lon="6.86905621095201"><ele>361.0</ele><time>2026-04-12T06:07:29Z</time></trkpt><trkpt lat="43.59340629095782" lon="6.868920748429711"><ele>361.0</ele><time>2026-04-12T06:07:30Z</time></trkpt><trkpt lat="43.59343577211254" lon="6.868749851965236"><ele>361.0</ele><time>2026-04-12T06:07:31Z</time></trkpt><trkpt lat="43.59349830046979" lon="6.868596730065597"><ele>361.0</ele><time>2026-04-12T06:07:32Z</time></trkpt><trkpt lat="43.59351317217144" lon="6.868423735382727"><ele>361.0</ele><time>2026-04-12T06:07:33Z</time></trkpt><trkpt lat="43.59350856711204" lon="6.868248494921295"><ele>361.0</ele><time>2026-04-12T06:07:34Z</time></trkpt><trkpt lat="43.59350745012865" lon="6.8680708349928326"><ele>359.75</ele><time>2026-04-12T06:07:35Z</time></trkpt><trkpt lat="43.59351844612126" lon="6.867898882338186"><ele>358.5</ele><time>2026-04-12T06:07:36Z</time></trkpt><trkpt lat="43.5935477185821" lon="6.8677293361389005"><ele>357.25</ele><time>2026-04-12T06:07:37Z</time></trkpt><trkpt lat="43.59358749000589" lon="6.8675593191179365"><ele>356.0</ele><time>2026-04-12T06:07:38Z</time></trkpt><trkpt lat="43.593690643610934" lon="6.867437174724398"><ele>348.0</ele><time>2026-04-12T06:07:39Z</time></trkpt><trkpt lat="43.59379701583686" lon="6.867347139697909"><ele>340.0</ele><time>2026-04-12T06:07:40Z</time></trkpt><trkpt lat="43.5938953270925" lon="6.867246556758412"><ele>332.0</ele><time>2026-04-12T06:07:41Z</time></trkpt><trkpt lat="43.59396581429286" lon="6.8671190115084295"><ele>324.0</ele><time>2026-04-12T06:07:42Z</time></trkpt><trkpt lat="43.59398722044379" lon="6.866956361767346"><ele>324.0</ele><time>2026-04-12T06:07:43Z</time></trkpt><trkpt lat="43.593943799268615" lon="6.866792197007958"><ele>324.0</ele><time>2026-04-12T06:07:44Z</time></trkpt><trkpt lat="43.593845875274994" lon="6.8666716638692735"><ele>324.0</ele><time>2026-04-12T06:07:45Z</time></trkpt><trkpt lat="43.593729610574556" lon="6.86661597999383"><ele>324.0</ele><time>2026-04-12T06:07:46Z</time></trkpt><trkpt lat="43.59360957880154" lon="6.866576713936999"><ele>327.75</ele><time>2026-04-12T06:07:47Z</time></trkpt><trkpt lat="43.59349688152848" lon="6.866515856011109"><ele>331.5</ele><time>2026-04-12T06:07:48Z</time></trkpt><trkpt lat="43.593388225145894" lon="6.866430897072283"><ele>335.25</ele><time>2026-04-12T06:07:49Z</time></trkpt><trkpt lat="43.59328367229778" lon="6.866327884132787"><ele>339.0</ele><time>2026-04-12T06:07:50Z</time></trkpt><trkpt lat="43.593180138090794" lon="6.866220672414754"><ele>339.0</ele><time>2026-04-12T06:07:51Z</time></trkpt><trkpt lat="43.5930621044801" lon="6.866126964773071"><ele>339.0</ele><time>2026-04-12T06:07:52Z</time></trkpt><trkpt lat="43.59292802977855" lon="6.866128373923491"><ele>339.0</ele><time>2026-04-12T06:07:53Z</time></trkpt><trkpt lat="43.592791360092804" lon="6.866096593843277"><ele>339.0</ele><time>2026-04-12T06:07:54Z</time></trkpt><trkpt lat="43.592714553551566" lon="6.865955077076369"><ele>337.25</ele><time>2026-04-12T06:07:55Z</time></trkpt><trkpt lat="43.592674218846156" lon="6.865773655909655"><ele>335.5</ele><time>2026-04-12T06:07:56Z</time></trkpt><trkpt lat="43.592596480339665" lon="6.8656269578351505"><ele>333.75</ele><time>2026-04-12T06:07:57Z</time></trkpt><trkpt lat="43.59249384914406" lon="6.8655063571773525"><ele>332.0</ele><time>2026-04-12T06:07:58Z</time></trkpt><trkpt lat="43.59241755240347" lon="6.865361690177483"><ele>332.0</ele><time>2026-04-12T06:07:59Z</time></trkpt><trkpt lat="43.59236340570583" lon="6.865189004184134"><ele>332.0</ele><time>2026-04-12T06:08:00Z</time></trkpt><trkpt lat="43.592338544388916" lon="6.865004243561406"><ele>332.0</ele><time>2026-04-12T06:08:01Z</time></trkpt><trkpt lat="43.59231526687855" lon="6.8648104662250535"><ele>332.0</ele><time>2026-04-12T06:08:02Z</time></trkpt><trkpt lat="43.59229039191176" lon="6.864613190896007"><ele>328.75</ele><time>2026-04-12T06:08:03Z</time></trkpt><trkpt lat="43.59224952775743" lon="6.864420992679265"><ele>325.5</ele><time>2026-04-12T06:08:04Z</time></trkpt><trkpt lat="43.59222126537959" lon="6.864222666953466"><ele>322.25</ele><time>2026-04-12T06:08:05Z</time></trkpt><trkpt lat="43.59220861937857" lon="6.8640257043982"><ele>319.0</ele><time>2026-04-12T06:08:05.999Z</time></trkpt><trkpt lat="43.59218445409376" lon="6.86384566789801"><ele>316.5</ele><time>2026-04-12T06:08:06.999Z</time></trkpt><trkpt lat="43.59214747058551" lon="6.863665114833556"><ele>314.0</ele><time>2026-04-12T06:08:07.999Z</time></trkpt><trkpt lat="43.592144044880826" lon="6.863474740443544"><ele>311.5</ele><time>2026-04-12T06:08:08.999Z</time></trkpt><trkpt lat="43.592183281823885" lon="6.863287947116636"><ele>309.0</ele><time>2026-04-12T06:08:09.999Z</time></trkpt><trkpt lat="43.59220786514798" lon="6.863094974432428"><ele>309.75</ele><time>2026-04-12T06:08:10.999Z</time></trkpt><trkpt lat="43.59224785638162" lon="6.862907479527909"><ele>310.5</ele><time>2026-04-12T06:08:11.999Z</time></trkpt><trkpt lat="43.59230298569431" lon="6.862724566528709"><ele>311.25</ele><time>2026-04-12T06:08:12.999Z</time></trkpt><trkpt lat="43.592436075428864" lon="6.862613163091053"><ele>312.0</ele><time>2026-04-12T06:08:13.999Z</time></trkpt><trkpt lat="43.59253947924011" lon="6.862468872383964"><ele>312.0</ele><time>2026-04-12T06:08:14.999Z</time></trkpt><trkpt lat="43.59260296892795" lon="6.862288557838238"><ele>312.0</ele><time>2026-04-12T06:08:15.999Z</time></trkpt><trkpt lat="43.59268819157293" lon="6.862132296437359"><ele>312.0</ele><time>2026-04-12T06:08:16.999Z</time></trkpt><trkpt lat="43.59278059514147" lon="6.861986828602624"><ele>312.0</ele><time>2026-04-12T06:08:17.999Z</time></trkpt><trkpt lat="43.59289494836156" lon="6.8618825649291955"><ele>309.5</ele><time>2026-04-12T06:08:18.999Z</time></trkpt><trkpt lat="43.5930259522079" lon="6.861809412980685"><ele>307.0</ele><time>2026-04-12T06:08:19.999Z</time></trkpt><trkpt lat="43.59316014797594" lon="6.861731905562451"><ele>304.5</ele><time>2026-04-12T06:08:20.999Z</time></trkpt><trkpt lat="43.59327689950295" lon="6.861619605220897"><ele>302.0</ele><time>2026-04-12T06:08:21.999Z</time></trkpt><trkpt lat="43.593380775989104" lon="6.861482840675924"><ele>302.0</ele><time>2026-04-12T06:08:22.999Z</time></trkpt><trkpt lat="43.593469543217175" lon="6.861325170993542"><ele>302.0</ele><time>2026-04-12T06:08:23.999Z</time></trkpt><trkpt lat="43.593579259544754" lon="6.861189379867726"><ele>302.0</ele><time>2026-04-12T06:08:24.999Z</time></trkpt><trkpt lat="43.59364595399667" lon="6.861011316524236"><ele>302.0</ele><time>2026-04-12T06:08:25.999Z</time></trkpt><trkpt lat="43.593725693546695" lon="6.860848696823906"><ele>298.75</ele><time>2026-04-12T06:08:26.999Z</time></trkpt><trkpt lat="43.59382656913207" lon="6.860714459871552"><ele>295.5</ele><time>2026-04-12T06:08:27.999Z</time></trkpt><trkpt lat="43.593939353940684" lon="6.860608903045639"><ele>292.25</ele><time>2026-04-12T06:08:28.999Z</time></trkpt><trkpt lat="43.59406825196677" lon="6.8605351671429355"><ele>289.0</ele><time>2026-04-12T06:08:29.999Z</time></trkpt><trkpt lat="43.59418035640863" lon="6.8604145913972125"><ele>289.0</ele><time>2026-04-12T06:08:30.999Z</time></trkpt><trkpt lat="43.594272470340705" lon="6.860263557544901"><ele>289.0</ele><time>2026-04-12T06:08:31.999Z</time></trkpt><trkpt lat="43.594343686068385" lon="6.860096625221112"><ele>289.0</ele><time>2026-04-12T06:08:32.999Z</time></trkpt><trkpt lat="43.59445848280168" lon="6.859987488736708"><ele>289.0</ele><time>2026-04-12T06:08:33.999Z</time></trkpt><trkpt lat="43.59457547171799" lon="6.859879257442725"><ele>288.0</ele><time>2026-04-12T06:08:34.999Z</time></trkpt><trkpt lat="43.594700395117414" lon="6.859778621863726"><ele>287.0</ele><time>2026-04-12T06:08:35.999Z</time></trkpt><trkpt lat="43.594827794311115" lon="6.859688175684058"><ele>286.0</ele><time>2026-04-12T06:08:36.999Z</time></trkpt><trkpt lat="43.5949526623066" lon="6.859581216261716"><ele>285.0</ele><time>2026-04-12T06:08:37.999Z</time></trkpt><trkpt lat="43.59508511928203" lon="6.859491058151125"><ele>285.0</ele><time>2026-04-12T06:08:38.999Z</time></trkpt><trkpt lat="43.59521762031386" lon="6.859400858608827"><ele>285.0</ele><time>2026-04-12T06:08:39.999Z</time></trkpt><trkpt lat="43.59534533969353" lon="6.859309105085282"><ele>285.0</ele><time>2026-04-12T06:08:40.999Z</time></trkpt><trkpt lat="43.59546751936657" lon="6.859208952431145"><ele>285.0</ele><time>2026-04-12T06:08:41.999Z</time></trkpt><trkpt lat="43.595573535534804" lon="6.859099116462382"><ele>287.5</ele><time>2026-04-12T06:08:42.999Z</time></trkpt><trkpt lat="43.59566870411422" lon="6.858969429189694"><ele>290.0</ele><time>2026-04-12T06:08:43.999Z</time></trkpt><trkpt lat="43.59573032284541" lon="6.858808001826562"><ele>292.5</ele><time>2026-04-12T06:08:44.999Z</time></trkpt><trkpt lat="43.59576395607647" lon="6.858640765402023"><ele>295.0</ele><time>2026-04-12T06:08:45.999Z</time></trkpt><trkpt lat="43.59581701400883" lon="6.85849076618989"><ele>296.0</ele><time>2026-04-12T06:08:46.999Z</time></trkpt><trkpt lat="43.595908988314875" lon="6.858377681930563"><ele>297.0</ele><time>2026-04-12T06:08:47.999Z</time></trkpt><trkpt lat="43.596044088024925" lon="6.858360151768524"><ele>298.0</ele><time>2026-04-12T06:08:48.999Z</time></trkpt><trkpt lat="43.59617107466465" lon="6.85829486928255"><ele>299.0</ele><time>2026-04-12T06:08:49.999Z</time></trkpt><trkpt lat="43.5962828294076" lon="6.858205116245121"><ele>299.0</ele><time>2026-04-12T06:08:50.999Z</time></trkpt><trkpt lat="43.59639032484119" lon="6.858116026234501"><ele>299.0</ele><time>2026-04-12T06:08:51.999Z</time></trkpt><trkpt lat="43.596511522529134" lon="6.858024752935106"><ele>299.0</ele><time>2026-04-12T06:08:52.999Z</time></trkpt><trkpt lat="43.59662773481901" lon="6.857932441746502"><ele>299.0</ele><time>2026-04-12T06:08:53.999Z</time></trkpt><trkpt lat="43.596727752047464" lon="6.857797826489271"><ele>299.0</ele><time>2026-04-12T06:08:54.999Z</time></trkpt><trkpt lat="43.59682436090933" lon="6.857667538397083"><ele>299.0</ele><time>2026-04-12T06:08:55.999Z</time></trkpt><trkpt lat="43.59695884851063" lon="6.857634130624816"><ele>299.0</ele><time>2026-04-12T06:08:56.999Z</time></trkpt><trkpt lat="43.59710018907238" lon="6.857581760124166"><ele>299.0</ele><time>2026-04-12T06:08:57.999Z</time></trkpt><trkpt lat="43.59722055739556" lon="6.857465575291251"><ele>296.25</ele><time>2026-04-12T06:08:58.999Z</time></trkpt><trkpt lat="43.59733154140148" lon="6.857344149597321"><ele>293.5</ele><time>2026-04-12T06:08:59.999Z</time></trkpt><trkpt lat="43.59744648004668" lon="6.857250100758043"><ele>290.75</ele><time>2026-04-12T06:09:00.999Z</time></trkpt><trkpt lat="43.59757583159693" lon="6.857216822990629"><ele>288.0</ele><time>2026-04-12T06:09:01.999Z</time></trkpt><trkpt lat="43.59771041275574" lon="6.857229762572619"><ele>287.0</ele><time>2026-04-12T06:09:02.999Z</time></trkpt><trkpt lat="43.59785756234053" lon="6.857259409906689"><ele>286.0</ele><time>2026-04-12T06:09:04Z</time></trkpt><trkpt lat="43.59800151098945" lon="6.857242979393426"><ele>285.0</ele><time>2026-04-12T06:09:05Z</time></trkpt><trkpt lat="43.59813998657682" lon="6.85717975805104"><ele>284.0</ele><time>2026-04-12T06:09:06Z</time></trkpt><trkpt lat="43.59826468343971" lon="6.857127765466309"><ele>284.0</ele><time>2026-04-12T06:09:07Z</time></trkpt><trkpt lat="43.59836588851608" lon="6.857029692223792"><ele>284.0</ele><time>2026-04-12T06:09:08Z</time></trkpt><trkpt lat="43.59843561183004" lon="6.856894411550985"><ele>284.0</ele><time>2026-04-12T06:09:09Z</time></trkpt><trkpt lat="43.59851120666876" lon="6.856795170600199"><ele>284.0</ele><time>2026-04-12T06:09:10Z</time></trkpt><trkpt lat="43.5985951329851" lon="6.856757106854827"><ele>284.0</ele><time>2026-04-12T06:09:11Z</time></trkpt><trkpt lat="43.598658901551964" lon="6.856701079203784"><ele>281.2</ele><time>2026-04-12T06:09:12Z</time></trkpt><trkpt lat="43.598720514407994" lon="6.85665792350767"><ele>278.4</ele><time>2026-04-12T06:09:13Z</time></trkpt><trkpt lat="43.59876069353215" lon="6.8565708775258685"><ele>275.6</ele><time>2026-04-12T06:09:14Z</time></trkpt><trkpt lat="43.59870504823646" lon="6.856412981020129"><ele>272.8</ele><time>2026-04-12T06:09:15Z</time></trkpt><trkpt lat="43.59858873280441" lon="6.856370960327017"><ele>270.0</ele><time>2026-04-12T06:09:16Z</time></trkpt><trkpt lat="43.598472134232836" lon="6.85649780071799"><ele>270.0</ele><time>2026-04-12T06:09:17Z</time></trkpt><trkpt lat="43.59840258962246" lon="6.856598852287522"><ele>270.0</ele><time>2026-04-12T06:09:18Z</time></trkpt><trkpt lat="43.59833055790691" lon="6.856690680162687"><ele>270.0</ele><time>2026-04-12T06:09:19Z</time></trkpt><trkpt lat="43.598248939641536" lon="6.856777075943532"><ele>270.0</ele><time>2026-04-12T06:09:20Z</time></trkpt><trkpt lat="43.59816286773418" lon="6.856852849345338"><ele>270.0</ele><time>2026-04-12T06:09:21Z</time></trkpt><trkpt lat="43.59805483595599" lon="6.856874115454789"><ele>268.25</ele><time>2026-04-12T06:09:22Z</time></trkpt><trkpt lat="43.59794236004093" lon="6.856826305398157"><ele>266.5</ele><time>2026-04-12T06:09:23Z</time></trkpt><trkpt lat="43.59782542396827" lon="6.856796420811683"><ele>264.75</ele><time>2026-04-12T06:09:24Z</time></trkpt><trkpt lat="43.5976999516811" lon="6.8567871718901126"><ele>263.0</ele><time>2026-04-12T06:09:25Z</time></trkpt><trkpt lat="43.59757742428537" lon="6.856752253577796"><ele>263.0</ele><time>2026-04-12T06:09:26Z</time></trkpt><trkpt lat="43.59744953981333" lon="6.856723008538678"><ele>263.0</ele><time>2026-04-12T06:09:27Z</time></trkpt><trkpt lat="43.59731889039708" lon="6.856686953815355"><ele>263.0</ele><time>2026-04-12T06:09:28Z</time></trkpt><trkpt lat="43.597193496294096" lon="6.856645283540002"><ele>263.0</ele><time>2026-04-12T06:09:29Z</time></trkpt><trkpt lat="43.59707531315859" lon="6.8566304564721"><ele>259.75</ele><time>2026-04-12T06:09:30Z</time></trkpt><trkpt lat="43.59695186767724" lon="6.85666530551527"><ele>256.5</ele><time>2026-04-12T06:09:31Z</time></trkpt><trkpt lat="43.5968321674349" lon="6.856738324273049"><ele>253.25</ele><time>2026-04-12T06:09:32Z</time></trkpt><trkpt lat="43.59670891874596" lon="6.856826792142679"><ele>250.0</ele><time>2026-04-12T06:09:33Z</time></trkpt><trkpt lat="43.596587210227035" lon="6.85691717376505"><ele>252.0</ele><time>2026-04-12T06:09:34Z</time></trkpt><trkpt lat="43.596460880583074" lon="6.8570041956224745"><ele>254.0</ele><time>2026-04-12T06:09:35Z</time></trkpt><trkpt lat="43.59633053814127" lon="6.8570875170279635"><ele>256.0</ele><time>2026-04-12T06:09:36Z</time></trkpt><trkpt lat="43.596194184156" lon="6.857137703010122"><ele>258.0</ele><time>2026-04-12T06:09:37Z</time></trkpt><trkpt lat="43.59606206115542" lon="6.8572081721214095"><ele>258.0</ele><time>2026-04-12T06:09:38Z</time></trkpt><trkpt lat="43.59594224038453" lon="6.857290646109122"><ele>258.0</ele><time>2026-04-12T06:09:39Z</time></trkpt><trkpt lat="43.595838238496576" lon="6.857376582665168"><ele>258.0</ele><time>2026-04-12T06:09:40Z</time></trkpt><trkpt lat="43.59571558649301" lon="6.857346192575906"><ele>258.0</ele><time>2026-04-12T06:09:41Z</time></trkpt><trkpt lat="43.595581995540726" lon="6.857321441032777"><ele>258.0</ele><time>2026-04-12T06:09:42Z</time></trkpt><trkpt lat="43.595450326276634" lon="6.8573244531932005"><ele>258.0</ele><time>2026-04-12T06:09:43Z</time></trkpt><trkpt lat="43.595331769056" lon="6.857419958825294"><ele>258.0</ele><time>2026-04-12T06:09:44Z</time></trkpt><trkpt lat="43.59522902118625" lon="6.8575244797855435"><ele>258.0</ele><time>2026-04-12T06:09:45Z</time></trkpt><trkpt lat="43.595123127011846" lon="6.8576178923223425"><ele>260.5</ele><time>2026-04-12T06:09:46Z</time></trkpt><trkpt lat="43.59501211712475" lon="6.857683527625147"><ele>263.0</ele><time>2026-04-12T06:09:47Z</time></trkpt><trkpt lat="43.59491699663523" lon="6.857783924550906"><ele>265.5</ele><time>2026-04-12T06:09:48Z</time></trkpt><trkpt lat="43.594838215998294" lon="6.857891932707154"><ele>268.0</ele><time>2026-04-12T06:09:49Z</time></trkpt><trkpt lat="43.59471253319342" lon="6.857901641411314"><ele>268.0</ele><time>2026-04-12T06:09:50Z</time></trkpt><trkpt lat="43.59458829457714" lon="6.857865086963072"><ele>268.0</ele><time>2026-04-12T06:09:51Z</time></trkpt><trkpt lat="43.59447891077674" lon="6.857876862288045"><ele>268.0</ele><time>2026-04-12T06:09:52Z</time></trkpt><trkpt lat="43.59438285138084" lon="6.857894613840166"><ele>268.0</ele><time>2026-04-12T06:09:53Z</time></trkpt><trkpt lat="43.5942941029332" lon="6.857812685421609"><ele>268.0</ele><time>2026-04-12T06:09:54Z</time></trkpt><trkpt lat="43.594264460594225" lon="6.8576420298647225"><ele>262.25</ele><time>2026-04-12T06:09:55Z</time></trkpt><trkpt lat="43.594231400150555" lon="6.85748361922824"><ele>256.5</ele><time>2026-04-12T06:09:56Z</time></trkpt><trkpt lat="43.5941712347002" lon="6.857359320715341"><ele>250.75</ele><time>2026-04-12T06:09:57Z</time></trkpt><trkpt lat="43.59409341207622" lon="6.85724638618266"><ele>245.0</ele><time>2026-04-12T06:09:58Z</time></trkpt><trkpt lat="43.59403821346799" lon="6.857113964510421"><ele>245.0</ele><time>2026-04-12T06:09:59Z</time></trkpt><trkpt lat="43.594036044132174" lon="6.8569402632776155"><ele>245.0</ele><time>2026-04-12T06:10:00Z</time></trkpt><trkpt lat="43.59397924629759" lon="6.8568134040170365"><ele>245.0</ele><time>2026-04-12T06:10:01Z</time></trkpt><trkpt lat="43.59391783715149" lon="6.856698441805421"><ele>245.0</ele><time>2026-04-12T06:10:02Z</time></trkpt><trkpt lat="43.593847227267375" lon="6.85658530974953"><ele>245.0</ele><time>2026-04-12T06:10:03Z</time></trkpt><trkpt lat="43.5937587564885" lon="6.856503729723255"><ele>244.2</ele><time>2026-04-12T06:10:04Z</time></trkpt><trkpt lat="43.59365494257954" lon="6.856461116365984"><ele>243.4</ele><time>2026-04-12T06:10:05Z</time></trkpt><trkpt lat="43.5935535290222" lon="6.8564443958644725"><ele>242.60000000000002</ele><time>2026-04-12T06:10:06Z</time></trkpt><trkpt lat="43.59345676943348" lon="6.856413899902772"><ele>241.8</ele><time>2026-04-12T06:10:07Z</time></trkpt><trkpt lat="43.593373695623995" lon="6.856399728267392"><ele>241.0</ele><time>2026-04-12T06:10:08Z</time></trkpt><trkpt lat="43.59330389209832" lon="6.856378078956682"><ele>241.0</ele><time>2026-04-12T06:10:09Z</time></trkpt><trkpt lat="43.59324590517973" lon="6.856331170856569"><ele>241.00000000000003</ele><time>2026-04-12T06:10:10Z</time></trkpt><trkpt lat="43.59320424652666" lon="6.856183395584543"><ele>241.00000000000003</ele><time>2026-04-12T06:10:11.999Z</time></trkpt><trkpt lat="43.59330574721261" lon="6.856193630359168"><ele>241.0</ele><time>2026-04-12T06:10:14.999Z</time></trkpt><trkpt lat="43.5934075145692" lon="6.8563153704919175"><ele>241.0</ele><time>2026-04-12T06:10:16.999Z</time></trkpt><trkpt lat="43.59349836994549" lon="6.856337558244014"><ele>241.0</ele><time>2026-04-12T06:10:17.999Z</time></trkpt><trkpt lat="43.593595844261905" lon="6.856330365213237"><ele>241.00000000000003</ele><time>2026-04-12T06:10:18.999Z</time></trkpt><trkpt lat="43.59369782923039" lon="6.856302112969377"><ele>241.00000000000003</ele><time>2026-04-12T06:10:19.999Z</time></trkpt><trkpt lat="43.593801744763006" lon="6.8563054007199185"><ele>241.0</ele><time>2026-04-12T06:10:20.999Z</time></trkpt><trkpt lat="43.59390994530674" lon="6.85633437331037"><ele>241.0</ele><time>2026-04-12T06:10:21.999Z</time></trkpt><trkpt lat="43.594007725787755" lon="6.856405059100654"><ele>242.0</ele><time>2026-04-12T06:10:22.999Z</time></trkpt><trkpt lat="43.59406312604825" lon="6.856554350063596"><ele>243.0</ele><time>2026-04-12T06:10:23.999Z</time></trkpt><trkpt lat="43.594137081863984" lon="6.8566712812577695"><ele>244.0</ele><time>2026-04-12T06:10:24.999Z</time></trkpt><trkpt lat="43.59421473858575" lon="6.856783045598979"><ele>245.0</ele><time>2026-04-12T06:10:25.999Z</time></trkpt><trkpt lat="43.594267092330774" lon="6.856921409256564"><ele>245.0</ele><time>2026-04-12T06:10:26.999Z</time></trkpt><trkpt lat="43.59430631976597" lon="6.85706923870824"><ele>245.0</ele><time>2026-04-12T06:10:27.999Z</time></trkpt><trkpt lat="43.59435527023201" lon="6.857213995649988"><ele>245.0</ele><time>2026-04-12T06:10:28.999Z</time></trkpt><trkpt lat="43.59443904631709" lon="6.857314589572003"><ele>245.0</ele><time>2026-04-12T06:10:29.999Z</time></trkpt><trkpt lat="43.59456321254568" lon="6.857362805906892"><ele>243.5</ele><time>2026-04-12T06:10:30.999Z</time></trkpt><trkpt lat="43.594687035034354" lon="6.85731795720113"><ele>242.0</ele><time>2026-04-12T06:10:31.999Z</time></trkpt><trkpt lat="43.594788865019794" lon="6.857187268336039"><ele>240.5</ele><time>2026-04-12T06:10:32.999Z</time></trkpt><trkpt lat="43.59487024542041" lon="6.857042250451126"><ele>239.0</ele><time>2026-04-12T06:10:33.999Z</time></trkpt><trkpt lat="43.594981092363426" lon="6.85694300447656"><ele>239.0</ele><time>2026-04-12T06:10:34.999Z</time></trkpt><trkpt lat="43.59507238792952" lon="6.856823332608934"><ele>239.0</ele><time>2026-04-12T06:10:35.999Z</time></trkpt><trkpt lat="43.5951603950378" lon="6.856705702234264"><ele>239.0</ele><time>2026-04-12T06:10:36.999Z</time></trkpt><trkpt lat="43.59525105858773" lon="6.8565915100257655"><ele>239.0</ele><time>2026-04-12T06:10:37.999Z</time></trkpt><trkpt lat="43.59534963504402" lon="6.856477013697819"><ele>235.75</ele><time>2026-04-12T06:10:38.999Z</time></trkpt><trkpt lat="43.595485636970956" lon="6.856448069877772"><ele>232.5</ele><time>2026-04-12T06:10:39.999Z</time></trkpt><trkpt lat="43.59563113959633" lon="6.8564191045046705"><ele>229.25</ele><time>2026-04-12T06:10:40.999Z</time></trkpt><trkpt lat="43.59575908983416" lon="6.8563358592032815"><ele>226.0</ele><time>2026-04-12T06:10:41.999Z</time></trkpt><trkpt lat="43.59587877828446" lon="6.856234362632528"><ele>226.0</ele><time>2026-04-12T06:10:42.999Z</time></trkpt><trkpt lat="43.596014924831" lon="6.856169423927235"><ele>226.0</ele><time>2026-04-12T06:10:43.999Z</time></trkpt><trkpt lat="43.59614174287611" lon="6.856073203545149"><ele>226.0</ele><time>2026-04-12T06:10:44.999Z</time></trkpt><trkpt lat="43.596238042019436" lon="6.855911369090701"><ele>226.0</ele><time>2026-04-12T06:10:45.999Z</time></trkpt><trkpt lat="43.59632989111245" lon="6.855750304228295"><ele>224.0</ele><time>2026-04-12T06:10:46.999Z</time></trkpt><trkpt lat="43.596431310629654" lon="6.855607667285004"><ele>222.0</ele><time>2026-04-12T06:10:47.999Z</time></trkpt><trkpt lat="43.59652278977519" lon="6.855480742278352"><ele>220.0</ele><time>2026-04-12T06:10:48.999Z</time></trkpt><trkpt lat="43.59660982691518" lon="6.855367712487292"><ele>218.0</ele><time>2026-04-12T06:10:49.999Z</time></trkpt><trkpt lat="43.59672046582056" lon="6.855286285566844"><ele>218.0</ele><time>2026-04-12T06:10:50.999Z</time></trkpt><trkpt lat="43.59684312072637" lon="6.8552888654997775"><ele>218.0</ele><time>2026-04-12T06:10:51.999Z</time></trkpt><trkpt lat="43.59696850243442" lon="6.855289845321547"><ele>218.0</ele><time>2026-04-12T06:10:52.999Z</time></trkpt><trkpt lat="43.597063063652314" lon="6.855251464946463"><ele>218.0</ele><time>2026-04-12T06:10:53.999Z</time></trkpt><trkpt lat="43.597115728759746" lon="6.855087712164156"><ele>219.5</ele><time>2026-04-12T06:10:54.999Z</time></trkpt><trkpt lat="43.59712007500997" lon="6.8549122372227025"><ele>221.0</ele><time>2026-04-12T06:10:55.999Z</time></trkpt><trkpt lat="43.59711029497315" lon="6.854750553445251"><ele>222.5</ele><time>2026-04-12T06:10:56.999Z</time></trkpt><trkpt lat="43.59711120047129" lon="6.8545931170020475"><ele>224.0</ele><time>2026-04-12T06:10:57.999Z</time></trkpt><trkpt lat="43.59711619854076" lon="6.854436454563432"><ele>222.25</ele><time>2026-04-12T06:10:58.999Z</time></trkpt><trkpt lat="43.59712467919664" lon="6.854275430749215"><ele>220.5</ele><time>2026-04-12T06:10:59.999Z</time></trkpt><trkpt lat="43.597132558186075" lon="6.854115237655723"><ele>218.75</ele><time>2026-04-12T06:11:00.999Z</time></trkpt><trkpt lat="43.59712871669523" lon="6.853949734687294"><ele>217.0</ele><time>2026-04-12T06:11:01.999Z</time></trkpt><trkpt lat="43.59713354744299" lon="6.853784333086307"><ele>217.0</ele><time>2026-04-12T06:11:02.999Z</time></trkpt><trkpt lat="43.59712527826671" lon="6.853621855525106"><ele>217.0</ele><time>2026-04-12T06:11:03.999Z</time></trkpt><trkpt lat="43.59712868489788" lon="6.8534674723365745"><ele>217.0</ele><time>2026-04-12T06:11:04.999Z</time></trkpt><trkpt lat="43.59714483432932" lon="6.853321671819875"><ele>217.0</ele><time>2026-04-12T06:11:05.999Z</time></trkpt><trkpt lat="43.597229147559965" lon="6.853214328002294"><ele>212.0</ele><time>2026-04-12T06:11:06.999Z</time></trkpt><trkpt lat="43.59732476064442" lon="6.853130187080398"><ele>207.0</ele><time>2026-04-12T06:11:07.999Z</time></trkpt><trkpt lat="43.59743301035693" lon="6.853060113987793"><ele>202.0</ele><time>2026-04-12T06:11:08.999Z</time></trkpt><trkpt lat="43.59754773231388" lon="6.852996339736016"><ele>197.0</ele><time>2026-04-12T06:11:10Z</time></trkpt><trkpt lat="43.597659987473165" lon="6.852927392183293"><ele>197.0</ele><time>2026-04-12T06:11:11Z</time></trkpt><trkpt lat="43.597766345230596" lon="6.852847500014379"><ele>197.0</ele><time>2026-04-12T06:11:12Z</time></trkpt><trkpt lat="43.597838708661456" lon="6.852692079418286"><ele>197.0</ele><time>2026-04-12T06:11:13Z</time></trkpt><trkpt lat="43.597891431880754" lon="6.852522399015495"><ele>197.0</ele><time>2026-04-12T06:11:14Z</time></trkpt><trkpt lat="43.59793987729516" lon="6.852353969681633"><ele>197.75</ele><time>2026-04-12T06:11:15Z</time></trkpt><trkpt lat="43.59803974016924" lon="6.852245927528811"><ele>198.5</ele><time>2026-04-12T06:11:16Z</time></trkpt><trkpt lat="43.598144332528754" lon="6.852160998525834"><ele>199.25</ele><time>2026-04-12T06:11:17Z</time></trkpt><trkpt lat="43.5982436523611" lon="6.852080852019148"><ele>200.0</ele><time>2026-04-12T06:11:18Z</time></trkpt><trkpt lat="43.59832050970044" lon="6.851990868373675"><ele>200.0</ele><time>2026-04-12T06:11:19Z</time></trkpt><trkpt lat="43.5983462390095" lon="6.851850530930251"><ele>200.0</ele><time>2026-04-12T06:11:20Z</time></trkpt><trkpt lat="43.59832858910725" lon="6.851696046621606"><ele>200.0</ele><time>2026-04-12T06:11:21Z</time></trkpt><trkpt lat="43.59822360476233" lon="6.851575812370141"><ele>200.0</ele><time>2026-04-12T06:11:22Z</time></trkpt><trkpt lat="43.598130634709314" lon="6.851488457547486"><ele>197.25</ele><time>2026-04-12T06:11:23Z</time></trkpt><trkpt lat="43.59807283077506" lon="6.851360951541299"><ele>194.5</ele><time>2026-04-12T06:11:24Z</time></trkpt><trkpt lat="43.59802014237691" lon="6.85122460945313"><ele>191.75</ele><time>2026-04-12T06:11:25Z</time></trkpt><trkpt lat="43.59794179844068" lon="6.851096260718602"><ele>189.0</ele><time>2026-04-12T06:11:26Z</time></trkpt><trkpt lat="43.59782965043354" lon="6.851014185330718"><ele>182.5</ele><time>2026-04-12T06:11:27Z</time></trkpt><trkpt lat="43.59774186475396" lon="6.850896770872305"><ele>176.0</ele><time>2026-04-12T06:11:28Z</time></trkpt><trkpt lat="43.59765482687119" lon="6.850779186139066"><ele>169.5</ele><time>2026-04-12T06:11:29Z</time></trkpt><trkpt lat="43.59757294499469" lon="6.850660039099567"><ele>163.0</ele><time>2026-04-12T06:11:30Z</time></trkpt><trkpt lat="43.59749924211619" lon="6.8505407254408865"><ele>163.0</ele><time>2026-04-12T06:11:31Z</time></trkpt><trkpt lat="43.59742841520523" lon="6.850411664831357"><ele>163.0</ele><time>2026-04-12T06:11:32Z</time></trkpt><trkpt lat="43.59738728230362" lon="6.8502534768292875"><ele>163.0</ele><time>2026-04-12T06:11:33Z</time></trkpt><trkpt lat="43.59735801331614" lon="6.8500817930050815"><ele>163.0</ele><time>2026-04-12T06:11:34Z</time></trkpt><trkpt lat="43.59737106693284" lon="6.849900674846997"><ele>164.25</ele><time>2026-04-12T06:11:35Z</time></trkpt><trkpt lat="43.59740466892935" lon="6.849720373330365"><ele>165.5</ele><time>2026-04-12T06:11:36Z</time></trkpt><trkpt lat="43.597475666967085" lon="6.849561102544806"><ele>166.75</ele><time>2026-04-12T06:11:37Z</time></trkpt><trkpt lat="43.59752867334505" lon="6.849384123228647"><ele>168.0</ele><time>2026-04-12T06:11:38Z</time></trkpt><trkpt lat="43.59761675632325" lon="6.849226517735932"><ele>169.0</ele><time>2026-04-12T06:11:39Z</time></trkpt><trkpt lat="43.597722599777924" lon="6.849086429584188"><ele>170.0</ele><time>2026-04-12T06:11:40Z</time></trkpt><trkpt lat="43.59784957399751" lon="6.8489914814283885"><ele>171.0</ele><time>2026-04-12T06:11:41Z</time></trkpt><trkpt lat="43.59797384719253" lon="6.848904003536617"><ele>172.0</ele><time>2026-04-12T06:11:42Z</time></trkpt><trkpt lat="43.59809655574537" lon="6.84883617652433"><ele>172.0</ele><time>2026-04-12T06:11:43Z</time></trkpt><trkpt lat="43.598223713719975" lon="6.848804340133083"><ele>172.0</ele><time>2026-04-12T06:11:44Z</time></trkpt><trkpt lat="43.5983374715646" lon="6.848731710075413"><ele>172.0</ele><time>2026-04-12T06:11:45Z</time></trkpt><trkpt lat="43.59842234341608" lon="6.84859619607725"><ele>172.0</ele><time>2026-04-12T06:11:46Z</time></trkpt><trkpt lat="43.59845805066612" lon="6.8484098854481505"><ele>167.0</ele><time>2026-04-12T06:11:47Z</time></trkpt><trkpt lat="43.59846005865278" lon="6.848221194299745"><ele>162.0</ele><time>2026-04-12T06:11:48Z</time></trkpt><trkpt lat="43.59845464689756" lon="6.848046374827203"><ele>157.0</ele><time>2026-04-12T06:11:49Z</time></trkpt><trkpt lat="43.598463295182775" lon="6.847871381149572"><ele>152.0</ele><time>2026-04-12T06:11:50Z</time></trkpt><trkpt lat="43.59847749415079" lon="6.847692075540549"><ele>149.75</ele><time>2026-04-12T06:11:51Z</time></trkpt><trkpt lat="43.59849125432372" lon="6.847507866959649"><ele>147.5</ele><time>2026-04-12T06:11:52Z</time></trkpt><trkpt lat="43.598505773317" lon="6.847323293776222"><ele>145.25</ele><time>2026-04-12T06:11:53Z</time></trkpt><trkpt lat="43.598511885469286" lon="6.8471330073832"><ele>143.0</ele><time>2026-04-12T06:11:54Z</time></trkpt><trkpt lat="43.59851152922589" lon="6.8469572332103175"><ele>143.0</ele><time>2026-04-12T06:11:55Z</time></trkpt><trkpt lat="43.598512839201966" lon="6.846798573712823"><ele>143.0</ele><time>2026-04-12T06:11:56Z</time></trkpt><trkpt lat="43.59853470863903" lon="6.846654765300237"><ele>143.0</ele><time>2026-04-12T06:11:57Z</time></trkpt><trkpt lat="43.59860353289096" lon="6.846524767357715"><ele>143.0</ele><time>2026-04-12T06:11:58Z</time></trkpt><trkpt lat="43.598732991038034" lon="6.846459225072507"><ele>142.20000000000002</ele><time>2026-04-12T06:11:59Z</time></trkpt><trkpt lat="43.598856091911685" lon="6.846454644181618"><ele>141.4</ele><time>2026-04-12T06:12:00Z</time></trkpt><trkpt lat="43.59896829842655" lon="6.8464759954578245"><ele>140.60000000000002</ele><time>2026-04-12T06:12:01Z</time></trkpt><trkpt lat="43.599067046008216" lon="6.846509730029533"><ele>139.8</ele><time>2026-04-12T06:12:02Z</time></trkpt><trkpt lat="43.59914186241631" lon="6.846608221653796"><ele>139.0</ele><time>2026-04-12T06:12:03Z</time></trkpt><trkpt lat="43.5991786695404" lon="6.8467476819185995"><ele>143.25</ele><time>2026-04-12T06:12:04Z</time></trkpt><trkpt lat="43.59916278182245" lon="6.846906127600919"><ele>147.5</ele><time>2026-04-12T06:12:05Z</time></trkpt><trkpt lat="43.59919079631736" lon="6.84704436593102"><ele>151.75</ele><time>2026-04-12T06:12:06Z</time></trkpt><trkpt lat="43.59928153644818" lon="6.84715371485827"><ele>156.0</ele><time>2026-04-12T06:12:07Z</time></trkpt><trkpt lat="43.59940540792925" lon="6.84716901485084"><ele>158.0</ele><time>2026-04-12T06:12:08Z</time></trkpt><trkpt lat="43.59950348702635" lon="6.847131337643084"><ele>160.0</ele><time>2026-04-12T06:12:09Z</time></trkpt><trkpt lat="43.59958732989412" lon="6.847042437636654"><ele>162.0</ele><time>2026-04-12T06:12:10Z</time></trkpt><trkpt lat="43.59968215888801" lon="6.846986691482499"><ele>164.0</ele><time>2026-04-12T06:12:11Z</time></trkpt><trkpt lat="43.599774957785755" lon="6.846909115097207"><ele>166.0</ele><time>2026-04-12T06:12:12Z</time></trkpt><trkpt lat="43.599870474016136" lon="6.846829267077885"><ele>158.0</ele><time>2026-04-12T06:12:13Z</time></trkpt><trkpt lat="43.59996861912171" lon="6.8467486194296585"><ele>150.0</ele><time>2026-04-12T06:12:14Z</time></trkpt><trkpt lat="43.600072924661774" lon="6.846667989724907"><ele>142.0</ele><time>2026-04-12T06:12:15Z</time></trkpt><trkpt lat="43.60018495343352" lon="6.846588603396922"><ele>134.0</ele><time>2026-04-12T06:12:16Z</time></trkpt><trkpt lat="43.600302251335464" lon="6.846510512966769"><ele>135.25</ele><time>2026-04-12T06:12:17Z</time></trkpt><trkpt lat="43.600437767140136" lon="6.846499737878694"><ele>136.5</ele><time>2026-04-12T06:12:18Z</time></trkpt><trkpt lat="43.600572046827324" lon="6.846460268469531"><ele>137.75</ele><time>2026-04-12T06:12:18.999Z</time></trkpt><trkpt lat="43.60071096885466" lon="6.846441245122022"><ele>139.0</ele><time>2026-04-12T06:12:19.999Z</time></trkpt><trkpt lat="43.600852240803995" lon="6.846436000648917"><ele>139.0</ele><time>2026-04-12T06:12:20.999Z</time></trkpt><trkpt lat="43.6009931815081" lon="6.846389043823516"><ele>139.0</ele><time>2026-04-12T06:12:21.999Z</time></trkpt><trkpt lat="43.60112469470374" lon="6.846301620216252"><ele>139.0</ele><time>2026-04-12T06:12:22.999Z</time></trkpt><trkpt lat="43.601256730850544" lon="6.846216814779957"><ele>139.0</ele><time>2026-04-12T06:12:23.999Z</time></trkpt><trkpt lat="43.60138590431177" lon="6.846121792979928"><ele>139.0</ele><time>2026-04-12T06:12:24.999Z</time></trkpt><trkpt lat="43.60151247479696" lon="6.846023881633722"><ele>139.0</ele><time>2026-04-12T06:12:25.999Z</time></trkpt><trkpt lat="43.601632381162794" lon="6.845913156503172"><ele>139.0</ele><time>2026-04-12T06:12:26.999Z</time></trkpt><trkpt lat="43.60173562938121" lon="6.845783906940657"><ele>139.0</ele><time>2026-04-12T06:12:27.999Z</time></trkpt><trkpt lat="43.60181792343839" lon="6.845620915545111"><ele>134.75</ele><time>2026-04-12T06:12:28.999Z</time></trkpt><trkpt lat="43.60186677693597" lon="6.845433439851905"><ele>130.5</ele><time>2026-04-12T06:12:29.999Z</time></trkpt><trkpt lat="43.601903344428486" lon="6.845253398054047"><ele>126.25</ele><time>2026-04-12T06:12:30.999Z</time></trkpt><trkpt lat="43.601939020462446" lon="6.845073375075928"><ele>122.0</ele><time>2026-04-12T06:12:31.999Z</time></trkpt><trkpt lat="43.60195851201092" lon="6.844887444913579"><ele>117.5</ele><time>2026-04-12T06:12:32.999Z</time></trkpt><trkpt lat="43.60195392029803" lon="6.844695833290785"><ele>113.0</ele><time>2026-04-12T06:12:33.999Z</time></trkpt><trkpt lat="43.6019373759482" lon="6.8445072532976585"><ele>108.5</ele><time>2026-04-12T06:12:34.999Z</time></trkpt><trkpt lat="43.6019151201763" lon="6.844316945031486"><ele>104.0</ele><time>2026-04-12T06:12:35.999Z</time></trkpt><trkpt lat="43.60189396163714" lon="6.844121861240941"><ele>103.75</ele><time>2026-04-12T06:12:36.999Z</time></trkpt><trkpt lat="43.60188375229647" lon="6.843924754260692"><ele>103.5</ele><time>2026-04-12T06:12:37.999Z</time></trkpt><trkpt lat="43.60187223526355" lon="6.843722616899983"><ele>103.25</ele><time>2026-04-12T06:12:38.999Z</time></trkpt><trkpt lat="43.601850908040156" lon="6.843520908750214"><ele>103.0</ele><time>2026-04-12T06:12:39.999Z</time></trkpt><trkpt lat="43.60182503414287" lon="6.843318022985026"><ele>102.80000000000001</ele><time>2026-04-12T06:12:40.999Z</time></trkpt><trkpt lat="43.60179356685298" lon="6.84313305111754"><ele>102.6</ele><time>2026-04-12T06:12:41.999Z</time></trkpt><trkpt lat="43.60176030787907" lon="6.842984090788099"><ele>102.4</ele><time>2026-04-12T06:12:42.999Z</time></trkpt><trkpt lat="43.60174902129028" lon="6.84285982050976"><ele>102.19999999999999</ele><time>2026-04-12T06:12:43.999Z</time></trkpt><trkpt lat="43.601746375038715" lon="6.842749475926954"><ele>102.0</ele><time>2026-04-12T06:12:44.999Z</time></trkpt><trkpt lat="43.601768622057435" lon="6.842630777061646"><ele>102.5</ele><time>2026-04-12T06:12:45.999Z</time></trkpt><trkpt lat="43.601881094813045" lon="6.842569278243742"><ele>103.0</ele><time>2026-04-12T06:12:46.999Z</time></trkpt><trkpt lat="43.60199446852718" lon="6.842561525025442"><ele>103.5</ele><time>2026-04-12T06:12:47.999Z</time></trkpt><trkpt lat="43.60211139059543" lon="6.842529092252857"><ele>104.0</ele><time>2026-04-12T06:12:48.999Z</time></trkpt><trkpt lat="43.60222851269897" lon="6.842494747208792"><ele>104.0</ele><time>2026-04-12T06:12:49.999Z</time></trkpt><trkpt lat="43.602345531056145" lon="6.842454187601273"><ele>104.0</ele><time>2026-04-12T06:12:50.999Z</time></trkpt><trkpt lat="43.60246006492607" lon="6.842391140149182"><ele>104.0</ele><time>2026-04-12T06:12:51.999Z</time></trkpt><trkpt lat="43.60258716022663" lon="6.842380008239612"><ele>104.0</ele><time>2026-04-12T06:12:52.999Z</time></trkpt><trkpt lat="43.60271553970208" lon="6.84236321280417"><ele>103.25</ele><time>2026-04-12T06:12:53.999Z</time></trkpt><trkpt lat="43.60284535855193" lon="6.842359913846309"><ele>102.5</ele><time>2026-04-12T06:12:54.999Z</time></trkpt><trkpt lat="43.60298351185161" lon="6.842355436407"><ele>101.75</ele><time>2026-04-12T06:12:55.999Z</time></trkpt><trkpt lat="43.603123900062286" lon="6.8423461788854105"><ele>101.0</ele><time>2026-04-12T06:12:56.999Z</time></trkpt><trkpt lat="43.603265731517894" lon="6.842334648014912"><ele>101.0</ele><time>2026-04-12T06:12:57.999Z</time></trkpt><trkpt lat="43.6034096858479" lon="6.8423316204765205"><ele>101.0</ele><time>2026-04-12T06:12:58.999Z</time></trkpt><trkpt lat="43.60355554276353" lon="6.842340394107464"><ele>101.0</ele><time>2026-04-12T06:12:59.999Z</time></trkpt><trkpt lat="43.603703612560366" lon="6.842351811467957"><ele>101.0</ele><time>2026-04-12T06:13:00.999Z</time></trkpt><trkpt lat="43.60385218049859" lon="6.842368732475973"><ele>98.0</ele><time>2026-04-12T06:13:01.999Z</time></trkpt><trkpt lat="43.60399950342259" lon="6.842391884976447"><ele>95.0</ele><time>2026-04-12T06:13:02.999Z</time></trkpt><trkpt lat="43.60413600125993" lon="6.842422185029075"><ele>92.0</ele><time>2026-04-12T06:13:03.999Z</time></trkpt><trkpt lat="43.60426002539763" lon="6.842454447516289"><ele>89.0</ele><time>2026-04-12T06:13:04.999Z</time></trkpt><trkpt lat="43.60437340138676" lon="6.842494889570667"><ele>89.0</ele><time>2026-04-12T06:13:05.999Z</time></trkpt><trkpt lat="43.604473042403875" lon="6.842551518417314"><ele>89.0</ele><time>2026-04-12T06:13:06.999Z</time></trkpt><trkpt lat="43.60454073994744" lon="6.8426529898039"><ele>89.0</ele><time>2026-04-12T06:13:07.999Z</time></trkpt><trkpt lat="43.6045908936318" lon="6.842794695251366"><ele>89.0</ele><time>2026-04-12T06:13:08.999Z</time></trkpt><trkpt lat="43.60456598513525" lon="6.842963716101869"><ele>89.0</ele><time>2026-04-12T06:13:09.999Z</time></trkpt><trkpt lat="43.60457384932498" lon="6.843134224739192"><ele>88.0</ele><time>2026-04-12T06:13:10.999Z</time></trkpt><trkpt lat="43.604600425044936" lon="6.843305872716713"><ele>87.0</ele><time>2026-04-12T06:13:11.999Z</time></trkpt><trkpt lat="43.60465541600659" lon="6.843468402858093"><ele>86.0</ele><time>2026-04-12T06:13:12.999Z</time></trkpt><trkpt lat="43.6047484333863" lon="6.843606005334285"><ele>85.0</ele><time>2026-04-12T06:13:13.999Z</time></trkpt><trkpt lat="43.60484869714597" lon="6.8437332497115975"><ele>85.0</ele><time>2026-04-12T06:13:14.999Z</time></trkpt><trkpt lat="43.6049224526753" lon="6.843891126442098"><ele>85.0</ele><time>2026-04-12T06:13:16Z</time></trkpt><trkpt lat="43.60499171838559" lon="6.844035140403833"><ele>85.0</ele><time>2026-04-12T06:13:17Z</time></trkpt><trkpt lat="43.60502740954452" lon="6.84418384295193"><ele>85.0</ele><time>2026-04-12T06:13:18Z</time></trkpt><trkpt lat="43.605078199821676" lon="6.8443167710076365"><ele>84.6</ele><time>2026-04-12T06:13:19Z</time></trkpt><trkpt lat="43.60512017906827" lon="6.8444397697266535"><ele>84.2</ele><time>2026-04-12T06:13:20Z</time></trkpt><trkpt lat="43.605186394134286" lon="6.844536700545223"><ele>83.80000000000001</ele><time>2026-04-12T06:13:21Z</time></trkpt><trkpt lat="43.60528551657845" lon="6.844581731694996"><ele>83.4</ele><time>2026-04-12T06:13:22Z</time></trkpt><trkpt lat="43.60539243897069" lon="6.844575626081133"><ele>83.0</ele><time>2026-04-12T06:13:23Z</time></trkpt><trkpt lat="43.60548426474961" lon="6.84445989562472"><ele>83.0</ele><time>2026-04-12T06:13:24Z</time></trkpt><trkpt lat="43.605563280677906" lon="6.84438436657898"><ele>83.0</ele><time>2026-04-12T06:13:25Z</time></trkpt><trkpt lat="43.60564758825434" lon="6.844332178439999"><ele>83.0</ele><time>2026-04-12T06:13:26Z</time></trkpt><trkpt lat="43.60574354460308" lon="6.8443128562852005"><ele>83.0</ele><time>2026-04-12T06:13:27Z</time></trkpt><trkpt lat="43.60583265470113" lon="6.844273327471831"><ele>83.0</ele><time>2026-04-12T06:13:28Z</time></trkpt><trkpt lat="43.60592024569685" lon="6.844355876408336"><ele>83.0</ele><time>2026-04-12T06:13:29Z</time></trkpt><trkpt lat="43.6059944665571" lon="6.84444333732768"><ele>83.0</ele><time>2026-04-12T06:13:30Z</time></trkpt><trkpt lat="43.606080882389506" lon="6.844521413932883"><ele>83.0</ele><time>2026-04-12T06:13:31Z</time></trkpt><trkpt lat="43.606184073540064" lon="6.844581783704058"><ele>83.0</ele><time>2026-04-12T06:13:32Z</time></trkpt><trkpt lat="43.60627573797336" lon="6.844658986613528"><ele>83.0</ele><time>2026-04-12T06:13:33Z</time></trkpt><trkpt lat="43.60636596068764" lon="6.844756806006439"><ele>82.75</ele><time>2026-04-12T06:13:34Z</time></trkpt><trkpt lat="43.606462661642134" lon="6.844838890163837"><ele>82.5</ele><time>2026-04-12T06:13:35Z</time></trkpt><trkpt lat="43.606557183654566" lon="6.844929907509139"><ele>82.25</ele><time>2026-04-12T06:13:36Z</time></trkpt><trkpt lat="43.60665258697748" lon="6.845009001398614"><ele>82.0</ele><time>2026-04-12T06:13:37Z</time></trkpt><trkpt lat="43.606737402044885" lon="6.845112353346314"><ele>80.75</ele><time>2026-04-12T06:13:38Z</time></trkpt><trkpt lat="43.6068044967942" lon="6.845240595111216"><ele>79.5</ele><time>2026-04-12T06:13:39Z</time></trkpt><trkpt lat="43.60690036676976" lon="6.8453316713569885"><ele>78.25</ele><time>2026-04-12T06:13:40Z</time></trkpt><trkpt lat="43.60698881599605" lon="6.8454296388312885"><ele>77.0</ele><time>2026-04-12T06:13:41Z</time></trkpt><trkpt lat="43.60709538618544" lon="6.845502460629949"><ele>76.0</ele><time>2026-04-12T06:13:42Z</time></trkpt><trkpt lat="43.607213497437805" lon="6.845551608769609"><ele>75.0</ele><time>2026-04-12T06:13:43Z</time></trkpt><trkpt lat="43.60733744234426" lon="6.845580774675137"><ele>74.0</ele><time>2026-04-12T06:13:44Z</time></trkpt><trkpt lat="43.60746110411023" lon="6.84558683592076"><ele>73.0</ele><time>2026-04-12T06:13:45Z</time></trkpt><trkpt lat="43.60758509651948" lon="6.84557281231248"><ele>73.0</ele><time>2026-04-12T06:13:46Z</time></trkpt><trkpt lat="43.60770441271911" lon="6.845545569537466"><ele>73.0</ele><time>2026-04-12T06:13:47Z</time></trkpt><trkpt lat="43.60782249090332" lon="6.845516259594052"><ele>73.0</ele><time>2026-04-12T06:13:48Z</time></trkpt><trkpt lat="43.60793735806675" lon="6.845490160155153"><ele>73.0</ele><time>2026-04-12T06:13:49Z</time></trkpt><trkpt lat="43.60805114961218" lon="6.845457073191014"><ele>73.25</ele><time>2026-04-12T06:13:50Z</time></trkpt><trkpt lat="43.60816023335096" lon="6.84542133712438"><ele>73.5</ele><time>2026-04-12T06:13:51Z</time></trkpt><trkpt lat="43.60827963699133" lon="6.845401206330203"><ele>73.75</ele><time>2026-04-12T06:13:52Z</time></trkpt><trkpt lat="43.60839400070309" lon="6.845362388567453"><ele>74.0</ele><time>2026-04-12T06:13:53Z</time></trkpt><trkpt lat="43.60851121630665" lon="6.845322602821184"><ele>74.0</ele><time>2026-04-12T06:13:54Z</time></trkpt><trkpt lat="43.608627179768874" lon="6.845279828876616"><ele>74.0</ele><time>2026-04-12T06:13:55Z</time></trkpt><trkpt lat="43.608744507319734" lon="6.845224673725236"><ele>74.0</ele><time>2026-04-12T06:13:56Z</time></trkpt><trkpt lat="43.608861525865386" lon="6.845165351255896"><ele>74.0</ele><time>2026-04-12T06:13:57Z</time></trkpt><trkpt lat="43.60897738618894" lon="6.845108223995861"><ele>74.0</ele><time>2026-04-12T06:13:58Z</time></trkpt><trkpt lat="43.60909756078725" lon="6.845057504623957"><ele>74.0</ele><time>2026-04-12T06:13:59Z</time></trkpt><trkpt lat="43.60922200436316" lon="6.845025630015012"><ele>74.0</ele><time>2026-04-12T06:14:00Z</time></trkpt><trkpt lat="43.60934748968297" lon="6.844997369185177"><ele>74.0</ele><time>2026-04-12T06:14:01Z</time></trkpt><trkpt lat="43.60946357271281" lon="6.844927956602854"><ele>74.0</ele><time>2026-04-12T06:14:02Z</time></trkpt><trkpt lat="43.609581362768374" lon="6.844901210598402"><ele>74.0</ele><time>2026-04-12T06:14:03Z</time></trkpt><trkpt lat="43.60969913534089" lon="6.84485725363761"><ele>74.0</ele><time>2026-04-12T06:14:04Z</time></trkpt><trkpt lat="43.609813497340554" lon="6.844818600529375"><ele>74.0</ele><time>2026-04-12T06:14:05Z</time></trkpt><trkpt lat="43.609927242465446" lon="6.84478178274623"><ele>74.0</ele><time>2026-04-12T06:14:06Z</time></trkpt><trkpt lat="43.61004420176321" lon="6.844784703843161"><ele>74.0</ele><time>2026-04-12T06:14:07Z</time></trkpt><trkpt lat="43.610157723945974" lon="6.844821636843297"><ele>74.0</ele><time>2026-04-12T06:14:08Z</time></trkpt><trkpt lat="43.61027095404742" lon="6.844830505049056"><ele>74.0</ele><time>2026-04-12T06:14:09Z</time></trkpt><trkpt lat="43.61037812490219" lon="6.844870957606247"><ele>73.8</ele><time>2026-04-12T06:14:10Z</time></trkpt><trkpt lat="43.610475853776364" lon="6.844915685946677"><ele>73.60000000000001</ele><time>2026-04-12T06:14:11Z</time></trkpt><trkpt lat="43.610576112420766" lon="6.844965719548553"><ele>73.4</ele><time>2026-04-12T06:14:12Z</time></trkpt><trkpt lat="43.61067753585843" lon="6.845005314629931"><ele>73.2</ele><time>2026-04-12T06:14:13Z</time></trkpt><trkpt lat="43.610780405015376" lon="6.845000638495388"><ele>73.0</ele><time>2026-04-12T06:14:14Z</time></trkpt><trkpt lat="43.61087096877411" lon="6.844945937948861"><ele>73.0</ele><time>2026-04-12T06:14:15Z</time></trkpt><trkpt lat="43.610942076474146" lon="6.844854400006798"><ele>73.0</ele><time>2026-04-12T06:14:16Z</time></trkpt><trkpt lat="43.61101199514974" lon="6.844788233544491"><ele>73.0</ele><time>2026-04-12T06:14:17Z</time></trkpt><trkpt lat="43.61107892013707" lon="6.84471793125813"><ele>73.0</ele><time>2026-04-12T06:14:18Z</time></trkpt><trkpt lat="43.61113509678575" lon="6.844634328950685"><ele>73.0</ele><time>2026-04-12T06:14:19Z</time></trkpt><trkpt lat="43.611207287361935" lon="6.844608778080188"><ele>73.0</ele><time>2026-04-12T06:14:20Z</time></trkpt><trkpt lat="43.61127123787076" lon="6.844575771274927"><ele>73.0</ele><time>2026-04-12T06:14:21Z</time></trkpt><trkpt lat="43.61133874125859" lon="6.8445402352060984"><ele>73.0</ele><time>2026-04-12T06:14:22Z</time></trkpt><trkpt lat="43.611403640309625" lon="6.844506070691815"><ele>73.0</ele><time>2026-04-12T06:14:23Z</time></trkpt><trkpt lat="43.611466692514284" lon="6.844473858822024"><ele>73.0</ele><time>2026-04-12T06:14:23.999Z</time></trkpt><trkpt lat="43.61152741417129" lon="6.844442905444001"><ele>73.0</ele><time>2026-04-12T06:14:24.999Z</time></trkpt><trkpt lat="43.6115873982592" lon="6.844412328038668"><ele>73.0</ele><time>2026-04-12T06:14:25.999Z</time></trkpt><trkpt lat="43.61170102394778" lon="6.844354406380734"><ele>73.0</ele><time>2026-04-12T06:14:27.999Z</time></trkpt><trkpt lat="43.611762587669766" lon="6.844323023682598"><ele>73.0</ele><time>2026-04-12T06:14:28.999Z</time></trkpt><trkpt lat="43.611880102343875" lon="6.844261743792942"><ele>73.0</ele><time>2026-04-12T06:14:30.999Z</time></trkpt><trkpt lat="43.611995924349436" lon="6.844200778600002"><ele>73.0</ele><time>2026-04-12T06:14:32.999Z</time></trkpt><trkpt lat="43.61210867788497" lon="6.844141428732367"><ele>73.0</ele><time>2026-04-12T06:14:34.999Z</time></trkpt><trkpt lat="43.612218412792814" lon="6.844081419766675"><ele>74.2</ele><time>2026-04-12T06:14:36.999Z</time></trkpt><trkpt lat="43.61231820037092" lon="6.84401425406119"><ele>75.4</ele><time>2026-04-12T06:14:38.999Z</time></trkpt><trkpt lat="43.61235674674123" lon="6.843944661484372"><ele>76.60000000000001</ele><time>2026-04-12T06:14:39.999Z</time></trkpt><trkpt lat="43.61243688281245" lon="6.843847321324793"><ele>77.8</ele><time>2026-04-12T06:14:41.999Z</time></trkpt><trkpt lat="43.612472422742705" lon="6.8437227629512325"><ele>79.0</ele><time>2026-04-12T06:14:43.999Z</time></trkpt><trkpt lat="43.612467650448885" lon="6.8435996292513845"><ele>79.0</ele><time>2026-04-12T06:14:45.999Z</time></trkpt><trkpt lat="43.61243168404815" lon="6.843480173944152"><ele>79.0</ele><time>2026-04-12T06:14:47.999Z</time></trkpt><trkpt lat="43.612375495232506" lon="6.843369843724663"><ele>79.0</ele><time>2026-04-12T06:14:49.999Z</time></trkpt><trkpt lat="43.61229058255479" lon="6.843300245860749"><ele>79.0</ele><time>2026-04-12T06:14:51.999Z</time></trkpt><trkpt lat="43.612192940212815" lon="6.843274951110048"><ele>79.0</ele><time>2026-04-12T06:14:53.999Z</time></trkpt><trkpt lat="43.61209554416607" lon="6.843249302566555"><ele>80.2</ele><time>2026-04-12T06:14:55.999Z</time></trkpt><trkpt lat="43.61199787360554" lon="6.843226761618969"><ele>81.4</ele><time>2026-04-12T06:14:57.999Z</time></trkpt><trkpt lat="43.61189837283871" lon="6.8432016026994384"><ele>82.6</ele><time>2026-04-12T06:14:59.999Z</time></trkpt><trkpt lat="43.6118029402479" lon="6.843159090808214"><ele>83.8</ele><time>2026-04-12T06:15:01.999Z</time></trkpt><trkpt lat="43.611714020666376" lon="6.843073045231154"><ele>85.0</ele><time>2026-04-12T06:15:03.999Z</time></trkpt><trkpt lat="43.61164798618793" lon="6.8429851675550735"><ele>88.0</ele><time>2026-04-12T06:15:05.999Z</time></trkpt><trkpt lat="43.61160264837813" lon="6.842873675641261"><ele>91.0</ele><time>2026-04-12T06:15:07.999Z</time></trkpt><trkpt lat="43.61155054094527" lon="6.842767162251823"><ele>94.0</ele><time>2026-04-12T06:15:09.999Z</time></trkpt><trkpt lat="43.61149780022112" lon="6.842628342365498"><ele>97.0</ele><time>2026-04-12T06:15:11.999Z</time></trkpt><trkpt lat="43.611496590724485" lon="6.8424743705525986"><ele>100.0</ele><time>2026-04-12T06:15:13.999Z</time></trkpt><trkpt lat="43.61147714022304" lon="6.842334515493084"><ele>100.0</ele><time>2026-04-12T06:15:15.999Z</time></trkpt><trkpt lat="43.611460405012785" lon="6.842216650795585"><ele>100.0</ele><time>2026-04-12T06:15:17.999Z</time></trkpt><trkpt lat="43.611466403224064" lon="6.84201507783405"><ele>100.0</ele><time>2026-04-12T06:15:19.999Z</time></trkpt><trkpt lat="43.61149809594401" lon="6.841876392148453"><ele>100.0</ele><time>2026-04-12T06:15:22Z</time></trkpt><trkpt lat="43.61150134117045" lon="6.841737560087338"><ele>100.0</ele><time>2026-04-12T06:15:24Z</time></trkpt><trkpt lat="43.61150939881365" lon="6.841598470700745"><ele>100.0</ele><time>2026-04-12T06:15:26Z</time></trkpt><trkpt lat="43.6115171962699" lon="6.8414608629707905"><ele>100.0</ele><time>2026-04-12T06:15:28Z</time></trkpt><trkpt lat="43.61153524244609" lon="6.841329397682179"><ele>100.0</ele><time>2026-04-12T06:15:30Z</time></trkpt><trkpt lat="43.61152816545177" lon="6.841192775971521"><ele>100.0</ele><time>2026-04-12T06:15:32Z</time></trkpt><trkpt lat="43.61154393613544" lon="6.841050697186093"><ele>100.0</ele><time>2026-04-12T06:15:34Z</time></trkpt><trkpt lat="43.611583346842366" lon="6.840917146316119"><ele>102.0</ele><time>2026-04-12T06:15:36Z</time></trkpt><trkpt lat="43.6116509730722" lon="6.840904813261366"><ele>104.0</ele><time>2026-04-12T06:15:37Z</time></trkpt><trkpt lat="43.61173433451166" lon="6.840856368600798"><ele>106.0</ele><time>2026-04-12T06:15:39Z</time></trkpt><trkpt lat="43.61182024256449" lon="6.840760385982014"><ele>108.0</ele><time>2026-04-12T06:15:41Z</time></trkpt><trkpt lat="43.61187378055227" lon="6.840610881334173"><ele>110.0</ele><time>2026-04-12T06:15:43Z</time></trkpt><trkpt lat="43.611869076702035" lon="6.840464063879335"><ele>110.0</ele><time>2026-04-12T06:15:45Z</time></trkpt><trkpt lat="43.61189097100094" lon="6.840337325990932"><ele>110.0</ele><time>2026-04-12T06:15:47Z</time></trkpt><trkpt lat="43.61194012334884" lon="6.840215866850575"><ele>110.0</ele><time>2026-04-12T06:15:49Z</time></trkpt><trkpt lat="43.612022643621" lon="6.8402143124153"><ele>110.0</ele><time>2026-04-12T06:15:50Z</time></trkpt><trkpt lat="43.612107762362825" lon="6.840272337272063"><ele>110.0</ele><time>2026-04-12T06:15:52Z</time></trkpt><trkpt lat="43.612202828001514" lon="6.840301671213662"><ele>108.49999999999999</ele><time>2026-04-12T06:15:54Z</time></trkpt><trkpt lat="43.61227436491812" lon="6.840294839365318"><ele>107.0</ele><time>2026-04-12T06:15:55Z</time></trkpt><trkpt lat="43.612333089408445" lon="6.840245367251047"><ele>105.5</ele><time>2026-04-12T06:15:56Z</time></trkpt><trkpt lat="43.612358864461626" lon="6.840140510935324"><ele>104.0</ele><time>2026-04-12T06:15:57Z</time></trkpt><trkpt lat="43.612352798775134" lon="6.839990682638163"><ele>102.49999999999999</ele><time>2026-04-12T06:15:59Z</time></trkpt><trkpt lat="43.61236737845157" lon="6.839862451322349"><ele>101.0</ele><time>2026-04-12T06:16:01Z</time></trkpt><trkpt lat="43.61238804767928" lon="6.83973224779542"><ele>101.0</ele><time>2026-04-12T06:16:03Z</time></trkpt><trkpt lat="43.61239923969751" lon="6.839583822114476"><ele>101.0</ele><time>2026-04-12T06:16:05Z</time></trkpt><trkpt lat="43.61243853791613" lon="6.839453872497423"><ele>101.0</ele><time>2026-04-12T06:16:07Z</time></trkpt><trkpt lat="43.61249067564162" lon="6.839327479820997"><ele>101.0</ele><time>2026-04-12T06:16:09Z</time></trkpt><trkpt lat="43.61250443053839" lon="6.839178579497325"><ele>101.0</ele><time>2026-04-12T06:16:11Z</time></trkpt><trkpt lat="43.61249686921789" lon="6.839035610363838"><ele>104.0</ele><time>2026-04-12T06:16:13Z</time></trkpt><trkpt lat="43.612472620700316" lon="6.838889904813274"><ele>107.0</ele><time>2026-04-12T06:16:15Z</time></trkpt><trkpt lat="43.61244717171725" lon="6.838754298664888"><ele>110.0</ele><time>2026-04-12T06:16:17Z</time></trkpt><trkpt lat="43.61242275541652" lon="6.838618601553287"><ele>113.0</ele><time>2026-04-12T06:16:19Z</time></trkpt><trkpt lat="43.6124386598019" lon="6.83846847962066"><ele>116.0</ele><time>2026-04-12T06:16:21Z</time></trkpt><trkpt lat="43.612536418723366" lon="6.838381640679678"><ele>113.8</ele><time>2026-04-12T06:16:23Z</time></trkpt><trkpt lat="43.61260449852708" lon="6.83839695228483"><ele>111.6</ele><time>2026-04-12T06:16:24Z</time></trkpt><trkpt lat="43.61270361935329" lon="6.838418004664516"><ele>109.4</ele><time>2026-04-12T06:16:26Z</time></trkpt><trkpt lat="43.6128157926815" lon="6.838407801925078"><ele>107.2</ele><time>2026-04-12T06:16:28Z</time></trkpt><trkpt lat="43.61293239254029" lon="6.838396929253627"><ele>105.0</ele><time>2026-04-12T06:16:29.999Z</time></trkpt><trkpt lat="43.61297954810224" lon="6.838311375981822"><ele>105.0</ele><time>2026-04-12T06:16:30.999Z</time></trkpt><trkpt lat="43.61306379082335" lon="6.8381950747989375"><ele>105.0</ele><time>2026-04-12T06:16:32.999Z</time></trkpt><trkpt lat="43.61314358699948" lon="6.838076687509187"><ele>105.0</ele><time>2026-04-12T06:16:34.999Z</time></trkpt><trkpt lat="43.613219635138556" lon="6.8379538313755726"><ele>105.0</ele><time>2026-04-12T06:16:36.999Z</time></trkpt><trkpt lat="43.61328867076391" lon="6.837825371054815"><ele>105.0</ele><time>2026-04-12T06:16:38.999Z</time></trkpt><trkpt lat="43.61336933473531" lon="6.837717551396562"><ele>105.0</ele><time>2026-04-12T06:16:40.999Z</time></trkpt><trkpt lat="43.613400314570164" lon="6.837567504909109"><ele>105.0</ele><time>2026-04-12T06:16:42.999Z</time></trkpt><trkpt lat="43.61344547489668" lon="6.837435319636515"><ele>105.0</ele><time>2026-04-12T06:16:44.999Z</time></trkpt><trkpt lat="43.61348940330975" lon="6.837316263641351"><ele>105.0</ele><time>2026-04-12T06:16:46.999Z</time></trkpt><trkpt lat="43.613535809006784" lon="6.837193237305179"><ele>103.2</ele><time>2026-04-12T06:16:48.999Z</time></trkpt><trkpt lat="43.613590006915636" lon="6.837074512573162"><ele>101.4</ele><time>2026-04-12T06:16:50.999Z</time></trkpt><trkpt lat="43.613633662976035" lon="6.83701071643823"><ele>99.6</ele><time>2026-04-12T06:16:51.999Z</time></trkpt><trkpt lat="43.61369581546472" lon="6.836895651007449"><ele>97.8</ele><time>2026-04-12T06:16:53.999Z</time></trkpt><trkpt lat="43.613759265081406" lon="6.836789623624469"><ele>96.0</ele><time>2026-04-12T06:16:55.999Z</time></trkpt><trkpt lat="43.61382108973139" lon="6.836671017925019"><ele>100.19999999999999</ele><time>2026-04-12T06:16:57.999Z</time></trkpt><trkpt lat="43.61389349869204" lon="6.836544400655702"><ele>104.39999999999999</ele><time>2026-04-12T06:16:59.999Z</time></trkpt><trkpt lat="43.613955424351765" lon="6.8364218792702"><ele>108.6</ele><time>2026-04-12T06:17:01.999Z</time></trkpt><trkpt lat="43.61401432513138" lon="6.8362990165480095"><ele>112.8</ele><time>2026-04-12T06:17:03.999Z</time></trkpt><trkpt lat="43.6140577998014" lon="6.8361671305092155"><ele>117.0</ele><time>2026-04-12T06:17:05.999Z</time></trkpt><trkpt lat="43.614074094613244" lon="6.83602368389766"><ele>118.39999999999999</ele><time>2026-04-12T06:17:07.999Z</time></trkpt><trkpt lat="43.61406162999224" lon="6.835880378689838"><ele>119.79999999999998</ele><time>2026-04-12T06:17:09.999Z</time></trkpt><trkpt lat="43.61404835104083" lon="6.835747440018996"><ele>121.2</ele><time>2026-04-12T06:17:11.999Z</time></trkpt><trkpt lat="43.61399568912755" lon="6.835623329364608"><ele>122.6</ele><time>2026-04-12T06:17:13.999Z</time></trkpt><trkpt lat="43.61395567748048" lon="6.835495564064313"><ele>124.0</ele><time>2026-04-12T06:17:15.999Z</time></trkpt><trkpt lat="43.613937180821395" lon="6.835409137435952"><ele>124.0</ele><time>2026-04-12T06:17:17.999Z</time></trkpt><trkpt lat="43.613865646834675" lon="6.835234022823545"><ele>124.0</ele><time>2026-04-12T06:17:19.999Z</time></trkpt><trkpt lat="43.61381211413795" lon="6.8351010799004905"><ele>124.0</ele><time>2026-04-12T06:17:21.999Z</time></trkpt><trkpt lat="43.61378345399492" lon="6.834956161282013"><ele>124.0</ele><time>2026-04-12T06:17:23.999Z</time></trkpt><trkpt lat="43.613731727730425" lon="6.834829369159502"><ele>123.2</ele><time>2026-04-12T06:17:25.999Z</time></trkpt><trkpt lat="43.61370004831372" lon="6.834687970916518"><ele>122.4</ele><time>2026-04-12T06:17:28Z</time></trkpt><trkpt lat="43.61365474826083" lon="6.834550365016157"><ele>121.6</ele><time>2026-04-12T06:17:30Z</time></trkpt><trkpt lat="43.6136153237951" lon="6.834419326538421"><ele>120.8</ele><time>2026-04-12T06:17:32Z</time></trkpt><trkpt lat="43.61357097464317" lon="6.834283261565424"><ele>120.0</ele><time>2026-04-12T06:17:34Z</time></trkpt><trkpt lat="43.613542517127364" lon="6.83414040525398"><ele>125.0</ele><time>2026-04-12T06:17:36Z</time></trkpt><trkpt lat="43.61350296646052" lon="6.834017740614881"><ele>130.0</ele><time>2026-04-12T06:17:38Z</time></trkpt><trkpt lat="43.613459807091964" lon="6.833893171262692"><ele>135.0</ele><time>2026-04-12T06:17:40Z</time></trkpt><trkpt lat="43.613432806313604" lon="6.833809698185166"><ele>140.0</ele><time>2026-04-12T06:17:41Z</time></trkpt><trkpt lat="43.61337237798815" lon="6.833773108627348"><ele>145.0</ele><time>2026-04-12T06:17:42Z</time></trkpt><trkpt lat="43.61328464192763" lon="6.8336830258967876"><ele>150.0</ele><time>2026-04-12T06:17:44Z</time></trkpt><trkpt lat="43.6132013988472" lon="6.833605830935038"><ele>150.0</ele><time>2026-04-12T06:17:46Z</time></trkpt><trkpt lat="43.61310926509421" lon="6.833524043092528"><ele>150.0</ele><time>2026-04-12T06:17:48Z</time></trkpt><trkpt lat="43.61302091411058" lon="6.833408460202138"><ele>150.0</ele><time>2026-04-12T06:17:50Z</time></trkpt><trkpt lat="43.61295029874526" lon="6.833277915626825"><ele>150.0</ele><time>2026-04-12T06:17:52Z</time></trkpt><trkpt lat="43.61287380764653" lon="6.833159050607138"><ele>153.75</ele><time>2026-04-12T06:17:54Z</time></trkpt><trkpt lat="43.61279518249408" lon="6.833032843636686"><ele>157.5</ele><time>2026-04-12T06:17:56Z</time></trkpt><trkpt lat="43.612709110754835" lon="6.832925674873967"><ele>161.25</ele><time>2026-04-12T06:17:58Z</time></trkpt><trkpt lat="43.61261787017669" lon="6.832821592915751"><ele>165.0</ele><time>2026-04-12T06:18:00Z</time></trkpt><trkpt lat="43.61253111666968" lon="6.832711514923754"><ele>160.5</ele><time>2026-04-12T06:18:02Z</time></trkpt><trkpt lat="43.61242824638976" lon="6.832630118443823"><ele>156.0</ele><time>2026-04-12T06:18:04Z</time></trkpt><trkpt lat="43.6123503865589" lon="6.832525941222788"><ele>151.5</ele><time>2026-04-12T06:18:06Z</time></trkpt><trkpt lat="43.61226019360583" lon="6.8324336021510055"><ele>147.0</ele><time>2026-04-12T06:18:08Z</time></trkpt><trkpt lat="43.61215862675543" lon="6.832355717980931"><ele>147.0</ele><time>2026-04-12T06:18:10Z</time></trkpt><trkpt lat="43.61206806157756" lon="6.832249171595523"><ele>147.0</ele><time>2026-04-12T06:18:12Z</time></trkpt><trkpt lat="43.611987133316866" lon="6.832146716767459"><ele>147.0</ele><time>2026-04-12T06:18:14Z</time></trkpt><trkpt lat="43.61191005948342" lon="6.8320416324597355"><ele>147.0</ele><time>2026-04-12T06:18:16Z</time></trkpt><trkpt lat="43.61184017689616" lon="6.83193901743873"><ele>147.0</ele><time>2026-04-12T06:18:18Z</time></trkpt><trkpt lat="43.61176742525617" lon="6.831855866756459"><ele>149.4</ele><time>2026-04-12T06:18:20Z</time></trkpt><trkpt lat="43.611686827131194" lon="6.831740124798569"><ele>151.79999999999998</ele><time>2026-04-12T06:18:22Z</time></trkpt><trkpt lat="43.61160847403226" lon="6.831656199135424"><ele>154.2</ele><time>2026-04-12T06:18:24Z</time></trkpt><trkpt lat="43.611520856652305" lon="6.83155482426385"><ele>156.6</ele><time>2026-04-12T06:18:26Z</time></trkpt><trkpt lat="43.6114390577526" lon="6.831451907663999"><ele>159.0</ele><time>2026-04-12T06:18:28Z</time></trkpt><trkpt lat="43.611365116202236" lon="6.831340427090037"><ele>159.0</ele><time>2026-04-12T06:18:30Z</time></trkpt><trkpt lat="43.611289533377885" lon="6.831234119465353"><ele>159.0</ele><time>2026-04-12T06:18:32Z</time></trkpt><trkpt lat="43.611218452125335" lon="6.831116964481938"><ele>159.0</ele><time>2026-04-12T06:18:34Z</time></trkpt><trkpt lat="43.611145741207785" lon="6.831003392633438"><ele>159.0</ele><time>2026-04-12T06:18:35.999Z</time></trkpt><trkpt lat="43.61106988369059" lon="6.830896972837375"><ele>159.0</ele><time>2026-04-12T06:18:37.999Z</time></trkpt><trkpt lat="43.61099153514913" lon="6.830797308724627"><ele>160.8</ele><time>2026-04-12T06:18:39.999Z</time></trkpt><trkpt lat="43.61090881413465" lon="6.8306950674027656"><ele>162.60000000000002</ele><time>2026-04-12T06:18:41.999Z</time></trkpt><trkpt lat="43.6108242128984" lon="6.830605348006699"><ele>164.4</ele><time>2026-04-12T06:18:43.999Z</time></trkpt><trkpt lat="43.610715681958006" lon="6.830491073691938"><ele>166.20000000000002</ele><time>2026-04-12T06:18:46.999Z</time></trkpt><trkpt lat="43.61065193190401" lon="6.830442870191754"><ele>168.0</ele><time>2026-04-12T06:18:47.999Z</time></trkpt><trkpt lat="43.6105531618944" lon="6.830377614853997"><ele>168.0</ele><time>2026-04-12T06:18:49.999Z</time></trkpt><trkpt lat="43.61048244922168" lon="6.830282129813869"><ele>168.0</ele><time>2026-04-12T06:18:52.999Z</time></trkpt><trkpt lat="43.61041607343384" lon="6.830183367644139"><ele>168.0</ele><time>2026-04-12T06:18:55.999Z</time></trkpt><trkpt lat="43.610209788147415" lon="6.830013000629457"><ele>168.0</ele><time>2026-04-12T06:18:57.999Z</time></trkpt><trkpt lat="43.610141713604044" lon="6.829895778619878"><ele>168.33333333333334</ele><time>2026-04-12T06:18:59.999Z</time></trkpt><trkpt lat="43.61008357756741" lon="6.829800427505368"><ele>168.66666666666666</ele><time>2026-04-12T06:19:01.999Z</time></trkpt><trkpt lat="43.610034195998715" lon="6.8297273890334305"><ele>169.0</ele><time>2026-04-12T06:19:02.999Z</time></trkpt><trkpt lat="43.60996612542015" lon="6.829610120243505"><ele>169.33333333333331</ele><time>2026-04-12T06:19:04.999Z</time></trkpt><trkpt lat="43.609902435875746" lon="6.829497365269797"><ele>169.66666666666666</ele><time>2026-04-12T06:19:06.999Z</time></trkpt><trkpt lat="43.609869094513016" lon="6.829421154210065"><ele>170.0</ele><time>2026-04-12T06:19:07.999Z</time></trkpt><trkpt lat="43.6098441264828" lon="6.829266550194408"><ele>170.0</ele><time>2026-04-12T06:19:09.999Z</time></trkpt><trkpt lat="43.60983402594485" lon="6.829107849288284"><ele>170.0</ele><time>2026-04-12T06:19:11.999Z</time></trkpt><trkpt lat="43.60982052424683" lon="6.828963069118869"><ele>170.0</ele><time>2026-04-12T06:19:13.999Z</time></trkpt><trkpt lat="43.60978874337361" lon="6.828886742491254"><ele>170.0</ele><time>2026-04-12T06:19:14.999Z</time></trkpt><trkpt lat="43.609728884596585" lon="6.82874125142972"><ele>170.0</ele><time>2026-04-12T06:19:16.999Z</time></trkpt><trkpt lat="43.609633860142104" lon="6.828633766789768"><ele>170.0</ele><time>2026-04-12T06:19:18.999Z</time></trkpt><trkpt lat="43.60953378282334" lon="6.8285454993278885"><ele>170.0</ele><time>2026-04-12T06:19:20.999Z</time></trkpt><trkpt lat="43.60948252528884" lon="6.828494116625068"><ele>170.0</ele><time>2026-04-12T06:19:21.999Z</time></trkpt><trkpt lat="43.60942979067697" lon="6.828442408271525"><ele>170.0</ele><time>2026-04-12T06:19:22.999Z</time></trkpt><trkpt lat="43.60937724683184" lon="6.828385765014641"><ele>170.0</ele><time>2026-04-12T06:19:23.999Z</time></trkpt><trkpt lat="43.60932597220278" lon="6.828330819146599"><ele>170.0</ele><time>2026-04-12T06:19:24.999Z</time></trkpt><trkpt lat="43.60927838256719" lon="6.828264416553567"><ele>170.0</ele><time>2026-04-12T06:19:25.999Z</time></trkpt><trkpt lat="43.60924238170941" lon="6.828192997424581"><ele>171.16666666666666</ele><time>2026-04-12T06:19:26.999Z</time></trkpt><trkpt lat="43.609215233042605" lon="6.828109376695383"><ele>172.33333333333331</ele><time>2026-04-12T06:19:27.999Z</time></trkpt><trkpt lat="43.609206292260346" lon="6.828019766363901"><ele>173.5</ele><time>2026-04-12T06:19:28.999Z</time></trkpt><trkpt lat="43.60920717821763" lon="6.827926675873231"><ele>174.66666666666666</ele><time>2026-04-12T06:19:29.999Z</time></trkpt><trkpt lat="43.60921907300966" lon="6.827761943292585"><ele>175.83333333333334</ele><time>2026-04-12T06:19:31.999Z</time></trkpt><trkpt lat="43.60922523476113" lon="6.827593522455045"><ele>177.0</ele><time>2026-04-12T06:19:34Z</time></trkpt><trkpt lat="43.60922216838457" lon="6.827506674995821"><ele>177.0</ele><time>2026-04-12T06:19:35Z</time></trkpt><trkpt lat="43.60919797048679" lon="6.827337784017365"><ele>177.0</ele><time>2026-04-12T06:19:37Z</time></trkpt><trkpt lat="43.60916591489635" lon="6.827260386523342"><ele>177.0</ele><time>2026-04-12T06:19:38Z</time></trkpt><trkpt lat="43.609130013965775" lon="6.827183833647153"><ele>177.0</ele><time>2026-04-12T06:19:39Z</time></trkpt><trkpt lat="43.60909095865552" lon="6.827109732107235"><ele>177.0</ele><time>2026-04-12T06:19:40Z</time></trkpt><trkpt lat="43.609049240995994" lon="6.827034634834804"><ele>177.0</ele><time>2026-04-12T06:19:41Z</time></trkpt><trkpt lat="43.6090016366024" lon="6.826959983641336"><ele>177.0</ele><time>2026-04-12T06:19:42Z</time></trkpt><trkpt lat="43.60895663798922" lon="6.8268896998900805"><ele>177.0</ele><time>2026-04-12T06:19:43Z</time></trkpt><trkpt lat="43.608908135041844" lon="6.826822861341028"><ele>177.0</ele><time>2026-04-12T06:19:44Z</time></trkpt><trkpt lat="43.60886064903807" lon="6.8267499821266835"><ele>177.0</ele><time>2026-04-12T06:19:45Z</time></trkpt><trkpt lat="43.60881077013209" lon="6.826678275203733"><ele>177.0</ele><time>2026-04-12T06:19:46Z</time></trkpt><trkpt lat="43.608758227839225" lon="6.826609641132398"><ele>177.0</ele><time>2026-04-12T06:19:47Z</time></trkpt><trkpt lat="43.608703150877915" lon="6.826538178089256"><ele>177.0</ele><time>2026-04-12T06:19:48Z</time></trkpt><trkpt lat="43.60864936641277" lon="6.826465222566137"><ele>176.16666666666666</ele><time>2026-04-12T06:19:49Z</time></trkpt><trkpt lat="43.60859323411538" lon="6.826391965197408"><ele>175.33333333333334</ele><time>2026-04-12T06:19:50Z</time></trkpt><trkpt lat="43.60853201410293" lon="6.82631848463546"><ele>174.5</ele><time>2026-04-12T06:19:51Z</time></trkpt><trkpt lat="43.60846863581147" lon="6.826242820119002"><ele>173.66666666666669</ele><time>2026-04-12T06:19:52Z</time></trkpt><trkpt lat="43.608405138318915" lon="6.826173978210698"><ele>172.83333333333334</ele><time>2026-04-12T06:19:53Z</time></trkpt><trkpt lat="43.608335389437116" lon="6.826105954800852"><ele>172.0</ele><time>2026-04-12T06:19:54Z</time></trkpt><trkpt lat="43.608269756452884" lon="6.8260301779381525"><ele>174.16666666666669</ele><time>2026-04-12T06:19:55Z</time></trkpt><trkpt lat="43.608207224963024" lon="6.825948571163613"><ele>176.33333333333334</ele><time>2026-04-12T06:19:56Z</time></trkpt><trkpt lat="43.60814858372868" lon="6.82586417959477"><ele>178.5</ele><time>2026-04-12T06:19:57Z</time></trkpt><trkpt lat="43.60809049560923" lon="6.825773257770376"><ele>180.66666666666666</ele><time>2026-04-12T06:19:58Z</time></trkpt><trkpt lat="43.60802945218566" lon="6.8256866989072815"><ele>182.83333333333331</ele><time>2026-04-12T06:19:59Z</time></trkpt><trkpt lat="43.607966792765176" lon="6.82560143569506"><ele>185.0</ele><time>2026-04-12T06:20:00Z</time></trkpt><trkpt lat="43.60790094579357" lon="6.825515779057527"><ele>185.0</ele><time>2026-04-12T06:20:01Z</time></trkpt><trkpt lat="43.60783213123045" lon="6.825436520684654"><ele>185.0</ele><time>2026-04-12T06:20:02Z</time></trkpt><trkpt lat="43.6077636608049" lon="6.825355618886002"><ele>185.0</ele><time>2026-04-12T06:20:03Z</time></trkpt><trkpt lat="43.607697116788515" lon="6.8252759065373025"><ele>185.0</ele><time>2026-04-12T06:20:04Z</time></trkpt><trkpt lat="43.60762852272273" lon="6.825191627103281"><ele>185.0</ele><time>2026-04-12T06:20:05Z</time></trkpt><trkpt lat="43.60755937939203" lon="6.825107167145235"><ele>184.0</ele><time>2026-04-12T06:20:06Z</time></trkpt><trkpt lat="43.60748587614569" lon="6.825028037433078"><ele>183.0</ele><time>2026-04-12T06:20:07Z</time></trkpt><trkpt lat="43.60741040308281" lon="6.824953312004876"><ele>182.0</ele><time>2026-04-12T06:20:08Z</time></trkpt><trkpt lat="43.60733401042888" lon="6.824874204635673"><ele>181.0</ele><time>2026-04-12T06:20:09Z</time></trkpt><trkpt lat="43.60725715313502" lon="6.824789401222961"><ele>180.0</ele><time>2026-04-12T06:20:10Z</time></trkpt><trkpt lat="43.60718631695653" lon="6.824699973697755"><ele>180.0</ele><time>2026-04-12T06:20:11Z</time></trkpt><trkpt lat="43.60711759192328" lon="6.824601079157626"><ele>180.0</ele><time>2026-04-12T06:20:12Z</time></trkpt><trkpt lat="43.60705476294771" lon="6.82449320240216"><ele>180.0</ele><time>2026-04-12T06:20:13Z</time></trkpt><trkpt lat="43.607002519389404" lon="6.824372346648177"><ele>180.0</ele><time>2026-04-12T06:20:14Z</time></trkpt><trkpt lat="43.606955329635255" lon="6.824250171733022"><ele>180.0</ele><time>2026-04-12T06:20:15Z</time></trkpt><trkpt lat="43.606913485310805" lon="6.824123975181994"><ele>177.8</ele><time>2026-04-12T06:20:16Z</time></trkpt><trkpt lat="43.606875771112385" lon="6.82399966131268"><ele>175.6</ele><time>2026-04-12T06:20:17Z</time></trkpt><trkpt lat="43.60683902505506" lon="6.823874548648795"><ele>173.39999999999998</ele><time>2026-04-12T06:20:18Z</time></trkpt><trkpt lat="43.60679745590619" lon="6.823750952012037"><ele>171.2</ele><time>2026-04-12T06:20:19Z</time></trkpt><trkpt lat="43.60675152765497" lon="6.8236287087110945"><ele>169.0</ele><time>2026-04-12T06:20:20Z</time></trkpt><trkpt lat="43.6067061514999" lon="6.823505729242662"><ele>171.2</ele><time>2026-04-12T06:20:21Z</time></trkpt><trkpt lat="43.606659810396756" lon="6.823374837049075"><ele>173.39999999999998</ele><time>2026-04-12T06:20:22Z</time></trkpt><trkpt lat="43.60660848198611" lon="6.823255806019138"><ele>175.6</ele><time>2026-04-12T06:20:23Z</time></trkpt><trkpt lat="43.606555208545025" lon="6.823135864170621"><ele>177.8</ele><time>2026-04-12T06:20:24Z</time></trkpt><trkpt lat="43.60649640450965" lon="6.823026413571744"><ele>180.0</ele><time>2026-04-12T06:20:25Z</time></trkpt><trkpt lat="43.606434020211225" lon="6.822919716622001"><ele>180.0</ele><time>2026-04-12T06:20:26Z</time></trkpt><trkpt lat="43.60637077321217" lon="6.822807552662533"><ele>180.0</ele><time>2026-04-12T06:20:27Z</time></trkpt><trkpt lat="43.60631000027387" lon="6.822697436873221"><ele>180.0</ele><time>2026-04-12T06:20:28Z</time></trkpt><trkpt lat="43.60625027392298" lon="6.822582514204101"><ele>180.0</ele><time>2026-04-12T06:20:29Z</time></trkpt><trkpt lat="43.60618404470781" lon="6.822471210206066"><ele>180.0</ele><time>2026-04-12T06:20:30Z</time></trkpt><trkpt lat="43.60611761983989" lon="6.822355151161532"><ele>179.4</ele><time>2026-04-12T06:20:31Z</time></trkpt><trkpt lat="43.60605365230755" lon="6.822247994521978"><ele>178.8</ele><time>2026-04-12T06:20:32Z</time></trkpt><trkpt lat="43.60599592688681" lon="6.822127087200805"><ele>178.2</ele><time>2026-04-12T06:20:33Z</time></trkpt><trkpt lat="43.605933334014146" lon="6.8220168878145895"><ele>177.6</ele><time>2026-04-12T06:20:34Z</time></trkpt><trkpt lat="43.60586772113466" lon="6.821910643063682"><ele>177.0</ele><time>2026-04-12T06:20:35Z</time></trkpt><trkpt lat="43.60580480838807" lon="6.821804039810328"><ele>177.0</ele><time>2026-04-12T06:20:36Z</time></trkpt><trkpt lat="43.60574119849667" lon="6.8216991080647915"><ele>177.0</ele><time>2026-04-12T06:20:37Z</time></trkpt><trkpt lat="43.60568341916068" lon="6.821585742613643"><ele>177.0</ele><time>2026-04-12T06:20:38Z</time></trkpt><trkpt lat="43.605639174776506" lon="6.821459454375368"><ele>177.0</ele><time>2026-04-12T06:20:39Z</time></trkpt><trkpt lat="43.60561120786013" lon="6.821323421177967"><ele>177.0</ele><time>2026-04-12T06:20:40Z</time></trkpt><trkpt lat="43.60558016866935" lon="6.8211950131474035"><ele>177.0</ele><time>2026-04-12T06:20:41Z</time></trkpt><trkpt lat="43.60554451662939" lon="6.821065542339364"><ele>177.0</ele><time>2026-04-12T06:20:41.999Z</time></trkpt><trkpt lat="43.605511039102545" lon="6.820936407714133"><ele>177.0</ele><time>2026-04-12T06:20:42.999Z</time></trkpt><trkpt lat="43.60547986043966" lon="6.820810772103501"><ele>177.0</ele><time>2026-04-12T06:20:43.999Z</time></trkpt><trkpt lat="43.60546332046348" lon="6.82067487213627"><ele>177.0</ele><time>2026-04-12T06:20:44.999Z</time></trkpt><trkpt lat="43.60546371002" lon="6.820537275248268"><ele>179.2</ele><time>2026-04-12T06:20:45.999Z</time></trkpt><trkpt lat="43.60547848283337" lon="6.820400550468688"><ele>181.39999999999998</ele><time>2026-04-12T06:20:46.999Z</time></trkpt><trkpt lat="43.60549621836154" lon="6.82026749707992"><ele>183.60000000000002</ele><time>2026-04-12T06:20:47.999Z</time></trkpt><trkpt lat="43.60551447650325" lon="6.82013951816043"><ele>185.8</ele><time>2026-04-12T06:20:48.999Z</time></trkpt><trkpt lat="43.60553154198276" lon="6.820012204456842"><ele>188.0</ele><time>2026-04-12T06:20:49.999Z</time></trkpt><trkpt lat="43.60554456844635" lon="6.81988526957912"><ele>187.8</ele><time>2026-04-12T06:20:50.999Z</time></trkpt><trkpt lat="43.605554422742784" lon="6.819759022594352"><ele>187.60000000000002</ele><time>2026-04-12T06:20:51.999Z</time></trkpt><trkpt lat="43.60555950661452" lon="6.819634983215491"><ele>187.39999999999998</ele><time>2026-04-12T06:20:52.999Z</time></trkpt><trkpt lat="43.60556107989185" lon="6.819508147957558"><ele>187.2</ele><time>2026-04-12T06:20:53.999Z</time></trkpt><trkpt lat="43.605559641964255" lon="6.81937983591263"><ele>187.0</ele><time>2026-04-12T06:20:54.999Z</time></trkpt><trkpt lat="43.60555845366277" lon="6.819254220390008"><ele>187.0</ele><time>2026-04-12T06:20:55.999Z</time></trkpt><trkpt lat="43.6055603155912" lon="6.819124643052992"><ele>187.0</ele><time>2026-04-12T06:20:56.999Z</time></trkpt><trkpt lat="43.60556110636616" lon="6.81899712469844"><ele>187.0</ele><time>2026-04-12T06:20:57.999Z</time></trkpt><trkpt lat="43.605564333484374" lon="6.8188687204475755"><ele>187.0</ele><time>2026-04-12T06:20:58.999Z</time></trkpt><trkpt lat="43.605568897613644" lon="6.8187411213467035"><ele>187.0</ele><time>2026-04-12T06:20:59.999Z</time></trkpt><trkpt lat="43.605575602045725" lon="6.8186153777779195"><ele>187.0</ele><time>2026-04-12T06:21:00.999Z</time></trkpt><trkpt lat="43.605585882950656" lon="6.81849137778099"><ele>187.0</ele><time>2026-04-12T06:21:01.999Z</time></trkpt><trkpt lat="43.6056013772033" lon="6.8183682708252205"><ele>187.0</ele><time>2026-04-12T06:21:02.999Z</time></trkpt><trkpt lat="43.60562159199627" lon="6.818245244961368"><ele>187.0</ele><time>2026-04-12T06:21:03.999Z</time></trkpt><trkpt lat="43.60564484521482" lon="6.81812663594425"><ele>187.0</ele><time>2026-04-12T06:21:04.999Z</time></trkpt><trkpt lat="43.605675297321284" lon="6.8180082935219195"><ele>185.83333333333334</ele><time>2026-04-12T06:21:05.999Z</time></trkpt><trkpt lat="43.605710029109204" lon="6.81789590778498"><ele>184.66666666666669</ele><time>2026-04-12T06:21:06.999Z</time></trkpt><trkpt lat="43.60575977340729" lon="6.817792911351616"><ele>183.5</ele><time>2026-04-12T06:21:07.999Z</time></trkpt><trkpt lat="43.60582086376095" lon="6.817703409519434"><ele>182.33333333333334</ele><time>2026-04-12T06:21:08.999Z</time></trkpt><trkpt lat="43.60588813025691" lon="6.8176261284032575"><ele>181.16666666666666</ele><time>2026-04-12T06:21:09.999Z</time></trkpt><trkpt lat="43.605975353077994" lon="6.817596918852344"><ele>180.0</ele><time>2026-04-12T06:21:10.999Z</time></trkpt><trkpt lat="43.60605826799761" lon="6.817564966829651"><ele>179.33333333333334</ele><time>2026-04-12T06:21:11.999Z</time></trkpt><trkpt lat="43.606139712106156" lon="6.817513066502725"><ele>178.66666666666666</ele><time>2026-04-12T06:21:12.999Z</time></trkpt><trkpt lat="43.60622569367205" lon="6.8174857578183365"><ele>178.0</ele><time>2026-04-12T06:21:13.999Z</time></trkpt><trkpt lat="43.60631322573658" lon="6.817480355879899"><ele>177.33333333333331</ele><time>2026-04-12T06:21:14.999Z</time></trkpt><trkpt lat="43.60639596122789" lon="6.817433484139429"><ele>176.66666666666666</ele><time>2026-04-12T06:21:15.999Z</time></trkpt><trkpt lat="43.606483289600874" lon="6.817409172934578"><ele>176.0</ele><time>2026-04-12T06:21:16.999Z</time></trkpt><trkpt lat="43.60657081551818" lon="6.817392031827222"><ele>176.0</ele><time>2026-04-12T06:21:17.999Z</time></trkpt><trkpt lat="43.606657617238135" lon="6.817422695619103"><ele>176.0</ele><time>2026-04-12T06:21:18.999Z</time></trkpt><trkpt lat="43.60674164080819" lon="6.817452479214805"><ele>176.0</ele><time>2026-04-12T06:21:19.999Z</time></trkpt><trkpt lat="43.606824437240995" lon="6.817486675221459"><ele>176.0</ele><time>2026-04-12T06:21:20.999Z</time></trkpt><trkpt lat="43.60690806221372" lon="6.817525504843495"><ele>176.0</ele><time>2026-04-12T06:21:21.999Z</time></trkpt><trkpt lat="43.60699427323662" lon="6.81756724929303"><ele>176.0</ele><time>2026-04-12T06:21:22.999Z</time></trkpt><trkpt lat="43.60707851378243" lon="6.8176153459964555"><ele>177.8</ele><time>2026-04-12T06:21:23.999Z</time></trkpt><trkpt lat="43.607165613596194" lon="6.817663203464325"><ele>179.60000000000002</ele><time>2026-04-12T06:21:24.999Z</time></trkpt><trkpt lat="43.607262182331596" lon="6.817692529589263"><ele>181.4</ele><time>2026-04-12T06:21:25.999Z</time></trkpt><trkpt lat="43.607350408916844" lon="6.817741843046124"><ele>183.2</ele><time>2026-04-12T06:21:26.999Z</time></trkpt><trkpt lat="43.607436863510365" lon="6.817797396096538"><ele>185.0</ele><time>2026-04-12T06:21:27.999Z</time></trkpt><trkpt lat="43.60752027172574" lon="6.817848447072016"><ele>185.0</ele><time>2026-04-12T06:21:28.999Z</time></trkpt><trkpt lat="43.60760874681376" lon="6.817910981245473"><ele>185.0</ele><time>2026-04-12T06:21:29.999Z</time></trkpt><trkpt lat="43.60768873593264" lon="6.817981047539193"><ele>185.0</ele><time>2026-04-12T06:21:30.999Z</time></trkpt><trkpt lat="43.6077646253649" lon="6.818051413053348"><ele>185.0</ele><time>2026-04-12T06:21:31.999Z</time></trkpt><trkpt lat="43.607846581898535" lon="6.8181242330068175"><ele>185.0</ele><time>2026-04-12T06:21:32.999Z</time></trkpt><trkpt lat="43.60793075163889" lon="6.818196977498124"><ele>185.4</ele><time>2026-04-12T06:21:33.999Z</time></trkpt><trkpt lat="43.608014072249986" lon="6.818267640753408"><ele>185.8</ele><time>2026-04-12T06:21:34.999Z</time></trkpt><trkpt lat="43.60809853457863" lon="6.818336734903779"><ele>186.2</ele><time>2026-04-12T06:21:35.999Z</time></trkpt><trkpt lat="43.608181341521565" lon="6.818399282983061"><ele>186.6</ele><time>2026-04-12T06:21:36.999Z</time></trkpt><trkpt lat="43.60826780258606" lon="6.818461874596011"><ele>187.0</ele><time>2026-04-12T06:21:37.999Z</time></trkpt><trkpt lat="43.60835363033838" lon="6.818520718020972"><ele>187.0</ele><time>2026-04-12T06:21:38.999Z</time></trkpt><trkpt lat="43.60843808281677" lon="6.818578798043842"><ele>187.0</ele><time>2026-04-12T06:21:40Z</time></trkpt><trkpt lat="43.6085235827841" lon="6.818636324537972"><ele>187.0</ele><time>2026-04-12T06:21:41Z</time></trkpt><trkpt lat="43.6086087851815" lon="6.818696463659231"><ele>187.0</ele><time>2026-04-12T06:21:42Z</time></trkpt><trkpt lat="43.60868995300188" lon="6.818758828132684"><ele>187.0</ele><time>2026-04-12T06:21:43Z</time></trkpt><trkpt lat="43.608772734828726" lon="6.818826006583556"><ele>185.8</ele><time>2026-04-12T06:21:44Z</time></trkpt><trkpt lat="43.60885892503494" lon="6.818885731798768"><ele>184.6</ele><time>2026-04-12T06:21:45Z</time></trkpt><trkpt lat="43.60894110435434" lon="6.818947419470923"><ele>183.4</ele><time>2026-04-12T06:21:46Z</time></trkpt><trkpt lat="43.6090241741944" lon="6.819005237363827"><ele>182.20000000000002</ele><time>2026-04-12T06:21:47Z</time></trkpt><trkpt lat="43.60910793479261" lon="6.819064378701759"><ele>181.0</ele><time>2026-04-12T06:21:48Z</time></trkpt><trkpt lat="43.609190055425685" lon="6.819121121781531"><ele>181.0</ele><time>2026-04-12T06:21:49Z</time></trkpt><trkpt lat="43.60927071094805" lon="6.819177105601392"><ele>181.0</ele><time>2026-04-12T06:21:50Z</time></trkpt><trkpt lat="43.60935568253569" lon="6.819231672267001"><ele>181.0</ele><time>2026-04-12T06:21:51Z</time></trkpt><trkpt lat="43.609444783549485" lon="6.819277108596427"><ele>181.0</ele><time>2026-04-12T06:21:52Z</time></trkpt><trkpt lat="43.60954104524352" lon="6.819302736590761"><ele>181.0</ele><time>2026-04-12T06:21:53Z</time></trkpt><trkpt lat="43.60963793629601" lon="6.81931956838994"><ele>181.60000000000002</ele><time>2026-04-12T06:21:54Z</time></trkpt><trkpt lat="43.6097385074236" lon="6.8193272924007715"><ele>182.2</ele><time>2026-04-12T06:21:55Z</time></trkpt><trkpt lat="43.60983572640364" lon="6.819347703927817"><ele>182.8</ele><time>2026-04-12T06:21:56Z</time></trkpt><trkpt lat="43.60993546958398" lon="6.819359457883317"><ele>183.39999999999998</ele><time>2026-04-12T06:21:57Z</time></trkpt><trkpt lat="43.6100226817225" lon="6.819412401992117"><ele>184.0</ele><time>2026-04-12T06:21:58Z</time></trkpt><trkpt lat="43.61010074571928" lon="6.8194904792414635"><ele>184.0</ele><time>2026-04-12T06:21:59Z</time></trkpt><trkpt lat="43.61017687078788" lon="6.819573247629598"><ele>184.0</ele><time>2026-04-12T06:22:00Z</time></trkpt><trkpt lat="43.610249725110535" lon="6.819664354922445"><ele>184.0</ele><time>2026-04-12T06:22:01Z</time></trkpt><trkpt lat="43.61033030109183" lon="6.819731297739682"><ele>184.0</ele><time>2026-04-12T06:22:02Z</time></trkpt><trkpt lat="43.610390877381214" lon="6.819831912495079"><ele>184.0</ele><time>2026-04-12T06:22:03Z</time></trkpt><trkpt lat="43.61046191725171" lon="6.81991603136069"><ele>184.5</ele><time>2026-04-12T06:22:04Z</time></trkpt><trkpt lat="43.610531275393775" lon="6.819998122688978"><ele>185.0</ele><time>2026-04-12T06:22:05Z</time></trkpt><trkpt lat="43.61059731584011" lon="6.820076287264957"><ele>185.5</ele><time>2026-04-12T06:22:06Z</time></trkpt><trkpt lat="43.61066775134601" lon="6.820153399111147"><ele>186.0</ele><time>2026-04-12T06:22:07Z</time></trkpt><trkpt lat="43.610738695855424" lon="6.8202215665389785"><ele>186.5</ele><time>2026-04-12T06:22:08Z</time></trkpt><trkpt lat="43.610815146896144" lon="6.820275309127925"><ele>187.0</ele><time>2026-04-12T06:22:09Z</time></trkpt><trkpt lat="43.61089651748399" lon="6.820321364832858"><ele>187.0</ele><time>2026-04-12T06:22:10Z</time></trkpt><trkpt lat="43.610977364907306" lon="6.820359189885119"><ele>187.0</ele><time>2026-04-12T06:22:11Z</time></trkpt><trkpt lat="43.61105581730766" lon="6.820395764660682"><ele>187.0</ele><time>2026-04-12T06:22:12Z</time></trkpt><trkpt lat="43.61113497934379" lon="6.820431426113507"><ele>187.0</ele><time>2026-04-12T06:22:13Z</time></trkpt><trkpt lat="43.611214448857766" lon="6.820466605807224"><ele>187.0</ele><time>2026-04-12T06:22:14Z</time></trkpt><trkpt lat="43.61129203886064" lon="6.820498313939642"><ele>187.0</ele><time>2026-04-12T06:22:15Z</time></trkpt><trkpt lat="43.611372471279935" lon="6.820522598216785"><ele>186.16666666666669</ele><time>2026-04-12T06:22:16Z</time></trkpt><trkpt lat="43.61145278564684" lon="6.8205386029735005"><ele>185.33333333333334</ele><time>2026-04-12T06:22:17Z</time></trkpt><trkpt lat="43.61153295966734" lon="6.820547773313185"><ele>184.5</ele><time>2026-04-12T06:22:18Z</time></trkpt><trkpt lat="43.611613024666546" lon="6.82054297943411"><ele>183.66666666666666</ele><time>2026-04-12T06:22:19Z</time></trkpt><trkpt lat="43.611696235646214" lon="6.820520375331626"><ele>182.83333333333331</ele><time>2026-04-12T06:22:20Z</time></trkpt><trkpt lat="43.61177277015555" lon="6.820490911258384"><ele>182.0</ele><time>2026-04-12T06:22:21Z</time></trkpt><trkpt lat="43.61184423033738" lon="6.820439038125951"><ele>182.0</ele><time>2026-04-12T06:22:22Z</time></trkpt><trkpt lat="43.611901405427616" lon="6.820352723496041"><ele>182.0</ele><time>2026-04-12T06:22:23Z</time></trkpt><trkpt lat="43.61196410046392" lon="6.8202846270577675"><ele>182.0</ele><time>2026-04-12T06:22:24Z</time></trkpt><trkpt lat="43.61203600211849" lon="6.820236175046599"><ele>182.0</ele><time>2026-04-12T06:22:25Z</time></trkpt><trkpt lat="43.61209428667264" lon="6.82016956243068"><ele>182.0</ele><time>2026-04-12T06:22:26Z</time></trkpt><trkpt lat="43.61214857217764" lon="6.82010354685149"><ele>182.0</ele><time>2026-04-12T06:22:27Z</time></trkpt><trkpt lat="43.612196996605334" lon="6.820041915879156"><ele>182.2</ele><time>2026-04-12T06:22:28Z</time></trkpt><trkpt lat="43.61224130996952" lon="6.819979295412997"><ele>182.39999999999998</ele><time>2026-04-12T06:22:29Z</time></trkpt><trkpt lat="43.61231224600557" lon="6.819849659410588"><ele>182.60000000000002</ele><time>2026-04-12T06:22:31Z</time></trkpt><trkpt lat="43.61239758043515" lon="6.81971553447104"><ele>182.8</ele><time>2026-04-12T06:22:33Z</time></trkpt><trkpt lat="43.612427864016524" lon="6.8196230445262085"><ele>183.0</ele><time>2026-04-12T06:22:34Z</time></trkpt><trkpt lat="43.612412295963885" lon="6.819506133173074"><ele>183.0</ele><time>2026-04-12T06:22:35Z</time></trkpt><trkpt lat="43.61239969117831" lon="6.819405618449981"><ele>183.0</ele><time>2026-04-12T06:22:36Z</time></trkpt><trkpt lat="43.61237912836972" lon="6.819306176925299"><ele>183.0</ele><time>2026-04-12T06:22:37Z</time></trkpt><trkpt lat="43.61237311850249" lon="6.819205794951867"><ele>183.0</ele><time>2026-04-12T06:22:38Z</time></trkpt><trkpt lat="43.61239179638402" lon="6.819106576449407"><ele>183.0</ele><time>2026-04-12T06:22:39Z</time></trkpt><trkpt lat="43.61243171475213" lon="6.819016516250265"><ele>183.0</ele><time>2026-04-12T06:22:40Z</time></trkpt><trkpt lat="43.61247312721462" lon="6.818932631954156"><ele>183.0</ele><time>2026-04-12T06:22:41Z</time></trkpt><trkpt lat="43.61245556853175" lon="6.818728579867032"><ele>183.0</ele><time>2026-04-12T06:22:43Z</time></trkpt><trkpt lat="43.61241544456871" lon="6.818626223743778"><ele>183.0</ele><time>2026-04-12T06:22:44Z</time></trkpt><trkpt lat="43.61237095996873" lon="6.818530666111386"><ele>183.0</ele><time>2026-04-12T06:22:45Z</time></trkpt><trkpt lat="43.61233040282517" lon="6.818434923828833"><ele>183.0</ele><time>2026-04-12T06:22:46Z</time></trkpt><trkpt lat="43.61229282304747" lon="6.818337995863835"><ele>183.0</ele><time>2026-04-12T06:22:46.999Z</time></trkpt><trkpt lat="43.61225666164888" lon="6.818245104084971"><ele>183.0</ele><time>2026-04-12T06:22:47.999Z</time></trkpt><trkpt lat="43.61222666995503" lon="6.818150201896631"><ele>183.28571428571428</ele><time>2026-04-12T06:22:48.999Z</time></trkpt><trkpt lat="43.612203713378946" lon="6.818055125245611"><ele>183.57142857142858</ele><time>2026-04-12T06:22:49.999Z</time></trkpt><trkpt lat="43.6121791107207" lon="6.817962885937195"><ele>183.85714285714283</ele><time>2026-04-12T06:22:50.999Z</time></trkpt><trkpt lat="43.61215698604442" lon="6.817873737328013"><ele>184.14285714285714</ele><time>2026-04-12T06:22:51.999Z</time></trkpt><trkpt lat="43.612138616381124" lon="6.817782520230571"><ele>184.42857142857142</ele><time>2026-04-12T06:22:52.999Z</time></trkpt><trkpt lat="43.612122378317544" lon="6.817691769302264"><ele>184.7142857142857</ele><time>2026-04-12T06:22:53.999Z</time></trkpt><trkpt lat="43.612110349090344" lon="6.817601875575354"><ele>185.0</ele><time>2026-04-12T06:22:54.999Z</time></trkpt><trkpt lat="43.61209609151652" lon="6.8175126516495235"><ele>185.4</ele><time>2026-04-12T06:22:55.999Z</time></trkpt><trkpt lat="43.612081764109874" lon="6.817425560195482"><ele>185.8</ele><time>2026-04-12T06:22:56.999Z</time></trkpt><trkpt lat="43.612070900707984" lon="6.817338794988748"><ele>186.2</ele><time>2026-04-12T06:22:57.999Z</time></trkpt><trkpt lat="43.61205060972485" lon="6.817170933521463"><ele>186.6</ele><time>2026-04-12T06:22:59.999Z</time></trkpt><trkpt lat="43.61202293406234" lon="6.817010216052607"><ele>187.0</ele><time>2026-04-12T06:23:01.999Z</time></trkpt><trkpt lat="43.611998840795664" lon="6.816846091527865"><ele>188.25</ele><time>2026-04-12T06:23:03.999Z</time></trkpt><trkpt lat="43.611972958312855" lon="6.816685571353577"><ele>189.5</ele><time>2026-04-12T06:23:05.999Z</time></trkpt><trkpt lat="43.6119463235678" lon="6.816528728309928"><ele>190.75</ele><time>2026-04-12T06:23:07.999Z</time></trkpt><trkpt lat="43.611913064076035" lon="6.816375932117383"><ele>192.0</ele><time>2026-04-12T06:23:09.999Z</time></trkpt><trkpt lat="43.61187881712744" lon="6.816227323526919"><ele>192.0</ele><time>2026-04-12T06:23:11.999Z</time></trkpt><trkpt lat="43.61183086540348" lon="6.8160839082782365"><ele>192.0</ele><time>2026-04-12T06:23:13.999Z</time></trkpt><trkpt lat="43.611776105459576" lon="6.815941015841155"><ele>192.0</ele><time>2026-04-12T06:23:15.999Z</time></trkpt><trkpt lat="43.61171661392918" lon="6.815801933781566"><ele>192.0</ele><time>2026-04-12T06:23:17.999Z</time></trkpt><trkpt lat="43.61163945041808" lon="6.8156657773005955"><ele>192.42857142857142</ele><time>2026-04-12T06:23:19.999Z</time></trkpt><trkpt lat="43.61159776920656" lon="6.81559616794233"><ele>192.85714285714286</ele><time>2026-04-12T06:23:20.999Z</time></trkpt><trkpt lat="43.61155752639479" lon="6.815527538699496"><ele>193.28571428571428</ele><time>2026-04-12T06:23:21.999Z</time></trkpt><trkpt lat="43.61151593684845" lon="6.815458880579104"><ele>193.71428571428572</ele><time>2026-04-12T06:23:22.999Z</time></trkpt><trkpt lat="43.611475610628666" lon="6.815389419130381"><ele>194.14285714285714</ele><time>2026-04-12T06:23:23.999Z</time></trkpt><trkpt lat="43.611423631632206" lon="6.815330025795105"><ele>194.57142857142856</ele><time>2026-04-12T06:23:24.999Z</time></trkpt><trkpt lat="43.61137627336298" lon="6.815270457624601"><ele>195.0</ele><time>2026-04-12T06:23:25.999Z</time></trkpt><trkpt lat="43.61132700487382" lon="6.815210512505385"><ele>195.0</ele><time>2026-04-12T06:23:26.999Z</time></trkpt><trkpt lat="43.611273187946885" lon="6.8151552794567785"><ele>195.0</ele><time>2026-04-12T06:23:27.999Z</time></trkpt><trkpt lat="43.61122277589994" lon="6.8150983640125"><ele>195.0</ele><time>2026-04-12T06:23:28.999Z</time></trkpt><trkpt lat="43.61117047367385" lon="6.815043090273217"><ele>195.0</ele><time>2026-04-12T06:23:29.999Z</time></trkpt><trkpt lat="43.611116197268814" lon="6.814991628087241"><ele>195.0</ele><time>2026-04-12T06:23:30.999Z</time></trkpt><trkpt lat="43.61106034095644" lon="6.814942744785792"><ele>195.0</ele><time>2026-04-12T06:23:31.999Z</time></trkpt><trkpt lat="43.611005719632224" lon="6.814895293685662"><ele>195.0</ele><time>2026-04-12T06:23:32.999Z</time></trkpt><trkpt lat="43.6109524633195" lon="6.8148399242297355"><ele>195.0</ele><time>2026-04-12T06:23:33.999Z</time></trkpt><trkpt lat="43.6109013152391" lon="6.814785453126956"><ele>195.0</ele><time>2026-04-12T06:23:34.999Z</time></trkpt><trkpt lat="43.61084875447289" lon="6.814734373073388"><ele>195.0</ele><time>2026-04-12T06:23:35.999Z</time></trkpt><trkpt lat="43.610797632783445" lon="6.814683219895839"><ele>195.0</ele><time>2026-04-12T06:23:36.999Z</time></trkpt><trkpt lat="43.61069608337194" lon="6.8145859326744915"><ele>195.0</ele><time>2026-04-12T06:23:38.999Z</time></trkpt><trkpt lat="43.61064256016482" lon="6.814539914012883"><ele>195.0</ele><time>2026-04-12T06:23:39.999Z</time></trkpt><trkpt lat="43.610547971973574" lon="6.81445278104928"><ele>195.0</ele><time>2026-04-12T06:23:41.999Z</time></trkpt><trkpt lat="43.610453457090614" lon="6.814365383957725"><ele>195.0</ele><time>2026-04-12T06:23:43.999Z</time></trkpt><trkpt lat="43.610361679559205" lon="6.81428549157564"><ele>195.0</ele><time>2026-04-12T06:23:46Z</time></trkpt><trkpt lat="43.61027670583706" lon="6.814210215349617"><ele>195.0</ele><time>2026-04-12T06:23:48Z</time></trkpt><trkpt lat="43.6101878135705" lon="6.8141245263364905"><ele>195.0</ele><time>2026-04-12T06:23:50Z</time></trkpt><trkpt lat="43.61010189180721" lon="6.814045273014778"><ele>196.8</ele><time>2026-04-12T06:23:52Z</time></trkpt><trkpt lat="43.61002013339302" lon="6.8139709082908535"><ele>198.6</ele><time>2026-04-12T06:23:54Z</time></trkpt><trkpt lat="43.609943825951476" lon="6.813891843344923"><ele>200.39999999999998</ele><time>2026-04-12T06:23:56Z</time></trkpt><trkpt lat="43.6098665163657" lon="6.813811726630894"><ele>202.2</ele><time>2026-04-12T06:23:58Z</time></trkpt><trkpt lat="43.60978865548698" lon="6.81372704769352"><ele>204.0</ele><time>2026-04-12T06:24:00Z</time></trkpt><trkpt lat="43.609713572187104" lon="6.813638098288495"><ele>204.0</ele><time>2026-04-12T06:24:02Z</time></trkpt><trkpt lat="43.609635358015296" lon="6.813554423265084"><ele>204.0</ele><time>2026-04-12T06:24:04Z</time></trkpt><trkpt lat="43.60956021245543" lon="6.813462622868695"><ele>204.0</ele><time>2026-04-12T06:24:06Z</time></trkpt><trkpt lat="43.609484241305914" lon="6.813353754116233"><ele>204.0</ele><time>2026-04-12T06:24:08Z</time></trkpt><trkpt lat="43.60941205926327" lon="6.813236346386333"><ele>204.0</ele><time>2026-04-12T06:24:10Z</time></trkpt><trkpt lat="43.609346023972655" lon="6.813123326024985"><ele>204.2</ele><time>2026-04-12T06:24:12Z</time></trkpt><trkpt lat="43.60928605538304" lon="6.813002509057391"><ele>204.39999999999998</ele><time>2026-04-12T06:24:14Z</time></trkpt><trkpt lat="43.60923493560305" lon="6.812871253980122"><ele>204.6</ele><time>2026-04-12T06:24:16Z</time></trkpt><trkpt lat="43.609190229984655" lon="6.812738689402094"><ele>204.8</ele><time>2026-04-12T06:24:18Z</time></trkpt><trkpt lat="43.60917982006291" lon="6.8126172130474805"><ele>205.0</ele><time>2026-04-12T06:24:20Z</time></trkpt><trkpt lat="43.6091776078395" lon="6.812450507705165"><ele>206.8</ele><time>2026-04-12T06:24:22Z</time></trkpt><trkpt lat="43.60918648553173" lon="6.812317201437809"><ele>208.6</ele><time>2026-04-12T06:24:24Z</time></trkpt><trkpt lat="43.609204286091405" lon="6.812160234586352"><ele>210.39999999999998</ele><time>2026-04-12T06:24:26Z</time></trkpt><trkpt lat="43.609219230694436" lon="6.81200973862712"><ele>212.2</ele><time>2026-04-12T06:24:28Z</time></trkpt><trkpt lat="43.60923618455267" lon="6.8118546662385056"><ele>214.0</ele><time>2026-04-12T06:24:30Z</time></trkpt><trkpt lat="43.60923986350546" lon="6.811703542426686"><ele>214.5</ele><time>2026-04-12T06:24:32Z</time></trkpt><trkpt lat="43.60923153331701" lon="6.8115473108821485"><ele>215.0</ele><time>2026-04-12T06:24:34Z</time></trkpt><trkpt lat="43.60921491480387" lon="6.8113876765728785"><ele>215.5</ele><time>2026-04-12T06:24:36Z</time></trkpt><trkpt lat="43.609191871010644" lon="6.811234578672399"><ele>216.0</ele><time>2026-04-12T06:24:38Z</time></trkpt><trkpt lat="43.609164869515894" lon="6.81109214281663"><ele>217.8</ele><time>2026-04-12T06:24:40Z</time></trkpt><trkpt lat="43.60912494609767" lon="6.810956085309951"><ele>219.60000000000002</ele><time>2026-04-12T06:24:42Z</time></trkpt><trkpt lat="43.60907861063516" lon="6.81083352222545"><ele>221.4</ele><time>2026-04-12T06:24:44Z</time></trkpt><trkpt lat="43.6090225836426" lon="6.810712886170266"><ele>223.2</ele><time>2026-04-12T06:24:46Z</time></trkpt><trkpt lat="43.60895888665149" lon="6.810607257204431"><ele>225.0</ele><time>2026-04-12T06:24:48Z</time></trkpt><trkpt lat="43.60889390090156" lon="6.810514637126016"><ele>225.0</ele><time>2026-04-12T06:24:50Z</time></trkpt><trkpt lat="43.60880199160627" lon="6.810404581816545"><ele>225.0</ele><time>2026-04-12T06:24:52.999Z</time></trkpt><trkpt lat="43.60873456531933" lon="6.810350093988419"><ele>225.0</ele><time>2026-04-12T06:24:54.999Z</time></trkpt><trkpt lat="43.608627666941494" lon="6.810293541180501"><ele>225.0</ele><time>2026-04-12T06:24:56.999Z</time></trkpt><trkpt lat="43.60853876339086" lon="6.810216572234075"><ele>225.0</ele><time>2026-04-12T06:24:58.999Z</time></trkpt><trkpt lat="43.608481883695184" lon="6.8101763741711245"><ele>226.0</ele><time>2026-04-12T06:24:59.999Z</time></trkpt><trkpt lat="43.60837719501341" lon="6.810131003904719"><ele>227.0</ele><time>2026-04-12T06:25:01.999Z</time></trkpt><trkpt lat="43.608265873584806" lon="6.810091143148129"><ele>228.0</ele><time>2026-04-12T06:25:03.999Z</time></trkpt><trkpt lat="43.608161637960826" lon="6.810041646431724"><ele>229.0</ele><time>2026-04-12T06:25:05.999Z</time></trkpt><trkpt lat="43.608059860409035" lon="6.809995858987482"><ele>230.0</ele><time>2026-04-12T06:25:07.999Z</time></trkpt><trkpt lat="43.607949945931246" lon="6.809932429816127"><ele>230.0</ele><time>2026-04-12T06:25:09.999Z</time></trkpt><trkpt lat="43.60783925682444" lon="6.809887473461749"><ele>230.0</ele><time>2026-04-12T06:25:11.999Z</time></trkpt><trkpt lat="43.60773713067852" lon="6.809843761775704"><ele>230.0</ele><time>2026-04-12T06:25:13.999Z</time></trkpt><trkpt lat="43.60763213217431" lon="6.809793353927987"><ele>230.0</ele><time>2026-04-12T06:25:15.999Z</time></trkpt><trkpt lat="43.60752626574176" lon="6.8097410539997165"><ele>230.0</ele><time>2026-04-12T06:25:17.999Z</time></trkpt><trkpt lat="43.607422530329714" lon="6.809674753829103"><ele>228.5</ele><time>2026-04-12T06:25:19.999Z</time></trkpt><trkpt lat="43.607319236904274" lon="6.809615958100463"><ele>227.0</ele><time>2026-04-12T06:25:21.999Z</time></trkpt><trkpt lat="43.60721768686982" lon="6.809541216544027"><ele>225.5</ele><time>2026-04-12T06:25:23.999Z</time></trkpt><trkpt lat="43.60711850156245" lon="6.809474587234667"><ele>224.0</ele><time>2026-04-12T06:25:25.999Z</time></trkpt><trkpt lat="43.60701775527628" lon="6.809392720964555"><ele>226.2</ele><time>2026-04-12T06:25:27.999Z</time></trkpt><trkpt lat="43.606913178956376" lon="6.809307225668122"><ele>228.39999999999998</ele><time>2026-04-12T06:25:29.999Z</time></trkpt><trkpt lat="43.60686016294627" lon="6.809257913769301"><ele>230.6</ele><time>2026-04-12T06:25:30.999Z</time></trkpt><trkpt lat="43.606753031682125" lon="6.8091611865107735"><ele>232.8</ele><time>2026-04-12T06:25:32.999Z</time></trkpt><trkpt lat="43.60670135929838" lon="6.80911145456352"><ele>235.0</ele><time>2026-04-12T06:25:33.999Z</time></trkpt><trkpt lat="43.60660287777141" lon="6.809014512825281"><ele>235.0</ele><time>2026-04-12T06:25:35.999Z</time></trkpt><trkpt lat="43.606509034692294" lon="6.8089004309900005"><ele>235.0</ele><time>2026-04-12T06:25:37.999Z</time></trkpt><trkpt lat="43.606420428046334" lon="6.808781472837819"><ele>235.0</ele><time>2026-04-12T06:25:39.999Z</time></trkpt><trkpt lat="43.60633526181505" lon="6.8086731400221945"><ele>235.0</ele><time>2026-04-12T06:25:41.999Z</time></trkpt><trkpt lat="43.60625885783065" lon="6.808569471150436"><ele>235.0</ele><time>2026-04-12T06:25:43.999Z</time></trkpt><trkpt lat="43.606192291474024" lon="6.80845332556444"><ele>235.0</ele><time>2026-04-12T06:25:45.999Z</time></trkpt><trkpt lat="43.60612632049277" lon="6.808339326861168"><ele>235.0</ele><time>2026-04-12T06:25:47.999Z</time></trkpt><trkpt lat="43.60605538640071" lon="6.80821951815104"><ele>235.0</ele><time>2026-04-12T06:25:49.999Z</time></trkpt><trkpt lat="43.60598078377034" lon="6.808096231732626"><ele>235.0</ele><time>2026-04-12T06:25:52Z</time></trkpt><trkpt lat="43.60588860072703" lon="6.807977743541691"><ele>235.0</ele><time>2026-04-12T06:25:54Z</time></trkpt><trkpt lat="43.605790386342235" lon="6.807872516253106"><ele>235.0</ele><time>2026-04-12T06:25:56Z</time></trkpt><trkpt lat="43.60568601592347" lon="6.807775359683956"><ele>235.0</ele><time>2026-04-12T06:25:58Z</time></trkpt><trkpt lat="43.605627289729206" lon="6.807717570347034"><ele>235.0</ele><time>2026-04-12T06:25:59Z</time></trkpt><trkpt lat="43.6055732106417" lon="6.8076663344746"><ele>235.0</ele><time>2026-04-12T06:26:00Z</time></trkpt><trkpt lat="43.60551901770393" lon="6.807616665333112"><ele>235.66666666666666</ele><time>2026-04-12T06:26:01Z</time></trkpt><trkpt lat="43.60546472157214" lon="6.807566822989335"><ele>236.33333333333331</ele><time>2026-04-12T06:26:02Z</time></trkpt><trkpt lat="43.605350578240575" lon="6.807495603157782"><ele>237.0</ele><time>2026-04-12T06:26:04Z</time></trkpt><trkpt lat="43.60528782777821" lon="6.807460316283546"><ele>237.66666666666669</ele><time>2026-04-12T06:26:05Z</time></trkpt><trkpt lat="43.60522409911985" lon="6.807422656958412"><ele>238.33333333333334</ele><time>2026-04-12T06:26:06Z</time></trkpt><trkpt lat="43.60515514886059" lon="6.8073960466623475"><ele>239.0</ele><time>2026-04-12T06:26:07Z</time></trkpt><trkpt lat="43.605077929220734" lon="6.807358780244282"><ele>239.00000000000003</ele><time>2026-04-12T06:26:08Z</time></trkpt><trkpt lat="43.60500416208256" lon="6.807322966604269"><ele>239.0</ele><time>2026-04-12T06:26:09Z</time></trkpt><trkpt lat="43.604932844365166" lon="6.807296863991154"><ele>239.0</ele><time>2026-04-12T06:26:10Z</time></trkpt><trkpt lat="43.60486345796921" lon="6.807267719336444"><ele>239.0</ele><time>2026-04-12T06:26:11Z</time></trkpt><trkpt lat="43.6047896414849" lon="6.807237118068382"><ele>239.00000000000003</ele><time>2026-04-12T06:26:12Z</time></trkpt><trkpt lat="43.604717152230506" lon="6.807209892841243"><ele>239.0</ele><time>2026-04-12T06:26:13Z</time></trkpt><trkpt lat="43.604644399681916" lon="6.807179721965746"><ele>239.00000000000003</ele><time>2026-04-12T06:26:14Z</time></trkpt><trkpt lat="43.60457260398345" lon="6.807151973308142"><ele>239.0</ele><time>2026-04-12T06:26:15Z</time></trkpt><trkpt lat="43.604502495902366" lon="6.807126337241882"><ele>239.00000000000003</ele><time>2026-04-12T06:26:16Z</time></trkpt><trkpt lat="43.604432200115205" lon="6.80710143123829"><ele>239.00000000000003</ele><time>2026-04-12T06:26:17Z</time></trkpt><trkpt lat="43.604359721098476" lon="6.807074074973519"><ele>239.0</ele><time>2026-04-12T06:26:18Z</time></trkpt><trkpt lat="43.604284856714266" lon="6.8070472964196265"><ele>239.00000000000003</ele><time>2026-04-12T06:26:19Z</time></trkpt><trkpt lat="43.60421223134713" lon="6.8070203644250995"><ele>239.00000000000003</ele><time>2026-04-12T06:26:20Z</time></trkpt><trkpt lat="43.604137996962464" lon="6.806990877922612"><ele>238.28571428571433</ele><time>2026-04-12T06:26:21Z</time></trkpt><trkpt lat="43.604065590038566" lon="6.806966413752334"><ele>237.57142857142858</ele><time>2026-04-12T06:26:22Z</time></trkpt><trkpt lat="43.6039939956576" lon="6.806940338237814"><ele>236.8571428571429</ele><time>2026-04-12T06:26:23Z</time></trkpt><trkpt lat="43.603921284848184" lon="6.806917105296035"><ele>236.14285714285717</ele><time>2026-04-12T06:26:24Z</time></trkpt><trkpt lat="43.60385307579984" lon="6.80688938325444"><ele>235.42857142857144</ele><time>2026-04-12T06:26:25Z</time></trkpt><trkpt lat="43.603780878018625" lon="6.806866598995234"><ele>234.71428571428572</ele><time>2026-04-12T06:26:26Z</time></trkpt><trkpt lat="43.603714997747055" lon="6.806838851426904"><ele>234.0</ele><time>2026-04-12T06:26:27Z</time></trkpt><trkpt lat="43.60364542522817" lon="6.806815455956084"><ele>235.66666666666666</ele><time>2026-04-12T06:26:28Z</time></trkpt><trkpt lat="43.60357454270792" lon="6.806784520711364"><ele>237.33333333333331</ele><time>2026-04-12T06:26:29Z</time></trkpt><trkpt lat="43.603501170659825" lon="6.80675021849243"><ele>239.0</ele><time>2026-04-12T06:26:30Z</time></trkpt><trkpt lat="43.60342968513556" lon="6.8067087589791075"><ele>240.66666666666666</ele><time>2026-04-12T06:26:31Z</time></trkpt><trkpt lat="43.60336277550034" lon="6.8066592589625525"><ele>242.33333333333331</ele><time>2026-04-12T06:26:32Z</time></trkpt><trkpt lat="43.60329569516013" lon="6.806610671020114"><ele>244.0</ele><time>2026-04-12T06:26:33Z</time></trkpt><trkpt lat="43.60322793676234" lon="6.806564005175917"><ele>243.99999999999997</ele><time>2026-04-12T06:26:34Z</time></trkpt><trkpt lat="43.6031607316427" lon="6.806507468149118"><ele>244.0</ele><time>2026-04-12T06:26:35Z</time></trkpt><trkpt lat="43.60310334020647" lon="6.806438234399474"><ele>244.0</ele><time>2026-04-12T06:26:36Z</time></trkpt><trkpt lat="43.60304675253625" lon="6.806369036171097"><ele>244.0</ele><time>2026-04-12T06:26:37Z</time></trkpt><trkpt lat="43.602989190529634" lon="6.806296777178566"><ele>243.99999999999997</ele><time>2026-04-12T06:26:38Z</time></trkpt><trkpt lat="43.602929515401385" lon="6.806226488444373"><ele>244.0</ele><time>2026-04-12T06:26:39Z</time></trkpt><trkpt lat="43.60286777247325" lon="6.80616332792337"><ele>244.57142857142856</ele><time>2026-04-12T06:26:40Z</time></trkpt><trkpt lat="43.602804830934225" lon="6.806100832791562"><ele>245.14285714285714</ele><time>2026-04-12T06:26:41Z</time></trkpt><trkpt lat="43.60274636639954" lon="6.806037567183538"><ele>245.71428571428572</ele><time>2026-04-12T06:26:42Z</time></trkpt><trkpt lat="43.60268874020619" lon="6.805976617655162"><ele>246.28571428571428</ele><time>2026-04-12T06:26:43Z</time></trkpt><trkpt lat="43.60262736560411" lon="6.805921700612636"><ele>246.8571428571429</ele><time>2026-04-12T06:26:44Z</time></trkpt><trkpt lat="43.60256376033177" lon="6.805872014261653"><ele>247.42857142857144</ele><time>2026-04-12T06:26:45Z</time></trkpt><trkpt lat="43.60250078581032" lon="6.805818130998808"><ele>248.0</ele><time>2026-04-12T06:26:46Z</time></trkpt><trkpt lat="43.60243246037641" lon="6.80577254625454"><ele>248.00000000000003</ele><time>2026-04-12T06:26:47Z</time></trkpt><trkpt lat="43.602357793712386" lon="6.805731084092304"><ele>248.0</ele><time>2026-04-12T06:26:48Z</time></trkpt><trkpt lat="43.60228515885153" lon="6.805691350012763"><ele>248.0</ele><time>2026-04-12T06:26:49Z</time></trkpt><trkpt lat="43.602210943795505" lon="6.8056534781694555"><ele>248.0</ele><time>2026-04-12T06:26:50Z</time></trkpt><trkpt lat="43.60213485053129" lon="6.805619582296352"><ele>248.00000000000003</ele><time>2026-04-12T06:26:51Z</time></trkpt><trkpt lat="43.60205928985329" lon="6.805578148827095"><ele>248.0</ele><time>2026-04-12T06:26:52Z</time></trkpt><trkpt lat="43.601981797976315" lon="6.8055341320571445"><ele>247.00000000000003</ele><time>2026-04-12T06:26:53Z</time></trkpt><trkpt lat="43.60190471913799" lon="6.805486649458883"><ele>246.0</ele><time>2026-04-12T06:26:54Z</time></trkpt><trkpt lat="43.601827308194046" lon="6.805433841362408"><ele>245.0</ele><time>2026-04-12T06:26:55Z</time></trkpt><trkpt lat="43.601759167162356" lon="6.805371381645664"><ele>244.0</ele><time>2026-04-12T06:26:56Z</time></trkpt><trkpt lat="43.601688592589845" lon="6.805305934304359"><ele>243.00000000000003</ele><time>2026-04-12T06:26:57Z</time></trkpt><trkpt lat="43.6016173556724" lon="6.805240557615908"><ele>242.0</ele><time>2026-04-12T06:26:57.999Z</time></trkpt><trkpt lat="43.601550705432736" lon="6.805169663025077"><ele>242.66666666666669</ele><time>2026-04-12T06:26:58.999Z</time></trkpt><trkpt lat="43.601485175926065" lon="6.805099344779605"><ele>243.33333333333334</ele><time>2026-04-12T06:26:59.999Z</time></trkpt><trkpt lat="43.60141908129889" lon="6.805028838196731"><ele>244.0</ele><time>2026-04-12T06:27:00.999Z</time></trkpt><trkpt lat="43.601353076390495" lon="6.804962793309902"><ele>244.66666666666669</ele><time>2026-04-12T06:27:01.999Z</time></trkpt><trkpt lat="43.601284493821204" lon="6.804898522682053"><ele>245.33333333333334</ele><time>2026-04-12T06:27:02.999Z</time></trkpt><trkpt lat="43.601214964121404" lon="6.804833895715891"><ele>246.0</ele><time>2026-04-12T06:27:03.999Z</time></trkpt><trkpt lat="43.601147523381826" lon="6.804768434678465"><ele>246.0</ele><time>2026-04-12T06:27:04.999Z</time></trkpt><trkpt lat="43.60108368161667" lon="6.804707758842974"><ele>246.0</ele><time>2026-04-12T06:27:05.999Z</time></trkpt><trkpt lat="43.601024080119736" lon="6.804645110507979"><ele>246.0</ele><time>2026-04-12T06:27:06.999Z</time></trkpt><trkpt lat="43.60096758619929" lon="6.804575522582119"><ele>246.0</ele><time>2026-04-12T06:27:07.999Z</time></trkpt><trkpt lat="43.60091063350976" lon="6.804507946970464"><ele>246.0</ele><time>2026-04-12T06:27:08.999Z</time></trkpt><trkpt lat="43.60085969426715" lon="6.804436852011293"><ele>246.0</ele><time>2026-04-12T06:27:09.999Z</time></trkpt><trkpt lat="43.60080311793999" lon="6.804364073595938"><ele>247.83333333333334</ele><time>2026-04-12T06:27:10.999Z</time></trkpt><trkpt lat="43.60074459810777" lon="6.804291129652771"><ele>249.66666666666669</ele><time>2026-04-12T06:27:11.999Z</time></trkpt><trkpt lat="43.600689054428216" lon="6.804215371355491"><ele>251.5</ele><time>2026-04-12T06:27:12.999Z</time></trkpt><trkpt lat="43.60063611306526" lon="6.804138733697993"><ele>253.33333333333334</ele><time>2026-04-12T06:27:13.999Z</time></trkpt><trkpt lat="43.60058427156912" lon="6.804061933571252"><ele>255.16666666666669</ele><time>2026-04-12T06:27:14.999Z</time></trkpt><trkpt lat="43.6005340272113" lon="6.803988057853124"><ele>257.0</ele><time>2026-04-12T06:27:15.999Z</time></trkpt><trkpt lat="43.600487266629116" lon="6.803905773131276"><ele>257.0</ele><time>2026-04-12T06:27:16.999Z</time></trkpt><trkpt lat="43.60044032867323" lon="6.803822001700228"><ele>257.0</ele><time>2026-04-12T06:27:17.999Z</time></trkpt><trkpt lat="43.60039251844373" lon="6.803732436865375"><ele>257.0</ele><time>2026-04-12T06:27:18.999Z</time></trkpt><trkpt lat="43.60034160227231" lon="6.8036483254737"><ele>257.0</ele><time>2026-04-12T06:27:19.999Z</time></trkpt><trkpt lat="43.6002929406795" lon="6.803560287716561"><ele>257.0</ele><time>2026-04-12T06:27:20.999Z</time></trkpt><trkpt lat="43.60024491425514" lon="6.803467512338692"><ele>257.0</ele><time>2026-04-12T06:27:21.999Z</time></trkpt><trkpt lat="43.60019758614336" lon="6.803372741211125"><ele>256.33333333333337</ele><time>2026-04-12T06:27:22.999Z</time></trkpt><trkpt lat="43.60014514298426" lon="6.803283138408401"><ele>255.66666666666669</ele><time>2026-04-12T06:27:23.999Z</time></trkpt><trkpt lat="43.60009203747878" lon="6.803192786725241"><ele>255.0</ele><time>2026-04-12T06:27:24.999Z</time></trkpt><trkpt lat="43.60004280033226" lon="6.803105937749365"><ele>254.33333333333331</ele><time>2026-04-12T06:27:25.999Z</time></trkpt><trkpt lat="43.59999063989851" lon="6.8030237313604704"><ele>253.66666666666666</ele><time>2026-04-12T06:27:26.999Z</time></trkpt><trkpt lat="43.5999383418326" lon="6.8029397913798295"><ele>253.0</ele><time>2026-04-12T06:27:27.999Z</time></trkpt><trkpt lat="43.599881509894615" lon="6.802864321440897"><ele>252.99999999999997</ele><time>2026-04-12T06:27:28.999Z</time></trkpt><trkpt lat="43.59982272447153" lon="6.802789612089774"><ele>253.0</ele><time>2026-04-12T06:27:29.999Z</time></trkpt><trkpt lat="43.599761512968996" lon="6.802722667938362"><ele>253.0</ele><time>2026-04-12T06:27:30.999Z</time></trkpt><trkpt lat="43.599699729059886" lon="6.802649651801565"><ele>253.0</ele><time>2026-04-12T06:27:31.999Z</time></trkpt><trkpt lat="43.59963763469234" lon="6.802582118531357"><ele>252.99999999999997</ele><time>2026-04-12T06:27:32.999Z</time></trkpt><trkpt lat="43.59956928075499" lon="6.802519709817191"><ele>253.0</ele><time>2026-04-12T06:27:33.999Z</time></trkpt><trkpt lat="43.59950396178107" lon="6.802455848966934"><ele>253.16666666666666</ele><time>2026-04-12T06:27:34.999Z</time></trkpt><trkpt lat="43.59943838690913" lon="6.80238929922934"><ele>253.33333333333331</ele><time>2026-04-12T06:27:35.999Z</time></trkpt><trkpt lat="43.59936886708625" lon="6.802326703032801"><ele>253.5</ele><time>2026-04-12T06:27:36.999Z</time></trkpt><trkpt lat="43.59929655223785" lon="6.802266426677515"><ele>253.66666666666669</ele><time>2026-04-12T06:27:37.999Z</time></trkpt><trkpt lat="43.5992261528553" lon="6.802207853306866"><ele>253.83333333333334</ele><time>2026-04-12T06:27:38.999Z</time></trkpt><trkpt lat="43.59915605851216" lon="6.802146850805392"><ele>254.0</ele><time>2026-04-12T06:27:39.999Z</time></trkpt><trkpt lat="43.599087359268374" lon="6.80208304951392"><ele>254.0</ele><time>2026-04-12T06:27:40.999Z</time></trkpt><trkpt lat="43.59901501180411" lon="6.8020135169505584"><ele>253.99999999999997</ele><time>2026-04-12T06:27:41.999Z</time></trkpt><trkpt lat="43.598940736940826" lon="6.801932924659917"><ele>253.99999999999997</ele><time>2026-04-12T06:27:42.999Z</time></trkpt><trkpt lat="43.598865628635195" lon="6.801843687165099"><ele>254.0</ele><time>2026-04-12T06:27:43.999Z</time></trkpt><trkpt lat="43.59879048649898" lon="6.801748383698847"><ele>254.0</ele><time>2026-04-12T06:27:44.999Z</time></trkpt><trkpt lat="43.59871255537524" lon="6.801646663974952"><ele>254.0</ele><time>2026-04-12T06:27:45.999Z</time></trkpt><trkpt lat="43.598635515281934" lon="6.801534612601125"><ele>254.0</ele><time>2026-04-12T06:27:46.999Z</time></trkpt><trkpt lat="43.5985654129317" lon="6.801410764828981"><ele>254.0</ele><time>2026-04-12T06:27:47.999Z</time></trkpt><trkpt lat="43.598494127766244" lon="6.801287291960387"><ele>254.0</ele><time>2026-04-12T06:27:48.999Z</time></trkpt><trkpt lat="43.5984228076415" lon="6.801166058954769"><ele>254.0</ele><time>2026-04-12T06:27:49.999Z</time></trkpt><trkpt lat="43.598350838469514" lon="6.801042962789441"><ele>253.99999999999997</ele><time>2026-04-12T06:27:50.999Z</time></trkpt><trkpt lat="43.59827734027632" lon="6.800922565450448"><ele>253.99999999999997</ele><time>2026-04-12T06:27:51.999Z</time></trkpt><trkpt lat="43.5982051784868" lon="6.800806575139317"><ele>254.0</ele><time>2026-04-12T06:27:52.999Z</time></trkpt><trkpt lat="43.59813358594045" lon="6.800692032151108"><ele>254.0</ele><time>2026-04-12T06:27:53.999Z</time></trkpt><trkpt lat="43.598063952323564" lon="6.800579098964221"><ele>254.2</ele><time>2026-04-12T06:27:54.999Z</time></trkpt><trkpt lat="43.59799900332358" lon="6.800473856813273"><ele>254.39999999999998</ele><time>2026-04-12T06:27:55.999Z</time></trkpt><trkpt lat="43.59793990246896" lon="6.800371346992614"><ele>254.6</ele><time>2026-04-12T06:27:56.999Z</time></trkpt><trkpt lat="43.59787935912104" lon="6.800276674937209"><ele>254.8</ele><time>2026-04-12T06:27:58Z</time></trkpt><trkpt lat="43.597827050888206" lon="6.800176557783882"><ele>255.0</ele><time>2026-04-12T06:27:59Z</time></trkpt><trkpt lat="43.59777237393008" lon="6.800089257101636"><ele>255.0</ele><time>2026-04-12T06:28:00Z</time></trkpt><trkpt lat="43.59772195309592" lon="6.800006014984047"><ele>255.0</ele><time>2026-04-12T06:28:01Z</time></trkpt><trkpt lat="43.59768312675211" lon="6.799909867931858"><ele>255.0</ele><time>2026-04-12T06:28:02Z</time></trkpt><trkpt lat="43.597647150618414" lon="6.799810674708918"><ele>255.0</ele><time>2026-04-12T06:28:03Z</time></trkpt><trkpt lat="43.59761097853979" lon="6.799710217628114"><ele>255.0</ele><time>2026-04-12T06:28:04Z</time></trkpt><trkpt lat="43.59757730983122" lon="6.799612127496564"><ele>255.0</ele><time>2026-04-12T06:28:05Z</time></trkpt><trkpt lat="43.59754385262888" lon="6.79951474245883"><ele>255.0</ele><time>2026-04-12T06:28:06Z</time></trkpt><trkpt lat="43.59751141347628" lon="6.799415745482012"><ele>255.0</ele><time>2026-04-12T06:28:07Z</time></trkpt><trkpt lat="43.597481348619475" lon="6.799311800076434"><ele>255.0</ele><time>2026-04-12T06:28:08Z</time></trkpt><trkpt lat="43.59744445660299" lon="6.7992108710563715"><ele>255.0</ele><time>2026-04-12T06:28:09Z</time></trkpt><trkpt lat="43.59741043213721" lon="6.7991098888971955"><ele>255.0</ele><time>2026-04-12T06:28:10Z</time></trkpt><trkpt lat="43.59737699033456" lon="6.799005396584224"><ele>255.0</ele><time>2026-04-12T06:28:11Z</time></trkpt><trkpt lat="43.597341846989636" lon="6.798902261277069"><ele>256.1666666666667</ele><time>2026-04-12T06:28:12Z</time></trkpt><trkpt lat="43.59730518491959" lon="6.7987940114243095"><ele>257.3333333333333</ele><time>2026-04-12T06:28:13Z</time></trkpt><trkpt lat="43.597270137873814" lon="6.798682558061661"><ele>258.5</ele><time>2026-04-12T06:28:14Z</time></trkpt><trkpt lat="43.59723538813867" lon="6.798573453515757"><ele>259.66666666666663</ele><time>2026-04-12T06:28:15Z</time></trkpt><trkpt lat="43.5971981228359" lon="6.798464143721461"><ele>260.8333333333333</ele><time>2026-04-12T06:28:16Z</time></trkpt><trkpt lat="43.59716361627721" lon="6.798357808359611"><ele>262.0</ele><time>2026-04-12T06:28:17Z</time></trkpt><trkpt lat="43.59712714338186" lon="6.798254570680435"><ele>262.66666666666663</ele><time>2026-04-12T06:28:18Z</time></trkpt><trkpt lat="43.59709211265496" lon="6.798151982840437"><ele>263.3333333333333</ele><time>2026-04-12T06:28:19Z</time></trkpt><trkpt lat="43.59705341835094" lon="6.7980420410828915"><ele>264.0</ele><time>2026-04-12T06:28:20Z</time></trkpt><trkpt lat="43.59701455834675" lon="6.797928884463774"><ele>264.6666666666667</ele><time>2026-04-12T06:28:21Z</time></trkpt><trkpt lat="43.596973480168785" lon="6.797817697386391"><ele>265.33333333333337</ele><time>2026-04-12T06:28:22Z</time></trkpt><trkpt lat="43.596933103594736" lon="6.797696386051259"><ele>266.0</ele><time>2026-04-12T06:28:23Z</time></trkpt><trkpt lat="43.59689263605531" lon="6.797574651208696"><ele>264.0</ele><time>2026-04-12T06:28:24Z</time></trkpt><trkpt lat="43.59684544998005" lon="6.797456824080872"><ele>262.0</ele><time>2026-04-12T06:28:25Z</time></trkpt><trkpt lat="43.5967989291546" lon="6.797333168306415"><ele>260.0</ele><time>2026-04-12T06:28:26Z</time></trkpt><trkpt lat="43.59675140705401" lon="6.797201374326019"><ele>258.0</ele><time>2026-04-12T06:28:27Z</time></trkpt><trkpt lat="43.59670363637822" lon="6.797072840866309"><ele>256.0</ele><time>2026-04-12T06:28:28Z</time></trkpt><trkpt lat="43.596660062448734" lon="6.796936868446361"><ele>256.6</ele><time>2026-04-12T06:28:29Z</time></trkpt><trkpt lat="43.596612556261995" lon="6.796806928356704"><ele>257.20000000000005</ele><time>2026-04-12T06:28:30Z</time></trkpt><trkpt lat="43.59657156317115" lon="6.7966635378028855"><ele>257.79999999999995</ele><time>2026-04-12T06:28:31Z</time></trkpt><trkpt lat="43.59654317387577" lon="6.796510057681436"><ele>258.4</ele><time>2026-04-12T06:28:32Z</time></trkpt><trkpt lat="43.59652756689045" lon="6.796351960378427"><ele>259.0</ele><time>2026-04-12T06:28:33Z</time></trkpt><trkpt lat="43.596522040814996" lon="6.796189471335921"><ele>259.0</ele><time>2026-04-12T06:28:34Z</time></trkpt><trkpt lat="43.59653031431689" lon="6.796026005296353"><ele>259.0</ele><time>2026-04-12T06:28:35Z</time></trkpt><trkpt lat="43.596545275072884" lon="6.795862986176574"><ele>259.0</ele><time>2026-04-12T06:28:36Z</time></trkpt><trkpt lat="43.59657239176558" lon="6.795701858324707"><ele>259.0</ele><time>2026-04-12T06:28:37Z</time></trkpt><trkpt lat="43.59660138381431" lon="6.795540694819959"><ele>259.0</ele><time>2026-04-12T06:28:38Z</time></trkpt><trkpt lat="43.59663650919899" lon="6.795374841060839"><ele>259.0</ele><time>2026-04-12T06:28:39Z</time></trkpt><trkpt lat="43.5966839781377" lon="6.795212157746363"><ele>259.0</ele><time>2026-04-12T06:28:40Z</time></trkpt><trkpt lat="43.596733334073015" lon="6.795052304883743"><ele>259.0</ele><time>2026-04-12T06:28:41Z</time></trkpt><trkpt lat="43.596795107771676" lon="6.7948933859255725"><ele>259.25</ele><time>2026-04-12T06:28:42Z</time></trkpt><trkpt lat="43.596862105792255" lon="6.794747121492157"><ele>259.5</ele><time>2026-04-12T06:28:43Z</time></trkpt><trkpt lat="43.59693454239342" lon="6.7945987256506974"><ele>259.75</ele><time>2026-04-12T06:28:44Z</time></trkpt><trkpt lat="43.59700353647343" lon="6.7944448772243105"><ele>260.0</ele><time>2026-04-12T06:28:45Z</time></trkpt><trkpt lat="43.5970635024538" lon="6.79427928533442"><ele>260.0</ele><time>2026-04-12T06:28:46Z</time></trkpt><trkpt lat="43.5971124511828" lon="6.794111963187716"><ele>260.0</ele><time>2026-04-12T06:28:47Z</time></trkpt><trkpt lat="43.59713990226632" lon="6.793929362736418"><ele>260.0</ele><time>2026-04-12T06:28:48Z</time></trkpt><trkpt lat="43.59716230601805" lon="6.793744094013369"><ele>260.0</ele><time>2026-04-12T06:28:49Z</time></trkpt><trkpt lat="43.5971882916655" lon="6.793561588514896"><ele>257.75</ele><time>2026-04-12T06:28:50Z</time></trkpt><trkpt lat="43.59720352870133" lon="6.793375821285602"><ele>255.5</ele><time>2026-04-12T06:28:51Z</time></trkpt><trkpt lat="43.59719525489342" lon="6.793187169591391"><ele>253.25</ele><time>2026-04-12T06:28:52Z</time></trkpt><trkpt lat="43.59719311163172" lon="6.792999001102236"><ele>251.0</ele><time>2026-04-12T06:28:53Z</time></trkpt><trkpt lat="43.59719020621934" lon="6.792810217467308"><ele>250.25</ele><time>2026-04-12T06:28:54Z</time></trkpt><trkpt lat="43.59718707257927" lon="6.792621452651879"><ele>249.5</ele><time>2026-04-12T06:28:55Z</time></trkpt><trkpt lat="43.597182458052096" lon="6.792429940563821"><ele>248.75</ele><time>2026-04-12T06:28:56Z</time></trkpt><trkpt lat="43.59717948683834" lon="6.7922333768607315"><ele>248.0</ele><time>2026-04-12T06:28:57Z</time></trkpt><trkpt lat="43.5971748049268" lon="6.792036733911803"><ele>246.66666666666669</ele><time>2026-04-12T06:28:58Z</time></trkpt><trkpt lat="43.597171884045" lon="6.791834080837892"><ele>245.33333333333331</ele><time>2026-04-12T06:28:59Z</time></trkpt><trkpt lat="43.59717914710512" lon="6.791625014787389"><ele>244.0</ele><time>2026-04-12T06:29:00Z</time></trkpt><trkpt lat="43.59719385447629" lon="6.79141531693804"><ele>244.0</ele><time>2026-04-12T06:29:01Z</time></trkpt><trkpt lat="43.59722825437289" lon="6.791204263015632"><ele>244.0</ele><time>2026-04-12T06:29:02Z</time></trkpt><trkpt lat="43.59728754440271" lon="6.7910022949165025"><ele>244.0</ele><time>2026-04-12T06:29:03Z</time></trkpt><trkpt lat="43.59735384746857" lon="6.79080723566427"><ele>241.33333333333331</ele><time>2026-04-12T06:29:03.999Z</time></trkpt><trkpt lat="43.597409397843776" lon="6.790607359331889"><ele>238.66666666666669</ele><time>2026-04-12T06:29:04.999Z</time></trkpt><trkpt lat="43.59746464206883" lon="6.790403773624455"><ele>236.0</ele><time>2026-04-12T06:29:05.999Z</time></trkpt><trkpt lat="43.59752258131755" lon="6.790203299433385"><ele>234.0</ele><time>2026-04-12T06:29:06.999Z</time></trkpt><trkpt lat="43.59758266467369" lon="6.790007325555145"><ele>232.0</ele><time>2026-04-12T06:29:07.999Z</time></trkpt><trkpt lat="43.59764919524794" lon="6.789813889200919"><ele>230.0</ele><time>2026-04-12T06:29:08.999Z</time></trkpt><trkpt lat="43.59772349718975" lon="6.789616014155016"><ele>230.0</ele><time>2026-04-12T06:29:09.999Z</time></trkpt><trkpt lat="43.59780427754571" lon="6.789426158479727"><ele>230.0</ele><time>2026-04-12T06:29:10.999Z</time></trkpt><trkpt lat="43.597893914067704" lon="6.789240485578744"><ele>230.0</ele><time>2026-04-12T06:29:11.999Z</time></trkpt><trkpt lat="43.59798944084809" lon="6.789058665356946"><ele>230.0</ele><time>2026-04-12T06:29:12.999Z</time></trkpt><trkpt lat="43.59808828747668" lon="6.788877490363438"><ele>230.0</ele><time>2026-04-12T06:29:13.999Z</time></trkpt><trkpt lat="43.598181932751665" lon="6.7886933194531665"><ele>230.0</ele><time>2026-04-12T06:29:14.999Z</time></trkpt><trkpt lat="43.598272471130976" lon="6.7885008178864785"><ele>228.66666666666669</ele><time>2026-04-12T06:29:15.999Z</time></trkpt><trkpt lat="43.59836065612383" lon="6.788311094791431"><ele>227.33333333333331</ele><time>2026-04-12T06:29:16.999Z</time></trkpt><trkpt lat="43.598444460194386" lon="6.788124038725923"><ele>226.0</ele><time>2026-04-12T06:29:17.999Z</time></trkpt><trkpt lat="43.598516536801036" lon="6.787932262841222"><ele>226.0</ele><time>2026-04-12T06:29:18.999Z</time></trkpt><trkpt lat="43.598578926905034" lon="6.787744562820184"><ele>226.0</ele><time>2026-04-12T06:29:19.999Z</time></trkpt><trkpt lat="43.59863859345466" lon="6.78756708264714"><ele>226.0</ele><time>2026-04-12T06:29:20.999Z</time></trkpt><trkpt lat="43.598700395825404" lon="6.787399043305242"><ele>226.0</ele><time>2026-04-12T06:29:21.999Z</time></trkpt><trkpt lat="43.59875768584488" lon="6.787233406027977"><ele>223.5</ele><time>2026-04-12T06:29:22.999Z</time></trkpt><trkpt lat="43.59881735289662" lon="6.787058177726052"><ele>221.0</ele><time>2026-04-12T06:29:23.999Z</time></trkpt><trkpt lat="43.59887281162371" lon="6.786895074667185"><ele>218.5</ele><time>2026-04-12T06:29:24.999Z</time></trkpt><trkpt lat="43.59892487997387" lon="6.78674889727463"><ele>216.0</ele><time>2026-04-12T06:29:25.999Z</time></trkpt><trkpt lat="43.598978928191535" lon="6.786610998555096"><ele>214.4</ele><time>2026-04-12T06:29:26.999Z</time></trkpt><trkpt lat="43.59903553195683" lon="6.786481754795602"><ele>212.8</ele><time>2026-04-12T06:29:27.999Z</time></trkpt><trkpt lat="43.599111918142704" lon="6.786375723339807"><ele>211.20000000000002</ele><time>2026-04-12T06:29:28.999Z</time></trkpt><trkpt lat="43.59921333589892" lon="6.786311241644826"><ele>209.60000000000002</ele><time>2026-04-12T06:29:29.999Z</time></trkpt><trkpt lat="43.5993160675955" lon="6.786273681636426"><ele>208.0</ele><time>2026-04-12T06:29:30.999Z</time></trkpt><trkpt lat="43.59942500269607" lon="6.786257734107551"><ele>207.5</ele><time>2026-04-12T06:29:31.999Z</time></trkpt><trkpt lat="43.599534086680926" lon="6.786296677649739"><ele>207.0</ele><time>2026-04-12T06:29:32.999Z</time></trkpt><trkpt lat="43.59962805336229" lon="6.786388369179481"><ele>206.5</ele><time>2026-04-12T06:29:33.999Z</time></trkpt><trkpt lat="43.59973354053638" lon="6.78646061466284"><ele>206.0</ele><time>2026-04-12T06:29:34.999Z</time></trkpt><trkpt lat="43.599842513383415" lon="6.786531669169024"><ele>206.0</ele><time>2026-04-12T06:29:35.999Z</time></trkpt><trkpt lat="43.599955444617606" lon="6.786593868642021"><ele>206.0</ele><time>2026-04-12T06:29:36.999Z</time></trkpt><trkpt lat="43.60007546414466" lon="6.786627584857471"><ele>206.0</ele><time>2026-04-12T06:29:37.999Z</time></trkpt><trkpt lat="43.60019411724517" lon="6.786583442214818"><ele>206.0</ele><time>2026-04-12T06:29:38.999Z</time></trkpt><trkpt lat="43.60030959015594" lon="6.786570791265776"><ele>206.75</ele><time>2026-04-12T06:29:39.999Z</time></trkpt><trkpt lat="43.60041798803855" lon="6.786524165078944"><ele>207.5</ele><time>2026-04-12T06:29:40.999Z</time></trkpt><trkpt lat="43.600520041607844" lon="6.786455112108399"><ele>208.25</ele><time>2026-04-12T06:29:41.999Z</time></trkpt><trkpt lat="43.60061481003686" lon="6.78636504623244"><ele>209.0</ele><time>2026-04-12T06:29:42.999Z</time></trkpt><trkpt lat="43.60070288199858" lon="6.786274804630689"><ele>209.0</ele><time>2026-04-12T06:29:43.999Z</time></trkpt><trkpt lat="43.600782792087124" lon="6.78616834948017"><ele>209.0</ele><time>2026-04-12T06:29:44.999Z</time></trkpt><trkpt lat="43.60086791422797" lon="6.786083094976373"><ele>209.0</ele><time>2026-04-12T06:29:45.999Z</time></trkpt><trkpt lat="43.60094874688049" lon="6.785997858379546"><ele>209.0</ele><time>2026-04-12T06:29:46.999Z</time></trkpt><trkpt lat="43.60103205420462" lon="6.785913018771705"><ele>209.0</ele><time>2026-04-12T06:29:47.999Z</time></trkpt><trkpt lat="43.6011157766821" lon="6.785831360638287"><ele>208.79999999999998</ele><time>2026-04-12T06:29:48.999Z</time></trkpt><trkpt lat="43.601202659666285" lon="6.785750926784514"><ele>208.6</ele><time>2026-04-12T06:29:49.999Z</time></trkpt><trkpt lat="43.60129158422343" lon="6.7856721560958695"><ele>208.4</ele><time>2026-04-12T06:29:50.999Z</time></trkpt><trkpt lat="43.601389102396276" lon="6.785629333443936"><ele>208.2</ele><time>2026-04-12T06:29:51.999Z</time></trkpt><trkpt lat="43.601475178412436" lon="6.785549790686836"><ele>208.0</ele><time>2026-04-12T06:29:52.999Z</time></trkpt><trkpt lat="43.60157496752373" lon="6.78549763110933"><ele>208.0</ele><time>2026-04-12T06:29:53.999Z</time></trkpt><trkpt lat="43.601666964667686" lon="6.7854234474851465"><ele>208.0</ele><time>2026-04-12T06:29:54.999Z</time></trkpt><trkpt lat="43.6017651371005" lon="6.785343134607701"><ele>208.0</ele><time>2026-04-12T06:29:55.999Z</time></trkpt><trkpt lat="43.601866971268755" lon="6.785256621591341"><ele>208.0</ele><time>2026-04-12T06:29:56.999Z</time></trkpt><trkpt lat="43.60196903656994" lon="6.785165382441127"><ele>206.0</ele><time>2026-04-12T06:29:57.999Z</time></trkpt><trkpt lat="43.60207413198836" lon="6.78507464463143"><ele>204.0</ele><time>2026-04-12T06:29:58.999Z</time></trkpt><trkpt lat="43.602178932262504" lon="6.784977910737872"><ele>202.0</ele><time>2026-04-12T06:29:59.999Z</time></trkpt><trkpt lat="43.60228863763684" lon="6.784879878244743"><ele>200.0</ele><time>2026-04-12T06:30:00.999Z</time></trkpt><trkpt lat="43.60239949043185" lon="6.784781375725509"><ele>200.0</ele><time>2026-04-12T06:30:01.999Z</time></trkpt><trkpt lat="43.60251173321854" lon="6.784682553959891"><ele>200.0</ele><time>2026-04-12T06:30:02.999Z</time></trkpt><trkpt lat="43.60262636635204" lon="6.784583602364725"><ele>200.0</ele><time>2026-04-12T06:30:04Z</time></trkpt><trkpt lat="43.602738461804336" lon="6.7844824913053765"><ele>200.0</ele><time>2026-04-12T06:30:05Z</time></trkpt><trkpt lat="43.60284935779785" lon="6.784378531497956"><ele>199.5</ele><time>2026-04-12T06:30:06Z</time></trkpt><trkpt lat="43.60295893820555" lon="6.784277838730288"><ele>199.0</ele><time>2026-04-12T06:30:07Z</time></trkpt><trkpt lat="43.603067461421276" lon="6.784183915305649"><ele>198.5</ele><time>2026-04-12T06:30:08Z</time></trkpt><trkpt lat="43.603174071382604" lon="6.784087584659032"><ele>198.0</ele><time>2026-04-12T06:30:09Z</time></trkpt><trkpt lat="43.60328493760388" lon="6.783989576707514"><ele>198.0</ele><time>2026-04-12T06:30:10Z</time></trkpt><trkpt lat="43.60340230148931" lon="6.783913004837932"><ele>198.0</ele><time>2026-04-12T06:30:11Z</time></trkpt><trkpt lat="43.60350430340306" lon="6.78380231099771"><ele>198.0</ele><time>2026-04-12T06:30:12Z</time></trkpt><trkpt lat="43.60361908809756" lon="6.783715711429941"><ele>198.0</ele><time>2026-04-12T06:30:13Z</time></trkpt><trkpt lat="43.603733038797316" lon="6.7836224694540235"><ele>198.25</ele><time>2026-04-12T06:30:14Z</time></trkpt><trkpt lat="43.60383590827904" lon="6.783517767376066"><ele>198.5</ele><time>2026-04-12T06:30:15Z</time></trkpt><trkpt lat="43.603943527454" lon="6.783415406072002"><ele>198.75</ele><time>2026-04-12T06:30:16Z</time></trkpt><trkpt lat="43.604048901241086" lon="6.783316735255702"><ele>199.0</ele><time>2026-04-12T06:30:17Z</time></trkpt><trkpt lat="43.60415530169757" lon="6.783226244611697"><ele>199.0</ele><time>2026-04-12T06:30:18Z</time></trkpt><trkpt lat="43.60426946380664" lon="6.78316001192838"><ele>199.0</ele><time>2026-04-12T06:30:19Z</time></trkpt><trkpt lat="43.60436405664773" lon="6.7830569256000235"><ele>199.0</ele><time>2026-04-12T06:30:20Z</time></trkpt><trkpt lat="43.60446594289872" lon="6.782965375725124"><ele>199.0</ele><time>2026-04-12T06:30:21Z</time></trkpt><trkpt lat="43.60455742072679" lon="6.782860726000116"><ele>198.79999999999998</ele><time>2026-04-12T06:30:22Z</time></trkpt><trkpt lat="43.60464207475114" lon="6.782754256964082"><ele>198.6</ele><time>2026-04-12T06:30:23Z</time></trkpt><trkpt lat="43.60472715179357" lon="6.782648749646102"><ele>198.4</ele><time>2026-04-12T06:30:24Z</time></trkpt><trkpt lat="43.60480793859009" lon="6.782554740098114"><ele>198.2</ele><time>2026-04-12T06:30:25Z</time></trkpt><trkpt lat="43.60488039824487" lon="6.782477885120779"><ele>198.0</ele><time>2026-04-12T06:30:26Z</time></trkpt><trkpt lat="43.604951693976076" lon="6.7823962748253726"><ele>198.0</ele><time>2026-04-12T06:30:27Z</time></trkpt><trkpt lat="43.60501997073183" lon="6.782303612368371"><ele>198.0</ele><time>2026-04-12T06:30:28Z</time></trkpt><trkpt lat="43.60508375234238" lon="6.782212737520113"><ele>198.0</ele><time>2026-04-12T06:30:29Z</time></trkpt><trkpt lat="43.60514449838168" lon="6.782116974406603"><ele>198.0</ele><time>2026-04-12T06:30:30Z</time></trkpt><trkpt lat="43.60520026275707" lon="6.782011802728478"><ele>198.0</ele><time>2026-04-12T06:30:31Z</time></trkpt><trkpt lat="43.605263097179105" lon="6.7818957700258204"><ele>197.8</ele><time>2026-04-12T06:30:32Z</time></trkpt><trkpt lat="43.605318298992984" lon="6.781774937745156"><ele>197.60000000000002</ele><time>2026-04-12T06:30:33Z</time></trkpt><trkpt lat="43.60537327408248" lon="6.781646065382855"><ele>197.39999999999998</ele><time>2026-04-12T06:30:34Z</time></trkpt><trkpt lat="43.605431630002116" lon="6.781510493490544"><ele>197.2</ele><time>2026-04-12T06:30:35Z</time></trkpt><trkpt lat="43.60549111840299" lon="6.7813767924074355"><ele>197.0</ele><time>2026-04-12T06:30:36Z</time></trkpt><trkpt lat="43.60555037128682" lon="6.781242873524561"><ele>197.0</ele><time>2026-04-12T06:30:37Z</time></trkpt><trkpt lat="43.60561578228786" lon="6.78111224277332"><ele>197.0</ele><time>2026-04-12T06:30:38Z</time></trkpt><trkpt lat="43.60567893207209" lon="6.780989220923621"><ele>197.0</ele><time>2026-04-12T06:30:39Z</time></trkpt><trkpt lat="43.60575139837654" lon="6.780866170419337"><ele>197.0</ele><time>2026-04-12T06:30:40Z</time></trkpt><trkpt lat="43.60582264004016" lon="6.7807470670090915"><ele>197.0</ele><time>2026-04-12T06:30:41Z</time></trkpt><trkpt lat="43.60589386702956" lon="6.780632435347464"><ele>197.0</ele><time>2026-04-12T06:30:42Z</time></trkpt><trkpt lat="43.60596624533652" lon="6.78051706882537"><ele>197.0</ele><time>2026-04-12T06:30:43Z</time></trkpt><trkpt lat="43.606034477688766" lon="6.780409543628804"><ele>197.0</ele><time>2026-04-12T06:30:44Z</time></trkpt><trkpt lat="43.60610095828902" lon="6.780301550391285"><ele>197.0</ele><time>2026-04-12T06:30:45Z</time></trkpt><trkpt lat="43.606160501454475" lon="6.780186140372364"><ele>197.6</ele><time>2026-04-12T06:30:46Z</time></trkpt><trkpt lat="43.60621087416431" lon="6.780062731057648"><ele>198.2</ele><time>2026-04-12T06:30:47Z</time></trkpt><trkpt lat="43.606249040814326" lon="6.779932626674855"><ele>198.8</ele><time>2026-04-12T06:30:48Z</time></trkpt><trkpt lat="43.606272720791196" lon="6.779791439614843"><ele>199.4</ele><time>2026-04-12T06:30:49Z</time></trkpt><trkpt lat="43.60629394771179" lon="6.779648942479766"><ele>200.0</ele><time>2026-04-12T06:30:50Z</time></trkpt><trkpt lat="43.60631627333997" lon="6.779502791208186"><ele>200.0</ele><time>2026-04-12T06:30:51Z</time></trkpt><trkpt lat="43.606340909682906" lon="6.779363853289704"><ele>200.0</ele><time>2026-04-12T06:30:52Z</time></trkpt><trkpt lat="43.60636755047287" lon="6.779222855244701"><ele>200.0</ele><time>2026-04-12T06:30:53Z</time></trkpt><trkpt lat="43.60639144928624" lon="6.7790793153400255"><ele>200.0</ele><time>2026-04-12T06:30:54Z</time></trkpt><trkpt lat="43.60641542201737" lon="6.778941090896683"><ele>200.0</ele><time>2026-04-12T06:30:55Z</time></trkpt><trkpt lat="43.606441637484124" lon="6.778802163944366"><ele>200.0</ele><time>2026-04-12T06:30:56Z</time></trkpt><trkpt lat="43.606468597004195" lon="6.778670024794583"><ele>200.0</ele><time>2026-04-12T06:30:57Z</time></trkpt><trkpt lat="43.60649274355699" lon="6.778533478893778"><ele>200.0</ele><time>2026-04-12T06:30:58Z</time></trkpt><trkpt lat="43.60652256278545" lon="6.778402466781712"><ele>200.0</ele><time>2026-04-12T06:30:59Z</time></trkpt><trkpt lat="43.606560894386234" lon="6.778278983928961"><ele>200.0</ele><time>2026-04-12T06:31:00Z</time></trkpt><trkpt lat="43.60661188228857" lon="6.778165038499377"><ele>199.66666666666669</ele><time>2026-04-12T06:31:01Z</time></trkpt><trkpt lat="43.60666545068929" lon="6.778057425417212"><ele>199.33333333333334</ele><time>2026-04-12T06:31:02Z</time></trkpt><trkpt lat="43.60671771849413" lon="6.777950814413183"><ele>199.0</ele><time>2026-04-12T06:31:03Z</time></trkpt><trkpt lat="43.60676626913017" lon="6.7778581125256645"><ele>198.66666666666669</ele><time>2026-04-12T06:31:04Z</time></trkpt><trkpt lat="43.60682289633297" lon="6.777761270279511"><ele>198.33333333333334</ele><time>2026-04-12T06:31:05Z</time></trkpt><trkpt lat="43.606876842420135" lon="6.7776643217315184"><ele>198.0</ele><time>2026-04-12T06:31:06Z</time></trkpt><trkpt lat="43.60692589254084" lon="6.777556490770774"><ele>197.83333333333334</ele><time>2026-04-12T06:31:07Z</time></trkpt><trkpt lat="43.606955851361604" lon="6.777436088816621"><ele>197.66666666666669</ele><time>2026-04-12T06:31:08Z</time></trkpt><trkpt lat="43.606974288887514" lon="6.777318885081366"><ele>197.5</ele><time>2026-04-12T06:31:09Z</time></trkpt><trkpt lat="43.60701102711922" lon="6.777210950426682"><ele>197.33333333333334</ele><time>2026-04-12T06:31:10Z</time></trkpt><trkpt lat="43.607058808607576" lon="6.777111530739555"><ele>197.16666666666669</ele><time>2026-04-12T06:31:10.999Z</time></trkpt><trkpt lat="43.60711940074753" lon="6.777032943391115"><ele>197.0</ele><time>2026-04-12T06:31:11.999Z</time></trkpt><trkpt lat="43.60720540046748" lon="6.777009564859098"><ele>197.66666666666669</ele><time>2026-04-12T06:31:12.999Z</time></trkpt><trkpt lat="43.60727207113866" lon="6.776932404560722"><ele>198.33333333333334</ele><time>2026-04-12T06:31:13.999Z</time></trkpt><trkpt lat="43.607342150115045" lon="6.776870162446976"><ele>199.0</ele><time>2026-04-12T06:31:14.999Z</time></trkpt><trkpt lat="43.60740053533256" lon="6.776791467614657"><ele>199.66666666666669</ele><time>2026-04-12T06:31:15.999Z</time></trkpt><trkpt lat="43.6074521871511" lon="6.776703797503357"><ele>200.33333333333334</ele><time>2026-04-12T06:31:16.999Z</time></trkpt><trkpt lat="43.60750492948125" lon="6.7766154878002345"><ele>201.0</ele><time>2026-04-12T06:31:17.999Z</time></trkpt><trkpt lat="43.60755767619898" lon="6.776523763566633"><ele>201.0</ele><time>2026-04-12T06:31:18.999Z</time></trkpt><trkpt lat="43.60760868528508" lon="6.776433097329683"><ele>201.0</ele><time>2026-04-12T06:31:19.999Z</time></trkpt><trkpt lat="43.60766008203012" lon="6.776344537114805"><ele>201.0</ele><time>2026-04-12T06:31:20.999Z</time></trkpt><trkpt lat="43.60770955841899" lon="6.776255949468398"><ele>201.0</ele><time>2026-04-12T06:31:21.999Z</time></trkpt><trkpt lat="43.60775872728143" lon="6.77616673025968"><ele>201.0</ele><time>2026-04-12T06:31:22.999Z</time></trkpt><trkpt lat="43.60780927425454" lon="6.776080986385969"><ele>201.0</ele><time>2026-04-12T06:31:23.999Z</time></trkpt><trkpt lat="43.60786212584708" lon="6.7759977214841705"><ele>202.14285714285714</ele><time>2026-04-12T06:31:24.999Z</time></trkpt><trkpt lat="43.60791101967723" lon="6.77591120788962"><ele>203.2857142857143</ele><time>2026-04-12T06:31:25.999Z</time></trkpt><trkpt lat="43.607962502636596" lon="6.775829725891664"><ele>204.42857142857144</ele><time>2026-04-12T06:31:26.999Z</time></trkpt><trkpt lat="43.608007611009285" lon="6.775748527073683"><ele>205.57142857142856</ele><time>2026-04-12T06:31:27.999Z</time></trkpt><trkpt lat="43.60805395352886" lon="6.775675095708611"><ele>206.71428571428572</ele><time>2026-04-12T06:31:28.999Z</time></trkpt><trkpt lat="43.60809711795222" lon="6.7756003716601745"><ele>207.85714285714286</ele><time>2026-04-12T06:31:29.999Z</time></trkpt><trkpt lat="43.60814023051253" lon="6.7755276842459695"><ele>209.0</ele><time>2026-04-12T06:31:30.999Z</time></trkpt><trkpt lat="43.60821627644146" lon="6.7753966994259045"><ele>209.0</ele><time>2026-04-12T06:31:32.999Z</time></trkpt><trkpt lat="43.60828686121557" lon="6.775278983998123"><ele>209.0</ele><time>2026-04-12T06:31:34.999Z</time></trkpt><trkpt lat="43.608349435362804" lon="6.775157887651153"><ele>209.0</ele><time>2026-04-12T06:31:36.999Z</time></trkpt><trkpt lat="43.608413036135495" lon="6.775042245320867"><ele>209.0</ele><time>2026-04-12T06:31:38.999Z</time></trkpt><trkpt lat="43.60847982058824" lon="6.774940617124108"><ele>209.0</ele><time>2026-04-12T06:31:40.999Z</time></trkpt><trkpt lat="43.60853399806675" lon="6.7748432815043556"><ele>209.00000000000003</ele><time>2026-04-12T06:31:42.999Z</time></trkpt><trkpt lat="43.60858584795389" lon="6.774747536462234"><ele>209.0</ele><time>2026-04-12T06:31:44.999Z</time></trkpt><trkpt lat="43.60864399318786" lon="6.774647844527797"><ele>209.0</ele><time>2026-04-12T06:31:46.999Z</time></trkpt><trkpt lat="43.60869802965061" lon="6.774550276328377"><ele>209.0</ele><time>2026-04-12T06:31:48.999Z</time></trkpt><trkpt lat="43.608754493326586" lon="6.77445404586316"><ele>209.00000000000003</ele><time>2026-04-12T06:31:50.999Z</time></trkpt><trkpt lat="43.60881110086231" lon="6.7743602350307155"><ele>209.0</ele><time>2026-04-12T06:31:52.999Z</time></trkpt><trkpt lat="43.60886281664937" lon="6.774269088980649"><ele>210.66666666666669</ele><time>2026-04-12T06:31:54.999Z</time></trkpt><trkpt lat="43.608913115194305" lon="6.7741844650958525"><ele>212.33333333333334</ele><time>2026-04-12T06:31:56.999Z</time></trkpt><trkpt lat="43.60896292566448" lon="6.774100326889569"><ele>214.0</ele><time>2026-04-12T06:31:59.999Z</time></trkpt><trkpt lat="43.60900956646059" lon="6.774011359679907"><ele>215.66666666666669</ele><time>2026-04-12T06:32:02.999Z</time></trkpt><trkpt lat="43.60907755669326" lon="6.773948577865761"><ele>217.33333333333334</ele><time>2026-04-12T06:32:05.999Z</time></trkpt><trkpt lat="43.60915742817424" lon="6.773930034714956"><ele>219.0</ele><time>2026-04-12T06:32:07.999Z</time></trkpt><trkpt lat="43.60921610685876" lon="6.773991108066665"><ele>219.0</ele><time>2026-04-12T06:32:10Z</time></trkpt><trkpt lat="43.609266894839685" lon="6.774063372606447"><ele>219.0</ele><time>2026-04-12T06:32:12Z</time></trkpt><trkpt lat="43.60932639608542" lon="6.774131923282512"><ele>219.0</ele><time>2026-04-12T06:32:14Z</time></trkpt><trkpt lat="43.609382766476536" lon="6.77420650547457"><ele>219.0</ele><time>2026-04-12T06:32:16Z</time></trkpt><trkpt lat="43.60943707347036" lon="6.774282776716474"><ele>219.0</ele><time>2026-04-12T06:32:18Z</time></trkpt><trkpt lat="43.60949116488089" lon="6.774361764358296"><ele>219.0</ele><time>2026-04-12T06:32:20Z</time></trkpt><trkpt lat="43.60953959624898" lon="6.774445592880333"><ele>221.5</ele><time>2026-04-12T06:32:22Z</time></trkpt><trkpt lat="43.60958985110135" lon="6.774529691663197"><ele>224.0</ele><time>2026-04-12T06:32:24Z</time></trkpt><trkpt lat="43.609639086131075" lon="6.774608994720992"><ele>226.5</ele><time>2026-04-12T06:32:26Z</time></trkpt><trkpt lat="43.60968871314582" lon="6.774687696749078"><ele>229.0</ele><time>2026-04-12T06:32:28Z</time></trkpt><trkpt lat="43.60973117120814" lon="6.774772758450521"><ele>231.5</ele><time>2026-04-12T06:32:30Z</time></trkpt><trkpt lat="43.60977101191018" lon="6.774863937651187"><ele>234.0</ele><time>2026-04-12T06:32:32Z</time></trkpt><trkpt lat="43.609808508816364" lon="6.77495693661623"><ele>234.0</ele><time>2026-04-12T06:32:34Z</time></trkpt><trkpt lat="43.60983907495736" lon="6.775055606828995"><ele>234.0</ele><time>2026-04-12T06:32:36Z</time></trkpt><trkpt lat="43.60987590317805" lon="6.775167939289701"><ele>234.0</ele><time>2026-04-12T06:32:38Z</time></trkpt><trkpt lat="43.60990320774944" lon="6.775267211938069"><ele>234.0</ele><time>2026-04-12T06:32:40Z</time></trkpt><trkpt lat="43.60993428441031" lon="6.775363209752857"><ele>234.0</ele><time>2026-04-12T06:32:42Z</time></trkpt><trkpt lat="43.60996697650534" lon="6.775463659461047"><ele>234.0</ele><time>2026-04-12T06:32:44Z</time></trkpt><trkpt lat="43.6100020793091" lon="6.775562761206068"><ele>234.0</ele><time>2026-04-12T06:32:46Z</time></trkpt><trkpt lat="43.61003670423573" lon="6.775663423438366"><ele>234.0</ele><time>2026-04-12T06:32:48Z</time></trkpt><trkpt lat="43.61006553843526" lon="6.77576605909081"><ele>234.0</ele><time>2026-04-12T06:32:50Z</time></trkpt><trkpt lat="43.610098342913574" lon="6.775867407023513"><ele>234.0</ele><time>2026-04-12T06:32:52Z</time></trkpt><trkpt lat="43.61012635866606" lon="6.775966267320777"><ele>234.0</ele><time>2026-04-12T06:32:54Z</time></trkpt><trkpt lat="43.61014433505004" lon="6.776071886881154"><ele>234.0</ele><time>2026-04-12T06:32:56Z</time></trkpt><trkpt lat="43.610157212383335" lon="6.776179134009024"><ele>233.33333333333334</ele><time>2026-04-12T06:32:58Z</time></trkpt><trkpt lat="43.61017082965502" lon="6.776284416815597"><ele>232.66666666666669</ele><time>2026-04-12T06:33:00Z</time></trkpt><trkpt lat="43.61018904021287" lon="6.776388891877818"><ele>232.0</ele><time>2026-04-12T06:33:02Z</time></trkpt><trkpt lat="43.61020850768055" lon="6.7764921406671155"><ele>231.33333333333334</ele><time>2026-04-12T06:33:04Z</time></trkpt><trkpt lat="43.610241937827624" lon="6.7766321494724275"><ele>230.66666666666669</ele><time>2026-04-12T06:33:07Z</time></trkpt><trkpt lat="43.61028181284281" lon="6.7767299841555095"><ele>230.0</ele><time>2026-04-12T06:33:09Z</time></trkpt><trkpt lat="43.61035202441367" lon="6.776835543733683"><ele>230.83333333333334</ele><time>2026-04-12T06:33:12Z</time></trkpt><trkpt lat="43.61041901872499" lon="6.776903920782004"><ele>231.66666666666669</ele><time>2026-04-12T06:33:14Z</time></trkpt><trkpt lat="43.61048960254207" lon="6.7769398330172415"><ele>232.5</ele><time>2026-04-12T06:33:15.999Z</time></trkpt><trkpt lat="43.61056253304291" lon="6.776954014519795"><ele>233.33333333333331</ele><time>2026-04-12T06:33:17.999Z</time></trkpt><trkpt lat="43.61063849972362" lon="6.77693847725821"><ele>234.16666666666666</ele><time>2026-04-12T06:33:19.999Z</time></trkpt><trkpt lat="43.61070192327104" lon="6.776881017198468"><ele>235.0</ele><time>2026-04-12T06:33:21.999Z</time></trkpt><trkpt lat="43.61073999865172" lon="6.776782838627881"><ele>237.33333333333331</ele><time>2026-04-12T06:33:23.999Z</time></trkpt><trkpt lat="43.61074150230256" lon="6.776677496772833"><ele>239.66666666666666</ele><time>2026-04-12T06:33:25.999Z</time></trkpt><trkpt lat="43.6107031351707" lon="6.776582955020412"><ele>242.0</ele><time>2026-04-12T06:33:27.999Z</time></trkpt><trkpt lat="43.610655567963754" lon="6.776494460946553"><ele>244.33333333333331</ele><time>2026-04-12T06:33:29.999Z</time></trkpt><trkpt lat="43.610619544984765" lon="6.776397517573785"><ele>246.66666666666666</ele><time>2026-04-12T06:33:31.999Z</time></trkpt><trkpt lat="43.610607115038945" lon="6.776288612370305"><ele>249.0</ele><time>2026-04-12T06:33:33.999Z</time></trkpt><trkpt lat="43.61060068312994" lon="6.776178386496466"><ele>249.0</ele><time>2026-04-12T06:33:35.999Z</time></trkpt><trkpt lat="43.61059050518401" lon="6.776061091334346"><ele>249.0</ele><time>2026-04-12T06:33:37.999Z</time></trkpt><trkpt lat="43.61059909781169" lon="6.775964669256653"><ele>249.0</ele><time>2026-04-12T06:33:39.999Z</time></trkpt><trkpt lat="43.61059994999008" lon="6.775864237904488"><ele>249.0</ele><time>2026-04-12T06:33:41.999Z</time></trkpt><trkpt lat="43.61061773521363" lon="6.775759773947099"><ele>249.0</ele><time>2026-04-12T06:33:43.999Z</time></trkpt><trkpt lat="43.61064224316956" lon="6.775672728540326"><ele>249.0</ele><time>2026-04-12T06:33:45.999Z</time></trkpt><trkpt lat="43.610676672089994" lon="6.77557925252109"><ele>249.66666666666666</ele><time>2026-04-12T06:33:47.999Z</time></trkpt><trkpt lat="43.610712622774834" lon="6.775490296674901"><ele>250.33333333333331</ele><time>2026-04-12T06:33:49.999Z</time></trkpt><trkpt lat="43.61076239287771" lon="6.775409539894554"><ele>251.0</ele><time>2026-04-12T06:33:51.999Z</time></trkpt><trkpt lat="43.61081423435115" lon="6.775334724629112"><ele>251.66666666666666</ele><time>2026-04-12T06:33:53.999Z</time></trkpt><trkpt lat="43.61086365878785" lon="6.775256355308827"><ele>252.33333333333331</ele><time>2026-04-12T06:33:55.999Z</time></trkpt><trkpt lat="43.610916954987474" lon="6.7751837865485305"><ele>253.0</ele><time>2026-04-12T06:33:57.999Z</time></trkpt><trkpt lat="43.610969062709614" lon="6.775106519031942"><ele>253.00000000000003</ele><time>2026-04-12T06:33:59.999Z</time></trkpt><trkpt lat="43.61102825215235" lon="6.775043629149676"><ele>253.0</ele><time>2026-04-12T06:34:01.999Z</time></trkpt><trkpt lat="43.61108915137735" lon="6.77498800479626"><ele>253.00000000000003</ele><time>2026-04-12T06:34:03.999Z</time></trkpt><trkpt lat="43.61115941906439" lon="6.774926152900222"><ele>253.00000000000003</ele><time>2026-04-12T06:34:07.999Z</time></trkpt><trkpt lat="43.61121939537436" lon="6.774885528521805"><ele>253.0</ele><time>2026-04-12T06:34:09.999Z</time></trkpt><trkpt lat="43.61127855613808" lon="6.77484221642295"><ele>253.00000000000003</ele><time>2026-04-12T06:34:10.999Z</time></trkpt><trkpt lat="43.61135273390814" lon="6.7748039947305045"><ele>253.00000000000003</ele><time>2026-04-12T06:34:12.999Z</time></trkpt><trkpt lat="43.61142461952461" lon="6.77477072833146"><ele>255.14285714285717</ele><time>2026-04-12T06:34:14.999Z</time></trkpt><trkpt lat="43.61149646946321" lon="6.774730690936538"><ele>257.2857142857143</ele><time>2026-04-12T06:34:17Z</time></trkpt><trkpt lat="43.61156189713141" lon="6.774691059812107"><ele>259.42857142857144</ele><time>2026-04-12T06:34:20Z</time></trkpt><trkpt lat="43.611630411887546" lon="6.774650052226715"><ele>261.57142857142856</ele><time>2026-04-12T06:34:21Z</time></trkpt><trkpt lat="43.611693257104875" lon="6.774607540789134"><ele>263.7142857142857</ele><time>2026-04-12T06:34:23Z</time></trkpt><trkpt lat="43.6117584419557" lon="6.774554038785634"><ele>265.8571428571429</ele><time>2026-04-12T06:34:25Z</time></trkpt><trkpt lat="43.6118216748082" lon="6.77449500130294"><ele>268.0</ele><time>2026-04-12T06:34:27Z</time></trkpt><trkpt lat="43.611886953808295" lon="6.774439611817678"><ele>268.0</ele><time>2026-04-12T06:34:29Z</time></trkpt><trkpt lat="43.61194876717001" lon="6.774371870359117"><ele>268.0</ele><time>2026-04-12T06:34:31Z</time></trkpt><trkpt lat="43.61201589799127" lon="6.774312663445239"><ele>268.0</ele><time>2026-04-12T06:34:33Z</time></trkpt><trkpt lat="43.61207941419709" lon="6.774246876398201"><ele>268.0</ele><time>2026-04-12T06:34:35Z</time></trkpt><trkpt lat="43.61213064976853" lon="6.774194020400856"><ele>268.0</ele><time>2026-04-12T06:34:38Z</time></trkpt><trkpt lat="43.61219177982532" lon="6.774143004095927"><ele>268.0</ele><time>2026-04-12T06:34:40Z</time></trkpt><trkpt lat="43.61225140442122" lon="6.774088025374334"><ele>268.0</ele><time>2026-04-12T06:34:43Z</time></trkpt><trkpt lat="43.61233949256547" lon="6.774002732277085"><ele>269.16666666666663</ele><time>2026-04-12T06:34:45Z</time></trkpt><trkpt lat="43.61240403726731" lon="6.773938940287187"><ele>270.3333333333333</ele><time>2026-04-12T06:34:47Z</time></trkpt><trkpt lat="43.61247334679665" lon="6.773877980770933"><ele>271.5</ele><time>2026-04-12T06:34:49Z</time></trkpt><trkpt lat="43.61254198635709" lon="6.7738234844661225"><ele>272.6666666666667</ele><time>2026-04-12T06:34:51Z</time></trkpt><trkpt lat="43.61262229325118" lon="6.773773375611455"><ele>273.83333333333337</ele><time>2026-04-12T06:34:53Z</time></trkpt><trkpt lat="43.612698761633915" lon="6.773719740866678"><ele>275.0</ele><time>2026-04-12T06:34:55Z</time></trkpt><trkpt lat="43.612776961426675" lon="6.773671634520808"><ele>276.6666666666667</ele><time>2026-04-12T06:34:57Z</time></trkpt><trkpt lat="43.612847910838966" lon="6.7736261523206105"><ele>278.33333333333337</ele><time>2026-04-12T06:34:59Z</time></trkpt><trkpt lat="43.612927581818305" lon="6.773587876647438"><ele>280.0</ele><time>2026-04-12T06:35:02Z</time></trkpt><trkpt lat="43.61299988114777" lon="6.773546161542681"><ele>281.6666666666667</ele><time>2026-04-12T06:35:04Z</time></trkpt><trkpt lat="43.613070921913916" lon="6.77350436098656"><ele>283.3333333333333</ele><time>2026-04-12T06:35:06Z</time></trkpt><trkpt lat="43.61317136686354" lon="6.773449341819004"><ele>285.0</ele><time>2026-04-12T06:35:09Z</time></trkpt><trkpt lat="43.61326385968428" lon="6.773386282371056"><ele>285.0</ele><time>2026-04-12T06:35:11Z</time></trkpt><trkpt lat="43.61333431007194" lon="6.773338866556124"><ele>285.0</ele><time>2026-04-12T06:35:13Z</time></trkpt><trkpt lat="43.61340974450588" lon="6.7733034540496435"><ele>285.0</ele><time>2026-04-12T06:35:15Z</time></trkpt><trkpt lat="43.61348468717693" lon="6.773266907514543"><ele>285.0</ele><time>2026-04-12T06:35:17Z</time></trkpt><trkpt lat="43.613555784874784" lon="6.773229787777005"><ele>285.0</ele><time>2026-04-12T06:35:19Z</time></trkpt><trkpt lat="43.613623860319066" lon="6.773199103373772"><ele>285.0</ele><time>2026-04-12T06:35:21Z</time></trkpt><trkpt lat="43.61369778448136" lon="6.773190037633724"><ele>286.42857142857144</ele><time>2026-04-12T06:35:22.999Z</time></trkpt><trkpt lat="43.6137700048327" lon="6.773164405454472"><ele>287.8571428571429</ele><time>2026-04-12T06:35:24.999Z</time></trkpt><trkpt lat="43.61383940814608" lon="6.773143042435082"><ele>289.28571428571433</ele><time>2026-04-12T06:35:26.999Z</time></trkpt><trkpt lat="43.61391151544968" lon="6.773129452373409"><ele>290.7142857142857</ele><time>2026-04-12T06:35:28.999Z</time></trkpt><trkpt lat="43.61398638171723" lon="6.773108526086394"><ele>292.14285714285717</ele><time>2026-04-12T06:35:30.999Z</time></trkpt><trkpt lat="43.61405867144918" lon="6.773079198116642"><ele>293.5714285714286</ele><time>2026-04-12T06:35:32.999Z</time></trkpt><trkpt lat="43.614129839628866" lon="6.773041884541084"><ele>295.0</ele><time>2026-04-12T06:35:34.999Z</time></trkpt><trkpt lat="43.61420047377881" lon="6.773008095037112"><ele>295.0</ele><time>2026-04-12T06:35:36.999Z</time></trkpt><trkpt lat="43.614268781483794" lon="6.772970016707227"><ele>295.0</ele><time>2026-04-12T06:35:38.999Z</time></trkpt><trkpt lat="43.614355655644424" lon="6.772918918161426"><ele>295.0</ele><time>2026-04-12T06:35:41.999Z</time></trkpt><trkpt lat="43.614419221706385" lon="6.772880690324358"><ele>295.0</ele><time>2026-04-12T06:35:43.999Z</time></trkpt><trkpt lat="43.61447606037117" lon="6.772836737202772"><ele>295.0</ele><time>2026-04-12T06:35:45.999Z</time></trkpt><trkpt lat="43.614544569423366" lon="6.772801125055433"><ele>295.0</ele><time>2026-04-12T06:35:47.999Z</time></trkpt><trkpt lat="43.61461223451609" lon="6.772751187006455"><ele>296.16666666666663</ele><time>2026-04-12T06:35:49.999Z</time></trkpt><trkpt lat="43.61466987148" lon="6.772699415688097"><ele>297.3333333333333</ele><time>2026-04-12T06:35:51.999Z</time></trkpt><trkpt lat="43.61472762712164" lon="6.772640075799636"><ele>298.5</ele><time>2026-04-12T06:35:53.999Z</time></trkpt><trkpt lat="43.61480315657755" lon="6.772557671680773"><ele>299.6666666666667</ele><time>2026-04-12T06:35:55.999Z</time></trkpt><trkpt lat="43.61487236052732" lon="6.772463677365189"><ele>300.83333333333337</ele><time>2026-04-12T06:35:57.999Z</time></trkpt><trkpt lat="43.614928580727074" lon="6.77235539619225"><ele>302.0</ele><time>2026-04-12T06:35:59.999Z</time></trkpt><trkpt lat="43.61497730009176" lon="6.772246428913342"><ele>302.0</ele><time>2026-04-12T06:36:01.999Z</time></trkpt><trkpt lat="43.61503395802466" lon="6.7721502719098465"><ele>302.0</ele><time>2026-04-12T06:36:03.999Z</time></trkpt><trkpt lat="43.61509327369594" lon="6.772068543137045"><ele>302.0</ele><time>2026-04-12T06:36:05.999Z</time></trkpt><trkpt lat="43.61515517198362" lon="6.771992320606075"><ele>302.0</ele><time>2026-04-12T06:36:07.999Z</time></trkpt><trkpt lat="43.615218938984746" lon="6.771931160756896"><ele>302.0</ele><time>2026-04-12T06:36:09.999Z</time></trkpt><trkpt lat="43.61527888385976" lon="6.771865989285779"><ele>302.0</ele><time>2026-04-12T06:36:11.999Z</time></trkpt><trkpt lat="43.615337869187776" lon="6.7717968934478705"><ele>305.2</ele><time>2026-04-12T06:36:13.999Z</time></trkpt><trkpt lat="43.61539913606122" lon="6.771724170684626"><ele>308.4</ele><time>2026-04-12T06:36:15.999Z</time></trkpt><trkpt lat="43.61546263573466" lon="6.771633851889458"><ele>311.6</ele><time>2026-04-12T06:36:17.999Z</time></trkpt><trkpt lat="43.615519985030254" lon="6.771538042036617"><ele>314.8</ele><time>2026-04-12T06:36:19.999Z</time></trkpt><trkpt lat="43.6155771370758" lon="6.771431081057544"><ele>318.0</ele><time>2026-04-12T06:36:22Z</time></trkpt><trkpt lat="43.61563415592616" lon="6.771315486088619"><ele>318.0</ele><time>2026-04-12T06:36:24Z</time></trkpt><trkpt lat="43.615694930741135" lon="6.771190973990857"><ele>318.0</ele><time>2026-04-12T06:36:26Z</time></trkpt><trkpt lat="43.615747984112595" lon="6.771076733927159"><ele>318.0</ele><time>2026-04-12T06:36:28Z</time></trkpt><trkpt lat="43.615799722443164" lon="6.770947518908062"><ele>318.0</ele><time>2026-04-12T06:36:30Z</time></trkpt><trkpt lat="43.61584991323888" lon="6.7708232348838155"><ele>318.0</ele><time>2026-04-12T06:36:32Z</time></trkpt><trkpt lat="43.615891084204485" lon="6.770694962302268"><ele>316.2</ele><time>2026-04-12T06:36:34Z</time></trkpt><trkpt lat="43.61591902972824" lon="6.770564873235144"><ele>314.4</ele><time>2026-04-12T06:36:36Z</time></trkpt><trkpt lat="43.61594994547022" lon="6.77043118999649"><ele>312.59999999999997</ele><time>2026-04-12T06:36:38Z</time></trkpt><trkpt lat="43.615989211895105" lon="6.770300909055456"><ele>310.8</ele><time>2026-04-12T06:36:40Z</time></trkpt><trkpt lat="43.61601342426081" lon="6.770165679938598"><ele>309.0</ele><time>2026-04-12T06:36:42Z</time></trkpt><trkpt lat="43.61604312990778" lon="6.770030519474354"><ele>308.4</ele><time>2026-04-12T06:36:44Z</time></trkpt><trkpt lat="43.61607685217401" lon="6.769889942519915"><ele>307.79999999999995</ele><time>2026-04-12T06:36:46Z</time></trkpt><trkpt lat="43.61612041112087" lon="6.769752675827437"><ele>307.20000000000005</ele><time>2026-04-12T06:36:48Z</time></trkpt><trkpt lat="43.6161670554547" lon="6.76962053741318"><ele>306.6</ele><time>2026-04-12T06:36:50Z</time></trkpt><trkpt lat="43.61621370569492" lon="6.769482045874423"><ele>306.0</ele><time>2026-04-12T06:36:52Z</time></trkpt><trkpt lat="43.61626600412317" lon="6.769342720432743"><ele>309.6</ele><time>2026-04-12T06:36:54Z</time></trkpt><trkpt lat="43.6163348617157" lon="6.769221013210119"><ele>313.20000000000005</ele><time>2026-04-12T06:36:56Z</time></trkpt><trkpt lat="43.61640747100635" lon="6.769114360282235"><ele>316.79999999999995</ele><time>2026-04-12T06:36:58Z</time></trkpt><trkpt lat="43.616483287165856" lon="6.769017042953418"><ele>320.4</ele><time>2026-04-12T06:37:00Z</time></trkpt><trkpt lat="43.61655695860841" lon="6.768926761019462"><ele>324.0</ele><time>2026-04-12T06:37:02Z</time></trkpt><trkpt lat="43.61662183360403" lon="6.768838761532918"><ele>324.0</ele><time>2026-04-12T06:37:04Z</time></trkpt><trkpt lat="43.61667726278996" lon="6.768750974231944"><ele>324.0</ele><time>2026-04-12T06:37:06Z</time></trkpt><trkpt lat="43.61673748751186" lon="6.768663586753892"><ele>324.0</ele><time>2026-04-12T06:37:08Z</time></trkpt><trkpt lat="43.61678384813071" lon="6.768565457355298"><ele>324.0</ele><time>2026-04-12T06:37:10Z</time></trkpt><trkpt lat="43.61683125791015" lon="6.768471377251293"><ele>324.0</ele><time>2026-04-12T06:37:12Z</time></trkpt><trkpt lat="43.61688119874791" lon="6.768384153000948"><ele>324.0</ele><time>2026-04-12T06:37:14Z</time></trkpt><trkpt lat="43.61692987975455" lon="6.768296270291587"><ele>322.3333333333333</ele><time>2026-04-12T06:37:16Z</time></trkpt><trkpt lat="43.6169832917845" lon="6.768214392308036"><ele>320.6666666666667</ele><time>2026-04-12T06:37:18Z</time></trkpt><trkpt lat="43.617036283295015" lon="6.768129987885968"><ele>319.0</ele><time>2026-04-12T06:37:20Z</time></trkpt><trkpt lat="43.61708475694977" lon="6.768051849726649"><ele>317.33333333333337</ele><time>2026-04-12T06:37:22Z</time></trkpt><trkpt lat="43.617118117226845" lon="6.767959024124177"><ele>315.6666666666667</ele><time>2026-04-12T06:37:24Z</time></trkpt><trkpt lat="43.61713687828346" lon="6.76785318657906"><ele>314.0</ele><time>2026-04-12T06:37:26Z</time></trkpt><trkpt lat="43.6171515685558" lon="6.7677623070065795"><ele>318.1428571428571</ele><time>2026-04-12T06:37:27.999Z</time></trkpt><trkpt lat="43.617161353811916" lon="6.767667500726174"><ele>322.2857142857143</ele><time>2026-04-12T06:37:29.999Z</time></trkpt><trkpt lat="43.6171668089318" lon="6.767571913013636"><ele>326.42857142857144</ele><time>2026-04-12T06:37:31.999Z</time></trkpt><trkpt lat="43.61717344829533" lon="6.767476587647026"><ele>330.57142857142856</ele><time>2026-04-12T06:37:33.999Z</time></trkpt><trkpt lat="43.61718535498987" lon="6.767360902256237"><ele>334.7142857142857</ele><time>2026-04-12T06:37:35.999Z</time></trkpt><trkpt lat="43.61718748391096" lon="6.76725983849363"><ele>338.85714285714283</ele><time>2026-04-12T06:37:37.999Z</time></trkpt><trkpt lat="43.617186647495316" lon="6.767155394465648"><ele>343.0</ele><time>2026-04-12T06:37:39.999Z</time></trkpt><trkpt lat="43.61718574525348" lon="6.767045651124203"><ele>343.0</ele><time>2026-04-12T06:37:41.999Z</time></trkpt><trkpt lat="43.61718819602838" lon="6.766935744882401"><ele>343.0</ele><time>2026-04-12T06:37:43.999Z</time></trkpt><trkpt lat="43.61718719728526" lon="6.7668305454138515"><ele>343.0</ele><time>2026-04-12T06:37:45.999Z</time></trkpt><trkpt lat="43.617191745872546" lon="6.766732258711357"><ele>343.0</ele><time>2026-04-12T06:37:47.999Z</time></trkpt><trkpt lat="43.61719747404533" lon="6.766629693921275"><ele>343.0</ele><time>2026-04-12T06:37:49.999Z</time></trkpt><trkpt lat="43.617203051407245" lon="6.766525947380153"><ele>343.0</ele><time>2026-04-12T06:37:51.999Z</time></trkpt><trkpt lat="43.6172125770935" lon="6.766419912097355"><ele>343.42857142857144</ele><time>2026-04-12T06:37:53.999Z</time></trkpt><trkpt lat="43.617217775023306" lon="6.7663209099157395"><ele>343.8571428571429</ele><time>2026-04-12T06:37:55.999Z</time></trkpt><trkpt lat="43.617223241491914" lon="6.7662196405055814"><ele>344.2857142857143</ele><time>2026-04-12T06:37:57.999Z</time></trkpt><trkpt lat="43.617235898032376" lon="6.766123683944"><ele>344.7142857142857</ele><time>2026-04-12T06:37:59.999Z</time></trkpt><trkpt lat="43.61724873699517" lon="6.766031226046696"><ele>345.14285714285717</ele><time>2026-04-12T06:38:01.999Z</time></trkpt><trkpt lat="43.61727369585644" lon="6.765935196126731"><ele>345.57142857142856</ele><time>2026-04-12T06:38:03.999Z</time></trkpt><trkpt lat="43.617307329307636" lon="6.76584363580649"><ele>346.0</ele><time>2026-04-12T06:38:05.999Z</time></trkpt><trkpt lat="43.61735045324122" lon="6.765754534035768"><ele>346.16666666666663</ele><time>2026-04-12T06:38:07.999Z</time></trkpt><trkpt lat="43.61738507277624" lon="6.7656755321355275"><ele>346.3333333333333</ele><time>2026-04-12T06:38:10.999Z</time></trkpt><trkpt lat="43.617436502554305" lon="6.765574149929115"><ele>346.5</ele><time>2026-04-12T06:38:12.999Z</time></trkpt><trkpt lat="43.61748383526553" lon="6.765486782908327"><ele>346.6666666666667</ele><time>2026-04-12T06:38:14.999Z</time></trkpt><trkpt lat="43.617511422253465" lon="6.765386716457714"><ele>346.83333333333337</ele><time>2026-04-12T06:38:17.999Z</time></trkpt><trkpt lat="43.61753850736633" lon="6.765286709626106"><ele>347.0</ele><time>2026-04-12T06:38:18.999Z</time></trkpt><trkpt lat="43.61754926578827" lon="6.7651616078032974"><ele>347.0</ele><time>2026-04-12T06:38:20.999Z</time></trkpt><trkpt lat="43.61753533629938" lon="6.765044977717715"><ele>347.0</ele><time>2026-04-12T06:38:22.999Z</time></trkpt><trkpt lat="43.61751517541622" lon="6.764942939438695"><ele>347.0</ele><time>2026-04-12T06:38:24.999Z</time></trkpt><trkpt lat="43.6174841624263" lon="6.764843493929274"><ele>347.0</ele><time>2026-04-12T06:38:26.999Z</time></trkpt><trkpt lat="43.61745217230929" lon="6.764745492274514"><ele>347.0</ele><time>2026-04-12T06:38:29Z</time></trkpt><trkpt lat="43.617424211007894" lon="6.764645262592245"><ele>347.0</ele><time>2026-04-12T06:38:31Z</time></trkpt><trkpt lat="43.61739690319405" lon="6.7645449354779945"><ele>347.0</ele><time>2026-04-12T06:38:33Z</time></trkpt><trkpt lat="43.61738358107995" lon="6.764440073282551"><ele>347.0</ele><time>2026-04-12T06:38:35Z</time></trkpt><trkpt lat="43.61738593492465" lon="6.764335926059586"><ele>347.0</ele><time>2026-04-12T06:38:37Z</time></trkpt><trkpt lat="43.61740208428077" lon="6.76423406218434"><ele>347.0</ele><time>2026-04-12T06:38:39Z</time></trkpt><trkpt lat="43.61743171185384" lon="6.764140339037238"><ele>347.0</ele><time>2026-04-12T06:38:41Z</time></trkpt><trkpt lat="43.61748719275385" lon="6.76408428853732"><ele>347.0</ele><time>2026-04-12T06:38:43Z</time></trkpt><trkpt lat="43.617548975645605" lon="6.764140302667087"><ele>347.0</ele><time>2026-04-12T06:38:45Z</time></trkpt><trkpt lat="43.61757238685619" lon="6.764234804326936"><ele>347.0</ele><time>2026-04-12T06:38:47Z</time></trkpt><trkpt lat="43.61759892681034" lon="6.764325915983035"><ele>347.0</ele><time>2026-04-12T06:38:49Z</time></trkpt><trkpt lat="43.61765312480278" lon="6.76440505971036"><ele>347.0</ele><time>2026-04-12T06:38:51Z</time></trkpt><trkpt lat="43.61773598150796" lon="6.764425876533301"><ele>347.0</ele><time>2026-04-12T06:38:53Z</time></trkpt><trkpt lat="43.617809895942905" lon="6.764428382115655"><ele>347.0</ele><time>2026-04-12T06:38:55Z</time></trkpt><trkpt lat="43.61788505281479" lon="6.7644639693762825"><ele>347.0</ele><time>2026-04-12T06:38:57Z</time></trkpt><trkpt lat="43.61794789049868" lon="6.764593921026727"><ele>348.7142857142857</ele><time>2026-04-12T06:38:59Z</time></trkpt><trkpt lat="43.61798263851246" lon="6.764737124566428"><ele>350.4285714285714</ele><time>2026-04-12T06:39:01Z</time></trkpt><trkpt lat="43.61800561471501" lon="6.764818349344292"><ele>352.1428571428571</ele><time>2026-04-12T06:39:02Z</time></trkpt><trkpt lat="43.6180288814122" lon="6.764899944235001"><ele>353.8571428571429</ele><time>2026-04-12T06:39:03Z</time></trkpt><trkpt lat="43.61804846528234" lon="6.764984663404109"><ele>355.57142857142856</ele><time>2026-04-12T06:39:04Z</time></trkpt><trkpt lat="43.618071076099106" lon="6.765069307991931"><ele>357.2857142857143</ele><time>2026-04-12T06:39:05Z</time></trkpt><trkpt lat="43.61809478287274" lon="6.7651535365006525"><ele>359.0</ele><time>2026-04-12T06:39:06Z</time></trkpt><trkpt lat="43.6181569810071" lon="6.765295864736776"><ele>359.2</ele><time>2026-04-12T06:39:08Z</time></trkpt><trkpt lat="43.618261506185895" lon="6.765335008231327"><ele>359.4</ele><time>2026-04-12T06:39:10Z</time></trkpt><trkpt lat="43.61836069331706" lon="6.765282124616749"><ele>359.6</ele><time>2026-04-12T06:39:12Z</time></trkpt><trkpt lat="43.61847403566219" lon="6.765242312188448"><ele>359.8</ele><time>2026-04-12T06:39:14Z</time></trkpt><trkpt lat="43.61858682784287" lon="6.765216807701552"><ele>360.0</ele><time>2026-04-12T06:39:16Z</time></trkpt><trkpt lat="43.618696672104974" lon="6.765192530960451"><ele>359.7142857142857</ele><time>2026-04-12T06:39:18Z</time></trkpt><trkpt lat="43.6187626548354" lon="6.765175440033437"><ele>359.42857142857144</ele><time>2026-04-12T06:39:19Z</time></trkpt><trkpt lat="43.61882918074266" lon="6.765156185022093"><ele>359.14285714285717</ele><time>2026-04-12T06:39:20Z</time></trkpt><trkpt lat="43.61889579692014" lon="6.765104821665879"><ele>358.8571428571429</ele><time>2026-04-12T06:39:21Z</time></trkpt><trkpt lat="43.618969140142774" lon="6.765071261004464"><ele>358.57142857142856</ele><time>2026-04-12T06:39:22Z</time></trkpt><trkpt lat="43.619038442775405" lon="6.765033990272145"><ele>358.28571428571433</ele><time>2026-04-12T06:39:23Z</time></trkpt><trkpt lat="43.61911561082305" lon="6.76503848573862"><ele>358.0</ele><time>2026-04-12T06:39:24Z</time></trkpt><trkpt lat="43.61916616535115" lon="6.7652439535157525"><ele>358.0</ele><time>2026-04-12T06:39:26Z</time></trkpt><trkpt lat="43.61920424544646" lon="6.765348096623101"><ele>358.0</ele><time>2026-04-12T06:39:27Z</time></trkpt><trkpt lat="43.61922179274084" lon="6.765452935455107"><ele>358.0</ele><time>2026-04-12T06:39:28Z</time></trkpt><trkpt lat="43.619241187172605" lon="6.765555799900439"><ele>358.0</ele><time>2026-04-12T06:39:29Z</time></trkpt><trkpt lat="43.61925948181475" lon="6.765659592982862"><ele>358.0</ele><time>2026-04-12T06:39:30Z</time></trkpt><trkpt lat="43.61927699697172" lon="6.765762631329602"><ele>358.0</ele><time>2026-04-12T06:39:31Z</time></trkpt><trkpt lat="43.61930175495267" lon="6.765868568263687"><ele>358.0</ele><time>2026-04-12T06:39:32Z</time></trkpt><trkpt lat="43.61931953166844" lon="6.765975807711958"><ele>358.0</ele><time>2026-04-12T06:39:33Z</time></trkpt><trkpt lat="43.61934205372799" lon="6.76608011712952"><ele>358.0</ele><time>2026-04-12T06:39:34Z</time></trkpt><trkpt lat="43.61936329509579" lon="6.76618688079117"><ele>358.0</ele><time>2026-04-12T06:39:34.999Z</time></trkpt><trkpt lat="43.61938532295991" lon="6.766293983093356"><ele>358.0</ele><time>2026-04-12T06:39:35.999Z</time></trkpt><trkpt lat="43.61943213038393" lon="6.7663960244273245"><ele>358.0</ele><time>2026-04-12T06:39:36.999Z</time></trkpt><trkpt lat="43.61949287024971" lon="6.766487480412207"><ele>358.16666666666663</ele><time>2026-04-12T06:39:37.999Z</time></trkpt><trkpt lat="43.61957161301809" lon="6.766548523881761"><ele>358.3333333333333</ele><time>2026-04-12T06:39:38.999Z</time></trkpt><trkpt lat="43.61965838396982" lon="6.76657441971539"><ele>358.5</ele><time>2026-04-12T06:39:39.999Z</time></trkpt><trkpt lat="43.61974820684135" lon="6.766556027399982"><ele>358.6666666666667</ele><time>2026-04-12T06:39:40.999Z</time></trkpt><trkpt lat="43.619830796414725" lon="6.766536732771566"><ele>358.83333333333337</ele><time>2026-04-12T06:39:41.999Z</time></trkpt><trkpt lat="43.619924691641195" lon="6.766526749766262"><ele>359.0</ele><time>2026-04-12T06:39:42.999Z</time></trkpt><trkpt lat="43.6200183827119" lon="6.766495723835019"><ele>359.0</ele><time>2026-04-12T06:39:43.999Z</time></trkpt><trkpt lat="43.62010432154347" lon="6.766460612666083"><ele>359.0</ele><time>2026-04-12T06:39:44.999Z</time></trkpt><trkpt lat="43.620195540475954" lon="6.766425439353172"><ele>359.0</ele><time>2026-04-12T06:39:45.999Z</time></trkpt><trkpt lat="43.6202870574821" lon="6.766391477764394"><ele>359.0</ele><time>2026-04-12T06:39:46.999Z</time></trkpt><trkpt lat="43.620376166184215" lon="6.766356064108209"><ele>359.0</ele><time>2026-04-12T06:39:47.999Z</time></trkpt><trkpt lat="43.620465031191216" lon="6.766328979463018"><ele>360.6</ele><time>2026-04-12T06:39:48.999Z</time></trkpt><trkpt lat="43.62055724176194" lon="6.766300183167726"><ele>362.2</ele><time>2026-04-12T06:39:49.999Z</time></trkpt><trkpt lat="43.62064749662334" lon="6.766262839057573"><ele>363.8</ele><time>2026-04-12T06:39:50.999Z</time></trkpt><trkpt lat="43.62074263982644" lon="6.766231089797521"><ele>365.40000000000003</ele><time>2026-04-12T06:39:51.999Z</time></trkpt><trkpt lat="43.62083831949949" lon="6.766201791865795"><ele>367.0</ele><time>2026-04-12T06:39:52.999Z</time></trkpt><trkpt lat="43.62093455643047" lon="6.766159958088313"><ele>367.0</ele><time>2026-04-12T06:39:53.999Z</time></trkpt><trkpt lat="43.62102797936369" lon="6.766107365982848"><ele>367.0</ele><time>2026-04-12T06:39:54.999Z</time></trkpt><trkpt lat="43.62111742325952" lon="6.766044213138262"><ele>367.0</ele><time>2026-04-12T06:39:55.999Z</time></trkpt><trkpt lat="43.62120000730646" lon="6.765963711806991"><ele>367.0</ele><time>2026-04-12T06:39:56.999Z</time></trkpt><trkpt lat="43.6212779585614" lon="6.765866831398215"><ele>367.0</ele><time>2026-04-12T06:39:57.999Z</time></trkpt><trkpt lat="43.62135673862513" lon="6.765775555883968"><ele>365.8</ele><time>2026-04-12T06:39:58.999Z</time></trkpt><trkpt lat="43.62143996303576" lon="6.76568962310935"><ele>364.6</ele><time>2026-04-12T06:39:59.999Z</time></trkpt><trkpt lat="43.62151738254076" lon="6.7656065019453"><ele>363.40000000000003</ele><time>2026-04-12T06:40:00.999Z</time></trkpt><trkpt lat="43.62161591509574" lon="6.765545078703286"><ele>362.20000000000005</ele><time>2026-04-12T06:40:01.999Z</time></trkpt><trkpt lat="43.62170914771601" lon="6.765468907694603"><ele>361.0</ele><time>2026-04-12T06:40:02.999Z</time></trkpt><trkpt lat="43.6218132055175" lon="6.76541945406297"><ele>361.0</ele><time>2026-04-12T06:40:03.999Z</time></trkpt><trkpt lat="43.62191044913451" lon="6.765355132665013"><ele>361.0</ele><time>2026-04-12T06:40:04.999Z</time></trkpt><trkpt lat="43.62200560497322" lon="6.765292515936464"><ele>361.0</ele><time>2026-04-12T06:40:05.999Z</time></trkpt><trkpt lat="43.62210135323151" lon="6.765231800078667"><ele>361.0</ele><time>2026-04-12T06:40:06.999Z</time></trkpt><trkpt lat="43.62219833842706" lon="6.765175451409799"><ele>361.0</ele><time>2026-04-12T06:40:07.999Z</time></trkpt><trkpt lat="43.622295254466714" lon="6.765140005271984"><ele>361.4</ele><time>2026-04-12T06:40:08.999Z</time></trkpt><trkpt lat="43.622400601582896" lon="6.765165751336548"><ele>361.8</ele><time>2026-04-12T06:40:09.999Z</time></trkpt><trkpt lat="43.622493831966246" lon="6.765251545428437"><ele>362.2</ele><time>2026-04-12T06:40:10.999Z</time></trkpt><trkpt lat="43.62257178667763" lon="6.765354784126054"><ele>362.59999999999997</ele><time>2026-04-12T06:40:11.999Z</time></trkpt><trkpt lat="43.62263971415485" lon="6.765465661288925"><ele>363.0</ele><time>2026-04-12T06:40:12.999Z</time></trkpt><trkpt lat="43.62270971251025" lon="6.765576385867604"><ele>363.0</ele><time>2026-04-12T06:40:13.999Z</time></trkpt><trkpt lat="43.62278931692907" lon="6.765683434975706"><ele>363.0</ele><time>2026-04-12T06:40:14.999Z</time></trkpt><trkpt lat="43.62288228208984" lon="6.765777087802333"><ele>363.0</ele><time>2026-04-12T06:40:15.999Z</time></trkpt><trkpt lat="43.622981877239624" lon="6.7658542424227734"><ele>363.0</ele><time>2026-04-12T06:40:16.999Z</time></trkpt><trkpt lat="43.62309293457724" lon="6.76590911297188"><ele>363.25</ele><time>2026-04-12T06:40:17.999Z</time></trkpt><trkpt lat="43.6232055825331" lon="6.7659589301175975"><ele>363.5</ele><time>2026-04-12T06:40:18.999Z</time></trkpt><trkpt lat="43.62331277574519" lon="6.766009472879515"><ele>363.75</ele><time>2026-04-12T06:40:19.999Z</time></trkpt><trkpt lat="43.62342091938813" lon="6.76606648129775"><ele>364.0</ele><time>2026-04-12T06:40:20.999Z</time></trkpt><trkpt lat="43.6235230937058" lon="6.766140202158759"><ele>364.0</ele><time>2026-04-12T06:40:21.999Z</time></trkpt><trkpt lat="43.62361785607846" lon="6.766234036818988"><ele>364.0</ele><time>2026-04-12T06:40:22.999Z</time></trkpt><trkpt lat="43.6237084809159" lon="6.766340832610043"><ele>364.0</ele><time>2026-04-12T06:40:23.999Z</time></trkpt><trkpt lat="43.62378730605429" lon="6.76645986848778"><ele>364.0</ele><time>2026-04-12T06:40:24.999Z</time></trkpt><trkpt lat="43.62385339975831" lon="6.76659788139201"><ele>360.5</ele><time>2026-04-12T06:40:25.999Z</time></trkpt><trkpt lat="43.62390683413565" lon="6.766738434651231"><ele>357.0</ele><time>2026-04-12T06:40:26.999Z</time></trkpt><trkpt lat="43.623943264314505" lon="6.766892315388537"><ele>353.5</ele><time>2026-04-12T06:40:27.999Z</time></trkpt><trkpt lat="43.623964821738284" lon="6.767051339314538"><ele>350.0</ele><time>2026-04-12T06:40:28.999Z</time></trkpt><trkpt lat="43.623965241513034" lon="6.7672076905559315"><ele>350.0</ele><time>2026-04-12T06:40:29.999Z</time></trkpt><trkpt lat="43.62396992897188" lon="6.767366619004247"><ele>350.0</ele><time>2026-04-12T06:40:30.999Z</time></trkpt><trkpt lat="43.623974808260755" lon="6.767522684421904"><ele>350.0</ele><time>2026-04-12T06:40:31.999Z</time></trkpt><trkpt lat="43.62399057365994" lon="6.767676246907339"><ele>350.0</ele><time>2026-04-12T06:40:32.999Z</time></trkpt><trkpt lat="43.62403409508635" lon="6.767820045873158"><ele>353.25</ele><time>2026-04-12T06:40:34Z</time></trkpt><trkpt lat="43.624103869517015" lon="6.767945203984009"><ele>356.5</ele><time>2026-04-12T06:40:35Z</time></trkpt><trkpt lat="43.624233051901115" lon="6.767964490641434"><ele>359.75</ele><time>2026-04-12T06:40:36Z</time></trkpt><trkpt lat="43.62434686395624" lon="6.7679160634133595"><ele>363.0</ele><time>2026-04-12T06:40:37Z</time></trkpt><trkpt lat="43.624435995999235" lon="6.767837551342892"><ele>362.1666666666667</ele><time>2026-04-12T06:40:38Z</time></trkpt><trkpt lat="43.6245179374284" lon="6.767781159252445"><ele>361.3333333333333</ele><time>2026-04-12T06:40:39Z</time></trkpt><trkpt lat="43.62459731138499" lon="6.767740430236284"><ele>360.5</ele><time>2026-04-12T06:40:40Z</time></trkpt><trkpt lat="43.624672047909534" lon="6.7677002120550185"><ele>359.66666666666663</ele><time>2026-04-12T06:40:41Z</time></trkpt><trkpt lat="43.62474627163833" lon="6.767658986737468"><ele>358.8333333333333</ele><time>2026-04-12T06:40:42Z</time></trkpt><trkpt lat="43.62481390611384" lon="6.767617926312929"><ele>358.0</ele><time>2026-04-12T06:40:43Z</time></trkpt><trkpt lat="43.624883205093504" lon="6.7675964777600495"><ele>358.00000000000006</ele><time>2026-04-12T06:40:44Z</time></trkpt><trkpt lat="43.62493750210574" lon="6.76752042772977"><ele>358.0</ele><time>2026-04-12T06:40:45Z</time></trkpt><trkpt lat="43.62499351889207" lon="6.7674595273528215"><ele>358.0</ele><time>2026-04-12T06:40:46Z</time></trkpt><trkpt lat="43.62504159513982" lon="6.76738453083348"><ele>358.0</ele><time>2026-04-12T06:40:47Z</time></trkpt><trkpt lat="43.62507944730192" lon="6.767305314580162"><ele>358.0</ele><time>2026-04-12T06:40:48Z</time></trkpt><trkpt lat="43.625116328173426" lon="6.767227817239366"><ele>358.00000000000006</ele><time>2026-04-12T06:40:49Z</time></trkpt><trkpt lat="43.62514296628012" lon="6.7671387295656364"><ele>358.0</ele><time>2026-04-12T06:40:50Z</time></trkpt><trkpt lat="43.625159780148316" lon="6.76704579197322"><ele>358.00000000000006</ele><time>2026-04-12T06:40:51Z</time></trkpt><trkpt lat="43.62516829528644" lon="6.7669477026908735"><ele>358.0</ele><time>2026-04-12T06:40:52Z</time></trkpt><trkpt lat="43.62516896298698" lon="6.76684907304577"><ele>358.0</ele><time>2026-04-12T06:40:53Z</time></trkpt><trkpt lat="43.6251593122192" lon="6.766757020341971"><ele>358.0</ele><time>2026-04-12T06:40:54Z</time></trkpt><trkpt lat="43.625144209108626" lon="6.76665908506817"><ele>358.0</ele><time>2026-04-12T06:40:55Z</time></trkpt><trkpt lat="43.62512806842583" lon="6.766563416822988"><ele>358.00000000000006</ele><time>2026-04-12T06:40:56Z</time></trkpt><trkpt lat="43.62510789998364" lon="6.766467284129563"><ele>358.0</ele><time>2026-04-12T06:40:57Z</time></trkpt><trkpt lat="43.62508608342254" lon="6.7663682630296975"><ele>357.5</ele><time>2026-04-12T06:40:58Z</time></trkpt><trkpt lat="43.62505895411795" lon="6.766268713444914"><ele>357.0</ele><time>2026-04-12T06:40:59Z</time></trkpt><trkpt lat="43.6250277486719" lon="6.766166026162412"><ele>356.5</ele><time>2026-04-12T06:41:00Z</time></trkpt><trkpt lat="43.62500581307146" lon="6.76605576927393"><ele>356.0</ele><time>2026-04-12T06:41:01Z</time></trkpt><trkpt lat="43.62499172117632" lon="6.765944297456023"><ele>355.5</ele><time>2026-04-12T06:41:02Z</time></trkpt><trkpt lat="43.624988021867544" lon="6.765816087236227"><ele>355.0</ele><time>2026-04-12T06:41:03Z</time></trkpt><trkpt lat="43.62498488501368" lon="6.765683162778637"><ele>355.0</ele><time>2026-04-12T06:41:04Z</time></trkpt><trkpt lat="43.624979032744044" lon="6.765557145441897"><ele>355.0</ele><time>2026-04-12T06:41:05Z</time></trkpt><trkpt lat="43.62495879522681" lon="6.765431853764756"><ele>355.0</ele><time>2026-04-12T06:41:06Z</time></trkpt><trkpt lat="43.62493297836178" lon="6.765309746525321"><ele>355.0</ele><time>2026-04-12T06:41:07Z</time></trkpt><trkpt lat="43.62491497366891" lon="6.765185696836017"><ele>355.0</ele><time>2026-04-12T06:41:08Z</time></trkpt><trkpt lat="43.62490828551327" lon="6.765055080811261"><ele>355.2</ele><time>2026-04-12T06:41:09Z</time></trkpt><trkpt lat="43.62491096528033" lon="6.764923183886021"><ele>355.4</ele><time>2026-04-12T06:41:10Z</time></trkpt><trkpt lat="43.62492208197733" lon="6.764789914096684"><ele>355.6</ele><time>2026-04-12T06:41:11Z</time></trkpt><trkpt lat="43.62494327998173" lon="6.764658545052999"><ele>355.8</ele><time>2026-04-12T06:41:12Z</time></trkpt><trkpt lat="43.624961870865604" lon="6.764527471249628"><ele>356.0</ele><time>2026-04-12T06:41:13Z</time></trkpt><trkpt lat="43.624978958391104" lon="6.764391767316234"><ele>355.4</ele><time>2026-04-12T06:41:14Z</time></trkpt><trkpt lat="43.62500016218731" lon="6.7642551590496875"><ele>354.8</ele><time>2026-04-12T06:41:15Z</time></trkpt><trkpt lat="43.62501624610031" lon="6.764117777200236"><ele>354.2</ele><time>2026-04-12T06:41:16Z</time></trkpt><trkpt lat="43.62504096047719" lon="6.763979843356264"><ele>353.59999999999997</ele><time>2026-04-12T06:41:17Z</time></trkpt><trkpt lat="43.625072568546926" lon="6.763836832736216"><ele>353.0</ele><time>2026-04-12T06:41:18Z</time></trkpt><trkpt lat="43.62511303690465" lon="6.76369681899122"><ele>353.0</ele><time>2026-04-12T06:41:19Z</time></trkpt><trkpt lat="43.625162583839035" lon="6.763564100534336"><ele>353.0</ele><time>2026-04-12T06:41:20Z</time></trkpt><trkpt lat="43.62522458976241" lon="6.763441725386316"><ele>353.0</ele><time>2026-04-12T06:41:21Z</time></trkpt><trkpt lat="43.62529180657739" lon="6.76332312746251"><ele>353.0</ele><time>2026-04-12T06:41:22Z</time></trkpt><trkpt lat="43.625363742689366" lon="6.7632123001538655"><ele>353.0</ele><time>2026-04-12T06:41:23Z</time></trkpt><trkpt lat="43.625441351228105" lon="6.7631077498692065"><ele>352.4</ele><time>2026-04-12T06:41:24Z</time></trkpt><trkpt lat="43.625522910765476" lon="6.763017958639667"><ele>351.79999999999995</ele><time>2026-04-12T06:41:25Z</time></trkpt><trkpt lat="43.62561046939371" lon="6.7629357999199575"><ele>351.2</ele><time>2026-04-12T06:41:26Z</time></trkpt><trkpt lat="43.6256929990914" lon="6.762848514629895"><ele>350.6</ele><time>2026-04-12T06:41:27Z</time></trkpt><trkpt lat="43.62577587339128" lon="6.762764373245611"><ele>350.0</ele><time>2026-04-12T06:41:28Z</time></trkpt><trkpt lat="43.625856963224756" lon="6.762674371007446"><ele>350.0</ele><time>2026-04-12T06:41:29Z</time></trkpt><trkpt lat="43.625940657423136" lon="6.762586721085793"><ele>350.0</ele><time>2026-04-12T06:41:30Z</time></trkpt><trkpt lat="43.626018298073745" lon="6.762490700333797"><ele>350.0</ele><time>2026-04-12T06:41:31Z</time></trkpt><trkpt lat="43.62608665921927" lon="6.7623802265078465"><ele>350.0</ele><time>2026-04-12T06:41:32Z</time></trkpt><trkpt lat="43.626148674562394" lon="6.762262435901692"><ele>350.0</ele><time>2026-04-12T06:41:33Z</time></trkpt><trkpt lat="43.626200410048064" lon="6.762133072720609"><ele>352.0</ele><time>2026-04-12T06:41:34Z</time></trkpt><trkpt lat="43.62624658709987" lon="6.76200720020378"><ele>354.0</ele><time>2026-04-12T06:41:35Z</time></trkpt><trkpt lat="43.62629304328544" lon="6.761871555696388"><ele>356.0</ele><time>2026-04-12T06:41:36Z</time></trkpt><trkpt lat="43.6263363264462" lon="6.761743054385621"><ele>358.0</ele><time>2026-04-12T06:41:37Z</time></trkpt><trkpt lat="43.62638574188681" lon="6.7616201411984855"><ele>360.0</ele><time>2026-04-12T06:41:38Z</time></trkpt><trkpt lat="43.626444948139444" lon="6.761506002837581"><ele>360.0</ele><time>2026-04-12T06:41:39Z</time></trkpt><trkpt lat="43.62651839535987" lon="6.761416806941698"><ele>360.0</ele><time>2026-04-12T06:41:39.999Z</time></trkpt><trkpt lat="43.62659688885243" lon="6.761335609734216"><ele>360.0</ele><time>2026-04-12T06:41:40.999Z</time></trkpt><trkpt lat="43.626683702015946" lon="6.761271777510258"><ele>360.0</ele><time>2026-04-12T06:41:41.999Z</time></trkpt><trkpt lat="43.626777597997986" lon="6.761255660724918"><ele>360.0</ele><time>2026-04-12T06:41:42.999Z</time></trkpt><trkpt lat="43.626861283509385" lon="6.761219141966996"><ele>360.0</ele><time>2026-04-12T06:41:43.999Z</time></trkpt><trkpt lat="43.62693351020653" lon="6.761188235660407"><ele>360.0</ele><time>2026-04-12T06:41:44.999Z</time></trkpt><trkpt lat="43.627000227404615" lon="6.76115968703821"><ele>360.0</ele><time>2026-04-12T06:41:45.999Z</time></trkpt><trkpt lat="43.62705512559091" lon="6.761116448602107"><ele>360.0</ele><time>2026-04-12T06:41:46.999Z</time></trkpt><trkpt lat="43.62711658132878" lon="6.761135731700174"><ele>360.0</ele><time>2026-04-12T06:41:47.999Z</time></trkpt><trkpt lat="43.6271679357912" lon="6.761194945697865"><ele>360.0</ele><time>2026-04-12T06:41:49.999Z</time></trkpt><trkpt lat="43.62723441360864" lon="6.761231903156151"><ele>360.0</ele><time>2026-04-12T06:41:56.999Z</time></trkpt><trkpt lat="43.62731099600456" lon="6.761269341169901"><ele>362.1428571428571</ele><time>2026-04-12T06:42:01.999Z</time></trkpt><trkpt lat="43.62736980421424" lon="6.76131255103563"><ele>364.28571428571433</ele><time>2026-04-12T06:42:05.999Z</time></trkpt><trkpt lat="43.6274524182766" lon="6.7613559031879555"><ele>366.42857142857144</ele><time>2026-04-12T06:42:11.999Z</time></trkpt><trkpt lat="43.62752574245591" lon="6.761376935240494"><ele>368.57142857142856</ele><time>2026-04-12T06:42:15.999Z</time></trkpt><trkpt lat="43.62759621271465" lon="6.761395574182262"><ele>370.71428571428567</ele><time>2026-04-12T06:42:18.999Z</time></trkpt><trkpt lat="43.62767232488079" lon="6.761410828985521"><ele>372.8571428571429</ele><time>2026-04-12T06:42:22.999Z</time></trkpt><trkpt lat="43.62773429023818" lon="6.761441026041599"><ele>375.0</ele><time>2026-04-12T06:42:28.999Z</time></trkpt><trkpt lat="43.62780991397568" lon="6.761439200800485"><ele>376.7142857142857</ele><time>2026-04-12T06:42:38.999Z</time></trkpt><trkpt lat="43.627884267436556" lon="6.761429064729266"><ele>378.4285714285714</ele><time>2026-04-12T06:42:42Z</time></trkpt><trkpt lat="43.627948558683464" lon="6.761407646065741"><ele>380.1428571428571</ele><time>2026-04-12T06:42:44Z</time></trkpt><trkpt lat="43.628017040825" lon="6.761409758300424"><ele>381.8571428571429</ele><time>2026-04-12T06:42:46Z</time></trkpt><trkpt lat="43.62808176787296" lon="6.761433544727063"><ele>383.57142857142856</ele><time>2026-04-12T06:42:48Z</time></trkpt><trkpt lat="43.628144658003464" lon="6.761462071669161"><ele>385.2857142857143</ele><time>2026-04-12T06:42:51Z</time></trkpt><trkpt lat="43.628232295164466" lon="6.7614907325080225"><ele>387.0</ele><time>2026-04-12T06:42:54Z</time></trkpt><trkpt lat="43.6283217526929" lon="6.761519008148407"><ele>387.0</ele><time>2026-04-12T06:42:58Z</time></trkpt><trkpt lat="43.62838326496782" lon="6.7615583045071395"><ele>387.0</ele><time>2026-04-12T06:43:00Z</time></trkpt><trkpt lat="43.628458090051424" lon="6.761578025536005"><ele>387.0</ele><time>2026-04-12T06:43:04Z</time></trkpt><trkpt lat="43.628564107315405" lon="6.761593524254452"><ele>387.0</ele><time>2026-04-12T06:43:07Z</time></trkpt><trkpt lat="43.62866664618519" lon="6.761600359610409"><ele>387.0</ele><time>2026-04-12T06:43:10Z</time></trkpt><trkpt lat="43.628733467180794" lon="6.761604337984422"><ele>387.0</ele><time>2026-04-12T06:43:12Z</time></trkpt><trkpt lat="43.628824948846166" lon="6.761621938965598"><ele>387.6666666666667</ele><time>2026-04-12T06:43:15Z</time></trkpt><trkpt lat="43.62890882712705" lon="6.761624646105741"><ele>388.33333333333337</ele><time>2026-04-12T06:43:18Z</time></trkpt><trkpt lat="43.628989512091735" lon="6.761613152278567"><ele>389.0</ele><time>2026-04-12T06:43:21Z</time></trkpt><trkpt lat="43.62907491045578" lon="6.761618794043672"><ele>389.6666666666667</ele><time>2026-04-12T06:43:24Z</time></trkpt><trkpt lat="43.62914493566" lon="6.761643180939375"><ele>390.33333333333337</ele><time>2026-04-12T06:43:27Z</time></trkpt><trkpt lat="43.629208892564485" lon="6.7616733261262105"><ele>391.0</ele><time>2026-04-12T06:43:29Z</time></trkpt><trkpt lat="43.629284962843265" lon="6.761671437554026"><ele>391.0</ele><time>2026-04-12T06:43:31Z</time></trkpt><trkpt lat="43.62937698394257" lon="6.76164683390343"><ele>391.0</ele><time>2026-04-12T06:43:33Z</time></trkpt><trkpt lat="43.629453766792366" lon="6.761570515889163"><ele>391.0</ele><time>2026-04-12T06:43:35Z</time></trkpt><trkpt lat="43.629511517160175" lon="6.761473627455315"><ele>391.0</ele><time>2026-04-12T06:43:37Z</time></trkpt><trkpt lat="43.62956226341802" lon="6.761351171665806"><ele>391.0</ele><time>2026-04-12T06:43:39Z</time></trkpt><trkpt lat="43.62960874569654" lon="6.761202391761913"><ele>391.00000000000006</ele><time>2026-04-12T06:43:41Z</time></trkpt><trkpt lat="43.62965864049243" lon="6.761041461694043"><ele>391.0</ele><time>2026-04-12T06:43:43Z</time></trkpt><trkpt lat="43.62967013226165" lon="6.760954851945987"><ele>391.0</ele><time>2026-04-12T06:43:44Z</time></trkpt><trkpt lat="43.629669783753705" lon="6.760862414601188"><ele>391.0</ele><time>2026-04-12T06:43:45Z</time></trkpt><trkpt lat="43.62968428850851" lon="6.76077709286939"><ele>391.00000000000006</ele><time>2026-04-12T06:43:46Z</time></trkpt><trkpt lat="43.62969751760867" lon="6.760685167342519"><ele>391.0</ele><time>2026-04-12T06:43:46.999Z</time></trkpt><trkpt lat="43.62970851148334" lon="6.760594920230224"><ele>390.99999999999994</ele><time>2026-04-12T06:43:47.999Z</time></trkpt><trkpt lat="43.62972116979402" lon="6.7605006293143255"><ele>391.0</ele><time>2026-04-12T06:43:48.999Z</time></trkpt><trkpt lat="43.62973382354824" lon="6.760406180691165"><ele>391.0</ele><time>2026-04-12T06:43:49.999Z</time></trkpt><trkpt lat="43.62974871212361" lon="6.760314959976272"><ele>391.0</ele><time>2026-04-12T06:43:50.999Z</time></trkpt><trkpt lat="43.62976115212223" lon="6.760226313690182"><ele>391.0</ele><time>2026-04-12T06:43:51.999Z</time></trkpt><trkpt lat="43.62978868751535" lon="6.760136266477935"><ele>390.99999999999994</ele><time>2026-04-12T06:43:52.999Z</time></trkpt><trkpt lat="43.62979170574398" lon="6.760035288540769"><ele>391.0</ele><time>2026-04-12T06:43:53.999Z</time></trkpt><trkpt lat="43.62981223115386" lon="6.759940588242575"><ele>390.85714285714283</ele><time>2026-04-12T06:43:54.999Z</time></trkpt><trkpt lat="43.629831185165116" lon="6.759850164459373"><ele>390.7142857142857</ele><time>2026-04-12T06:43:55.999Z</time></trkpt><trkpt lat="43.6298441586506" lon="6.759759957913636"><ele>390.57142857142856</ele><time>2026-04-12T06:43:56.999Z</time></trkpt><trkpt lat="43.62986177450305" lon="6.759667043748623"><ele>390.42857142857144</ele><time>2026-04-12T06:43:57.999Z</time></trkpt><trkpt lat="43.629874605255665" lon="6.7595732127280925"><ele>390.2857142857143</ele><time>2026-04-12T06:43:58.999Z</time></trkpt><trkpt lat="43.62988622596266" lon="6.759479470534598"><ele>390.1428571428571</ele><time>2026-04-12T06:43:59.999Z</time></trkpt><trkpt lat="43.62990444529591" lon="6.759382593617564"><ele>390.0</ele><time>2026-04-12T06:44:00.999Z</time></trkpt><trkpt lat="43.629920002862924" lon="6.759287241542416"><ele>390.3333333333333</ele><time>2026-04-12T06:44:01.999Z</time></trkpt><trkpt lat="43.62993005870509" lon="6.759183464623103"><ele>390.66666666666663</ele><time>2026-04-12T06:44:02.999Z</time></trkpt><trkpt lat="43.62995471313366" lon="6.759084847929641"><ele>391.0</ele><time>2026-04-12T06:44:03.999Z</time></trkpt><trkpt lat="43.62996826162007" lon="6.758989370720002"><ele>391.3333333333333</ele><time>2026-04-12T06:44:04.999Z</time></trkpt><trkpt lat="43.6299825865952" lon="6.758884225227151"><ele>391.66666666666663</ele><time>2026-04-12T06:44:05.999Z</time></trkpt><trkpt lat="43.63001493033301" lon="6.758781347836261"><ele>392.0</ele><time>2026-04-12T06:44:07.999Z</time></trkpt><trkpt lat="43.630105035482515" lon="6.758857960531826"><ele>392.0</ele><time>2026-04-12T06:44:09.999Z</time></trkpt><trkpt lat="43.63016121762961" lon="6.758908894238112"><ele>392.0</ele><time>2026-04-12T06:44:10.999Z</time></trkpt><trkpt lat="43.63022883997288" lon="6.758940688917365"><ele>392.0</ele><time>2026-04-12T06:44:11.999Z</time></trkpt><trkpt lat="43.63028656711928" lon="6.758997124614873"><ele>392.0</ele><time>2026-04-12T06:44:12.999Z</time></trkpt><trkpt lat="43.630347322033465" lon="6.759051715390469"><ele>392.0</ele><time>2026-04-12T06:44:13.999Z</time></trkpt><trkpt lat="43.63041085123722" lon="6.7591068240531085"><ele>392.0</ele><time>2026-04-12T06:44:14.999Z</time></trkpt><trkpt lat="43.63048055754615" lon="6.759163267922781"><ele>392.0</ele><time>2026-04-12T06:44:15.999Z</time></trkpt><trkpt lat="43.63054963590786" lon="6.759223840298788"><ele>391.99999999999994</ele><time>2026-04-12T06:44:16.999Z</time></trkpt><trkpt lat="43.6306218128737" lon="6.759289911008928"><ele>392.0</ele><time>2026-04-12T06:44:17.999Z</time></trkpt><trkpt lat="43.63069405492009" lon="6.759355478462161"><ele>392.0</ele><time>2026-04-12T06:44:18.999Z</time></trkpt><trkpt lat="43.63076815746126" lon="6.759422115243324"><ele>392.0</ele><time>2026-04-12T06:44:19.999Z</time></trkpt><trkpt lat="43.63084265390968" lon="6.759491608360585"><ele>391.99999999999994</ele><time>2026-04-12T06:44:20.999Z</time></trkpt><trkpt lat="43.63091554739649" lon="6.7595654362352615"><ele>392.0</ele><time>2026-04-12T06:44:21.999Z</time></trkpt><trkpt lat="43.63099288380103" lon="6.759637547174812"><ele>392.0</ele><time>2026-04-12T06:44:22.999Z</time></trkpt><trkpt lat="43.631072780911126" lon="6.759703180239271"><ele>392.0</ele><time>2026-04-12T06:44:23.999Z</time></trkpt><trkpt lat="43.63115334276452" lon="6.759771616529112"><ele>392.0</ele><time>2026-04-12T06:44:24.999Z</time></trkpt><trkpt lat="43.6312304033804" lon="6.759845638704189"><ele>392.0</ele><time>2026-04-12T06:44:25.999Z</time></trkpt><trkpt lat="43.631306710239144" lon="6.759919762960115"><ele>392.0</ele><time>2026-04-12T06:44:26.999Z</time></trkpt><trkpt lat="43.631388556563934" lon="6.759991257095482"><ele>392.0</ele><time>2026-04-12T06:44:27.999Z</time></trkpt><trkpt lat="43.631467502924494" lon="6.7600637973793765"><ele>392.0</ele><time>2026-04-12T06:44:28.999Z</time></trkpt><trkpt lat="43.63155305065671" lon="6.760131154897714"><ele>392.0</ele><time>2026-04-12T06:44:29.999Z</time></trkpt><trkpt lat="43.63163857452774" lon="6.760183384857347"><ele>392.0</ele><time>2026-04-12T06:44:30.999Z</time></trkpt><trkpt lat="43.6317287328788" lon="6.760244328196682"><ele>392.0</ele><time>2026-04-12T06:44:31.999Z</time></trkpt><trkpt lat="43.63181842816087" lon="6.760305801224574"><ele>391.40000000000003</ele><time>2026-04-12T06:44:32.999Z</time></trkpt><trkpt lat="43.63190841612831" lon="6.760371450657072"><ele>390.8</ele><time>2026-04-12T06:44:33.999Z</time></trkpt><trkpt lat="43.63199821372748" lon="6.760434095307747"><ele>390.2</ele><time>2026-04-12T06:44:34.999Z</time></trkpt><trkpt lat="43.63209209430741" lon="6.760492536513538"><ele>389.6</ele><time>2026-04-12T06:44:35.999Z</time></trkpt><trkpt lat="43.6321861123061" lon="6.760554849686501"><ele>389.0</ele><time>2026-04-12T06:44:36.999Z</time></trkpt><trkpt lat="43.632277869402365" lon="6.7606099655133445"><ele>389.0</ele><time>2026-04-12T06:44:37.999Z</time></trkpt><trkpt lat="43.63237209663119" lon="6.760656192685379"><ele>389.0</ele><time>2026-04-12T06:44:38.999Z</time></trkpt><trkpt lat="43.63246678995479" lon="6.760709624868134"><ele>389.0</ele><time>2026-04-12T06:44:39.999Z</time></trkpt><trkpt lat="43.63255475872694" lon="6.760768588431154"><ele>389.0</ele><time>2026-04-12T06:44:40.999Z</time></trkpt><trkpt lat="43.632649440933015" lon="6.7608308642659924"><ele>389.0</ele><time>2026-04-12T06:44:41.999Z</time></trkpt><trkpt lat="43.63274557647914" lon="6.760891388711621"><ele>389.2</ele><time>2026-04-12T06:44:42.999Z</time></trkpt><trkpt lat="43.63283704935966" lon="6.760956037380558"><ele>389.4</ele><time>2026-04-12T06:44:43.999Z</time></trkpt><trkpt lat="43.632919891314444" lon="6.761021637625605"><ele>389.6</ele><time>2026-04-12T06:44:44.999Z</time></trkpt><trkpt lat="43.633011758671415" lon="6.761092265485793"><ele>389.8</ele><time>2026-04-12T06:44:46Z</time></trkpt><trkpt lat="43.63309276484253" lon="6.761174646211985"><ele>390.0</ele><time>2026-04-12T06:44:47Z</time></trkpt><trkpt lat="43.633170566965404" lon="6.761257812401222"><ele>390.4</ele><time>2026-04-12T06:44:48Z</time></trkpt><trkpt lat="43.63324760312821" lon="6.761351704986579"><ele>390.8</ele><time>2026-04-12T06:44:49Z</time></trkpt><trkpt lat="43.63333150811888" lon="6.761426974209804"><ele>391.20000000000005</ele><time>2026-04-12T06:44:50Z</time></trkpt><trkpt lat="43.63342254224651" lon="6.761485114074644"><ele>391.6</ele><time>2026-04-12T06:44:51Z</time></trkpt><trkpt lat="43.63352386995875" lon="6.76149831358523"><ele>392.0</ele><time>2026-04-12T06:44:52Z</time></trkpt><trkpt lat="43.633615846174955" lon="6.761521074305318"><ele>391.8</ele><time>2026-04-12T06:44:53Z</time></trkpt><trkpt lat="43.6337050772775" lon="6.761541906611968"><ele>391.6</ele><time>2026-04-12T06:44:54Z</time></trkpt><trkpt lat="43.633784469713575" lon="6.761612750122193"><ele>391.40000000000003</ele><time>2026-04-12T06:44:55Z</time></trkpt><trkpt lat="43.633859392511425" lon="6.761674046893948"><ele>391.20000000000005</ele><time>2026-04-12T06:44:56Z</time></trkpt><trkpt lat="43.63393651274731" lon="6.761737173844218"><ele>391.0</ele><time>2026-04-12T06:44:57Z</time></trkpt><trkpt lat="43.63402201579724" lon="6.76178969944015"><ele>391.0</ele><time>2026-04-12T06:44:58Z</time></trkpt><trkpt lat="43.63409682166785" lon="6.76185244062014"><ele>391.0</ele><time>2026-04-12T06:44:59Z</time></trkpt><trkpt lat="43.63417903156951" lon="6.761915026767423"><ele>391.0</ele><time>2026-04-12T06:45:00Z</time></trkpt><trkpt lat="43.634258827509846" lon="6.761980775671587"><ele>391.0</ele><time>2026-04-12T06:45:01Z</time></trkpt><trkpt lat="43.63434536952388" lon="6.762040337479869"><ele>391.0</ele><time>2026-04-12T06:45:02Z</time></trkpt><trkpt lat="43.63443460083148" lon="6.762085586695755"><ele>391.4</ele><time>2026-04-12T06:45:03Z</time></trkpt><trkpt lat="43.63452705879495" lon="6.762130476113499"><ele>391.8</ele><time>2026-04-12T06:45:04Z</time></trkpt><trkpt lat="43.63461315681401" lon="6.7621721792739855"><ele>392.2</ele><time>2026-04-12T06:45:05Z</time></trkpt><trkpt lat="43.63470402663903" lon="6.762218376564903"><ele>392.59999999999997</ele><time>2026-04-12T06:45:06Z</time></trkpt><trkpt lat="43.63479314353269" lon="6.762262588166068"><ele>393.0</ele><time>2026-04-12T06:45:07Z</time></trkpt><trkpt lat="43.63487460414501" lon="6.762317851472456"><ele>393.0</ele><time>2026-04-12T06:45:08Z</time></trkpt><trkpt lat="43.63494535205062" lon="6.762395255512558"><ele>393.0</ele><time>2026-04-12T06:45:09Z</time></trkpt><trkpt lat="43.63500975089862" lon="6.762486627159595"><ele>393.0</ele><time>2026-04-12T06:45:10Z</time></trkpt><trkpt lat="43.63505808795603" lon="6.762587320529212"><ele>393.0</ele><time>2026-04-12T06:45:11Z</time></trkpt><trkpt lat="43.63509686940064" lon="6.762694163823275"><ele>393.0</ele><time>2026-04-12T06:45:12Z</time></trkpt><trkpt lat="43.63512270388998" lon="6.762803227290492"><ele>393.0</ele><time>2026-04-12T06:45:13Z</time></trkpt><trkpt lat="43.635140129473776" lon="6.762912856381227"><ele>392.8571428571429</ele><time>2026-04-12T06:45:14Z</time></trkpt><trkpt lat="43.635182798517626" lon="6.762996163534099"><ele>392.7142857142857</ele><time>2026-04-12T06:45:15Z</time></trkpt><trkpt lat="43.63521764414198" lon="6.763088935187676"><ele>392.57142857142856</ele><time>2026-04-12T06:45:16Z</time></trkpt><trkpt lat="43.63525974002303" lon="6.763175336474066"><ele>392.42857142857144</ele><time>2026-04-12T06:45:17Z</time></trkpt><trkpt lat="43.63530084822852" lon="6.7632543135850955"><ele>392.2857142857143</ele><time>2026-04-12T06:45:18Z</time></trkpt><trkpt lat="43.6353455700417" lon="6.763335338863213"><ele>392.14285714285717</ele><time>2026-04-12T06:45:19Z</time></trkpt><trkpt lat="43.63539282657931" lon="6.76341041415907"><ele>392.0</ele><time>2026-04-12T06:45:20Z</time></trkpt><trkpt lat="43.63543461473846" lon="6.763483239792135"><ele>392.2857142857143</ele><time>2026-04-12T06:45:21Z</time></trkpt><trkpt lat="43.63547513122965" lon="6.76355978215158"><ele>392.57142857142856</ele><time>2026-04-12T06:45:22Z</time></trkpt><trkpt lat="43.635515644893204" lon="6.76363727661287"><ele>392.8571428571429</ele><time>2026-04-12T06:45:23Z</time></trkpt><trkpt lat="43.63556134750277" lon="6.763707990637484"><ele>393.1428571428571</ele><time>2026-04-12T06:45:24Z</time></trkpt><trkpt lat="43.63560349012491" lon="6.763789241801527"><ele>393.42857142857144</ele><time>2026-04-12T06:45:25Z</time></trkpt><trkpt lat="43.635679501732106" lon="6.76381778216613"><ele>393.7142857142857</ele><time>2026-04-12T06:45:26Z</time></trkpt><trkpt lat="43.63574626779589" lon="6.763858580769411"><ele>394.0</ele><time>2026-04-12T06:45:27Z</time></trkpt><trkpt lat="43.6358151551045" lon="6.763890083358583"><ele>394.00000000000006</ele><time>2026-04-12T06:45:28Z</time></trkpt><trkpt lat="43.63588745717572" lon="6.7639179579158"><ele>394.0</ele><time>2026-04-12T06:45:29Z</time></trkpt><trkpt lat="43.635961159705424" lon="6.763953628610441"><ele>394.0</ele><time>2026-04-12T06:45:30Z</time></trkpt><trkpt lat="43.636040420466536" lon="6.763993332731357"><ele>394.0</ele><time>2026-04-12T06:45:31Z</time></trkpt><trkpt lat="43.636115840888436" lon="6.764028169310865"><ele>394.00000000000006</ele><time>2026-04-12T06:45:32Z</time></trkpt><trkpt lat="43.636189713179434" lon="6.764070817583014"><ele>394.0</ele><time>2026-04-12T06:45:33Z</time></trkpt><trkpt lat="43.63626400030513" lon="6.764114259092942"><ele>394.00000000000006</ele><time>2026-04-12T06:45:34Z</time></trkpt><trkpt lat="43.63633384234189" lon="6.76416501329052"><ele>394.0</ele><time>2026-04-12T06:45:35Z</time></trkpt><trkpt lat="43.63641029584152" lon="6.764218669148317"><ele>394.0</ele><time>2026-04-12T06:45:36Z</time></trkpt><trkpt lat="43.63648321853438" lon="6.764271687115734"><ele>394.0</ele><time>2026-04-12T06:45:37Z</time></trkpt><trkpt lat="43.636562839616246" lon="6.76432206627989"><ele>394.00000000000006</ele><time>2026-04-12T06:45:38Z</time></trkpt><trkpt lat="43.63664677541479" lon="6.76435895684861"><ele>394.0</ele><time>2026-04-12T06:45:39Z</time></trkpt><trkpt lat="43.63673455625085" lon="6.7643961629193505"><ele>394.0</ele><time>2026-04-12T06:45:40Z</time></trkpt><trkpt lat="43.636823639650004" lon="6.764435964068942"><ele>394.0</ele><time>2026-04-12T06:45:41Z</time></trkpt><trkpt lat="43.63691208136058" lon="6.764485087261616"><ele>394.0</ele><time>2026-04-12T06:45:42Z</time></trkpt><trkpt lat="43.636995237501026" lon="6.76454806776308"><ele>394.0</ele><time>2026-04-12T06:45:43Z</time></trkpt><trkpt lat="43.63706609890851" lon="6.764648066331731"><ele>394.0</ele><time>2026-04-12T06:45:44Z</time></trkpt><trkpt lat="43.63712496498925" lon="6.764767067040136"><ele>393.6</ele><time>2026-04-12T06:45:45Z</time></trkpt><trkpt lat="43.63718599172122" lon="6.764888582777028"><ele>393.2</ele><time>2026-04-12T06:45:46Z</time></trkpt><trkpt lat="43.63725908585599" lon="6.765003696317611"><ele>392.8</ele><time>2026-04-12T06:45:47Z</time></trkpt><trkpt lat="43.63731818774903" lon="6.7651302774914575"><ele>392.40000000000003</ele><time>2026-04-12T06:45:48Z</time></trkpt><trkpt lat="43.63740798556211" lon="6.765226974245014"><ele>392.0</ele><time>2026-04-12T06:45:49Z</time></trkpt><trkpt lat="43.63749178786513" lon="6.765329398687825"><ele>391.6</ele><time>2026-04-12T06:45:50Z</time></trkpt><trkpt lat="43.63757908488207" lon="6.765417387289228"><ele>391.20000000000005</ele><time>2026-04-12T06:45:51Z</time></trkpt><trkpt lat="43.637639455531904" lon="6.765537892941064"><ele>390.8</ele><time>2026-04-12T06:45:52Z</time></trkpt><trkpt lat="43.63771007772282" lon="6.765646086504546"><ele>390.4</ele><time>2026-04-12T06:45:53Z</time></trkpt><trkpt lat="43.63778622555746" lon="6.765756617789506"><ele>390.0</ele><time>2026-04-12T06:45:53.999Z</time></trkpt><trkpt lat="43.6378653045039" lon="6.765869611445671"><ele>389.5</ele><time>2026-04-12T06:45:54.999Z</time></trkpt><trkpt lat="43.63795758089434" lon="6.7659719394504965"><ele>389.0</ele><time>2026-04-12T06:45:55.999Z</time></trkpt><trkpt lat="43.6380403087213" lon="6.7660830420184235"><ele>388.5</ele><time>2026-04-12T06:45:56.999Z</time></trkpt><trkpt lat="43.63812216600924" lon="6.7661965859135105"><ele>388.0</ele><time>2026-04-12T06:45:57.999Z</time></trkpt><trkpt lat="43.6382046354718" lon="6.766311445315175"><ele>388.0</ele><time>2026-04-12T06:45:58.999Z</time></trkpt><trkpt lat="43.63829066218371" lon="6.766430125829616"><ele>388.0</ele><time>2026-04-12T06:45:59.999Z</time></trkpt><trkpt lat="43.63837994873747" lon="6.766553127445109"><ele>388.0</ele><time>2026-04-12T06:46:00.999Z</time></trkpt><trkpt lat="43.63847974269567" lon="6.766665310471188"><ele>388.0</ele><time>2026-04-12T06:46:01.999Z</time></trkpt><trkpt lat="43.63858723454775" lon="6.766759607228315"><ele>388.5</ele><time>2026-04-12T06:46:02.999Z</time></trkpt><trkpt lat="43.63869855879044" lon="6.766827930742829"><ele>389.0</ele><time>2026-04-12T06:46:03.999Z</time></trkpt><trkpt lat="43.63881881052931" lon="6.766874577797257"><ele>389.5</ele><time>2026-04-12T06:46:04.999Z</time></trkpt><trkpt lat="43.6389376706609" lon="6.76690475091347"><ele>390.0</ele><time>2026-04-12T06:46:05.999Z</time></trkpt><trkpt lat="43.63905660470956" lon="6.766945962459841"><ele>390.0</ele><time>2026-04-12T06:46:06.999Z</time></trkpt><trkpt lat="43.63916983472804" lon="6.766998752409207"><ele>390.0</ele><time>2026-04-12T06:46:07.999Z</time></trkpt><trkpt lat="43.63928270642785" lon="6.767048630302504"><ele>390.0</ele><time>2026-04-12T06:46:08.999Z</time></trkpt><trkpt lat="43.63939470847218" lon="6.767086148905865"><ele>390.0</ele><time>2026-04-12T06:46:09.999Z</time></trkpt><trkpt lat="43.639504608276084" lon="6.767117407455457"><ele>389.8</ele><time>2026-04-12T06:46:10.999Z</time></trkpt><trkpt lat="43.63961129056135" lon="6.767156737873675"><ele>389.6</ele><time>2026-04-12T06:46:11.999Z</time></trkpt><trkpt lat="43.63970654993868" lon="6.767203966384925"><ele>389.4</ele><time>2026-04-12T06:46:12.999Z</time></trkpt><trkpt lat="43.63979584838805" lon="6.767261272699437"><ele>389.2</ele><time>2026-04-12T06:46:13.999Z</time></trkpt><trkpt lat="43.639880184221816" lon="6.767320902319797"><ele>389.0</ele><time>2026-04-12T06:46:14.999Z</time></trkpt><trkpt lat="43.63996537810424" lon="6.7673689697094295"><ele>389.0</ele><time>2026-04-12T06:46:15.999Z</time></trkpt><trkpt lat="43.64005354795737" lon="6.767418218523231"><ele>389.0</ele><time>2026-04-12T06:46:16.999Z</time></trkpt><trkpt lat="43.64014452444624" lon="6.767457063168856"><ele>389.0</ele><time>2026-04-12T06:46:17.999Z</time></trkpt><trkpt lat="43.64023693601154" lon="6.767486868836659"><ele>389.0</ele><time>2026-04-12T06:46:18.999Z</time></trkpt><trkpt lat="43.64033230056502" lon="6.767512125715418"><ele>389.0</ele><time>2026-04-12T06:46:19.999Z</time></trkpt><trkpt lat="43.64042538054622" lon="6.767540824331245"><ele>389.2</ele><time>2026-04-12T06:46:20.999Z</time></trkpt><trkpt lat="43.640515130725824" lon="6.76758451291216"><ele>389.4</ele><time>2026-04-12T06:46:21.999Z</time></trkpt><trkpt lat="43.64060548456676" lon="6.767634819594897"><ele>389.6</ele><time>2026-04-12T06:46:22.999Z</time></trkpt><trkpt lat="43.64067072194345" lon="6.767726938026811"><ele>389.8</ele><time>2026-04-12T06:46:23.999Z</time></trkpt><trkpt lat="43.64075571294394" lon="6.767790896857788"><ele>390.0</ele><time>2026-04-12T06:46:24.999Z</time></trkpt><trkpt lat="43.64082893266276" lon="6.767868937208343"><ele>390.6666666666667</ele><time>2026-04-12T06:46:25.999Z</time></trkpt><trkpt lat="43.64089863008204" lon="6.767944905844074"><ele>391.33333333333337</ele><time>2026-04-12T06:46:26.999Z</time></trkpt><trkpt lat="43.64095679402194" lon="6.768036480975111"><ele>392.0</ele><time>2026-04-12T06:46:27.999Z</time></trkpt><trkpt lat="43.64102156119631" lon="6.768114211336587"><ele>392.6666666666667</ele><time>2026-04-12T06:46:28.999Z</time></trkpt><trkpt lat="43.641083295391226" lon="6.768188848837325"><ele>393.33333333333337</ele><time>2026-04-12T06:46:29.999Z</time></trkpt><trkpt lat="43.64114659815641" lon="6.7682653829249215"><ele>394.0</ele><time>2026-04-12T06:46:30.999Z</time></trkpt><trkpt lat="43.64121932688534" lon="6.76832980078529"><ele>394.00000000000006</ele><time>2026-04-12T06:46:31.999Z</time></trkpt><trkpt lat="43.64128130800571" lon="6.768416901841742"><ele>394.0</ele><time>2026-04-12T06:46:32.999Z</time></trkpt><trkpt lat="43.6413439880675" lon="6.768500148705337"><ele>394.0</ele><time>2026-04-12T06:46:33.999Z</time></trkpt><trkpt lat="43.64141102293599" lon="6.768578272603516"><ele>394.0</ele><time>2026-04-12T06:46:34.999Z</time></trkpt><trkpt lat="43.641476752040326" lon="6.768657194249231"><ele>394.00000000000006</ele><time>2026-04-12T06:46:35.999Z</time></trkpt><trkpt lat="43.64154148539732" lon="6.768740797410651"><ele>394.0</ele><time>2026-04-12T06:46:36.999Z</time></trkpt><trkpt lat="43.641604064533055" lon="6.768824743175924"><ele>394.1666666666667</ele><time>2026-04-12T06:46:37.999Z</time></trkpt><trkpt lat="43.64166835862301" lon="6.768911663100339"><ele>394.33333333333337</ele><time>2026-04-12T06:46:38.999Z</time></trkpt><trkpt lat="43.6417321987529" lon="6.768993159297267"><ele>394.5</ele><time>2026-04-12T06:46:39.999Z</time></trkpt><trkpt lat="43.64180496544647" lon="6.769064002189202"><ele>394.66666666666663</ele><time>2026-04-12T06:46:40.999Z</time></trkpt><trkpt lat="43.64187861019792" lon="6.76912922372828"><ele>394.8333333333333</ele><time>2026-04-12T06:46:41.999Z</time></trkpt><trkpt lat="43.64196040488586" lon="6.769182148645791"><ele>395.0</ele><time>2026-04-12T06:46:42.999Z</time></trkpt><trkpt lat="43.64205321084067" lon="6.769204593832487"><ele>394.4</ele><time>2026-04-12T06:46:43.999Z</time></trkpt><trkpt lat="43.64214883071371" lon="6.769207226693843"><ele>393.8</ele><time>2026-04-12T06:46:44.999Z</time></trkpt><trkpt lat="43.642251199554146" lon="6.769208426367501"><ele>393.20000000000005</ele><time>2026-04-12T06:46:45.999Z</time></trkpt><trkpt lat="43.642346620811615" lon="6.769212853233851"><ele>392.6</ele><time>2026-04-12T06:46:46.999Z</time></trkpt><trkpt lat="43.64244038204363" lon="6.769248544021824"><ele>392.0</ele><time>2026-04-12T06:46:47.999Z</time></trkpt><trkpt lat="43.64252379141839" lon="6.769309514513941"><ele>391.99999999999994</ele><time>2026-04-12T06:46:48.999Z</time></trkpt><trkpt lat="43.64259989944635" lon="6.769389012741225"><ele>392.0</ele><time>2026-04-12T06:46:49.999Z</time></trkpt><trkpt lat="43.64266913003527" lon="6.7694713876803085"><ele>392.0</ele><time>2026-04-12T06:46:50.999Z</time></trkpt><trkpt lat="43.64273256064933" lon="6.769561576074628"><ele>392.0</ele><time>2026-04-12T06:46:52Z</time></trkpt><trkpt lat="43.64279097312952" lon="6.769652532889262"><ele>391.99999999999994</ele><time>2026-04-12T06:46:53Z</time></trkpt><trkpt lat="43.6428420079752" lon="6.769743480545283"><ele>392.0</ele><time>2026-04-12T06:46:54Z</time></trkpt><trkpt lat="43.6428833378594" lon="6.769838848101226"><ele>392.57142857142856</ele><time>2026-04-12T06:46:55Z</time></trkpt><trkpt lat="43.64292274481123" lon="6.769930808395858"><ele>393.1428571428571</ele><time>2026-04-12T06:46:56Z</time></trkpt><trkpt lat="43.642965207096665" lon="6.7700156881906395"><ele>393.7142857142857</ele><time>2026-04-12T06:46:57Z</time></trkpt><trkpt lat="43.64300907342659" lon="6.770091222914384"><ele>394.2857142857143</ele><time>2026-04-12T06:46:58Z</time></trkpt><trkpt lat="43.64305600129137" lon="6.7701588815325815"><ele>394.85714285714283</ele><time>2026-04-12T06:46:59Z</time></trkpt><trkpt lat="43.64310854402638" lon="6.770215816516102"><ele>395.42857142857144</ele><time>2026-04-12T06:47:00Z</time></trkpt><trkpt lat="43.64316106206176" lon="6.770267309303675"><ele>396.0</ele><time>2026-04-12T06:47:01Z</time></trkpt><trkpt lat="43.64321267026514" lon="6.770319905583829"><ele>396.0</ele><time>2026-04-12T06:47:02Z</time></trkpt><trkpt lat="43.64326447041359" lon="6.770371428589012"><ele>396.0</ele><time>2026-04-12T06:47:03Z</time></trkpt><trkpt lat="43.643315639100926" lon="6.770431777603907"><ele>396.0</ele><time>2026-04-12T06:47:04Z</time></trkpt><trkpt lat="43.64336193182612" lon="6.77049363136836"><ele>396.0</ele><time>2026-04-12T06:47:05Z</time></trkpt><trkpt lat="43.643403802312314" lon="6.770560442579067"><ele>396.0</ele><time>2026-04-12T06:47:06Z</time></trkpt><trkpt lat="43.643442574507354" lon="6.770634104763396"><ele>396.0</ele><time>2026-04-12T06:47:07Z</time></trkpt><trkpt lat="43.643478647840475" lon="6.770708212451314"><ele>396.0</ele><time>2026-04-12T06:47:08Z</time></trkpt><trkpt lat="43.64351364980416" lon="6.770785382621839"><ele>396.0</ele><time>2026-04-12T06:47:09Z</time></trkpt><trkpt lat="43.64354899277572" lon="6.770862241414109"><ele>396.0</ele><time>2026-04-12T06:47:10Z</time></trkpt><trkpt lat="43.643589916911345" lon="6.7709335231574235"><ele>396.0</ele><time>2026-04-12T06:47:11Z</time></trkpt><trkpt lat="43.64363258672627" lon="6.771013129734929"><ele>396.0</ele><time>2026-04-12T06:47:12Z</time></trkpt><trkpt lat="43.643676211473974" lon="6.7710908447284055"><ele>396.0</ele><time>2026-04-12T06:47:13Z</time></trkpt><trkpt lat="43.64372010816479" lon="6.771169981408467"><ele>396.0</ele><time>2026-04-12T06:47:14Z</time></trkpt><trkpt lat="43.64376263778636" lon="6.771247334262647"><ele>396.0</ele><time>2026-04-12T06:47:15Z</time></trkpt><trkpt lat="43.64380753635534" lon="6.771323584826525"><ele>396.7142857142857</ele><time>2026-04-12T06:47:16Z</time></trkpt><trkpt lat="43.6438522572828" lon="6.771397082793447"><ele>397.4285714285714</ele><time>2026-04-12T06:47:17Z</time></trkpt><trkpt lat="43.64389791103432" lon="6.7714711634248514"><ele>398.1428571428571</ele><time>2026-04-12T06:47:18Z</time></trkpt><trkpt lat="43.643945118902025" lon="6.771546952335624"><ele>398.8571428571429</ele><time>2026-04-12T06:47:19Z</time></trkpt><trkpt lat="43.643987693008434" lon="6.771623393597053"><ele>399.57142857142856</ele><time>2026-04-12T06:47:20Z</time></trkpt><trkpt lat="43.64402907898918" lon="6.771696140442172"><ele>400.2857142857143</ele><time>2026-04-12T06:47:21Z</time></trkpt><trkpt lat="43.644070529357414" lon="6.771767783135677"><ele>401.0</ele><time>2026-04-12T06:47:22Z</time></trkpt><trkpt lat="43.644106608238374" lon="6.771842241685243"><ele>400.8</ele><time>2026-04-12T06:47:23Z</time></trkpt><trkpt lat="43.64414104946143" lon="6.771917971049298"><ele>400.6</ele><time>2026-04-12T06:47:24Z</time></trkpt><trkpt lat="43.644207709056666" lon="6.772063164157429"><ele>400.4</ele><time>2026-04-12T06:47:26Z</time></trkpt><trkpt lat="43.644269993128354" lon="6.772223574068182"><ele>400.2</ele><time>2026-04-12T06:47:28Z</time></trkpt><trkpt lat="43.64431054192738" lon="6.772300325412809"><ele>400.0</ele><time>2026-04-12T06:47:29Z</time></trkpt><trkpt lat="43.64435409174611" lon="6.77238181247498"><ele>400.00000000000006</ele><time>2026-04-12T06:47:30Z</time></trkpt><trkpt lat="43.644398318619054" lon="6.772460099485302"><ele>400.0</ele><time>2026-04-12T06:47:31Z</time></trkpt><trkpt lat="43.644442662947355" lon="6.772538594372636"><ele>400.0</ele><time>2026-04-12T06:47:32Z</time></trkpt><trkpt lat="43.64448567624413" lon="6.7726147333769555"><ele>400.0</ele><time>2026-04-12T06:47:33Z</time></trkpt><trkpt lat="43.6445312035486" lon="6.772691730585812"><ele>400.0</ele><time>2026-04-12T06:47:34Z</time></trkpt><trkpt lat="43.64457474874677" lon="6.772765457413038"><ele>400.00000000000006</ele><time>2026-04-12T06:47:35Z</time></trkpt><trkpt lat="43.64461898158784" lon="6.772840348490895"><ele>400.0</ele><time>2026-04-12T06:47:36Z</time></trkpt><trkpt lat="43.64466346175197" lon="6.7729160203062495"><ele>400.5714285714286</ele><time>2026-04-12T06:47:37Z</time></trkpt><trkpt lat="43.64470843870141" lon="6.7729948118242"><ele>401.14285714285717</ele><time>2026-04-12T06:47:38Z</time></trkpt><trkpt lat="43.644753229991835" lon="6.773073277929661"><ele>401.7142857142857</ele><time>2026-04-12T06:47:39Z</time></trkpt><trkpt lat="43.644808533374686" lon="6.773138280600781"><ele>402.28571428571433</ele><time>2026-04-12T06:47:40Z</time></trkpt><trkpt lat="43.64485131884559" lon="6.773214626786319"><ele>402.85714285714283</ele><time>2026-04-12T06:47:41Z</time></trkpt><trkpt lat="43.64489471743577" lon="6.773292990487016"><ele>403.42857142857144</ele><time>2026-04-12T06:47:42Z</time></trkpt><trkpt lat="43.64494059763015" lon="6.773366281364532"><ele>404.0</ele><time>2026-04-12T06:47:43Z</time></trkpt><trkpt lat="43.644988261243384" lon="6.773443795332965"><ele>403.57142857142856</ele><time>2026-04-12T06:47:44Z</time></trkpt><trkpt lat="43.64503298769541" lon="6.773525131809306"><ele>403.1428571428571</ele><time>2026-04-12T06:47:45Z</time></trkpt><trkpt lat="43.64508315239342" lon="6.7736011146467545"><ele>402.7142857142857</ele><time>2026-04-12T06:47:46Z</time></trkpt><trkpt lat="43.64513375006904" lon="6.773676527928268"><ele>402.2857142857143</ele><time>2026-04-12T06:47:47Z</time></trkpt><trkpt lat="43.64518831945267" lon="6.773746604982611"><ele>401.8571428571429</ele><time>2026-04-12T06:47:48Z</time></trkpt><trkpt lat="43.64524299898454" lon="6.773819645164145"><ele>401.42857142857144</ele><time>2026-04-12T06:47:49Z</time></trkpt><trkpt lat="43.645299973137334" lon="6.773887950836089"><ele>401.0</ele><time>2026-04-12T06:47:50Z</time></trkpt><trkpt lat="43.645353634855255" lon="6.773951009811934"><ele>401.99999999999994</ele><time>2026-04-12T06:47:51Z</time></trkpt><trkpt lat="43.645408980830354" lon="6.774014227691338"><ele>403.0</ele><time>2026-04-12T06:47:52Z</time></trkpt><trkpt lat="43.64545681646322" lon="6.774073890624602"><ele>404.0</ele><time>2026-04-12T06:47:53Z</time></trkpt><trkpt lat="43.64550715774735" lon="6.7741336918702695"><ele>405.0</ele><time>2026-04-12T06:47:54Z</time></trkpt><trkpt lat="43.64559456929598" lon="6.774249355271026"><ele>405.99999999999994</ele><time>2026-04-12T06:47:56Z</time></trkpt><trkpt lat="43.64567967154008" lon="6.774357272436529"><ele>407.0</ele><time>2026-04-12T06:47:58Z</time></trkpt><trkpt lat="43.645751254642285" lon="6.774469400401908"><ele>407.0</ele><time>2026-04-12T06:47:59.999Z</time></trkpt><trkpt lat="43.64582053288652" lon="6.774574115298309"><ele>407.0</ele><time>2026-04-12T06:48:01.999Z</time></trkpt><trkpt lat="43.645887462689906" lon="6.774682338959953"><ele>407.0</ele><time>2026-04-12T06:48:03.999Z</time></trkpt><trkpt lat="43.64593366337402" lon="6.7748024288552555"><ele>407.0</ele><time>2026-04-12T06:48:05.999Z</time></trkpt><trkpt lat="43.64598152889358" lon="6.774863867696046"><ele>407.0</ele><time>2026-04-12T06:48:07.999Z</time></trkpt><trkpt lat="43.64603868692436" lon="6.775018638719741"><ele>406.99999999999994</ele><time>2026-04-12T06:48:09.999Z</time></trkpt><trkpt lat="43.646089687398664" lon="6.775123570664012"><ele>407.0</ele><time>2026-04-12T06:48:11.999Z</time></trkpt><trkpt lat="43.64614147130652" lon="6.775217580278346"><ele>407.0</ele><time>2026-04-12T06:48:13.999Z</time></trkpt><trkpt lat="43.646181358175824" lon="6.775311475864249"><ele>407.0</ele><time>2026-04-12T06:48:15.999Z</time></trkpt><trkpt lat="43.64623135962584" lon="6.775406004974445"><ele>406.99999999999994</ele><time>2026-04-12T06:48:17.999Z</time></trkpt><trkpt lat="43.64627365733472" lon="6.77550995475354"><ele>407.0</ele><time>2026-04-12T06:48:19.999Z</time></trkpt><trkpt lat="43.64631855481088" lon="6.775604651069485"><ele>408.99999999999994</ele><time>2026-04-12T06:48:21.999Z</time></trkpt><trkpt lat="43.646369071841484" lon="6.775692943309578"><ele>411.0</ele><time>2026-04-12T06:48:23.999Z</time></trkpt><trkpt lat="43.64641491909032" lon="6.77578853031781"><ele>413.0</ele><time>2026-04-12T06:48:25.999Z</time></trkpt><trkpt lat="43.64646343245535" lon="6.775879060286371"><ele>415.0</ele><time>2026-04-12T06:48:27.999Z</time></trkpt><trkpt lat="43.64651709631855" lon="6.7759819280504585"><ele>416.99999999999994</ele><time>2026-04-12T06:48:29.999Z</time></trkpt><trkpt lat="43.646564254463804" lon="6.776081582214057"><ele>419.0</ele><time>2026-04-12T06:48:31.999Z</time></trkpt><trkpt lat="43.64661119935831" lon="6.776171776182032"><ele>418.99999999999994</ele><time>2026-04-12T06:48:33.999Z</time></trkpt><trkpt lat="43.64665642778558" lon="6.776265545447496"><ele>419.0</ele><time>2026-04-12T06:48:35.999Z</time></trkpt><trkpt lat="43.64670545969203" lon="6.776361466633358"><ele>419.0</ele><time>2026-04-12T06:48:37.999Z</time></trkpt><trkpt lat="43.64675317479869" lon="6.776451675173137"><ele>419.0</ele><time>2026-04-12T06:48:39.999Z</time></trkpt><trkpt lat="43.64679346700487" lon="6.77655317223068"><ele>418.99999999999994</ele><time>2026-04-12T06:48:41.999Z</time></trkpt><trkpt lat="43.64683038589229" lon="6.776658870277573"><ele>419.0</ele><time>2026-04-12T06:48:43.999Z</time></trkpt><trkpt lat="43.646864357451804" lon="6.776772306589856"><ele>419.49999999999994</ele><time>2026-04-12T06:48:45.999Z</time></trkpt><trkpt lat="43.64688648600061" lon="6.776885751588202"><ele>420.0</ele><time>2026-04-12T06:48:47.999Z</time></trkpt><trkpt lat="43.64690292557823" lon="6.776996574204892"><ele>420.5</ele><time>2026-04-12T06:48:49.999Z</time></trkpt><trkpt lat="43.64691424194501" lon="6.777109672347615"><ele>421.0</ele><time>2026-04-12T06:48:51.999Z</time></trkpt><trkpt lat="43.64692048803167" lon="6.777225414785773"><ele>421.49999999999994</ele><time>2026-04-12T06:48:53.999Z</time></trkpt><trkpt lat="43.64693904896578" lon="6.777344462688824"><ele>422.0</ele><time>2026-04-12T06:48:55.999Z</time></trkpt><trkpt lat="43.64694384959816" lon="6.777465080882585"><ele>421.99999999999994</ele><time>2026-04-12T06:48:58Z</time></trkpt><trkpt lat="43.64695099346603" lon="6.777580842160848"><ele>422.0</ele><time>2026-04-12T06:49:00Z</time></trkpt><trkpt lat="43.6469536867338" lon="6.7777046035916975"><ele>422.0</ele><time>2026-04-12T06:49:02Z</time></trkpt><trkpt lat="43.646954377467466" lon="6.777822541088582"><ele>422.0</ele><time>2026-04-12T06:49:04Z</time></trkpt><trkpt lat="43.646949312242064" lon="6.777939640530076"><ele>421.99999999999994</ele><time>2026-04-12T06:49:06Z</time></trkpt><trkpt lat="43.64693941949873" lon="6.778075971721289"><ele>422.0</ele><time>2026-04-12T06:49:09Z</time></trkpt><trkpt lat="43.646931258767346" lon="6.7782548947970875"><ele>423.16666666666663</ele><time>2026-04-12T06:49:12Z</time></trkpt><trkpt lat="43.64691165167207" lon="6.7783906183022555"><ele>424.3333333333333</ele><time>2026-04-12T06:49:14Z</time></trkpt><trkpt lat="43.646902617363594" lon="6.778509437770183"><ele>425.5</ele><time>2026-04-12T06:49:16Z</time></trkpt><trkpt lat="43.64688891809837" lon="6.778629882959052"><ele>426.66666666666663</ele><time>2026-04-12T06:49:18Z</time></trkpt><trkpt lat="43.646889880131575" lon="6.7787503858016125"><ele>427.8333333333333</ele><time>2026-04-12T06:49:20Z</time></trkpt><trkpt lat="43.64687658982705" lon="6.778867324285507"><ele>429.0</ele><time>2026-04-12T06:49:22Z</time></trkpt><trkpt lat="43.6468606760221" lon="6.7789968469740245"><ele>429.0</ele><time>2026-04-12T06:49:24Z</time></trkpt><trkpt lat="43.646846356203504" lon="6.7791382646079335"><ele>429.0</ele><time>2026-04-12T06:49:26Z</time></trkpt><trkpt lat="43.6468271030724" lon="6.779295733521973"><ele>429.0</ele><time>2026-04-12T06:49:28Z</time></trkpt><trkpt lat="43.64678764717059" lon="6.7794640782811335"><ele>429.0</ele><time>2026-04-12T06:49:30Z</time></trkpt><trkpt lat="43.64676695680998" lon="6.779561075809558"><ele>429.0</ele><time>2026-04-12T06:49:31Z</time></trkpt><trkpt lat="43.64673473750009" lon="6.779658451586503"><ele>428.0</ele><time>2026-04-12T06:49:32Z</time></trkpt><trkpt lat="43.646705364174046" lon="6.779758315657798"><ele>427.0</ele><time>2026-04-12T06:49:33Z</time></trkpt><trkpt lat="43.64666751824705" lon="6.779875530472305"><ele>426.0</ele><time>2026-04-12T06:49:34Z</time></trkpt><trkpt lat="43.64664343388572" lon="6.7799908390452615"><ele>425.0</ele><time>2026-04-12T06:49:35Z</time></trkpt><trkpt lat="43.646633868451616" lon="6.780106411904163"><ele>424.0</ele><time>2026-04-12T06:49:36Z</time></trkpt><trkpt lat="43.6467120002757" lon="6.780230585528511"><ele>422.0</ele><time>2026-04-12T06:49:37Z</time></trkpt><trkpt lat="43.6468563309935" lon="6.780261267807213"><ele>420.0</ele><time>2026-04-12T06:49:38Z</time></trkpt><trkpt lat="43.646975978395695" lon="6.780208809363964"><ele>418.0</ele><time>2026-04-12T06:49:39Z</time></trkpt><trkpt lat="43.6470784837793" lon="6.780171640448849"><ele>416.0</ele><time>2026-04-12T06:49:40Z</time></trkpt><trkpt lat="43.647186073661004" lon="6.7801330187839355"><ele>416.0</ele><time>2026-04-12T06:49:41Z</time></trkpt><trkpt lat="43.647293186227216" lon="6.780083415610045"><ele>416.0</ele><time>2026-04-12T06:49:42Z</time></trkpt><trkpt lat="43.64739612633817" lon="6.780010923639534"><ele>416.0</ele><time>2026-04-12T06:49:43Z</time></trkpt><trkpt lat="43.647506784736855" lon="6.779944520001953"><ele>416.0</ele><time>2026-04-12T06:49:44Z</time></trkpt><trkpt lat="43.64761509325244" lon="6.779862663384167"><ele>416.0</ele><time>2026-04-12T06:49:45Z</time></trkpt><trkpt lat="43.64772701256851" lon="6.779788519222601"><ele>416.0</ele><time>2026-04-12T06:49:46Z</time></trkpt><trkpt lat="43.64784720622719" lon="6.779740577012279"><ele>416.0</ele><time>2026-04-12T06:49:47Z</time></trkpt><trkpt lat="43.64797934777492" lon="6.77973064067589"><ele>416.0</ele><time>2026-04-12T06:49:48Z</time></trkpt><trkpt lat="43.64811745964695" lon="6.7797787847606035"><ele>411.5</ele><time>2026-04-12T06:49:49Z</time></trkpt><trkpt lat="43.64825491414798" lon="6.779809551142238"><ele>407.0</ele><time>2026-04-12T06:49:50Z</time></trkpt><trkpt lat="43.64839952920411" lon="6.7798085323532735"><ele>402.5</ele><time>2026-04-12T06:49:51Z</time></trkpt><trkpt lat="43.64854285173847" lon="6.779820377665553"><ele>398.0</ele><time>2026-04-12T06:49:52Z</time></trkpt><trkpt lat="43.64869254508018" lon="6.779810960044495"><ele>396.66666666666663</ele><time>2026-04-12T06:49:53Z</time></trkpt><trkpt lat="43.648843845781506" lon="6.779800626091686"><ele>395.33333333333337</ele><time>2026-04-12T06:49:54Z</time></trkpt><trkpt lat="43.64898999805876" lon="6.779807568543519"><ele>394.0</ele><time>2026-04-12T06:49:55Z</time></trkpt><trkpt lat="43.649146368105725" lon="6.779799592594598"><ele>394.0</ele><time>2026-04-12T06:49:56Z</time></trkpt><trkpt lat="43.64930389597908" lon="6.779802893634671"><ele>394.0</ele><time>2026-04-12T06:49:57Z</time></trkpt><trkpt lat="43.64945922589676" lon="6.779816496990382"><ele>394.0</ele><time>2026-04-12T06:49:58Z</time></trkpt><trkpt lat="43.64961527146017" lon="6.779825530384495"><ele>392.6666666666667</ele><time>2026-04-12T06:49:59Z</time></trkpt><trkpt lat="43.64977319892203" lon="6.779834149873212"><ele>391.33333333333337</ele><time>2026-04-12T06:50:00Z</time></trkpt><trkpt lat="43.64993165535667" lon="6.779844949336094"><ele>390.0</ele><time>2026-04-12T06:50:01Z</time></trkpt><trkpt lat="43.65009075536207" lon="6.779843754535316"><ele>390.0</ele><time>2026-04-12T06:50:02Z</time></trkpt><trkpt lat="43.65024700033501" lon="6.7798113499165895"><ele>390.0</ele><time>2026-04-12T06:50:03Z</time></trkpt><trkpt lat="43.65039581377397" lon="6.779739752345134"><ele>390.0</ele><time>2026-04-12T06:50:04Z</time></trkpt><trkpt lat="43.650531296676185" lon="6.779631221368417"><ele>391.33333333333337</ele><time>2026-04-12T06:50:05Z</time></trkpt><trkpt lat="43.65066221922203" lon="6.779498861736787"><ele>392.6666666666667</ele><time>2026-04-12T06:50:06Z</time></trkpt><trkpt lat="43.6507842955822" lon="6.779353124369702"><ele>394.0</ele><time>2026-04-12T06:50:06.999Z</time></trkpt><trkpt lat="43.650904430929735" lon="6.779210093022026"><ele>394.0</ele><time>2026-04-12T06:50:07.999Z</time></trkpt><trkpt lat="43.65102601327713" lon="6.779066260000968"><ele>394.0</ele><time>2026-04-12T06:50:08.999Z</time></trkpt><trkpt lat="43.6511472941861" lon="6.778919709174609"><ele>394.0</ele><time>2026-04-12T06:50:09.999Z</time></trkpt><trkpt lat="43.65126238358323" lon="6.778773722931841"><ele>386.6666666666667</ele><time>2026-04-12T06:50:10.999Z</time></trkpt><trkpt lat="43.651379777688454" lon="6.778619230471008"><ele>379.33333333333337</ele><time>2026-04-12T06:50:11.999Z</time></trkpt><trkpt lat="43.65149302716393" lon="6.7784664153312875"><ele>372.0</ele><time>2026-04-12T06:50:12.999Z</time></trkpt><trkpt lat="43.65160171743021" lon="6.778307531815559"><ele>372.0</ele><time>2026-04-12T06:50:13.999Z</time></trkpt><trkpt lat="43.65169043408939" lon="6.778123173364923"><ele>372.0</ele><time>2026-04-12T06:50:14.999Z</time></trkpt><trkpt lat="43.65176710811994" lon="6.777929426576385"><ele>372.0</ele><time>2026-04-12T06:50:15.999Z</time></trkpt><trkpt lat="43.65184010889411" lon="6.777732203461956"><ele>379.66666666666663</ele><time>2026-04-12T06:50:16.999Z</time></trkpt><trkpt lat="43.65191009339404" lon="6.777536431626009"><ele>387.3333333333333</ele><time>2026-04-12T06:50:17.999Z</time></trkpt><trkpt lat="43.65197728529507" lon="6.777336316967659"><ele>395.0</ele><time>2026-04-12T06:50:18.999Z</time></trkpt><trkpt lat="43.652044285557444" lon="6.777135648775304"><ele>383.3333333333333</ele><time>2026-04-12T06:50:19.999Z</time></trkpt><trkpt lat="43.65211040411683" lon="6.776938042172297"><ele>371.66666666666663</ele><time>2026-04-12T06:50:20.999Z</time></trkpt><trkpt lat="43.65217740332438" lon="6.776743992741695"><ele>360.0</ele><time>2026-04-12T06:50:21.999Z</time></trkpt><trkpt lat="43.65224185722711" lon="6.776558277626325"><ele>360.0</ele><time>2026-04-12T06:50:22.999Z</time></trkpt><trkpt lat="43.652325538214804" lon="6.776396563219706"><ele>360.0</ele><time>2026-04-12T06:50:23.999Z</time></trkpt><trkpt lat="43.65240421616102" lon="6.776228630657404"><ele>360.0</ele><time>2026-04-12T06:50:24.999Z</time></trkpt><trkpt lat="43.652524464597995" lon="6.7761187103629785"><ele>360.0</ele><time>2026-04-12T06:50:25.999Z</time></trkpt><trkpt lat="43.65264162550024" lon="6.775995278002864"><ele>355.25</ele><time>2026-04-12T06:50:26.999Z</time></trkpt><trkpt lat="43.65275662549111" lon="6.7758573179386925"><ele>350.5</ele><time>2026-04-12T06:50:27.999Z</time></trkpt><trkpt lat="43.652877346463804" lon="6.775730209615362"><ele>345.75</ele><time>2026-04-12T06:50:28.999Z</time></trkpt><trkpt lat="43.652983701490164" lon="6.775599894485322"><ele>341.0</ele><time>2026-04-12T06:50:29.999Z</time></trkpt><trkpt lat="43.65310417915716" lon="6.775475564171681"><ele>341.0</ele><time>2026-04-12T06:50:30.999Z</time></trkpt><trkpt lat="43.653222682016036" lon="6.775339031952806"><ele>341.0</ele><time>2026-04-12T06:50:31.999Z</time></trkpt><trkpt lat="43.653323674666325" lon="6.775183025680139"><ele>341.0</ele><time>2026-04-12T06:50:32.999Z</time></trkpt><trkpt lat="43.65343071254818" lon="6.775017310692444"><ele>335.0</ele><time>2026-04-12T06:50:33.999Z</time></trkpt><trkpt lat="43.65352928169449" lon="6.774843850501812"><ele>329.0</ele><time>2026-04-12T06:50:34.999Z</time></trkpt><trkpt lat="43.65363427863559" lon="6.7746769911117"><ele>323.0</ele><time>2026-04-12T06:50:35.999Z</time></trkpt><trkpt lat="43.65373993025933" lon="6.77450898295758"><ele>330.33333333333337</ele><time>2026-04-12T06:50:36.999Z</time></trkpt><trkpt lat="43.65385017089049" lon="6.774348753055465"><ele>337.6666666666667</ele><time>2026-04-12T06:50:37.999Z</time></trkpt><trkpt lat="43.65398244900942" lon="6.774225036900642"><ele>345.0</ele><time>2026-04-12T06:50:38.999Z</time></trkpt><trkpt lat="43.65410565521032" lon="6.774082549331378"><ele>345.0</ele><time>2026-04-12T06:50:39.999Z</time></trkpt><trkpt lat="43.654239125495096" lon="6.773956286014557"><ele>345.0</ele><time>2026-04-12T06:50:40.999Z</time></trkpt><trkpt lat="43.65436424141299" lon="6.773848989357009"><ele>345.0</ele><time>2026-04-12T06:50:41.999Z</time></trkpt><trkpt lat="43.654473881147304" lon="6.773733585793225"><ele>345.0</ele><time>2026-04-12T06:50:42.999Z</time></trkpt><trkpt lat="43.65456133917541" lon="6.7735934971387355"><ele>341.25</ele><time>2026-04-12T06:50:43.999Z</time></trkpt><trkpt lat="43.65461131714097" lon="6.773407227500568"><ele>337.5</ele><time>2026-04-12T06:50:44.999Z</time></trkpt><trkpt lat="43.6546271246273" lon="6.773206360174195"><ele>333.75</ele><time>2026-04-12T06:50:45.999Z</time></trkpt><trkpt lat="43.65462282522624" lon="6.7730004963040855"><ele>330.0</ele><time>2026-04-12T06:50:46.999Z</time></trkpt><trkpt lat="43.65464166431814" lon="6.7728014801968985"><ele>331.25</ele><time>2026-04-12T06:50:47.999Z</time></trkpt><trkpt lat="43.654701867685326" lon="6.7726150708437265"><ele>332.5</ele><time>2026-04-12T06:50:48.999Z</time></trkpt><trkpt lat="43.65476606206536" lon="6.7724287023748255"><ele>333.75</ele><time>2026-04-12T06:50:49.999Z</time></trkpt><trkpt lat="43.654832424246464" lon="6.772245170702061"><ele>335.0</ele><time>2026-04-12T06:50:50.999Z</time></trkpt><trkpt lat="43.65490264698789" lon="6.772064416939409"><ele>335.0</ele><time>2026-04-12T06:50:51.999Z</time></trkpt><trkpt lat="43.65497704139851" lon="6.77188187716672"><ele>335.0</ele><time>2026-04-12T06:50:52.999Z</time></trkpt><trkpt lat="43.65503360864329" lon="6.771686309708396"><ele>335.0</ele><time>2026-04-12T06:50:53.999Z</time></trkpt><trkpt lat="43.6551045420198" lon="6.771514055838348"><ele>335.0</ele><time>2026-04-12T06:50:54.999Z</time></trkpt><trkpt lat="43.65519362097615" lon="6.771343226239365"><ele>337.0</ele><time>2026-04-12T06:50:55.999Z</time></trkpt><trkpt lat="43.655265485331086" lon="6.771182888821587"><ele>339.0</ele><time>2026-04-12T06:50:56.999Z</time></trkpt><trkpt lat="43.65537396872399" lon="6.771054442716045"><ele>341.0</ele><time>2026-04-12T06:50:57.999Z</time></trkpt><trkpt lat="43.65551087017485" lon="6.770996312748977"><ele>343.0</ele><time>2026-04-12T06:50:58.999Z</time></trkpt><trkpt lat="43.65564622495237" lon="6.77091668492154"><ele>337.66666666666663</ele><time>2026-04-12T06:50:59.999Z</time></trkpt><trkpt lat="43.655785963523094" lon="6.770833884828382"><ele>332.3333333333333</ele><time>2026-04-12T06:51:00.999Z</time></trkpt><trkpt lat="43.65592934698823" lon="6.770766656657632"><ele>327.0</ele><time>2026-04-12T06:51:01.999Z</time></trkpt><trkpt lat="43.656067106458295" lon="6.770669425099486"><ele>320.0</ele><time>2026-04-12T06:51:02.999Z</time></trkpt><trkpt lat="43.65618784307266" lon="6.7705455426081995"><ele>313.0</ele><time>2026-04-12T06:51:04Z</time></trkpt><trkpt lat="43.65631349610531" lon="6.770402836011011"><ele>306.0</ele><time>2026-04-12T06:51:05Z</time></trkpt><trkpt lat="43.656447633830034" lon="6.770286605876496"><ele>311.3333333333333</ele><time>2026-04-12T06:51:06Z</time></trkpt><trkpt lat="43.65657906754248" lon="6.770158075901655"><ele>316.66666666666663</ele><time>2026-04-12T06:51:07Z</time></trkpt><trkpt lat="43.65671104560709" lon="6.7700339804955005"><ele>322.0</ele><time>2026-04-12T06:51:08Z</time></trkpt><trkpt lat="43.656836021683645" lon="6.769897287174028"><ele>316.75</ele><time>2026-04-12T06:51:09Z</time></trkpt><trkpt lat="43.65696816186457" lon="6.769801806699957"><ele>311.5</ele><time>2026-04-12T06:51:10Z</time></trkpt><trkpt lat="43.65710571036092" lon="6.769713166935495"><ele>306.25</ele><time>2026-04-12T06:51:11Z</time></trkpt><trkpt lat="43.65723921857437" lon="6.769637275918151"><ele>301.0</ele><time>2026-04-12T06:51:12Z</time></trkpt><trkpt lat="43.65735899163686" lon="6.769559515735497"><ele>301.0</ele><time>2026-04-12T06:51:13Z</time></trkpt><trkpt lat="43.65746828843009" lon="6.76949109916754"><ele>301.0</ele><time>2026-04-12T06:51:14Z</time></trkpt><trkpt lat="43.657562107837094" lon="6.769418697536096"><ele>301.0</ele><time>2026-04-12T06:51:15Z</time></trkpt><trkpt lat="43.657638615947114" lon="6.769330169310826"><ele>301.0</ele><time>2026-04-12T06:51:16Z</time></trkpt><trkpt lat="43.65765988076461" lon="6.769166788068918"><ele>301.0</ele><time>2026-04-12T06:51:17Z</time></trkpt><trkpt lat="43.65764715068318" lon="6.769000505658586"><ele>303.75</ele><time>2026-04-12T06:51:18Z</time></trkpt><trkpt lat="43.6576044989695" lon="6.768835748804885"><ele>306.5</ele><time>2026-04-12T06:51:19Z</time></trkpt><trkpt lat="43.65760060490171" lon="6.76866596638783"><ele>309.25</ele><time>2026-04-12T06:51:20Z</time></trkpt><trkpt lat="43.65761182263518" lon="6.768506510320863"><ele>312.0</ele><time>2026-04-12T06:51:21Z</time></trkpt><trkpt lat="43.657631040590196" lon="6.768336631161138"><ele>314.25</ele><time>2026-04-12T06:51:22Z</time></trkpt><trkpt lat="43.65766376000214" lon="6.768190256259011"><ele>316.5</ele><time>2026-04-12T06:51:23Z</time></trkpt><trkpt lat="43.657738676896315" lon="6.768059531688923"><ele>318.75</ele><time>2026-04-12T06:51:24Z</time></trkpt><trkpt lat="43.65784604511063" lon="6.767991950680749"><ele>321.0</ele><time>2026-04-12T06:51:25Z</time></trkpt><trkpt lat="43.657970485006736" lon="6.767912640971423"><ele>316.5</ele><time>2026-04-12T06:51:26Z</time></trkpt><trkpt lat="43.65807656035234" lon="6.767772517404707"><ele>312.0</ele><time>2026-04-12T06:51:27Z</time></trkpt><trkpt lat="43.65818858353041" lon="6.7676604285591635"><ele>307.5</ele><time>2026-04-12T06:51:28Z</time></trkpt><trkpt lat="43.658315097955935" lon="6.767567789559425"><ele>303.0</ele><time>2026-04-12T06:51:29Z</time></trkpt><trkpt lat="43.65842614998789" lon="6.767439930194043"><ele>303.0</ele><time>2026-04-12T06:51:30Z</time></trkpt><trkpt lat="43.658540294479614" lon="6.7673225125505265"><ele>303.0</ele><time>2026-04-12T06:51:31Z</time></trkpt><trkpt lat="43.65865064272106" lon="6.767192816018414"><ele>303.0</ele><time>2026-04-12T06:51:32Z</time></trkpt><trkpt lat="43.65875086752811" lon="6.767068236379453"><ele>303.0</ele><time>2026-04-12T06:51:33Z</time></trkpt><trkpt lat="43.65883962318837" lon="6.7669506391997"><ele>296.5</ele><time>2026-04-12T06:51:34Z</time></trkpt><trkpt lat="43.6589137689644" lon="6.76680984963515"><ele>290.0</ele><time>2026-04-12T06:51:35Z</time></trkpt><trkpt lat="43.65896498445695" lon="6.766641057731629"><ele>283.5</ele><time>2026-04-12T06:51:36Z</time></trkpt><trkpt lat="43.65900125181646" lon="6.7664599397791205"><ele>277.0</ele><time>2026-04-12T06:51:37Z</time></trkpt><trkpt lat="43.659083531026326" lon="6.76630807824444"><ele>277.0</ele><time>2026-04-12T06:51:38Z</time></trkpt><trkpt lat="43.65915178153614" lon="6.766133969766536"><ele>277.0</ele><time>2026-04-12T06:51:39Z</time></trkpt><trkpt lat="43.65920498846623" lon="6.765955822509647"><ele>277.0</ele><time>2026-04-12T06:51:40Z</time></trkpt><trkpt lat="43.659249181679954" lon="6.765792555568777"><ele>277.0</ele><time>2026-04-12T06:51:41Z</time></trkpt><trkpt lat="43.65931729529971" lon="6.765683360630384"><ele>279.8</ele><time>2026-04-12T06:51:42Z</time></trkpt><trkpt lat="43.65936127286736" lon="6.7655740804437885"><ele>282.6</ele><time>2026-04-12T06:51:43Z</time></trkpt><trkpt lat="43.65937008875099" lon="6.765439165201072"><ele>285.40000000000003</ele><time>2026-04-12T06:51:44Z</time></trkpt><trkpt lat="43.659325033166404" lon="6.765296449932244"><ele>288.2</ele><time>2026-04-12T06:51:45Z</time></trkpt><trkpt lat="43.659297474805435" lon="6.7651545323831686"><ele>291.0</ele><time>2026-04-12T06:51:46Z</time></trkpt><trkpt lat="43.65929018958497" lon="6.7650253655626855"><ele>294.2</ele><time>2026-04-12T06:51:47Z</time></trkpt><trkpt lat="43.6593355560267" lon="6.764885786100887"><ele>297.40000000000003</ele><time>2026-04-12T06:51:48Z</time></trkpt><trkpt lat="43.65940930197429" lon="6.764786480521869"><ele>300.6</ele><time>2026-04-12T06:51:49Z</time></trkpt><trkpt lat="43.65951301361949" lon="6.76471372240531"><ele>303.8</ele><time>2026-04-12T06:51:50Z</time></trkpt><trkpt lat="43.659598811876954" lon="6.764618025308877"><ele>307.0</ele><time>2026-04-12T06:51:51Z</time></trkpt><trkpt lat="43.659673576185114" lon="6.7644863617778554"><ele>298.5</ele><time>2026-04-12T06:51:52Z</time></trkpt><trkpt lat="43.65976275508" lon="6.764372800408677"><ele>290.0</ele><time>2026-04-12T06:51:53Z</time></trkpt><trkpt lat="43.65985947824648" lon="6.764262778238847"><ele>281.5</ele><time>2026-04-12T06:51:54Z</time></trkpt><trkpt lat="43.659955501352556" lon="6.7641488148985776"><ele>273.0</ele><time>2026-04-12T06:51:55Z</time></trkpt><trkpt lat="43.66002986972365" lon="6.764031662615993"><ele>273.0</ele><time>2026-04-12T06:51:56Z</time></trkpt><trkpt lat="43.660064403210725" lon="6.763873241118554"><ele>273.0</ele><time>2026-04-12T06:51:57Z</time></trkpt><trkpt lat="43.660059179415356" lon="6.763694392374534"><ele>273.0</ele><time>2026-04-12T06:51:58Z</time></trkpt><trkpt lat="43.66009289899976" lon="6.763531530609901"><ele>273.0</ele><time>2026-04-12T06:51:59Z</time></trkpt><trkpt lat="43.6601802901415" lon="6.763409195427132"><ele>270.75</ele><time>2026-04-12T06:52:00Z</time></trkpt><trkpt lat="43.66029374217215" lon="6.7633299300111895"><ele>268.5</ele><time>2026-04-12T06:52:01Z</time></trkpt><trkpt lat="43.66041907728671" lon="6.763307606807421"><ele>266.25</ele><time>2026-04-12T06:52:02Z</time></trkpt><trkpt lat="43.66054947107981" lon="6.763288968558238"><ele>264.0</ele><time>2026-04-12T06:52:03Z</time></trkpt><trkpt lat="43.66067817365304" lon="6.76324058157256"><ele>264.0</ele><time>2026-04-12T06:52:04Z</time></trkpt><trkpt lat="43.66080252106561" lon="6.763169395916001"><ele>264.0</ele><time>2026-04-12T06:52:05Z</time></trkpt><trkpt lat="43.660914930334144" lon="6.76305016254255"><ele>264.0</ele><time>2026-04-12T06:52:06Z</time></trkpt><trkpt lat="43.66101826386106" lon="6.7629220960940515"><ele>264.0</ele><time>2026-04-12T06:52:07Z</time></trkpt><trkpt lat="43.661116352101175" lon="6.762792878667049"><ele>262.5</ele><time>2026-04-12T06:52:08Z</time></trkpt><trkpt lat="43.661232048258924" lon="6.762683392566456"><ele>261.0</ele><time>2026-04-12T06:52:09Z</time></trkpt><trkpt lat="43.66133080238675" lon="6.762556122485301"><ele>259.5</ele><time>2026-04-12T06:52:10Z</time></trkpt><trkpt lat="43.66142256764472" lon="6.762388457449333"><ele>258.0</ele><time>2026-04-12T06:52:10.999Z</time></trkpt><trkpt lat="43.661546638756924" lon="6.762270851853887"><ele>258.0</ele><time>2026-04-12T06:52:11.999Z</time></trkpt><trkpt lat="43.66167143589509" lon="6.762157416108096"><ele>258.0</ele><time>2026-04-12T06:52:12.999Z</time></trkpt><trkpt lat="43.66180288023194" lon="6.762049937302854"><ele>258.0</ele><time>2026-04-12T06:52:13.999Z</time></trkpt><trkpt lat="43.66193335198995" lon="6.761955237767154"><ele>258.0</ele><time>2026-04-12T06:52:14.999Z</time></trkpt><trkpt lat="43.66206881252234" lon="6.761860919426608"><ele>260.3333333333333</ele><time>2026-04-12T06:52:15.999Z</time></trkpt><trkpt lat="43.66221116221876" lon="6.761807287336508"><ele>262.66666666666663</ele><time>2026-04-12T06:52:16.999Z</time></trkpt><trkpt lat="43.662357145791155" lon="6.761768835375975"><ele>265.0</ele><time>2026-04-12T06:52:17.999Z</time></trkpt><trkpt lat="43.66251104607563" lon="6.761750026621944"><ele>265.0</ele><time>2026-04-12T06:52:18.999Z</time></trkpt><trkpt lat="43.66266354129998" lon="6.761718404357356"><ele>265.0</ele><time>2026-04-12T06:52:19.999Z</time></trkpt><trkpt lat="43.662814826312086" lon="6.761723961785733"><ele>265.0</ele><time>2026-04-12T06:52:20.999Z</time></trkpt><trkpt lat="43.662972349585296" lon="6.761734498695635"><ele>262.5</ele><time>2026-04-12T06:52:21.999Z</time></trkpt><trkpt lat="43.6631116175172" lon="6.761712343793894"><ele>260.0</ele><time>2026-04-12T06:52:22.999Z</time></trkpt><trkpt lat="43.66324968593224" lon="6.76167818756216"><ele>257.5</ele><time>2026-04-12T06:52:23.999Z</time></trkpt><trkpt lat="43.663397588148555" lon="6.761713802750532"><ele>255.0</ele><time>2026-04-12T06:52:24.999Z</time></trkpt><trkpt lat="43.66354634498603" lon="6.761710696789404"><ele>251.75</ele><time>2026-04-12T06:52:25.999Z</time></trkpt><trkpt lat="43.66369383713022" lon="6.761730508297295"><ele>248.5</ele><time>2026-04-12T06:52:26.999Z</time></trkpt><trkpt lat="43.66384343776989" lon="6.761741562938234"><ele>245.25</ele><time>2026-04-12T06:52:27.999Z</time></trkpt><trkpt lat="43.663971401806" lon="6.761780448055631"><ele>242.0</ele><time>2026-04-12T06:52:28.999Z</time></trkpt><trkpt lat="43.66410350399307" lon="6.761793166132822"><ele>242.0</ele><time>2026-04-12T06:52:29.999Z</time></trkpt><trkpt lat="43.66423188692811" lon="6.761752730556656"><ele>242.0</ele><time>2026-04-12T06:52:30.999Z</time></trkpt><trkpt lat="43.66436713694058" lon="6.761694107621194"><ele>242.0</ele><time>2026-04-12T06:52:31.999Z</time></trkpt><trkpt lat="43.66450470633752" lon="6.76164670686102"><ele>242.0</ele><time>2026-04-12T06:52:32.999Z</time></trkpt><trkpt lat="43.66464984719275" lon="6.761619049285461"><ele>239.25</ele><time>2026-04-12T06:52:33.999Z</time></trkpt><trkpt lat="43.66479642749209" lon="6.761571511905833"><ele>236.5</ele><time>2026-04-12T06:52:34.999Z</time></trkpt><trkpt lat="43.664936198508606" lon="6.761537477478103"><ele>233.75</ele><time>2026-04-12T06:52:35.999Z</time></trkpt><trkpt lat="43.66506764858131" lon="6.761515916423262"><ele>231.0</ele><time>2026-04-12T06:52:36.999Z</time></trkpt><trkpt lat="43.66518559143619" lon="6.7615141555667"><ele>230.5</ele><time>2026-04-12T06:52:37.999Z</time></trkpt><trkpt lat="43.66530168576836" lon="6.7614950186261575"><ele>230.0</ele><time>2026-04-12T06:52:38.999Z</time></trkpt><trkpt lat="43.66540949857851" lon="6.761395780523088"><ele>229.5</ele><time>2026-04-12T06:52:39.999Z</time></trkpt><trkpt lat="43.66549926489685" lon="6.761262584227078"><ele>229.0</ele><time>2026-04-12T06:52:40.999Z</time></trkpt><trkpt lat="43.66556992327172" lon="6.761124816115736"><ele>228.5</ele><time>2026-04-12T06:52:41.999Z</time></trkpt><trkpt lat="43.665629021694244" lon="6.760972074552183"><ele>228.0</ele><time>2026-04-12T06:52:42.999Z</time></trkpt><trkpt lat="43.66567927338345" lon="6.760827347191758"><ele>227.5</ele><time>2026-04-12T06:52:43.999Z</time></trkpt><trkpt lat="43.665758922460135" lon="6.760709392544947"><ele>227.0</ele><time>2026-04-12T06:52:44.999Z</time></trkpt><trkpt lat="43.66584427053684" lon="6.760611811421833"><ele>227.0</ele><time>2026-04-12T06:52:45.999Z</time></trkpt><trkpt lat="43.6659318259574" lon="6.760526718046084"><ele>227.0</ele><time>2026-04-12T06:52:46.999Z</time></trkpt><trkpt lat="43.666033392901106" lon="6.760464924580901"><ele>227.0</ele><time>2026-04-12T06:52:47.999Z</time></trkpt><trkpt lat="43.66614109791207" lon="6.760439511242912"><ele>227.0</ele><time>2026-04-12T06:52:48.999Z</time></trkpt><trkpt lat="43.66624657610259" lon="6.760445041415045"><ele>227.0</ele><time>2026-04-12T06:52:49.999Z</time></trkpt><trkpt lat="43.6663428303205" lon="6.7604754099918"><ele>228.33333333333334</ele><time>2026-04-12T06:52:50.999Z</time></trkpt><trkpt lat="43.6664294123038" lon="6.760506407456472"><ele>229.66666666666669</ele><time>2026-04-12T06:52:51.999Z</time></trkpt><trkpt lat="43.66651608216538" lon="6.760519725705375"><ele>231.0</ele><time>2026-04-12T06:52:52.999Z</time></trkpt><trkpt lat="43.666598006264" lon="6.760546684763328"><ele>232.33333333333331</ele><time>2026-04-12T06:52:53.999Z</time></trkpt><trkpt lat="43.66667994670876" lon="6.760555390655635"><ele>233.66666666666666</ele><time>2026-04-12T06:52:54.999Z</time></trkpt><trkpt lat="43.66675313762597" lon="6.760575152635007"><ele>235.0</ele><time>2026-04-12T06:52:55.999Z</time></trkpt><trkpt lat="43.66682423111231" lon="6.760590598234728"><ele>235.0</ele><time>2026-04-12T06:52:56.999Z</time></trkpt><trkpt lat="43.66689000243357" lon="6.760623324165138"><ele>235.0</ele><time>2026-04-12T06:52:57.999Z</time></trkpt><trkpt lat="43.667008489843155" lon="6.760650730681249"><ele>235.0</ele><time>2026-04-12T06:52:59.999Z</time></trkpt><trkpt lat="43.66703231997581" lon="6.760525797744388"><ele>235.0</ele><time>2026-04-12T06:53:01.999Z</time></trkpt><trkpt lat="43.666951275154595" lon="6.760413868597378"><ele>235.0</ele><time>2026-04-12T06:53:03.999Z</time></trkpt><trkpt lat="43.666858120936396" lon="6.760344925740113"><ele>235.0</ele><time>2026-04-12T06:53:05.999Z</time></trkpt><trkpt lat="43.666770640727584" lon="6.760273244288169"><ele>235.0</ele><time>2026-04-12T06:53:07.999Z</time></trkpt><trkpt lat="43.666663579606855" lon="6.760257330050551"><ele>235.0</ele><time>2026-04-12T06:53:10Z</time></trkpt><trkpt lat="43.666588209253675" lon="6.760250974452079"><ele>235.0</ele><time>2026-04-12T06:53:13Z</time></trkpt><trkpt lat="43.66650881042026" lon="6.760232641207915"><ele>235.0</ele><time>2026-04-12T06:53:15Z</time></trkpt><trkpt lat="43.66651926039637" lon="6.760116942481403"><ele>239.16666666666666</ele><time>2026-04-12T06:53:18Z</time></trkpt><trkpt lat="43.66661389102326" lon="6.760119559269316"><ele>243.33333333333331</ele><time>2026-04-12T06:53:22Z</time></trkpt><trkpt lat="43.666716334109644" lon="6.760111274125695"><ele>247.5</ele><time>2026-04-12T06:53:24Z</time></trkpt><trkpt lat="43.66678660714743" lon="6.760099759203572"><ele>251.66666666666669</ele><time>2026-04-12T06:53:26Z</time></trkpt><trkpt lat="43.66686689682049" lon="6.7600772389855095"><ele>255.83333333333334</ele><time>2026-04-12T06:53:28Z</time></trkpt><trkpt lat="43.666929869350405" lon="6.76011535101314"><ele>260.0</ele><time>2026-04-12T06:53:30Z</time></trkpt><trkpt lat="43.667031511623804" lon="6.760165883735171"><ele>258.1666666666667</ele><time>2026-04-12T06:53:33Z</time></trkpt><trkpt lat="43.66710127709892" lon="6.760211259034152"><ele>256.33333333333337</ele><time>2026-04-12T06:53:35Z</time></trkpt><trkpt lat="43.66716327424667" lon="6.760245940894455"><ele>254.5</ele><time>2026-04-12T06:53:37Z</time></trkpt><trkpt lat="43.66725835901167" lon="6.760280424676772"><ele>252.66666666666669</ele><time>2026-04-12T06:53:40Z</time></trkpt><trkpt lat="43.667317085766754" lon="6.760320096822697"><ele>250.83333333333334</ele><time>2026-04-12T06:53:42Z</time></trkpt><trkpt lat="43.667392912268504" lon="6.760342592379089"><ele>249.0</ele><time>2026-04-12T06:53:44Z</time></trkpt><trkpt lat="43.6674527567129" lon="6.760394441553649"><ele>249.0</ele><time>2026-04-12T06:53:46Z</time></trkpt><trkpt lat="43.66752544188011" lon="6.760454216074639"><ele>249.0</ele><time>2026-04-12T06:53:48Z</time></trkpt><trkpt lat="43.667609993644014" lon="6.760522069337005"><ele>249.0</ele><time>2026-04-12T06:53:51Z</time></trkpt><trkpt lat="43.66766998239035" lon="6.760576652153662"><ele>249.0</ele><time>2026-04-12T06:53:53Z</time></trkpt><trkpt lat="43.66773774789079" lon="6.760637074011558"><ele>249.0</ele><time>2026-04-12T06:53:55Z</time></trkpt><trkpt lat="43.66779747329977" lon="6.7607049584821866"><ele>249.0</ele><time>2026-04-12T06:53:57Z</time></trkpt><trkpt lat="43.66786479829415" lon="6.760767614522788"><ele>247.83333333333334</ele><time>2026-04-12T06:53:59Z</time></trkpt><trkpt lat="43.6679225146172" lon="6.760817488328647"><ele>246.66666666666669</ele><time>2026-04-12T06:54:01Z</time></trkpt><trkpt lat="43.667983667181964" lon="6.760882409623007"><ele>245.5</ele><time>2026-04-12T06:54:03Z</time></trkpt><trkpt lat="43.668055930955575" lon="6.76093693577635"><ele>244.33333333333334</ele><time>2026-04-12T06:54:05Z</time></trkpt><trkpt lat="43.66811784873929" lon="6.760967868030825"><ele>243.16666666666669</ele><time>2026-04-12T06:54:07Z</time></trkpt><trkpt lat="43.66818037715427" lon="6.7610401992626015"><ele>242.0</ele><time>2026-04-12T06:54:09Z</time></trkpt><trkpt lat="43.668249246879235" lon="6.761087400792654"><ele>242.00000000000003</ele><time>2026-04-12T06:54:11Z</time></trkpt><trkpt lat="43.66831790149759" lon="6.76112753346858"><ele>242.0</ele><time>2026-04-12T06:54:13Z</time></trkpt><trkpt lat="43.66838861137634" lon="6.761145836493057"><ele>242.0</ele><time>2026-04-12T06:54:15Z</time></trkpt><trkpt lat="43.66846843282273" lon="6.761149103575001"><ele>242.0</ele><time>2026-04-12T06:54:16.999Z</time></trkpt><trkpt lat="43.66853973226518" lon="6.76115270880648"><ele>242.00000000000003</ele><time>2026-04-12T06:54:18.999Z</time></trkpt><trkpt lat="43.668631168946185" lon="6.761149050610132"><ele>242.0</ele><time>2026-04-12T06:54:20.999Z</time></trkpt><trkpt lat="43.668728462449344" lon="6.761149699977517"><ele>243.14285714285714</ele><time>2026-04-12T06:54:23.999Z</time></trkpt><trkpt lat="43.66879795068695" lon="6.761146946650573"><ele>244.28571428571428</ele><time>2026-04-12T06:54:25.999Z</time></trkpt><trkpt lat="43.668872020458174" lon="6.7611497942376015"><ele>245.42857142857142</ele><time>2026-04-12T06:54:27.999Z</time></trkpt><trkpt lat="43.66894886292991" lon="6.76112984012584"><ele>246.57142857142856</ele><time>2026-04-12T06:54:29.999Z</time></trkpt><trkpt lat="43.66901595662766" lon="6.761102367559627"><ele>247.71428571428572</ele><time>2026-04-12T06:54:31.999Z</time></trkpt><trkpt lat="43.669087224767694" lon="6.761072252571558"><ele>248.85714285714283</ele><time>2026-04-12T06:54:33.999Z</time></trkpt><trkpt lat="43.66915869659962" lon="6.761040399890798"><ele>250.0</ele><time>2026-04-12T06:54:35.999Z</time></trkpt><trkpt lat="43.66923843426193" lon="6.761017313956772"><ele>250.57142857142856</ele><time>2026-04-12T06:54:37.999Z</time></trkpt><trkpt lat="43.66929470159436" lon="6.760971379591958"><ele>251.14285714285717</ele><time>2026-04-12T06:54:39.999Z</time></trkpt><trkpt lat="43.669350529459194" lon="6.760911972633166"><ele>251.71428571428572</ele><time>2026-04-12T06:54:41.999Z</time></trkpt><trkpt lat="43.66941181579662" lon="6.760843760273121"><ele>252.28571428571428</ele><time>2026-04-12T06:54:43.999Z</time></trkpt><trkpt lat="43.66947287233369" lon="6.760780613454096"><ele>252.85714285714283</ele><time>2026-04-12T06:54:45.999Z</time></trkpt><trkpt lat="43.66951629944479" lon="6.760710470380468"><ele>253.42857142857144</ele><time>2026-04-12T06:54:47.999Z</time></trkpt><trkpt lat="43.66956357370779" lon="6.760633280066162"><ele>254.0</ele><time>2026-04-12T06:54:49.999Z</time></trkpt><trkpt lat="43.669619671476234" lon="6.760566519715394"><ele>254.0</ele><time>2026-04-12T06:54:51.999Z</time></trkpt><trkpt lat="43.66968323214873" lon="6.760515158093568"><ele>254.0</ele><time>2026-04-12T06:54:53.999Z</time></trkpt><trkpt lat="43.66974292771139" lon="6.760460616269243"><ele>254.0</ele><time>2026-04-12T06:54:55.999Z</time></trkpt><trkpt lat="43.66980156142829" lon="6.760418975301632"><ele>254.0</ele><time>2026-04-12T06:54:57.999Z</time></trkpt><trkpt lat="43.66987385537668" lon="6.760406371205596"><ele>254.0</ele><time>2026-04-12T06:54:59.999Z</time></trkpt><trkpt lat="43.669936616096194" lon="6.760362358133105"><ele>254.0</ele><time>2026-04-12T06:55:01.999Z</time></trkpt><trkpt lat="43.66999228107688" lon="6.7603098368469405"><ele>254.0</ele><time>2026-04-12T06:55:03.999Z</time></trkpt><trkpt lat="43.670036112134866" lon="6.760243052637948"><ele>256.14285714285717</ele><time>2026-04-12T06:55:05.999Z</time></trkpt><trkpt lat="43.67009093442465" lon="6.760181725144161"><ele>258.2857142857143</ele><time>2026-04-12T06:55:07.999Z</time></trkpt><trkpt lat="43.67015782046956" lon="6.760152584343045"><ele>260.42857142857144</ele><time>2026-04-12T06:55:09.999Z</time></trkpt><trkpt lat="43.670225170948065" lon="6.76012295102129"><ele>262.57142857142856</ele><time>2026-04-12T06:55:11.999Z</time></trkpt><trkpt lat="43.6702929641033" lon="6.760100742661909"><ele>264.7142857142857</ele><time>2026-04-12T06:55:13.999Z</time></trkpt><trkpt lat="43.670368757225994" lon="6.760113420502426"><ele>266.8571428571429</ele><time>2026-04-12T06:55:16Z</time></trkpt><trkpt lat="43.67044286376142" lon="6.760112555403625"><ele>269.0</ele><time>2026-04-12T06:55:18Z</time></trkpt><trkpt lat="43.67051538516066" lon="6.7600874591328255"><ele>269.0</ele><time>2026-04-12T06:55:20Z</time></trkpt><trkpt lat="43.67057947166628" lon="6.760021486608066"><ele>269.0</ele><time>2026-04-12T06:55:22Z</time></trkpt><trkpt lat="43.67063207925072" lon="6.759944053945492"><ele>269.0</ele><time>2026-04-12T06:55:24Z</time></trkpt><trkpt lat="43.670690382774204" lon="6.759880026977557"><ele>269.0</ele><time>2026-04-12T06:55:26Z</time></trkpt><trkpt lat="43.67075399559472" lon="6.759817785801262"><ele>269.0</ele><time>2026-04-12T06:55:28Z</time></trkpt><trkpt lat="43.67081726859513" lon="6.759764532973197"><ele>269.0</ele><time>2026-04-12T06:55:30Z</time></trkpt><trkpt lat="43.67088355118459" lon="6.759712195402884"><ele>269.0</ele><time>2026-04-12T06:55:32Z</time></trkpt><trkpt lat="43.67095617444848" lon="6.759683419992875"><ele>269.0</ele><time>2026-04-12T06:55:34Z</time></trkpt><trkpt lat="43.67103620100258" lon="6.759669383037987"><ele>269.0</ele><time>2026-04-12T06:55:36Z</time></trkpt><trkpt lat="43.671107011084594" lon="6.759650203603881"><ele>269.0</ele><time>2026-04-12T06:55:38Z</time></trkpt><trkpt lat="43.671182368175096" lon="6.7596359663060275"><ele>269.0</ele><time>2026-04-12T06:55:40Z</time></trkpt><trkpt lat="43.671259567153754" lon="6.759636816811389"><ele>269.0</ele><time>2026-04-12T06:55:42Z</time></trkpt><trkpt lat="43.6713246172866" lon="6.759579921537005"><ele>268.5</ele><time>2026-04-12T06:55:44Z</time></trkpt><trkpt lat="43.67139490438161" lon="6.75955514761861"><ele>268.0</ele><time>2026-04-12T06:55:46Z</time></trkpt><trkpt lat="43.67146917732865" lon="6.759585431144221"><ele>267.5</ele><time>2026-04-12T06:55:48Z</time></trkpt><trkpt lat="43.67153720779848" lon="6.759619000089816"><ele>267.0</ele><time>2026-04-12T06:55:50Z</time></trkpt><trkpt lat="43.6716581534837" lon="6.75959152799631"><ele>266.5</ele><time>2026-04-12T06:55:54Z</time></trkpt><trkpt lat="43.67172861987311" lon="6.75957375019117"><ele>266.0</ele><time>2026-04-12T06:55:56Z</time></trkpt><trkpt lat="43.671803146444766" lon="6.759556998656734"><ele>266.0</ele><time>2026-04-12T06:55:58Z</time></trkpt><trkpt lat="43.671876936361684" lon="6.759548346831197"><ele>266.0</ele><time>2026-04-12T06:56:00Z</time></trkpt><trkpt lat="43.67195213495788" lon="6.75955923336509"><ele>266.0</ele><time>2026-04-12T06:56:02Z</time></trkpt><trkpt lat="43.67202447812988" lon="6.759562250180701"><ele>266.0</ele><time>2026-04-12T06:56:04Z</time></trkpt><trkpt lat="43.67210925825771" lon="6.759561762638439"><ele>266.0</ele><time>2026-04-12T06:56:07Z</time></trkpt><trkpt lat="43.67219210799458" lon="6.7595552383900674"><ele>266.0</ele><time>2026-04-12T06:56:10Z</time></trkpt><trkpt lat="43.67228001758798" lon="6.759554455037969"><ele>266.6666666666667</ele><time>2026-04-12T06:56:13Z</time></trkpt><trkpt lat="43.6723535594386" lon="6.7595567317225225"><ele>267.33333333333337</ele><time>2026-04-12T06:56:14Z</time></trkpt><trkpt lat="43.67244581040932" lon="6.759552792853927"><ele>268.0</ele><time>2026-04-12T06:56:16Z</time></trkpt><trkpt lat="43.672531194729636" lon="6.759556065775282"><ele>268.6666666666667</ele><time>2026-04-12T06:56:18Z</time></trkpt><trkpt lat="43.67261849035713" lon="6.759547984518801"><ele>269.3333333333333</ele><time>2026-04-12T06:56:20Z</time></trkpt><trkpt lat="43.672702068173415" lon="6.7595507830365635"><ele>270.0</ele><time>2026-04-12T06:56:22Z</time></trkpt><trkpt lat="43.67278122017957" lon="6.759545229120147"><ele>270.1666666666667</ele><time>2026-04-12T06:56:23.999Z</time></trkpt><trkpt lat="43.672862495460755" lon="6.75952537032855"><ele>270.3333333333333</ele><time>2026-04-12T06:56:25.999Z</time></trkpt><trkpt lat="43.67293243947877" lon="6.75947825881473"><ele>270.5</ele><time>2026-04-12T06:56:27.999Z</time></trkpt><trkpt lat="43.67299322378809" lon="6.759403151125476"><ele>270.66666666666663</ele><time>2026-04-12T06:56:29.999Z</time></trkpt><trkpt lat="43.67303369803619" lon="6.759315584261153"><ele>270.8333333333333</ele><time>2026-04-12T06:56:31.999Z</time></trkpt><trkpt lat="43.67307264949388" lon="6.75922930082515"><ele>271.0</ele><time>2026-04-12T06:56:33.999Z</time></trkpt><trkpt lat="43.67311300121011" lon="6.759143700861598"><ele>274.5</ele><time>2026-04-12T06:56:35.999Z</time></trkpt><trkpt lat="43.67316932682477" lon="6.759064188723437"><ele>278.0</ele><time>2026-04-12T06:56:37.999Z</time></trkpt><trkpt lat="43.67321396176285" lon="6.758982226341299"><ele>281.5</ele><time>2026-04-12T06:56:39.999Z</time></trkpt><trkpt lat="43.673277361416275" lon="6.758937525651004"><ele>285.0</ele><time>2026-04-12T06:56:41.999Z</time></trkpt><trkpt lat="43.67334275956114" lon="6.758895675838499"><ele>288.5</ele><time>2026-04-12T06:56:43.999Z</time></trkpt><trkpt lat="43.673398384523345" lon="6.758806482476739"><ele>292.0</ele><time>2026-04-12T06:56:45.999Z</time></trkpt><trkpt lat="43.67343892895361" lon="6.758724869410531"><ele>292.0</ele><time>2026-04-12T06:56:47.999Z</time></trkpt><trkpt lat="43.67347717897233" lon="6.7586468286348955"><ele>292.0</ele><time>2026-04-12T06:56:49.999Z</time></trkpt><trkpt lat="43.673540327326606" lon="6.75859156002103"><ele>292.0</ele><time>2026-04-12T06:56:51.999Z</time></trkpt><trkpt lat="43.6736164005694" lon="6.75859729059216"><ele>292.0</ele><time>2026-04-12T06:56:53.999Z</time></trkpt><trkpt lat="43.67368642966775" lon="6.758618985381328"><ele>292.0</ele><time>2026-04-12T06:56:55.999Z</time></trkpt><trkpt lat="43.67375588492585" lon="6.758634187333697"><ele>292.0</ele><time>2026-04-12T06:56:57.999Z</time></trkpt><trkpt lat="43.67382401506748" lon="6.758637646539665"><ele>292.0</ele><time>2026-04-12T06:56:59.999Z</time></trkpt><trkpt lat="43.67388850478837" lon="6.758634181447781"><ele>292.57142857142856</ele><time>2026-04-12T06:57:02.999Z</time></trkpt><trkpt lat="43.67395120587365" lon="6.7586209530509365"><ele>293.14285714285717</ele><time>2026-04-12T06:57:04.999Z</time></trkpt><trkpt lat="43.67402367637362" lon="6.758623585113918"><ele>293.7142857142857</ele><time>2026-04-12T06:57:07.999Z</time></trkpt><trkpt lat="43.674093871625466" lon="6.758658243546346"><ele>294.2857142857143</ele><time>2026-04-12T06:57:09.999Z</time></trkpt><trkpt lat="43.67415573276901" lon="6.758687509829785"><ele>294.85714285714283</ele><time>2026-04-12T06:57:10.999Z</time></trkpt><trkpt lat="43.67424406385306" lon="6.758747020400103"><ele>295.42857142857144</ele><time>2026-04-12T06:57:12.999Z</time></trkpt><trkpt lat="43.67429943480452" lon="6.758805687789114"><ele>296.0</ele><time>2026-04-12T06:57:14.999Z</time></trkpt><trkpt lat="43.6743464876865" lon="6.758897515969288"><ele>296.0</ele><time>2026-04-12T06:57:16.999Z</time></trkpt><trkpt lat="43.67440744130997" lon="6.758968516227721"><ele>296.0</ele><time>2026-04-12T06:57:18.999Z</time></trkpt><trkpt lat="43.674455804804744" lon="6.759042897079976"><ele>296.0</ele><time>2026-04-12T06:57:20.999Z</time></trkpt><trkpt lat="43.67451133967178" lon="6.759131010383306"><ele>296.0</ele><time>2026-04-12T06:57:23Z</time></trkpt><trkpt lat="43.67455370343254" lon="6.759216133752502"><ele>296.0</ele><time>2026-04-12T06:57:25Z</time></trkpt><trkpt lat="43.67458692550552" lon="6.759308151948712"><ele>296.0</ele><time>2026-04-12T06:57:27Z</time></trkpt><trkpt lat="43.674612973426214" lon="6.75941041442693"><ele>298.7142857142857</ele><time>2026-04-12T06:57:29Z</time></trkpt><trkpt lat="43.67463637938403" lon="6.759506296352108"><ele>301.42857142857144</ele><time>2026-04-12T06:57:31Z</time></trkpt><trkpt lat="43.67465708884922" lon="6.7596019171486805"><ele>304.1428571428571</ele><time>2026-04-12T06:57:33Z</time></trkpt><trkpt lat="43.67468426414594" lon="6.759688616156365"><ele>306.8571428571429</ele><time>2026-04-12T06:57:35Z</time></trkpt><trkpt lat="43.674724337284694" lon="6.75976717345584"><ele>309.57142857142856</ele><time>2026-04-12T06:57:37Z</time></trkpt><trkpt lat="43.67476311335904" lon="6.759855820142197"><ele>312.2857142857143</ele><time>2026-04-12T06:57:39Z</time></trkpt><trkpt lat="43.67480130582632" lon="6.759939814157873"><ele>315.0</ele><time>2026-04-12T06:57:41Z</time></trkpt><trkpt lat="43.67483775696015" lon="6.760024401765957"><ele>315.0</ele><time>2026-04-12T06:57:43Z</time></trkpt><trkpt lat="43.67487671132536" lon="6.760102393075986"><ele>315.0</ele><time>2026-04-12T06:57:45Z</time></trkpt><trkpt lat="43.674911171291924" lon="6.760186018045977"><ele>315.0</ele><time>2026-04-12T06:57:47Z</time></trkpt><trkpt lat="43.674954882907265" lon="6.760267707655238"><ele>315.0</ele><time>2026-04-12T06:57:49Z</time></trkpt><trkpt lat="43.675001102726085" lon="6.76033986574806"><ele>315.0</ele><time>2026-04-12T06:57:51Z</time></trkpt><trkpt lat="43.675055984900865" lon="6.76039749639146"><ele>315.0</ele><time>2026-04-12T06:57:53Z</time></trkpt><trkpt lat="43.675120348044295" lon="6.760406092925092"><ele>315.0</ele><time>2026-04-12T06:57:55Z</time></trkpt><trkpt lat="43.67518342417117" lon="6.760346999453407"><ele>312.6666666666667</ele><time>2026-04-12T06:57:57Z</time></trkpt><trkpt lat="43.675246645025645" lon="6.760280433509994"><ele>310.3333333333333</ele><time>2026-04-12T06:57:59Z</time></trkpt><trkpt lat="43.67531420113466" lon="6.760237388507298"><ele>308.0</ele><time>2026-04-12T06:58:01Z</time></trkpt><trkpt lat="43.67538298853994" lon="6.760201247719461"><ele>305.66666666666663</ele><time>2026-04-12T06:58:03Z</time></trkpt><trkpt lat="43.675454911533286" lon="6.760172575725864"><ele>303.3333333333333</ele><time>2026-04-12T06:58:05Z</time></trkpt><trkpt lat="43.67552722521418" lon="6.760152746936409"><ele>301.0</ele><time>2026-04-12T06:58:07Z</time></trkpt><trkpt lat="43.675602562891434" lon="6.760130849866583"><ele>307.5</ele><time>2026-04-12T06:58:09Z</time></trkpt><trkpt lat="43.675682005216075" lon="6.760136956592742"><ele>314.0</ele><time>2026-04-12T06:58:11Z</time></trkpt><trkpt lat="43.6757605478201" lon="6.760138262921335"><ele>320.5</ele><time>2026-04-12T06:58:13Z</time></trkpt><trkpt lat="43.67584103049383" lon="6.760152734404487"><ele>327.0</ele><time>2026-04-12T06:58:15Z</time></trkpt><trkpt lat="43.6759108838929" lon="6.7601577072398635"><ele>333.5</ele><time>2026-04-12T06:58:17Z</time></trkpt><trkpt lat="43.675994860756745" lon="6.7601761787036105"><ele>340.0</ele><time>2026-04-12T06:58:19Z</time></trkpt><trkpt lat="43.676069345049825" lon="6.7601798468110355"><ele>341.3333333333333</ele><time>2026-04-12T06:58:21Z</time></trkpt><trkpt lat="43.67614856350634" lon="6.76018872319675"><ele>342.66666666666663</ele><time>2026-04-12T06:58:23Z</time></trkpt><trkpt lat="43.676226563132104" lon="6.760195734317692"><ele>344.0</ele><time>2026-04-12T06:58:25Z</time></trkpt><trkpt lat="43.676301548518026" lon="6.760197096005241"><ele>345.3333333333333</ele><time>2026-04-12T06:58:27Z</time></trkpt><trkpt lat="43.67637697252228" lon="6.7602011415107315"><ele>346.6666666666667</ele><time>2026-04-12T06:58:28.999Z</time></trkpt><trkpt lat="43.67645151755522" lon="6.760210288434914"><ele>348.0</ele><time>2026-04-12T06:58:30.999Z</time></trkpt><trkpt lat="43.67652559706046" lon="6.7602234462687"><ele>344.6666666666667</ele><time>2026-04-12T06:58:32.999Z</time></trkpt><trkpt lat="43.67659908322952" lon="6.760236929777548"><ele>341.3333333333333</ele><time>2026-04-12T06:58:34.999Z</time></trkpt><trkpt lat="43.67667542159907" lon="6.760256169821698"><ele>338.0</ele><time>2026-04-12T06:58:36.999Z</time></trkpt><trkpt lat="43.67674472038925" lon="6.760264486567435"><ele>334.66666666666663</ele><time>2026-04-12T06:58:38.999Z</time></trkpt><trkpt lat="43.67681723261209" lon="6.760282753946993"><ele>331.3333333333333</ele><time>2026-04-12T06:58:40.999Z</time></trkpt><trkpt lat="43.67689513798148" lon="6.7603040584223155"><ele>328.0</ele><time>2026-04-12T06:58:42.999Z</time></trkpt><trkpt lat="43.67697355310011" lon="6.760334541776199"><ele>328.0</ele><time>2026-04-12T06:58:44.999Z</time></trkpt><trkpt lat="43.67704850456616" lon="6.7603721898489315"><ele>328.0</ele><time>2026-04-12T06:58:46.999Z</time></trkpt><trkpt lat="43.677126993244215" lon="6.760400430791371"><ele>328.0</ele><time>2026-04-12T06:58:48.999Z</time></trkpt><trkpt lat="43.67720647590974" lon="6.7604381032902685"><ele>328.0</ele><time>2026-04-12T06:58:50.999Z</time></trkpt><trkpt lat="43.67728631255961" lon="6.760441972434166"><ele>328.0</ele><time>2026-04-12T06:58:52.999Z</time></trkpt><trkpt lat="43.67733053905335" lon="6.760358280596339"><ele>328.0</ele><time>2026-04-12T06:58:54.999Z</time></trkpt><trkpt lat="43.6773054821937" lon="6.760259454630682"><ele>327.99999999999994</ele><time>2026-04-12T06:58:56.999Z</time></trkpt><trkpt lat="43.67722843876253" lon="6.760224824021318"><ele>328.0</ele><time>2026-04-12T06:58:58.999Z</time></trkpt><trkpt lat="43.677155632895726" lon="6.760226259544637"><ele>328.0</ele><time>2026-04-12T06:59:00.999Z</time></trkpt><trkpt lat="43.677088508054204" lon="6.760229126120593"><ele>328.0</ele><time>2026-04-12T06:59:02.999Z</time></trkpt><trkpt lat="43.67701232645069" lon="6.760212331491062"><ele>328.0</ele><time>2026-04-12T06:59:04.999Z</time></trkpt><trkpt lat="43.676944429955725" lon="6.760186240926099"><ele>327.99999999999994</ele><time>2026-04-12T06:59:06.999Z</time></trkpt><trkpt lat="43.676886803674826" lon="6.760144358084668"><ele>328.0</ele><time>2026-04-12T06:59:08.999Z</time></trkpt><trkpt lat="43.67682080892145" lon="6.760110418951059"><ele>330.85714285714283</ele><time>2026-04-12T06:59:10.999Z</time></trkpt><trkpt lat="43.67675433991298" lon="6.760073145320496"><ele>333.7142857142857</ele><time>2026-04-12T06:59:12.999Z</time></trkpt><trkpt lat="43.67668991253963" lon="6.760038666086203"><ele>336.57142857142856</ele><time>2026-04-12T06:59:14.999Z</time></trkpt><trkpt lat="43.6766282550569" lon="6.759996684323109"><ele>339.42857142857144</ele><time>2026-04-12T06:59:16.999Z</time></trkpt><trkpt lat="43.6765644731898" lon="6.759967597793752"><ele>342.2857142857143</ele><time>2026-04-12T06:59:18.999Z</time></trkpt><trkpt lat="43.676501026179366" lon="6.759927937303364"><ele>345.1428571428571</ele><time>2026-04-12T06:59:20.999Z</time></trkpt><trkpt lat="43.67644124951651" lon="6.759897725289695"><ele>348.0</ele><time>2026-04-12T06:59:22.999Z</time></trkpt><trkpt lat="43.67635283657711" lon="6.75985182901484"><ele>348.0</ele><time>2026-04-12T06:59:25.999Z</time></trkpt><trkpt lat="43.676291133153875" lon="6.75979869445899"><ele>348.0</ele><time>2026-04-12T06:59:28Z</time></trkpt><trkpt lat="43.676223478194345" lon="6.7597563190481615"><ele>348.0</ele><time>2026-04-12T06:59:31Z</time></trkpt><trkpt lat="43.67612802407702" lon="6.759727146693953"><ele>348.0</ele><time>2026-04-12T06:59:33Z</time></trkpt><trkpt lat="43.676054526764105" lon="6.7597294885308274"><ele>348.0</ele><time>2026-04-12T06:59:35Z</time></trkpt><trkpt lat="43.675988429958636" lon="6.759724725667207"><ele>348.0</ele><time>2026-04-12T06:59:38Z</time></trkpt><trkpt lat="43.67587869697993" lon="6.759713688636736"><ele>346.85714285714283</ele><time>2026-04-12T06:59:40Z</time></trkpt><trkpt lat="43.675803314214775" lon="6.759709613318567"><ele>345.7142857142857</ele><time>2026-04-12T06:59:42Z</time></trkpt><trkpt lat="43.67573165846911" lon="6.759708046101951"><ele>344.57142857142856</ele><time>2026-04-12T06:59:44Z</time></trkpt><trkpt lat="43.675657387891626" lon="6.759700381204951"><ele>343.42857142857144</ele><time>2026-04-12T06:59:46Z</time></trkpt><trkpt lat="43.67558353479749" lon="6.759700396201135"><ele>342.2857142857143</ele><time>2026-04-12T06:59:48Z</time></trkpt><trkpt lat="43.67550701937896" lon="6.7596918161270345"><ele>341.14285714285717</ele><time>2026-04-12T06:59:50Z</time></trkpt><trkpt lat="43.675435179619164" lon="6.759689619962427"><ele>340.0</ele><time>2026-04-12T06:59:52Z</time></trkpt><trkpt lat="43.675360195271764" lon="6.759647544152607"><ele>340.0</ele><time>2026-04-12T06:59:55Z</time></trkpt><trkpt lat="43.6752971531174" lon="6.759557265271022"><ele>340.0</ele><time>2026-04-12T06:59:58Z</time></trkpt><trkpt lat="43.67525530722294" lon="6.759444094179455"><ele>340.0</ele><time>2026-04-12T07:00:00Z</time></trkpt><trkpt lat="43.67523267300549" lon="6.759343941989875"><ele>340.0</ele><time>2026-04-12T07:00:02Z</time></trkpt><trkpt lat="43.675211413932004" lon="6.75925519948669"><ele>340.0</ele><time>2026-04-12T07:00:04Z</time></trkpt><trkpt lat="43.675197015666406" lon="6.75916287158698"><ele>340.0</ele><time>2026-04-12T07:00:06Z</time></trkpt><trkpt lat="43.67517426861164" lon="6.759075661364071"><ele>340.2857142857143</ele><time>2026-04-12T07:00:08Z</time></trkpt><trkpt lat="43.67515340319926" lon="6.758987971296769"><ele>340.57142857142856</ele><time>2026-04-12T07:00:10Z</time></trkpt><trkpt lat="43.67513273581433" lon="6.7588937955647275"><ele>340.85714285714283</ele><time>2026-04-12T07:00:12Z</time></trkpt><trkpt lat="43.67511219234787" lon="6.758798794527563"><ele>341.1428571428571</ele><time>2026-04-12T07:00:14Z</time></trkpt><trkpt lat="43.67509931905676" lon="6.758712526599114"><ele>341.42857142857144</ele><time>2026-04-12T07:00:17Z</time></trkpt><trkpt lat="43.67505884466731" lon="6.758604238694274"><ele>341.71428571428567</ele><time>2026-04-12T07:00:19Z</time></trkpt><trkpt lat="43.67502717094061" lon="6.758495394115292"><ele>342.0</ele><time>2026-04-12T07:00:21Z</time></trkpt><trkpt lat="43.67498926978032" lon="6.758418767073109"><ele>346.5</ele><time>2026-04-12T07:00:24Z</time></trkpt><trkpt lat="43.67494325410179" lon="6.758340386274772"><ele>351.0</ele><time>2026-04-12T07:00:26Z</time></trkpt><trkpt lat="43.67489352995836" lon="6.758227870341879"><ele>355.5</ele><time>2026-04-12T07:00:28Z</time></trkpt><trkpt lat="43.67484120637614" lon="6.7581321365436"><ele>360.0</ele><time>2026-04-12T07:00:30Z</time></trkpt><trkpt lat="43.67479510418944" lon="6.758040619271232"><ele>364.5</ele><time>2026-04-12T07:00:32Z</time></trkpt><trkpt lat="43.67474422006039" lon="6.757951803100993"><ele>369.0</ele><time>2026-04-12T07:00:33.999Z</time></trkpt><trkpt lat="43.67468489712684" lon="6.757881561228032"><ele>369.0</ele><time>2026-04-12T07:00:35.999Z</time></trkpt><trkpt lat="43.67462178362803" lon="6.757804046563138"><ele>369.0</ele><time>2026-04-12T07:00:37.999Z</time></trkpt><trkpt lat="43.67455083188514" lon="6.757741643851078"><ele>369.0</ele><time>2026-04-12T07:00:39.999Z</time></trkpt><trkpt lat="43.67448508644302" lon="6.757685728451965"><ele>369.0</ele><time>2026-04-12T07:00:41.999Z</time></trkpt><trkpt lat="43.67440826044977" lon="6.757647561203872"><ele>369.0</ele><time>2026-04-12T07:00:43.999Z</time></trkpt><trkpt lat="43.67432723652341" lon="6.757607657926923"><ele>369.0</ele><time>2026-04-12T07:00:45.999Z</time></trkpt><trkpt lat="43.67425887791842" lon="6.757577208476722"><ele>370.5</ele><time>2026-04-12T07:00:47.999Z</time></trkpt><trkpt lat="43.6741677942938" lon="6.757601273075343"><ele>372.0</ele><time>2026-04-12T07:00:49.999Z</time></trkpt><trkpt lat="43.67410837633204" lon="6.75767455021078"><ele>373.5</ele><time>2026-04-12T07:00:51.999Z</time></trkpt><trkpt lat="43.67404241517026" lon="6.757736790394046"><ele>375.0</ele><time>2026-04-12T07:00:53.999Z</time></trkpt><trkpt lat="43.67398225918264" lon="6.757800294294339"><ele>376.5</ele><time>2026-04-12T07:00:55.999Z</time></trkpt><trkpt lat="43.67391005080797" lon="6.7578130565861985"><ele>378.0</ele><time>2026-04-12T07:00:57.999Z</time></trkpt><trkpt lat="43.67385884806692" lon="6.757729762487112"><ele>378.0</ele><time>2026-04-12T07:00:59.999Z</time></trkpt><trkpt lat="43.67387350568936" lon="6.7576229440024855"><ele>378.0</ele><time>2026-04-12T07:01:01.999Z</time></trkpt><trkpt lat="43.67395463335782" lon="6.757557264914719"><ele>378.0</ele><time>2026-04-12T07:01:03.999Z</time></trkpt><trkpt lat="43.67403457578643" lon="6.757515869053757"><ele>378.0</ele><time>2026-04-12T07:01:05.999Z</time></trkpt><trkpt lat="43.6741113517458" lon="6.757471591112337"><ele>378.0</ele><time>2026-04-12T07:01:07.999Z</time></trkpt><trkpt lat="43.67418660690312" lon="6.757435378311612"><ele>378.0</ele><time>2026-04-12T07:01:09.999Z</time></trkpt><trkpt lat="43.67426667608201" lon="6.757419226399095"><ele>378.0</ele><time>2026-04-12T07:01:11.999Z</time></trkpt><trkpt lat="43.674346140093675" lon="6.757418526666355"><ele>378.0</ele><time>2026-04-12T07:01:13.999Z</time></trkpt><trkpt lat="43.6744281895222" lon="6.7574401287711305"><ele>378.0</ele><time>2026-04-12T07:01:15.999Z</time></trkpt><trkpt lat="43.67450895775724" lon="6.757463560392207"><ele>378.0</ele><time>2026-04-12T07:01:17.999Z</time></trkpt><trkpt lat="43.67459255452701" lon="6.757502789577725"><ele>378.0</ele><time>2026-04-12T07:01:19.999Z</time></trkpt><trkpt lat="43.67467505404119" lon="6.7575406742989355"><ele>378.0</ele><time>2026-04-12T07:01:21.999Z</time></trkpt><trkpt lat="43.67474781172385" lon="6.757584368375851"><ele>376.5</ele><time>2026-04-12T07:01:23.999Z</time></trkpt><trkpt lat="43.674823274494486" lon="6.757641949878822"><ele>375.0</ele><time>2026-04-12T07:01:25.999Z</time></trkpt><trkpt lat="43.67488714794763" lon="6.757710841216223"><ele>373.5</ele><time>2026-04-12T07:01:27.999Z</time></trkpt><trkpt lat="43.674959226255275" lon="6.757784013003996"><ele>372.0</ele><time>2026-04-12T07:01:29.999Z</time></trkpt><trkpt lat="43.675016676240716" lon="6.757858548057241"><ele>370.5</ele><time>2026-04-12T07:01:31.999Z</time></trkpt><trkpt lat="43.67509018527754" lon="6.757914227942182"><ele>369.0</ele><time>2026-04-12T07:01:34Z</time></trkpt><trkpt lat="43.67515094851168" lon="6.757983539035768"><ele>369.0</ele><time>2026-04-12T07:01:36Z</time></trkpt><trkpt lat="43.675214262803316" lon="6.758059141839077"><ele>369.0</ele><time>2026-04-12T07:01:38Z</time></trkpt><trkpt lat="43.67527386452974" lon="6.758136606191785"><ele>369.0</ele><time>2026-04-12T07:01:40Z</time></trkpt><trkpt lat="43.67533130985086" lon="6.758207132361228"><ele>369.0</ele><time>2026-04-12T07:01:42Z</time></trkpt><trkpt lat="43.67538066923208" lon="6.758289925235676"><ele>369.0</ele><time>2026-04-12T07:01:44Z</time></trkpt><trkpt lat="43.67542654383928" lon="6.7583878581753325"><ele>369.0</ele><time>2026-04-12T07:01:46Z</time></trkpt><trkpt lat="43.67546954424597" lon="6.758485647385189"><ele>370.6666666666667</ele><time>2026-04-12T07:01:48Z</time></trkpt><trkpt lat="43.67551150138751" lon="6.758578535390169"><ele>372.3333333333333</ele><time>2026-04-12T07:01:50Z</time></trkpt><trkpt lat="43.675559534103655" lon="6.758678395697399"><ele>374.0</ele><time>2026-04-12T07:01:52Z</time></trkpt><trkpt lat="43.67561995570335" lon="6.758756258711409"><ele>375.66666666666663</ele><time>2026-04-12T07:01:54Z</time></trkpt><trkpt lat="43.67567209392246" lon="6.758805122589011"><ele>377.3333333333333</ele><time>2026-04-12T07:01:56Z</time></trkpt><trkpt lat="43.67574983800215" lon="6.758842230579272"><ele>379.0</ele><time>2026-04-12T07:01:58Z</time></trkpt><trkpt lat="43.6758391474245" lon="6.758847769007593"><ele>379.0</ele><time>2026-04-12T07:02:00Z</time></trkpt><trkpt lat="43.67591497811278" lon="6.758839942704124"><ele>379.0</ele><time>2026-04-12T07:02:02Z</time></trkpt><trkpt lat="43.67599623210453" lon="6.7588466931313125"><ele>379.0</ele><time>2026-04-12T07:02:04Z</time></trkpt><trkpt lat="43.6760592635439" lon="6.7588543616322605"><ele>379.0</ele><time>2026-04-12T07:02:07Z</time></trkpt><trkpt lat="43.6761508102701" lon="6.758855706826961"><ele>379.0</ele><time>2026-04-12T07:02:09Z</time></trkpt><trkpt lat="43.67623395003259" lon="6.758863153888825"><ele>379.0</ele><time>2026-04-12T07:02:11Z</time></trkpt><trkpt lat="43.67630732610648" lon="6.758858153963067"><ele>381.3333333333333</ele><time>2026-04-12T07:02:13Z</time></trkpt><trkpt lat="43.67637682243633" lon="6.7588628076111466"><ele>383.66666666666663</ele><time>2026-04-12T07:02:15Z</time></trkpt><trkpt lat="43.6764851855811" lon="6.7588462021009565"><ele>386.0</ele><time>2026-04-12T07:02:18Z</time></trkpt><trkpt lat="43.676550867011535" lon="6.758843010825899"><ele>388.3333333333333</ele><time>2026-04-12T07:02:19Z</time></trkpt><trkpt lat="43.676620187182294" lon="6.7588327859740565"><ele>390.6666666666667</ele><time>2026-04-12T07:02:21Z</time></trkpt><trkpt lat="43.67671055225146" lon="6.758861161474866"><ele>393.0</ele><time>2026-04-12T07:02:24Z</time></trkpt><trkpt lat="43.676815856396026" lon="6.758910249216603"><ele>393.0</ele><time>2026-04-12T07:02:26Z</time></trkpt><trkpt lat="43.6768999766183" lon="6.758962905876189"><ele>393.0</ele><time>2026-04-12T07:02:28Z</time></trkpt><trkpt lat="43.67697885020632" lon="6.7590091247871795"><ele>393.0</ele><time>2026-04-12T07:02:30Z</time></trkpt><trkpt lat="43.6770576648145" lon="6.759040420032439"><ele>393.0</ele><time>2026-04-12T07:02:32Z</time></trkpt><trkpt lat="43.67712392914343" lon="6.759058605264358"><ele>393.0</ele><time>2026-04-12T07:02:35Z</time></trkpt><trkpt lat="43.677201957069705" lon="6.759076828373868"><ele>393.0</ele><time>2026-04-12T07:02:36Z</time></trkpt><trkpt lat="43.67726956912723" lon="6.759087422141961"><ele>395.2</ele><time>2026-04-12T07:02:38Z</time></trkpt><trkpt lat="43.67733546823966" lon="6.759099941274417"><ele>397.4</ele><time>2026-04-12T07:02:39.999Z</time></trkpt><trkpt lat="43.677430771007" lon="6.7590996024268275"><ele>399.59999999999997</ele><time>2026-04-12T07:02:41.999Z</time></trkpt><trkpt lat="43.677566253453925" lon="6.759124589127204"><ele>401.79999999999995</ele><time>2026-04-12T07:02:44.999Z</time></trkpt><trkpt lat="43.67766116839654" lon="6.759131286573338"><ele>404.0</ele><time>2026-04-12T07:02:46.999Z</time></trkpt><trkpt lat="43.677749011739095" lon="6.759132295990799"><ele>404.6</ele><time>2026-04-12T07:02:48.999Z</time></trkpt><trkpt lat="43.67784670179934" lon="6.759133678351294"><ele>405.2</ele><time>2026-04-12T07:02:51.999Z</time></trkpt><trkpt lat="43.677941635353704" lon="6.7591152724807255"><ele>405.8</ele><time>2026-04-12T07:02:53.999Z</time></trkpt><trkpt lat="43.6780065641031" lon="6.759075839314038"><ele>406.40000000000003</ele><time>2026-04-12T07:02:55.999Z</time></trkpt><trkpt lat="43.678065462826346" lon="6.758988238069395"><ele>407.0</ele><time>2026-04-12T07:02:58.999Z</time></trkpt><trkpt lat="43.678191881546056" lon="6.758941075382141"><ele>406.99999999999994</ele><time>2026-04-12T07:03:01.999Z</time></trkpt><trkpt lat="43.67825242285094" lon="6.758906034481665"><ele>407.0</ele><time>2026-04-12T07:03:02.999Z</time></trkpt><trkpt lat="43.67833461417096" lon="6.758879774618117"><ele>407.0</ele><time>2026-04-12T07:03:04.999Z</time></trkpt><trkpt lat="43.6784254081018" lon="6.758865822025314"><ele>407.0</ele><time>2026-04-12T07:03:06.999Z</time></trkpt><trkpt lat="43.67851975323626" lon="6.758841277717905"><ele>406.99999999999994</ele><time>2026-04-12T07:03:08.999Z</time></trkpt><trkpt lat="43.67860623170699" lon="6.758832604358138"><ele>407.0</ele><time>2026-04-12T07:03:10.999Z</time></trkpt><trkpt lat="43.67869287879853" lon="6.758810512669509"><ele>404.49999999999994</ele><time>2026-04-12T07:03:12.999Z</time></trkpt><trkpt lat="43.67877242092973" lon="6.75877884017555"><ele>402.0</ele><time>2026-04-12T07:03:14.999Z</time></trkpt><trkpt lat="43.678847895107396" lon="6.758752504783267"><ele>399.5</ele><time>2026-04-12T07:03:16.999Z</time></trkpt><trkpt lat="43.67892450871769" lon="6.758716619583008"><ele>397.0</ele><time>2026-04-12T07:03:18.999Z</time></trkpt><trkpt lat="43.678993401268386" lon="6.758658731909005"><ele>394.49999999999994</ele><time>2026-04-12T07:03:20.999Z</time></trkpt><trkpt lat="43.67906149002746" lon="6.758603508547887"><ele>392.0</ele><time>2026-04-12T07:03:22.999Z</time></trkpt><trkpt lat="43.679129201502406" lon="6.7585436263526395"><ele>395.8333333333333</ele><time>2026-04-12T07:03:24.999Z</time></trkpt><trkpt lat="43.679187958476355" lon="6.758475588377967"><ele>399.66666666666663</ele><time>2026-04-12T07:03:26.999Z</time></trkpt><trkpt lat="43.67924479040029" lon="6.758405535229027"><ele>403.5</ele><time>2026-04-12T07:03:28.999Z</time></trkpt><trkpt lat="43.67930097121726" lon="6.758340858647315"><ele>407.33333333333337</ele><time>2026-04-12T07:03:30.999Z</time></trkpt><trkpt lat="43.67936124080055" lon="6.758270356908874"><ele>411.1666666666667</ele><time>2026-04-12T07:03:32.999Z</time></trkpt><trkpt lat="43.67943356874486" lon="6.758223455819169"><ele>415.0</ele><time>2026-04-12T07:03:34.999Z</time></trkpt><trkpt lat="43.67951657748688" lon="6.758196651276377"><ele>415.00000000000006</ele><time>2026-04-12T07:03:36.999Z</time></trkpt><trkpt lat="43.679593842594834" lon="6.758188703118609"><ele>415.0</ele><time>2026-04-12T07:03:38.999Z</time></trkpt><trkpt lat="43.67967921721983" lon="6.758182735815044"><ele>415.0</ele><time>2026-04-12T07:03:41Z</time></trkpt><trkpt lat="43.679763283879986" lon="6.758172711443079"><ele>415.0</ele><time>2026-04-12T07:03:43Z</time></trkpt><trkpt lat="43.67984879780282" lon="6.758164825000173"><ele>415.00000000000006</ele><time>2026-04-12T07:03:46Z</time></trkpt><trkpt lat="43.67993942785033" lon="6.75815337193818"><ele>415.0</ele><time>2026-04-12T07:03:48Z</time></trkpt><trkpt lat="43.68000324831487" lon="6.758128246385749"><ele>415.00000000000006</ele><time>2026-04-12T07:03:51Z</time></trkpt><trkpt lat="43.68007675329029" lon="6.758089760533961"><ele>415.0</ele><time>2026-04-12T07:03:52Z</time></trkpt><trkpt lat="43.68013366707316" lon="6.758034094620741"><ele>415.0</ele><time>2026-04-12T07:03:54Z</time></trkpt><trkpt lat="43.68019543355373" lon="6.757937370839489"><ele>415.0</ele><time>2026-04-12T07:03:57Z</time></trkpt><trkpt lat="43.68024021222526" lon="6.757826674522281"><ele>415.00000000000006</ele><time>2026-04-12T07:03:59Z</time></trkpt><trkpt lat="43.68027517896777" lon="6.757744345231417"><ele>415.0</ele><time>2026-04-12T07:04:01Z</time></trkpt><trkpt lat="43.680301616188" lon="6.757660727443036"><ele>414.8</ele><time>2026-04-12T07:04:03Z</time></trkpt><trkpt lat="43.680335955093064" lon="6.75752064136511"><ele>414.6</ele><time>2026-04-12T07:04:05Z</time></trkpt><trkpt lat="43.680354401194464" lon="6.7574133921682735"><ele>414.4</ele><time>2026-04-12T07:04:07Z</time></trkpt><trkpt lat="43.68036225158532" lon="6.757297416202306"><ele>414.2</ele><time>2026-04-12T07:04:09Z</time></trkpt><trkpt lat="43.680377699143186" lon="6.757152141513039"><ele>414.0</ele><time>2026-04-12T07:04:12Z</time></trkpt><trkpt lat="43.68039354748443" lon="6.757049435455618"><ele>414.0</ele><time>2026-04-12T07:04:14Z</time></trkpt><trkpt lat="43.680395665747085" lon="6.756941459338472"><ele>414.0</ele><time>2026-04-12T07:04:16Z</time></trkpt><trkpt lat="43.68040813908124" lon="6.756767928529172"><ele>414.0</ele><time>2026-04-12T07:04:19Z</time></trkpt><trkpt lat="43.680407721223396" lon="6.756644098157507"><ele>414.0</ele><time>2026-04-12T07:04:21Z</time></trkpt><trkpt lat="43.68041738641635" lon="6.756552293415176"><ele>414.0</ele><time>2026-04-12T07:04:23Z</time></trkpt><trkpt lat="43.68041471363851" lon="6.756439788238598"><ele>414.0</ele><time>2026-04-12T07:04:25Z</time></trkpt><trkpt lat="43.68042807097731" lon="6.756338395095208"><ele>414.5</ele><time>2026-04-12T07:04:27Z</time></trkpt><trkpt lat="43.680425962817495" lon="6.756226600536332"><ele>415.0</ele><time>2026-04-12T07:04:29Z</time></trkpt><trkpt lat="43.68042754979852" lon="6.756104430880399"><ele>415.5</ele><time>2026-04-12T07:04:31Z</time></trkpt><trkpt lat="43.680442201727814" lon="6.755978632958685"><ele>416.0</ele><time>2026-04-12T07:04:33Z</time></trkpt><trkpt lat="43.68043279292819" lon="6.7558441473314375"><ele>416.5</ele><time>2026-04-12T07:04:35Z</time></trkpt><trkpt lat="43.680446318266966" lon="6.755747904245312"><ele>417.0</ele><time>2026-04-12T07:04:37Z</time></trkpt><trkpt lat="43.68045382970057" lon="6.755619256613102"><ele>418.0</ele><time>2026-04-12T07:04:39Z</time></trkpt><trkpt lat="43.68045587672882" lon="6.7555028781458235"><ele>419.0</ele><time>2026-04-12T07:04:40Z</time></trkpt><trkpt lat="43.68044804199991" lon="6.755385335990048"><ele>420.0</ele><time>2026-04-12T07:04:42Z</time></trkpt><trkpt lat="43.68042818205149" lon="6.755267057557898"><ele>421.0</ele><time>2026-04-12T07:04:44Z</time></trkpt><trkpt lat="43.68039266402123" lon="6.755154736005282"><ele>422.0</ele><time>2026-04-12T07:04:46Z</time></trkpt><trkpt lat="43.68034609006889" lon="6.755062572218342"><ele>423.0</ele><time>2026-04-12T07:04:47.999Z</time></trkpt><trkpt lat="43.680307803932386" lon="6.75496805165474"><ele>428.6666666666667</ele><time>2026-04-12T07:04:49.999Z</time></trkpt><trkpt lat="43.68026376367378" lon="6.754874721498163"><ele>434.33333333333337</ele><time>2026-04-12T07:04:51.999Z</time></trkpt><trkpt lat="43.680215168173646" lon="6.754790324189362"><ele>440.0</ele><time>2026-04-12T07:04:53.999Z</time></trkpt><trkpt lat="43.68017025922377" lon="6.754704738012999"><ele>445.6666666666667</ele><time>2026-04-12T07:04:55.999Z</time></trkpt><trkpt lat="43.68013043216365" lon="6.7546180356931576"><ele>451.33333333333337</ele><time>2026-04-12T07:04:57.999Z</time></trkpt><trkpt lat="43.680102795253354" lon="6.754512470119097"><ele>457.0</ele><time>2026-04-12T07:04:59.999Z</time></trkpt><trkpt lat="43.68007235757208" lon="6.754405225317772"><ele>457.0</ele><time>2026-04-12T07:05:01.999Z</time></trkpt><trkpt lat="43.68005370603865" lon="6.754301910142628"><ele>457.00000000000006</ele><time>2026-04-12T07:05:03.999Z</time></trkpt><trkpt lat="43.68004011540303" lon="6.754191666608422"><ele>457.00000000000006</ele><time>2026-04-12T07:05:05.999Z</time></trkpt><trkpt lat="43.68005481648822" lon="6.7540428304058855"><ele>457.0</ele><time>2026-04-12T07:05:08.999Z</time></trkpt><trkpt lat="43.68007131870257" lon="6.753869477667286"><ele>457.0</ele><time>2026-04-12T07:05:11.999Z</time></trkpt><trkpt lat="43.6800754709467" lon="6.753770218745294"><ele>457.00000000000006</ele><time>2026-04-12T07:05:12.999Z</time></trkpt><trkpt lat="43.68009881661166" lon="6.75366482426612"><ele>457.0</ele><time>2026-04-12T07:05:14.999Z</time></trkpt><trkpt lat="43.680132837622835" lon="6.753567622480108"><ele>457.0</ele><time>2026-04-12T07:05:16.999Z</time></trkpt><trkpt lat="43.68017168030156" lon="6.753472440293689"><ele>457.0</ele><time>2026-04-12T07:05:18.999Z</time></trkpt><trkpt lat="43.680212592205486" lon="6.7533800146001814"><ele>457.00000000000006</ele><time>2026-04-12T07:05:20.999Z</time></trkpt><trkpt lat="43.68025736273494" lon="6.753291985546163"><ele>457.0</ele><time>2026-04-12T07:05:22.999Z</time></trkpt><trkpt lat="43.680293328996704" lon="6.753202490596494"><ele>457.50000000000006</ele><time>2026-04-12T07:05:24.999Z</time></trkpt><trkpt lat="43.6803241520815" lon="6.753106026085915"><ele>458.0</ele><time>2026-04-12T07:05:26.999Z</time></trkpt><trkpt lat="43.68034055084616" lon="6.7529995985168245"><ele>458.5</ele><time>2026-04-12T07:05:28.999Z</time></trkpt><trkpt lat="43.68034875138729" lon="6.752886440688442"><ele>459.0</ele><time>2026-04-12T07:05:30.999Z</time></trkpt><trkpt lat="43.680347472106796" lon="6.752784172987413"><ele>459.50000000000006</ele><time>2026-04-12T07:05:32.999Z</time></trkpt><trkpt lat="43.680319624779216" lon="6.75265036255178"><ele>460.0</ele><time>2026-04-12T07:05:35.999Z</time></trkpt><trkpt lat="43.68030175373221" lon="6.752551469335227"><ele>461.71428571428567</ele><time>2026-04-12T07:05:37.999Z</time></trkpt><trkpt lat="43.68026912389101" lon="6.752459024235796"><ele>463.42857142857144</ele><time>2026-04-12T07:05:39.999Z</time></trkpt><trkpt lat="43.68025730807616" lon="6.752342000706069"><ele>465.1428571428571</ele><time>2026-04-12T07:05:41.999Z</time></trkpt><trkpt lat="43.68025884957505" lon="6.752239757393619"><ele>466.85714285714283</ele><time>2026-04-12T07:05:43.999Z</time></trkpt><trkpt lat="43.68023876950869" lon="6.752145135968963"><ele>468.57142857142856</ele><time>2026-04-12T07:05:46Z</time></trkpt><trkpt lat="43.68022514576794" lon="6.752049589833357"><ele>470.2857142857143</ele><time>2026-04-12T07:05:48Z</time></trkpt><trkpt lat="43.68020723340337" lon="6.751953756427757"><ele>472.0</ele><time>2026-04-12T07:05:50Z</time></trkpt><trkpt lat="43.68018540826561" lon="6.751860406730959"><ele>472.0</ele><time>2026-04-12T07:05:52Z</time></trkpt><trkpt lat="43.68015345369118" lon="6.7517690647808655"><ele>472.0</ele><time>2026-04-12T07:05:54Z</time></trkpt><trkpt lat="43.6801163311971" lon="6.75168487378079"><ele>472.0</ele><time>2026-04-12T07:05:56Z</time></trkpt><trkpt lat="43.68006607151802" lon="6.751618871945924"><ele>472.0</ele><time>2026-04-12T07:05:58Z</time></trkpt><trkpt lat="43.68000857618418" lon="6.751562020831521"><ele>472.0</ele><time>2026-04-12T07:06:00Z</time></trkpt><trkpt lat="43.67995256779771" lon="6.751505872530123"><ele>472.0</ele><time>2026-04-12T07:06:02Z</time></trkpt><trkpt lat="43.679908176518396" lon="6.7514410931469175"><ele>472.0</ele><time>2026-04-12T07:06:04Z</time></trkpt><trkpt lat="43.679845004794025" lon="6.751384140911636"><ele>472.00000000000006</ele><time>2026-04-12T07:06:06Z</time></trkpt><trkpt lat="43.67977626178935" lon="6.751332465084754"><ele>472.0</ele><time>2026-04-12T07:06:08Z</time></trkpt><trkpt lat="43.67969092831534" lon="6.7512062545570535"><ele>472.0</ele><time>2026-04-12T07:06:12Z</time></trkpt><trkpt lat="43.679651921464114" lon="6.751136394554174"><ele>472.0</ele><time>2026-04-12T07:06:15Z</time></trkpt><trkpt lat="43.67960752707265" lon="6.751059858995403"><ele>472.00000000000006</ele><time>2026-04-12T07:06:16Z</time></trkpt><trkpt lat="43.67956868722553" lon="6.750973157946286"><ele>472.0</ele><time>2026-04-12T07:06:18Z</time></trkpt><trkpt lat="43.6795363497874" lon="6.750870623342186"><ele>473.00000000000006</ele><time>2026-04-12T07:06:20Z</time></trkpt><trkpt lat="43.67951490053881" lon="6.750769264899218"><ele>474.0</ele><time>2026-04-12T07:06:22Z</time></trkpt><trkpt lat="43.67949684253291" lon="6.7506530649083025"><ele>475.0</ele><time>2026-04-12T07:06:24Z</time></trkpt><trkpt lat="43.67948330093227" lon="6.750526064843271"><ele>476.0</ele><time>2026-04-12T07:06:26Z</time></trkpt><trkpt lat="43.679474194991975" lon="6.750414144391743"><ele>477.00000000000006</ele><time>2026-04-12T07:06:28Z</time></trkpt><trkpt lat="43.67947252211334" lon="6.750308869869938"><ele>478.0</ele><time>2026-04-12T07:06:31Z</time></trkpt><trkpt lat="43.67947392314354" lon="6.750211391733513"><ele>479.0</ele><time>2026-04-12T07:06:32Z</time></trkpt><trkpt lat="43.67948406601701" lon="6.750106369351371"><ele>479.99999999999994</ele><time>2026-04-12T07:06:34Z</time></trkpt><trkpt lat="43.67950918021872" lon="6.749998385940147"><ele>480.99999999999994</ele><time>2026-04-12T07:06:36Z</time></trkpt><trkpt lat="43.67954550229286" lon="6.749902687812647"><ele>482.0</ele><time>2026-04-12T07:06:38Z</time></trkpt><trkpt lat="43.679581328293466" lon="6.74979700047103"><ele>483.0</ele><time>2026-04-12T07:06:41Z</time></trkpt><trkpt lat="43.67965594061903" lon="6.749639546435117"><ele>483.0</ele><time>2026-04-12T07:06:43Z</time></trkpt><trkpt lat="43.67970562848552" lon="6.749552573033317"><ele>483.0</ele><time>2026-04-12T07:06:45Z</time></trkpt><trkpt lat="43.679752236448735" lon="6.7494642948963515"><ele>483.0</ele><time>2026-04-12T07:06:47Z</time></trkpt><trkpt lat="43.67978911099534" lon="6.749377190274079"><ele>483.0</ele><time>2026-04-12T07:06:49Z</time></trkpt><trkpt lat="43.67980560766638" lon="6.749277928231333"><ele>483.0</ele><time>2026-04-12T07:06:51Z</time></trkpt><trkpt lat="43.67979583283408" lon="6.7491696377558235"><ele>483.0</ele><time>2026-04-12T07:06:53Z</time></trkpt><trkpt lat="43.67976189566561" lon="6.749076939326262"><ele>483.42857142857144</ele><time>2026-04-12T07:06:54.999Z</time></trkpt><trkpt lat="43.67970821157555" lon="6.7489988186052345"><ele>483.8571428571429</ele><time>2026-04-12T07:06:56.999Z</time></trkpt><trkpt lat="43.67965734942012" lon="6.7489236074326"><ele>484.2857142857143</ele><time>2026-04-12T07:06:58.999Z</time></trkpt><trkpt lat="43.679610230942906" lon="6.748841037436423"><ele>484.7142857142857</ele><time>2026-04-12T07:07:00.999Z</time></trkpt><trkpt lat="43.679562012840634" lon="6.748762692477805"><ele>485.14285714285717</ele><time>2026-04-12T07:07:02.999Z</time></trkpt><trkpt lat="43.67952437189667" lon="6.7486793059972"><ele>485.57142857142856</ele><time>2026-04-12T07:07:04.999Z</time></trkpt><trkpt lat="43.67948571077108" lon="6.74859491493952"><ele>486.0</ele><time>2026-04-12T07:07:06.999Z</time></trkpt><trkpt lat="43.6794524421826" lon="6.748505009421533"><ele>487.1428571428571</ele><time>2026-04-12T07:07:08.999Z</time></trkpt><trkpt lat="43.67942096536251" lon="6.748416679817205"><ele>488.28571428571433</ele><time>2026-04-12T07:07:10.999Z</time></trkpt><trkpt lat="43.67938120120621" lon="6.748328793773421"><ele>489.42857142857144</ele><time>2026-04-12T07:07:12.999Z</time></trkpt><trkpt lat="43.67936205862553" lon="6.748231446591214"><ele>490.57142857142856</ele><time>2026-04-12T07:07:14.999Z</time></trkpt><trkpt lat="43.67935259296666" lon="6.748114716502743"><ele>491.71428571428567</ele><time>2026-04-12T07:07:16.999Z</time></trkpt><trkpt lat="43.67935771183786" lon="6.74802042058623"><ele>492.8571428571429</ele><time>2026-04-12T07:07:18.999Z</time></trkpt><trkpt lat="43.67936682351748" lon="6.747922794120937"><ele>494.0</ele><time>2026-04-12T07:07:20.999Z</time></trkpt><trkpt lat="43.679381251777315" lon="6.7478231913097755"><ele>494.0</ele><time>2026-04-12T07:07:22.999Z</time></trkpt><trkpt lat="43.67938339037421" lon="6.747728032815927"><ele>494.0</ele><time>2026-04-12T07:07:24.999Z</time></trkpt><trkpt lat="43.679386756942904" lon="6.7476282190532935"><ele>494.0</ele><time>2026-04-12T07:07:26.999Z</time></trkpt><trkpt lat="43.67938126246174" lon="6.747523973598138"><ele>494.0</ele><time>2026-04-12T07:07:28.999Z</time></trkpt><trkpt lat="43.679344147919046" lon="6.747441800796351"><ele>494.0</ele><time>2026-04-12T07:07:30.999Z</time></trkpt><trkpt lat="43.67928870898871" lon="6.747378720269552"><ele>494.0</ele><time>2026-04-12T07:07:32.999Z</time></trkpt><trkpt lat="43.679228125823734" lon="6.747316060968159"><ele>494.0</ele><time>2026-04-12T07:07:34.999Z</time></trkpt><trkpt lat="43.679153664537964" lon="6.747257655255515"><ele>494.3333333333333</ele><time>2026-04-12T07:07:36.999Z</time></trkpt><trkpt lat="43.67908800607445" lon="6.7472188427658315"><ele>494.66666666666663</ele><time>2026-04-12T07:07:38.999Z</time></trkpt><trkpt lat="43.67901962963573" lon="6.747166721371575"><ele>495.0</ele><time>2026-04-12T07:07:40.999Z</time></trkpt><trkpt lat="43.67895046178971" lon="6.747124899829778"><ele>495.33333333333337</ele><time>2026-04-12T07:07:42.999Z</time></trkpt><trkpt lat="43.6788931714768" lon="6.747061032188977"><ele>495.6666666666667</ele><time>2026-04-12T07:07:44.999Z</time></trkpt><trkpt lat="43.678788381755766" lon="6.746966872245308"><ele>496.0</ele><time>2026-04-12T07:07:48.999Z</time></trkpt><trkpt lat="43.67872229714181" lon="6.746915319751525"><ele>496.8571428571429</ele><time>2026-04-12T07:07:52Z</time></trkpt><trkpt lat="43.678657824209964" lon="6.746871422600536"><ele>497.7142857142858</ele><time>2026-04-12T07:07:53Z</time></trkpt><trkpt lat="43.6785959841124" lon="6.7468295964913585"><ele>498.57142857142856</ele><time>2026-04-12T07:07:55Z</time></trkpt><trkpt lat="43.678521191922066" lon="6.746777159995213"><ele>499.42857142857144</ele><time>2026-04-12T07:07:57Z</time></trkpt><trkpt lat="43.678457328720924" lon="6.746754078012378"><ele>500.2857142857143</ele><time>2026-04-12T07:08:00Z</time></trkpt><trkpt lat="43.6783912196273" lon="6.7467315825644585"><ele>501.1428571428571</ele><time>2026-04-12T07:08:01Z</time></trkpt><trkpt lat="43.678311753594464" lon="6.746723535405406"><ele>501.99999999999994</ele><time>2026-04-12T07:08:03Z</time></trkpt><trkpt lat="43.678243203676196" lon="6.746716992418195"><ele>502.83333333333337</ele><time>2026-04-12T07:08:06Z</time></trkpt><trkpt lat="43.678142288350216" lon="6.746714917760265"><ele>503.6666666666667</ele><time>2026-04-12T07:08:08Z</time></trkpt><trkpt lat="43.6780719293646" lon="6.746714310076116"><ele>504.5</ele><time>2026-04-12T07:08:10Z</time></trkpt><trkpt lat="43.67797404680009" lon="6.746702455212495"><ele>505.33333333333337</ele><time>2026-04-12T07:08:13Z</time></trkpt><trkpt lat="43.67788872366393" lon="6.746689738681977"><ele>506.1666666666667</ele><time>2026-04-12T07:08:16Z</time></trkpt><trkpt lat="43.677797952775386" lon="6.746670354185883"><ele>507.0</ele><time>2026-04-12T07:08:18Z</time></trkpt><trkpt lat="43.67770085019082" lon="6.746630424526059"><ele>508.25</ele><time>2026-04-12T07:08:21Z</time></trkpt><trkpt lat="43.67763992608916" lon="6.746601589248858"><ele>509.5</ele><time>2026-04-12T07:08:23Z</time></trkpt><trkpt lat="43.67757387859095" lon="6.746567315267922"><ele>510.75</ele><time>2026-04-12T07:08:25Z</time></trkpt><trkpt lat="43.67732926413448" lon="6.746469041015516"><ele>512.0</ele><time>2026-04-12T07:08:28Z</time></trkpt><trkpt lat="43.677260292176214" lon="6.746421431226255"><ele>511.99999999999994</ele><time>2026-04-12T07:08:30Z</time></trkpt><trkpt lat="43.67719274122736" lon="6.7463802090391445"><ele>512.0</ele><time>2026-04-12T07:08:32Z</time></trkpt><trkpt lat="43.677122188891865" lon="6.74633864363814"><ele>512.0</ele><time>2026-04-12T07:08:34Z</time></trkpt><trkpt lat="43.677049033167265" lon="6.746291612442102"><ele>512.0</ele><time>2026-04-12T07:08:36Z</time></trkpt><trkpt lat="43.676982604149494" lon="6.746237870628653"><ele>511.99999999999994</ele><time>2026-04-12T07:08:38Z</time></trkpt><trkpt lat="43.676917813005986" lon="6.746166009384754"><ele>512.0</ele><time>2026-04-12T07:08:40Z</time></trkpt><trkpt lat="43.67686265925714" lon="6.7460836582710195"><ele>512.8333333333333</ele><time>2026-04-12T07:08:42Z</time></trkpt><trkpt lat="43.67681534677808" lon="6.745996158372295"><ele>513.6666666666666</ele><time>2026-04-12T07:08:44Z</time></trkpt><trkpt lat="43.67677788533569" lon="6.745881518993766"><ele>514.5</ele><time>2026-04-12T07:08:47Z</time></trkpt><trkpt lat="43.6767423956094" lon="6.74580362033218"><ele>515.3333333333334</ele><time>2026-04-12T07:08:49Z</time></trkpt><trkpt lat="43.67670095964534" lon="6.745698002662007"><ele>516.1666666666667</ele><time>2026-04-12T07:08:51Z</time></trkpt><trkpt lat="43.67664894116051" lon="6.745567011839182"><ele>517.0</ele><time>2026-04-12T07:08:53Z</time></trkpt><trkpt lat="43.67659981590606" lon="6.745446927905636"><ele>517.0</ele><time>2026-04-12T07:08:55Z</time></trkpt><trkpt lat="43.676550294613754" lon="6.745326911006484"><ele>517.0</ele><time>2026-04-12T07:08:57Z</time></trkpt><trkpt lat="43.6765075128657" lon="6.745221761924784"><ele>517.0</ele><time>2026-04-12T07:08:59Z</time></trkpt><trkpt lat="43.67646067488437" lon="6.745116392480371"><ele>517.0</ele><time>2026-04-12T07:09:01Z</time></trkpt><trkpt lat="43.676425934760516" lon="6.745002419481475"><ele>517.0</ele><time>2026-04-12T07:09:02.999Z</time></trkpt><trkpt lat="43.67639521566657" lon="6.744887237661449"><ele>518.0</ele><time>2026-04-12T07:09:04.999Z</time></trkpt><trkpt lat="43.67637064327648" lon="6.744772424346413"><ele>519.0</ele><time>2026-04-12T07:09:06.999Z</time></trkpt><trkpt lat="43.676355947989876" lon="6.744652603361089"><ele>520.0</ele><time>2026-04-12T07:09:08.999Z</time></trkpt><trkpt lat="43.676357869666184" lon="6.744523500938641"><ele>521.0</ele><time>2026-04-12T07:09:10.999Z</time></trkpt><trkpt lat="43.67637558620108" lon="6.744394517959623"><ele>522.0</ele><time>2026-04-12T07:09:12.999Z</time></trkpt><trkpt lat="43.67639044348774" lon="6.744272624692406"><ele>522.8000000000001</ele><time>2026-04-12T07:09:14.999Z</time></trkpt><trkpt lat="43.67640276489871" lon="6.744153630096398"><ele>523.6</ele><time>2026-04-12T07:09:16.999Z</time></trkpt><trkpt lat="43.67642556170428" lon="6.744034935146149"><ele>524.4000000000001</ele><time>2026-04-12T07:09:18.999Z</time></trkpt><trkpt lat="43.67645715451363" lon="6.743916524232971"><ele>525.2</ele><time>2026-04-12T07:09:20.999Z</time></trkpt><trkpt lat="43.6764809190632" lon="6.7437912674918765"><ele>526.0</ele><time>2026-04-12T07:09:22.999Z</time></trkpt><trkpt lat="43.67650150948577" lon="6.743667302081049"><ele>526.0</ele><time>2026-04-12T07:09:24.999Z</time></trkpt><trkpt lat="43.67651814290743" lon="6.743541521704719"><ele>526.0</ele><time>2026-04-12T07:09:26.999Z</time></trkpt><trkpt lat="43.67653237657817" lon="6.7434022113610075"><ele>526.0</ele><time>2026-04-12T07:09:28.999Z</time></trkpt><trkpt lat="43.67654494888218" lon="6.743266950057794"><ele>526.0</ele><time>2026-04-12T07:09:30.999Z</time></trkpt><trkpt lat="43.676537769386506" lon="6.743135928154109"><ele>526.0</ele><time>2026-04-12T07:09:32.999Z</time></trkpt><trkpt lat="43.676515062372694" lon="6.743006046551077"><ele>526.0</ele><time>2026-04-12T07:09:34.999Z</time></trkpt><trkpt lat="43.67647026501477" lon="6.742883894031399"><ele>526.0</ele><time>2026-04-12T07:09:36.999Z</time></trkpt><trkpt lat="43.67641685779834" lon="6.742762911858752"><ele>526.0</ele><time>2026-04-12T07:09:38.999Z</time></trkpt><trkpt lat="43.67635502002478" lon="6.74263576761384"><ele>526.0</ele><time>2026-04-12T07:09:40.999Z</time></trkpt><trkpt lat="43.676292905614375" lon="6.742504051284763"><ele>526.0</ele><time>2026-04-12T07:09:42.999Z</time></trkpt><trkpt lat="43.67623029344411" lon="6.742371954591242"><ele>526.5</ele><time>2026-04-12T07:09:44.999Z</time></trkpt><trkpt lat="43.67616811664612" lon="6.742241458875795"><ele>527.0</ele><time>2026-04-12T07:09:46.999Z</time></trkpt><trkpt lat="43.67610971999064" lon="6.742107068223471"><ele>527.5</ele><time>2026-04-12T07:09:48.999Z</time></trkpt><trkpt lat="43.67604833237814" lon="6.741975678714881"><ele>528.0</ele><time>2026-04-12T07:09:50.999Z</time></trkpt><trkpt lat="43.675988315800176" lon="6.741840906999918"><ele>528.6</ele><time>2026-04-12T07:09:52.999Z</time></trkpt><trkpt lat="43.67592908933781" lon="6.741707814848559"><ele>529.1999999999999</ele><time>2026-04-12T07:09:54.999Z</time></trkpt><trkpt lat="43.67587039148008" lon="6.741572252464986"><ele>529.8</ele><time>2026-04-12T07:09:56.999Z</time></trkpt><trkpt lat="43.67581125617923" lon="6.741444430216078"><ele>530.4</ele><time>2026-04-12T07:09:59Z</time></trkpt><trkpt lat="43.67575175912208" lon="6.74131633097101"><ele>531.0</ele><time>2026-04-12T07:10:01Z</time></trkpt><trkpt lat="43.67569023337637" lon="6.741193670360243"><ele>531.0</ele><time>2026-04-12T07:10:03Z</time></trkpt><trkpt lat="43.67563949114186" lon="6.741071612012031"><ele>531.0</ele><time>2026-04-12T07:10:05Z</time></trkpt><trkpt lat="43.675587002045624" lon="6.740950760808972"><ele>531.0</ele><time>2026-04-12T07:10:07Z</time></trkpt><trkpt lat="43.67553198942814" lon="6.74082996054732"><ele>531.0</ele><time>2026-04-12T07:10:09Z</time></trkpt><trkpt lat="43.675476786922395" lon="6.740699821301294"><ele>531.0</ele><time>2026-04-12T07:10:11Z</time></trkpt><trkpt lat="43.67541082291533" lon="6.740575490382669"><ele>531.4</ele><time>2026-04-12T07:10:13Z</time></trkpt><trkpt lat="43.675359704214245" lon="6.740437198500808"><ele>531.8</ele><time>2026-04-12T07:10:15Z</time></trkpt><trkpt lat="43.675297072851706" lon="6.740310625563198"><ele>532.1999999999999</ele><time>2026-04-12T07:10:17Z</time></trkpt><trkpt lat="43.67523648693928" lon="6.740186193738389"><ele>532.6</ele><time>2026-04-12T07:10:19Z</time></trkpt><trkpt lat="43.67518088227806" lon="6.74005516738961"><ele>533.0</ele><time>2026-04-12T07:10:21Z</time></trkpt><trkpt lat="43.675118061466605" lon="6.739921771861935"><ele>534.0</ele><time>2026-04-12T07:10:23Z</time></trkpt><trkpt lat="43.67505624559442" lon="6.739790249496113"><ele>535.0</ele><time>2026-04-12T07:10:25Z</time></trkpt><trkpt lat="43.67499120634405" lon="6.739662949285056"><ele>536.0</ele><time>2026-04-12T07:10:27Z</time></trkpt><trkpt lat="43.67493473835067" lon="6.7395363693932095"><ele>537.0</ele><time>2026-04-12T07:10:29Z</time></trkpt><trkpt lat="43.674878008019995" lon="6.739409553311201"><ele>538.0</ele><time>2026-04-12T07:10:31Z</time></trkpt><trkpt lat="43.67481582411837" lon="6.739275381356808"><ele>538.4</ele><time>2026-04-12T07:10:33Z</time></trkpt><trkpt lat="43.67475575119409" lon="6.7391405652414385"><ele>538.8</ele><time>2026-04-12T07:10:35Z</time></trkpt><trkpt lat="43.674691299473906" lon="6.739009322398487"><ele>539.2</ele><time>2026-04-12T07:10:37Z</time></trkpt><trkpt lat="43.67463860316382" lon="6.73887652428797"><ele>539.6</ele><time>2026-04-12T07:10:39Z</time></trkpt><trkpt lat="43.67458086629683" lon="6.738750379382596"><ele>540.0</ele><time>2026-04-12T07:10:41Z</time></trkpt><trkpt lat="43.67452082385781" lon="6.738624458281798"><ele>540.5</ele><time>2026-04-12T07:10:43Z</time></trkpt><trkpt lat="43.67446499742934" lon="6.7384947062336895"><ele>541.0</ele><time>2026-04-12T07:10:45Z</time></trkpt><trkpt lat="43.674403045945" lon="6.7383667045980555"><ele>541.5</ele><time>2026-04-12T07:10:47Z</time></trkpt><trkpt lat="43.67434712086223" lon="6.738239835239293"><ele>542.0</ele><time>2026-04-12T07:10:49Z</time></trkpt><trkpt lat="43.67426067932804" lon="6.738052920115931"><ele>542.0</ele><time>2026-04-12T07:10:52Z</time></trkpt><trkpt lat="43.67420578100548" lon="6.737936772170504"><ele>542.0</ele><time>2026-04-12T07:10:54Z</time></trkpt><trkpt lat="43.67415764101215" lon="6.737816689318623"><ele>542.0</ele><time>2026-04-12T07:10:56Z</time></trkpt><trkpt lat="43.67410303254352" lon="6.737711006385192"><ele>542.0</ele><time>2026-04-12T07:10:58Z</time></trkpt><trkpt lat="43.67404813775819" lon="6.737605992547916"><ele>542.0</ele><time>2026-04-12T07:11:00Z</time></trkpt><trkpt lat="43.674003990435054" lon="6.737487662601851"><ele>543.0</ele><time>2026-04-12T07:11:02Z</time></trkpt><trkpt lat="43.67395421665185" lon="6.73737686987619"><ele>544.0</ele><time>2026-04-12T07:11:04Z</time></trkpt><trkpt lat="43.67390861350904" lon="6.73726161145506"><ele>545.0</ele><time>2026-04-12T07:11:05.999Z</time></trkpt><trkpt lat="43.673856005926446" lon="6.737158034740654"><ele>546.0</ele><time>2026-04-12T07:11:07.999Z</time></trkpt><trkpt lat="43.673807927959665" lon="6.737046517232887"><ele>547.0</ele><time>2026-04-12T07:11:09.999Z</time></trkpt><trkpt lat="43.67374794864129" lon="6.736932076101316"><ele>547.4</ele><time>2026-04-12T07:11:11.999Z</time></trkpt><trkpt lat="43.67369564519366" lon="6.73681886588185"><ele>547.8000000000001</ele><time>2026-04-12T07:11:13.999Z</time></trkpt><trkpt lat="43.67364127984533" lon="6.736713077765658"><ele>548.2</ele><time>2026-04-12T07:11:15.999Z</time></trkpt><trkpt lat="43.67359831037333" lon="6.736601304233623"><ele>548.6</ele><time>2026-04-12T07:11:17.999Z</time></trkpt><trkpt lat="43.67355938805177" lon="6.736476416198969"><ele>549.0</ele><time>2026-04-12T07:11:19.999Z</time></trkpt><trkpt lat="43.67352244661782" lon="6.73635032099754"><ele>549.0</ele><time>2026-04-12T07:11:21.999Z</time></trkpt><trkpt lat="43.67349738022518" lon="6.736225496406987"><ele>549.0</ele><time>2026-04-12T07:11:23.999Z</time></trkpt><trkpt lat="43.67348048796271" lon="6.736100150891163"><ele>549.0</ele><time>2026-04-12T07:11:25.999Z</time></trkpt><trkpt lat="43.6734761052972" lon="6.735968834237987"><ele>549.0</ele><time>2026-04-12T07:11:27.999Z</time></trkpt><trkpt lat="43.673502964811604" lon="6.735848270681033"><ele>549.0</ele><time>2026-04-12T07:11:29.999Z</time></trkpt><trkpt lat="43.673509508042414" lon="6.7357224821605515"><ele>549.8333333333334</ele><time>2026-04-12T07:11:31.999Z</time></trkpt><trkpt lat="43.673539085095456" lon="6.735607500959742"><ele>550.6666666666666</ele><time>2026-04-12T07:11:33.999Z</time></trkpt><trkpt lat="43.67358633497257" lon="6.735509750068372"><ele>551.5</ele><time>2026-04-12T07:11:35.999Z</time></trkpt><trkpt lat="43.67361301133075" lon="6.73539977661836"><ele>552.3333333333333</ele><time>2026-04-12T07:11:37.999Z</time></trkpt><trkpt lat="43.673665125572235" lon="6.735306446475348"><ele>553.1666666666666</ele><time>2026-04-12T07:11:39.999Z</time></trkpt><trkpt lat="43.67369066893723" lon="6.735194829347445"><ele>554.0</ele><time>2026-04-12T07:11:41.999Z</time></trkpt><trkpt lat="43.67373119558292" lon="6.7350880127007215"><ele>556.0</ele><time>2026-04-12T07:11:43.999Z</time></trkpt><trkpt lat="43.67378343357022" lon="6.734976929783405"><ele>558.0</ele><time>2026-04-12T07:11:45.999Z</time></trkpt><trkpt lat="43.67380513734577" lon="6.734841656180713"><ele>560.0</ele><time>2026-04-12T07:11:47.999Z</time></trkpt><trkpt lat="43.67380472021033" lon="6.734716525595079"><ele>562.0</ele><time>2026-04-12T07:11:49.999Z</time></trkpt><trkpt lat="43.67377332705107" lon="6.73458910469013"><ele>564.0</ele><time>2026-04-12T07:11:51.999Z</time></trkpt><trkpt lat="43.67375248083303" lon="6.734465461701343"><ele>564.6666666666666</ele><time>2026-04-12T07:11:53.999Z</time></trkpt><trkpt lat="43.67373268136392" lon="6.734350016883684"><ele>565.3333333333334</ele><time>2026-04-12T07:11:55.999Z</time></trkpt><trkpt lat="43.67371851805539" lon="6.734230162189466"><ele>566.0</ele><time>2026-04-12T07:11:57.999Z</time></trkpt><trkpt lat="43.67369943493488" lon="6.734104645597494"><ele>566.6666666666667</ele><time>2026-04-12T07:11:59.999Z</time></trkpt><trkpt lat="43.67367900010165" lon="6.733980993525192"><ele>567.3333333333334</ele><time>2026-04-12T07:12:01.999Z</time></trkpt><trkpt lat="43.67365881983991" lon="6.733858695188602"><ele>568.0</ele><time>2026-04-12T07:12:04Z</time></trkpt><trkpt lat="43.67363882762266" lon="6.733737199754248"><ele>568.0</ele><time>2026-04-12T07:12:06Z</time></trkpt><trkpt lat="43.67361942118918" lon="6.733614554668095"><ele>568.0</ele><time>2026-04-12T07:12:08Z</time></trkpt><trkpt lat="43.67360309527784" lon="6.73349479388194"><ele>568.0</ele><time>2026-04-12T07:12:10Z</time></trkpt><trkpt lat="43.67360834997329" lon="6.733372987533484"><ele>568.0</ele><time>2026-04-12T07:12:12Z</time></trkpt><trkpt lat="43.67365274586346" lon="6.733282857693754"><ele>568.0</ele><time>2026-04-12T07:12:14Z</time></trkpt><trkpt lat="43.6737306824413" lon="6.733293564881207"><ele>568.0</ele><time>2026-04-12T07:12:16Z</time></trkpt><trkpt lat="43.673779449051935" lon="6.733393483568035"><ele>568.0</ele><time>2026-04-12T07:12:18Z</time></trkpt><trkpt lat="43.67383753074896" lon="6.733481995645829"><ele>568.0</ele><time>2026-04-12T07:12:20Z</time></trkpt><trkpt lat="43.67390683714377" lon="6.733568488321655"><ele>568.0</ele><time>2026-04-12T07:12:22Z</time></trkpt><trkpt lat="43.67398131704274" lon="6.733649013577273"><ele>568.0</ele><time>2026-04-12T07:12:24Z</time></trkpt><trkpt lat="43.674066678279196" lon="6.733687768918653"><ele>568.0</ele><time>2026-04-12T07:12:26Z</time></trkpt><trkpt lat="43.67415375443747" lon="6.733660719979934"><ele>568.0</ele><time>2026-04-12T07:12:28Z</time></trkpt><trkpt lat="43.67423075639186" lon="6.733595446225949"><ele>568.0</ele><time>2026-04-12T07:12:30Z</time></trkpt><trkpt lat="43.67428482862953" lon="6.733547465649116"><ele>568.0</ele><time>2026-04-12T07:12:32Z</time></trkpt><trkpt lat="43.67434391958365" lon="6.733494419515651"><ele>568.0</ele><time>2026-04-12T07:12:34Z</time></trkpt><trkpt lat="43.67440448776014" lon="6.733447653412036"><ele>568.0</ele><time>2026-04-12T07:12:36Z</time></trkpt><trkpt lat="43.674464103633056" lon="6.7333990034799465"><ele>568.0</ele><time>2026-04-12T07:12:38Z</time></trkpt><trkpt lat="43.67451881228077" lon="6.733351622194239"><ele>568.0</ele><time>2026-04-12T07:12:40Z</time></trkpt><trkpt lat="43.67457357628672" lon="6.733307567592707"><ele>569.6666666666667</ele><time>2026-04-12T07:12:42Z</time></trkpt><trkpt lat="43.67463016330617" lon="6.733256681988849"><ele>571.3333333333334</ele><time>2026-04-12T07:12:44Z</time></trkpt><trkpt lat="43.67469493307708" lon="6.733195900610036"><ele>573.0</ele><time>2026-04-12T07:12:47Z</time></trkpt><trkpt lat="43.674756075309794" lon="6.733143474639874"><ele>574.6666666666666</ele><time>2026-04-12T07:12:49Z</time></trkpt><trkpt lat="43.67482005062137" lon="6.733091846309307"><ele>576.3333333333333</ele><time>2026-04-12T07:12:51Z</time></trkpt><trkpt lat="43.674878199900064" lon="6.733031990626539"><ele>578.0</ele><time>2026-04-12T07:12:54Z</time></trkpt><trkpt lat="43.674968317940284" lon="6.73295792737551"><ele>578.0</ele><time>2026-04-12T07:12:56Z</time></trkpt><trkpt lat="43.67503800400682" lon="6.732912341788271"><ele>578.0</ele><time>2026-04-12T07:12:58Z</time></trkpt><trkpt lat="43.67509611823467" lon="6.732859664140613"><ele>578.0</ele><time>2026-04-12T07:13:00Z</time></trkpt><trkpt lat="43.675153090116034" lon="6.732806342573485"><ele>578.0</ele><time>2026-04-12T07:13:02Z</time></trkpt><trkpt lat="43.6752157766345" lon="6.732757797465664"><ele>578.0</ele><time>2026-04-12T07:13:04Z</time></trkpt><trkpt lat="43.67527702403712" lon="6.732704965191622"><ele>578.0</ele><time>2026-04-12T07:13:06Z</time></trkpt><trkpt lat="43.67533837108137" lon="6.732658703423983"><ele>578.0</ele><time>2026-04-12T07:13:08Z</time></trkpt><trkpt lat="43.67539529240286" lon="6.732604301165808"><ele>579.5714285714286</ele><time>2026-04-12T07:13:10Z</time></trkpt><trkpt lat="43.675451176366074" lon="6.7325611063401185"><ele>581.1428571428571</ele><time>2026-04-12T07:13:12Z</time></trkpt><trkpt lat="43.675507964644034" lon="6.732518366015559"><ele>582.7142857142857</ele><time>2026-04-12T07:13:13.999Z</time></trkpt><trkpt lat="43.675565415614834" lon="6.732464011076703"><ele>584.2857142857142</ele><time>2026-04-12T07:13:15.999Z</time></trkpt><trkpt lat="43.675622940268696" lon="6.732419162358266"><ele>585.8571428571428</ele><time>2026-04-12T07:13:17.999Z</time></trkpt><trkpt lat="43.675678042324165" lon="6.732370859620401"><ele>587.4285714285714</ele><time>2026-04-12T07:13:19.999Z</time></trkpt><trkpt lat="43.67573199573998" lon="6.732322790817074"><ele>589.0</ele><time>2026-04-12T07:13:21.999Z</time></trkpt><trkpt lat="43.67581146409192" lon="6.7322561288380625"><ele>589.0</ele><time>2026-04-12T07:13:24.999Z</time></trkpt><trkpt lat="43.67586112079765" lon="6.732201950521974"><ele>589.0</ele><time>2026-04-12T07:13:26.999Z</time></trkpt><trkpt lat="43.675908898875335" lon="6.732144503479748"><ele>589.0</ele><time>2026-04-12T07:13:28.999Z</time></trkpt><trkpt lat="43.67595284043082" lon="6.7320802266833635"><ele>589.0</ele><time>2026-04-12T07:13:30.999Z</time></trkpt><trkpt lat="43.67601750160067" lon="6.731988095735702"><ele>589.0</ele><time>2026-04-12T07:13:33.999Z</time></trkpt><trkpt lat="43.67608406321303" lon="6.731912819698076"><ele>589.0</ele><time>2026-04-12T07:13:36.999Z</time></trkpt><trkpt lat="43.676155565716684" lon="6.731843210759647"><ele>590.8333333333334</ele><time>2026-04-12T07:13:39.999Z</time></trkpt><trkpt lat="43.6762265524831" lon="6.731783143351948"><ele>592.6666666666667</ele><time>2026-04-12T07:13:42.999Z</time></trkpt><trkpt lat="43.67629750880758" lon="6.731722381559121"><ele>594.5</ele><time>2026-04-12T07:13:45.999Z</time></trkpt><trkpt lat="43.67636763670725" lon="6.731656585098277"><ele>596.3333333333334</ele><time>2026-04-12T07:13:48.999Z</time></trkpt><trkpt lat="43.67642653063378" lon="6.731591920020369"><ele>598.1666666666666</ele><time>2026-04-12T07:13:51.999Z</time></trkpt><trkpt lat="43.67650136601459" lon="6.731538255933999"><ele>600.0</ele><time>2026-04-12T07:13:54.999Z</time></trkpt><trkpt lat="43.67656874569833" lon="6.731478437119495"><ele>600.0</ele><time>2026-04-12T07:13:57.999Z</time></trkpt><trkpt lat="43.67663967375498" lon="6.73141757568487"><ele>600.0</ele><time>2026-04-12T07:14:00.999Z</time></trkpt><trkpt lat="43.67671263351306" lon="6.731358764241315"><ele>600.0</ele><time>2026-04-12T07:14:03.999Z</time></trkpt><trkpt lat="43.676769271397404" lon="6.731319751283536"><ele>600.0</ele><time>2026-04-12T07:14:05.999Z</time></trkpt><trkpt lat="43.6768417135273" lon="6.731256517156228"><ele>600.0</ele><time>2026-04-12T07:14:08.999Z</time></trkpt><trkpt lat="43.676915859284" lon="6.731189258797764"><ele>600.0</ele><time>2026-04-12T07:14:12Z</time></trkpt><trkpt lat="43.676989626849405" lon="6.731120136572008"><ele>600.9999999999999</ele><time>2026-04-12T07:14:15Z</time></trkpt><trkpt lat="43.67705366225599" lon="6.73107241456505"><ele>602.0</ele><time>2026-04-12T07:14:17Z</time></trkpt><trkpt lat="43.67711518023331" lon="6.73102661769299"><ele>603.0</ele><time>2026-04-12T07:14:19Z</time></trkpt><trkpt lat="43.67717721575226" lon="6.7309889520529"><ele>604.0</ele><time>2026-04-12T07:14:21Z</time></trkpt><trkpt lat="43.67723951503803" lon="6.730951326922106"><ele>605.0</ele><time>2026-04-12T07:14:23Z</time></trkpt><trkpt lat="43.67729909754691" lon="6.730904670043367"><ele>605.9999999999999</ele><time>2026-04-12T07:14:25Z</time></trkpt><trkpt lat="43.67735663175113" lon="6.730854184203962"><ele>607.0</ele><time>2026-04-12T07:14:27Z</time></trkpt><trkpt lat="43.677420848531796" lon="6.730813816329158"><ele>607.4285714285713</ele><time>2026-04-12T07:14:29Z</time></trkpt><trkpt lat="43.67747729787021" lon="6.730758713657969"><ele>607.8571428571429</ele><time>2026-04-12T07:14:31Z</time></trkpt><trkpt lat="43.677536365673966" lon="6.730717593396787"><ele>608.2857142857142</ele><time>2026-04-12T07:14:33Z</time></trkpt><trkpt lat="43.67759263508668" lon="6.730667726047982"><ele>608.7142857142857</ele><time>2026-04-12T07:14:35Z</time></trkpt><trkpt lat="43.677656035275305" lon="6.730613562815545"><ele>609.1428571428571</ele><time>2026-04-12T07:14:37Z</time></trkpt><trkpt lat="43.67773829211431" lon="6.730553737836748"><ele>609.5714285714286</ele><time>2026-04-12T07:14:40Z</time></trkpt><trkpt lat="43.677797709048455" lon="6.730515480842634"><ele>610.0</ele><time>2026-04-12T07:14:42Z</time></trkpt><trkpt lat="43.67785648440097" lon="6.730476501373539"><ele>610.6666666666667</ele><time>2026-04-12T07:14:44Z</time></trkpt><trkpt lat="43.67791989425849" lon="6.730430302224814"><ele>611.3333333333334</ele><time>2026-04-12T07:14:46Z</time></trkpt><trkpt lat="43.6779811948272" lon="6.730387769972226"><ele>612.0</ele><time>2026-04-12T07:14:48Z</time></trkpt><trkpt lat="43.67803886269235" lon="6.730339196815645"><ele>612.6666666666666</ele><time>2026-04-12T07:14:50Z</time></trkpt><trkpt lat="43.67809376743999" lon="6.730289712726093"><ele>613.3333333333333</ele><time>2026-04-12T07:14:52Z</time></trkpt><trkpt lat="43.67816838120742" lon="6.7302178707198985"><ele>614.0</ele><time>2026-04-12T07:14:55Z</time></trkpt><trkpt lat="43.678239767736244" lon="6.730139400152553"><ele>614.8333333333333</ele><time>2026-04-12T07:14:58Z</time></trkpt><trkpt lat="43.67830580751739" lon="6.730059838482064"><ele>615.6666666666666</ele><time>2026-04-12T07:15:01Z</time></trkpt><trkpt lat="43.678372995687994" lon="6.729980050281115"><ele>616.5</ele><time>2026-04-12T07:15:04Z</time></trkpt><trkpt lat="43.67843723141638" lon="6.729894030849322"><ele>617.3333333333334</ele><time>2026-04-12T07:15:07Z</time></trkpt><trkpt lat="43.67850822617186" lon="6.72980861518195"><ele>618.1666666666667</ele><time>2026-04-12T07:15:10Z</time></trkpt><trkpt lat="43.67855522576285" lon="6.7297437020593485"><ele>619.0</ele><time>2026-04-12T07:15:12Z</time></trkpt><trkpt lat="43.678607421026484" lon="6.7296785596874695"><ele>619.7142857142857</ele><time>2026-04-12T07:15:14Z</time></trkpt><trkpt lat="43.678651950232" lon="6.729614515858321"><ele>620.4285714285714</ele><time>2026-04-12T07:15:16Z</time></trkpt><trkpt lat="43.67868986742094" lon="6.72954454855955"><ele>621.1428571428571</ele><time>2026-04-12T07:15:18Z</time></trkpt><trkpt lat="43.678725062964226" lon="6.729459848189515"><ele>621.8571428571429</ele><time>2026-04-12T07:15:20Z</time></trkpt><trkpt lat="43.67875690234658" lon="6.729378612936314"><ele>622.5714285714286</ele><time>2026-04-12T07:15:21.999Z</time></trkpt><trkpt lat="43.67879252351786" lon="6.729292043835172"><ele>623.2857142857143</ele><time>2026-04-12T07:15:23.999Z</time></trkpt><trkpt lat="43.67883208665151" lon="6.729219229670094"><ele>624.0</ele><time>2026-04-12T07:15:25.999Z</time></trkpt><trkpt lat="43.67887626423146" lon="6.729149366799754"><ele>625.0</ele><time>2026-04-12T07:15:27.999Z</time></trkpt><trkpt lat="43.6789279064714" lon="6.729086881388027"><ele>626.0</ele><time>2026-04-12T07:15:29.999Z</time></trkpt><trkpt lat="43.67898088354221" lon="6.729024940301451"><ele>627.0</ele><time>2026-04-12T07:15:31.999Z</time></trkpt><trkpt lat="43.679040818787946" lon="6.728972734627595"><ele>628.0</ele><time>2026-04-12T07:15:33.999Z</time></trkpt><trkpt lat="43.6791023069238" lon="6.728923049826332"><ele>629.0</ele><time>2026-04-12T07:15:35.999Z</time></trkpt><trkpt lat="43.67917213352503" lon="6.728885323600658"><ele>630.0</ele><time>2026-04-12T07:15:37.999Z</time></trkpt><trkpt lat="43.67923614899964" lon="6.72884808922885"><ele>631.0</ele><time>2026-04-12T07:15:39.999Z</time></trkpt><trkpt lat="43.67930726164158" lon="6.7288188438799885"><ele>631.0</ele><time>2026-04-12T07:15:41.999Z</time></trkpt><trkpt lat="43.679382634531926" lon="6.728799981262153"><ele>631.0</ele><time>2026-04-12T07:15:43.999Z</time></trkpt><trkpt lat="43.679453327482804" lon="6.728769324898969"><ele>631.0</ele><time>2026-04-12T07:15:45.999Z</time></trkpt><trkpt lat="43.67952581887305" lon="6.728748223815234"><ele>631.0</ele><time>2026-04-12T07:15:47.999Z</time></trkpt><trkpt lat="43.67960970428251" lon="6.728715503229083"><ele>631.0</ele><time>2026-04-12T07:15:49.999Z</time></trkpt><trkpt lat="43.67968854812382" lon="6.728678110471425"><ele>631.0</ele><time>2026-04-12T07:15:51.999Z</time></trkpt><trkpt lat="43.67976512230776" lon="6.728632247398023"><ele>631.6</ele><time>2026-04-12T07:15:53.999Z</time></trkpt><trkpt lat="43.6798407578988" lon="6.728575416026281"><ele>632.2</ele><time>2026-04-12T07:15:55.999Z</time></trkpt><trkpt lat="43.679928405275575" lon="6.728514458226468"><ele>632.8</ele><time>2026-04-12T07:15:57.999Z</time></trkpt><trkpt lat="43.6800267523471" lon="6.728454854090898"><ele>633.4</ele><time>2026-04-12T07:15:59.999Z</time></trkpt><trkpt lat="43.68011695908844" lon="6.728389800862254"><ele>634.0</ele><time>2026-04-12T07:16:01.999Z</time></trkpt><trkpt lat="43.680219005412425" lon="6.728326625498021"><ele>635.4</ele><time>2026-04-12T07:16:03.999Z</time></trkpt><trkpt lat="43.680322286863884" lon="6.728274588850491"><ele>636.8</ele><time>2026-04-12T07:16:05.999Z</time></trkpt><trkpt lat="43.68040787299417" lon="6.728195159099163"><ele>638.1999999999999</ele><time>2026-04-12T07:16:07.999Z</time></trkpt><trkpt lat="43.680496065697376" lon="6.728137111539982"><ele>639.5999999999999</ele><time>2026-04-12T07:16:09.999Z</time></trkpt><trkpt lat="43.68058464346924" lon="6.728080193988705"><ele>641.0</ele><time>2026-04-12T07:16:11.999Z</time></trkpt><trkpt lat="43.68066931581703" lon="6.728023577112361"><ele>641.0</ele><time>2026-04-12T07:16:13.999Z</time></trkpt><trkpt lat="43.68074658872841" lon="6.727967178861302"><ele>641.0</ele><time>2026-04-12T07:16:16Z</time></trkpt><trkpt lat="43.68080654521143" lon="6.727924846868149"><ele>641.0</ele><time>2026-04-12T07:16:18Z</time></trkpt><trkpt lat="43.68091893635454" lon="6.727838039314855"><ele>641.0</ele><time>2026-04-12T07:16:21Z</time></trkpt><trkpt lat="43.68097663438152" lon="6.727802121873265"><ele>641.0</ele><time>2026-04-12T07:16:23Z</time></trkpt><trkpt lat="43.68106133863955" lon="6.727738847641663"><ele>641.0</ele><time>2026-04-12T07:16:25Z</time></trkpt><trkpt lat="43.68113796583252" lon="6.727687309576025"><ele>642.6666666666666</ele><time>2026-04-12T07:16:27Z</time></trkpt><trkpt lat="43.681215801128126" lon="6.72763014315541"><ele>644.3333333333333</ele><time>2026-04-12T07:16:30Z</time></trkpt><trkpt lat="43.681297067472805" lon="6.727577784604812"><ele>646.0</ele><time>2026-04-12T07:16:32Z</time></trkpt><trkpt lat="43.681355642638636" lon="6.727523510375835"><ele>647.6666666666666</ele><time>2026-04-12T07:16:34Z</time></trkpt><trkpt lat="43.68144555651207" lon="6.7274791666772975"><ele>649.3333333333334</ele><time>2026-04-12T07:16:36Z</time></trkpt><trkpt lat="43.68152472922949" lon="6.727421176451177"><ele>651.0</ele><time>2026-04-12T07:16:38Z</time></trkpt><trkpt lat="43.681604683848335" lon="6.727356677248005"><ele>651.0</ele><time>2026-04-12T07:16:40Z</time></trkpt><trkpt lat="43.68168008372927" lon="6.727294733587385"><ele>651.0</ele><time>2026-04-12T07:16:42Z</time></trkpt><trkpt lat="43.68174774587114" lon="6.727242478253486"><ele>651.0</ele><time>2026-04-12T07:16:44Z</time></trkpt><trkpt lat="43.68181661950731" lon="6.727176587677924"><ele>651.0</ele><time>2026-04-12T07:16:46Z</time></trkpt><trkpt lat="43.68188430000674" lon="6.727121288088841"><ele>651.0</ele><time>2026-04-12T07:16:48Z</time></trkpt><trkpt lat="43.6819600303186" lon="6.727073828764423"><ele>651.0</ele><time>2026-04-12T07:16:50Z</time></trkpt><trkpt lat="43.68203737879737" lon="6.727083869095964"><ele>652.6666666666666</ele><time>2026-04-12T07:16:52Z</time></trkpt><trkpt lat="43.68210653593285" lon="6.727118762134732"><ele>654.3333333333334</ele><time>2026-04-12T07:16:54Z</time></trkpt><trkpt lat="43.682158061062914" lon="6.727197376011382"><ele>656.0</ele><time>2026-04-12T07:16:56Z</time></trkpt><trkpt lat="43.68217816705346" lon="6.727311165968094"><ele>657.6666666666667</ele><time>2026-04-12T07:16:58Z</time></trkpt><trkpt lat="43.68217370391561" lon="6.727422680013459"><ele>659.3333333333334</ele><time>2026-04-12T07:17:00Z</time></trkpt><trkpt lat="43.682166238023356" lon="6.727532899557295"><ele>661.0</ele><time>2026-04-12T07:17:02Z</time></trkpt><trkpt lat="43.68216943608134" lon="6.727637423101601"><ele>661.3333333333334</ele><time>2026-04-12T07:17:04Z</time></trkpt><trkpt lat="43.68216890375655" lon="6.727741141861333"><ele>661.6666666666667</ele><time>2026-04-12T07:17:06Z</time></trkpt><trkpt lat="43.68218231533935" lon="6.727848545345043"><ele>662.0</ele><time>2026-04-12T07:17:08Z</time></trkpt><trkpt lat="43.682199009771956" lon="6.727954093215306"><ele>662.3333333333334</ele><time>2026-04-12T07:17:10Z</time></trkpt><trkpt lat="43.68221918004546" lon="6.728067169014303"><ele>662.6666666666666</ele><time>2026-04-12T07:17:12Z</time></trkpt><trkpt lat="43.682245355569705" lon="6.7281829861011"><ele>663.0</ele><time>2026-04-12T07:17:14Z</time></trkpt><trkpt lat="43.6822698607592" lon="6.728293310545278"><ele>663.0</ele><time>2026-04-12T07:17:16Z</time></trkpt><trkpt lat="43.682293978885056" lon="6.7284003254412825"><ele>663.0</ele><time>2026-04-12T07:17:18Z</time></trkpt><trkpt lat="43.682323539353085" lon="6.728510066438886"><ele>663.0</ele><time>2026-04-12T07:17:20Z</time></trkpt><trkpt lat="43.68235140474668" lon="6.728621165322427"><ele>663.0</ele><time>2026-04-12T07:17:22Z</time></trkpt><trkpt lat="43.68238852549017" lon="6.728724244172158"><ele>663.0</ele><time>2026-04-12T07:17:24Z</time></trkpt><trkpt lat="43.68242285585761" lon="6.728829804381709"><ele>663.0</ele><time>2026-04-12T07:17:25.999Z</time></trkpt><trkpt lat="43.68246891380947" lon="6.728929274861247"><ele>662.8333333333334</ele><time>2026-04-12T07:17:27.999Z</time></trkpt><trkpt lat="43.6825225269548" lon="6.7290285748634675"><ele>662.6666666666666</ele><time>2026-04-12T07:17:29.999Z</time></trkpt><trkpt lat="43.682582758812835" lon="6.729124175229189"><ele>662.5</ele><time>2026-04-12T07:17:31.999Z</time></trkpt><trkpt lat="43.682637966400094" lon="6.729222344321299"><ele>662.3333333333333</ele><time>2026-04-12T07:17:33.999Z</time></trkpt><trkpt lat="43.68269509957334" lon="6.729317128301994"><ele>662.1666666666666</ele><time>2026-04-12T07:17:35.999Z</time></trkpt><trkpt lat="43.6827481405477" lon="6.729413766225155"><ele>662.0</ele><time>2026-04-12T07:17:37.999Z</time></trkpt><trkpt lat="43.68279119115522" lon="6.7295163692472295"><ele>664.3333333333333</ele><time>2026-04-12T07:17:39.999Z</time></trkpt><trkpt lat="43.68283631997692" lon="6.729619432403534"><ele>666.6666666666666</ele><time>2026-04-12T07:17:41.999Z</time></trkpt><trkpt lat="43.68287645524002" lon="6.729722744015733"><ele>669.0</ele><time>2026-04-12T07:17:43.999Z</time></trkpt><trkpt lat="43.68291357265451" lon="6.729835133082286"><ele>671.3333333333334</ele><time>2026-04-12T07:17:45.999Z</time></trkpt><trkpt lat="43.68293728350158" lon="6.7299513573742"><ele>673.6666666666667</ele><time>2026-04-12T07:17:47.999Z</time></trkpt><trkpt lat="43.68295462290738" lon="6.730043629384031"><ele>676.0</ele><time>2026-04-12T07:17:49.999Z</time></trkpt><trkpt lat="43.68296912475619" lon="6.7301372362823955"><ele>676.1666666666667</ele><time>2026-04-12T07:17:51.999Z</time></trkpt><trkpt lat="43.68298465600833" lon="6.730263351224357"><ele>676.3333333333334</ele><time>2026-04-12T07:17:53.999Z</time></trkpt><trkpt lat="43.6830042916828" lon="6.730368811202211"><ele>676.5</ele><time>2026-04-12T07:17:55.999Z</time></trkpt><trkpt lat="43.68302966666363" lon="6.73047835035412"><ele>676.6666666666666</ele><time>2026-04-12T07:17:57.999Z</time></trkpt><trkpt lat="43.68306493450361" lon="6.730603215723123"><ele>676.8333333333333</ele><time>2026-04-12T07:17:59.999Z</time></trkpt><trkpt lat="43.68309641010434" lon="6.730728274958714"><ele>677.0</ele><time>2026-04-12T07:18:01.999Z</time></trkpt><trkpt lat="43.68314032903482" lon="6.730861561768936"><ele>677.0</ele><time>2026-04-12T07:18:03.999Z</time></trkpt><trkpt lat="43.68318392489086" lon="6.730970302951567"><ele>677.0</ele><time>2026-04-12T07:18:05.999Z</time></trkpt><trkpt lat="43.68322079461533" lon="6.731114557937707"><ele>677.0</ele><time>2026-04-12T07:18:08.999Z</time></trkpt><trkpt lat="43.683252684662264" lon="6.731208164767524"><ele>677.0</ele><time>2026-04-12T07:18:10.999Z</time></trkpt><trkpt lat="43.68328760953734" lon="6.7313046753326145"><ele>677.0</ele><time>2026-04-12T07:18:12.999Z</time></trkpt><trkpt lat="43.683316477869155" lon="6.731405593040087"><ele>677.0</ele><time>2026-04-12T07:18:14.999Z</time></trkpt><trkpt lat="43.68340427154486" lon="6.7316129883526035"><ele>677.0</ele><time>2026-04-12T07:18:17.999Z</time></trkpt><trkpt lat="43.683447086752984" lon="6.731716148074607"><ele>677.0</ele><time>2026-04-12T07:18:19.999Z</time></trkpt><trkpt lat="43.683492643207835" lon="6.7318131659530485"><ele>677.0</ele><time>2026-04-12T07:18:22Z</time></trkpt><trkpt lat="43.68353886067131" lon="6.731912751669496"><ele>677.0</ele><time>2026-04-12T07:18:24Z</time></trkpt><trkpt lat="43.68358191004333" lon="6.7320109797877885"><ele>677.0</ele><time>2026-04-12T07:18:26Z</time></trkpt><trkpt lat="43.68362582892626" lon="6.732102580168262"><ele>677.0</ele><time>2026-04-12T07:18:28Z</time></trkpt><trkpt lat="43.68366951038105" lon="6.732193589985309"><ele>677.5</ele><time>2026-04-12T07:18:30Z</time></trkpt><trkpt lat="43.68371653950686" lon="6.732284022939269"><ele>678.0</ele><time>2026-04-12T07:18:32Z</time></trkpt><trkpt lat="43.68375813073345" lon="6.732366935513664"><ele>678.5</ele><time>2026-04-12T07:18:34Z</time></trkpt><trkpt lat="43.683816493187145" lon="6.732479320902116"><ele>679.0</ele><time>2026-04-12T07:18:37Z</time></trkpt><trkpt lat="43.683876013650334" lon="6.732571369906842"><ele>679.5</ele><time>2026-04-12T07:18:39Z</time></trkpt><trkpt lat="43.68392235716471" lon="6.7326532918242"><ele>680.0</ele><time>2026-04-12T07:18:41Z</time></trkpt><trkpt lat="43.68397310794461" lon="6.732725477543446"><ele>680.0</ele><time>2026-04-12T07:18:43Z</time></trkpt><trkpt lat="43.68402988506549" lon="6.732782364921338"><ele>680.0</ele><time>2026-04-12T07:18:45Z</time></trkpt><trkpt lat="43.68410189160778" lon="6.732795402259124"><ele>680.0</ele><time>2026-04-12T07:18:47Z</time></trkpt><trkpt lat="43.684155954648304" lon="6.732721633763984"><ele>680.0</ele><time>2026-04-12T07:18:49Z</time></trkpt><trkpt lat="43.68415933281617" lon="6.732604205245317"><ele>680.0</ele><time>2026-04-12T07:18:51Z</time></trkpt><trkpt lat="43.68414441922754" lon="6.732480623868723"><ele>680.0</ele><time>2026-04-12T07:18:53Z</time></trkpt><trkpt lat="43.68413644509848" lon="6.732363714136042"><ele>681.5714285714286</ele><time>2026-04-12T07:18:55Z</time></trkpt><trkpt lat="43.684134601261185" lon="6.73225289992607"><ele>683.1428571428571</ele><time>2026-04-12T07:18:57Z</time></trkpt><trkpt lat="43.68412333915065" lon="6.7321516407177056"><ele>684.7142857142857</ele><time>2026-04-12T07:18:59Z</time></trkpt><trkpt lat="43.68411307608053" lon="6.73205308159911"><ele>686.2857142857142</ele><time>2026-04-12T07:19:01Z</time></trkpt><trkpt lat="43.68410601303362" lon="6.731959603503276"><ele>687.8571428571429</ele><time>2026-04-12T07:19:03Z</time></trkpt><trkpt lat="43.68408295959691" lon="6.73185915852856"><ele>689.4285714285713</ele><time>2026-04-12T07:19:05Z</time></trkpt><trkpt lat="43.68407149741998" lon="6.731760109589644"><ele>691.0</ele><time>2026-04-12T07:19:07Z</time></trkpt><trkpt lat="43.68405959936102" lon="6.731662518369039"><ele>691.8571428571428</ele><time>2026-04-12T07:19:09Z</time></trkpt><trkpt lat="43.68404669810857" lon="6.731555234044338"><ele>692.7142857142857</ele><time>2026-04-12T07:19:11Z</time></trkpt><trkpt lat="43.684036236023815" lon="6.731449737848472"><ele>693.5714285714286</ele><time>2026-04-12T07:19:13Z</time></trkpt><trkpt lat="43.684047450826355" lon="6.731349612304078"><ele>694.4285714285713</ele><time>2026-04-12T07:19:15Z</time></trkpt><trkpt lat="43.68406141666617" lon="6.731249285257213"><ele>695.2857142857142</ele><time>2026-04-12T07:19:17Z</time></trkpt><trkpt lat="43.684074510069024" lon="6.731156114027671"><ele>696.1428571428571</ele><time>2026-04-12T07:19:19Z</time></trkpt><trkpt lat="43.684092478308386" lon="6.731067299970537"><ele>697.0</ele><time>2026-04-12T07:19:21Z</time></trkpt><trkpt lat="43.684113080100595" lon="6.730971946599526"><ele>697.3333333333334</ele><time>2026-04-12T07:19:23Z</time></trkpt><trkpt lat="43.68413179153272" lon="6.730878761146649"><ele>697.6666666666667</ele><time>2026-04-12T07:19:26Z</time></trkpt><trkpt lat="43.68414955515264" lon="6.730793026556491"><ele>698.0</ele><time>2026-04-12T07:19:27Z</time></trkpt><trkpt lat="43.68418297741214" lon="6.730692935769159"><ele>698.3333333333334</ele><time>2026-04-12T07:19:30Z</time></trkpt><trkpt lat="43.68422012344671" lon="6.730596741301343"><ele>698.6666666666666</ele><time>2026-04-12T07:19:31.999Z</time></trkpt><trkpt lat="43.684258205062996" lon="6.7305180638930455"><ele>699.0</ele><time>2026-04-12T07:19:33.999Z</time></trkpt><trkpt lat="43.68430665138186" lon="6.730403151972493"><ele>699.0</ele><time>2026-04-12T07:19:36.999Z</time></trkpt><trkpt lat="43.684369905668106" lon="6.730287780987265"><ele>699.0</ele><time>2026-04-12T07:19:38.999Z</time></trkpt><trkpt lat="43.68441360015022" lon="6.730195410309306"><ele>699.0</ele><time>2026-04-12T07:19:40.999Z</time></trkpt><trkpt lat="43.684456055345876" lon="6.730103646591775"><ele>699.0</ele><time>2026-04-12T07:19:42.999Z</time></trkpt><trkpt lat="43.684498424296855" lon="6.730014924342697"><ele>699.0</ele><time>2026-04-12T07:19:44.999Z</time></trkpt><trkpt lat="43.68454393147344" lon="6.7299312042275945"><ele>699.0</ele><time>2026-04-12T07:19:46.999Z</time></trkpt><trkpt lat="43.68459657748988" lon="6.7298373853392075"><ele>701.0</ele><time>2026-04-12T07:19:48.999Z</time></trkpt><trkpt lat="43.68463931069337" lon="6.729742372212799"><ele>703.0</ele><time>2026-04-12T07:19:50.999Z</time></trkpt><trkpt lat="43.68468398519755" lon="6.729650540442343"><ele>705.0</ele><time>2026-04-12T07:19:52.999Z</time></trkpt><trkpt lat="43.68472831401527" lon="6.7295580081548"><ele>707.0</ele><time>2026-04-12T07:19:54.999Z</time></trkpt><trkpt lat="43.6847720573384" lon="6.729466227614908"><ele>709.0</ele><time>2026-04-12T07:19:56.999Z</time></trkpt><trkpt lat="43.684814737303505" lon="6.729376909490505"><ele>711.0</ele><time>2026-04-12T07:19:58.999Z</time></trkpt><trkpt lat="43.684862779018474" lon="6.729291013366828"><ele>711.0</ele><time>2026-04-12T07:20:00.999Z</time></trkpt><trkpt lat="43.68491294740985" lon="6.729211127105479"><ele>711.0</ele><time>2026-04-12T07:20:02.999Z</time></trkpt><trkpt lat="43.684959083756574" lon="6.729127652931591"><ele>711.0</ele><time>2026-04-12T07:20:04.999Z</time></trkpt><trkpt lat="43.6850154828997" lon="6.7290483004873645"><ele>711.0</ele><time>2026-04-12T07:20:06.999Z</time></trkpt><trkpt lat="43.68507028552284" lon="6.728972533392111"><ele>711.0</ele><time>2026-04-12T07:20:09.999Z</time></trkpt><trkpt lat="43.68511790283152" lon="6.728907326747093"><ele>711.0</ele><time>2026-04-12T07:20:10.999Z</time></trkpt><trkpt lat="43.68518014975907" lon="6.728824536425859"><ele>711.0</ele><time>2026-04-12T07:20:12.999Z</time></trkpt><trkpt lat="43.68523709876108" lon="6.72873838646019"><ele>711.0</ele><time>2026-04-12T07:20:14.999Z</time></trkpt><trkpt lat="43.68529905257206" lon="6.7286555677514475"><ele>711.0</ele><time>2026-04-12T07:20:16.999Z</time></trkpt><trkpt lat="43.68535349291681" lon="6.72857656923673"><ele>711.0</ele><time>2026-04-12T07:20:18.999Z</time></trkpt><trkpt lat="43.68541151267533" lon="6.728502635716765"><ele>711.0</ele><time>2026-04-12T07:20:20.999Z</time></trkpt><trkpt lat="43.68546819127667" lon="6.7284336470696"><ele>711.0</ele><time>2026-04-12T07:20:22.999Z</time></trkpt><trkpt lat="43.68553046808592" lon="6.728367915998377"><ele>712.0</ele><time>2026-04-12T07:20:24.999Z</time></trkpt><trkpt lat="43.6856043625856" lon="6.728319380791266"><ele>713.0</ele><time>2026-04-12T07:20:26.999Z</time></trkpt><trkpt lat="43.68567897168652" lon="6.7282737503020655"><ele>714.0</ele><time>2026-04-12T07:20:29Z</time></trkpt><trkpt lat="43.68575422688695" lon="6.728247523753022"><ele>715.0</ele><time>2026-04-12T07:20:31Z</time></trkpt><trkpt lat="43.68583056953408" lon="6.728238858349838"><ele>716.0</ele><time>2026-04-12T07:20:33Z</time></trkpt><trkpt lat="43.6859124276717" lon="6.728240022052106"><ele>717.0</ele><time>2026-04-12T07:20:35Z</time></trkpt><trkpt lat="43.68599327967012" lon="6.728248685130268"><ele>717.0</ele><time>2026-04-12T07:20:37Z</time></trkpt><trkpt lat="43.68607207764913" lon="6.728246673679511"><ele>717.0</ele><time>2026-04-12T07:20:39Z</time></trkpt><trkpt lat="43.6861457236676" lon="6.728235055143845"><ele>717.0</ele><time>2026-04-12T07:20:41Z</time></trkpt><trkpt lat="43.6862173703936" lon="6.728226319867488"><ele>717.0</ele><time>2026-04-12T07:20:43Z</time></trkpt><trkpt lat="43.686286639882475" lon="6.728206586808303"><ele>717.0</ele><time>2026-04-12T07:20:45Z</time></trkpt><trkpt lat="43.68635564155578" lon="6.728178953297433"><ele>717.0</ele><time>2026-04-12T07:20:47Z</time></trkpt><trkpt lat="43.68642565434284" lon="6.728136234585811"><ele>717.0</ele><time>2026-04-12T07:20:49Z</time></trkpt><trkpt lat="43.68649349625762" lon="6.728081151246499"><ele>718.0</ele><time>2026-04-12T07:20:51Z</time></trkpt><trkpt lat="43.68655262525876" lon="6.728020246574767"><ele>719.0</ele><time>2026-04-12T07:20:53Z</time></trkpt><trkpt lat="43.68660461025284" lon="6.727953046568408"><ele>720.0</ele><time>2026-04-12T07:20:55Z</time></trkpt><trkpt lat="43.686656042703724" lon="6.727868346604706"><ele>721.0</ele><time>2026-04-12T07:20:57Z</time></trkpt><trkpt lat="43.68671228386325" lon="6.727788167252887"><ele>722.0</ele><time>2026-04-12T07:20:59Z</time></trkpt><trkpt lat="43.68678415727694" lon="6.727705413838359"><ele>723.0</ele><time>2026-04-12T07:21:01Z</time></trkpt><trkpt lat="43.68686840261399" lon="6.727618187165209"><ele>724.6666666666666</ele><time>2026-04-12T07:21:03Z</time></trkpt><trkpt lat="43.68697905078722" lon="6.727538351764786"><ele>726.3333333333334</ele><time>2026-04-12T07:21:05Z</time></trkpt><trkpt lat="43.687033578318626" lon="6.727489740446444"><ele>728.0</ele><time>2026-04-12T07:21:06Z</time></trkpt><trkpt lat="43.68709002578914" lon="6.727440953082284"><ele>729.6666666666667</ele><time>2026-04-12T07:21:07Z</time></trkpt><trkpt lat="43.68714629928138" lon="6.727394095424734"><ele>731.3333333333334</ele><time>2026-04-12T07:21:08Z</time></trkpt><trkpt lat="43.68720448035408" lon="6.727347642864196"><ele>733.0</ele><time>2026-04-12T07:21:09Z</time></trkpt><trkpt lat="43.68725934104887" lon="6.727303852766683"><ele>733.0</ele><time>2026-04-12T07:21:10Z</time></trkpt><trkpt lat="43.68731313328708" lon="6.727255619768871"><ele>733.0</ele><time>2026-04-12T07:21:11Z</time></trkpt><trkpt lat="43.68742221561521" lon="6.727176898486008"><ele>733.0</ele><time>2026-04-12T07:21:13Z</time></trkpt><trkpt lat="43.68753056836028" lon="6.727109204144448"><ele>733.0</ele><time>2026-04-12T07:21:15Z</time></trkpt><trkpt lat="43.68762777059297" lon="6.727032622967485"><ele>733.0</ele><time>2026-04-12T07:21:17Z</time></trkpt><trkpt lat="43.68772080857775" lon="6.726963642772569"><ele>732.5999999999999</ele><time>2026-04-12T07:21:19Z</time></trkpt><trkpt lat="43.68781629794306" lon="6.726904074066353"><ele>732.1999999999999</ele><time>2026-04-12T07:21:21Z</time></trkpt><trkpt lat="43.687905813564704" lon="6.726844125512476"><ele>731.8</ele><time>2026-04-12T07:21:23Z</time></trkpt><trkpt lat="43.68800136712009" lon="6.726797280326858"><ele>731.4</ele><time>2026-04-12T07:21:25Z</time></trkpt><trkpt lat="43.68811040123317" lon="6.7267608634708"><ele>731.0</ele><time>2026-04-12T07:21:27Z</time></trkpt><trkpt lat="43.688222580604474" lon="6.726751859585934"><ele>731.0</ele><time>2026-04-12T07:21:29Z</time></trkpt><trkpt lat="43.688327850055735" lon="6.726740925851326"><ele>731.0</ele><time>2026-04-12T07:21:31Z</time></trkpt><trkpt lat="43.68843475460642" lon="6.726720115308848"><ele>731.0</ele><time>2026-04-12T07:21:33Z</time></trkpt><trkpt lat="43.68855679354207" lon="6.72669436925338"><ele>731.0</ele><time>2026-04-12T07:21:35Z</time></trkpt><trkpt lat="43.6886853732972" lon="6.726687792556146"><ele>732.2857142857142</ele><time>2026-04-12T07:21:36.999Z</time></trkpt><trkpt lat="43.688751528592846" lon="6.72669341625962"><ele>733.5714285714286</ele><time>2026-04-12T07:21:37.999Z</time></trkpt><trkpt lat="43.68881847811291" lon="6.726700847251979"><ele>734.8571428571429</ele><time>2026-04-12T07:21:38.999Z</time></trkpt><trkpt lat="43.68888848343718" lon="6.726713697678087"><ele>736.1428571428571</ele><time>2026-04-12T07:21:39.999Z</time></trkpt><trkpt lat="43.6889517951132" lon="6.726735128535585"><ele>737.4285714285714</ele><time>2026-04-12T07:21:40.999Z</time></trkpt><trkpt lat="43.68901476082236" lon="6.726756828067418"><ele>738.7142857142857</ele><time>2026-04-12T07:21:41.999Z</time></trkpt><trkpt lat="43.68907807232979" lon="6.726770789795369"><ele>740.0</ele><time>2026-04-12T07:21:42.999Z</time></trkpt><trkpt lat="43.689141857302246" lon="6.726781465664322"><ele>740.0</ele><time>2026-04-12T07:21:43.999Z</time></trkpt><trkpt lat="43.689256901561485" lon="6.726804101835304"><ele>740.0</ele><time>2026-04-12T07:21:45.999Z</time></trkpt><trkpt lat="43.68936074071121" lon="6.726806678906869"><ele>740.0</ele><time>2026-04-12T07:21:47.999Z</time></trkpt><trkpt lat="43.68945752575027" lon="6.726783662655335"><ele>740.0</ele><time>2026-04-12T07:21:49.999Z</time></trkpt><trkpt lat="43.68953818318337" lon="6.726732862120827"><ele>740.0</ele><time>2026-04-12T07:21:51.999Z</time></trkpt><trkpt lat="43.689615921464814" lon="6.726533247942461"><ele>743.6</ele><time>2026-04-12T07:21:54.999Z</time></trkpt><trkpt lat="43.68954625598946" lon="6.7263940983357315"><ele>747.2</ele><time>2026-04-12T07:21:56.999Z</time></trkpt><trkpt lat="43.68952703173591" lon="6.726270276872716"><ele>750.8</ele><time>2026-04-12T07:21:58.999Z</time></trkpt><trkpt lat="43.68949606006465" lon="6.726172257316966"><ele>754.4</ele><time>2026-04-12T07:22:00.999Z</time></trkpt><trkpt lat="43.689472289376745" lon="6.726059884463419"><ele>758.0</ele><time>2026-04-12T07:22:02.999Z</time></trkpt><trkpt lat="43.68945421689688" lon="6.725958607907487"><ele>758.0</ele><time>2026-04-12T07:22:04.999Z</time></trkpt><trkpt lat="43.68944972609702" lon="6.725855324283015"><ele>758.0</ele><time>2026-04-12T07:22:06.999Z</time></trkpt><trkpt lat="43.68946606813545" lon="6.7257421573454605"><ele>758.0</ele><time>2026-04-12T07:22:08.999Z</time></trkpt><trkpt lat="43.68952589228173" lon="6.725624593866961"><ele>758.0</ele><time>2026-04-12T07:22:10.999Z</time></trkpt><trkpt lat="43.689589969592596" lon="6.725524043143705"><ele>758.0</ele><time>2026-04-12T07:22:12.999Z</time></trkpt><trkpt lat="43.68966473998903" lon="6.7254287529116"><ele>758.0</ele><time>2026-04-12T07:22:14.999Z</time></trkpt><trkpt lat="43.689767939986176" lon="6.725333624289444"><ele>758.0</ele><time>2026-04-12T07:22:16.999Z</time></trkpt><trkpt lat="43.68983696307627" lon="6.725283368649401"><ele>758.0</ele><time>2026-04-12T07:22:17.999Z</time></trkpt><trkpt lat="43.689903787846085" lon="6.725232478937627"><ele>758.0</ele><time>2026-04-12T07:22:18.999Z</time></trkpt><trkpt lat="43.689967126296374" lon="6.725194752325553"><ele>758.0</ele><time>2026-04-12T07:22:19.999Z</time></trkpt><trkpt lat="43.69003546723446" lon="6.725144047914219"><ele>758.0</ele><time>2026-04-12T07:22:20.999Z</time></trkpt><trkpt lat="43.69010169579306" lon="6.725098740784252"><ele>756.3333333333333</ele><time>2026-04-12T07:22:21.999Z</time></trkpt><trkpt lat="43.690161754439124" lon="6.725051777167138"><ele>754.6666666666666</ele><time>2026-04-12T07:22:22.999Z</time></trkpt><trkpt lat="43.6902046377556" lon="6.724977881551059"><ele>753.0</ele><time>2026-04-12T07:22:23.999Z</time></trkpt><trkpt lat="43.69022940238111" lon="6.724875971739738"><ele>751.3333333333334</ele><time>2026-04-12T07:22:24.999Z</time></trkpt><trkpt lat="43.69021002257083" lon="6.724758303656428"><ele>749.6666666666667</ele><time>2026-04-12T07:22:25.999Z</time></trkpt><trkpt lat="43.690141586873956" lon="6.72466500122907"><ele>748.0</ele><time>2026-04-12T07:22:26.999Z</time></trkpt><trkpt lat="43.69005975270127" lon="6.724632643306454"><ele>748.0</ele><time>2026-04-12T07:22:27.999Z</time></trkpt><trkpt lat="43.68996328171967" lon="6.724550348670203"><ele>748.0</ele><time>2026-04-12T07:22:29.999Z</time></trkpt><trkpt lat="43.6898705040309" lon="6.7244486305881646"><ele>748.0</ele><time>2026-04-12T07:22:31.999Z</time></trkpt><trkpt lat="43.68977109753394" lon="6.724371801905467"><ele>748.0</ele><time>2026-04-12T07:22:34Z</time></trkpt><trkpt lat="43.689670026709294" lon="6.724345469007655"><ele>748.0</ele><time>2026-04-12T07:22:36Z</time></trkpt><trkpt lat="43.689595176366716" lon="6.724310983863733"><ele>750.0</ele><time>2026-04-12T07:22:38Z</time></trkpt><trkpt lat="43.6895182915029" lon="6.72426610715059"><ele>752.0</ele><time>2026-04-12T07:22:40Z</time></trkpt><trkpt lat="43.689482625405745" lon="6.72417331601352"><ele>754.0</ele><time>2026-04-12T07:22:43Z</time></trkpt><trkpt lat="43.68946276929867" lon="6.724026506723926"><ele>756.0</ele><time>2026-04-12T07:22:44Z</time></trkpt><trkpt lat="43.68947234849721" lon="6.723883548163579"><ele>758.0</ele><time>2026-04-12T07:22:46Z</time></trkpt><trkpt lat="43.68949252183443" lon="6.72371646758601"><ele>758.4</ele><time>2026-04-12T07:22:48Z</time></trkpt><trkpt lat="43.68952947461206" lon="6.723555902257041"><ele>758.8</ele><time>2026-04-12T07:22:50Z</time></trkpt><trkpt lat="43.68954290822105" lon="6.7234673718406786"><ele>759.2</ele><time>2026-04-12T07:22:51Z</time></trkpt><trkpt lat="43.68959140692565" lon="6.723324282746829"><ele>759.6</ele><time>2026-04-12T07:22:53Z</time></trkpt><trkpt lat="43.68964292762564" lon="6.723187566061756"><ele>760.0</ele><time>2026-04-12T07:22:55Z</time></trkpt><trkpt lat="43.689709948949734" lon="6.723074675041652"><ele>760.0</ele><time>2026-04-12T07:22:57Z</time></trkpt><trkpt lat="43.68979961346933" lon="6.7229806270195"><ele>760.0</ele><time>2026-04-12T07:22:59Z</time></trkpt><trkpt lat="43.68987753974565" lon="6.7228759878899735"><ele>760.0</ele><time>2026-04-12T07:23:01Z</time></trkpt><trkpt lat="43.68995681801504" lon="6.722773411376549"><ele>760.0</ele><time>2026-04-12T07:23:03Z</time></trkpt><trkpt lat="43.69001893132063" lon="6.722675158190274"><ele>760.0</ele><time>2026-04-12T07:23:05Z</time></trkpt><trkpt lat="43.690090100148325" lon="6.722597340332506"><ele>758.25</ele><time>2026-04-12T07:23:07Z</time></trkpt><trkpt lat="43.69016256324188" lon="6.722511592946996"><ele>756.5</ele><time>2026-04-12T07:23:09Z</time></trkpt><trkpt lat="43.69021781133021" lon="6.722447925998882"><ele>754.75</ele><time>2026-04-12T07:23:11Z</time></trkpt><trkpt lat="43.69037271678652" lon="6.722289166751036"><ele>753.0</ele><time>2026-04-12T07:23:14Z</time></trkpt><trkpt lat="43.69045364673525" lon="6.722206576368385"><ele>754.4</ele><time>2026-04-12T07:23:16Z</time></trkpt><trkpt lat="43.69054090033621" lon="6.722129738594433"><ele>755.8</ele><time>2026-04-12T07:23:18Z</time></trkpt><trkpt lat="43.690615962536405" lon="6.722049091268487"><ele>757.2</ele><time>2026-04-12T07:23:20Z</time></trkpt><trkpt lat="43.69069273151926" lon="6.721965349544648"><ele>758.6</ele><time>2026-04-12T07:23:22Z</time></trkpt><trkpt lat="43.69077124899125" lon="6.721884436182053"><ele>760.0</ele><time>2026-04-12T07:23:24Z</time></trkpt><trkpt lat="43.69084544255003" lon="6.721796654673395"><ele>760.0</ele><time>2026-04-12T07:23:26Z</time></trkpt><trkpt lat="43.69091481876095" lon="6.72170276028009"><ele>760.0</ele><time>2026-04-12T07:23:28Z</time></trkpt><trkpt lat="43.69097926285531" lon="6.721602734977937"><ele>760.0</ele><time>2026-04-12T07:23:30Z</time></trkpt><trkpt lat="43.69103166401875" lon="6.721512520857539"><ele>760.0</ele><time>2026-04-12T07:23:32Z</time></trkpt><trkpt lat="43.69109683688689" lon="6.721409423775924"><ele>760.0</ele><time>2026-04-12T07:23:34Z</time></trkpt><trkpt lat="43.69115304894821" lon="6.721314266660118"><ele>762.3333333333334</ele><time>2026-04-12T07:23:36Z</time></trkpt><trkpt lat="43.69121242321848" lon="6.721230126095443"><ele>764.6666666666667</ele><time>2026-04-12T07:23:38Z</time></trkpt><trkpt lat="43.69128398310565" lon="6.721156162755879"><ele>767.0</ele><time>2026-04-12T07:23:40Z</time></trkpt><trkpt lat="43.69137357197839" lon="6.721099087960262"><ele>769.3333333333334</ele><time>2026-04-12T07:23:42.999Z</time></trkpt><trkpt lat="43.69142755617611" lon="6.721052681197504"><ele>771.6666666666666</ele><time>2026-04-12T07:23:45.999Z</time></trkpt><trkpt lat="43.691492424899074" lon="6.721097919084282"><ele>774.0</ele><time>2026-04-12T07:23:47.999Z</time></trkpt><trkpt lat="43.691448174043614" lon="6.721193305026487"><ele>775.5</ele><time>2026-04-12T07:23:50.999Z</time></trkpt><trkpt lat="43.69139338034817" lon="6.721281138561692"><ele>777.0</ele><time>2026-04-12T07:23:52.999Z</time></trkpt><trkpt lat="43.691337485428704" lon="6.721341935969465"><ele>778.5</ele><time>2026-04-12T07:23:53.999Z</time></trkpt><trkpt lat="43.6912845624571" lon="6.721425172456016"><ele>780.0</ele><time>2026-04-12T07:23:55.999Z</time></trkpt><trkpt lat="43.691219176282104" lon="6.7215295388752105"><ele>781.5</ele><time>2026-04-12T07:23:57.999Z</time></trkpt><trkpt lat="43.69117499852977" lon="6.721653759098927"><ele>783.0</ele><time>2026-04-12T07:23:59.999Z</time></trkpt><trkpt lat="43.69113276012646" lon="6.721769889822285"><ele>780.8</ele><time>2026-04-12T07:24:01.999Z</time></trkpt><trkpt lat="43.69108661932285" lon="6.721881763548292"><ele>778.5999999999999</ele><time>2026-04-12T07:24:03.999Z</time></trkpt><trkpt lat="43.69105759106375" lon="6.722000316768031"><ele>776.4000000000001</ele><time>2026-04-12T07:24:05.999Z</time></trkpt><trkpt lat="43.69101652001605" lon="6.722109020161682"><ele>774.2</ele><time>2026-04-12T07:24:07.999Z</time></trkpt><trkpt lat="43.69099064457593" lon="6.72222755289815"><ele>772.0</ele><time>2026-04-12T07:24:09.999Z</time></trkpt><trkpt lat="43.69096328380437" lon="6.7223433806737924"><ele>772.0</ele><time>2026-04-12T07:24:11.999Z</time></trkpt><trkpt lat="43.690934426868246" lon="6.722465477958448"><ele>772.0</ele><time>2026-04-12T07:24:13.999Z</time></trkpt><trkpt lat="43.690908396349265" lon="6.722601101383332"><ele>772.0</ele><time>2026-04-12T07:24:15.999Z</time></trkpt><trkpt lat="43.690885946800634" lon="6.722727368775904"><ele>772.0</ele><time>2026-04-12T07:24:17.999Z</time></trkpt><trkpt lat="43.69085583496382" lon="6.722851425760305"><ele>772.0</ele><time>2026-04-12T07:24:19.999Z</time></trkpt><trkpt lat="43.69081673791183" lon="6.722996429737114"><ele>772.9999999999999</ele><time>2026-04-12T07:24:22.999Z</time></trkpt><trkpt lat="43.6908179193695" lon="6.723120715499104"><ele>774.0</ele><time>2026-04-12T07:24:24.999Z</time></trkpt><trkpt lat="43.69087861441553" lon="6.72318177580998"><ele>775.0</ele><time>2026-04-12T07:24:26.999Z</time></trkpt><trkpt lat="43.69094174811737" lon="6.723077652345956"><ele>776.0</ele><time>2026-04-12T07:24:29.999Z</time></trkpt><trkpt lat="43.69099913754401" lon="6.723001940828253"><ele>776.9999999999999</ele><time>2026-04-12T07:24:30.999Z</time></trkpt><trkpt lat="43.69105410599081" lon="6.7228948594570666"><ele>778.0</ele><time>2026-04-12T07:24:32.999Z</time></trkpt><trkpt lat="43.691111679695496" lon="6.722782685117716"><ele>780.5999999999999</ele><time>2026-04-12T07:24:34.999Z</time></trkpt><trkpt lat="43.69117152894391" lon="6.7226803713088525"><ele>783.1999999999999</ele><time>2026-04-12T07:24:36.999Z</time></trkpt><trkpt lat="43.6912347131732" lon="6.722587832791404"><ele>785.8</ele><time>2026-04-12T07:24:38.999Z</time></trkpt><trkpt lat="43.69128710622389" lon="6.722483886158554"><ele>788.4</ele><time>2026-04-12T07:24:41Z</time></trkpt><trkpt lat="43.69134098319841" lon="6.722378851660094"><ele>791.0</ele><time>2026-04-12T07:24:43Z</time></trkpt><trkpt lat="43.6914007977769" lon="6.7222756028186295"><ele>791.0</ele><time>2026-04-12T07:24:45Z</time></trkpt><trkpt lat="43.691460470738534" lon="6.722172979811133"><ele>791.0</ele><time>2026-04-12T07:24:47Z</time></trkpt><trkpt lat="43.691517077349936" lon="6.722072585130627"><ele>791.0</ele><time>2026-04-12T07:24:49Z</time></trkpt><trkpt lat="43.69156539911005" lon="6.7219658554472534"><ele>791.0</ele><time>2026-04-12T07:24:51Z</time></trkpt><trkpt lat="43.69163148270422" lon="6.721854704363686"><ele>791.0</ele><time>2026-04-12T07:24:53Z</time></trkpt><trkpt lat="43.69169829767675" lon="6.721743416676372"><ele>789.4</ele><time>2026-04-12T07:24:55Z</time></trkpt><trkpt lat="43.6917747541764" lon="6.721649449159331"><ele>787.8</ele><time>2026-04-12T07:24:57Z</time></trkpt><trkpt lat="43.6918454990877" lon="6.721548766035896"><ele>786.1999999999999</ele><time>2026-04-12T07:24:59Z</time></trkpt><trkpt lat="43.69191197496807" lon="6.721454633055784"><ele>784.5999999999999</ele><time>2026-04-12T07:25:01Z</time></trkpt><trkpt lat="43.691992056057266" lon="6.721347180024325"><ele>783.0</ele><time>2026-04-12T07:25:04Z</time></trkpt><trkpt lat="43.69206102398887" lon="6.721249258951444"><ele>785.0</ele><time>2026-04-12T07:25:06Z</time></trkpt><trkpt lat="43.69213756042114" lon="6.721151264207293"><ele>787.0</ele><time>2026-04-12T07:25:08Z</time></trkpt><trkpt lat="43.69221182782609" lon="6.721072254825708"><ele>789.0</ele><time>2026-04-12T07:25:10Z</time></trkpt><trkpt lat="43.69228557162385" lon="6.720984561352991"><ele>791.0</ele><time>2026-04-12T07:25:12Z</time></trkpt><trkpt lat="43.69237410135986" lon="6.720914639303917"><ele>793.0</ele><time>2026-04-12T07:25:14Z</time></trkpt><trkpt lat="43.69245783491602" lon="6.720847283643072"><ele>793.0</ele><time>2026-04-12T07:25:16Z</time></trkpt><trkpt lat="43.69254143187291" lon="6.720777990913121"><ele>793.0</ele><time>2026-04-12T07:25:18Z</time></trkpt><trkpt lat="43.692617066462354" lon="6.720678973454353"><ele>793.0</ele><time>2026-04-12T07:25:20Z</time></trkpt><trkpt lat="43.69267179560697" lon="6.720555842348241"><ele>793.0</ele><time>2026-04-12T07:25:22Z</time></trkpt><trkpt lat="43.69267693748657" lon="6.7204183033295415"><ele>793.0</ele><time>2026-04-12T07:25:24Z</time></trkpt><trkpt lat="43.69265959809167" lon="6.720288547575069"><ele>793.4</ele><time>2026-04-12T07:25:26Z</time></trkpt><trkpt lat="43.69262815822259" lon="6.720161405597335"><ele>793.8</ele><time>2026-04-12T07:25:28Z</time></trkpt><trkpt lat="43.692589963332075" lon="6.720027815213782"><ele>794.2</ele><time>2026-04-12T07:25:30Z</time></trkpt><trkpt lat="43.69255719117633" lon="6.719896600210317"><ele>794.6</ele><time>2026-04-12T07:25:32Z</time></trkpt><trkpt lat="43.692514923002676" lon="6.7197633620244295"><ele>795.0</ele><time>2026-04-12T07:25:34Z</time></trkpt><trkpt lat="43.6924664890608" lon="6.719632958695476"><ele>795.0</ele><time>2026-04-12T07:25:36Z</time></trkpt><trkpt lat="43.69240862675991" lon="6.719516339132109"><ele>795.0</ele><time>2026-04-12T07:25:38Z</time></trkpt><trkpt lat="43.69234230579684" lon="6.719402199199134"><ele>795.0</ele><time>2026-04-12T07:25:40Z</time></trkpt><trkpt lat="43.692273568930524" lon="6.719292314005252"><ele>795.0</ele><time>2026-04-12T07:25:42Z</time></trkpt><trkpt lat="43.6921989700542" lon="6.719187646891838"><ele>795.0</ele><time>2026-04-12T07:25:44Z</time></trkpt><trkpt lat="43.69212693091797" lon="6.719076304437057"><ele>794.6</ele><time>2026-04-12T07:25:46Z</time></trkpt><trkpt lat="43.692050648825735" lon="6.718974926603014"><ele>794.2</ele><time>2026-04-12T07:25:47.999Z</time></trkpt><trkpt lat="43.69197668062597" lon="6.718872052379298"><ele>793.8</ele><time>2026-04-12T07:25:49.999Z</time></trkpt><trkpt lat="43.691911657420974" lon="6.718752178466676"><ele>793.4</ele><time>2026-04-12T07:25:51.999Z</time></trkpt><trkpt lat="43.69186734348427" lon="6.718632414807284"><ele>793.0</ele><time>2026-04-12T07:25:53.999Z</time></trkpt><trkpt lat="43.69183080590086" lon="6.718515919990421"><ele>794.8</ele><time>2026-04-12T07:25:55.999Z</time></trkpt><trkpt lat="43.69179956943402" lon="6.718403178887885"><ele>796.5999999999999</ele><time>2026-04-12T07:25:57.999Z</time></trkpt><trkpt lat="43.691765091315055" lon="6.718288565881538"><ele>798.4000000000001</ele><time>2026-04-12T07:25:59.999Z</time></trkpt><trkpt lat="43.69172540009678" lon="6.718146917149505"><ele>800.2</ele><time>2026-04-12T07:26:02.999Z</time></trkpt><trkpt lat="43.69169328677161" lon="6.7180226118127635"><ele>802.0</ele><time>2026-04-12T07:26:04.999Z</time></trkpt><trkpt lat="43.691677774166116" lon="6.71791648645117"><ele>802.75</ele><time>2026-04-12T07:26:06.999Z</time></trkpt><trkpt lat="43.691657555766454" lon="6.717646698843623"><ele>803.5</ele><time>2026-04-12T07:26:09.999Z</time></trkpt><trkpt lat="43.69165500297571" lon="6.7175158583860455"><ele>804.25</ele><time>2026-04-12T07:26:11.999Z</time></trkpt><trkpt lat="43.691665733516956" lon="6.717376105084373"><ele>805.0</ele><time>2026-04-12T07:26:13.999Z</time></trkpt><trkpt lat="43.69170236406054" lon="6.717232948357999"><ele>804.9999999999999</ele><time>2026-04-12T07:26:15.999Z</time></trkpt><trkpt lat="43.69174412208338" lon="6.7170855562947445"><ele>805.0</ele><time>2026-04-12T07:26:17.999Z</time></trkpt><trkpt lat="43.691767458275976" lon="6.717002548961505"><ele>805.0</ele><time>2026-04-12T07:26:18.999Z</time></trkpt><trkpt lat="43.69179372422509" lon="6.716919509916945"><ele>805.0</ele><time>2026-04-12T07:26:19.999Z</time></trkpt><trkpt lat="43.69182331118416" lon="6.716831597804504"><ele>804.9999999999999</ele><time>2026-04-12T07:26:20.999Z</time></trkpt><trkpt lat="43.691857930730116" lon="6.7167397783534595"><ele>805.0</ele><time>2026-04-12T07:26:21.999Z</time></trkpt><trkpt lat="43.69189444992728" lon="6.71664722997727"><ele>805.9999999999999</ele><time>2026-04-12T07:26:22.999Z</time></trkpt><trkpt lat="43.69193783890852" lon="6.716540995264007"><ele>807.0</ele><time>2026-04-12T07:26:23.999Z</time></trkpt><trkpt lat="43.69199110118619" lon="6.7164393149089445"><ele>808.0</ele><time>2026-04-12T07:26:24.999Z</time></trkpt><trkpt lat="43.692045967440556" lon="6.716341460955708"><ele>809.0</ele><time>2026-04-12T07:26:25.999Z</time></trkpt><trkpt lat="43.69209838839836" lon="6.716236343202776"><ele>809.9999999999999</ele><time>2026-04-12T07:26:26.999Z</time></trkpt><trkpt lat="43.69214477493049" lon="6.716148375416444"><ele>811.0</ele><time>2026-04-12T07:26:27.999Z</time></trkpt><trkpt lat="43.69220148581393" lon="6.7160491743938495"><ele>811.0</ele><time>2026-04-12T07:26:28.999Z</time></trkpt><trkpt lat="43.69226069582773" lon="6.715949891394892"><ele>811.0</ele><time>2026-04-12T07:26:29.999Z</time></trkpt><trkpt lat="43.69231134139293" lon="6.715847240835409"><ele>811.0</ele><time>2026-04-12T07:26:30.999Z</time></trkpt><trkpt lat="43.69235919663414" lon="6.715742362181206"><ele>811.0</ele><time>2026-04-12T07:26:31.999Z</time></trkpt><trkpt lat="43.69240203207015" lon="6.71563382323548"><ele>811.0</ele><time>2026-04-12T07:26:32.999Z</time></trkpt><trkpt lat="43.692438742952085" lon="6.715522104526335"><ele>810.9999999999999</ele><time>2026-04-12T07:26:33.999Z</time></trkpt><trkpt lat="43.69246452390058" lon="6.715418176306291"><ele>811.0</ele><time>2026-04-12T07:26:34.999Z</time></trkpt><trkpt lat="43.692484305834725" lon="6.715318927834136"><ele>811.0</ele><time>2026-04-12T07:26:35.999Z</time></trkpt><trkpt lat="43.69248396899058" lon="6.7152056288811055"><ele>811.0</ele><time>2026-04-12T07:26:36.999Z</time></trkpt><trkpt lat="43.69245610291147" lon="6.71508840752207"><ele>810.9999999999999</ele><time>2026-04-12T07:26:37.999Z</time></trkpt><trkpt lat="43.692440402248145" lon="6.714980439127375"><ele>811.0</ele><time>2026-04-12T07:26:38.999Z</time></trkpt><trkpt lat="43.692330146392024" lon="6.7149289983323115"><ele>810.1999999999999</ele><time>2026-04-12T07:26:39.999Z</time></trkpt><trkpt lat="43.69227923072805" lon="6.7147666505676575"><ele>809.4</ele><time>2026-04-12T07:26:42.999Z</time></trkpt><trkpt lat="43.69235201276915" lon="6.7146736342520725"><ele>808.6</ele><time>2026-04-12T07:26:43.999Z</time></trkpt><trkpt lat="43.692387373263045" lon="6.714530852067246"><ele>807.8</ele><time>2026-04-12T07:26:44.999Z</time></trkpt><trkpt lat="43.69241754338578" lon="6.714409027681141"><ele>807.0</ele><time>2026-04-12T07:26:46Z</time></trkpt><trkpt lat="43.69244826190022" lon="6.714286672453609"><ele>806.8</ele><time>2026-04-12T07:26:48Z</time></trkpt><trkpt lat="43.692473714735115" lon="6.714182605021657"><ele>806.6</ele><time>2026-04-12T07:26:49Z</time></trkpt><trkpt lat="43.69250410317727" lon="6.714059519512466"><ele>806.4</ele><time>2026-04-12T07:26:50Z</time></trkpt><trkpt lat="43.69253444120255" lon="6.713940528643142"><ele>806.1999999999999</ele><time>2026-04-12T07:26:51Z</time></trkpt><trkpt lat="43.69256317346065" lon="6.713808821908709"><ele>806.0</ele><time>2026-04-12T07:26:52Z</time></trkpt><trkpt lat="43.69259061252679" lon="6.713687565977114"><ele>805.4</ele><time>2026-04-12T07:26:53Z</time></trkpt><trkpt lat="43.69255697604222" lon="6.713552256686544"><ele>804.8</ele><time>2026-04-12T07:26:54Z</time></trkpt><trkpt lat="43.6924878997887" lon="6.713438560683044"><ele>804.1999999999999</ele><time>2026-04-12T07:26:55Z</time></trkpt><trkpt lat="43.69239757371966" lon="6.713344601532233"><ele>803.5999999999999</ele><time>2026-04-12T07:26:56Z</time></trkpt><trkpt lat="43.69230524746949" lon="6.713249781748657"><ele>803.0</ele><time>2026-04-12T07:26:57Z</time></trkpt><trkpt lat="43.692211555506574" lon="6.713151253883137"><ele>803.0</ele><time>2026-04-12T07:26:58Z</time></trkpt><trkpt lat="43.69211610582294" lon="6.713050503417611"><ele>803.0</ele><time>2026-04-12T07:26:59Z</time></trkpt><trkpt lat="43.69202149325476" lon="6.712951613771077"><ele>803.0</ele><time>2026-04-12T07:27:00Z</time></trkpt><trkpt lat="43.69192894552229" lon="6.712841591163944"><ele>803.0</ele><time>2026-04-12T07:27:01Z</time></trkpt><trkpt lat="43.69182847030947" lon="6.712726997290476"><ele>801.5</ele><time>2026-04-12T07:27:02Z</time></trkpt><trkpt lat="43.691729120765174" lon="6.7126160959036065"><ele>800.0</ele><time>2026-04-12T07:27:03Z</time></trkpt><trkpt lat="43.69162760319352" lon="6.712502006234314"><ele>798.5</ele><time>2026-04-12T07:27:04Z</time></trkpt><trkpt lat="43.69152315940917" lon="6.712381753547158"><ele>797.0</ele><time>2026-04-12T07:27:05Z</time></trkpt><trkpt lat="43.6914216804331" lon="6.71226750710649"><ele>797.0</ele><time>2026-04-12T07:27:06Z</time></trkpt><trkpt lat="43.69131809554374" lon="6.712151270340262"><ele>797.0</ele><time>2026-04-12T07:27:07Z</time></trkpt><trkpt lat="43.69121349065181" lon="6.7120281318796815"><ele>797.0</ele><time>2026-04-12T07:27:08Z</time></trkpt><trkpt lat="43.69110639219757" lon="6.711901874020648"><ele>797.0</ele><time>2026-04-12T07:27:09Z</time></trkpt><trkpt lat="43.69099898652805" lon="6.711777162365067"><ele>796.25</ele><time>2026-04-12T07:27:10Z</time></trkpt><trkpt lat="43.69089614474323" lon="6.711652660588889"><ele>795.5</ele><time>2026-04-12T07:27:11Z</time></trkpt><trkpt lat="43.69079405690568" lon="6.711527876294684"><ele>794.75</ele><time>2026-04-12T07:27:12Z</time></trkpt><trkpt lat="43.6906907476147" lon="6.711405368866158"><ele>794.0</ele><time>2026-04-12T07:27:13Z</time></trkpt><trkpt lat="43.690589547911486" lon="6.711280269552103"><ele>794.0</ele><time>2026-04-12T07:27:14Z</time></trkpt><trkpt lat="43.690491182421624" lon="6.711155382283403"><ele>794.0</ele><time>2026-04-12T07:27:15Z</time></trkpt><trkpt lat="43.69039320866628" lon="6.711033054498983"><ele>794.0</ele><time>2026-04-12T07:27:16Z</time></trkpt><trkpt lat="43.69029509768707" lon="6.710910018419525"><ele>794.0</ele><time>2026-04-12T07:27:17Z</time></trkpt><trkpt lat="43.690197707615475" lon="6.7107904271632925"><ele>793.5</ele><time>2026-04-12T07:27:18Z</time></trkpt><trkpt lat="43.690098573574616" lon="6.710675913962341"><ele>793.0</ele><time>2026-04-12T07:27:19Z</time></trkpt><trkpt lat="43.689997806463865" lon="6.710570261000663"><ele>792.5</ele><time>2026-04-12T07:27:20Z</time></trkpt><trkpt lat="43.68990024994952" lon="6.710469972113463"><ele>792.0</ele><time>2026-04-12T07:27:21Z</time></trkpt><trkpt lat="43.68981208890634" lon="6.710365585511375"><ele>792.0</ele><time>2026-04-12T07:27:22Z</time></trkpt><trkpt lat="43.68972307357741" lon="6.710261310666627"><ele>792.0</ele><time>2026-04-12T07:27:23Z</time></trkpt><trkpt lat="43.689640452026396" lon="6.710157832208647"><ele>792.0</ele><time>2026-04-12T07:27:24Z</time></trkpt><trkpt lat="43.68956103752566" lon="6.710057392235614"><ele>792.0</ele><time>2026-04-12T07:27:25Z</time></trkpt><trkpt lat="43.689479397164064" lon="6.709967509619638"><ele>792.0</ele><time>2026-04-12T07:27:26Z</time></trkpt><trkpt lat="43.68940242774775" lon="6.709880597913058"><ele>792.2</ele><time>2026-04-12T07:27:27Z</time></trkpt><trkpt lat="43.689328347768" lon="6.709796016849415"><ele>792.4000000000001</ele><time>2026-04-12T07:27:28Z</time></trkpt><trkpt lat="43.68925647786809" lon="6.709713957779633"><ele>792.5999999999999</ele><time>2026-04-12T07:27:29Z</time></trkpt><trkpt lat="43.68918704673794" lon="6.709634339545212"><ele>792.8</ele><time>2026-04-12T07:27:30Z</time></trkpt><trkpt lat="43.689114181251306" lon="6.709557412176623"><ele>793.0</ele><time>2026-04-12T07:27:31Z</time></trkpt><trkpt lat="43.689042407640486" lon="6.7094766207460275"><ele>795.8333333333333</ele><time>2026-04-12T07:27:32Z</time></trkpt><trkpt lat="43.688975255061784" lon="6.709397557868551"><ele>798.6666666666666</ele><time>2026-04-12T07:27:33Z</time></trkpt><trkpt lat="43.688910256278206" lon="6.709315906229461"><ele>801.5</ele><time>2026-04-12T07:27:34Z</time></trkpt><trkpt lat="43.688840673902675" lon="6.709246112936191"><ele>804.3333333333333</ele><time>2026-04-12T07:27:35Z</time></trkpt><trkpt lat="43.68876620644271" lon="6.709189316197487"><ele>807.1666666666666</ele><time>2026-04-12T07:27:36Z</time></trkpt><trkpt lat="43.688687981535764" lon="6.70914100648973"><ele>810.0</ele><time>2026-04-12T07:27:37Z</time></trkpt><trkpt lat="43.68860470881391" lon="6.709090123257274"><ele>808.8333333333334</ele><time>2026-04-12T07:27:38Z</time></trkpt><trkpt lat="43.688527204298325" lon="6.709048693680172"><ele>807.6666666666667</ele><time>2026-04-12T07:27:39Z</time></trkpt><trkpt lat="43.68844996008068" lon="6.709000124668176"><ele>806.5</ele><time>2026-04-12T07:27:40Z</time></trkpt><trkpt lat="43.68838063626301" lon="6.708932647068356"><ele>805.3333333333334</ele><time>2026-04-12T07:27:41Z</time></trkpt><trkpt lat="43.6883159504463" lon="6.708853287652828"><ele>804.1666666666667</ele><time>2026-04-12T07:27:42Z</time></trkpt><trkpt lat="43.68825851244818" lon="6.708775760120423"><ele>803.0</ele><time>2026-04-12T07:27:43Z</time></trkpt><trkpt lat="43.688200777870684" lon="6.708696669513597"><ele>803.0000000000001</ele><time>2026-04-12T07:27:44Z</time></trkpt><trkpt lat="43.688143011220454" lon="6.708616289933254"><ele>803.0</ele><time>2026-04-12T07:27:45Z</time></trkpt><trkpt lat="43.688082380023296" lon="6.708540003999488"><ele>803.0</ele><time>2026-04-12T07:27:46Z</time></trkpt><trkpt lat="43.6880248728107" lon="6.70846937020012"><ele>803.0</ele><time>2026-04-12T07:27:47Z</time></trkpt><trkpt lat="43.68797356172207" lon="6.70839958617217"><ele>803.0000000000001</ele><time>2026-04-12T07:27:48Z</time></trkpt><trkpt lat="43.68792116196503" lon="6.708328167557507"><ele>803.0</ele><time>2026-04-12T07:27:49Z</time></trkpt><trkpt lat="43.68787109719846" lon="6.7082602124165955"><ele>803.2857142857142</ele><time>2026-04-12T07:27:50Z</time></trkpt><trkpt lat="43.68782034582335" lon="6.708191858061209"><ele>803.5714285714286</ele><time>2026-04-12T07:27:51Z</time></trkpt><trkpt lat="43.687769990144545" lon="6.708124537266608"><ele>803.8571428571429</ele><time>2026-04-12T07:27:52Z</time></trkpt><trkpt lat="43.687717370998115" lon="6.708056220784683"><ele>804.1428571428571</ele><time>2026-04-12T07:27:53Z</time></trkpt><trkpt lat="43.68766891983791" lon="6.7079931140122415"><ele>804.4285714285714</ele><time>2026-04-12T07:27:54Z</time></trkpt><trkpt lat="43.68761810236817" lon="6.707926857097649"><ele>804.7142857142857</ele><time>2026-04-12T07:27:55Z</time></trkpt><trkpt lat="43.687561593351745" lon="6.707849301506838"><ele>805.0</ele><time>2026-04-12T07:27:55.999Z</time></trkpt><trkpt lat="43.68750832499962" lon="6.70777477424054"><ele>805.9999999999999</ele><time>2026-04-12T07:27:56.999Z</time></trkpt><trkpt lat="43.68744829851235" lon="6.707703998163559"><ele>807.0</ele><time>2026-04-12T07:27:57.999Z</time></trkpt><trkpt lat="43.687384234688864" lon="6.707625590984475"><ele>808.0</ele><time>2026-04-12T07:27:58.999Z</time></trkpt><trkpt lat="43.68732328673592" lon="6.707543739578908"><ele>809.0</ele><time>2026-04-12T07:27:59.999Z</time></trkpt><trkpt lat="43.68726489572859" lon="6.707456710066961"><ele>809.9999999999999</ele><time>2026-04-12T07:28:00.999Z</time></trkpt><trkpt lat="43.687202559253784" lon="6.707369587948587"><ele>811.0</ele><time>2026-04-12T07:28:01.999Z</time></trkpt><trkpt lat="43.6871336456863" lon="6.707284529403553"><ele>811.0</ele><time>2026-04-12T07:28:02.999Z</time></trkpt><trkpt lat="43.687063893674285" lon="6.707200070643791"><ele>811.0</ele><time>2026-04-12T07:28:03.999Z</time></trkpt><trkpt lat="43.686992935574345" lon="6.707107849175951"><ele>811.0</ele><time>2026-04-12T07:28:04.999Z</time></trkpt><trkpt lat="43.686927770133835" lon="6.707010347585265"><ele>811.0</ele><time>2026-04-12T07:28:05.999Z</time></trkpt><trkpt lat="43.686866626638036" lon="6.706903430522181"><ele>811.0</ele><time>2026-04-12T07:28:06.999Z</time></trkpt><trkpt lat="43.686826916483014" lon="6.706777740828126"><ele>808.4</ele><time>2026-04-12T07:28:07.999Z</time></trkpt><trkpt lat="43.68679946690254" lon="6.706643981343395"><ele>805.8</ele><time>2026-04-12T07:28:08.999Z</time></trkpt><trkpt lat="43.68676743438009" lon="6.706505539751227"><ele>803.1999999999999</ele><time>2026-04-12T07:28:09.999Z</time></trkpt><trkpt lat="43.68671666570148" lon="6.706371033516697"><ele>800.5999999999999</ele><time>2026-04-12T07:28:10.999Z</time></trkpt><trkpt lat="43.68664294731347" lon="6.7062437173394756"><ele>798.0</ele><time>2026-04-12T07:28:11.999Z</time></trkpt><trkpt lat="43.68656129711128" lon="6.706126164946228"><ele>800.75</ele><time>2026-04-12T07:28:12.999Z</time></trkpt><trkpt lat="43.68648528825974" lon="6.706004520271195"><ele>803.5</ele><time>2026-04-12T07:28:13.999Z</time></trkpt><trkpt lat="43.68643338152117" lon="6.705849134846679"><ele>806.25</ele><time>2026-04-12T07:28:14.999Z</time></trkpt><trkpt lat="43.68634815666983" lon="6.705725528419018"><ele>809.0</ele><time>2026-04-12T07:28:15.999Z</time></trkpt><trkpt lat="43.686258653732146" lon="6.7056048400103485"><ele>809.0</ele><time>2026-04-12T07:28:16.999Z</time></trkpt><trkpt lat="43.68616078723943" lon="6.705495698768725"><ele>809.0</ele><time>2026-04-12T07:28:17.999Z</time></trkpt><trkpt lat="43.686082891959586" lon="6.705359691970956"><ele>809.0</ele><time>2026-04-12T07:28:18.999Z</time></trkpt><trkpt lat="43.686024596322824" lon="6.7052027330594575"><ele>809.0</ele><time>2026-04-12T07:28:19.999Z</time></trkpt><trkpt lat="43.685963854635155" lon="6.705037050951589"><ele>807.25</ele><time>2026-04-12T07:28:20.999Z</time></trkpt><trkpt lat="43.68589402440161" lon="6.704878196813961"><ele>805.5</ele><time>2026-04-12T07:28:21.999Z</time></trkpt><trkpt lat="43.68583892350769" lon="6.704712154689981"><ele>803.75</ele><time>2026-04-12T07:28:22.999Z</time></trkpt><trkpt lat="43.68577919958715" lon="6.70455199686448"><ele>802.0</ele><time>2026-04-12T07:28:23.999Z</time></trkpt><trkpt lat="43.685725991369175" lon="6.704390722190823"><ele>802.0</ele><time>2026-04-12T07:28:24.999Z</time></trkpt><trkpt lat="43.685669959297066" lon="6.704227833147098"><ele>802.0</ele><time>2026-04-12T07:28:25.999Z</time></trkpt><trkpt lat="43.68561090968405" lon="6.7040592873729965"><ele>802.0</ele><time>2026-04-12T07:28:26.999Z</time></trkpt><trkpt lat="43.68555352456472" lon="6.703898777641114"><ele>802.0</ele><time>2026-04-12T07:28:27.999Z</time></trkpt><trkpt lat="43.68549145701314" lon="6.7037351741492905"><ele>804.25</ele><time>2026-04-12T07:28:28.999Z</time></trkpt><trkpt lat="43.68542879283361" lon="6.7035762300034065"><ele>806.5</ele><time>2026-04-12T07:28:29.999Z</time></trkpt><trkpt lat="43.68535883090053" lon="6.703417747135685"><ele>808.75</ele><time>2026-04-12T07:28:30.999Z</time></trkpt><trkpt lat="43.68530223152528" lon="6.703257686157968"><ele>811.0</ele><time>2026-04-12T07:28:31.999Z</time></trkpt><trkpt lat="43.685197524508766" lon="6.703141721719533"><ele>803.25</ele><time>2026-04-12T07:28:32.999Z</time></trkpt><trkpt lat="43.685078320319505" lon="6.703052319008227"><ele>795.5</ele><time>2026-04-12T07:28:33.999Z</time></trkpt><trkpt lat="43.68495388927544" lon="6.702974017475421"><ele>787.75</ele><time>2026-04-12T07:28:34.999Z</time></trkpt><trkpt lat="43.684837163189634" lon="6.702879593864259"><ele>780.0</ele><time>2026-04-12T07:28:35.999Z</time></trkpt><trkpt lat="43.684711573661794" lon="6.702822446640688"><ele>777.75</ele><time>2026-04-12T07:28:36.999Z</time></trkpt><trkpt lat="43.68459865929599" lon="6.702736087478704"><ele>775.5</ele><time>2026-04-12T07:28:37.999Z</time></trkpt><trkpt lat="43.6844982983158" lon="6.702627879529029"><ele>773.25</ele><time>2026-04-12T07:28:38.999Z</time></trkpt><trkpt lat="43.684404907297996" lon="6.702498078696548"><ele>771.0</ele><time>2026-04-12T07:28:39.999Z</time></trkpt><trkpt lat="43.68432943869776" lon="6.702341329415928"><ele>771.0</ele><time>2026-04-12T07:28:40.999Z</time></trkpt><trkpt lat="43.68423693943106" lon="6.702198568198606"><ele>771.0</ele><time>2026-04-12T07:28:41.999Z</time></trkpt><trkpt lat="43.68414234159835" lon="6.7020459681075115"><ele>771.0</ele><time>2026-04-12T07:28:42.999Z</time></trkpt><trkpt lat="43.68403736271453" lon="6.701902657584563"><ele>771.0</ele><time>2026-04-12T07:28:43.999Z</time></trkpt><trkpt lat="43.683921730577126" lon="6.701773099420956"><ele>768.0</ele><time>2026-04-12T07:28:44.999Z</time></trkpt><trkpt lat="43.68380546968894" lon="6.701644490512523"><ele>765.0</ele><time>2026-04-12T07:28:45.999Z</time></trkpt><trkpt lat="43.68370418351023" lon="6.701496264557541"><ele>762.0</ele><time>2026-04-12T07:28:46.999Z</time></trkpt><trkpt lat="43.68359396786575" lon="6.70136301183041"><ele>759.0</ele><time>2026-04-12T07:28:47.999Z</time></trkpt><trkpt lat="43.68348955157817" lon="6.70122494764116"><ele>761.3333333333334</ele><time>2026-04-12T07:28:48.999Z</time></trkpt><trkpt lat="43.68339381285643" lon="6.7010640793096075"><ele>763.6666666666667</ele><time>2026-04-12T07:28:49.999Z</time></trkpt><trkpt lat="43.68334115256547" lon="6.700862310355219"><ele>766.0</ele><time>2026-04-12T07:28:50.999Z</time></trkpt><trkpt lat="43.68333207220087" lon="6.700642483478024"><ele>766.0</ele><time>2026-04-12T07:28:52Z</time></trkpt><trkpt lat="43.683296582638526" lon="6.700435137962922"><ele>766.0</ele><time>2026-04-12T07:28:53Z</time></trkpt><trkpt lat="43.68327806310409" lon="6.700230727027055"><ele>766.0</ele><time>2026-04-12T07:28:54Z</time></trkpt><trkpt lat="43.68326619935635" lon="6.700021922351529"><ele>765.6666666666667</ele><time>2026-04-12T07:28:55Z</time></trkpt><trkpt lat="43.6832487401806" lon="6.699810565332409"><ele>765.3333333333334</ele><time>2026-04-12T07:28:56Z</time></trkpt><trkpt lat="43.68322680515885" lon="6.69960214812805"><ele>765.0</ele><time>2026-04-12T07:28:57Z</time></trkpt><trkpt lat="43.68319246762893" lon="6.699402776233661"><ele>764.6666666666666</ele><time>2026-04-12T07:28:58Z</time></trkpt><trkpt lat="43.68314187244512" lon="6.699204634506969"><ele>764.3333333333333</ele><time>2026-04-12T07:28:59Z</time></trkpt><trkpt lat="43.6830403367341" lon="6.699040414684649"><ele>764.0</ele><time>2026-04-12T07:29:00Z</time></trkpt><trkpt lat="43.682940817827124" lon="6.698877783274281"><ele>764.0</ele><time>2026-04-12T07:29:01Z</time></trkpt><trkpt lat="43.68284099282831" lon="6.698716332928834"><ele>764.0</ele><time>2026-04-12T07:29:02Z</time></trkpt><trkpt lat="43.68274292678726" lon="6.698554406882006"><ele>764.0</ele><time>2026-04-12T07:29:03Z</time></trkpt><trkpt lat="43.6826521110682" lon="6.698386731117033"><ele>760.3333333333333</ele><time>2026-04-12T07:29:04Z</time></trkpt><trkpt lat="43.682561758120016" lon="6.698219955683023"><ele>756.6666666666666</ele><time>2026-04-12T07:29:05Z</time></trkpt><trkpt lat="43.68246083666555" lon="6.698060728509637"><ele>753.0</ele><time>2026-04-12T07:29:06Z</time></trkpt><trkpt lat="43.68235786079198" lon="6.697898296704359"><ele>753.0</ele><time>2026-04-12T07:29:07Z</time></trkpt><trkpt lat="43.68222704112716" lon="6.697770218810806"><ele>753.0</ele><time>2026-04-12T07:29:08Z</time></trkpt><trkpt lat="43.682083083839544" lon="6.697659383709118"><ele>753.0</ele><time>2026-04-12T07:29:09Z</time></trkpt><trkpt lat="43.68194069601039" lon="6.697552027121293"><ele>750.3333333333334</ele><time>2026-04-12T07:29:10Z</time></trkpt><trkpt lat="43.68179838767839" lon="6.697442901363217"><ele>747.6666666666667</ele><time>2026-04-12T07:29:11Z</time></trkpt><trkpt lat="43.68165605978311" lon="6.697333760573521"><ele>745.0</ele><time>2026-04-12T07:29:12Z</time></trkpt><trkpt lat="43.68151523718465" lon="6.697225068103459"><ele>745.0</ele><time>2026-04-12T07:29:13Z</time></trkpt><trkpt lat="43.68137505276707" lon="6.6971161963491825"><ele>745.0</ele><time>2026-04-12T07:29:14Z</time></trkpt><trkpt lat="43.68123581713586" lon="6.6970080614502985"><ele>745.0</ele><time>2026-04-12T07:29:15Z</time></trkpt><trkpt lat="43.68108904149864" lon="6.696918338806402"><ele>741.3333333333334</ele><time>2026-04-12T07:29:16Z</time></trkpt><trkpt lat="43.68095154212123" lon="6.696809552656181"><ele>737.6666666666666</ele><time>2026-04-12T07:29:17Z</time></trkpt><trkpt lat="43.68081702328429" lon="6.69670145990554"><ele>734.0</ele><time>2026-04-12T07:29:18Z</time></trkpt><trkpt lat="43.68069243714789" lon="6.696607362402366"><ele>734.0</ele><time>2026-04-12T07:29:19Z</time></trkpt><trkpt lat="43.68056588735276" lon="6.696506812348301"><ele>734.0</ele><time>2026-04-12T07:29:20Z</time></trkpt><trkpt lat="43.68041150086815" lon="6.69651589669631"><ele>734.0</ele><time>2026-04-12T07:29:21Z</time></trkpt><trkpt lat="43.680260120171965" lon="6.696520445145894"><ele>732.25</ele><time>2026-04-12T07:29:22Z</time></trkpt><trkpt lat="43.68013197303081" lon="6.69656606225003"><ele>730.5</ele><time>2026-04-12T07:29:23Z</time></trkpt><trkpt lat="43.680015373288576" lon="6.6966034387175055"><ele>728.75</ele><time>2026-04-12T07:29:24Z</time></trkpt><trkpt lat="43.67991332670755" lon="6.696623049535729"><ele>727.0</ele><time>2026-04-12T07:29:25Z</time></trkpt><trkpt lat="43.679818101876585" lon="6.696592052131304"><ele>727.0</ele><time>2026-04-12T07:29:26Z</time></trkpt><trkpt lat="43.67973918849796" lon="6.696502910100619"><ele>727.0</ele><time>2026-04-12T07:29:27Z</time></trkpt><trkpt lat="43.679735741670946" lon="6.696364393061619"><ele>727.0</ele><time>2026-04-12T07:29:28Z</time></trkpt><trkpt lat="43.6797488493114" lon="6.696229668064375"><ele>727.0</ele><time>2026-04-12T07:29:29Z</time></trkpt><trkpt lat="43.67983772201649" lon="6.696132096771626"><ele>727.0</ele><time>2026-04-12T07:29:30Z</time></trkpt><trkpt lat="43.679917493233106" lon="6.6960434420723285"><ele>727.0</ele><time>2026-04-12T07:29:31Z</time></trkpt><trkpt lat="43.68000207756993" lon="6.6959479480236475"><ele>727.0</ele><time>2026-04-12T07:29:32Z</time></trkpt><trkpt lat="43.68008870176779" lon="6.695851136445913"><ele>727.0</ele><time>2026-04-12T07:29:33Z</time></trkpt><trkpt lat="43.68018065757307" lon="6.6957524076764585"><ele>727.0</ele><time>2026-04-12T07:29:34Z</time></trkpt><trkpt lat="43.680270901107846" lon="6.695644833967688"><ele>727.0</ele><time>2026-04-12T07:29:35Z</time></trkpt><trkpt lat="43.68038078144103" lon="6.695568537315409"><ele>727.0</ele><time>2026-04-12T07:29:36Z</time></trkpt><trkpt lat="43.680503759566705" lon="6.695521556707717"><ele>727.0</ele><time>2026-04-12T07:29:37Z</time></trkpt><trkpt lat="43.680630039025154" lon="6.695461854056175"><ele>727.0</ele><time>2026-04-12T07:29:38Z</time></trkpt><trkpt lat="43.68074653570205" lon="6.69536436684099"><ele>724.5</ele><time>2026-04-12T07:29:39Z</time></trkpt><trkpt lat="43.68085319338405" lon="6.695238438010695"><ele>722.0</ele><time>2026-04-12T07:29:40Z</time></trkpt><trkpt lat="43.6809532041667" lon="6.695107519492318"><ele>719.5</ele><time>2026-04-12T07:29:41Z</time></trkpt><trkpt lat="43.681055292017696" lon="6.695010643818317"><ele>717.0</ele><time>2026-04-12T07:29:42Z</time></trkpt><trkpt lat="43.68114685867351" lon="6.694900481054531"><ele>716.75</ele><time>2026-04-12T07:29:43Z</time></trkpt><trkpt lat="43.68127135875133" lon="6.694905637409234"><ele>716.5</ele><time>2026-04-12T07:29:44Z</time></trkpt><trkpt lat="43.68139270308693" lon="6.694949589940668"><ele>716.25</ele><time>2026-04-12T07:29:45Z</time></trkpt><trkpt lat="43.68151988798017" lon="6.694981196718504"><ele>716.0</ele><time>2026-04-12T07:29:46Z</time></trkpt><trkpt lat="43.68162914045061" lon="6.695051790532355"><ele>716.0</ele><time>2026-04-12T07:29:47Z</time></trkpt><trkpt lat="43.68173530749523" lon="6.695099025508433"><ele>716.0</ele><time>2026-04-12T07:29:48Z</time></trkpt><trkpt lat="43.68184208968322" lon="6.695120004343658"><ele>716.0</ele><time>2026-04-12T07:29:49Z</time></trkpt><trkpt lat="43.68194834371633" lon="6.69507125629105"><ele>716.0</ele><time>2026-04-12T07:29:50Z</time></trkpt><trkpt lat="43.682023504565635" lon="6.694943708373797"><ele>715.25</ele><time>2026-04-12T07:29:51Z</time></trkpt><trkpt lat="43.68205152278181" lon="6.694764845474892"><ele>714.5</ele><time>2026-04-12T07:29:52Z</time></trkpt><trkpt lat="43.68207851974769" lon="6.694593307370454"><ele>713.75</ele><time>2026-04-12T07:29:53Z</time></trkpt><trkpt lat="43.68211062998161" lon="6.694422289838708"><ele>713.0</ele><time>2026-04-12T07:29:54Z</time></trkpt><trkpt lat="43.6821551256132" lon="6.694254100244328"><ele>713.0</ele><time>2026-04-12T07:29:55Z</time></trkpt><trkpt lat="43.682205789043486" lon="6.694085350708576"><ele>713.0</ele><time>2026-04-12T07:29:56Z</time></trkpt><trkpt lat="43.682288220883436" lon="6.693934597873525"><ele>713.0</ele><time>2026-04-12T07:29:57Z</time></trkpt><trkpt lat="43.68236359841888" lon="6.693774162012236"><ele>713.0</ele><time>2026-04-12T07:29:58Z</time></trkpt><trkpt lat="43.682443466332174" lon="6.693617867973108"><ele>712.25</ele><time>2026-04-12T07:29:59Z</time></trkpt><trkpt lat="43.68253333667488" lon="6.693487852872171"><ele>711.5</ele><time>2026-04-12T07:30:00Z</time></trkpt><trkpt lat="43.682649831150634" lon="6.693403822470454"><ele>710.75</ele><time>2026-04-12T07:30:01Z</time></trkpt><trkpt lat="43.68278082549177" lon="6.693326447277251"><ele>710.0</ele><time>2026-04-12T07:30:02Z</time></trkpt><trkpt lat="43.682915751555164" lon="6.6932470166331965"><ele>710.0</ele><time>2026-04-12T07:30:03Z</time></trkpt><trkpt lat="43.68303872756118" lon="6.693158449601659"><ele>710.0</ele><time>2026-04-12T07:30:03.999Z</time></trkpt><trkpt lat="43.683152415898824" lon="6.69308864916933"><ele>710.0</ele><time>2026-04-12T07:30:04.999Z</time></trkpt><trkpt lat="43.68323763563791" lon="6.692976321071202"><ele>710.0</ele><time>2026-04-12T07:30:05.999Z</time></trkpt><trkpt lat="43.68331470120803" lon="6.692835494254651"><ele>708.75</ele><time>2026-04-12T07:30:06.999Z</time></trkpt><trkpt lat="43.683386215557626" lon="6.692689186052747"><ele>707.5</ele><time>2026-04-12T07:30:07.999Z</time></trkpt><trkpt lat="43.68345761294049" lon="6.692544530148926"><ele>706.25</ele><time>2026-04-12T07:30:08.999Z</time></trkpt><trkpt lat="43.68353097088151" lon="6.692401547357731"><ele>705.0</ele><time>2026-04-12T07:30:09.999Z</time></trkpt><trkpt lat="43.68362918837262" lon="6.692291724900614"><ele>705.0</ele><time>2026-04-12T07:30:10.999Z</time></trkpt><trkpt lat="43.68372497994751" lon="6.692206800266819"><ele>705.0</ele><time>2026-04-12T07:30:11.999Z</time></trkpt><trkpt lat="43.68381690665968" lon="6.692108148186427"><ele>705.0</ele><time>2026-04-12T07:30:12.999Z</time></trkpt><trkpt lat="43.6839063359161" lon="6.692028881231321"><ele>705.0</ele><time>2026-04-12T07:30:13.999Z</time></trkpt><trkpt lat="43.68393265987454" lon="6.691893529334509"><ele>705.0</ele><time>2026-04-12T07:30:14.999Z</time></trkpt><trkpt lat="43.6839006234931" lon="6.691763293057503"><ele>702.6</ele><time>2026-04-12T07:30:15.999Z</time></trkpt><trkpt lat="43.683817630729195" lon="6.6916742074473525"><ele>700.2</ele><time>2026-04-12T07:30:16.999Z</time></trkpt><trkpt lat="43.68375537414668" lon="6.691580058587901"><ele>697.8</ele><time>2026-04-12T07:30:17.999Z</time></trkpt><trkpt lat="43.68369225889203" lon="6.691494353373632"><ele>695.4</ele><time>2026-04-12T07:30:18.999Z</time></trkpt><trkpt lat="43.68361088042042" lon="6.691420411643976"><ele>693.0</ele><time>2026-04-12T07:30:19.999Z</time></trkpt><trkpt lat="43.68350767605526" lon="6.691428630878563"><ele>692.8333333333334</ele><time>2026-04-12T07:30:20.999Z</time></trkpt><trkpt lat="43.683417861351735" lon="6.691452444658915"><ele>692.6666666666666</ele><time>2026-04-12T07:30:21.999Z</time></trkpt><trkpt lat="43.68333691665748" lon="6.691483700900961"><ele>692.5</ele><time>2026-04-12T07:30:22.999Z</time></trkpt><trkpt lat="43.68326705435894" lon="6.691525116868698"><ele>692.3333333333333</ele><time>2026-04-12T07:30:23.999Z</time></trkpt><trkpt lat="43.68319565961929" lon="6.69155430162268"><ele>692.1666666666666</ele><time>2026-04-12T07:30:24.999Z</time></trkpt><trkpt lat="43.68312728553263" lon="6.691584507932432"><ele>692.0</ele><time>2026-04-12T07:30:25.999Z</time></trkpt><trkpt lat="43.68306252248767" lon="6.691617466325838"><ele>692.0</ele><time>2026-04-12T07:30:26.999Z</time></trkpt><trkpt lat="43.68299468306108" lon="6.691635523331005"><ele>692.0</ele><time>2026-04-12T07:30:27.999Z</time></trkpt><trkpt lat="43.68292844743281" lon="6.691640418084661"><ele>692.0</ele><time>2026-04-12T07:30:28.999Z</time></trkpt><trkpt lat="43.682812234449635" lon="6.691586808333918"><ele>692.0</ele><time>2026-04-12T07:30:30.999Z</time></trkpt><trkpt lat="43.68274461559217" lon="6.691461411786833"><ele>692.0</ele><time>2026-04-12T07:30:32.999Z</time></trkpt><trkpt lat="43.68265719101736" lon="6.6913709714163625"><ele>690.8</ele><time>2026-04-12T07:30:34.999Z</time></trkpt><trkpt lat="43.68258474299301" lon="6.69126366555772"><ele>689.6</ele><time>2026-04-12T07:30:36.999Z</time></trkpt><trkpt lat="43.68251975122591" lon="6.691149659174949"><ele>688.4</ele><time>2026-04-12T07:30:38.999Z</time></trkpt><trkpt lat="43.68244468778159" lon="6.69105618688518"><ele>687.1999999999999</ele><time>2026-04-12T07:30:40.999Z</time></trkpt><trkpt lat="43.68236483841872" lon="6.690966419706769"><ele>686.0</ele><time>2026-04-12T07:30:42.999Z</time></trkpt><trkpt lat="43.6822686797373" lon="6.690928068358307"><ele>691.4</ele><time>2026-04-12T07:30:44.999Z</time></trkpt><trkpt lat="43.68217253919974" lon="6.690892201181069"><ele>696.8</ele><time>2026-04-12T07:30:46.999Z</time></trkpt><trkpt lat="43.6820782677465" lon="6.690876400804325"><ele>702.1999999999999</ele><time>2026-04-12T07:30:48.999Z</time></trkpt><trkpt lat="43.68198678685526" lon="6.690857768145185"><ele>707.5999999999999</ele><time>2026-04-12T07:30:50.999Z</time></trkpt><trkpt lat="43.68189719919472" lon="6.690856683443775"><ele>713.0</ele><time>2026-04-12T07:30:52.999Z</time></trkpt><trkpt lat="43.68180357575996" lon="6.690851994631179"><ele>713.0</ele><time>2026-04-12T07:30:54.999Z</time></trkpt><trkpt lat="43.681714362371615" lon="6.690850025772783"><ele>713.0</ele><time>2026-04-12T07:30:56.999Z</time></trkpt><trkpt lat="43.68163495025589" lon="6.690843059602253"><ele>713.0</ele><time>2026-04-12T07:30:59Z</time></trkpt><trkpt lat="43.68155218540698" lon="6.690857769839397"><ele>713.0</ele><time>2026-04-12T07:31:01Z</time></trkpt><trkpt lat="43.68147323293554" lon="6.690875439818719"><ele>713.0</ele><time>2026-04-12T07:31:03Z</time></trkpt><trkpt lat="43.681394340666586" lon="6.690895938877438"><ele>713.0</ele><time>2026-04-12T07:31:05Z</time></trkpt><trkpt lat="43.681316994337145" lon="6.6909259888674"><ele>713.0</ele><time>2026-04-12T07:31:07Z</time></trkpt><trkpt lat="43.681243300136884" lon="6.690958541232123"><ele>713.0</ele><time>2026-04-12T07:31:09Z</time></trkpt><trkpt lat="43.68116693800799" lon="6.691002171641167"><ele>713.0</ele><time>2026-04-12T07:31:11Z</time></trkpt><trkpt lat="43.68109344340644" lon="6.691061215867146"><ele>713.0</ele><time>2026-04-12T07:31:13Z</time></trkpt><trkpt lat="43.681027638157246" lon="6.691132099644245"><ele>713.0</ele><time>2026-04-12T07:31:15Z</time></trkpt><trkpt lat="43.68096814028562" lon="6.69121251523705"><ele>713.0</ele><time>2026-04-12T07:31:17Z</time></trkpt><trkpt lat="43.680904975774354" lon="6.691282997277081"><ele>711.1666666666666</ele><time>2026-04-12T07:31:19Z</time></trkpt><trkpt lat="43.68086414295596" lon="6.691357242457472"><ele>709.3333333333333</ele><time>2026-04-12T07:31:21Z</time></trkpt><trkpt lat="43.68081439909622" lon="6.691422350942695"><ele>707.5</ele><time>2026-04-12T07:31:23Z</time></trkpt><trkpt lat="43.68074639556369" lon="6.691495705484093"><ele>705.6666666666666</ele><time>2026-04-12T07:31:25Z</time></trkpt><trkpt lat="43.680679520777964" lon="6.6915409193488005"><ele>703.8333333333334</ele><time>2026-04-12T07:31:27Z</time></trkpt><trkpt lat="43.68059888960095" lon="6.691573200512238"><ele>702.0</ele><time>2026-04-12T07:31:30Z</time></trkpt><trkpt lat="43.68049853880759" lon="6.691596880739856"><ele>702.0</ele><time>2026-04-12T07:31:33Z</time></trkpt><trkpt lat="43.68041353977659" lon="6.691613066792488"><ele>702.0</ele><time>2026-04-12T07:31:35Z</time></trkpt><trkpt lat="43.68032588338545" lon="6.691640950715083"><ele>702.0</ele><time>2026-04-12T07:31:37Z</time></trkpt><trkpt lat="43.68023849852533" lon="6.691681918228542"><ele>702.0</ele><time>2026-04-12T07:31:39Z</time></trkpt><trkpt lat="43.68017319077131" lon="6.691684016563591"><ele>702.0</ele><time>2026-04-12T07:31:41Z</time></trkpt><trkpt lat="43.68007240927998" lon="6.691690906921771"><ele>702.0</ele><time>2026-04-12T07:31:43Z</time></trkpt><trkpt lat="43.67998645463708" lon="6.691695064242786"><ele>704.6666666666666</ele><time>2026-04-12T07:31:45Z</time></trkpt><trkpt lat="43.6799026075373" lon="6.691689677975334"><ele>707.3333333333334</ele><time>2026-04-12T07:31:47Z</time></trkpt><trkpt lat="43.67982279993929" lon="6.6916917801315865"><ele>710.0</ele><time>2026-04-12T07:31:49Z</time></trkpt><trkpt lat="43.67974623941944" lon="6.691679217598012"><ele>712.6666666666667</ele><time>2026-04-12T07:31:51Z</time></trkpt><trkpt lat="43.67967057268426" lon="6.691661149298112"><ele>715.3333333333334</ele><time>2026-04-12T07:31:53Z</time></trkpt><trkpt lat="43.67959686028814" lon="6.6916375971184925"><ele>718.0</ele><time>2026-04-12T07:31:55Z</time></trkpt><trkpt lat="43.679520799879306" lon="6.691610341620747"><ele>718.0</ele><time>2026-04-12T07:31:57Z</time></trkpt><trkpt lat="43.67944473728027" lon="6.691585464311832"><ele>718.0</ele><time>2026-04-12T07:31:59Z</time></trkpt><trkpt lat="43.67936950130822" lon="6.691567885228426"><ele>718.0</ele><time>2026-04-12T07:32:01Z</time></trkpt><trkpt lat="43.679293483123814" lon="6.691537465813756"><ele>718.0</ele><time>2026-04-12T07:32:03Z</time></trkpt><trkpt lat="43.67922136800679" lon="6.69149722270805"><ele>718.0</ele><time>2026-04-12T07:32:05Z</time></trkpt><trkpt lat="43.679155471252805" lon="6.69144087081274"><ele>718.0</ele><time>2026-04-12T07:32:07Z</time></trkpt><trkpt lat="43.67909567298403" lon="6.691366600945289"><ele>719.0</ele><time>2026-04-12T07:32:08.999Z</time></trkpt><trkpt lat="43.6790468565328" lon="6.6912800476908645"><ele>720.0</ele><time>2026-04-12T07:32:10.999Z</time></trkpt><trkpt lat="43.67900320875527" lon="6.691181713619851"><ele>721.0</ele><time>2026-04-12T07:32:12.999Z</time></trkpt><trkpt lat="43.67897094461265" lon="6.691072894869515"><ele>722.0</ele><time>2026-04-12T07:32:14.999Z</time></trkpt><trkpt lat="43.67895067423126" lon="6.690950133983286"><ele>723.0</ele><time>2026-04-12T07:32:16.999Z</time></trkpt><trkpt lat="43.67894752448858" lon="6.690822578532098"><ele>724.0</ele><time>2026-04-12T07:32:18.999Z</time></trkpt><trkpt lat="43.67895477686283" lon="6.690695219810201"><ele>725.2</ele><time>2026-04-12T07:32:20.999Z</time></trkpt><trkpt lat="43.67898327620595" lon="6.690575138450314"><ele>726.4000000000001</ele><time>2026-04-12T07:32:22.999Z</time></trkpt><trkpt lat="43.67901985627551" lon="6.690456449879344"><ele>727.6</ele><time>2026-04-12T07:32:24.999Z</time></trkpt><trkpt lat="43.679061970866776" lon="6.690305513317874"><ele>728.8</ele><time>2026-04-12T07:32:27.999Z</time></trkpt><trkpt lat="43.67908310746334" lon="6.690201006436811"><ele>730.0</ele><time>2026-04-12T07:32:29.999Z</time></trkpt><trkpt lat="43.67908805472157" lon="6.690064919067568"><ele>730.4</ele><time>2026-04-12T07:32:31.999Z</time></trkpt><trkpt lat="43.67905659711341" lon="6.689930618358846"><ele>730.8</ele><time>2026-04-12T07:32:33.999Z</time></trkpt><trkpt lat="43.67901488460862" lon="6.689786061442138"><ele>731.2</ele><time>2026-04-12T07:32:35.999Z</time></trkpt><trkpt lat="43.67896036994919" lon="6.689684639596337"><ele>731.6</ele><time>2026-04-12T07:32:37.999Z</time></trkpt><trkpt lat="43.67890354405476" lon="6.689588821529137"><ele>732.0</ele><time>2026-04-12T07:32:39.999Z</time></trkpt><trkpt lat="43.67884245541829" lon="6.689489580373958"><ele>733.4000000000001</ele><time>2026-04-12T07:32:41.999Z</time></trkpt><trkpt lat="43.678782119118814" lon="6.689381538631585"><ele>734.8000000000001</ele><time>2026-04-12T07:32:43.999Z</time></trkpt><trkpt lat="43.678712329024094" lon="6.689281579657998"><ele>736.2</ele><time>2026-04-12T07:32:45.999Z</time></trkpt><trkpt lat="43.678642797924894" lon="6.68917302841159"><ele>737.6</ele><time>2026-04-12T07:32:47.999Z</time></trkpt><trkpt lat="43.678572347654544" lon="6.68905192906226"><ele>739.0</ele><time>2026-04-12T07:32:49.999Z</time></trkpt><trkpt lat="43.678497422909004" lon="6.688935491472514"><ele>737.7142857142858</ele><time>2026-04-12T07:32:51.999Z</time></trkpt><trkpt lat="43.67845002732513" lon="6.688858235606318"><ele>736.4285714285714</ele><time>2026-04-12T07:32:52.999Z</time></trkpt><trkpt lat="43.678403271909765" lon="6.688786534788064"><ele>735.1428571428571</ele><time>2026-04-12T07:32:53.999Z</time></trkpt><trkpt lat="43.6783662454578" lon="6.688715673714446"><ele>733.8571428571429</ele><time>2026-04-12T07:32:54.999Z</time></trkpt><trkpt lat="43.678324437492" lon="6.688642937753624"><ele>732.5714285714286</ele><time>2026-04-12T07:32:55.999Z</time></trkpt><trkpt lat="43.67828673200038" lon="6.688566598453492"><ele>731.2857142857143</ele><time>2026-04-12T07:32:56.999Z</time></trkpt><trkpt lat="43.678260217928816" lon="6.688479236002404"><ele>730.0</ele><time>2026-04-12T07:32:57.999Z</time></trkpt><trkpt lat="43.67824724828286" lon="6.688383527522741"><ele>730.0000000000001</ele><time>2026-04-12T07:32:58.999Z</time></trkpt><trkpt lat="43.678260413793915" lon="6.688280204844291"><ele>730.0</ele><time>2026-04-12T07:32:59.999Z</time></trkpt><trkpt lat="43.67826551395424" lon="6.68818356577415"><ele>730.0</ele><time>2026-04-12T07:33:00.999Z</time></trkpt><trkpt lat="43.678271482689645" lon="6.688077670758235"><ele>730.0</ele><time>2026-04-12T07:33:01.999Z</time></trkpt><trkpt lat="43.678265266316956" lon="6.687976827826313"><ele>730.0</ele><time>2026-04-12T07:33:02.999Z</time></trkpt><trkpt lat="43.678278182229384" lon="6.687874493162641"><ele>730.0000000000001</ele><time>2026-04-12T07:33:04Z</time></trkpt><trkpt lat="43.678284806919756" lon="6.687769641626942"><ele>730.0</ele><time>2026-04-12T07:33:05Z</time></trkpt><trkpt lat="43.67829075404998" lon="6.687662629821434"><ele>730.5</ele><time>2026-04-12T07:33:06Z</time></trkpt><trkpt lat="43.67830052702166" lon="6.687557495210999"><ele>731.0</ele><time>2026-04-12T07:33:07Z</time></trkpt><trkpt lat="43.678313220479225" lon="6.68745253738747"><ele>731.5</ele><time>2026-04-12T07:33:08Z</time></trkpt><trkpt lat="43.678323663103434" lon="6.687345625727429"><ele>732.0</ele><time>2026-04-12T07:33:09Z</time></trkpt><trkpt lat="43.67833778320309" lon="6.6872356972565195"><ele>732.5</ele><time>2026-04-12T07:33:10Z</time></trkpt><trkpt lat="43.678346366822154" lon="6.687126169671924"><ele>733.0</ele><time>2026-04-12T07:33:11Z</time></trkpt><trkpt lat="43.67835959414779" lon="6.687018155637108"><ele>732.3333333333334</ele><time>2026-04-12T07:33:12Z</time></trkpt><trkpt lat="43.67838177067302" lon="6.686909680736176"><ele>731.6666666666667</ele><time>2026-04-12T07:33:13Z</time></trkpt><trkpt lat="43.67841796112049" lon="6.686804230616093"><ele>731.0</ele><time>2026-04-12T07:33:14Z</time></trkpt><trkpt lat="43.67846042715552" lon="6.686706346650997"><ele>730.3333333333334</ele><time>2026-04-12T07:33:15Z</time></trkpt><trkpt lat="43.67850885435932" lon="6.686613786749658"><ele>729.6666666666666</ele><time>2026-04-12T07:33:16Z</time></trkpt><trkpt lat="43.678557031334634" lon="6.686520287001964"><ele>729.0</ele><time>2026-04-12T07:33:17Z</time></trkpt><trkpt lat="43.67860659806936" lon="6.686425529630991"><ele>730.6666666666666</ele><time>2026-04-12T07:33:18Z</time></trkpt><trkpt lat="43.678651825634034" lon="6.686324375281007"><ele>732.3333333333334</ele><time>2026-04-12T07:33:19Z</time></trkpt><trkpt lat="43.678691615299726" lon="6.686219372178938"><ele>734.0</ele><time>2026-04-12T07:33:20Z</time></trkpt><trkpt lat="43.678726231825394" lon="6.686107413899881"><ele>735.6666666666667</ele><time>2026-04-12T07:33:21Z</time></trkpt><trkpt lat="43.67874967192255" lon="6.685990893117956"><ele>737.3333333333334</ele><time>2026-04-12T07:33:22Z</time></trkpt><trkpt lat="43.678758068533604" lon="6.685869410294847"><ele>739.0</ele><time>2026-04-12T07:33:23Z</time></trkpt><trkpt lat="43.678751229796276" lon="6.685745401623199"><ele>739.0</ele><time>2026-04-12T07:33:24Z</time></trkpt><trkpt lat="43.67873148278963" lon="6.685626422456247"><ele>739.0</ele><time>2026-04-12T07:33:25Z</time></trkpt><trkpt lat="43.678711052739" lon="6.685505851360697"><ele>739.0</ele><time>2026-04-12T07:33:26Z</time></trkpt><trkpt lat="43.67869717922773" lon="6.685384614780083"><ele>739.0</ele><time>2026-04-12T07:33:27Z</time></trkpt><trkpt lat="43.678685511927426" lon="6.685263328860632"><ele>739.0</ele><time>2026-04-12T07:33:28Z</time></trkpt><trkpt lat="43.678668942753596" lon="6.685144800184852"><ele>739.0</ele><time>2026-04-12T07:33:29Z</time></trkpt><trkpt lat="43.678650595007156" lon="6.685022312917993"><ele>739.0</ele><time>2026-04-12T07:33:30Z</time></trkpt><trkpt lat="43.67863366836214" lon="6.684899900633342"><ele>739.0</ele><time>2026-04-12T07:33:31Z</time></trkpt><trkpt lat="43.6786198453164" lon="6.68477951482911"><ele>739.0</ele><time>2026-04-12T07:33:32Z</time></trkpt><trkpt lat="43.678606928904856" lon="6.68465604823956"><ele>739.0</ele><time>2026-04-12T07:33:33Z</time></trkpt><trkpt lat="43.678590800610344" lon="6.68453367175315"><ele>739.0</ele><time>2026-04-12T07:33:34Z</time></trkpt><trkpt lat="43.67857173607604" lon="6.68441339487597"><ele>739.0</ele><time>2026-04-12T07:33:35Z</time></trkpt><trkpt lat="43.678554845555944" lon="6.684289736080131"><ele>736.6</ele><time>2026-04-12T07:33:36Z</time></trkpt><trkpt lat="43.67854375428239" lon="6.684166280943714"><ele>734.2</ele><time>2026-04-12T07:33:37Z</time></trkpt><trkpt lat="43.67853320546369" lon="6.684041935790954"><ele>731.8000000000001</ele><time>2026-04-12T07:33:38Z</time></trkpt><trkpt lat="43.67852279281048" lon="6.68391772295251"><ele>729.4000000000001</ele><time>2026-04-12T07:33:39Z</time></trkpt><trkpt lat="43.678504040961585" lon="6.683798361233024"><ele>727.0</ele><time>2026-04-12T07:33:40Z</time></trkpt><trkpt lat="43.678489219862264" lon="6.683672527838895"><ele>727.6</ele><time>2026-04-12T07:33:41Z</time></trkpt><trkpt lat="43.678478496970264" lon="6.683547369149145"><ele>728.2</ele><time>2026-04-12T07:33:42Z</time></trkpt><trkpt lat="43.67846561002751" lon="6.6834248763279644"><ele>728.8</ele><time>2026-04-12T07:33:43Z</time></trkpt><trkpt lat="43.67845151059553" lon="6.683303204804466"><ele>729.4</ele><time>2026-04-12T07:33:44Z</time></trkpt><trkpt lat="43.67843508165669" lon="6.683179773764219"><ele>730.0</ele><time>2026-04-12T07:33:45Z</time></trkpt><trkpt lat="43.67841858243313" lon="6.683055179553427"><ele>730.0</ele><time>2026-04-12T07:33:46Z</time></trkpt><trkpt lat="43.67840149889921" lon="6.682931220478234"><ele>730.0</ele><time>2026-04-12T07:33:47Z</time></trkpt><trkpt lat="43.6783820374102" lon="6.682810200193474"><ele>730.0</ele><time>2026-04-12T07:33:48Z</time></trkpt><trkpt lat="43.67836328739326" lon="6.682688409150195"><ele>730.0</ele><time>2026-04-12T07:33:49Z</time></trkpt><trkpt lat="43.6783499060295" lon="6.682559561115104"><ele>730.0</ele><time>2026-04-12T07:33:50Z</time></trkpt><trkpt lat="43.67829490968405" lon="6.682452422768234"><ele>730.1666666666667</ele><time>2026-04-12T07:33:51Z</time></trkpt><trkpt lat="43.678249584675314" lon="6.682343638310347"><ele>730.3333333333334</ele><time>2026-04-12T07:33:52Z</time></trkpt><trkpt lat="43.678197966063415" lon="6.682243024052165"><ele>730.5</ele><time>2026-04-12T07:33:53Z</time></trkpt><trkpt lat="43.678138888788666" lon="6.6821522174697225"><ele>730.6666666666666</ele><time>2026-04-12T07:33:54Z</time></trkpt><trkpt lat="43.67808135411343" lon="6.682077485000378"><ele>730.8333333333333</ele><time>2026-04-12T07:33:55Z</time></trkpt><trkpt lat="43.67803208298083" lon="6.682007976275156"><ele>731.0</ele><time>2026-04-12T07:33:56Z</time></trkpt><trkpt lat="43.67796939862406" lon="6.681923349667025"><ele>731.0</ele><time>2026-04-12T07:33:58Z</time></trkpt><trkpt lat="43.67793401558113" lon="6.681849845349749"><ele>731.0</ele><time>2026-04-12T07:34:05Z</time></trkpt><trkpt lat="43.67786255336031" lon="6.681814700258758"><ele>731.0</ele><time>2026-04-12T07:34:13Z</time></trkpt><trkpt lat="43.677802415372206" lon="6.68173617876432"><ele>731.0</ele><time>2026-04-12T07:34:16Z</time></trkpt><trkpt lat="43.67774400033734" lon="6.681657991486215"><ele>731.0</ele><time>2026-04-12T07:34:17.999Z</time></trkpt><trkpt lat="43.67767759217215" lon="6.68159721331152"><ele>731.0</ele><time>2026-04-12T07:34:19.999Z</time></trkpt><trkpt lat="43.6775928103746" lon="6.6815044028178505"><ele>731.0</ele><time>2026-04-12T07:34:22.999Z</time></trkpt><trkpt lat="43.67751721462271" lon="6.681404313795151"><ele>731.0</ele><time>2026-04-12T07:34:24.999Z</time></trkpt><trkpt lat="43.6774515317708" lon="6.681272376745532"><ele>731.0</ele><time>2026-04-12T07:34:26.999Z</time></trkpt><trkpt lat="43.67737148591915" lon="6.681171916120258"><ele>731.0</ele><time>2026-04-12T07:34:28.999Z</time></trkpt><trkpt lat="43.67731481168808" lon="6.681122139713829"><ele>731.0</ele><time>2026-04-12T07:34:29.999Z</time></trkpt><trkpt lat="43.677227937784046" lon="6.68101034736203"><ele>731.0</ele><time>2026-04-12T07:34:31.999Z</time></trkpt><trkpt lat="43.67713723309098" lon="6.680897177230645"><ele>731.0</ele><time>2026-04-12T07:34:33.999Z</time></trkpt><trkpt lat="43.67705207669186" lon="6.680769872840089"><ele>731.0</ele><time>2026-04-12T07:34:35.999Z</time></trkpt><trkpt lat="43.67699147167513" lon="6.6807087323934455"><ele>731.0</ele><time>2026-04-12T07:34:36.999Z</time></trkpt><trkpt lat="43.67693944627848" lon="6.680652897681863"><ele>731.0</ele><time>2026-04-12T07:34:37.999Z</time></trkpt><trkpt lat="43.67688788376988" lon="6.680590349480713"><ele>731.0</ele><time>2026-04-12T07:34:38.999Z</time></trkpt><trkpt lat="43.67683365391982" lon="6.680529352456508"><ele>731.0</ele><time>2026-04-12T07:34:39.999Z</time></trkpt><trkpt lat="43.67678269579042" lon="6.680462244980979"><ele>731.0</ele><time>2026-04-12T07:34:40.999Z</time></trkpt><trkpt lat="43.676716283278246" lon="6.680420324225739"><ele>731.0</ele><time>2026-04-12T07:34:41.999Z</time></trkpt><trkpt lat="43.67665683067407" lon="6.680371997672074"><ele>731.0</ele><time>2026-04-12T07:34:42.999Z</time></trkpt><trkpt lat="43.67659236375568" lon="6.6803280964036045"><ele>731.0</ele><time>2026-04-12T07:34:43.999Z</time></trkpt><trkpt lat="43.67652568992191" lon="6.680286461067751"><ele>731.0</ele><time>2026-04-12T07:34:44.999Z</time></trkpt><trkpt lat="43.676461587292295" lon="6.6802333791570785"><ele>731.5714285714286</ele><time>2026-04-12T07:34:45.999Z</time></trkpt><trkpt lat="43.67639705208365" lon="6.680180623732455"><ele>732.1428571428571</ele><time>2026-04-12T07:34:46.999Z</time></trkpt><trkpt lat="43.67633215156194" lon="6.6801330195988715"><ele>732.7142857142858</ele><time>2026-04-12T07:34:47.999Z</time></trkpt><trkpt lat="43.67626657817124" lon="6.680087181859515"><ele>733.2857142857142</ele><time>2026-04-12T07:34:48.999Z</time></trkpt><trkpt lat="43.67619832950196" lon="6.680044892977793"><ele>733.8571428571429</ele><time>2026-04-12T07:34:49.999Z</time></trkpt><trkpt lat="43.676127855753016" lon="6.680005021366922"><ele>734.4285714285714</ele><time>2026-04-12T07:34:50.999Z</time></trkpt><trkpt lat="43.67605680637175" lon="6.679965313116083"><ele>735.0</ele><time>2026-04-12T07:34:51.999Z</time></trkpt><trkpt lat="43.6759853318556" lon="6.679915900747711"><ele>735.0</ele><time>2026-04-12T07:34:52.999Z</time></trkpt><trkpt lat="43.67591189999919" lon="6.679893476090511"><ele>735.0</ele><time>2026-04-12T07:34:53.999Z</time></trkpt><trkpt lat="43.67583714414157" lon="6.6799048250390065"><ele>735.0</ele><time>2026-04-12T07:34:54.999Z</time></trkpt><trkpt lat="43.67576724343334" lon="6.679894820106438"><ele>735.0</ele><time>2026-04-12T07:34:55.999Z</time></trkpt><trkpt lat="43.675702548056805" lon="6.679895505961671"><ele>735.0</ele><time>2026-04-12T07:34:56.999Z</time></trkpt><trkpt lat="43.67563809347905" lon="6.679879206547708"><ele>735.0</ele><time>2026-04-12T07:34:57.999Z</time></trkpt><trkpt lat="43.67552269202992" lon="6.679887859405555"><ele>735.0</ele><time>2026-04-12T07:34:59.999Z</time></trkpt><trkpt lat="43.67541936333669" lon="6.679886151407757"><ele>735.0</ele><time>2026-04-12T07:35:01.999Z</time></trkpt><trkpt lat="43.675326338036065" lon="6.6798808951064474"><ele>735.0</ele><time>2026-04-12T07:35:03.999Z</time></trkpt><trkpt lat="43.6752399664521" lon="6.679863129170118"><ele>735.0</ele><time>2026-04-12T07:35:05.999Z</time></trkpt><trkpt lat="43.675165043032145" lon="6.679829677632477"><ele>735.0</ele><time>2026-04-12T07:35:07.999Z</time></trkpt><trkpt lat="43.67508603475445" lon="6.679792309473452"><ele>735.0</ele><time>2026-04-12T07:35:10Z</time></trkpt><trkpt lat="43.67501697737844" lon="6.679737908920377"><ele>735.8333333333334</ele><time>2026-04-12T07:35:12Z</time></trkpt><trkpt lat="43.674945392855804" lon="6.679684892781948"><ele>736.6666666666666</ele><time>2026-04-12T07:35:14Z</time></trkpt><trkpt lat="43.67488186678695" lon="6.679617002288052"><ele>737.5</ele><time>2026-04-12T07:35:16Z</time></trkpt><trkpt lat="43.67481945817263" lon="6.679535002281877"><ele>738.3333333333333</ele><time>2026-04-12T07:35:18Z</time></trkpt><trkpt lat="43.674754178202384" lon="6.679464254137457"><ele>739.1666666666666</ele><time>2026-04-12T07:35:20Z</time></trkpt><trkpt lat="43.6746991166557" lon="6.679388421333152"><ele>740.0</ele><time>2026-04-12T07:35:22Z</time></trkpt><trkpt lat="43.67464644892941" lon="6.67933826029288"><ele>740.1666666666666</ele><time>2026-04-12T07:35:24Z</time></trkpt><trkpt lat="43.67458637050243" lon="6.679262074938513"><ele>740.3333333333333</ele><time>2026-04-12T07:35:26Z</time></trkpt><trkpt lat="43.674524526948645" lon="6.679181781215516"><ele>740.5</ele><time>2026-04-12T07:35:28Z</time></trkpt><trkpt lat="43.674452387270854" lon="6.679124381743323"><ele>740.6666666666666</ele><time>2026-04-12T07:35:30Z</time></trkpt><trkpt lat="43.674408974636684" lon="6.679049638941677"><ele>740.8333333333334</ele><time>2026-04-12T07:35:33Z</time></trkpt><trkpt lat="43.674348933838964" lon="6.678980833175056"><ele>741.0</ele><time>2026-04-12T07:35:34Z</time></trkpt><trkpt lat="43.674286470697794" lon="6.6789111944838195"><ele>741.8333333333334</ele><time>2026-04-12T07:35:37Z</time></trkpt><trkpt lat="43.67423949783218" lon="6.67884906985121"><ele>742.6666666666666</ele><time>2026-04-12T07:35:39Z</time></trkpt><trkpt lat="43.67418855615484" lon="6.678791539184071"><ele>743.5</ele><time>2026-04-12T07:35:41Z</time></trkpt><trkpt lat="43.674135644230795" lon="6.678733984315583"><ele>744.3333333333333</ele><time>2026-04-12T07:35:42Z</time></trkpt><trkpt lat="43.67407447189578" lon="6.6786680332217525"><ele>745.1666666666666</ele><time>2026-04-12T07:35:44Z</time></trkpt><trkpt lat="43.674002558331345" lon="6.678586927397942"><ele>746.0</ele><time>2026-04-12T07:35:46Z</time></trkpt><trkpt lat="43.67393216072775" lon="6.678506783399868"><ele>746.3333333333333</ele><time>2026-04-12T07:35:48Z</time></trkpt><trkpt lat="43.673866826291444" lon="6.678436130819685"><ele>746.6666666666666</ele><time>2026-04-12T07:35:50Z</time></trkpt><trkpt lat="43.673801129540614" lon="6.678360213795325"><ele>747.0</ele><time>2026-04-12T07:35:52Z</time></trkpt><trkpt lat="43.67372872074191" lon="6.6782746950995815"><ele>747.3333333333334</ele><time>2026-04-12T07:35:55Z</time></trkpt><trkpt lat="43.67365275000801" lon="6.678192972337379"><ele>747.6666666666667</ele><time>2026-04-12T07:35:57Z</time></trkpt><trkpt lat="43.67358777322121" lon="6.678116974964828"><ele>748.0</ele><time>2026-04-12T07:35:59Z</time></trkpt><trkpt lat="43.673522968434035" lon="6.678044981496581"><ele>749.1666666666667</ele><time>2026-04-12T07:36:01Z</time></trkpt><trkpt lat="43.673461055524825" lon="6.67796624785475"><ele>750.3333333333334</ele><time>2026-04-12T07:36:03Z</time></trkpt><trkpt lat="43.67339518156799" lon="6.677893444793623"><ele>751.5</ele><time>2026-04-12T07:36:05Z</time></trkpt><trkpt lat="43.67333564628038" lon="6.677824367469924"><ele>752.6666666666666</ele><time>2026-04-12T07:36:07Z</time></trkpt><trkpt lat="43.67327186556685" lon="6.677755980217876"><ele>753.8333333333333</ele><time>2026-04-12T07:36:09Z</time></trkpt><trkpt lat="43.67321337298462" lon="6.677687176108202"><ele>755.0</ele><time>2026-04-12T07:36:11Z</time></trkpt><trkpt lat="43.67316163600793" lon="6.677623570895452"><ele>755.0</ele><time>2026-04-12T07:36:14Z</time></trkpt><trkpt lat="43.673107111492854" lon="6.677550198706526"><ele>755.0</ele><time>2026-04-12T07:36:15Z</time></trkpt><trkpt lat="43.673050546458484" lon="6.677479178460046"><ele>755.0</ele><time>2026-04-12T07:36:17Z</time></trkpt><trkpt lat="43.672996513242886" lon="6.677414971282768"><ele>755.0</ele><time>2026-04-12T07:36:19Z</time></trkpt><trkpt lat="43.672936785841664" lon="6.6773386551571425"><ele>755.0</ele><time>2026-04-12T07:36:21Z</time></trkpt><trkpt lat="43.672874742646236" lon="6.677271211058113"><ele>755.0</ele><time>2026-04-12T07:36:23.999Z</time></trkpt><trkpt lat="43.67281674809663" lon="6.677210029967574"><ele>756.0</ele><time>2026-04-12T07:36:24.999Z</time></trkpt><trkpt lat="43.67275880058329" lon="6.677161497805656"><ele>757.0</ele><time>2026-04-12T07:36:26.999Z</time></trkpt><trkpt lat="43.672688199628254" lon="6.677106460428594"><ele>758.0</ele><time>2026-04-12T07:36:28.999Z</time></trkpt><trkpt lat="43.67262173837762" lon="6.6770853106585495"><ele>759.0</ele><time>2026-04-12T07:36:30.999Z</time></trkpt><trkpt lat="43.67254679601135" lon="6.677100803966953"><ele>760.0</ele><time>2026-04-12T07:36:33.999Z</time></trkpt><trkpt lat="43.672480816118316" lon="6.677114464703726"><ele>761.0</ele><time>2026-04-12T07:36:34.999Z</time></trkpt><trkpt lat="43.67241606980487" lon="6.677138866401865"><ele>762.0</ele><time>2026-04-12T07:36:36.999Z</time></trkpt><trkpt lat="43.67233483559267" lon="6.677176988655113"><ele>762.0</ele><time>2026-04-12T07:36:38.999Z</time></trkpt><trkpt lat="43.672257939875635" lon="6.677205114552315"><ele>762.0</ele><time>2026-04-12T07:36:40.999Z</time></trkpt><trkpt lat="43.67214550521595" lon="6.677248549246079"><ele>762.0</ele><time>2026-04-12T07:36:42.999Z</time></trkpt><trkpt lat="43.67207976543233" lon="6.677304582079734"><ele>762.0</ele><time>2026-04-12T07:36:44.999Z</time></trkpt><trkpt lat="43.672014982841624" lon="6.677366354419973"><ele>762.0</ele><time>2026-04-12T07:36:46.999Z</time></trkpt><trkpt lat="43.671950609731546" lon="6.6774404384574435"><ele>762.0</ele><time>2026-04-12T07:36:48.999Z</time></trkpt><trkpt lat="43.671890357488834" lon="6.677532025689858"><ele>763.1666666666666</ele><time>2026-04-12T07:36:50.999Z</time></trkpt><trkpt lat="43.671844245800635" lon="6.677631342477539"><ele>764.3333333333333</ele><time>2026-04-12T07:36:52.999Z</time></trkpt><trkpt lat="43.67181440636571" lon="6.677742056078508"><ele>765.5</ele><time>2026-04-12T07:36:54.999Z</time></trkpt><trkpt lat="43.671796229025766" lon="6.677852930885254"><ele>766.6666666666666</ele><time>2026-04-12T07:36:56.999Z</time></trkpt><trkpt lat="43.67178371372117" lon="6.677975825524036"><ele>767.8333333333333</ele><time>2026-04-12T07:36:58.999Z</time></trkpt><trkpt lat="43.671764038639836" lon="6.678085420385063"><ele>769.0</ele><time>2026-04-12T07:37:00.999Z</time></trkpt><trkpt lat="43.67174866808143" lon="6.6781950202257665"><ele>769.3333333333333</ele><time>2026-04-12T07:37:02.999Z</time></trkpt><trkpt lat="43.6717343154001" lon="6.678301124608652"><ele>769.6666666666666</ele><time>2026-04-12T07:37:04.999Z</time></trkpt><trkpt lat="43.67172214734415" lon="6.678409236133017"><ele>770.0</ele><time>2026-04-12T07:37:06.999Z</time></trkpt><trkpt lat="43.67170712055875" lon="6.678513817634819"><ele>770.3333333333333</ele><time>2026-04-12T07:37:08.999Z</time></trkpt><trkpt lat="43.67169298932389" lon="6.67861981846373"><ele>770.6666666666666</ele><time>2026-04-12T07:37:10.999Z</time></trkpt><trkpt lat="43.671674407539015" lon="6.678732628952335"><ele>771.0</ele><time>2026-04-12T07:37:12.999Z</time></trkpt><trkpt lat="43.67164738184381" lon="6.6788400457357175"><ele>771.1666666666666</ele><time>2026-04-12T07:37:14.999Z</time></trkpt><trkpt lat="43.67161204582113" lon="6.678937471694863"><ele>771.3333333333333</ele><time>2026-04-12T07:37:17Z</time></trkpt><trkpt lat="43.671561238511806" lon="6.679021119772963"><ele>771.5</ele><time>2026-04-12T07:37:19Z</time></trkpt><trkpt lat="43.67147886749979" lon="6.679075616999483"><ele>771.6666666666666</ele><time>2026-04-12T07:37:21Z</time></trkpt><trkpt lat="43.67141143810753" lon="6.679118133168207"><ele>771.8333333333333</ele><time>2026-04-12T07:37:23Z</time></trkpt><trkpt lat="43.67132960056952" lon="6.679148362920221"><ele>772.0</ele><time>2026-04-12T07:37:25Z</time></trkpt><trkpt lat="43.67125436641603" lon="6.679173756405553"><ele>771.9999999999999</ele><time>2026-04-12T07:37:27Z</time></trkpt><trkpt lat="43.67118057686473" lon="6.679211028781593"><ele>772.0</ele><time>2026-04-12T07:37:29Z</time></trkpt><trkpt lat="43.67111070805611" lon="6.679251582452955"><ele>772.0</ele><time>2026-04-12T07:37:31Z</time></trkpt><trkpt lat="43.67102035265068" lon="6.67927999158137"><ele>772.0</ele><time>2026-04-12T07:37:33Z</time></trkpt><trkpt lat="43.67094780888623" lon="6.679318273385858"><ele>771.9999999999999</ele><time>2026-04-12T07:37:35Z</time></trkpt><trkpt lat="43.67086809851308" lon="6.679354958184986"><ele>772.0</ele><time>2026-04-12T07:37:37Z</time></trkpt><trkpt lat="43.670757293297314" lon="6.679411562962164"><ele>772.9999999999999</ele><time>2026-04-12T07:37:40Z</time></trkpt><trkpt lat="43.670658635207765" lon="6.679450707511033"><ele>774.0</ele><time>2026-04-12T07:37:42Z</time></trkpt><trkpt lat="43.67057118182649" lon="6.679482406863326"><ele>775.0</ele><time>2026-04-12T07:37:44Z</time></trkpt><trkpt lat="43.67049845243806" lon="6.679494110856242"><ele>776.0</ele><time>2026-04-12T07:37:47Z</time></trkpt><trkpt lat="43.67041348171449" lon="6.679498943749615"><ele>776.9999999999999</ele><time>2026-04-12T07:37:48Z</time></trkpt><trkpt lat="43.67034334605191" lon="6.679467004205282"><ele>778.0</ele><time>2026-04-12T07:37:50Z</time></trkpt><trkpt lat="43.67026217468013" lon="6.679434313158787"><ele>778.2</ele><time>2026-04-12T07:37:51Z</time></trkpt><trkpt lat="43.670161002999336" lon="6.679361909161767"><ele>778.4</ele><time>2026-04-12T07:37:53Z</time></trkpt><trkpt lat="43.670063846910736" lon="6.679272340956867"><ele>778.6</ele><time>2026-04-12T07:37:55Z</time></trkpt><trkpt lat="43.66996241850595" lon="6.679177430223363"><ele>778.8000000000001</ele><time>2026-04-12T07:37:57Z</time></trkpt><trkpt lat="43.669905532751066" lon="6.679129884656298"><ele>779.0</ele><time>2026-04-12T07:37:58Z</time></trkpt><trkpt lat="43.6698418480391" lon="6.679079627333184"><ele>779.0</ele><time>2026-04-12T07:37:59Z</time></trkpt><trkpt lat="43.669774695880406" lon="6.679022798793766"><ele>779.0</ele><time>2026-04-12T07:38:00Z</time></trkpt><trkpt lat="43.66970294879164" lon="6.67895307795825"><ele>779.0</ele><time>2026-04-12T07:38:01Z</time></trkpt><trkpt lat="43.66963003520141" lon="6.678882768969583"><ele>779.0</ele><time>2026-04-12T07:38:02Z</time></trkpt><trkpt lat="43.66955020491856" lon="6.678800875209497"><ele>779.0</ele><time>2026-04-12T07:38:03Z</time></trkpt><trkpt lat="43.669482455006566" lon="6.678703380048141"><ele>778.0</ele><time>2026-04-12T07:38:04Z</time></trkpt><trkpt lat="43.669419890708674" lon="6.678585788782776"><ele>777.0</ele><time>2026-04-12T07:38:05Z</time></trkpt><trkpt lat="43.66936757483387" lon="6.678459192749571"><ele>776.0</ele><time>2026-04-12T07:38:06Z</time></trkpt><trkpt lat="43.66931921138959" lon="6.6783210695358814"><ele>775.0</ele><time>2026-04-12T07:38:07Z</time></trkpt><trkpt lat="43.66927453940453" lon="6.6781758296919635"><ele>774.0</ele><time>2026-04-12T07:38:08Z</time></trkpt><trkpt lat="43.669226434550325" lon="6.678033095208897"><ele>774.0</ele><time>2026-04-12T07:38:09Z</time></trkpt><trkpt lat="43.669170489772576" lon="6.677891233099861"><ele>774.0</ele><time>2026-04-12T07:38:10Z</time></trkpt><trkpt lat="43.66910434541254" lon="6.677748546806699"><ele>774.0</ele><time>2026-04-12T07:38:11Z</time></trkpt><trkpt lat="43.66902170344274" lon="6.677623731073169"><ele>774.0</ele><time>2026-04-12T07:38:12Z</time></trkpt><trkpt lat="43.668935137040926" lon="6.677526654644536"><ele>775.2</ele><time>2026-04-12T07:38:13Z</time></trkpt><trkpt lat="43.668846717329956" lon="6.677460204519869"><ele>776.4000000000001</ele><time>2026-04-12T07:38:14Z</time></trkpt><trkpt lat="43.66874819264547" lon="6.677435841813916"><ele>777.6</ele><time>2026-04-12T07:38:15Z</time></trkpt><trkpt lat="43.668647392141175" lon="6.677475846627122"><ele>778.8</ele><time>2026-04-12T07:38:16Z</time></trkpt><trkpt lat="43.66855678528845" lon="6.677567094743742"><ele>780.0</ele><time>2026-04-12T07:38:17Z</time></trkpt><trkpt lat="43.668555183314496" lon="6.6777680593912265"><ele>774.75</ele><time>2026-04-12T07:38:18Z</time></trkpt><trkpt lat="43.6685712697771" lon="6.6779337693322365"><ele>769.5</ele><time>2026-04-12T07:38:19Z</time></trkpt><trkpt lat="43.668574128973816" lon="6.678095645445852"><ele>764.25</ele><time>2026-04-12T07:38:20Z</time></trkpt><trkpt lat="43.66857986371963" lon="6.6782545833748275"><ele>759.0</ele><time>2026-04-12T07:38:21Z</time></trkpt><trkpt lat="43.66858579794204" lon="6.678419049991034"><ele>759.0</ele><time>2026-04-12T07:38:22Z</time></trkpt><trkpt lat="43.66859055054125" lon="6.678582081794457"><ele>759.0</ele><time>2026-04-12T07:38:23Z</time></trkpt><trkpt lat="43.66859407005782" lon="6.678750375119529"><ele>759.0</ele><time>2026-04-12T07:38:24Z</time></trkpt><trkpt lat="43.668590844463026" lon="6.678935410736967"><ele>759.0</ele><time>2026-04-12T07:38:25Z</time></trkpt><trkpt lat="43.66855724694073" lon="6.679100229328858"><ele>758.75</ele><time>2026-04-12T07:38:26Z</time></trkpt><trkpt lat="43.66849924563258" lon="6.679252115259048"><ele>758.5</ele><time>2026-04-12T07:38:27Z</time></trkpt><trkpt lat="43.66841886367039" lon="6.6793917823641875"><ele>758.25</ele><time>2026-04-12T07:38:27.999Z</time></trkpt><trkpt lat="43.66832801580474" lon="6.679530362570918"><ele>758.0</ele><time>2026-04-12T07:38:28.999Z</time></trkpt><trkpt lat="43.66823306166623" lon="6.679664967850243"><ele>757.75</ele><time>2026-04-12T07:38:29.999Z</time></trkpt><trkpt lat="43.66813842129548" lon="6.679799890187083"><ele>757.5</ele><time>2026-04-12T07:38:30.999Z</time></trkpt><trkpt lat="43.668045374954254" lon="6.679946044410991"><ele>757.25</ele><time>2026-04-12T07:38:31.999Z</time></trkpt><trkpt lat="43.66797010128838" lon="6.680086771799341"><ele>757.0</ele><time>2026-04-12T07:38:32.999Z</time></trkpt><trkpt lat="43.66793731897718" lon="6.680227703064323"><ele>757.2</ele><time>2026-04-12T07:38:33.999Z</time></trkpt><trkpt lat="43.66788237109057" lon="6.680316830377552"><ele>757.4000000000001</ele><time>2026-04-12T07:38:34.999Z</time></trkpt><trkpt lat="43.6677073428782" lon="6.680277748247675"><ele>757.5999999999999</ele><time>2026-04-12T07:38:36.999Z</time></trkpt><trkpt lat="43.66766573113288" lon="6.680151773187975"><ele>757.8</ele><time>2026-04-12T07:38:37.999Z</time></trkpt><trkpt lat="43.66762690904391" lon="6.68005316089885"><ele>758.0</ele><time>2026-04-12T07:38:38.999Z</time></trkpt><trkpt lat="43.66757448061454" lon="6.67996317842521"><ele>758.0</ele><time>2026-04-12T07:38:39.999Z</time></trkpt><trkpt lat="43.667519508209" lon="6.679868385274455"><ele>758.0</ele><time>2026-04-12T07:38:40.999Z</time></trkpt><trkpt lat="43.667461340712734" lon="6.679768082360118"><ele>758.0</ele><time>2026-04-12T07:38:41.999Z</time></trkpt><trkpt lat="43.66739734427242" lon="6.679681690896323"><ele>758.0</ele><time>2026-04-12T07:38:42.999Z</time></trkpt><trkpt lat="43.66734041624712" lon="6.679583724643939"><ele>758.0</ele><time>2026-04-12T07:38:43.999Z</time></trkpt><trkpt lat="43.66728194512678" lon="6.679483470213597"><ele>756.8</ele><time>2026-04-12T07:38:44.999Z</time></trkpt><trkpt lat="43.66722541610393" lon="6.679385536222751"><ele>755.5999999999999</ele><time>2026-04-12T07:38:45.999Z</time></trkpt><trkpt lat="43.66716533064033" lon="6.67927312729317"><ele>754.4000000000001</ele><time>2026-04-12T07:38:46.999Z</time></trkpt><trkpt lat="43.667099566544465" lon="6.679160597708335"><ele>753.2</ele><time>2026-04-12T07:38:47.999Z</time></trkpt><trkpt lat="43.66703161528345" lon="6.6790448016115995"><ele>752.0</ele><time>2026-04-12T07:38:48.999Z</time></trkpt><trkpt lat="43.66695483600276" lon="6.678925359011523"><ele>750.0</ele><time>2026-04-12T07:38:49.999Z</time></trkpt><trkpt lat="43.66688121785914" lon="6.678806389773654"><ele>748.0</ele><time>2026-04-12T07:38:50.999Z</time></trkpt><trkpt lat="43.66678983739735" lon="6.6786916792152615"><ele>746.0</ele><time>2026-04-12T07:38:51.999Z</time></trkpt><trkpt lat="43.666694626775296" lon="6.678591392101397"><ele>744.0</ele><time>2026-04-12T07:38:52.999Z</time></trkpt><trkpt lat="43.66658922371343" lon="6.678501166172174"><ele>744.0</ele><time>2026-04-12T07:38:53.999Z</time></trkpt><trkpt lat="43.66648670522615" lon="6.67837601484771"><ele>744.0</ele><time>2026-04-12T07:38:54.999Z</time></trkpt><trkpt lat="43.66638332346889" lon="6.67827108769961"><ele>744.0</ele><time>2026-04-12T07:38:55.999Z</time></trkpt><trkpt lat="43.6662719375803" lon="6.678159704254959"><ele>744.0</ele><time>2026-04-12T07:38:56.999Z</time></trkpt><trkpt lat="43.666160229837544" lon="6.678076687168752"><ele>743.0</ele><time>2026-04-12T07:38:57.999Z</time></trkpt><trkpt lat="43.6660461282673" lon="6.67797479621462"><ele>742.0</ele><time>2026-04-12T07:38:58.999Z</time></trkpt><trkpt lat="43.66593555981649" lon="6.677871489486052"><ele>741.0</ele><time>2026-04-12T07:38:59.999Z</time></trkpt><trkpt lat="43.665837628040386" lon="6.677750763687835"><ele>740.0</ele><time>2026-04-12T07:39:00.999Z</time></trkpt><trkpt lat="43.66572992260749" lon="6.677635965113172"><ele>740.0</ele><time>2026-04-12T07:39:01.999Z</time></trkpt><trkpt lat="43.66561803507997" lon="6.677516439510068"><ele>740.0</ele><time>2026-04-12T07:39:02.999Z</time></trkpt><trkpt lat="43.66549988150643" lon="6.677421533207082"><ele>740.0</ele><time>2026-04-12T07:39:03.999Z</time></trkpt><trkpt lat="43.66539640555681" lon="6.67730705391328"><ele>740.0</ele><time>2026-04-12T07:39:04.999Z</time></trkpt><trkpt lat="43.665308756610045" lon="6.677164014139535"><ele>740.75</ele><time>2026-04-12T07:39:05.999Z</time></trkpt><trkpt lat="43.66522232815684" lon="6.677040746799352"><ele>741.5</ele><time>2026-04-12T07:39:06.999Z</time></trkpt><trkpt lat="43.66513821512653" lon="6.676920006631564"><ele>742.25</ele><time>2026-04-12T07:39:07.999Z</time></trkpt><trkpt lat="43.66504886441832" lon="6.676811632697648"><ele>743.0</ele><time>2026-04-12T07:39:08.999Z</time></trkpt><trkpt lat="43.664976121844795" lon="6.676689571210885"><ele>743.0</ele><time>2026-04-12T07:39:09.999Z</time></trkpt><trkpt lat="43.66489905921898" lon="6.676571039058069"><ele>743.0</ele><time>2026-04-12T07:39:10.999Z</time></trkpt><trkpt lat="43.66482644888707" lon="6.676446456341417"><ele>743.0</ele><time>2026-04-12T07:39:11.999Z</time></trkpt><trkpt lat="43.66475057981034" lon="6.676324465568554"><ele>743.0</ele><time>2026-04-12T07:39:12.999Z</time></trkpt><trkpt lat="43.66467660262616" lon="6.676205913357085"><ele>744.0</ele><time>2026-04-12T07:39:13.999Z</time></trkpt><trkpt lat="43.66460532240339" lon="6.676086911640607"><ele>745.0</ele><time>2026-04-12T07:39:14.999Z</time></trkpt><trkpt lat="43.664542151799104" lon="6.675956353431294"><ele>746.0</ele><time>2026-04-12T07:39:15.999Z</time></trkpt><trkpt lat="43.664486088545374" lon="6.675825334116734"><ele>747.0</ele><time>2026-04-12T07:39:16.999Z</time></trkpt><trkpt lat="43.66442998329716" lon="6.675696446202687"><ele>748.0</ele><time>2026-04-12T07:39:17.999Z</time></trkpt><trkpt lat="43.664379291380676" lon="6.67555787584373"><ele>748.0</ele><time>2026-04-12T07:39:18.999Z</time></trkpt><trkpt lat="43.66432753665291" lon="6.675414722149842"><ele>748.0</ele><time>2026-04-12T07:39:19.999Z</time></trkpt><trkpt lat="43.664260810547354" lon="6.6752853167763115"><ele>748.0</ele><time>2026-04-12T07:39:20.999Z</time></trkpt><trkpt lat="43.66419079361416" lon="6.6751580460707975"><ele>748.0</ele><time>2026-04-12T07:39:22Z</time></trkpt><trkpt lat="43.66412540864304" lon="6.675014783170888"><ele>746.25</ele><time>2026-04-12T07:39:23Z</time></trkpt><trkpt lat="43.664066748846764" lon="6.674865192894072"><ele>744.5</ele><time>2026-04-12T07:39:24Z</time></trkpt><trkpt lat="43.66400900579612" lon="6.674715216438142"><ele>742.75</ele><time>2026-04-12T07:39:25Z</time></trkpt><trkpt lat="43.6639464639346" lon="6.674573007200849"><ele>741.0</ele><time>2026-04-12T07:39:26Z</time></trkpt><trkpt lat="43.66387977314184" lon="6.674434176071387"><ele>742.25</ele><time>2026-04-12T07:39:27Z</time></trkpt><trkpt lat="43.66380058768259" lon="6.67431106904292"><ele>743.5</ele><time>2026-04-12T07:39:28Z</time></trkpt><trkpt lat="43.6637222374522" lon="6.674193552578124"><ele>744.75</ele><time>2026-04-12T07:39:29Z</time></trkpt><trkpt lat="43.66364184816371" lon="6.674078408637607"><ele>746.0</ele><time>2026-04-12T07:39:30Z</time></trkpt><trkpt lat="43.663559523400366" lon="6.673964889059158"><ele>746.0</ele><time>2026-04-12T07:39:31Z</time></trkpt><trkpt lat="43.66347397902582" lon="6.673852978138234"><ele>746.0</ele><time>2026-04-12T07:39:32Z</time></trkpt><trkpt lat="43.66338402105522" lon="6.673757317310253"><ele>746.0</ele><time>2026-04-12T07:39:33Z</time></trkpt><trkpt lat="43.66328670243702" lon="6.673656815117352"><ele>746.0</ele><time>2026-04-12T07:39:34Z</time></trkpt><trkpt lat="43.66321848165679" lon="6.673514305908802"><ele>742.5</ele><time>2026-04-12T07:39:35Z</time></trkpt><trkpt lat="43.66313448866567" lon="6.67338598640796"><ele>739.0</ele><time>2026-04-12T07:39:36Z</time></trkpt><trkpt lat="43.66306352864987" lon="6.6732483624279695"><ele>735.5</ele><time>2026-04-12T07:39:37Z</time></trkpt><trkpt lat="43.66300525627587" lon="6.673096340088548"><ele>732.0</ele><time>2026-04-12T07:39:38Z</time></trkpt><trkpt lat="43.66293233908714" lon="6.672955881474569"><ele>732.0</ele><time>2026-04-12T07:39:39Z</time></trkpt><trkpt lat="43.6628619412741" lon="6.672811065217625"><ele>732.0</ele><time>2026-04-12T07:39:40Z</time></trkpt><trkpt lat="43.6628017124541" lon="6.672670289790366"><ele>732.0</ele><time>2026-04-12T07:39:41Z</time></trkpt><trkpt lat="43.66274657087325" lon="6.672520279560907"><ele>732.0</ele><time>2026-04-12T07:39:42Z</time></trkpt><trkpt lat="43.66269905440573" lon="6.672369677614755"><ele>731.75</ele><time>2026-04-12T07:39:43Z</time></trkpt><trkpt lat="43.662646175767804" lon="6.672212014157129"><ele>731.5</ele><time>2026-04-12T07:39:44Z</time></trkpt><trkpt lat="43.66259460272962" lon="6.672053592679982"><ele>731.25</ele><time>2026-04-12T07:39:45Z</time></trkpt><trkpt lat="43.662538637324886" lon="6.6718989837303875"><ele>731.0</ele><time>2026-04-12T07:39:46Z</time></trkpt><trkpt lat="43.66247613734258" lon="6.671749331917051"><ele>731.0</ele><time>2026-04-12T07:39:47Z</time></trkpt><trkpt lat="43.662397473922674" lon="6.671612921867365"><ele>731.0</ele><time>2026-04-12T07:39:48Z</time></trkpt><trkpt lat="43.66229899546701" lon="6.6715075265513235"><ele>731.0</ele><time>2026-04-12T07:39:49Z</time></trkpt><trkpt lat="43.66219220496146" lon="6.671433695438833"><ele>731.0</ele><time>2026-04-12T07:39:50Z</time></trkpt><trkpt lat="43.66208819971784" lon="6.671358829123991"><ele>731.0</ele><time>2026-04-12T07:39:51Z</time></trkpt><trkpt lat="43.66198346319255" lon="6.6712985513205245"><ele>731.0</ele><time>2026-04-12T07:39:52Z</time></trkpt><trkpt lat="43.66187502716481" lon="6.671257391968196"><ele>731.0</ele><time>2026-04-12T07:39:53Z</time></trkpt><trkpt lat="43.66175558666795" lon="6.671252067554398"><ele>731.0</ele><time>2026-04-12T07:39:54Z</time></trkpt><trkpt lat="43.66164214231105" lon="6.671279646615709"><ele>730.5</ele><time>2026-04-12T07:39:55Z</time></trkpt><trkpt lat="43.66153053935555" lon="6.671321148583226"><ele>730.0</ele><time>2026-04-12T07:39:56Z</time></trkpt><trkpt lat="43.661414477083525" lon="6.671381032572612"><ele>729.5</ele><time>2026-04-12T07:39:57Z</time></trkpt><trkpt lat="43.66128337140932" lon="6.671424266433315"><ele>729.0</ele><time>2026-04-12T07:39:58Z</time></trkpt><trkpt lat="43.66117098977275" lon="6.671497895423982"><ele>727.75</ele><time>2026-04-12T07:39:59Z</time></trkpt><trkpt lat="43.66104695113431" lon="6.671547622380963"><ele>726.5</ele><time>2026-04-12T07:40:00Z</time></trkpt><trkpt lat="43.660915822731894" lon="6.671584003012783"><ele>725.25</ele><time>2026-04-12T07:40:01Z</time></trkpt><trkpt lat="43.66079215633266" lon="6.6716602886295835"><ele>724.0</ele><time>2026-04-12T07:40:02Z</time></trkpt><trkpt lat="43.66066707306287" lon="6.671716919845149"><ele>724.0</ele><time>2026-04-12T07:40:03Z</time></trkpt><trkpt lat="43.660534680546235" lon="6.671753167568602"><ele>724.0</ele><time>2026-04-12T07:40:04Z</time></trkpt><trkpt lat="43.660408097687" lon="6.671807912391214"><ele>724.0</ele><time>2026-04-12T07:40:05Z</time></trkpt><trkpt lat="43.66027614413617" lon="6.671838821774931"><ele>724.0</ele><time>2026-04-12T07:40:06Z</time></trkpt><trkpt lat="43.660144930052574" lon="6.671842160518077"><ele>723.0</ele><time>2026-04-12T07:40:07Z</time></trkpt><trkpt lat="43.66001322484523" lon="6.671825066537114"><ele>722.0</ele><time>2026-04-12T07:40:08Z</time></trkpt><trkpt lat="43.659881075656635" lon="6.671827120630168"><ele>721.0</ele><time>2026-04-12T07:40:09Z</time></trkpt><trkpt lat="43.65974448317842" lon="6.671808831123851"><ele>720.0</ele><time>2026-04-12T07:40:10Z</time></trkpt><trkpt lat="43.65960317694545" lon="6.671767891878434"><ele>720.0</ele><time>2026-04-12T07:40:11Z</time></trkpt><trkpt lat="43.65948213012205" lon="6.671768623927264"><ele>720.0</ele><time>2026-04-12T07:40:12Z</time></trkpt><trkpt lat="43.65935405380553" lon="6.671732820736089"><ele>720.0</ele><time>2026-04-12T07:40:13Z</time></trkpt><trkpt lat="43.65922703129474" lon="6.671676571206746"><ele>720.0</ele><time>2026-04-12T07:40:14Z</time></trkpt><trkpt lat="43.65910163107811" lon="6.671611214572647"><ele>719.75</ele><time>2026-04-12T07:40:15Z</time></trkpt><trkpt lat="43.65899885572861" lon="6.671507272663559"><ele>719.5</ele><time>2026-04-12T07:40:16Z</time></trkpt><trkpt lat="43.658892306328994" lon="6.6714017573178035"><ele>719.25</ele><time>2026-04-12T07:40:17Z</time></trkpt><trkpt lat="43.658799984586665" lon="6.671287200064863"><ele>719.0</ele><time>2026-04-12T07:40:18Z</time></trkpt><trkpt lat="43.65872158894073" lon="6.671161215913511"><ele>718.5</ele><time>2026-04-12T07:40:19Z</time></trkpt><trkpt lat="43.65864690457117" lon="6.6710351238238905"><ele>718.0</ele><time>2026-04-12T07:40:20Z</time></trkpt><trkpt lat="43.658570005788654" lon="6.67091151748664"><ele>717.5</ele><time>2026-04-12T07:40:21Z</time></trkpt><trkpt lat="43.65850186280855" lon="6.670780614857217"><ele>717.0</ele><time>2026-04-12T07:40:22Z</time></trkpt><trkpt lat="43.65843502936622" lon="6.670660174549272"><ele>717.6</ele><time>2026-04-12T07:40:23Z</time></trkpt><trkpt lat="43.65835878155167" lon="6.670537242280412"><ele>718.2</ele><time>2026-04-12T07:40:24Z</time></trkpt><trkpt lat="43.6582931814942" lon="6.670412366361153"><ele>718.8</ele><time>2026-04-12T07:40:25Z</time></trkpt><trkpt lat="43.6582226507408" lon="6.670290223637983"><ele>719.4</ele><time>2026-04-12T07:40:26Z</time></trkpt><trkpt lat="43.65815455908519" lon="6.670182576204487"><ele>720.0</ele><time>2026-04-12T07:40:27Z</time></trkpt><trkpt lat="43.65808505519792" lon="6.670055837926983"><ele>720.0</ele><time>2026-04-12T07:40:28Z</time></trkpt><trkpt lat="43.65801575666957" lon="6.669935895415087"><ele>720.0</ele><time>2026-04-12T07:40:29Z</time></trkpt><trkpt lat="43.65795113221929" lon="6.66980479505736"><ele>720.0</ele><time>2026-04-12T07:40:30Z</time></trkpt><trkpt lat="43.6578819009123" lon="6.669707213097701"><ele>720.0</ele><time>2026-04-12T07:40:31Z</time></trkpt><trkpt lat="43.65782245768132" lon="6.669596536878223"><ele>720.0</ele><time>2026-04-12T07:40:32Z</time></trkpt><trkpt lat="43.657764390982706" lon="6.669480428779522"><ele>720.6</ele><time>2026-04-12T07:40:33Z</time></trkpt><trkpt lat="43.65770207895573" lon="6.669376773021881"><ele>721.2</ele><time>2026-04-12T07:40:33.999Z</time></trkpt><trkpt lat="43.65764153647715" lon="6.669266633072996"><ele>721.8</ele><time>2026-04-12T07:40:34.999Z</time></trkpt><trkpt lat="43.65758064074513" lon="6.66917005538492"><ele>722.4</ele><time>2026-04-12T07:40:35.999Z</time></trkpt><trkpt lat="43.65752494913337" lon="6.66906455247343"><ele>723.0</ele><time>2026-04-12T07:40:36.999Z</time></trkpt><trkpt lat="43.65746704399002" lon="6.668957848558722"><ele>723.0</ele><time>2026-04-12T07:40:37.999Z</time></trkpt><trkpt lat="43.65740973341289" lon="6.668862621294454"><ele>723.0</ele><time>2026-04-12T07:40:38.999Z</time></trkpt><trkpt lat="43.65735156023833" lon="6.668764493878204"><ele>723.0</ele><time>2026-04-12T07:40:39.999Z</time></trkpt><trkpt lat="43.657294007338734" lon="6.668670185631235"><ele>723.0</ele><time>2026-04-12T07:40:40.999Z</time></trkpt><trkpt lat="43.65723360562165" lon="6.668561918089894"><ele>723.0</ele><time>2026-04-12T07:40:41.999Z</time></trkpt><trkpt lat="43.65717348224772" lon="6.6684610674134825"><ele>723.5999999999999</ele><time>2026-04-12T07:40:42.999Z</time></trkpt><trkpt lat="43.65711544190212" lon="6.668359719197533"><ele>724.1999999999999</ele><time>2026-04-12T07:40:43.999Z</time></trkpt><trkpt lat="43.6570531374006" lon="6.668253728669911"><ele>724.8</ele><time>2026-04-12T07:40:44.999Z</time></trkpt><trkpt lat="43.6569965779906" lon="6.668139778565094"><ele>725.4</ele><time>2026-04-12T07:40:45.999Z</time></trkpt><trkpt lat="43.656942079631555" lon="6.66802856324141"><ele>726.0</ele><time>2026-04-12T07:40:46.999Z</time></trkpt><trkpt lat="43.656877475394076" lon="6.667919512931602"><ele>726.0</ele><time>2026-04-12T07:40:47.999Z</time></trkpt><trkpt lat="43.656809011900755" lon="6.667805967004766"><ele>726.0</ele><time>2026-04-12T07:40:48.999Z</time></trkpt><trkpt lat="43.65673444565419" lon="6.66768931055705"><ele>726.0</ele><time>2026-04-12T07:40:49.999Z</time></trkpt><trkpt lat="43.65665485597228" lon="6.667602691725423"><ele>726.0</ele><time>2026-04-12T07:40:50.999Z</time></trkpt><trkpt lat="43.65658370905898" lon="6.667497082804991"><ele>726.0</ele><time>2026-04-12T07:40:51.999Z</time></trkpt><trkpt lat="43.65649867193627" lon="6.66739915064526"><ele>724.4</ele><time>2026-04-12T07:40:52.999Z</time></trkpt><trkpt lat="43.65641493156936" lon="6.66731122887948"><ele>722.8</ele><time>2026-04-12T07:40:53.999Z</time></trkpt><trkpt lat="43.6563267516835" lon="6.667216223859909"><ele>721.1999999999999</ele><time>2026-04-12T07:40:54.999Z</time></trkpt><trkpt lat="43.656243802078166" lon="6.667122997056322"><ele>719.5999999999999</ele><time>2026-04-12T07:40:55.999Z</time></trkpt><trkpt lat="43.65615576128383" lon="6.667025264176864"><ele>718.0</ele><time>2026-04-12T07:40:56.999Z</time></trkpt><trkpt lat="43.65607022959502" lon="6.6669302095026"><ele>718.0</ele><time>2026-04-12T07:40:57.999Z</time></trkpt><trkpt lat="43.65598218585528" lon="6.666832142873854"><ele>718.0</ele><time>2026-04-12T07:40:58.999Z</time></trkpt><trkpt lat="43.655896760077155" lon="6.666737840112832"><ele>718.0</ele><time>2026-04-12T07:40:59.999Z</time></trkpt><trkpt lat="43.655808494779016" lon="6.666643875143561"><ele>718.0</ele><time>2026-04-12T07:41:00.999Z</time></trkpt><trkpt lat="43.65573079834583" lon="6.666532045115876"><ele>718.0</ele><time>2026-04-12T07:41:01.999Z</time></trkpt><trkpt lat="43.655642501144484" lon="6.666436228408333"><ele>718.0</ele><time>2026-04-12T07:41:02.999Z</time></trkpt><trkpt lat="43.65556112940302" lon="6.6663484215159645"><ele>718.0</ele><time>2026-04-12T07:41:03.999Z</time></trkpt><trkpt lat="43.655479002370704" lon="6.666259799653572"><ele>718.0</ele><time>2026-04-12T07:41:04.999Z</time></trkpt><trkpt lat="43.65540449021728" lon="6.666179394985444"><ele>718.0</ele><time>2026-04-12T07:41:05.999Z</time></trkpt><trkpt lat="43.65531624862781" lon="6.666114642829275"><ele>718.0</ele><time>2026-04-12T07:41:06.999Z</time></trkpt><trkpt lat="43.65523462000936" lon="6.66603018342703"><ele>717.0</ele><time>2026-04-12T07:41:07.999Z</time></trkpt><trkpt lat="43.65516036970093" lon="6.66592767271441"><ele>716.0</ele><time>2026-04-12T07:41:08.999Z</time></trkpt><trkpt lat="43.655079839395974" lon="6.66584886000871"><ele>715.0</ele><time>2026-04-12T07:41:09.999Z</time></trkpt><trkpt lat="43.65499356582494" lon="6.6657687538600054"><ele>714.0</ele><time>2026-04-12T07:41:10.999Z</time></trkpt><trkpt lat="43.65490429598589" lon="6.665686993795537"><ele>713.0</ele><time>2026-04-12T07:41:11.999Z</time></trkpt><trkpt lat="43.6548166047724" lon="6.665608519325508"><ele>713.0</ele><time>2026-04-12T07:41:12.999Z</time></trkpt><trkpt lat="43.654717335117226" lon="6.665543904005936"><ele>713.0</ele><time>2026-04-12T07:41:13.999Z</time></trkpt><trkpt lat="43.65462181526609" lon="6.665459606438674"><ele>713.0</ele><time>2026-04-12T07:41:14.999Z</time></trkpt><trkpt lat="43.65452250836941" lon="6.665372592951963"><ele>713.0</ele><time>2026-04-12T07:41:15.999Z</time></trkpt><trkpt lat="43.65442379842971" lon="6.665282239501955"><ele>712.0</ele><time>2026-04-12T07:41:16.999Z</time></trkpt><trkpt lat="43.65433374996551" lon="6.66517509803995"><ele>711.0</ele><time>2026-04-12T07:41:17.999Z</time></trkpt><trkpt lat="43.6542401879567" lon="6.665081128124461"><ele>710.0</ele><time>2026-04-12T07:41:18.999Z</time></trkpt><trkpt lat="43.65414822411114" lon="6.664976008752247"><ele>709.0</ele><time>2026-04-12T07:41:19.999Z</time></trkpt><trkpt lat="43.65407179878106" lon="6.664858961484495"><ele>709.0</ele><time>2026-04-12T07:41:20.999Z</time></trkpt><trkpt lat="43.653999740814434" lon="6.664715539691227"><ele>709.0</ele><time>2026-04-12T07:41:21.999Z</time></trkpt><trkpt lat="43.653961445200125" lon="6.664547162200457"><ele>709.0</ele><time>2026-04-12T07:41:22.999Z</time></trkpt><trkpt lat="43.65394248380781" lon="6.664365600802531"><ele>709.0</ele><time>2026-04-12T07:41:23.999Z</time></trkpt><trkpt lat="43.65394327626112" lon="6.664195206713921"><ele>707.75</ele><time>2026-04-12T07:41:24.999Z</time></trkpt><trkpt lat="43.653981975679876" lon="6.664023058460086"><ele>706.5</ele><time>2026-04-12T07:41:25.999Z</time></trkpt><trkpt lat="43.654006187818645" lon="6.663860073905068"><ele>705.25</ele><time>2026-04-12T07:41:26.999Z</time></trkpt><trkpt lat="43.654030079324635" lon="6.663699238520088"><ele>704.0</ele><time>2026-04-12T07:41:28Z</time></trkpt><trkpt lat="43.6540536754236" lon="6.663536072645312"><ele>702.75</ele><time>2026-04-12T07:41:29Z</time></trkpt><trkpt lat="43.6540783108132" lon="6.663379338071305"><ele>701.5</ele><time>2026-04-12T07:41:30Z</time></trkpt><trkpt lat="43.65408860031065" lon="6.663223852452221"><ele>700.25</ele><time>2026-04-12T07:41:31Z</time></trkpt><trkpt lat="43.65411430399222" lon="6.6630650910776845"><ele>699.0</ele><time>2026-04-12T07:41:32Z</time></trkpt><trkpt lat="43.65413146467628" lon="6.6629033440960574"><ele>698.5</ele><time>2026-04-12T07:41:33Z</time></trkpt><trkpt lat="43.654135610650265" lon="6.66273824455246"><ele>698.0</ele><time>2026-04-12T07:41:34Z</time></trkpt><trkpt lat="43.654119200053366" lon="6.66256969423068"><ele>697.5</ele><time>2026-04-12T07:41:35Z</time></trkpt><trkpt lat="43.65407596340423" lon="6.662419539090045"><ele>697.0</ele><time>2026-04-12T07:41:36Z</time></trkpt><trkpt lat="43.654019437446784" lon="6.662268776331415"><ele>697.0</ele><time>2026-04-12T07:41:37Z</time></trkpt><trkpt lat="43.65398610746453" lon="6.662107133757648"><ele>697.0</ele><time>2026-04-12T07:41:38Z</time></trkpt><trkpt lat="43.65394242424448" lon="6.661955384892295"><ele>697.0</ele><time>2026-04-12T07:41:39Z</time></trkpt><trkpt lat="43.65390035140408" lon="6.661805055845973"><ele>697.0</ele><time>2026-04-12T07:41:40Z</time></trkpt><trkpt lat="43.65385903123862" lon="6.661647824848532"><ele>697.0</ele><time>2026-04-12T07:41:41Z</time></trkpt><trkpt lat="43.65381853149938" lon="6.661489557569526"><ele>697.0</ele><time>2026-04-12T07:41:42Z</time></trkpt><trkpt lat="43.6537793631562" lon="6.661331975294759"><ele>697.0</ele><time>2026-04-12T07:41:43Z</time></trkpt><trkpt lat="43.653751192967185" lon="6.661173735182415"><ele>697.0</ele><time>2026-04-12T07:41:44Z</time></trkpt><trkpt lat="43.653766423515506" lon="6.661025318723931"><ele>696.75</ele><time>2026-04-12T07:41:45Z</time></trkpt><trkpt lat="43.65381310332073" lon="6.660893845608968"><ele>696.5</ele><time>2026-04-12T07:41:46Z</time></trkpt><trkpt lat="43.65387267508653" lon="6.660749727781459"><ele>696.25</ele><time>2026-04-12T07:41:47Z</time></trkpt><trkpt lat="43.653928680373575" lon="6.660612137408626"><ele>696.0</ele><time>2026-04-12T07:41:48Z</time></trkpt><trkpt lat="43.65397160126267" lon="6.660459768239813"><ele>696.0</ele><time>2026-04-12T07:41:49Z</time></trkpt><trkpt lat="43.6540420582917" lon="6.660328666248481"><ele>696.0</ele><time>2026-04-12T07:41:50Z</time></trkpt><trkpt lat="43.65410118316299" lon="6.660180301094804"><ele>696.0</ele><time>2026-04-12T07:41:51Z</time></trkpt><trkpt lat="43.654150419621594" lon="6.6600173767009085"><ele>696.0</ele><time>2026-04-12T07:41:52Z</time></trkpt><trkpt lat="43.65422307801375" lon="6.659882938558907"><ele>694.75</ele><time>2026-04-12T07:41:53Z</time></trkpt><trkpt lat="43.65428441289333" lon="6.659733312058349"><ele>693.5</ele><time>2026-04-12T07:41:54Z</time></trkpt><trkpt lat="43.65435153735261" lon="6.659569429436736"><ele>692.25</ele><time>2026-04-12T07:41:55Z</time></trkpt><trkpt lat="43.65439121658258" lon="6.659429699563911"><ele>691.0</ele><time>2026-04-12T07:41:56Z</time></trkpt><trkpt lat="43.65442202593953" lon="6.659315185904177"><ele>691.0</ele><time>2026-04-12T07:41:57Z</time></trkpt><trkpt lat="43.6544152813484" lon="6.659200188429713"><ele>691.0</ele><time>2026-04-12T07:41:58Z</time></trkpt><trkpt lat="43.65429702257823" lon="6.659134754728067"><ele>691.0</ele><time>2026-04-12T07:41:59Z</time></trkpt><trkpt lat="43.654119265822445" lon="6.659309089874426"><ele>691.0</ele><time>2026-04-12T07:42:01Z</time></trkpt><trkpt lat="43.65405558023028" lon="6.659423315689085"><ele>690.5999999999999</ele><time>2026-04-12T07:42:02Z</time></trkpt><trkpt lat="43.653988640638026" lon="6.659519761746579"><ele>690.2</ele><time>2026-04-12T07:42:03Z</time></trkpt><trkpt lat="43.653913650049525" lon="6.659612577239906"><ele>689.8</ele><time>2026-04-12T07:42:04Z</time></trkpt><trkpt lat="43.653818649374124" lon="6.659697829580421"><ele>689.4000000000001</ele><time>2026-04-12T07:42:05Z</time></trkpt><trkpt lat="43.65371120853749" lon="6.659763830115462"><ele>689.0</ele><time>2026-04-12T07:42:06Z</time></trkpt><trkpt lat="43.653595629555376" lon="6.659794247024861"><ele>686.0</ele><time>2026-04-12T07:42:07Z</time></trkpt><trkpt lat="43.65346990866248" lon="6.659783347435595"><ele>683.0</ele><time>2026-04-12T07:42:08Z</time></trkpt><trkpt lat="43.653346926837045" lon="6.659756364271544"><ele>680.0</ele><time>2026-04-12T07:42:09Z</time></trkpt><trkpt lat="43.65322427046608" lon="6.6597084576627"><ele>677.0</ele><time>2026-04-12T07:42:10Z</time></trkpt><trkpt lat="43.65310140279801" lon="6.659667706621092"><ele>677.0</ele><time>2026-04-12T07:42:11Z</time></trkpt><trkpt lat="43.652973796350025" lon="6.6596620481835265"><ele>677.0</ele><time>2026-04-12T07:42:12Z</time></trkpt><trkpt lat="43.652857727192306" lon="6.659724348080148"><ele>677.0</ele><time>2026-04-12T07:42:13Z</time></trkpt><trkpt lat="43.65275990061528" lon="6.659863192461389"><ele>677.0</ele><time>2026-04-12T07:42:14Z</time></trkpt><trkpt lat="43.6526768693899" lon="6.660011679388936"><ele>677.75</ele><time>2026-04-12T07:42:15Z</time></trkpt><trkpt lat="43.65259166773794" lon="6.660143351637126"><ele>678.5</ele><time>2026-04-12T07:42:16Z</time></trkpt><trkpt lat="43.652498078671826" lon="6.660278482939259"><ele>679.25</ele><time>2026-04-12T07:42:17Z</time></trkpt><trkpt lat="43.65240189455201" lon="6.660405092835847"><ele>680.0</ele><time>2026-04-12T07:42:18Z</time></trkpt><trkpt lat="43.6522972900559" lon="6.660522258452631"><ele>677.25</ele><time>2026-04-12T07:42:19Z</time></trkpt><trkpt lat="43.65219609950094" lon="6.660650311679055"><ele>674.5</ele><time>2026-04-12T07:42:20Z</time></trkpt><trkpt lat="43.65210099280082" lon="6.660782237310793"><ele>671.75</ele><time>2026-04-12T07:42:21Z</time></trkpt><trkpt lat="43.65200631775738" lon="6.660916158850905"><ele>669.0</ele><time>2026-04-12T07:42:22Z</time></trkpt><trkpt lat="43.65191234879069" lon="6.66104664790369"><ele>668.75</ele><time>2026-04-12T07:42:23Z</time></trkpt><trkpt lat="43.65180693124107" lon="6.661152970562945"><ele>668.5</ele><time>2026-04-12T07:42:24Z</time></trkpt><trkpt lat="43.651694954421664" lon="6.6612010742747705"><ele>668.25</ele><time>2026-04-12T07:42:25Z</time></trkpt><trkpt lat="43.651575897099384" lon="6.66114188561201"><ele>668.0</ele><time>2026-04-12T07:42:26Z</time></trkpt><trkpt lat="43.65147888113412" lon="6.661034552583552"><ele>668.0</ele><time>2026-04-12T07:42:27Z</time></trkpt><trkpt lat="43.65141543204154" lon="6.660883420127408"><ele>668.0</ele><time>2026-04-12T07:42:28Z</time></trkpt><trkpt lat="43.651363471872365" lon="6.660705428114539"><ele>668.0</ele><time>2026-04-12T07:42:29Z</time></trkpt><trkpt lat="43.651291723209354" lon="6.66056477151921"><ele>668.0</ele><time>2026-04-12T07:42:30Z</time></trkpt><trkpt lat="43.65119577033964" lon="6.6604550408086105"><ele>664.75</ele><time>2026-04-12T07:42:31Z</time></trkpt><trkpt lat="43.65108047994111" lon="6.660370023102924"><ele>661.5</ele><time>2026-04-12T07:42:32Z</time></trkpt><trkpt lat="43.6509561662491" lon="6.6603289085747015"><ele>658.25</ele><time>2026-04-12T07:42:33Z</time></trkpt><trkpt lat="43.6508248736101" lon="6.660313634101793"><ele>655.0</ele><time>2026-04-12T07:42:34Z</time></trkpt><trkpt lat="43.6506904097803" lon="6.660308218666857"><ele>655.0</ele><time>2026-04-12T07:42:34.999Z</time></trkpt><trkpt lat="43.65055642103943" lon="6.6603461183581105"><ele>655.0</ele><time>2026-04-12T07:42:35.999Z</time></trkpt><trkpt lat="43.650422971680584" lon="6.660361031038551"><ele>655.0</ele><time>2026-04-12T07:42:36.999Z</time></trkpt><trkpt lat="43.65028721379728" lon="6.660351861447993"><ele>655.0</ele><time>2026-04-12T07:42:37.999Z</time></trkpt><trkpt lat="43.65015478424941" lon="6.660319958768001"><ele>658.5</ele><time>2026-04-12T07:42:38.999Z</time></trkpt><trkpt lat="43.650021563670954" lon="6.660276192566562"><ele>662.0</ele><time>2026-04-12T07:42:39.999Z</time></trkpt><trkpt lat="43.64988442512581" lon="6.660238308136217"><ele>665.5</ele><time>2026-04-12T07:42:40.999Z</time></trkpt><trkpt lat="43.64974217244677" lon="6.660201073900945"><ele>669.0</ele><time>2026-04-12T07:42:41.999Z</time></trkpt><trkpt lat="43.649602275671604" lon="6.660169441160427"><ele>669.0</ele><time>2026-04-12T07:42:42.999Z</time></trkpt><trkpt lat="43.649466834425624" lon="6.660129273639775"><ele>669.0</ele><time>2026-04-12T07:42:43.999Z</time></trkpt><trkpt lat="43.64932773574486" lon="6.660082008455208"><ele>669.0</ele><time>2026-04-12T07:42:44.999Z</time></trkpt><trkpt lat="43.649184141741" lon="6.660026648612868"><ele>669.0</ele><time>2026-04-12T07:42:45.999Z</time></trkpt><trkpt lat="43.64904585284513" lon="6.659948329307353"><ele>665.75</ele><time>2026-04-12T07:42:46.999Z</time></trkpt><trkpt lat="43.64889892278748" lon="6.659920931571333"><ele>662.5</ele><time>2026-04-12T07:42:47.999Z</time></trkpt><trkpt lat="43.6487511334269" lon="6.6599020918831835"><ele>659.25</ele><time>2026-04-12T07:42:48.999Z</time></trkpt><trkpt lat="43.64860549198872" lon="6.659922950612677"><ele>656.0</ele><time>2026-04-12T07:42:49.999Z</time></trkpt><trkpt lat="43.64846135286524" lon="6.659959497949473"><ele>654.0</ele><time>2026-04-12T07:42:50.999Z</time></trkpt><trkpt lat="43.6483149809751" lon="6.659973485665835"><ele>652.0</ele><time>2026-04-12T07:42:51.999Z</time></trkpt><trkpt lat="43.64816871144799" lon="6.660016235417646"><ele>650.0</ele><time>2026-04-12T07:42:52.999Z</time></trkpt><trkpt lat="43.64802260776813" lon="6.660013186615321"><ele>648.0</ele><time>2026-04-12T07:42:53.999Z</time></trkpt><trkpt lat="43.64787531348701" lon="6.660050578893445"><ele>645.6666666666666</ele><time>2026-04-12T07:42:54.999Z</time></trkpt><trkpt lat="43.64772230833679" lon="6.660065566282015"><ele>643.3333333333333</ele><time>2026-04-12T07:42:55.999Z</time></trkpt><trkpt lat="43.64757071710397" lon="6.6600592522312345"><ele>641.0</ele><time>2026-04-12T07:42:56.999Z</time></trkpt><trkpt lat="43.647421759146454" lon="6.660050152501692"><ele>641.0</ele><time>2026-04-12T07:42:57.999Z</time></trkpt><trkpt lat="43.6472772818039" lon="6.660012212328006"><ele>641.0</ele><time>2026-04-12T07:42:58.999Z</time></trkpt><trkpt lat="43.64712336136727" lon="6.659965600497521"><ele>641.0</ele><time>2026-04-12T07:42:59.999Z</time></trkpt><trkpt lat="43.6469669390721" lon="6.6599648517591366"><ele>637.5</ele><time>2026-04-12T07:43:00.999Z</time></trkpt><trkpt lat="43.64681219827879" lon="6.65995115677859"><ele>634.0</ele><time>2026-04-12T07:43:01.999Z</time></trkpt><trkpt lat="43.64667381964279" lon="6.659951901668672"><ele>630.5</ele><time>2026-04-12T07:43:02.999Z</time></trkpt><trkpt lat="43.646572337689854" lon="6.659957955789127"><ele>627.0</ele><time>2026-04-12T07:43:03.999Z</time></trkpt><trkpt lat="43.64648664944499" lon="6.659925562076271"><ele>627.0</ele><time>2026-04-12T07:43:04.999Z</time></trkpt><trkpt lat="43.64643996302723" lon="6.659810206101087"><ele>627.0</ele><time>2026-04-12T07:43:05.999Z</time></trkpt><trkpt lat="43.64648074246327" lon="6.65967050459377"><ele>627.0</ele><time>2026-04-12T07:43:06.999Z</time></trkpt><trkpt lat="43.64648287242577" lon="6.6595132559297445"><ele>627.0</ele><time>2026-04-12T07:43:07.999Z</time></trkpt><trkpt lat="43.64648573195235" lon="6.659358101839236"><ele>627.0</ele><time>2026-04-12T07:43:08.999Z</time></trkpt><trkpt lat="43.646494398308896" lon="6.659198232062557"><ele>626.0</ele><time>2026-04-12T07:43:09.999Z</time></trkpt><trkpt lat="43.64651814490039" lon="6.659041792761108"><ele>625.0</ele><time>2026-04-12T07:43:10.999Z</time></trkpt><trkpt lat="43.64655606407059" lon="6.658882001812929"><ele>624.0</ele><time>2026-04-12T07:43:11.999Z</time></trkpt><trkpt lat="43.64661481374806" lon="6.658736684059907"><ele>623.0</ele><time>2026-04-12T07:43:12.999Z</time></trkpt><trkpt lat="43.646678798096374" lon="6.658585109500584"><ele>623.0</ele><time>2026-04-12T07:43:13.999Z</time></trkpt><trkpt lat="43.646737651214295" lon="6.658426625371927"><ele>623.0</ele><time>2026-04-12T07:43:14.999Z</time></trkpt><trkpt lat="43.646797892305266" lon="6.6582827371530255"><ele>623.0</ele><time>2026-04-12T07:43:15.999Z</time></trkpt><trkpt lat="43.64684321680879" lon="6.658144291538171"><ele>623.0</ele><time>2026-04-12T07:43:16.999Z</time></trkpt><trkpt lat="43.64684399798156" lon="6.658001352691932"><ele>623.0</ele><time>2026-04-12T07:43:17.999Z</time></trkpt><trkpt lat="43.64675449005973" lon="6.657844943414368"><ele>623.0</ele><time>2026-04-12T07:43:18.999Z</time></trkpt><trkpt lat="43.64662775602172" lon="6.657772561303546"><ele>623.0</ele><time>2026-04-12T07:43:19.999Z</time></trkpt><trkpt lat="43.646495091028264" lon="6.6577298258415745"><ele>623.0</ele><time>2026-04-12T07:43:20.999Z</time></trkpt><trkpt lat="43.646374419498585" lon="6.657672709781317"><ele>625.0</ele><time>2026-04-12T07:43:21.999Z</time></trkpt><trkpt lat="43.64625364950696" lon="6.657618423288725"><ele>627.0</ele><time>2026-04-12T07:43:22.999Z</time></trkpt><trkpt lat="43.646134341833346" lon="6.657561378228775"><ele>629.0</ele><time>2026-04-12T07:43:23.999Z</time></trkpt><trkpt lat="43.64602966377518" lon="6.657500747544538"><ele>631.0</ele><time>2026-04-12T07:43:24.999Z</time></trkpt><trkpt lat="43.64594130176905" lon="6.6574162423398136"><ele>626.4</ele><time>2026-04-12T07:43:25.999Z</time></trkpt><trkpt lat="43.645878250432055" lon="6.657305011600277"><ele>621.8</ele><time>2026-04-12T07:43:26.999Z</time></trkpt><trkpt lat="43.64585248860959" lon="6.657168116564803"><ele>617.1999999999999</ele><time>2026-04-12T07:43:27.999Z</time></trkpt><trkpt lat="43.64584874926986" lon="6.657004861662864"><ele>612.6</ele><time>2026-04-12T07:43:28.999Z</time></trkpt><trkpt lat="43.64585937947404" lon="6.656837707344306"><ele>608.0</ele><time>2026-04-12T07:43:29.999Z</time></trkpt><trkpt lat="43.64585448178348" lon="6.656664522870927"><ele>608.0</ele><time>2026-04-12T07:43:30.999Z</time></trkpt><trkpt lat="43.64584468640388" lon="6.6564991198832315"><ele>608.0</ele><time>2026-04-12T07:43:31.999Z</time></trkpt><trkpt lat="43.64580524152809" lon="6.656333035864352"><ele>608.0</ele><time>2026-04-12T07:43:32.999Z</time></trkpt><trkpt lat="43.645743850643576" lon="6.656176279695759"><ele>608.0</ele><time>2026-04-12T07:43:34Z</time></trkpt><trkpt lat="43.645667246820544" lon="6.656023734966068"><ele>609.25</ele><time>2026-04-12T07:43:35Z</time></trkpt><trkpt lat="43.64557942431311" lon="6.655889089006402"><ele>610.5</ele><time>2026-04-12T07:43:36Z</time></trkpt><trkpt lat="43.64546782123372" lon="6.655793608461293"><ele>611.75</ele><time>2026-04-12T07:43:37Z</time></trkpt><trkpt lat="43.64536659910252" lon="6.655695548941433"><ele>613.0</ele><time>2026-04-12T07:43:38Z</time></trkpt><trkpt lat="43.645271190663316" lon="6.655594150768621"><ele>609.0</ele><time>2026-04-12T07:43:39Z</time></trkpt><trkpt lat="43.645187835384995" lon="6.655460258631963"><ele>605.0</ele><time>2026-04-12T07:43:40Z</time></trkpt><trkpt lat="43.645108238874506" lon="6.655308260165861"><ele>601.0</ele><time>2026-04-12T07:43:41Z</time></trkpt><trkpt lat="43.645029938633066" lon="6.655151748467578"><ele>597.0</ele><time>2026-04-12T07:43:42Z</time></trkpt><trkpt lat="43.64495154054573" lon="6.654994140481428"><ele>597.0</ele><time>2026-04-12T07:43:43Z</time></trkpt><trkpt lat="43.644875683557075" lon="6.6548369087317045"><ele>597.0</ele><time>2026-04-12T07:43:44Z</time></trkpt><trkpt lat="43.64480625192697" lon="6.6546716099059795"><ele>597.0</ele><time>2026-04-12T07:43:45Z</time></trkpt><trkpt lat="43.64474366859929" lon="6.654497509284998"><ele>597.0</ele><time>2026-04-12T07:43:46Z</time></trkpt><trkpt lat="43.64468791275712" lon="6.654323300455573"><ele>597.5</ele><time>2026-04-12T07:43:47Z</time></trkpt><trkpt lat="43.644640398337444" lon="6.654158055141313"><ele>598.0</ele><time>2026-04-12T07:43:48Z</time></trkpt><trkpt lat="43.64459681584532" lon="6.653994100359892"><ele>598.5</ele><time>2026-04-12T07:43:49Z</time></trkpt><trkpt lat="43.64455643786546" lon="6.653825809734859"><ele>599.0</ele><time>2026-04-12T07:43:50Z</time></trkpt><trkpt lat="43.64450990535324" lon="6.653673683886295"><ele>597.5</ele><time>2026-04-12T07:43:51Z</time></trkpt><trkpt lat="43.64451157960958" lon="6.653530230251525"><ele>596.0</ele><time>2026-04-12T07:43:52Z</time></trkpt><trkpt lat="43.64456407362698" lon="6.6533941352934995"><ele>594.5</ele><time>2026-04-12T07:43:53Z</time></trkpt><trkpt lat="43.64464065358892" lon="6.653271388760844"><ele>593.0</ele><time>2026-04-12T07:43:54Z</time></trkpt><trkpt lat="43.64471462119422" lon="6.653138194917173"><ele>593.0</ele><time>2026-04-12T07:43:55Z</time></trkpt><trkpt lat="43.64480431591567" lon="6.653021963438353"><ele>593.0</ele><time>2026-04-12T07:43:56Z</time></trkpt><trkpt lat="43.64489385198314" lon="6.65290376544973"><ele>593.0</ele><time>2026-04-12T07:43:57Z</time></trkpt><trkpt lat="43.644982315277566" lon="6.652781326223834"><ele>593.0</ele><time>2026-04-12T07:43:58Z</time></trkpt><trkpt lat="43.6450705213158" lon="6.652663078284273"><ele>593.1999999999999</ele><time>2026-04-12T07:43:59Z</time></trkpt><trkpt lat="43.64515496361317" lon="6.652561039337224"><ele>593.4</ele><time>2026-04-12T07:44:00Z</time></trkpt><trkpt lat="43.64523317037389" lon="6.65248075125687"><ele>593.5999999999999</ele><time>2026-04-12T07:44:01Z</time></trkpt><trkpt lat="43.64530931563418" lon="6.652415232443228"><ele>593.8</ele><time>2026-04-12T07:44:02Z</time></trkpt><trkpt lat="43.64536824943634" lon="6.652344426624267"><ele>594.0</ele><time>2026-04-12T07:44:03Z</time></trkpt><trkpt lat="43.64536222455385" lon="6.6522339896417115"><ele>594.0</ele><time>2026-04-12T07:44:04Z</time></trkpt><trkpt lat="43.645322077111196" lon="6.652095752260142"><ele>594.0</ele><time>2026-04-12T07:44:05Z</time></trkpt><trkpt lat="43.645179161577765" lon="6.652170399192853"><ele>594.0</ele><time>2026-04-12T07:44:06Z</time></trkpt><trkpt lat="43.645096583265904" lon="6.6522572210609665"><ele>594.0</ele><time>2026-04-12T07:44:07Z</time></trkpt><trkpt lat="43.64500798295024" lon="6.6523196624316006"><ele>590.5</ele><time>2026-04-12T07:44:08Z</time></trkpt><trkpt lat="43.64491871992452" lon="6.652389566698917"><ele>587.0</ele><time>2026-04-12T07:44:09Z</time></trkpt><trkpt lat="43.64481943224803" lon="6.652450782682361"><ele>583.5</ele><time>2026-04-12T07:44:10Z</time></trkpt><trkpt lat="43.64471775395981" lon="6.652521390838386"><ele>580.0</ele><time>2026-04-12T07:44:11Z</time></trkpt><trkpt lat="43.64459832280344" lon="6.652580944167044"><ele>580.0</ele><time>2026-04-12T07:44:12Z</time></trkpt><trkpt lat="43.64448542265459" lon="6.652659983144"><ele>580.0</ele><time>2026-04-12T07:44:13Z</time></trkpt><trkpt lat="43.644382489436005" lon="6.652760463326524"><ele>580.0</ele><time>2026-04-12T07:44:14Z</time></trkpt><trkpt lat="43.64428441533491" lon="6.652873570381278"><ele>580.0</ele><time>2026-04-12T07:44:15Z</time></trkpt><trkpt lat="43.644189499505735" lon="6.652998323528002"><ele>578.5</ele><time>2026-04-12T07:44:16Z</time></trkpt><trkpt lat="43.644103603184575" lon="6.653140939599669"><ele>577.0</ele><time>2026-04-12T07:44:17Z</time></trkpt><trkpt lat="43.64403689476073" lon="6.653307191008966"><ele>575.5</ele><time>2026-04-12T07:44:18Z</time></trkpt><trkpt lat="43.64397873529512" lon="6.653480856045392"><ele>574.0</ele><time>2026-04-12T07:44:19Z</time></trkpt><trkpt lat="43.6439167391518" lon="6.653657167140551"><ele>574.0</ele><time>2026-04-12T07:44:20Z</time></trkpt><trkpt lat="43.64385800687748" lon="6.653839892697271"><ele>574.0</ele><time>2026-04-12T07:44:21Z</time></trkpt><trkpt lat="43.643808649492534" lon="6.65402742261284"><ele>574.0</ele><time>2026-04-12T07:44:22Z</time></trkpt><trkpt lat="43.643767980300154" lon="6.654221441689757"><ele>574.0</ele><time>2026-04-12T07:44:23Z</time></trkpt><trkpt lat="43.643740777581826" lon="6.6544198671815105"><ele>573.75</ele><time>2026-04-12T07:44:24Z</time></trkpt><trkpt lat="43.64370908517645" lon="6.654615868019257"><ele>573.5</ele><time>2026-04-12T07:44:25Z</time></trkpt><trkpt lat="43.643674448877945" lon="6.654812072192687"><ele>573.25</ele><time>2026-04-12T07:44:26Z</time></trkpt><trkpt lat="43.643632107787276" lon="6.655004111030191"><ele>573.0</ele><time>2026-04-12T07:44:27Z</time></trkpt><trkpt lat="43.64365726537172" lon="6.655204151117925"><ele>571.75</ele><time>2026-04-12T07:44:28Z</time></trkpt><trkpt lat="43.64369899102421" lon="6.655388328493437"><ele>570.5</ele><time>2026-04-12T07:44:29Z</time></trkpt><trkpt lat="43.64374747516652" lon="6.655559162263187"><ele>569.25</ele><time>2026-04-12T07:44:30Z</time></trkpt><trkpt lat="43.64375033957573" lon="6.655738305853005"><ele>568.0</ele><time>2026-04-12T07:44:31Z</time></trkpt><trkpt lat="43.643674632725094" lon="6.655891266460599"><ele>561.5</ele><time>2026-04-12T07:44:32Z</time></trkpt><trkpt lat="43.64361505427075" lon="6.656068195697316"><ele>555.0</ele><time>2026-04-12T07:44:33Z</time></trkpt><trkpt lat="43.64357182516291" lon="6.656248284030519"><ele>548.5</ele><time>2026-04-12T07:44:34Z</time></trkpt><trkpt lat="43.64353480809336" lon="6.6564165621783475"><ele>542.0</ele><time>2026-04-12T07:44:35Z</time></trkpt><trkpt lat="43.64351419777013" lon="6.656574621934883"><ele>541.25</ele><time>2026-04-12T07:44:36Z</time></trkpt><trkpt lat="43.64351896965552" lon="6.656724190627208"><ele>540.5</ele><time>2026-04-12T07:44:37Z</time></trkpt><trkpt lat="43.643558287990565" lon="6.656869343080453"><ele>539.75</ele><time>2026-04-12T07:44:38Z</time></trkpt><trkpt lat="43.64365285170639" lon="6.656982951363434"><ele>539.0</ele><time>2026-04-12T07:44:39Z</time></trkpt><trkpt lat="43.64374075505489" lon="6.6570931767692"><ele>540.5</ele><time>2026-04-12T07:44:40Z</time></trkpt><trkpt lat="43.64377255263803" lon="6.657257873999196"><ele>542.0</ele><time>2026-04-12T07:44:41Z</time></trkpt><trkpt lat="43.64374697285559" lon="6.657434129137429"><ele>543.5</ele><time>2026-04-12T07:44:41.999Z</time></trkpt><trkpt lat="43.64375288233931" lon="6.65761512890492"><ele>545.0</ele><time>2026-04-12T07:44:42.999Z</time></trkpt><trkpt lat="43.64377700924497" lon="6.6577943456876705"><ele>545.0</ele><time>2026-04-12T07:44:43.999Z</time></trkpt><trkpt lat="43.6438134797784" lon="6.657954689705426"><ele>545.0</ele><time>2026-04-12T07:44:44.999Z</time></trkpt><trkpt lat="43.64387435843499" lon="6.658082874508297"><ele>545.0</ele><time>2026-04-12T07:44:45.999Z</time></trkpt><trkpt lat="43.643971324940956" lon="6.65816335263675"><ele>545.0</ele><time>2026-04-12T07:44:46.999Z</time></trkpt><trkpt lat="43.64406496557564" lon="6.6582313344593285"><ele>545.0</ele><time>2026-04-12T07:44:47.999Z</time></trkpt><trkpt lat="43.64412929658484" lon="6.658301912082173"><ele>545.0</ele><time>2026-04-12T07:44:48.999Z</time></trkpt><trkpt lat="43.644083110068024" lon="6.658478727123723"><ele>545.0</ele><time>2026-04-12T07:44:50.999Z</time></trkpt><trkpt lat="43.64398475868424" lon="6.658467501150041"><ele>545.0</ele><time>2026-04-12T07:44:51.999Z</time></trkpt><trkpt lat="43.64389839379635" lon="6.658371429892846"><ele>545.0</ele><time>2026-04-12T07:44:52.999Z</time></trkpt><trkpt lat="43.64380702760525" lon="6.658317713923641"><ele>545.0</ele><time>2026-04-12T07:44:53.999Z</time></trkpt><trkpt lat="43.64373810836338" lon="6.658212725242074"><ele>545.0</ele><time>2026-04-12T07:44:54.999Z</time></trkpt><trkpt lat="43.6436634673034" lon="6.658108729357563"><ele>545.0</ele><time>2026-04-12T07:44:55.999Z</time></trkpt><trkpt lat="43.64360659075015" lon="6.657977808681097"><ele>545.0</ele><time>2026-04-12T07:44:56.999Z</time></trkpt><trkpt lat="43.64353485309459" lon="6.657844932582746"><ele>545.0</ele><time>2026-04-12T07:44:57.999Z</time></trkpt><trkpt lat="43.64346753521001" lon="6.657704804091446"><ele>542.25</ele><time>2026-04-12T07:44:58.999Z</time></trkpt><trkpt lat="43.643374979532695" lon="6.657589109816584"><ele>539.5</ele><time>2026-04-12T07:44:59.999Z</time></trkpt><trkpt lat="43.64325683759354" lon="6.657516867224929"><ele>536.75</ele><time>2026-04-12T07:45:00.999Z</time></trkpt><trkpt lat="43.64315034903407" lon="6.657447822821625"><ele>534.0</ele><time>2026-04-12T07:45:01.999Z</time></trkpt><trkpt lat="43.64307265907642" lon="6.6573369748085485"><ele>534.0</ele><time>2026-04-12T07:45:02.999Z</time></trkpt><trkpt lat="43.643058217385104" lon="6.657166776339526"><ele>534.0</ele><time>2026-04-12T07:45:03.999Z</time></trkpt><trkpt lat="43.64304843396883" lon="6.65699848374618"><ele>534.0</ele><time>2026-04-12T07:45:04.999Z</time></trkpt><trkpt lat="43.64302257973312" lon="6.6568250325217315"><ele>534.0</ele><time>2026-04-12T07:45:05.999Z</time></trkpt><trkpt lat="43.64296159146079" lon="6.656663575674205"><ele>535.25</ele><time>2026-04-12T07:45:06.999Z</time></trkpt><trkpt lat="43.64289028759612" lon="6.656503840903618"><ele>536.5</ele><time>2026-04-12T07:45:07.999Z</time></trkpt><trkpt lat="43.64282032016025" lon="6.656350524024599"><ele>537.75</ele><time>2026-04-12T07:45:08.999Z</time></trkpt><trkpt lat="43.64275920812538" lon="6.656187135343094"><ele>539.0</ele><time>2026-04-12T07:45:09.999Z</time></trkpt><trkpt lat="43.642742144008174" lon="6.656001193016826"><ele>533.5</ele><time>2026-04-12T07:45:10.999Z</time></trkpt><trkpt lat="43.64269957332855" lon="6.6558232060666365"><ele>528.0</ele><time>2026-04-12T07:45:11.999Z</time></trkpt><trkpt lat="43.64263030640751" lon="6.655657541878096"><ele>522.5</ele><time>2026-04-12T07:45:12.999Z</time></trkpt><trkpt lat="43.64251351175298" lon="6.655532786310576"><ele>517.0</ele><time>2026-04-12T07:45:13.999Z</time></trkpt><trkpt lat="43.6424160161357" lon="6.655397485277773"><ele>518.75</ele><time>2026-04-12T07:45:14.999Z</time></trkpt><trkpt lat="43.64234172674382" lon="6.655255022390598"><ele>520.5</ele><time>2026-04-12T07:45:15.999Z</time></trkpt><trkpt lat="43.64231291062109" lon="6.655083328413053"><ele>522.25</ele><time>2026-04-12T07:45:16.999Z</time></trkpt><trkpt lat="43.64230977800514" lon="6.654898702558832"><ele>524.0</ele><time>2026-04-12T07:45:17.999Z</time></trkpt><trkpt lat="43.64230500595719" lon="6.654706017136396"><ele>524.0</ele><time>2026-04-12T07:45:18.999Z</time></trkpt><trkpt lat="43.64230208586029" lon="6.654514222031371"><ele>524.0</ele><time>2026-04-12T07:45:19.999Z</time></trkpt><trkpt lat="43.642299136920926" lon="6.654320532472463"><ele>524.0</ele><time>2026-04-12T07:45:20.999Z</time></trkpt><trkpt lat="43.64227959591556" lon="6.654121641955588"><ele>524.0</ele><time>2026-04-12T07:45:21.999Z</time></trkpt><trkpt lat="43.64227513113258" lon="6.653923598455566"><ele>523.5</ele><time>2026-04-12T07:45:22.999Z</time></trkpt><trkpt lat="43.64226878029592" lon="6.653718724333224"><ele>523.0</ele><time>2026-04-12T07:45:23.999Z</time></trkpt><trkpt lat="43.64226697636309" lon="6.653514771842702"><ele>522.5</ele><time>2026-04-12T07:45:24.999Z</time></trkpt><trkpt lat="43.64230333608991" lon="6.653315928849309"><ele>522.0</ele><time>2026-04-12T07:45:25.999Z</time></trkpt><trkpt lat="43.64233067882035" lon="6.653113205888707"><ele>519.6666666666666</ele><time>2026-04-12T07:45:26.999Z</time></trkpt><trkpt lat="43.642354128287906" lon="6.652910513275425"><ele>517.3333333333333</ele><time>2026-04-12T07:45:27.999Z</time></trkpt><trkpt lat="43.642403562062825" lon="6.652717225286225"><ele>515.0</ele><time>2026-04-12T07:45:28.999Z</time></trkpt><trkpt lat="43.64246794652281" lon="6.6525259689213945"><ele>512.3333333333333</ele><time>2026-04-12T07:45:29.999Z</time></trkpt><trkpt lat="43.64247849593958" lon="6.652315687386266"><ele>509.66666666666663</ele><time>2026-04-12T07:45:30.999Z</time></trkpt><trkpt lat="43.642501786357826" lon="6.652109296667531"><ele>507.0</ele><time>2026-04-12T07:45:31.999Z</time></trkpt><trkpt lat="43.642550719622164" lon="6.651917815987832"><ele>504.0</ele><time>2026-04-12T07:45:32.999Z</time></trkpt><trkpt lat="43.64259649617483" lon="6.651734588076347"><ele>501.0</ele><time>2026-04-12T07:45:33.999Z</time></trkpt><trkpt lat="43.642659078205114" lon="6.651572131948401"><ele>498.0</ele><time>2026-04-12T07:45:34.999Z</time></trkpt><trkpt lat="43.64274590395729" lon="6.6514058586709845"><ele>495.0</ele><time>2026-04-12T07:45:35.999Z</time></trkpt><trkpt lat="43.64284496425063" lon="6.651301012761048"><ele>496.5</ele><time>2026-04-12T07:45:36.999Z</time></trkpt><trkpt lat="43.642958525105655" lon="6.651211677922077"><ele>498.0</ele><time>2026-04-12T07:45:37.999Z</time></trkpt><trkpt lat="43.643069673699" lon="6.651105318078399"><ele>499.5</ele><time>2026-04-12T07:45:38.999Z</time></trkpt><trkpt lat="43.64315378561743" lon="6.650984603906442"><ele>501.0</ele><time>2026-04-12T07:45:40Z</time></trkpt><trkpt lat="43.643240074691896" lon="6.650866730711438"><ele>501.0</ele><time>2026-04-12T07:45:41Z</time></trkpt><trkpt lat="43.643311933918135" lon="6.6507155740113175"><ele>501.0</ele><time>2026-04-12T07:45:42Z</time></trkpt><trkpt lat="43.64337659405229" lon="6.650572247732539"><ele>501.0</ele><time>2026-04-12T07:45:43Z</time></trkpt><trkpt lat="43.64343871305224" lon="6.650437136642282"><ele>501.0</ele><time>2026-04-12T07:45:44Z</time></trkpt><trkpt lat="43.64355422359425" lon="6.650362521833662"><ele>500.5</ele><time>2026-04-12T07:45:45Z</time></trkpt><trkpt lat="43.6436770721181" lon="6.650319166323899"><ele>500.0</ele><time>2026-04-12T07:45:46Z</time></trkpt><trkpt lat="43.643787927380515" lon="6.650224845506616"><ele>499.5</ele><time>2026-04-12T07:45:47Z</time></trkpt><trkpt lat="43.643860825502266" lon="6.650071502906944"><ele>499.0</ele><time>2026-04-12T07:45:48Z</time></trkpt><trkpt lat="43.64393692779432" lon="6.649941645192806"><ele>499.0</ele><time>2026-04-12T07:45:49Z</time></trkpt><trkpt lat="43.644006027217415" lon="6.64981928475945"><ele>499.0</ele><time>2026-04-12T07:45:50Z</time></trkpt><trkpt lat="43.64412048749183" lon="6.649763186569496"><ele>499.0</ele><time>2026-04-12T07:45:51Z</time></trkpt><trkpt lat="43.64423655072009" lon="6.649756728172501"><ele>499.0</ele><time>2026-04-12T07:45:52Z</time></trkpt><trkpt lat="43.64433251446396" lon="6.649731418306791"><ele>499.0</ele><time>2026-04-12T07:45:53Z</time></trkpt><trkpt lat="43.644410751123296" lon="6.649683576124075"><ele>499.0</ele><time>2026-04-12T07:45:54Z</time></trkpt><trkpt lat="43.644457582131494" lon="6.649609299585007"><ele>499.0</ele><time>2026-04-12T07:45:55Z</time></trkpt><trkpt lat="43.644472644765045" lon="6.649512307726823"><ele>499.0</ele><time>2026-04-12T07:45:56Z</time></trkpt><trkpt lat="43.6443898068649" lon="6.649410700953976"><ele>499.0</ele><time>2026-04-12T07:45:57Z</time></trkpt><trkpt lat="43.644275612086076" lon="6.649491143226752"><ele>499.0</ele><time>2026-04-12T07:45:58Z</time></trkpt><trkpt lat="43.644202970923615" lon="6.649562925735078"><ele>499.0</ele><time>2026-04-12T07:45:59Z</time></trkpt><trkpt lat="43.64410409057161" lon="6.649568024712227"><ele>499.0</ele><time>2026-04-12T07:46:00Z</time></trkpt><trkpt lat="43.64400641627809" lon="6.649604108194178"><ele>499.0</ele><time>2026-04-12T07:46:01Z</time></trkpt><trkpt lat="43.643907219282944" lon="6.649650686311398"><ele>499.0</ele><time>2026-04-12T07:46:02Z</time></trkpt><trkpt lat="43.6438013534837" lon="6.6496875384687595"><ele>499.0</ele><time>2026-04-12T07:46:03Z</time></trkpt><trkpt lat="43.643684336983036" lon="6.649746663260284"><ele>494.0</ele><time>2026-04-12T07:46:04Z</time></trkpt><trkpt lat="43.64358433194353" lon="6.6498797616122465"><ele>489.0</ele><time>2026-04-12T07:46:05Z</time></trkpt><trkpt lat="43.643465855299794" lon="6.649966436518225"><ele>484.0</ele><time>2026-04-12T07:46:06Z</time></trkpt><trkpt lat="43.64334675402568" lon="6.650010742002338"><ele>479.0</ele><time>2026-04-12T07:46:07Z</time></trkpt><trkpt lat="43.64322245746526" lon="6.650006983786749"><ele>479.0</ele><time>2026-04-12T07:46:08Z</time></trkpt><trkpt lat="43.64310049196774" lon="6.650030130229786"><ele>479.0</ele><time>2026-04-12T07:46:09Z</time></trkpt><trkpt lat="43.64299149654012" lon="6.650155128416001"><ele>479.0</ele><time>2026-04-12T07:46:10Z</time></trkpt><trkpt lat="43.642881414990704" lon="6.6502470552156865"><ele>479.0</ele><time>2026-04-12T07:46:11Z</time></trkpt><trkpt lat="43.64276506604173" lon="6.6503290432177184"><ele>479.5</ele><time>2026-04-12T07:46:12Z</time></trkpt><trkpt lat="43.64264071967697" lon="6.65041081958415"><ele>480.0</ele><time>2026-04-12T07:46:13Z</time></trkpt><trkpt lat="43.64250002267876" lon="6.650422929144915"><ele>480.5</ele><time>2026-04-12T07:46:14Z</time></trkpt><trkpt lat="43.64235874221704" lon="6.650424415371175"><ele>481.0</ele><time>2026-04-12T07:46:15Z</time></trkpt><trkpt lat="43.64222112648152" lon="6.650425045141025"><ele>481.0</ele><time>2026-04-12T07:46:16Z</time></trkpt><trkpt lat="43.64207261717945" lon="6.650463915274787"><ele>481.0</ele><time>2026-04-12T07:46:17Z</time></trkpt><trkpt lat="43.64192832990866" lon="6.650488656014996"><ele>481.0</ele><time>2026-04-12T07:46:18Z</time></trkpt><trkpt lat="43.64178684671308" lon="6.650534332902171"><ele>481.0</ele><time>2026-04-12T07:46:19Z</time></trkpt><trkpt lat="43.64164464569439" lon="6.650582134507689"><ele>477.75</ele><time>2026-04-12T07:46:20Z</time></trkpt><trkpt lat="43.64150496225223" lon="6.650621632913245"><ele>474.5</ele><time>2026-04-12T07:46:21Z</time></trkpt><trkpt lat="43.641373299662646" lon="6.650639013281044"><ele>471.25</ele><time>2026-04-12T07:46:22Z</time></trkpt><trkpt lat="43.64126352662927" lon="6.650606554652303"><ele>468.0</ele><time>2026-04-12T07:46:23Z</time></trkpt><trkpt lat="43.64115155555538" lon="6.650602043536478"><ele>463.0</ele><time>2026-04-12T07:46:24Z</time></trkpt><trkpt lat="43.64105098492569" lon="6.650605368647655"><ele>458.0</ele><time>2026-04-12T07:46:25Z</time></trkpt><trkpt lat="43.64095859795659" lon="6.65070034785597"><ele>453.0</ele><time>2026-04-12T07:46:26Z</time></trkpt><trkpt lat="43.64091097610189" lon="6.650874655484146"><ele>448.0</ele><time>2026-04-12T07:46:27Z</time></trkpt><trkpt lat="43.64091777601002" lon="6.651057625671395"><ele>448.25</ele><time>2026-04-12T07:46:28Z</time></trkpt><trkpt lat="43.64094396015132" lon="6.651232856373994"><ele>448.5</ele><time>2026-04-12T07:46:29Z</time></trkpt><trkpt lat="43.640932329040524" lon="6.651400584884505"><ele>448.75</ele><time>2026-04-12T07:46:30Z</time></trkpt><trkpt lat="43.640911653979146" lon="6.651577355034238"><ele>449.0</ele><time>2026-04-12T07:46:31Z</time></trkpt><trkpt lat="43.64088389973963" lon="6.651757548816571"><ele>449.0</ele><time>2026-04-12T07:46:32Z</time></trkpt><trkpt lat="43.64084912195169" lon="6.651932074635027"><ele>449.0</ele><time>2026-04-12T07:46:33Z</time></trkpt><trkpt lat="43.640809631536044" lon="6.652108951706676"><ele>449.0</ele><time>2026-04-12T07:46:34Z</time></trkpt><trkpt lat="43.640755239821246" lon="6.652258882121427"><ele>449.0</ele><time>2026-04-12T07:46:35Z</time></trkpt><trkpt lat="43.640680239779975" lon="6.652382052816069"><ele>450.75</ele><time>2026-04-12T07:46:36Z</time></trkpt><trkpt lat="43.64056728480837" lon="6.652440925880528"><ele>452.5</ele><time>2026-04-12T07:46:37Z</time></trkpt><trkpt lat="43.64043737153525" lon="6.652463914128204"><ele>454.25</ele><time>2026-04-12T07:46:38Z</time></trkpt><trkpt lat="43.64031831568075" lon="6.652542913951548"><ele>456.0</ele><time>2026-04-12T07:46:39Z</time></trkpt><trkpt lat="43.64018546098523" lon="6.652595638570833"><ele>454.25</ele><time>2026-04-12T07:46:40Z</time></trkpt><trkpt lat="43.64006341065618" lon="6.652661213367439"><ele>452.5</ele><time>2026-04-12T07:46:41Z</time></trkpt><trkpt lat="43.6399376919385" lon="6.652725664401316"><ele>450.75</ele><time>2026-04-12T07:46:42Z</time></trkpt><trkpt lat="43.63980765848934" lon="6.652789509488223"><ele>449.0</ele><time>2026-04-12T07:46:43Z</time></trkpt><trkpt lat="43.6396808677983" lon="6.6528602926912495"><ele>449.0</ele><time>2026-04-12T07:46:44Z</time></trkpt><trkpt lat="43.63956259784228" lon="6.652949294485685"><ele>449.0</ele><time>2026-04-12T07:46:45Z</time></trkpt><trkpt lat="43.63945237018732" lon="6.6530562640624"><ele>449.0</ele><time>2026-04-12T07:46:46Z</time></trkpt><trkpt lat="43.639356195048364" lon="6.653188078109098"><ele>449.0</ele><time>2026-04-12T07:46:47Z</time></trkpt><trkpt lat="43.63929378077184" lon="6.65333776466023"><ele>444.0</ele><time>2026-04-12T07:46:48Z</time></trkpt><trkpt lat="43.6392517550677" lon="6.6534762335992506"><ele>439.0</ele><time>2026-04-12T07:46:49Z</time></trkpt><trkpt lat="43.63925948305188" lon="6.653633511264053"><ele>434.0</ele><time>2026-04-12T07:46:49.999Z</time></trkpt><trkpt lat="43.639317064455234" lon="6.653777034514236"><ele>429.0</ele><time>2026-04-12T07:46:50.999Z</time></trkpt><trkpt lat="43.639401536904515" lon="6.653889985364607"><ele>427.8333333333333</ele><time>2026-04-12T07:46:51.999Z</time></trkpt><trkpt lat="43.63945667528547" lon="6.653996537019836"><ele>426.66666666666663</ele><time>2026-04-12T07:46:52.999Z</time></trkpt><trkpt lat="43.63948466434852" lon="6.654096836476413"><ele>425.5</ele><time>2026-04-12T07:46:53.999Z</time></trkpt><trkpt lat="43.639477995986226" lon="6.654202615877549"><ele>424.3333333333333</ele><time>2026-04-12T07:46:54.999Z</time></trkpt><trkpt lat="43.63937465977327" lon="6.654257877456183"><ele>423.16666666666663</ele><time>2026-04-12T07:46:55.999Z</time></trkpt><trkpt lat="43.63929967079702" lon="6.6542834404293005"><ele>422.0</ele><time>2026-04-12T07:46:56.999Z</time></trkpt><trkpt lat="43.63922675833706" lon="6.654159758470371"><ele>422.0</ele><time>2026-04-12T07:46:57.999Z</time></trkpt><trkpt lat="43.63918875911012" lon="6.6540350259444185"><ele>422.0</ele><time>2026-04-12T07:46:58.999Z</time></trkpt><trkpt lat="43.63912627266205" lon="6.653930413140753"><ele>422.0</ele><time>2026-04-12T07:46:59.999Z</time></trkpt><trkpt lat="43.639050926219866" lon="6.653826091467246"><ele>422.0</ele><time>2026-04-12T07:47:00.999Z</time></trkpt><trkpt lat="43.6389920040654" lon="6.653696575196283"><ele>422.0</ele><time>2026-04-12T07:47:01.999Z</time></trkpt><trkpt lat="43.63892595866866" lon="6.653570245095864"><ele>423.75</ele><time>2026-04-12T07:47:02.999Z</time></trkpt><trkpt lat="43.638859448139556" lon="6.6534350154968225"><ele>425.5</ele><time>2026-04-12T07:47:03.999Z</time></trkpt><trkpt lat="43.6387974678268" lon="6.653297286675171"><ele>427.25</ele><time>2026-04-12T07:47:04.999Z</time></trkpt><trkpt lat="43.63874159575827" lon="6.653140965135742"><ele>429.0</ele><time>2026-04-12T07:47:05.999Z</time></trkpt><trkpt lat="43.638702696160586" lon="6.653004314792028"><ele>429.0</ele><time>2026-04-12T07:47:06.999Z</time></trkpt><trkpt lat="43.63868652184417" lon="6.652882569762024"><ele>429.0</ele><time>2026-04-12T07:47:07.999Z</time></trkpt><trkpt lat="43.638685318963944" lon="6.652763552491405"><ele>429.0</ele><time>2026-04-12T07:47:08.999Z</time></trkpt><trkpt lat="43.6387883755998" lon="6.652682888893178"><ele>429.0</ele><time>2026-04-12T07:47:09.999Z</time></trkpt><trkpt lat="43.638878521712016" lon="6.652584927953463"><ele>429.0</ele><time>2026-04-12T07:47:10.999Z</time></trkpt><trkpt lat="43.6389681034961" lon="6.652477108551887"><ele>427.25</ele><time>2026-04-12T07:47:11.999Z</time></trkpt><trkpt lat="43.63906180300463" lon="6.652388567462064"><ele>425.5</ele><time>2026-04-12T07:47:12.999Z</time></trkpt><trkpt lat="43.63915846357287" lon="6.652283516280686"><ele>423.75</ele><time>2026-04-12T07:47:13.999Z</time></trkpt><trkpt lat="43.639253958658124" lon="6.652180687328812"><ele>422.0</ele><time>2026-04-12T07:47:14.999Z</time></trkpt><trkpt lat="43.63933971508246" lon="6.652059344919002"><ele>418.75</ele><time>2026-04-12T07:47:15.999Z</time></trkpt><trkpt lat="43.63938719397271" lon="6.6519033955194296"><ele>415.5</ele><time>2026-04-12T07:47:16.999Z</time></trkpt><trkpt lat="43.63940325996914" lon="6.651743527463801"><ele>412.25</ele><time>2026-04-12T07:47:17.999Z</time></trkpt><trkpt lat="43.63937653953668" lon="6.651571627445027"><ele>409.0</ele><time>2026-04-12T07:47:18.999Z</time></trkpt><trkpt lat="43.639344954695645" lon="6.651402434216728"><ele>409.0</ele><time>2026-04-12T07:47:19.999Z</time></trkpt><trkpt lat="43.639329379487904" lon="6.651228512569985"><ele>409.0</ele><time>2026-04-12T07:47:20.999Z</time></trkpt><trkpt lat="43.63931423488114" lon="6.651055343358033"><ele>409.0</ele><time>2026-04-12T07:47:21.999Z</time></trkpt><trkpt lat="43.63929515837265" lon="6.6508778471755425"><ele>409.0</ele><time>2026-04-12T07:47:22.999Z</time></trkpt><trkpt lat="43.63929188069787" lon="6.650699603175499"><ele>407.5</ele><time>2026-04-12T07:47:23.999Z</time></trkpt><trkpt lat="43.639279611103554" lon="6.650520021536099"><ele>406.0</ele><time>2026-04-12T07:47:24.999Z</time></trkpt><trkpt lat="43.6392855187305" lon="6.6503413359103725"><ele>404.5</ele><time>2026-04-12T07:47:25.999Z</time></trkpt><trkpt lat="43.6392994034394" lon="6.65015898658013"><ele>403.0</ele><time>2026-04-12T07:47:26.999Z</time></trkpt><trkpt lat="43.63932080308352" lon="6.649975375714015"><ele>401.75</ele><time>2026-04-12T07:47:27.999Z</time></trkpt><trkpt lat="43.6393364856433" lon="6.6497889346330625"><ele>400.5</ele><time>2026-04-12T07:47:28.999Z</time></trkpt><trkpt lat="43.639374978805414" lon="6.649623300839021"><ele>399.25</ele><time>2026-04-12T07:47:29.999Z</time></trkpt><trkpt lat="43.63941024911461" lon="6.649465896819975"><ele>398.0</ele><time>2026-04-12T07:47:30.999Z</time></trkpt><trkpt lat="43.63942561133137" lon="6.64932042973509"><ele>398.0</ele><time>2026-04-12T07:47:31.999Z</time></trkpt><trkpt lat="43.639399513068724" lon="6.649155595389168"><ele>398.0</ele><time>2026-04-12T07:47:32.999Z</time></trkpt><trkpt lat="43.63928115534675" lon="6.649037827156631"><ele>398.0</ele><time>2026-04-12T07:47:33.999Z</time></trkpt><trkpt lat="43.639184990559954" lon="6.648921394387637"><ele>398.0</ele><time>2026-04-12T07:47:34.999Z</time></trkpt><trkpt lat="43.639092531625074" lon="6.648814568754167"><ele>398.0</ele><time>2026-04-12T07:47:35.999Z</time></trkpt><trkpt lat="43.638990700517375" lon="6.648720535439864"><ele>398.0</ele><time>2026-04-12T07:47:36.999Z</time></trkpt><trkpt lat="43.63886784175277" lon="6.648703606858248"><ele>398.0</ele><time>2026-04-12T07:47:37.999Z</time></trkpt><trkpt lat="43.63878921693486" lon="6.648581708220468"><ele>398.0</ele><time>2026-04-12T07:47:38.999Z</time></trkpt><trkpt lat="43.63871557889471" lon="6.648449987663623"><ele>397.25</ele><time>2026-04-12T07:47:39.999Z</time></trkpt><trkpt lat="43.638642760377145" lon="6.648322598133152"><ele>396.5</ele><time>2026-04-12T07:47:40.999Z</time></trkpt><trkpt lat="43.63856672487343" lon="6.648185881378561"><ele>395.75</ele><time>2026-04-12T07:47:41.999Z</time></trkpt><trkpt lat="43.638480851367795" lon="6.648058016593582"><ele>395.0</ele><time>2026-04-12T07:47:42.999Z</time></trkpt><trkpt lat="43.6384256655783" lon="6.647896054728008"><ele>394.25</ele><time>2026-04-12T07:47:43.999Z</time></trkpt><trkpt lat="43.63834714967182" lon="6.647749785951469"><ele>393.5</ele><time>2026-04-12T07:47:44.999Z</time></trkpt><trkpt lat="43.63828588842984" lon="6.647599929616257"><ele>392.75</ele><time>2026-04-12T07:47:46Z</time></trkpt><trkpt lat="43.63822326977756" lon="6.647478397669248"><ele>392.0</ele><time>2026-04-12T07:47:47Z</time></trkpt><trkpt lat="43.63816237064627" lon="6.647383760968758"><ele>392.0</ele><time>2026-04-12T07:47:48Z</time></trkpt><trkpt lat="43.63811208039341" lon="6.647311982012306"><ele>392.0</ele><time>2026-04-12T07:47:49Z</time></trkpt><trkpt lat="43.63807005421945" lon="6.647205276468536"><ele>392.0</ele><time>2026-04-12T07:47:51Z</time></trkpt><trkpt lat="43.6379551024382" lon="6.647314014535141"><ele>392.0</ele><time>2026-04-12T07:47:52Z</time></trkpt><trkpt lat="43.637895560693465" lon="6.647392258988625"><ele>392.0</ele><time>2026-04-12T07:47:53Z</time></trkpt><trkpt lat="43.637813410826595" lon="6.64743385351406"><ele>389.8</ele><time>2026-04-12T07:47:54Z</time></trkpt><trkpt lat="43.6377270386141" lon="6.64745786754031"><ele>387.6</ele><time>2026-04-12T07:47:55Z</time></trkpt><trkpt lat="43.63762308967492" lon="6.6474836882801425"><ele>385.40000000000003</ele><time>2026-04-12T07:47:56Z</time></trkpt><trkpt lat="43.637514490572705" lon="6.647507871535708"><ele>383.20000000000005</ele><time>2026-04-12T07:47:57Z</time></trkpt><trkpt lat="43.637407792710476" lon="6.647529550948872"><ele>381.0</ele><time>2026-04-12T07:47:58Z</time></trkpt><trkpt lat="43.637293909243915" lon="6.6475471573420855"><ele>381.0</ele><time>2026-04-12T07:47:59Z</time></trkpt><trkpt lat="43.637174185988954" lon="6.647535440775643"><ele>381.0</ele><time>2026-04-12T07:48:00Z</time></trkpt><trkpt lat="43.63703270228959" lon="6.647540093331432"><ele>381.0</ele><time>2026-04-12T07:48:01Z</time></trkpt><trkpt lat="43.636899712870104" lon="6.647535810766492"><ele>381.0</ele><time>2026-04-12T07:48:02Z</time></trkpt><trkpt lat="43.63676300256311" lon="6.647543858119986"><ele>379.5</ele><time>2026-04-12T07:48:03Z</time></trkpt><trkpt lat="43.63662354136253" lon="6.647534710575963"><ele>378.0</ele><time>2026-04-12T07:48:04Z</time></trkpt><trkpt lat="43.63648865760947" lon="6.647527971932022"><ele>376.5</ele><time>2026-04-12T07:48:05Z</time></trkpt><trkpt lat="43.63635381496008" lon="6.647516592182585"><ele>375.0</ele><time>2026-04-12T07:48:06Z</time></trkpt><trkpt lat="43.63622074647052" lon="6.647513491172577"><ele>373.75</ele><time>2026-04-12T07:48:07Z</time></trkpt><trkpt lat="43.63610358269632" lon="6.6475389346915055"><ele>372.5</ele><time>2026-04-12T07:48:08Z</time></trkpt><trkpt lat="43.63600546085697" lon="6.647630438624782"><ele>371.25</ele><time>2026-04-12T07:48:09Z</time></trkpt><trkpt lat="43.63593868497205" lon="6.647781176908063"><ele>370.0</ele><time>2026-04-12T07:48:10Z</time></trkpt><trkpt lat="43.63591652116552" lon="6.647969157904387"><ele>369.5</ele><time>2026-04-12T07:48:11Z</time></trkpt><trkpt lat="43.63589664514073" lon="6.648139212204127"><ele>369.0</ele><time>2026-04-12T07:48:12Z</time></trkpt><trkpt lat="43.63584515378928" lon="6.648297290550908"><ele>368.5</ele><time>2026-04-12T07:48:13Z</time></trkpt><trkpt lat="43.635728847805694" lon="6.648390218257312"><ele>368.0</ele><time>2026-04-12T07:48:14Z</time></trkpt><trkpt lat="43.63561248788257" lon="6.648482070776629"><ele>368.0</ele><time>2026-04-12T07:48:15Z</time></trkpt><trkpt lat="43.635498467120385" lon="6.648578942991753"><ele>368.0</ele><time>2026-04-12T07:48:16Z</time></trkpt><trkpt lat="43.63537949020181" lon="6.648665854146398"><ele>368.0</ele><time>2026-04-12T07:48:17Z</time></trkpt><trkpt lat="43.63526454695207" lon="6.648763290237117"><ele>368.0</ele><time>2026-04-12T07:48:18Z</time></trkpt><trkpt lat="43.63514812138429" lon="6.64886084472164"><ele>366.0</ele><time>2026-04-12T07:48:19Z</time></trkpt><trkpt lat="43.63503103617157" lon="6.648967126911933"><ele>364.0</ele><time>2026-04-12T07:48:20Z</time></trkpt><trkpt lat="43.63492371932469" lon="6.64909350642395"><ele>362.0</ele><time>2026-04-12T07:48:21Z</time></trkpt><trkpt lat="43.63482808449796" lon="6.649237326864246"><ele>360.0</ele><time>2026-04-12T07:48:22Z</time></trkpt><trkpt lat="43.63473724360954" lon="6.649387909039073"><ele>359.75</ele><time>2026-04-12T07:48:23Z</time></trkpt><trkpt lat="43.63464309538974" lon="6.649531460569947"><ele>359.5</ele><time>2026-04-12T07:48:24Z</time></trkpt><trkpt lat="43.634551329842736" lon="6.649673960721327"><ele>359.25</ele><time>2026-04-12T07:48:25Z</time></trkpt><trkpt lat="43.63445922904089" lon="6.6498206692746376"><ele>359.0</ele><time>2026-04-12T07:48:26Z</time></trkpt><trkpt lat="43.634379477407" lon="6.649968522761012"><ele>358.2</ele><time>2026-04-12T07:48:27Z</time></trkpt><trkpt lat="43.63431505925693" lon="6.650120625065709"><ele>357.4</ele><time>2026-04-12T07:48:28Z</time></trkpt><trkpt lat="43.63426876544874" lon="6.650269795461213"><ele>356.6</ele><time>2026-04-12T07:48:29Z</time></trkpt><trkpt lat="43.63421519226438" lon="6.6503904260906355"><ele>355.8</ele><time>2026-04-12T07:48:30Z</time></trkpt><trkpt lat="43.63417400675608" lon="6.650509031831364"><ele>355.0</ele><time>2026-04-12T07:48:31Z</time></trkpt><trkpt lat="43.634135259767845" lon="6.650620839068782"><ele>354.5</ele><time>2026-04-12T07:48:32Z</time></trkpt><trkpt lat="43.63408908151944" lon="6.650696618009741"><ele>354.0</ele><time>2026-04-12T07:48:33Z</time></trkpt><trkpt lat="43.63394553125643" lon="6.650546325701388"><ele>353.5</ele><time>2026-04-12T07:48:34Z</time></trkpt><trkpt lat="43.633840530041255" lon="6.650471481388894"><ele>353.0</ele><time>2026-04-12T07:48:35Z</time></trkpt><trkpt lat="43.633729135397246" lon="6.650416611025113"><ele>351.75</ele><time>2026-04-12T07:48:36Z</time></trkpt><trkpt lat="43.63362652371018" lon="6.650331732961849"><ele>350.5</ele><time>2026-04-12T07:48:37Z</time></trkpt><trkpt lat="43.633520767525546" lon="6.650245955335028"><ele>349.25</ele><time>2026-04-12T07:48:38Z</time></trkpt><trkpt lat="43.633411069914644" lon="6.6501689391305385"><ele>348.0</ele><time>2026-04-12T07:48:39Z</time></trkpt><trkpt lat="43.633296894227904" lon="6.65009345015689"><ele>348.0</ele><time>2026-04-12T07:48:40Z</time></trkpt><trkpt lat="43.63318304228844" lon="6.650012253108849"><ele>348.0</ele><time>2026-04-12T07:48:41Z</time></trkpt><trkpt lat="43.63306673747521" lon="6.649929014588616"><ele>348.0</ele><time>2026-04-12T07:48:42Z</time></trkpt><trkpt lat="43.63294959215538" lon="6.649842651415357"><ele>348.0</ele><time>2026-04-12T07:48:43Z</time></trkpt><trkpt lat="43.63283333680446" lon="6.649762505149363"><ele>347.0</ele><time>2026-04-12T07:48:44Z</time></trkpt><trkpt lat="43.63271269961217" lon="6.64968370903364"><ele>346.0</ele><time>2026-04-12T07:48:45Z</time></trkpt><trkpt lat="43.63258919582474" lon="6.649599751988511"><ele>345.0</ele><time>2026-04-12T07:48:46Z</time></trkpt><trkpt lat="43.632471692678074" lon="6.649512309947697"><ele>344.0</ele><time>2026-04-12T07:48:47Z</time></trkpt><trkpt lat="43.632343970979775" lon="6.649426471923009"><ele>344.0</ele><time>2026-04-12T07:48:48Z</time></trkpt><trkpt lat="43.6322263744083" lon="6.649323617369036"><ele>344.0</ele><time>2026-04-12T07:48:49Z</time></trkpt><trkpt lat="43.632102587178764" lon="6.649235013858319"><ele>344.0</ele><time>2026-04-12T07:48:50Z</time></trkpt><trkpt lat="43.631976349484944" lon="6.649169656272134"><ele>344.0</ele><time>2026-04-12T07:48:51Z</time></trkpt><trkpt lat="43.63186464494574" lon="6.64906421057786"><ele>343.0</ele><time>2026-04-12T07:48:52Z</time></trkpt><trkpt lat="43.631747096707265" lon="6.648988717743104"><ele>342.0</ele><time>2026-04-12T07:48:53Z</time></trkpt><trkpt lat="43.631613656360855" lon="6.648983966937161"><ele>341.0</ele><time>2026-04-12T07:48:53.999Z</time></trkpt><trkpt lat="43.63148546075952" lon="6.648988167477687"><ele>340.0</ele><time>2026-04-12T07:48:54.999Z</time></trkpt><trkpt lat="43.63136404053477" lon="6.649013858466536"><ele>340.0</ele><time>2026-04-12T07:48:55.999Z</time></trkpt><trkpt lat="43.63125846725393" lon="6.649075750719932"><ele>340.0</ele><time>2026-04-12T07:48:56.999Z</time></trkpt><trkpt lat="43.63118424424496" lon="6.64919237301508"><ele>340.0</ele><time>2026-04-12T07:48:57.999Z</time></trkpt><trkpt lat="43.63115439325299" lon="6.649347992730109"><ele>340.0</ele><time>2026-04-12T07:48:58.999Z</time></trkpt><trkpt lat="43.63114932518049" lon="6.6494906448445334"><ele>340.0</ele><time>2026-04-12T07:48:59.999Z</time></trkpt><trkpt lat="43.63111414071218" lon="6.64960947438723"><ele>340.2</ele><time>2026-04-12T07:49:00.999Z</time></trkpt><trkpt lat="43.63105147801034" lon="6.649702769803307"><ele>340.4</ele><time>2026-04-12T07:49:01.999Z</time></trkpt><trkpt lat="43.63098129572155" lon="6.6497833529996075"><ele>340.6</ele><time>2026-04-12T07:49:02.999Z</time></trkpt><trkpt lat="43.63089730765359" lon="6.649830028589461"><ele>340.8</ele><time>2026-04-12T07:49:03.999Z</time></trkpt><trkpt lat="43.63082289248733" lon="6.649902149426935"><ele>341.0</ele><time>2026-04-12T07:49:04.999Z</time></trkpt><trkpt lat="43.63073904561977" lon="6.649945927145129"><ele>341.0</ele><time>2026-04-12T07:49:05.999Z</time></trkpt><trkpt lat="43.63065647970286" lon="6.649979149974836"><ele>341.0</ele><time>2026-04-12T07:49:06.999Z</time></trkpt><trkpt lat="43.6305675129368" lon="6.649991250847803"><ele>341.0</ele><time>2026-04-12T07:49:07.999Z</time></trkpt><trkpt lat="43.63047505945435" lon="6.6499904368300475"><ele>341.0</ele><time>2026-04-12T07:49:08.999Z</time></trkpt><trkpt lat="43.63038016060424" lon="6.649971797948291"><ele>341.0</ele><time>2026-04-12T07:49:09.999Z</time></trkpt><trkpt lat="43.63028541264899" lon="6.649945264799564"><ele>341.0</ele><time>2026-04-12T07:49:10.999Z</time></trkpt><trkpt lat="43.63019089892248" lon="6.6499005632174075"><ele>341.0</ele><time>2026-04-12T07:49:11.999Z</time></trkpt><trkpt lat="43.630095884293496" lon="6.649860325912058"><ele>341.0</ele><time>2026-04-12T07:49:12.999Z</time></trkpt><trkpt lat="43.62999674730336" lon="6.649823235071313"><ele>341.0</ele><time>2026-04-12T07:49:13.999Z</time></trkpt><trkpt lat="43.62989379291017" lon="6.649787039263349"><ele>341.0</ele><time>2026-04-12T07:49:14.999Z</time></trkpt><trkpt lat="43.629789050596074" lon="6.649757442315781"><ele>341.0</ele><time>2026-04-12T07:49:15.999Z</time></trkpt><trkpt lat="43.629682610343416" lon="6.649732032198885"><ele>341.0</ele><time>2026-04-12T07:49:16.999Z</time></trkpt><trkpt lat="43.629571415699104" lon="6.649732744242633"><ele>341.0</ele><time>2026-04-12T07:49:17.999Z</time></trkpt><trkpt lat="43.62946015371187" lon="6.6497699914888635"><ele>341.0</ele><time>2026-04-12T07:49:18.999Z</time></trkpt><trkpt lat="43.62935494537422" lon="6.6498419278414165"><ele>341.0</ele><time>2026-04-12T07:49:19.999Z</time></trkpt><trkpt lat="43.62925074164966" lon="6.649913464001282"><ele>341.0</ele><time>2026-04-12T07:49:20.999Z</time></trkpt><trkpt lat="43.6291485762424" lon="6.649980645548869"><ele>341.0</ele><time>2026-04-12T07:49:21.999Z</time></trkpt><trkpt lat="43.629056529684696" lon="6.650059410433309"><ele>341.0</ele><time>2026-04-12T07:49:22.999Z</time></trkpt><trkpt lat="43.628978130586646" lon="6.650161273358897"><ele>341.0</ele><time>2026-04-12T07:49:23.999Z</time></trkpt><trkpt lat="43.6289186370954" lon="6.6502766701501494"><ele>340.8</ele><time>2026-04-12T07:49:24.999Z</time></trkpt><trkpt lat="43.62886465237597" lon="6.65038728303845"><ele>340.6</ele><time>2026-04-12T07:49:25.999Z</time></trkpt><trkpt lat="43.6288203133171" lon="6.650505108956758"><ele>340.4</ele><time>2026-04-12T07:49:26.999Z</time></trkpt><trkpt lat="43.62877088274075" lon="6.650607598117673"><ele>340.2</ele><time>2026-04-12T07:49:27.999Z</time></trkpt><trkpt lat="43.62871334523594" lon="6.650702207366042"><ele>340.0</ele><time>2026-04-12T07:49:28.999Z</time></trkpt><trkpt lat="43.62865003885053" lon="6.650784490386318"><ele>340.4</ele><time>2026-04-12T07:49:29.999Z</time></trkpt><trkpt lat="43.62856344476504" lon="6.650839695818476"><ele>340.8</ele><time>2026-04-12T07:49:30.999Z</time></trkpt><trkpt lat="43.628459363415345" lon="6.650815278168104"><ele>341.20000000000005</ele><time>2026-04-12T07:49:31.999Z</time></trkpt><trkpt lat="43.62835397371883" lon="6.650799673547736"><ele>341.6</ele><time>2026-04-12T07:49:32.999Z</time></trkpt><trkpt lat="43.62824682926872" lon="6.650801156522447"><ele>342.0</ele><time>2026-04-12T07:49:33.999Z</time></trkpt><trkpt lat="43.628133177385315" lon="6.650787646692913"><ele>342.0</ele><time>2026-04-12T07:49:34.999Z</time></trkpt><trkpt lat="43.628022499486605" lon="6.650771729270486"><ele>342.0</ele><time>2026-04-12T07:49:35.999Z</time></trkpt><trkpt lat="43.62791164985424" lon="6.650750342163777"><ele>342.0</ele><time>2026-04-12T07:49:36.999Z</time></trkpt><trkpt lat="43.62779781378955" lon="6.650729297936244"><ele>342.0</ele><time>2026-04-12T07:49:37.999Z</time></trkpt><trkpt lat="43.62767896036099" lon="6.650705798157224"><ele>340.0</ele><time>2026-04-12T07:49:38.999Z</time></trkpt><trkpt lat="43.6275585276819" lon="6.650675194114017"><ele>338.0</ele><time>2026-04-12T07:49:39.999Z</time></trkpt><trkpt lat="43.62743936036901" lon="6.650637192881388"><ele>336.0</ele><time>2026-04-12T07:49:40.999Z</time></trkpt><trkpt lat="43.62731880098607" lon="6.650598382348835"><ele>334.0</ele><time>2026-04-12T07:49:41.999Z</time></trkpt><trkpt lat="43.62719567481402" lon="6.650589693603484"><ele>334.0</ele><time>2026-04-12T07:49:42.999Z</time></trkpt><trkpt lat="43.627067253999115" lon="6.650619388998125"><ele>334.0</ele><time>2026-04-12T07:49:43.999Z</time></trkpt><trkpt lat="43.62694080023067" lon="6.650666486852483"><ele>334.0</ele><time>2026-04-12T07:49:44.999Z</time></trkpt><trkpt lat="43.62681625992865" lon="6.650712435993917"><ele>334.0</ele><time>2026-04-12T07:49:45.999Z</time></trkpt><trkpt lat="43.62669451760395" lon="6.650763649954312"><ele>332.5</ele><time>2026-04-12T07:49:46.999Z</time></trkpt><trkpt lat="43.62656978080494" lon="6.650809703800852"><ele>331.0</ele><time>2026-04-12T07:49:47.999Z</time></trkpt><trkpt lat="43.62644929523621" lon="6.650859883234615"><ele>329.5</ele><time>2026-04-12T07:49:48.999Z</time></trkpt><trkpt lat="43.626325845500894" lon="6.650911105658875"><ele>328.0</ele><time>2026-04-12T07:49:49.999Z</time></trkpt><trkpt lat="43.62620244275941" lon="6.650966009948438"><ele>328.0</ele><time>2026-04-12T07:49:50.999Z</time></trkpt><trkpt lat="43.626082789610024" lon="6.65100881382538"><ele>328.0</ele><time>2026-04-12T07:49:52Z</time></trkpt><trkpt lat="43.62596540683483" lon="6.6510551259499975"><ele>328.0</ele><time>2026-04-12T07:49:53Z</time></trkpt><trkpt lat="43.62585672653218" lon="6.651119981886288"><ele>328.0</ele><time>2026-04-12T07:49:54Z</time></trkpt><trkpt lat="43.6257487653744" lon="6.651185238088926"><ele>328.0</ele><time>2026-04-12T07:49:55Z</time></trkpt><trkpt lat="43.62564768443186" lon="6.651255433868141"><ele>328.0</ele><time>2026-04-12T07:49:56Z</time></trkpt><trkpt lat="43.62555867798266" lon="6.6513288986308075"><ele>328.0</ele><time>2026-04-12T07:49:57Z</time></trkpt><trkpt lat="43.62546448275037" lon="6.651400514939776"><ele>328.0</ele><time>2026-04-12T07:49:58Z</time></trkpt><trkpt lat="43.62538432104124" lon="6.651474206229881"><ele>328.0</ele><time>2026-04-12T07:49:59Z</time></trkpt><trkpt lat="43.62530673127701" lon="6.651541605556905"><ele>328.8333333333333</ele><time>2026-04-12T07:50:00Z</time></trkpt><trkpt lat="43.625231517899124" lon="6.6516114799936545"><ele>329.66666666666663</ele><time>2026-04-12T07:50:01Z</time></trkpt><trkpt lat="43.62516337216614" lon="6.651680897781748"><ele>330.5</ele><time>2026-04-12T07:50:02Z</time></trkpt><trkpt lat="43.625098716936115" lon="6.651749651370014"><ele>331.3333333333333</ele><time>2026-04-12T07:50:03Z</time></trkpt><trkpt lat="43.62503679390886" lon="6.651820803435026"><ele>332.1666666666667</ele><time>2026-04-12T07:50:04Z</time></trkpt><trkpt lat="43.624980599584404" lon="6.6518933329446215"><ele>333.0</ele><time>2026-04-12T07:50:05Z</time></trkpt><trkpt lat="43.624931592964" lon="6.6519691339336156"><ele>333.0</ele><time>2026-04-12T07:50:06Z</time></trkpt><trkpt lat="43.62487969870651" lon="6.652039654568153"><ele>333.0</ele><time>2026-04-12T07:50:07Z</time></trkpt><trkpt lat="43.62482816413067" lon="6.652105967024256"><ele>333.0</ele><time>2026-04-12T07:50:08Z</time></trkpt><trkpt lat="43.62478195176139" lon="6.652173580121236"><ele>333.0</ele><time>2026-04-12T07:50:09Z</time></trkpt><trkpt lat="43.62473595616334" lon="6.65224013531971"><ele>333.0</ele><time>2026-04-12T07:50:10Z</time></trkpt><trkpt lat="43.62464549463229" lon="6.652365214332668"><ele>333.0</ele><time>2026-04-12T07:50:12Z</time></trkpt><trkpt lat="43.62456141145254" lon="6.652485048894736"><ele>333.0</ele><time>2026-04-12T07:50:14Z</time></trkpt><trkpt lat="43.624514251108124" lon="6.652543864127408"><ele>333.0</ele><time>2026-04-12T07:50:15Z</time></trkpt><trkpt lat="43.6244253589258" lon="6.652661316474257"><ele>333.0</ele><time>2026-04-12T07:50:17Z</time></trkpt><trkpt lat="43.624339773870474" lon="6.652781101538988"><ele>333.0</ele><time>2026-04-12T07:50:19Z</time></trkpt><trkpt lat="43.62429524968627" lon="6.652842921288925"><ele>333.0</ele><time>2026-04-12T07:50:20Z</time></trkpt><trkpt lat="43.624215161340175" lon="6.652970520156394"><ele>335.5</ele><time>2026-04-12T07:50:22Z</time></trkpt><trkpt lat="43.62415064524447" lon="6.653101546154399"><ele>338.0</ele><time>2026-04-12T07:50:24Z</time></trkpt><trkpt lat="43.624104145409135" lon="6.653237772179307"><ele>340.5</ele><time>2026-04-12T07:50:26Z</time></trkpt><trkpt lat="43.624038259469536" lon="6.653365078461736"><ele>343.0</ele><time>2026-04-12T07:50:28Z</time></trkpt><trkpt lat="43.6239720902227" lon="6.65350053280876"><ele>343.0</ele><time>2026-04-12T07:50:30Z</time></trkpt><trkpt lat="43.62388833437677" lon="6.653615469760077"><ele>343.0</ele><time>2026-04-12T07:50:32Z</time></trkpt><trkpt lat="43.62383573674875" lon="6.6536668196259425"><ele>343.0</ele><time>2026-04-12T07:50:33Z</time></trkpt><trkpt lat="43.6237778799274" lon="6.653703395220261"><ele>343.0</ele><time>2026-04-12T07:50:34Z</time></trkpt><trkpt lat="43.6237073461578" lon="6.653727005254298"><ele>343.0</ele><time>2026-04-12T07:50:35Z</time></trkpt><trkpt lat="43.62363066834804" lon="6.65373252443762"><ele>343.0</ele><time>2026-04-12T07:50:36Z</time></trkpt><trkpt lat="43.623545388219725" lon="6.653721369066597"><ele>342.59999999999997</ele><time>2026-04-12T07:50:37Z</time></trkpt><trkpt lat="43.62346045618599" lon="6.653701154238277"><ele>342.2</ele><time>2026-04-12T07:50:38Z</time></trkpt><trkpt lat="43.6233705418621" lon="6.653670359052609"><ele>341.8</ele><time>2026-04-12T07:50:39Z</time></trkpt><trkpt lat="43.62327275786721" lon="6.653645705025208"><ele>341.4</ele><time>2026-04-12T07:50:40Z</time></trkpt><trkpt lat="43.6231742435371" lon="6.65362811104369"><ele>341.0</ele><time>2026-04-12T07:50:41Z</time></trkpt><trkpt lat="43.6230746068779" lon="6.6536299285666685"><ele>341.0</ele><time>2026-04-12T07:50:42Z</time></trkpt><trkpt lat="43.622970906240056" lon="6.653640300994527"><ele>341.0</ele><time>2026-04-12T07:50:43Z</time></trkpt><trkpt lat="43.622873378794125" lon="6.653665102853798"><ele>341.0</ele><time>2026-04-12T07:50:44Z</time></trkpt><trkpt lat="43.622774438259306" lon="6.6536830482530664"><ele>341.0</ele><time>2026-04-12T07:50:45Z</time></trkpt><trkpt lat="43.62267388653096" lon="6.653697376182492"><ele>341.0</ele><time>2026-04-12T07:50:46Z</time></trkpt><trkpt lat="43.62257757967962" lon="6.653713908242473"><ele>341.4</ele><time>2026-04-12T07:50:47Z</time></trkpt><trkpt lat="43.62247931460953" lon="6.6537289100583346"><ele>341.8</ele><time>2026-04-12T07:50:48Z</time></trkpt><trkpt lat="43.62238254059633" lon="6.653742431901709"><ele>342.2</ele><time>2026-04-12T07:50:49Z</time></trkpt><trkpt lat="43.62228749112357" lon="6.653764611333387"><ele>342.59999999999997</ele><time>2026-04-12T07:50:50Z</time></trkpt><trkpt lat="43.62219770006" lon="6.653769333857553"><ele>343.0</ele><time>2026-04-12T07:50:51Z</time></trkpt><trkpt lat="43.62210811259787" lon="6.65377743931219"><ele>343.0</ele><time>2026-04-12T07:50:52Z</time></trkpt><trkpt lat="43.62202426015526" lon="6.653788088925412"><ele>343.0</ele><time>2026-04-12T07:50:53Z</time></trkpt><trkpt lat="43.62193954940261" lon="6.653805992806861"><ele>343.0</ele><time>2026-04-12T07:50:54Z</time></trkpt><trkpt lat="43.621853884297465" lon="6.653815969341971"><ele>343.0</ele><time>2026-04-12T07:50:55Z</time></trkpt><trkpt lat="43.621766161858986" lon="6.653822901189852"><ele>343.0</ele><time>2026-04-12T07:50:56Z</time></trkpt><trkpt lat="43.62167953371215" lon="6.6538324696008955"><ele>343.0</ele><time>2026-04-12T07:50:57Z</time></trkpt><trkpt lat="43.62159644711331" lon="6.653838832399484"><ele>343.16666666666663</ele><time>2026-04-12T07:50:58Z</time></trkpt><trkpt lat="43.62151527364516" lon="6.653844020805338"><ele>343.3333333333333</ele><time>2026-04-12T07:50:59Z</time></trkpt><trkpt lat="43.6214347872124" lon="6.653847747081065"><ele>343.5</ele><time>2026-04-12T07:50:59.999Z</time></trkpt><trkpt lat="43.621357014925785" lon="6.653852483195167"><ele>343.6666666666667</ele><time>2026-04-12T07:51:00.999Z</time></trkpt><trkpt lat="43.621277327531004" lon="6.65385058730001"><ele>343.83333333333337</ele><time>2026-04-12T07:51:01.999Z</time></trkpt><trkpt lat="43.62120034965339" lon="6.653852081475276"><ele>344.0</ele><time>2026-04-12T07:51:02.999Z</time></trkpt><trkpt lat="43.62112236626794" lon="6.653849548914716"><ele>344.0</ele><time>2026-04-12T07:51:03.999Z</time></trkpt><trkpt lat="43.62104317494081" lon="6.6538449721613375"><ele>344.0</ele><time>2026-04-12T07:51:04.999Z</time></trkpt><trkpt lat="43.620969769198666" lon="6.653824801087427"><ele>344.0</ele><time>2026-04-12T07:51:05.999Z</time></trkpt><trkpt lat="43.62089234757002" lon="6.65380845326381"><ele>344.0</ele><time>2026-04-12T07:51:06.999Z</time></trkpt><trkpt lat="43.620820620866915" lon="6.653782684524867"><ele>344.0</ele><time>2026-04-12T07:51:07.999Z</time></trkpt><trkpt lat="43.62075077026179" lon="6.65374777428053"><ele>344.0</ele><time>2026-04-12T07:51:08.999Z</time></trkpt><trkpt lat="43.62067747164208" lon="6.653710550720595"><ele>344.0</ele><time>2026-04-12T07:51:09.999Z</time></trkpt><trkpt lat="43.62060362422063" lon="6.653684375047398"><ele>344.0</ele><time>2026-04-12T07:51:10.999Z</time></trkpt><trkpt lat="43.62052704822638" lon="6.653659613739941"><ele>344.0</ele><time>2026-04-12T07:51:11.999Z</time></trkpt><trkpt lat="43.62044946263228" lon="6.653634756313862"><ele>344.0</ele><time>2026-04-12T07:51:12.999Z</time></trkpt><trkpt lat="43.620369254567166" lon="6.653611120648207"><ele>344.0</ele><time>2026-04-12T07:51:13.999Z</time></trkpt><trkpt lat="43.620290704103596" lon="6.653583501033709"><ele>344.0</ele><time>2026-04-12T07:51:14.999Z</time></trkpt><trkpt lat="43.620208091076535" lon="6.653559709783939"><ele>344.5</ele><time>2026-04-12T07:51:15.999Z</time></trkpt><trkpt lat="43.62012585165005" lon="6.653534063480196"><ele>345.0</ele><time>2026-04-12T07:51:16.999Z</time></trkpt><trkpt lat="43.620045160140926" lon="6.653504328188092"><ele>345.5</ele><time>2026-04-12T07:51:17.999Z</time></trkpt><trkpt lat="43.61996254477867" lon="6.653472095475357"><ele>346.0</ele><time>2026-04-12T07:51:18.999Z</time></trkpt><trkpt lat="43.61987982755377" lon="6.653430936938249"><ele>346.5</ele><time>2026-04-12T07:51:19.999Z</time></trkpt><trkpt lat="43.61980054747209" lon="6.653376441582711"><ele>347.0</ele><time>2026-04-12T07:51:20.999Z</time></trkpt><trkpt lat="43.61972129103769" lon="6.653316442634443"><ele>347.0</ele><time>2026-04-12T07:51:21.999Z</time></trkpt><trkpt lat="43.619641721306834" lon="6.653254012560564"><ele>347.0</ele><time>2026-04-12T07:51:22.999Z</time></trkpt><trkpt lat="43.6195615450945" lon="6.6531888152629275"><ele>347.0</ele><time>2026-04-12T07:51:23.999Z</time></trkpt><trkpt lat="43.619480777895056" lon="6.65311183260757"><ele>347.0</ele><time>2026-04-12T07:51:24.999Z</time></trkpt><trkpt lat="43.619401738998135" lon="6.653034373802296"><ele>347.0</ele><time>2026-04-12T07:51:25.999Z</time></trkpt><trkpt lat="43.61932016680427" lon="6.652957722238046"><ele>346.8</ele><time>2026-04-12T07:51:26.999Z</time></trkpt><trkpt lat="43.619232194902835" lon="6.652882823382327"><ele>346.6</ele><time>2026-04-12T07:51:27.999Z</time></trkpt><trkpt lat="43.61914666589692" lon="6.6528010459871"><ele>346.40000000000003</ele><time>2026-04-12T07:51:28.999Z</time></trkpt><trkpt lat="43.619062510084454" lon="6.652717553417918"><ele>346.20000000000005</ele><time>2026-04-12T07:51:29.999Z</time></trkpt><trkpt lat="43.61897424731622" lon="6.65263603494408"><ele>346.0</ele><time>2026-04-12T07:51:30.999Z</time></trkpt><trkpt lat="43.61888626173085" lon="6.652554856996931"><ele>346.0</ele><time>2026-04-12T07:51:31.999Z</time></trkpt><trkpt lat="43.61879745825089" lon="6.65247441207735"><ele>346.0</ele><time>2026-04-12T07:51:32.999Z</time></trkpt><trkpt lat="43.618709276340596" lon="6.652393894664895"><ele>346.0</ele><time>2026-04-12T07:51:33.999Z</time></trkpt><trkpt lat="43.61862174300601" lon="6.652315051972454"><ele>346.0</ele><time>2026-04-12T07:51:34.999Z</time></trkpt><trkpt lat="43.61853042466913" lon="6.65224526421191"><ele>346.0</ele><time>2026-04-12T07:51:35.999Z</time></trkpt><trkpt lat="43.618435309393746" lon="6.652180861733888"><ele>345.20000000000005</ele><time>2026-04-12T07:51:36.999Z</time></trkpt><trkpt lat="43.61833519675117" lon="6.652127404613614"><ele>344.40000000000003</ele><time>2026-04-12T07:51:37.999Z</time></trkpt><trkpt lat="43.618233265253984" lon="6.652078371259116"><ele>343.6</ele><time>2026-04-12T07:51:38.999Z</time></trkpt><trkpt lat="43.61812536318908" lon="6.6520452593197215"><ele>342.8</ele><time>2026-04-12T07:51:39.999Z</time></trkpt><trkpt lat="43.618013961623156" lon="6.652023351359969"><ele>342.0</ele><time>2026-04-12T07:51:40.999Z</time></trkpt><trkpt lat="43.617895543876074" lon="6.652012748734081"><ele>341.25</ele><time>2026-04-12T07:51:41.999Z</time></trkpt><trkpt lat="43.61777745329883" lon="6.65201324485393"><ele>340.5</ele><time>2026-04-12T07:51:42.999Z</time></trkpt><trkpt lat="43.6176530638971" lon="6.652010676254083"><ele>339.75</ele><time>2026-04-12T07:51:43.999Z</time></trkpt><trkpt lat="43.61752733481022" lon="6.6520048852562805"><ele>339.0</ele><time>2026-04-12T07:51:44.999Z</time></trkpt><trkpt lat="43.61739110038164" lon="6.651985208772277"><ele>339.0</ele><time>2026-04-12T07:51:45.999Z</time></trkpt><trkpt lat="43.61725928762536" lon="6.651996409529934"><ele>339.0</ele><time>2026-04-12T07:51:46.999Z</time></trkpt><trkpt lat="43.61712580173419" lon="6.6520105318750895"><ele>339.0</ele><time>2026-04-12T07:51:47.999Z</time></trkpt><trkpt lat="43.61698825648348" lon="6.652042142785911"><ele>339.0</ele><time>2026-04-12T07:51:48.999Z</time></trkpt><trkpt lat="43.61684334069647" lon="6.652048372282911"><ele>337.75</ele><time>2026-04-12T07:51:49.999Z</time></trkpt><trkpt lat="43.61670388238282" lon="6.652039215677216"><ele>336.5</ele><time>2026-04-12T07:51:50.999Z</time></trkpt><trkpt lat="43.61656342906506" lon="6.651983821024277"><ele>335.25</ele><time>2026-04-12T07:51:51.999Z</time></trkpt><trkpt lat="43.61641874993847" lon="6.651960659533298"><ele>334.0</ele><time>2026-04-12T07:51:52.999Z</time></trkpt><trkpt lat="43.61627161488702" lon="6.65193020831509"><ele>331.66666666666663</ele><time>2026-04-12T07:51:53.999Z</time></trkpt><trkpt lat="43.616119124802495" lon="6.651934684378318"><ele>329.3333333333333</ele><time>2026-04-12T07:51:54.999Z</time></trkpt><trkpt lat="43.61596523846855" lon="6.651973781437154"><ele>327.0</ele><time>2026-04-12T07:51:55.999Z</time></trkpt><trkpt lat="43.615809934447874" lon="6.652025455426394"><ele>327.0</ele><time>2026-04-12T07:51:56.999Z</time></trkpt><trkpt lat="43.6156594941171" lon="6.652059239258601"><ele>327.0</ele><time>2026-04-12T07:51:58Z</time></trkpt><trkpt lat="43.615506427583995" lon="6.652090896499977"><ele>327.0</ele><time>2026-04-12T07:51:59Z</time></trkpt><trkpt lat="43.615356234831786" lon="6.652120501771809"><ele>325.5</ele><time>2026-04-12T07:52:00Z</time></trkpt><trkpt lat="43.61521094395496" lon="6.6521445344483014"><ele>324.0</ele><time>2026-04-12T07:52:01Z</time></trkpt><trkpt lat="43.61507290651434" lon="6.652165493187665"><ele>322.5</ele><time>2026-04-12T07:52:02Z</time></trkpt><trkpt lat="43.61493229339909" lon="6.652181157430157"><ele>321.0</ele><time>2026-04-12T07:52:03Z</time></trkpt><trkpt lat="43.6147954305792" lon="6.652198952395654"><ele>321.0</ele><time>2026-04-12T07:52:04Z</time></trkpt><trkpt lat="43.61466328158782" lon="6.652220909403064"><ele>321.0</ele><time>2026-04-12T07:52:05Z</time></trkpt><trkpt lat="43.61453890402224" lon="6.652243855669144"><ele>321.0</ele><time>2026-04-12T07:52:06Z</time></trkpt><trkpt lat="43.61441725796412" lon="6.652256433418528"><ele>321.0</ele><time>2026-04-12T07:52:07Z</time></trkpt><trkpt lat="43.614296012977306" lon="6.652261405734274"><ele>321.0</ele><time>2026-04-12T07:52:08Z</time></trkpt><trkpt lat="43.614171828307484" lon="6.65226855456494"><ele>321.0</ele><time>2026-04-12T07:52:09Z</time></trkpt><trkpt lat="43.614046982561156" lon="6.652265009645972"><ele>321.0</ele><time>2026-04-12T07:52:10Z</time></trkpt><trkpt lat="43.61392370183615" lon="6.6522340495641865"><ele>321.0</ele><time>2026-04-12T07:52:11Z</time></trkpt><trkpt lat="43.6138152160492" lon="6.652142799669009"><ele>321.0</ele><time>2026-04-12T07:52:12Z</time></trkpt><trkpt lat="43.613726671258945" lon="6.652034323153845"><ele>321.0</ele><time>2026-04-12T07:52:13Z</time></trkpt><trkpt lat="43.6136209519715" lon="6.651935768199223"><ele>321.0</ele><time>2026-04-12T07:52:14Z</time></trkpt><trkpt lat="43.613542173902694" lon="6.651807234711019"><ele>321.0</ele><time>2026-04-12T07:52:15Z</time></trkpt><trkpt lat="43.61345795689371" lon="6.651702397924925"><ele>322.5</ele><time>2026-04-12T07:52:16Z</time></trkpt><trkpt lat="43.613318062430174" lon="6.651709277569449"><ele>324.0</ele><time>2026-04-12T07:52:17Z</time></trkpt><trkpt lat="43.61320946147624" lon="6.651709050577068"><ele>325.5</ele><time>2026-04-12T07:52:18Z</time></trkpt><trkpt lat="43.613107950310436" lon="6.651753824435494"><ele>327.0</ele><time>2026-04-12T07:52:19Z</time></trkpt><trkpt lat="43.61302053998212" lon="6.651808823005158"><ele>327.0</ele><time>2026-04-12T07:52:20Z</time></trkpt><trkpt lat="43.61294641517783" lon="6.651882810761028"><ele>327.0</ele><time>2026-04-12T07:52:21Z</time></trkpt><trkpt lat="43.6128821984444" lon="6.651966358576716"><ele>327.0</ele><time>2026-04-12T07:52:22Z</time></trkpt><trkpt lat="43.61281480107634" lon="6.652046675466844"><ele>327.0</ele><time>2026-04-12T07:52:23Z</time></trkpt><trkpt lat="43.61274747784659" lon="6.652122725599467"><ele>327.0</ele><time>2026-04-12T07:52:24Z</time></trkpt><trkpt lat="43.61267568285503" lon="6.65219491506324"><ele>327.0</ele><time>2026-04-12T07:52:25Z</time></trkpt><trkpt lat="43.6126029900905" lon="6.6522610262995885"><ele>327.5</ele><time>2026-04-12T07:52:26Z</time></trkpt><trkpt lat="43.6125299771776" lon="6.652318957938987"><ele>328.0</ele><time>2026-04-12T07:52:27Z</time></trkpt><trkpt lat="43.6124555011616" lon="6.652372027472583"><ele>328.5</ele><time>2026-04-12T07:52:28Z</time></trkpt><trkpt lat="43.61237686236572" lon="6.652409926064464"><ele>329.0</ele><time>2026-04-12T07:52:29Z</time></trkpt><trkpt lat="43.612298537480015" lon="6.6524429228351964"><ele>329.5</ele><time>2026-04-12T07:52:30Z</time></trkpt><trkpt lat="43.61222178123768" lon="6.652480625636685"><ele>330.0</ele><time>2026-04-12T07:52:31Z</time></trkpt><trkpt lat="43.61214974501624" lon="6.652518359672719"><ele>330.00000000000006</ele><time>2026-04-12T07:52:32Z</time></trkpt><trkpt lat="43.61208065910224" lon="6.652551165236892"><ele>330.0</ele><time>2026-04-12T07:52:33Z</time></trkpt><trkpt lat="43.61201309350869" lon="6.652579280376357"><ele>330.0</ele><time>2026-04-12T07:52:34Z</time></trkpt><trkpt lat="43.611947443770624" lon="6.652618057185335"><ele>330.0</ele><time>2026-04-12T07:52:35Z</time></trkpt><trkpt lat="43.611883788753126" lon="6.652659018785345"><ele>330.0</ele><time>2026-04-12T07:52:36Z</time></trkpt><trkpt lat="43.61181806243366" lon="6.652691499956631"><ele>330.00000000000006</ele><time>2026-04-12T07:52:37Z</time></trkpt><trkpt lat="43.61175092179757" lon="6.652718180757928"><ele>330.0</ele><time>2026-04-12T07:52:38Z</time></trkpt><trkpt lat="43.611686178560575" lon="6.652750166035617"><ele>330.00000000000006</ele><time>2026-04-12T07:52:39Z</time></trkpt><trkpt lat="43.61162409632751" lon="6.652781656308344"><ele>330.0</ele><time>2026-04-12T07:52:40Z</time></trkpt><trkpt lat="43.61156216179477" lon="6.652814035422671"><ele>330.0</ele><time>2026-04-12T07:52:41Z</time></trkpt><trkpt lat="43.611499090836716" lon="6.652846492426031"><ele>330.0</ele><time>2026-04-12T07:52:42Z</time></trkpt><trkpt lat="43.611435565815256" lon="6.652881943629085"><ele>330.0</ele><time>2026-04-12T07:52:43Z</time></trkpt><trkpt lat="43.61137156102045" lon="6.6529223761700775"><ele>330.00000000000006</ele><time>2026-04-12T07:52:44Z</time></trkpt><trkpt lat="43.6113062574064" lon="6.652953716832207"><ele>330.0</ele><time>2026-04-12T07:52:45Z</time></trkpt><trkpt lat="43.611244413947944" lon="6.6529856934862295"><ele>330.00000000000006</ele><time>2026-04-12T07:52:46Z</time></trkpt><trkpt lat="43.611181365569216" lon="6.653013595894917"><ele>330.0</ele><time>2026-04-12T07:52:47Z</time></trkpt><trkpt lat="43.6111152117823" lon="6.65303600441986"><ele>330.0</ele><time>2026-04-12T07:52:48Z</time></trkpt><trkpt lat="43.61104717654853" lon="6.653060712753785"><ele>330.0</ele><time>2026-04-12T07:52:49Z</time></trkpt><trkpt lat="43.610978582880946" lon="6.653083856047185"><ele>330.0</ele><time>2026-04-12T07:52:50Z</time></trkpt><trkpt lat="43.61090960182032" lon="6.653102342522443"><ele>330.00000000000006</ele><time>2026-04-12T07:52:51Z</time></trkpt><trkpt lat="43.61084430095712" lon="6.653123803804607"><ele>330.0</ele><time>2026-04-12T07:52:52Z</time></trkpt><trkpt lat="43.61077100550244" lon="6.653138192504463"><ele>330.5714285714286</ele><time>2026-04-12T07:52:53Z</time></trkpt><trkpt lat="43.610702332818626" lon="6.65315469957943"><ele>331.14285714285717</ele><time>2026-04-12T07:52:54Z</time></trkpt><trkpt lat="43.610630403090845" lon="6.65317313603598"><ele>331.7142857142857</ele><time>2026-04-12T07:52:55Z</time></trkpt><trkpt lat="43.610562268585404" lon="6.653186422414339"><ele>332.28571428571433</ele><time>2026-04-12T07:52:56Z</time></trkpt><trkpt lat="43.61049040826226" lon="6.6531930845923455"><ele>332.8571428571429</ele><time>2026-04-12T07:52:57Z</time></trkpt><trkpt lat="43.610424072479454" lon="6.653193029949412"><ele>333.42857142857144</ele><time>2026-04-12T07:52:58Z</time></trkpt><trkpt lat="43.61035568665473" lon="6.6531900415225325"><ele>334.0</ele><time>2026-04-12T07:52:59Z</time></trkpt><trkpt lat="43.610285410160834" lon="6.653188833366968"><ele>334.85714285714283</ele><time>2026-04-12T07:53:00Z</time></trkpt><trkpt lat="43.61021470997828" lon="6.653188205649148"><ele>335.7142857142857</ele><time>2026-04-12T07:53:01Z</time></trkpt><trkpt lat="43.610140570749266" lon="6.653183660007774"><ele>336.57142857142856</ele><time>2026-04-12T07:53:02Z</time></trkpt><trkpt lat="43.61006486715369" lon="6.653175604080989"><ele>337.42857142857144</ele><time>2026-04-12T07:53:03Z</time></trkpt><trkpt lat="43.60998872411557" lon="6.653164598734644"><ele>338.2857142857143</ele><time>2026-04-12T07:53:04Z</time></trkpt><trkpt lat="43.6099147384982" lon="6.653146475688285"><ele>339.14285714285717</ele><time>2026-04-12T07:53:04.999Z</time></trkpt><trkpt lat="43.60983989888958" lon="6.653126511262045"><ele>340.0</ele><time>2026-04-12T07:53:05.999Z</time></trkpt><trkpt lat="43.60976631845523" lon="6.653109408982537"><ele>340.0</ele><time>2026-04-12T07:53:06.999Z</time></trkpt><trkpt lat="43.6096929056909" lon="6.653092712476373"><ele>340.0</ele><time>2026-04-12T07:53:07.999Z</time></trkpt><trkpt lat="43.60962033690178" lon="6.653075231928551"><ele>340.0</ele><time>2026-04-12T07:53:08.999Z</time></trkpt><trkpt lat="43.609548230361334" lon="6.653059464018673"><ele>340.0</ele><time>2026-04-12T07:53:09.999Z</time></trkpt><trkpt lat="43.60947801720994" lon="6.653064938855159"><ele>340.0</ele><time>2026-04-12T07:53:10.999Z</time></trkpt><trkpt lat="43.60941078412672" lon="6.653043286669555"><ele>340.0</ele><time>2026-04-12T07:53:11.999Z</time></trkpt><trkpt lat="43.6093381165238" lon="6.653041785469709"><ele>340.0</ele><time>2026-04-12T07:53:12.999Z</time></trkpt><trkpt lat="43.609268182151354" lon="6.6530422718611115"><ele>339.8571428571429</ele><time>2026-04-12T07:53:13.999Z</time></trkpt><trkpt lat="43.60920165560194" lon="6.653069059907521"><ele>339.71428571428567</ele><time>2026-04-12T07:53:14.999Z</time></trkpt><trkpt lat="43.60913528668809" lon="6.653078517930215"><ele>339.57142857142856</ele><time>2026-04-12T07:53:15.999Z</time></trkpt><trkpt lat="43.60907157672488" lon="6.653090431662068"><ele>339.42857142857144</ele><time>2026-04-12T07:53:16.999Z</time></trkpt><trkpt lat="43.609004613417746" lon="6.653115759716033"><ele>339.28571428571433</ele><time>2026-04-12T07:53:17.999Z</time></trkpt><trkpt lat="43.608936563745154" lon="6.653144220403364"><ele>339.1428571428571</ele><time>2026-04-12T07:53:18.999Z</time></trkpt><trkpt lat="43.60886712135607" lon="6.653174789841778"><ele>339.0</ele><time>2026-04-12T07:53:19.999Z</time></trkpt><trkpt lat="43.60879884902877" lon="6.653214943866886"><ele>339.0</ele><time>2026-04-12T07:53:20.999Z</time></trkpt><trkpt lat="43.60873360370902" lon="6.653250520382298"><ele>339.0</ele><time>2026-04-12T07:53:21.999Z</time></trkpt><trkpt lat="43.608663660982096" lon="6.653277838464968"><ele>339.0</ele><time>2026-04-12T07:53:22.999Z</time></trkpt><trkpt lat="43.608596481109124" lon="6.653322912096481"><ele>339.0</ele><time>2026-04-12T07:53:23.999Z</time></trkpt><trkpt lat="43.60852999524795" lon="6.6533507276243276"><ele>339.0</ele><time>2026-04-12T07:53:24.999Z</time></trkpt><trkpt lat="43.608461271228" lon="6.653381717237726"><ele>339.0</ele><time>2026-04-12T07:53:25.999Z</time></trkpt><trkpt lat="43.608392140126746" lon="6.653417178671631"><ele>339.0</ele><time>2026-04-12T07:53:26.999Z</time></trkpt><trkpt lat="43.608321979481474" lon="6.6534557019257194"><ele>339.8333333333333</ele><time>2026-04-12T07:53:27.999Z</time></trkpt><trkpt lat="43.60824862452415" lon="6.653494600734383"><ele>340.6666666666667</ele><time>2026-04-12T07:53:28.999Z</time></trkpt><trkpt lat="43.60817011651425" lon="6.653508212648549"><ele>341.5</ele><time>2026-04-12T07:53:29.999Z</time></trkpt><trkpt lat="43.60809527772533" lon="6.653559431170893"><ele>342.33333333333337</ele><time>2026-04-12T07:53:30.999Z</time></trkpt><trkpt lat="43.60801628285826" lon="6.65358670578777"><ele>343.1666666666667</ele><time>2026-04-12T07:53:31.999Z</time></trkpt><trkpt lat="43.6079368522804" lon="6.653618514542722"><ele>344.0</ele><time>2026-04-12T07:53:32.999Z</time></trkpt><trkpt lat="43.60785633820118" lon="6.6536462517010895"><ele>342.83333333333337</ele><time>2026-04-12T07:53:33.999Z</time></trkpt><trkpt lat="43.60777513092354" lon="6.6536712921673695"><ele>341.6666666666667</ele><time>2026-04-12T07:53:34.999Z</time></trkpt><trkpt lat="43.607692922641895" lon="6.6536975727173475"><ele>340.5</ele><time>2026-04-12T07:53:35.999Z</time></trkpt><trkpt lat="43.60761128126665" lon="6.653727567492729"><ele>339.3333333333333</ele><time>2026-04-12T07:53:36.999Z</time></trkpt><trkpt lat="43.60752847629506" lon="6.653753500340684"><ele>338.16666666666663</ele><time>2026-04-12T07:53:37.999Z</time></trkpt><trkpt lat="43.60744596299029" lon="6.653775343114315"><ele>337.0</ele><time>2026-04-12T07:53:38.999Z</time></trkpt><trkpt lat="43.60736254000644" lon="6.653805113050495"><ele>337.0</ele><time>2026-04-12T07:53:39.999Z</time></trkpt><trkpt lat="43.60727754496989" lon="6.653829505918866"><ele>337.0</ele><time>2026-04-12T07:53:40.999Z</time></trkpt><trkpt lat="43.60719202303804" lon="6.653854112681352"><ele>337.0</ele><time>2026-04-12T07:53:41.999Z</time></trkpt><trkpt lat="43.60710731191775" lon="6.653878284819442"><ele>337.0</ele><time>2026-04-12T07:53:42.999Z</time></trkpt><trkpt lat="43.60702423623193" lon="6.653905728860927"><ele>337.0</ele><time>2026-04-12T07:53:43.999Z</time></trkpt><trkpt lat="43.606941291654394" lon="6.65393427822017"><ele>337.0</ele><time>2026-04-12T07:53:44.999Z</time></trkpt><trkpt lat="43.60686097665168" lon="6.653962853224315"><ele>337.5</ele><time>2026-04-12T07:53:45.999Z</time></trkpt><trkpt lat="43.60677583556001" lon="6.653987254520882"><ele>338.0</ele><time>2026-04-12T07:53:46.999Z</time></trkpt><trkpt lat="43.6066917687272" lon="6.654018066711022"><ele>338.5</ele><time>2026-04-12T07:53:47.999Z</time></trkpt><trkpt lat="43.60661038374395" lon="6.654053807984247"><ele>339.0</ele><time>2026-04-12T07:53:48.999Z</time></trkpt><trkpt lat="43.60652703914827" lon="6.65408364648686"><ele>339.5</ele><time>2026-04-12T07:53:49.999Z</time></trkpt><trkpt lat="43.60644320088471" lon="6.654104831646475"><ele>340.0</ele><time>2026-04-12T07:53:50.999Z</time></trkpt><trkpt lat="43.60636161105024" lon="6.654112514021796"><ele>340.0</ele><time>2026-04-12T07:53:51.999Z</time></trkpt><trkpt lat="43.606275131425136" lon="6.654106398270693"><ele>340.0</ele><time>2026-04-12T07:53:52.999Z</time></trkpt><trkpt lat="43.60619000900256" lon="6.654080568854046"><ele>340.0</ele><time>2026-04-12T07:53:53.999Z</time></trkpt><trkpt lat="43.606116935309416" lon="6.654019929714942"><ele>340.0</ele><time>2026-04-12T07:53:54.999Z</time></trkpt><trkpt lat="43.606064723058125" lon="6.6539240068052505"><ele>340.0</ele><time>2026-04-12T07:53:55.999Z</time></trkpt><trkpt lat="43.60605837602369" lon="6.653783821637535"><ele>340.0</ele><time>2026-04-12T07:53:56.999Z</time></trkpt><trkpt lat="43.60605638242799" lon="6.653670413480471"><ele>340.2</ele><time>2026-04-12T07:53:57.999Z</time></trkpt><trkpt lat="43.6060443808245" lon="6.653544658703257"><ele>340.4</ele><time>2026-04-12T07:53:58.999Z</time></trkpt><trkpt lat="43.60601780210326" lon="6.653421582882644"><ele>340.6</ele><time>2026-04-12T07:53:59.999Z</time></trkpt><trkpt lat="43.60600205439984" lon="6.653294904902483"><ele>340.8</ele><time>2026-04-12T07:54:00.999Z</time></trkpt><trkpt lat="43.605994478266496" lon="6.6531591592529695"><ele>341.0</ele><time>2026-04-12T07:54:01.999Z</time></trkpt><trkpt lat="43.60596411038899" lon="6.6530212263612505"><ele>341.0</ele><time>2026-04-12T07:54:02.999Z</time></trkpt><trkpt lat="43.605900746685776" lon="6.652898831041021"><ele>341.0</ele><time>2026-04-12T07:54:04Z</time></trkpt><trkpt lat="43.60584054805856" lon="6.652774386643791"><ele>341.0</ele><time>2026-04-12T07:54:05Z</time></trkpt><trkpt lat="43.605710818896966" lon="6.652726750996042"><ele>341.0</ele><time>2026-04-12T07:54:06Z</time></trkpt><trkpt lat="43.6056019081146" lon="6.652671660950466"><ele>340.5</ele><time>2026-04-12T07:54:07Z</time></trkpt><trkpt lat="43.605483478819096" lon="6.652631880146665"><ele>340.0</ele><time>2026-04-12T07:54:08Z</time></trkpt><trkpt lat="43.6053679502942" lon="6.65258467283757"><ele>339.5</ele><time>2026-04-12T07:54:09Z</time></trkpt><trkpt lat="43.60525417349417" lon="6.652518645555348"><ele>339.0</ele><time>2026-04-12T07:54:10Z</time></trkpt><trkpt lat="43.605172220111115" lon="6.652373872593826"><ele>338.5</ele><time>2026-04-12T07:54:11Z</time></trkpt><trkpt lat="43.60507985299776" lon="6.652258710107973"><ele>338.0</ele><time>2026-04-12T07:54:12Z</time></trkpt><trkpt lat="43.60497510861041" lon="6.652152924078492"><ele>337.5</ele><time>2026-04-12T07:54:13Z</time></trkpt><trkpt lat="43.604862169228895" lon="6.652061016230156"><ele>337.0</ele><time>2026-04-12T07:54:14Z</time></trkpt><trkpt lat="43.60474323962647" lon="6.651986595836757"><ele>335.25</ele><time>2026-04-12T07:54:15Z</time></trkpt><trkpt lat="43.604617204114724" lon="6.651923310705366"><ele>333.5</ele><time>2026-04-12T07:54:16Z</time></trkpt><trkpt lat="43.60448159608614" lon="6.65189027076079"><ele>331.75</ele><time>2026-04-12T07:54:17Z</time></trkpt><trkpt lat="43.604339431113196" lon="6.65187695981172"><ele>330.0</ele><time>2026-04-12T07:54:18Z</time></trkpt><trkpt lat="43.60419921969156" lon="6.651881548900298"><ele>329.75</ele><time>2026-04-12T07:54:19Z</time></trkpt><trkpt lat="43.60405791582025" lon="6.651899545591521"><ele>329.5</ele><time>2026-04-12T07:54:20Z</time></trkpt><trkpt lat="43.60392156576023" lon="6.651892914550841"><ele>329.25</ele><time>2026-04-12T07:54:21Z</time></trkpt><trkpt lat="43.60378691533382" lon="6.65192697698971"><ele>329.0</ele><time>2026-04-12T07:54:22Z</time></trkpt><trkpt lat="43.60365755427107" lon="6.651933009776414"><ele>330.0</ele><time>2026-04-12T07:54:23Z</time></trkpt><trkpt lat="43.6035304924669" lon="6.651966835557354"><ele>331.0</ele><time>2026-04-12T07:54:24Z</time></trkpt><trkpt lat="43.60340834674079" lon="6.652033250737383"><ele>332.0</ele><time>2026-04-12T07:54:25Z</time></trkpt><trkpt lat="43.603295733891024" lon="6.652135690128038"><ele>333.0</ele><time>2026-04-12T07:54:26Z</time></trkpt><trkpt lat="43.60317464767865" lon="6.652208244274511"><ele>333.0</ele><time>2026-04-12T07:54:27Z</time></trkpt><trkpt lat="43.603057508772416" lon="6.652301604546858"><ele>333.0</ele><time>2026-04-12T07:54:28Z</time></trkpt><trkpt lat="43.6029186621613" lon="6.652304757339545"><ele>333.0</ele><time>2026-04-12T07:54:29Z</time></trkpt><trkpt lat="43.60277637576406" lon="6.6523109653087396"><ele>333.0</ele><time>2026-04-12T07:54:30Z</time></trkpt><trkpt lat="43.60263197640148" lon="6.652316676571748"><ele>330.75</ele><time>2026-04-12T07:54:31Z</time></trkpt><trkpt lat="43.60248650944691" lon="6.652346807075801"><ele>328.5</ele><time>2026-04-12T07:54:32Z</time></trkpt><trkpt lat="43.60234248792307" lon="6.652373389876799"><ele>326.25</ele><time>2026-04-12T07:54:33Z</time></trkpt><trkpt lat="43.60219741125864" lon="6.652418205354305"><ele>324.0</ele><time>2026-04-12T07:54:34Z</time></trkpt><trkpt lat="43.602058923723256" lon="6.652470569240652"><ele>321.75</ele><time>2026-04-12T07:54:35Z</time></trkpt><trkpt lat="43.60193354322608" lon="6.652527633167662"><ele>319.5</ele><time>2026-04-12T07:54:36Z</time></trkpt><trkpt lat="43.601809910655035" lon="6.652587277283159"><ele>317.25</ele><time>2026-04-12T07:54:37Z</time></trkpt><trkpt lat="43.6016906390868" lon="6.652649828547171"><ele>315.0</ele><time>2026-04-12T07:54:38Z</time></trkpt><trkpt lat="43.60157531779849" lon="6.652712933712237"><ele>315.0</ele><time>2026-04-12T07:54:39Z</time></trkpt><trkpt lat="43.60146110562255" lon="6.652778445113845"><ele>315.0</ele><time>2026-04-12T07:54:40Z</time></trkpt><trkpt lat="43.60135249286779" lon="6.6528328555868095"><ele>315.0</ele><time>2026-04-12T07:54:41Z</time></trkpt><trkpt lat="43.60125178070932" lon="6.652890196951447"><ele>315.0</ele><time>2026-04-12T07:54:42Z</time></trkpt><trkpt lat="43.60114935981382" lon="6.652930992772913"><ele>313.6</ele><time>2026-04-12T07:54:43Z</time></trkpt><trkpt lat="43.6010427390543" lon="6.652912155864483"><ele>312.2</ele><time>2026-04-12T07:54:44Z</time></trkpt><trkpt lat="43.60094638934627" lon="6.6528462519470875"><ele>310.8</ele><time>2026-04-12T07:54:45Z</time></trkpt><trkpt lat="43.600876465971915" lon="6.652732011474027"><ele>309.4</ele><time>2026-04-12T07:54:46Z</time></trkpt><trkpt lat="43.600853782431756" lon="6.6525788787793205"><ele>308.0</ele><time>2026-04-12T07:54:47Z</time></trkpt><trkpt lat="43.60084829263211" lon="6.652436295267351"><ele>307.0</ele><time>2026-04-12T07:54:48Z</time></trkpt><trkpt lat="43.600883735543555" lon="6.652291071681082"><ele>306.0</ele><time>2026-04-12T07:54:49Z</time></trkpt><trkpt lat="43.600906142926824" lon="6.652129573683865"><ele>305.0</ele><time>2026-04-12T07:54:50Z</time></trkpt><trkpt lat="43.60095243170325" lon="6.65197709729442"><ele>304.0</ele><time>2026-04-12T07:54:51Z</time></trkpt><trkpt lat="43.60099000695579" lon="6.651818366051537"><ele>303.5</ele><time>2026-04-12T07:54:52Z</time></trkpt><trkpt lat="43.601006723901214" lon="6.65166363407838"><ele>303.0</ele><time>2026-04-12T07:54:53Z</time></trkpt><trkpt lat="43.60099336775722" lon="6.651518685887269"><ele>302.5</ele><time>2026-04-12T07:54:54Z</time></trkpt><trkpt lat="43.60094316734301" lon="6.651369491163483"><ele>302.0</ele><time>2026-04-12T07:54:55Z</time></trkpt><trkpt lat="43.6008584178506" lon="6.651250649247087"><ele>302.0</ele><time>2026-04-12T07:54:56Z</time></trkpt><trkpt lat="43.60075376137752" lon="6.651171562260518"><ele>302.0</ele><time>2026-04-12T07:54:57Z</time></trkpt><trkpt lat="43.600638299878945" lon="6.651143182619195"><ele>302.0</ele><time>2026-04-12T07:54:58Z</time></trkpt><trkpt lat="43.60052620854514" lon="6.651119541275835"><ele>302.0</ele><time>2026-04-12T07:54:59Z</time></trkpt><trkpt lat="43.60041971500208" lon="6.65108129898862"><ele>302.6</ele><time>2026-04-12T07:55:00Z</time></trkpt><trkpt lat="43.60031892593218" lon="6.6510540484547125"><ele>303.2</ele><time>2026-04-12T07:55:01Z</time></trkpt><trkpt lat="43.60021775807534" lon="6.651027064027933"><ele>303.8</ele><time>2026-04-12T07:55:02Z</time></trkpt><trkpt lat="43.60012283384419" lon="6.65101999780042"><ele>304.4</ele><time>2026-04-12T07:55:03Z</time></trkpt><trkpt lat="43.60003087255533" lon="6.650993678732367"><ele>305.0</ele><time>2026-04-12T07:55:04Z</time></trkpt><trkpt lat="43.59994168369096" lon="6.6509656316301395"><ele>305.0</ele><time>2026-04-12T07:55:05Z</time></trkpt><trkpt lat="43.599853832875965" lon="6.650946670219709"><ele>305.0</ele><time>2026-04-12T07:55:06Z</time></trkpt><trkpt lat="43.59976722885604" lon="6.650924362098123"><ele>305.0</ele><time>2026-04-12T07:55:07Z</time></trkpt><trkpt lat="43.599678827134106" lon="6.650901649021247"><ele>305.0</ele><time>2026-04-12T07:55:08Z</time></trkpt><trkpt lat="43.59958824567471" lon="6.650881022912986"><ele>305.0</ele><time>2026-04-12T07:55:09Z</time></trkpt><trkpt lat="43.599498589626656" lon="6.650835778952105"><ele>306.0</ele><time>2026-04-12T07:55:09.999Z</time></trkpt><trkpt lat="43.599407063935416" lon="6.6508152779218594"><ele>307.0</ele><time>2026-04-12T07:55:10.999Z</time></trkpt><trkpt lat="43.59931673243287" lon="6.650802097958225"><ele>308.0</ele><time>2026-04-12T07:55:11.999Z</time></trkpt><trkpt lat="43.599223054683854" lon="6.650793805114326"><ele>309.0</ele><time>2026-04-12T07:55:12.999Z</time></trkpt><trkpt lat="43.59913155793501" lon="6.650806425806029"><ele>310.0</ele><time>2026-04-12T07:55:13.999Z</time></trkpt><trkpt lat="43.59904422111603" lon="6.6507911705417015"><ele>310.0</ele><time>2026-04-12T07:55:14.999Z</time></trkpt><trkpt lat="43.59895761655693" lon="6.650777051153548"><ele>310.0</ele><time>2026-04-12T07:55:15.999Z</time></trkpt><trkpt lat="43.59887655111021" lon="6.650760846374313"><ele>310.0</ele><time>2026-04-12T07:55:16.999Z</time></trkpt><trkpt lat="43.59879875578442" lon="6.650740213094317"><ele>310.0</ele><time>2026-04-12T07:55:17.999Z</time></trkpt><trkpt lat="43.59872579330287" lon="6.650720447771312"><ele>310.0</ele><time>2026-04-12T07:55:18.999Z</time></trkpt><trkpt lat="43.59865246011076" lon="6.650703079418316"><ele>310.0</ele><time>2026-04-12T07:55:19.999Z</time></trkpt><trkpt lat="43.598581710919575" lon="6.6506838036393905"><ele>310.57142857142856</ele><time>2026-04-12T07:55:20.999Z</time></trkpt><trkpt lat="43.59851103361372" lon="6.650668410665889"><ele>311.1428571428571</ele><time>2026-04-12T07:55:21.999Z</time></trkpt><trkpt lat="43.59843815685107" lon="6.650658332584889"><ele>311.71428571428567</ele><time>2026-04-12T07:55:22.999Z</time></trkpt><trkpt lat="43.59836882843087" lon="6.650646065981829"><ele>312.2857142857143</ele><time>2026-04-12T07:55:23.999Z</time></trkpt><trkpt lat="43.598295061417076" lon="6.650630130716025"><ele>312.85714285714283</ele><time>2026-04-12T07:55:24.999Z</time></trkpt><trkpt lat="43.59822107608482" lon="6.650616464743908"><ele>313.4285714285714</ele><time>2026-04-12T07:55:25.999Z</time></trkpt><trkpt lat="43.5981458717922" lon="6.650601663140179"><ele>314.0</ele><time>2026-04-12T07:55:26.999Z</time></trkpt><trkpt lat="43.598072598445455" lon="6.650580633932463"><ele>314.0</ele><time>2026-04-12T07:55:27.999Z</time></trkpt><trkpt lat="43.59799990457448" lon="6.650548961938664"><ele>314.0</ele><time>2026-04-12T07:55:28.999Z</time></trkpt><trkpt lat="43.59792448879346" lon="6.650510582339479"><ele>314.0</ele><time>2026-04-12T07:55:29.999Z</time></trkpt><trkpt lat="43.59785227861759" lon="6.650463759422654"><ele>314.0</ele><time>2026-04-12T07:55:30.999Z</time></trkpt><trkpt lat="43.59777195431072" lon="6.650422601703798"><ele>314.0</ele><time>2026-04-12T07:55:31.999Z</time></trkpt><trkpt lat="43.59768951171785" lon="6.650382137761509"><ele>314.0</ele><time>2026-04-12T07:55:32.999Z</time></trkpt><trkpt lat="43.59760849586047" lon="6.65034151478179"><ele>314.2</ele><time>2026-04-12T07:55:33.999Z</time></trkpt><trkpt lat="43.597524598205304" lon="6.650297342397863"><ele>314.4</ele><time>2026-04-12T07:55:34.999Z</time></trkpt><trkpt lat="43.5974385537759" lon="6.650256708463508"><ele>314.6</ele><time>2026-04-12T07:55:35.999Z</time></trkpt><trkpt lat="43.59735309120522" lon="6.650208178141859"><ele>314.8</ele><time>2026-04-12T07:55:36.999Z</time></trkpt><trkpt lat="43.59726824474011" lon="6.6501614140672745"><ele>315.0</ele><time>2026-04-12T07:55:37.999Z</time></trkpt><trkpt lat="43.5971806485227" lon="6.650120310080643"><ele>315.0</ele><time>2026-04-12T07:55:38.999Z</time></trkpt><trkpt lat="43.59709476554698" lon="6.650078234329755"><ele>315.0</ele><time>2026-04-12T07:55:39.999Z</time></trkpt><trkpt lat="43.59700796993949" lon="6.650031575770177"><ele>315.0</ele><time>2026-04-12T07:55:40.999Z</time></trkpt><trkpt lat="43.59692027133037" lon="6.64998548728559"><ele>315.0</ele><time>2026-04-12T07:55:41.999Z</time></trkpt><trkpt lat="43.59683653259412" lon="6.649940196934795"><ele>315.0</ele><time>2026-04-12T07:55:42.999Z</time></trkpt><trkpt lat="43.59675354240795" lon="6.649891700201576"><ele>313.8</ele><time>2026-04-12T07:55:43.999Z</time></trkpt><trkpt lat="43.596673934646994" lon="6.649833009544198"><ele>312.6</ele><time>2026-04-12T07:55:44.999Z</time></trkpt><trkpt lat="43.596593971557446" lon="6.649765877226012"><ele>311.4</ele><time>2026-04-12T07:55:45.999Z</time></trkpt><trkpt lat="43.596515105741126" lon="6.649688952254269"><ele>310.2</ele><time>2026-04-12T07:55:46.999Z</time></trkpt><trkpt lat="43.59643812367009" lon="6.6496089948703005"><ele>309.0</ele><time>2026-04-12T07:55:47.999Z</time></trkpt><trkpt lat="43.59636000265594" lon="6.649519887243147"><ele>309.5</ele><time>2026-04-12T07:55:48.999Z</time></trkpt><trkpt lat="43.59628684663032" lon="6.649409748423456"><ele>310.0</ele><time>2026-04-12T07:55:49.999Z</time></trkpt><trkpt lat="43.596251110821754" lon="6.649264631569857"><ele>310.5</ele><time>2026-04-12T07:55:50.999Z</time></trkpt><trkpt lat="43.59618137988217" lon="6.649124260534536"><ele>311.0</ele><time>2026-04-12T07:55:51.999Z</time></trkpt><trkpt lat="43.59613545537586" lon="6.64896881684813"><ele>309.25</ele><time>2026-04-12T07:55:52.999Z</time></trkpt><trkpt lat="43.5960847155398" lon="6.648815293222576"><ele>307.5</ele><time>2026-04-12T07:55:53.999Z</time></trkpt><trkpt lat="43.59602496485047" lon="6.648663575234708"><ele>305.75</ele><time>2026-04-12T07:55:54.999Z</time></trkpt><trkpt lat="43.59595924382361" lon="6.648508045018584"><ele>304.0</ele><time>2026-04-12T07:55:55.999Z</time></trkpt><trkpt lat="43.595875113473554" lon="6.6483651793661185"><ele>304.0</ele><time>2026-04-12T07:55:56.999Z</time></trkpt><trkpt lat="43.59577815590179" lon="6.648242344727931"><ele>304.0</ele><time>2026-04-12T07:55:57.999Z</time></trkpt><trkpt lat="43.59567148368091" lon="6.648129784163327"><ele>304.0</ele><time>2026-04-12T07:55:58.999Z</time></trkpt><trkpt lat="43.595564830383175" lon="6.648024926769386"><ele>304.0</ele><time>2026-04-12T07:55:59.999Z</time></trkpt><trkpt lat="43.59545984644876" lon="6.647914129322578"><ele>304.0</ele><time>2026-04-12T07:56:00.999Z</time></trkpt><trkpt lat="43.59535669972606" lon="6.647800454187778"><ele>304.0</ele><time>2026-04-12T07:56:01.999Z</time></trkpt><trkpt lat="43.59525534912932" lon="6.647686001455592"><ele>304.0</ele><time>2026-04-12T07:56:02.999Z</time></trkpt><trkpt lat="43.595153821773465" lon="6.6475717498577795"><ele>304.0</ele><time>2026-04-12T07:56:03.999Z</time></trkpt><trkpt lat="43.59505393560738" lon="6.647460849561794"><ele>303.5</ele><time>2026-04-12T07:56:04.999Z</time></trkpt><trkpt lat="43.59494668584553" lon="6.64734034071051"><ele>303.0</ele><time>2026-04-12T07:56:05.999Z</time></trkpt><trkpt lat="43.59484676577506" lon="6.647226203022944"><ele>302.5</ele><time>2026-04-12T07:56:06.999Z</time></trkpt><trkpt lat="43.594744947279665" lon="6.647108889868928"><ele>302.0</ele><time>2026-04-12T07:56:07.999Z</time></trkpt><trkpt lat="43.594647264466" lon="6.64698361984382"><ele>301.75</ele><time>2026-04-12T07:56:08.999Z</time></trkpt><trkpt lat="43.59454858907488" lon="6.646854594241103"><ele>301.5</ele><time>2026-04-12T07:56:10Z</time></trkpt><trkpt lat="43.5944489471269" lon="6.646725772891767"><ele>301.25</ele><time>2026-04-12T07:56:11Z</time></trkpt><trkpt lat="43.5943495223607" lon="6.646589415128226"><ele>301.0</ele><time>2026-04-12T07:56:12Z</time></trkpt><trkpt lat="43.59425471628527" lon="6.646453594722988"><ele>300.25</ele><time>2026-04-12T07:56:13Z</time></trkpt><trkpt lat="43.5941599240778" lon="6.646313016016757"><ele>299.5</ele><time>2026-04-12T07:56:14Z</time></trkpt><trkpt lat="43.59406445754822" lon="6.646171535112747"><ele>298.75</ele><time>2026-04-12T07:56:15Z</time></trkpt><trkpt lat="43.59397632946093" lon="6.646028362691933"><ele>298.0</ele><time>2026-04-12T07:56:16Z</time></trkpt><trkpt lat="43.59388923810646" lon="6.645887864658059"><ele>297.75</ele><time>2026-04-12T07:56:17Z</time></trkpt><trkpt lat="43.593799441740394" lon="6.645744526658082"><ele>297.5</ele><time>2026-04-12T07:56:18Z</time></trkpt><trkpt lat="43.593714568203964" lon="6.6456021119832895"><ele>297.25</ele><time>2026-04-12T07:56:19Z</time></trkpt><trkpt lat="43.59363091001339" lon="6.6454537166068315"><ele>297.0</ele><time>2026-04-12T07:56:20Z</time></trkpt><trkpt lat="43.59354335923745" lon="6.645311647497164"><ele>295.25</ele><time>2026-04-12T07:56:21Z</time></trkpt><trkpt lat="43.59345505467168" lon="6.645171778271437"><ele>293.5</ele><time>2026-04-12T07:56:22Z</time></trkpt><trkpt lat="43.59336779994715" lon="6.645018742003222"><ele>291.75</ele><time>2026-04-12T07:56:23Z</time></trkpt><trkpt lat="43.593282534734556" lon="6.644876840228549"><ele>290.0</ele><time>2026-04-12T07:56:24Z</time></trkpt><trkpt lat="43.59319531280579" lon="6.644733745633118"><ele>290.0</ele><time>2026-04-12T07:56:25Z</time></trkpt><trkpt lat="43.593108135073884" lon="6.64459110107454"><ele>290.0</ele><time>2026-04-12T07:56:26Z</time></trkpt><trkpt lat="43.593023171813336" lon="6.644449362232662"><ele>290.0</ele><time>2026-04-12T07:56:27Z</time></trkpt><trkpt lat="43.592936841963144" lon="6.6443127600131895"><ele>290.0</ele><time>2026-04-12T07:56:28Z</time></trkpt><trkpt lat="43.59285199868053" lon="6.644172726604667"><ele>289.0</ele><time>2026-04-12T07:56:29Z</time></trkpt><trkpt lat="43.59276912954356" lon="6.644027452709808"><ele>288.0</ele><time>2026-04-12T07:56:30Z</time></trkpt><trkpt lat="43.59268335160748" lon="6.6438868393497765"><ele>287.0</ele><time>2026-04-12T07:56:31Z</time></trkpt><trkpt lat="43.5925996987957" lon="6.643740335087438"><ele>286.0</ele><time>2026-04-12T07:56:32Z</time></trkpt><trkpt lat="43.59252435524519" lon="6.643585197386729"><ele>285.5</ele><time>2026-04-12T07:56:33Z</time></trkpt><trkpt lat="43.59245587065098" lon="6.643417310132809"><ele>285.0</ele><time>2026-04-12T07:56:34Z</time></trkpt><trkpt lat="43.592387955618285" lon="6.643242483098425"><ele>284.5</ele><time>2026-04-12T07:56:35Z</time></trkpt><trkpt lat="43.592319691055806" lon="6.643061367073464"><ele>284.0</ele><time>2026-04-12T07:56:36Z</time></trkpt><trkpt lat="43.59224792038727" lon="6.642879526453664"><ele>284.0</ele><time>2026-04-12T07:56:37Z</time></trkpt><trkpt lat="43.59217318535367" lon="6.642692438115082"><ele>284.0</ele><time>2026-04-12T07:56:38Z</time></trkpt><trkpt lat="43.592093641046965" lon="6.642513726905923"><ele>284.0</ele><time>2026-04-12T07:56:39Z</time></trkpt><trkpt lat="43.59201159493664" lon="6.642343403467064"><ele>283.0</ele><time>2026-04-12T07:56:40Z</time></trkpt><trkpt lat="43.591936493575496" lon="6.642172853663662"><ele>282.0</ele><time>2026-04-12T07:56:41Z</time></trkpt><trkpt lat="43.591858404406835" lon="6.642011524431921"><ele>281.0</ele><time>2026-04-12T07:56:42Z</time></trkpt><trkpt lat="43.591776025530365" lon="6.641856772089423"><ele>280.0</ele><time>2026-04-12T07:56:43Z</time></trkpt><trkpt lat="43.59168500922233" lon="6.641716700703621"><ele>280.0</ele><time>2026-04-12T07:56:44Z</time></trkpt><trkpt lat="43.59159069741348" lon="6.641591257028012"><ele>280.0</ele><time>2026-04-12T07:56:45Z</time></trkpt><trkpt lat="43.59149304423298" lon="6.6414745960861925"><ele>280.0</ele><time>2026-04-12T07:56:46Z</time></trkpt><trkpt lat="43.59139121995744" lon="6.641367539112212"><ele>280.0</ele><time>2026-04-12T07:56:47Z</time></trkpt><trkpt lat="43.591290466780684" lon="6.64125977515288"><ele>280.0</ele><time>2026-04-12T07:56:48Z</time></trkpt><trkpt lat="43.591192968170624" lon="6.64114393880612"><ele>280.0</ele><time>2026-04-12T07:56:49Z</time></trkpt><trkpt lat="43.59109902997421" lon="6.641031497620152"><ele>280.0</ele><time>2026-04-12T07:56:50Z</time></trkpt><trkpt lat="43.591012809368586" lon="6.640921037253342"><ele>280.0</ele><time>2026-04-12T07:56:51Z</time></trkpt><trkpt lat="43.590901338361526" lon="6.640843137310525"><ele>280.0</ele><time>2026-04-12T07:56:52Z</time></trkpt><trkpt lat="43.590768925845616" lon="6.640826688150049"><ele>280.0</ele><time>2026-04-12T07:56:53Z</time></trkpt><trkpt lat="43.59064107833143" lon="6.640877349807866"><ele>280.0</ele><time>2026-04-12T07:56:54Z</time></trkpt><trkpt lat="43.590515267389655" lon="6.640915954914537"><ele>280.0</ele><time>2026-04-12T07:56:55Z</time></trkpt><trkpt lat="43.59038359709218" lon="6.64095539901908"><ele>279.25</ele><time>2026-04-12T07:56:56Z</time></trkpt><trkpt lat="43.590251120156985" lon="6.640991449560512"><ele>278.5</ele><time>2026-04-12T07:56:57Z</time></trkpt><trkpt lat="43.590115877920695" lon="6.641029482314338"><ele>277.75</ele><time>2026-04-12T07:56:58Z</time></trkpt><trkpt lat="43.589980794265124" lon="6.641077769090535"><ele>277.0</ele><time>2026-04-12T07:56:59Z</time></trkpt><trkpt lat="43.58984405572984" lon="6.6411329440371585"><ele>276.5</ele><time>2026-04-12T07:57:00Z</time></trkpt><trkpt lat="43.58970591461034" lon="6.641192780118502"><ele>276.0</ele><time>2026-04-12T07:57:01Z</time></trkpt><trkpt lat="43.58957170020978" lon="6.641261121637212"><ele>275.5</ele><time>2026-04-12T07:57:02Z</time></trkpt><trkpt lat="43.58944093325523" lon="6.6413363680075035"><ele>275.0</ele><time>2026-04-12T07:57:03Z</time></trkpt><trkpt lat="43.589311610250164" lon="6.641410734307116"><ele>274.75</ele><time>2026-04-12T07:57:04Z</time></trkpt><trkpt lat="43.589188688869974" lon="6.641498838485985"><ele>274.5</ele><time>2026-04-12T07:57:05Z</time></trkpt><trkpt lat="43.58907542785264" lon="6.64159933829502"><ele>274.25</ele><time>2026-04-12T07:57:06Z</time></trkpt><trkpt lat="43.58896859822824" lon="6.64170939215983"><ele>274.0</ele><time>2026-04-12T07:57:07Z</time></trkpt><trkpt lat="43.588875591530304" lon="6.641839810286249"><ele>272.75</ele><time>2026-04-12T07:57:08Z</time></trkpt><trkpt lat="43.588784707681974" lon="6.641968182662896"><ele>271.5</ele><time>2026-04-12T07:57:09Z</time></trkpt><trkpt lat="43.58869010863171" lon="6.642090364963482"><ele>270.25</ele><time>2026-04-12T07:57:10Z</time></trkpt><trkpt lat="43.5885908931003" lon="6.6421955159766295"><ele>269.0</ele><time>2026-04-12T07:57:11Z</time></trkpt><trkpt lat="43.58847458778133" lon="6.642254375136652"><ele>269.0</ele><time>2026-04-12T07:57:12Z</time></trkpt><trkpt lat="43.58836270437075" lon="6.642326127767525"><ele>269.0</ele><time>2026-04-12T07:57:13Z</time></trkpt><trkpt lat="43.58825953756307" lon="6.642406923410899"><ele>269.0</ele><time>2026-04-12T07:57:14Z</time></trkpt><trkpt lat="43.58814815530595" lon="6.642454749193065"><ele>269.0</ele><time>2026-04-12T07:57:15Z</time></trkpt><trkpt lat="43.58803281880678" lon="6.642495458857672"><ele>269.0</ele><time>2026-04-12T07:57:15.999Z</time></trkpt><trkpt lat="43.587918969547616" lon="6.642537088515581"><ele>269.0</ele><time>2026-04-12T07:57:16.999Z</time></trkpt><trkpt lat="43.58780863059611" lon="6.642572565506342"><ele>269.0</ele><time>2026-04-12T07:57:17.999Z</time></trkpt><trkpt lat="43.5877004589983" lon="6.642611560001694"><ele>269.0</ele><time>2026-04-12T07:57:18.999Z</time></trkpt><trkpt lat="43.58759013348936" lon="6.642647752776301"><ele>269.5</ele><time>2026-04-12T07:57:19.999Z</time></trkpt><trkpt lat="43.58747582813277" lon="6.642682696205067"><ele>270.0</ele><time>2026-04-12T07:57:20.999Z</time></trkpt><trkpt lat="43.587362502617694" lon="6.642722671672523"><ele>270.5</ele><time>2026-04-12T07:57:21.999Z</time></trkpt><trkpt lat="43.58724656117202" lon="6.6427610611130055"><ele>271.0</ele><time>2026-04-12T07:57:22.999Z</time></trkpt><trkpt lat="43.58713295771286" lon="6.6428032753833435"><ele>270.0</ele><time>2026-04-12T07:57:23.999Z</time></trkpt><trkpt lat="43.58701917059192" lon="6.642838380427316"><ele>269.0</ele><time>2026-04-12T07:57:24.999Z</time></trkpt><trkpt lat="43.586904860529664" lon="6.642876360641423"><ele>268.0</ele><time>2026-04-12T07:57:25.999Z</time></trkpt><trkpt lat="43.586793923099606" lon="6.642874612510114"><ele>267.0</ele><time>2026-04-12T07:57:26.999Z</time></trkpt><trkpt lat="43.58669800258031" lon="6.6428685356484545"><ele>266.0</ele><time>2026-04-12T07:57:27.999Z</time></trkpt><trkpt lat="43.586615757857494" lon="6.642805905860088"><ele>266.0</ele><time>2026-04-12T07:57:28.999Z</time></trkpt><trkpt lat="43.586552804990774" lon="6.642729845934817"><ele>266.0</ele><time>2026-04-12T07:57:29.999Z</time></trkpt><trkpt lat="43.58649622698377" lon="6.642660006979805"><ele>266.0</ele><time>2026-04-12T07:57:30.999Z</time></trkpt><trkpt lat="43.58644280641558" lon="6.642593174801257"><ele>266.0</ele><time>2026-04-12T07:57:31.999Z</time></trkpt><trkpt lat="43.586229128825316" lon="6.642741431344896"><ele>265.8</ele><time>2026-04-12T07:57:33.999Z</time></trkpt><trkpt lat="43.586164876958556" lon="6.6428378576669385"><ele>265.6</ele><time>2026-04-12T07:57:34.999Z</time></trkpt><trkpt lat="43.5861080155692" lon="6.642944621072792"><ele>265.4</ele><time>2026-04-12T07:57:35.999Z</time></trkpt><trkpt lat="43.58605654400767" lon="6.643063016020972"><ele>265.2</ele><time>2026-04-12T07:57:36.999Z</time></trkpt><trkpt lat="43.58600326045597" lon="6.643185434815728"><ele>265.0</ele><time>2026-04-12T07:57:37.999Z</time></trkpt><trkpt lat="43.58595234637215" lon="6.643308647960492"><ele>265.0</ele><time>2026-04-12T07:57:38.999Z</time></trkpt><trkpt lat="43.58589984796299" lon="6.643436595594541"><ele>265.0</ele><time>2026-04-12T07:57:39.999Z</time></trkpt><trkpt lat="43.58584215602408" lon="6.643558113970106"><ele>265.0</ele><time>2026-04-12T07:57:40.999Z</time></trkpt><trkpt lat="43.5857795819805" lon="6.643684226897937"><ele>265.0</ele><time>2026-04-12T07:57:41.999Z</time></trkpt><trkpt lat="43.58571803372427" lon="6.643808121081308"><ele>265.0</ele><time>2026-04-12T07:57:42.999Z</time></trkpt><trkpt lat="43.585656384184226" lon="6.643934112063982"><ele>264.2</ele><time>2026-04-12T07:57:43.999Z</time></trkpt><trkpt lat="43.58559935246839" lon="6.64406190219317"><ele>263.4</ele><time>2026-04-12T07:57:44.999Z</time></trkpt><trkpt lat="43.58553751158437" lon="6.644188559024977"><ele>262.6</ele><time>2026-04-12T07:57:45.999Z</time></trkpt><trkpt lat="43.585475714391066" lon="6.64431524194148"><ele>261.8</ele><time>2026-04-12T07:57:46.999Z</time></trkpt><trkpt lat="43.58541475290342" lon="6.6444464957338685"><ele>261.0</ele><time>2026-04-12T07:57:47.999Z</time></trkpt><trkpt lat="43.585353673940006" lon="6.644575216231136"><ele>261.25</ele><time>2026-04-12T07:57:48.999Z</time></trkpt><trkpt lat="43.58529075442654" lon="6.644704592924903"><ele>261.5</ele><time>2026-04-12T07:57:49.999Z</time></trkpt><trkpt lat="43.58522682613054" lon="6.644837811444409"><ele>261.75</ele><time>2026-04-12T07:57:50.999Z</time></trkpt><trkpt lat="43.58516476581317" lon="6.64497006550205"><ele>262.0</ele><time>2026-04-12T07:57:51.999Z</time></trkpt><trkpt lat="43.58510427832298" lon="6.645107674358713"><ele>262.0</ele><time>2026-04-12T07:57:52.999Z</time></trkpt><trkpt lat="43.58504296401573" lon="6.64524254063859"><ele>262.0</ele><time>2026-04-12T07:57:53.999Z</time></trkpt><trkpt lat="43.58498780047687" lon="6.645385359002128"><ele>262.0</ele><time>2026-04-12T07:57:54.999Z</time></trkpt><trkpt lat="43.584937217542304" lon="6.64552949806516"><ele>262.0</ele><time>2026-04-12T07:57:55.999Z</time></trkpt><trkpt lat="43.58490535755989" lon="6.64568066986684"><ele>261.25</ele><time>2026-04-12T07:57:56.999Z</time></trkpt><trkpt lat="43.584879998778554" lon="6.645833049012925"><ele>260.5</ele><time>2026-04-12T07:57:57.999Z</time></trkpt><trkpt lat="43.584866566061976" lon="6.645989430787806"><ele>259.75</ele><time>2026-04-12T07:57:58.999Z</time></trkpt><trkpt lat="43.58485417999621" lon="6.6461465555840356"><ele>259.0</ele><time>2026-04-12T07:57:59.999Z</time></trkpt><trkpt lat="43.5848437515864" lon="6.646304756672885"><ele>257.75</ele><time>2026-04-12T07:58:00.999Z</time></trkpt><trkpt lat="43.584831505572424" lon="6.6464615040998165"><ele>256.5</ele><time>2026-04-12T07:58:01.999Z</time></trkpt><trkpt lat="43.584818667201255" lon="6.646619763226715"><ele>255.25</ele><time>2026-04-12T07:58:02.999Z</time></trkpt><trkpt lat="43.584809090386" lon="6.646785662697655"><ele>254.0</ele><time>2026-04-12T07:58:03.999Z</time></trkpt><trkpt lat="43.5847995496923" lon="6.6469547105498785"><ele>253.5</ele><time>2026-04-12T07:58:04.999Z</time></trkpt><trkpt lat="43.58478606115481" lon="6.647125552295414"><ele>253.0</ele><time>2026-04-12T07:58:05.999Z</time></trkpt><trkpt lat="43.58477887825299" lon="6.647300717395941"><ele>252.5</ele><time>2026-04-12T07:58:06.999Z</time></trkpt><trkpt lat="43.58477925870114" lon="6.647477904910091"><ele>252.0</ele><time>2026-04-12T07:58:07.999Z</time></trkpt><trkpt lat="43.58479869218701" lon="6.64765617450608"><ele>251.5</ele><time>2026-04-12T07:58:08.999Z</time></trkpt><trkpt lat="43.58485053702446" lon="6.647825605193694"><ele>251.0</ele><time>2026-04-12T07:58:09.999Z</time></trkpt><trkpt lat="43.58492071847259" lon="6.647980151426603"><ele>250.5</ele><time>2026-04-12T07:58:10.999Z</time></trkpt><trkpt lat="43.5849838471174" lon="6.648132121970161"><ele>250.0</ele><time>2026-04-12T07:58:11.999Z</time></trkpt><trkpt lat="43.585036739847766" lon="6.648291411268414"><ele>250.0</ele><time>2026-04-12T07:58:12.999Z</time></trkpt><trkpt lat="43.58506510103532" lon="6.648469670177384"><ele>250.0</ele><time>2026-04-12T07:58:13.999Z</time></trkpt><trkpt lat="43.58507241666079" lon="6.648658879709241"><ele>250.0</ele><time>2026-04-12T07:58:14.999Z</time></trkpt><trkpt lat="43.58506296712804" lon="6.648845032006055"><ele>250.0</ele><time>2026-04-12T07:58:16Z</time></trkpt><trkpt lat="43.585040298811144" lon="6.649032840269321"><ele>249.75</ele><time>2026-04-12T07:58:17Z</time></trkpt><trkpt lat="43.58500263968565" lon="6.649218711889946"><ele>249.5</ele><time>2026-04-12T07:58:18Z</time></trkpt><trkpt lat="43.58496237180206" lon="6.649412974984226"><ele>249.25</ele><time>2026-04-12T07:58:19Z</time></trkpt><trkpt lat="43.584932674469925" lon="6.649614614206798"><ele>249.0</ele><time>2026-04-12T07:58:20Z</time></trkpt><trkpt lat="43.584903291093944" lon="6.6498210681964816"><ele>246.66666666666669</ele><time>2026-04-12T07:58:21Z</time></trkpt><trkpt lat="43.584878197131694" lon="6.650030107295172"><ele>244.33333333333334</ele><time>2026-04-12T07:58:22Z</time></trkpt><trkpt lat="43.584842520834144" lon="6.650234749254131"><ele>242.0</ele><time>2026-04-12T07:58:23Z</time></trkpt><trkpt lat="43.584843968999145" lon="6.650446200691902"><ele>241.0</ele><time>2026-04-12T07:58:24Z</time></trkpt><trkpt lat="43.58484849424626" lon="6.650649980965336"><ele>240.0</ele><time>2026-04-12T07:58:25Z</time></trkpt><trkpt lat="43.58487226285663" lon="6.650850587265788"><ele>239.0</ele><time>2026-04-12T07:58:26Z</time></trkpt><trkpt lat="43.58491054731763" lon="6.65103964306249"><ele>238.0</ele><time>2026-04-12T07:58:27Z</time></trkpt><trkpt lat="43.58496476120463" lon="6.6512194962213425"><ele>237.75</ele><time>2026-04-12T07:58:28Z</time></trkpt><trkpt lat="43.58503526704755" lon="6.651381749059222"><ele>237.5</ele><time>2026-04-12T07:58:29Z</time></trkpt><trkpt lat="43.58511315105355" lon="6.651532430247267"><ele>237.25</ele><time>2026-04-12T07:58:30Z</time></trkpt><trkpt lat="43.58518856656756" lon="6.651681215114667"><ele>237.0</ele><time>2026-04-12T07:58:31Z</time></trkpt><trkpt lat="43.58525761609543" lon="6.651833914130077"><ele>236.75</ele><time>2026-04-12T07:58:32Z</time></trkpt><trkpt lat="43.5853174283715" lon="6.651990068159719"><ele>236.5</ele><time>2026-04-12T07:58:33Z</time></trkpt><trkpt lat="43.585363934225725" lon="6.6521518603167"><ele>236.25</ele><time>2026-04-12T07:58:34Z</time></trkpt><trkpt lat="43.585391056817336" lon="6.652322337502229"><ele>236.0</ele><time>2026-04-12T07:58:35Z</time></trkpt><trkpt lat="43.5853940795154" lon="6.65248964807326"><ele>236.60000000000002</ele><time>2026-04-12T07:58:36Z</time></trkpt><trkpt lat="43.585385422924816" lon="6.652649308146671"><ele>237.20000000000002</ele><time>2026-04-12T07:58:37Z</time></trkpt><trkpt lat="43.58537887851446" lon="6.652805098438914"><ele>237.79999999999998</ele><time>2026-04-12T07:58:38Z</time></trkpt><trkpt lat="43.58537769465511" lon="6.652957600472312"><ele>238.39999999999998</ele><time>2026-04-12T07:58:39Z</time></trkpt><trkpt lat="43.58537423114597" lon="6.653108507343829"><ele>239.0</ele><time>2026-04-12T07:58:40Z</time></trkpt><trkpt lat="43.585368510703326" lon="6.653254779967865"><ele>239.0</ele><time>2026-04-12T07:58:41Z</time></trkpt><trkpt lat="43.58536339759191" lon="6.653402682217704"><ele>238.99999999999997</ele><time>2026-04-12T07:58:42Z</time></trkpt><trkpt lat="43.58536156347934" lon="6.653548518497249"><ele>238.99999999999997</ele><time>2026-04-12T07:58:43Z</time></trkpt><trkpt lat="43.58536207978357" lon="6.653692166685751"><ele>239.0</ele><time>2026-04-12T07:58:44Z</time></trkpt><trkpt lat="43.58536203928618" lon="6.653833966140495"><ele>239.0</ele><time>2026-04-12T07:58:45Z</time></trkpt><trkpt lat="43.58536232726074" lon="6.653974881667276"><ele>239.39999999999998</ele><time>2026-04-12T07:58:46Z</time></trkpt><trkpt lat="43.585363485748175" lon="6.654115191590123"><ele>239.79999999999998</ele><time>2026-04-12T07:58:47Z</time></trkpt><trkpt lat="43.58536279229616" lon="6.65425413892338"><ele>240.20000000000002</ele><time>2026-04-12T07:58:48Z</time></trkpt><trkpt lat="43.58536177521965" lon="6.65439312119732"><ele>240.60000000000002</ele><time>2026-04-12T07:58:49Z</time></trkpt><trkpt lat="43.58536046356363" lon="6.654530318378852"><ele>241.0</ele><time>2026-04-12T07:58:50Z</time></trkpt><trkpt lat="43.58536206378772" lon="6.654667896202066"><ele>241.60000000000002</ele><time>2026-04-12T07:58:51Z</time></trkpt><trkpt lat="43.585360929957986" lon="6.654803098441325"><ele>242.20000000000002</ele><time>2026-04-12T07:58:52Z</time></trkpt><trkpt lat="43.58535939608247" lon="6.654938127879544"><ele>242.79999999999998</ele><time>2026-04-12T07:58:53Z</time></trkpt><trkpt lat="43.58535830050934" lon="6.6550726646814224"><ele>243.39999999999998</ele><time>2026-04-12T07:58:54Z</time></trkpt><trkpt lat="43.58535645304628" lon="6.655208036638179"><ele>244.0</ele><time>2026-04-12T07:58:55Z</time></trkpt><trkpt lat="43.58535324536786" lon="6.655341101610963"><ele>244.2</ele><time>2026-04-12T07:58:56Z</time></trkpt><trkpt lat="43.5853532715228" lon="6.65547358391006"><ele>244.39999999999998</ele><time>2026-04-12T07:58:57Z</time></trkpt><trkpt lat="43.585353734874154" lon="6.655606787874587"><ele>244.6</ele><time>2026-04-12T07:58:58Z</time></trkpt><trkpt lat="43.58534852732667" lon="6.655736386346005"><ele>244.8</ele><time>2026-04-12T07:58:59Z</time></trkpt><trkpt lat="43.58534546145085" lon="6.655867066354172"><ele>245.0</ele><time>2026-04-12T07:59:00Z</time></trkpt><trkpt lat="43.58534473258589" lon="6.655997453961859"><ele>245.0</ele><time>2026-04-12T07:59:01Z</time></trkpt><trkpt lat="43.58534373400677" lon="6.656127202177774"><ele>245.0</ele><time>2026-04-12T07:59:02Z</time></trkpt><trkpt lat="43.5853468864721" lon="6.656255597693553"><ele>245.0</ele><time>2026-04-12T07:59:03Z</time></trkpt><trkpt lat="43.58534977085425" lon="6.656384032390755"><ele>245.0</ele><time>2026-04-12T07:59:04Z</time></trkpt><trkpt lat="43.58534560100171" lon="6.65651267645454"><ele>245.0</ele><time>2026-04-12T07:59:05Z</time></trkpt><trkpt lat="43.58534448654715" lon="6.6566390494307335"><ele>244.6</ele><time>2026-04-12T07:59:06Z</time></trkpt><trkpt lat="43.58534414339533" lon="6.656764950671492"><ele>244.2</ele><time>2026-04-12T07:59:07Z</time></trkpt><trkpt lat="43.58534461709853" lon="6.656890421343132"><ele>243.8</ele><time>2026-04-12T07:59:08Z</time></trkpt><trkpt lat="43.58534620380966" lon="6.65701712957104"><ele>243.4</ele><time>2026-04-12T07:59:09Z</time></trkpt><trkpt lat="43.585339153607656" lon="6.657138973996125"><ele>243.0</ele><time>2026-04-12T07:59:10Z</time></trkpt><trkpt lat="43.585336044842585" lon="6.657265046345583"><ele>242.66666666666666</ele><time>2026-04-12T07:59:11Z</time></trkpt><trkpt lat="43.58532292380688" lon="6.657387824808838"><ele>242.33333333333331</ele><time>2026-04-12T07:59:12Z</time></trkpt><trkpt lat="43.58530231848123" lon="6.657506845006734"><ele>242.0</ele><time>2026-04-12T07:59:13Z</time></trkpt><trkpt lat="43.5852771146349" lon="6.657621400375316"><ele>241.66666666666666</ele><time>2026-04-12T07:59:14Z</time></trkpt><trkpt lat="43.58525092059591" lon="6.657730377903602"><ele>241.33333333333331</ele><time>2026-04-12T07:59:15Z</time></trkpt><trkpt lat="43.585219200946916" lon="6.657830764158327"><ele>241.0</ele><time>2026-04-12T07:59:16Z</time></trkpt><trkpt lat="43.58518104138369" lon="6.657927242516789"><ele>241.99999999999997</ele><time>2026-04-12T07:59:17Z</time></trkpt><trkpt lat="43.58514458871763" lon="6.658025954924816"><ele>243.0</ele><time>2026-04-12T07:59:18Z</time></trkpt><trkpt lat="43.58510030648274" lon="6.658111424367453"><ele>244.0</ele><time>2026-04-12T07:59:19Z</time></trkpt><trkpt lat="43.585056849151016" lon="6.658192404377447"><ele>245.0</ele><time>2026-04-12T07:59:20Z</time></trkpt><trkpt lat="43.58500532671788" lon="6.65826802080508"><ele>245.99999999999997</ele><time>2026-04-12T07:59:21Z</time></trkpt><trkpt lat="43.58495054602736" lon="6.658336507081387"><ele>247.0</ele><time>2026-04-12T07:59:22Z</time></trkpt><trkpt lat="43.58489836954635" lon="6.658407539362755"><ele>246.99999999999997</ele><time>2026-04-12T07:59:22.999Z</time></trkpt><trkpt lat="43.58484542917429" lon="6.65847281122407"><ele>247.0</ele><time>2026-04-12T07:59:23.999Z</time></trkpt><trkpt lat="43.58479843877203" lon="6.658538820668731"><ele>247.0</ele><time>2026-04-12T07:59:24.999Z</time></trkpt><trkpt lat="43.58474740389089" lon="6.658600070872008"><ele>247.0</ele><time>2026-04-12T07:59:25.999Z</time></trkpt><trkpt lat="43.58470082467617" lon="6.658661273961131"><ele>246.99999999999997</ele><time>2026-04-12T07:59:26.999Z</time></trkpt><trkpt lat="43.58462492470836" lon="6.658797311456193"><ele>247.0</ele><time>2026-04-12T07:59:28.999Z</time></trkpt><trkpt lat="43.58457420406056" lon="6.658953477126451"><ele>249.25</ele><time>2026-04-12T07:59:30.999Z</time></trkpt><trkpt lat="43.58453851516327" lon="6.65910981476973"><ele>251.5</ele><time>2026-04-12T07:59:32.999Z</time></trkpt><trkpt lat="43.58452408698823" lon="6.659272364689645"><ele>253.75</ele><time>2026-04-12T07:59:34.999Z</time></trkpt><trkpt lat="43.584532965951674" lon="6.659427824857216"><ele>256.0</ele><time>2026-04-12T07:59:36.999Z</time></trkpt><trkpt lat="43.584564110080656" lon="6.659574845109663"><ele>256.0</ele><time>2026-04-12T07:59:38.999Z</time></trkpt><trkpt lat="43.584613055736526" lon="6.6597081539492375"><ele>256.0</ele><time>2026-04-12T07:59:40.999Z</time></trkpt><trkpt lat="43.58467404740963" lon="6.659831379879485"><ele>256.0</ele><time>2026-04-12T07:59:42.999Z</time></trkpt><trkpt lat="43.584755517846304" lon="6.659910741531154"><ele>256.0</ele><time>2026-04-12T07:59:44.999Z</time></trkpt><trkpt lat="43.58484923602189" lon="6.65999205788674"><ele>256.0</ele><time>2026-04-12T07:59:46.999Z</time></trkpt><trkpt lat="43.58494000077597" lon="6.660046732451682"><ele>256.0</ele><time>2026-04-12T07:59:48.999Z</time></trkpt><trkpt lat="43.58503226950576" lon="6.660105073441488"><ele>256.0</ele><time>2026-04-12T07:59:50.999Z</time></trkpt><trkpt lat="43.58512081353871" lon="6.660170274606911"><ele>256.0</ele><time>2026-04-12T07:59:52.999Z</time></trkpt><trkpt lat="43.585215693102036" lon="6.660236533098905"><ele>256.0</ele><time>2026-04-12T07:59:54.999Z</time></trkpt><trkpt lat="43.58528739968931" lon="6.660337788152648"><ele>256.0</ele><time>2026-04-12T07:59:56.999Z</time></trkpt><trkpt lat="43.585342683567966" lon="6.660464558369426"><ele>256.40000000000003</ele><time>2026-04-12T07:59:58.999Z</time></trkpt><trkpt lat="43.585345819324296" lon="6.660611937527994"><ele>256.8</ele><time>2026-04-12T08:00:00.999Z</time></trkpt><trkpt lat="43.58531612397905" lon="6.66074161882693"><ele>257.20000000000005</ele><time>2026-04-12T08:00:02.999Z</time></trkpt><trkpt lat="43.585258772130224" lon="6.660846486445168"><ele>257.6</ele><time>2026-04-12T08:00:04.999Z</time></trkpt><trkpt lat="43.58519503606855" lon="6.660943436490421"><ele>258.0</ele><time>2026-04-12T08:00:06.999Z</time></trkpt><trkpt lat="43.58512826001328" lon="6.661022975229292"><ele>258.0</ele><time>2026-04-12T08:00:08.999Z</time></trkpt><trkpt lat="43.58506450798202" lon="6.6611072963818945"><ele>258.0</ele><time>2026-04-12T08:00:10.999Z</time></trkpt><trkpt lat="43.584997597193755" lon="6.6611837353998045"><ele>258.0</ele><time>2026-04-12T08:00:12.999Z</time></trkpt><trkpt lat="43.58492804186855" lon="6.661265597937516"><ele>258.0</ele><time>2026-04-12T08:00:14.999Z</time></trkpt><trkpt lat="43.58486550953137" lon="6.661355468658168"><ele>258.0</ele><time>2026-04-12T08:00:16.999Z</time></trkpt><trkpt lat="43.58481078742127" lon="6.661454738891733"><ele>258.0</ele><time>2026-04-12T08:00:18.999Z</time></trkpt><trkpt lat="43.584761622224356" lon="6.661561108556434"><ele>259.8</ele><time>2026-04-12T08:00:20.999Z</time></trkpt><trkpt lat="43.58472283450799" lon="6.66167470188978"><ele>261.6</ele><time>2026-04-12T08:00:23Z</time></trkpt><trkpt lat="43.58468989025326" lon="6.661793183305428"><ele>263.4</ele><time>2026-04-12T08:00:25Z</time></trkpt><trkpt lat="43.58466084897711" lon="6.661921570267414"><ele>265.2</ele><time>2026-04-12T08:00:27Z</time></trkpt><trkpt lat="43.5846474094767" lon="6.662049608294732"><ele>267.0</ele><time>2026-04-12T08:00:29Z</time></trkpt><trkpt lat="43.58463563919728" lon="6.662178008920472"><ele>268.2</ele><time>2026-04-12T08:00:31Z</time></trkpt><trkpt lat="43.584627977050665" lon="6.66230756811435"><ele>269.4</ele><time>2026-04-12T08:00:33Z</time></trkpt><trkpt lat="43.584611123366344" lon="6.662433761974208"><ele>270.6</ele><time>2026-04-12T08:00:35Z</time></trkpt><trkpt lat="43.584597672631254" lon="6.662555948958325"><ele>271.8</ele><time>2026-04-12T08:00:37Z</time></trkpt><trkpt lat="43.584590699845506" lon="6.662683096984216"><ele>273.0</ele><time>2026-04-12T08:00:39Z</time></trkpt><trkpt lat="43.584587229123585" lon="6.662807986163607"><ele>274.6</ele><time>2026-04-12T08:00:41Z</time></trkpt><trkpt lat="43.584574288074116" lon="6.662933706782558"><ele>276.20000000000005</ele><time>2026-04-12T08:00:43Z</time></trkpt><trkpt lat="43.58455663478474" lon="6.663057088068766"><ele>277.8</ele><time>2026-04-12T08:00:45Z</time></trkpt><trkpt lat="43.58455477692413" lon="6.663185310193601"><ele>279.40000000000003</ele><time>2026-04-12T08:00:47Z</time></trkpt><trkpt lat="43.58454360930247" lon="6.663313920102454"><ele>281.0</ele><time>2026-04-12T08:00:49Z</time></trkpt><trkpt lat="43.584534312439196" lon="6.663446611080491"><ele>281.0</ele><time>2026-04-12T08:00:51Z</time></trkpt><trkpt lat="43.58451965634224" lon="6.663573916705974"><ele>281.0</ele><time>2026-04-12T08:00:53Z</time></trkpt><trkpt lat="43.58450830205844" lon="6.663701875193116"><ele>281.0</ele><time>2026-04-12T08:00:55Z</time></trkpt><trkpt lat="43.58448820153705" lon="6.663832808956543"><ele>281.0</ele><time>2026-04-12T08:00:57Z</time></trkpt><trkpt lat="43.58445086845139" lon="6.663959073577607"><ele>281.0</ele><time>2026-04-12T08:00:59Z</time></trkpt><trkpt lat="43.584410143613916" lon="6.664081628353754"><ele>281.40000000000003</ele><time>2026-04-12T08:01:01Z</time></trkpt><trkpt lat="43.58436067395294" lon="6.664200820640955"><ele>281.8</ele><time>2026-04-12T08:01:03Z</time></trkpt><trkpt lat="43.5842991946852" lon="6.664304676573026"><ele>282.20000000000005</ele><time>2026-04-12T08:01:05Z</time></trkpt><trkpt lat="43.58422809897327" lon="6.664403036038639"><ele>282.6</ele><time>2026-04-12T08:01:07Z</time></trkpt><trkpt lat="43.58415759857744" lon="6.664487022004064"><ele>283.0</ele><time>2026-04-12T08:01:09Z</time></trkpt><trkpt lat="43.58407182741841" lon="6.664568050622361"><ele>283.0</ele><time>2026-04-12T08:01:11Z</time></trkpt><trkpt lat="43.58398604747467" lon="6.664646722867294"><ele>283.0</ele><time>2026-04-12T08:01:13Z</time></trkpt><trkpt lat="43.583901568718126" lon="6.664718245700866"><ele>283.0</ele><time>2026-04-12T08:01:15Z</time></trkpt><trkpt lat="43.58381484572528" lon="6.664799869772731"><ele>283.0</ele><time>2026-04-12T08:01:17Z</time></trkpt><trkpt lat="43.583737067007064" lon="6.66487969142017"><ele>283.0</ele><time>2026-04-12T08:01:19Z</time></trkpt><trkpt lat="43.58366414685203" lon="6.664962916889772"><ele>282.2</ele><time>2026-04-12T08:01:21Z</time></trkpt><trkpt lat="43.5835843186905" lon="6.665046424462355"><ele>281.4</ele><time>2026-04-12T08:01:23Z</time></trkpt><trkpt lat="43.58350803970722" lon="6.665139229294976"><ele>280.59999999999997</ele><time>2026-04-12T08:01:25Z</time></trkpt><trkpt lat="43.58343421878156" lon="6.665232314977613"><ele>279.8</ele><time>2026-04-12T08:01:27Z</time></trkpt><trkpt lat="43.583380374675116" lon="6.665347281722616"><ele>279.0</ele><time>2026-04-12T08:01:28.999Z</time></trkpt><trkpt lat="43.58332133953706" lon="6.665466462470484"><ele>279.0</ele><time>2026-04-12T08:01:30.999Z</time></trkpt><trkpt lat="43.583269169401014" lon="6.665597909744215"><ele>279.0</ele><time>2026-04-12T08:01:32.999Z</time></trkpt><trkpt lat="43.583228858818686" lon="6.665751008297096"><ele>279.0</ele><time>2026-04-12T08:01:34.999Z</time></trkpt><trkpt lat="43.58319702229752" lon="6.6659177826358675"><ele>279.0</ele><time>2026-04-12T08:01:36.999Z</time></trkpt><trkpt lat="43.583188712725246" lon="6.6660062398332345"><ele>279.0</ele><time>2026-04-12T08:01:37.999Z</time></trkpt><trkpt lat="43.58318144348005" lon="6.666096483902866"><ele>278.99999999999994</ele><time>2026-04-12T08:01:38.999Z</time></trkpt><trkpt lat="43.583177618844005" lon="6.6661837870996274"><ele>279.0</ele><time>2026-04-12T08:01:39.999Z</time></trkpt><trkpt lat="43.58317487236594" lon="6.6662756384836985"><ele>279.0</ele><time>2026-04-12T08:01:40.999Z</time></trkpt><trkpt lat="43.58317675961176" lon="6.666366467500325"><ele>279.0</ele><time>2026-04-12T08:01:41.999Z</time></trkpt><trkpt lat="43.58318222080539" lon="6.666456062973278"><ele>279.0</ele><time>2026-04-12T08:01:42.999Z</time></trkpt><trkpt lat="43.58318832478887" lon="6.66655088327347"><ele>278.99999999999994</ele><time>2026-04-12T08:01:43.999Z</time></trkpt><trkpt lat="43.58320038791705" lon="6.666645849137638"><ele>279.0</ele><time>2026-04-12T08:01:44.999Z</time></trkpt><trkpt lat="43.58322022464437" lon="6.666739483760607"><ele>278.99999999999994</ele><time>2026-04-12T08:01:45.999Z</time></trkpt><trkpt lat="43.58323621041699" lon="6.666838099913819"><ele>279.0</ele><time>2026-04-12T08:01:46.999Z</time></trkpt><trkpt lat="43.58325599589095" lon="6.666933433860819"><ele>279.0</ele><time>2026-04-12T08:01:47.999Z</time></trkpt><trkpt lat="43.58327433932328" lon="6.667032269033512"><ele>279.0</ele><time>2026-04-12T08:01:48.999Z</time></trkpt><trkpt lat="43.58329414744558" lon="6.667134002719748"><ele>279.0</ele><time>2026-04-12T08:01:49.999Z</time></trkpt><trkpt lat="43.583313895911935" lon="6.667236396929394"><ele>278.99999999999994</ele><time>2026-04-12T08:01:50.999Z</time></trkpt><trkpt lat="43.5833315135371" lon="6.667339916642951"><ele>279.0</ele><time>2026-04-12T08:01:51.999Z</time></trkpt><trkpt lat="43.583350317211064" lon="6.66744957568526"><ele>278.8333333333333</ele><time>2026-04-12T08:01:52.999Z</time></trkpt><trkpt lat="43.58337019211586" lon="6.667558856899866"><ele>278.6666666666667</ele><time>2026-04-12T08:01:53.999Z</time></trkpt><trkpt lat="43.58339076060594" lon="6.667665744887686"><ele>278.5</ele><time>2026-04-12T08:01:54.999Z</time></trkpt><trkpt lat="43.58339941791355" lon="6.667778515635073"><ele>278.33333333333337</ele><time>2026-04-12T08:01:55.999Z</time></trkpt><trkpt lat="43.58342741249314" lon="6.667883586679514"><ele>278.1666666666667</ele><time>2026-04-12T08:01:56.999Z</time></trkpt><trkpt lat="43.583449348725665" lon="6.667996011026341"><ele>278.0</ele><time>2026-04-12T08:01:57.999Z</time></trkpt><trkpt lat="43.58346465103189" lon="6.668103128784968"><ele>278.0</ele><time>2026-04-12T08:01:58.999Z</time></trkpt><trkpt lat="43.5834832902597" lon="6.668213078565253"><ele>278.0</ele><time>2026-04-12T08:01:59.999Z</time></trkpt><trkpt lat="43.58350334066599" lon="6.668322787141928"><ele>278.0</ele><time>2026-04-12T08:02:00.999Z</time></trkpt><trkpt lat="43.58352797679856" lon="6.668429229631694"><ele>278.0</ele><time>2026-04-12T08:02:01.999Z</time></trkpt><trkpt lat="43.58355673757289" lon="6.668531721748489"><ele>278.0</ele><time>2026-04-12T08:02:02.999Z</time></trkpt><trkpt lat="43.58358698732712" lon="6.668633598803518"><ele>278.0</ele><time>2026-04-12T08:02:03.999Z</time></trkpt><trkpt lat="43.583622095724394" lon="6.668733673900111"><ele>277.83333333333337</ele><time>2026-04-12T08:02:04.999Z</time></trkpt><trkpt lat="43.583656677149385" lon="6.668821473302202"><ele>277.6666666666667</ele><time>2026-04-12T08:02:05.999Z</time></trkpt><trkpt lat="43.5837073760457" lon="6.668912891133294"><ele>277.5</ele><time>2026-04-12T08:02:06.999Z</time></trkpt><trkpt lat="43.583763972056644" lon="6.668995528658758"><ele>277.3333333333333</ele><time>2026-04-12T08:02:07.999Z</time></trkpt><trkpt lat="43.58382578474018" lon="6.669063820721616"><ele>277.16666666666663</ele><time>2026-04-12T08:02:08.999Z</time></trkpt><trkpt lat="43.58389137444688" lon="6.669111783311997"><ele>277.0</ele><time>2026-04-12T08:02:09.999Z</time></trkpt><trkpt lat="43.58396442418821" lon="6.669170560902193"><ele>278.0</ele><time>2026-04-12T08:02:10.999Z</time></trkpt><trkpt lat="43.58404045771313" lon="6.669214706445993"><ele>279.0</ele><time>2026-04-12T08:02:11.999Z</time></trkpt><trkpt lat="43.58411660771815" lon="6.669255558361065"><ele>280.0</ele><time>2026-04-12T08:02:12.999Z</time></trkpt><trkpt lat="43.58419281126367" lon="6.669288225113669"><ele>281.0</ele><time>2026-04-12T08:02:13.999Z</time></trkpt><trkpt lat="43.58427105907779" lon="6.669316552460172"><ele>282.0</ele><time>2026-04-12T08:02:14.999Z</time></trkpt><trkpt lat="43.584351579065526" lon="6.6693404818173025"><ele>283.0</ele><time>2026-04-12T08:02:15.999Z</time></trkpt><trkpt lat="43.584432598284955" lon="6.669368176882468"><ele>283.0</ele><time>2026-04-12T08:02:16.999Z</time></trkpt><trkpt lat="43.58450877631908" lon="6.669398520718711"><ele>283.0</ele><time>2026-04-12T08:02:17.999Z</time></trkpt><trkpt lat="43.58459007849357" lon="6.669433430690753"><ele>283.0</ele><time>2026-04-12T08:02:18.999Z</time></trkpt><trkpt lat="43.5846732673361" lon="6.669457912492827"><ele>283.0</ele><time>2026-04-12T08:02:19.999Z</time></trkpt><trkpt lat="43.58475232410719" lon="6.669486273871163"><ele>283.0</ele><time>2026-04-12T08:02:20.999Z</time></trkpt><trkpt lat="43.58483215221583" lon="6.669523978413696"><ele>283.0</ele><time>2026-04-12T08:02:21.999Z</time></trkpt><trkpt lat="43.58490822279468" lon="6.6695631435038845"><ele>281.8333333333333</ele><time>2026-04-12T08:02:22.999Z</time></trkpt><trkpt lat="43.58498645072594" lon="6.669605207081804"><ele>280.66666666666663</ele><time>2026-04-12T08:02:23.999Z</time></trkpt><trkpt lat="43.5850606988897" lon="6.669652581633494"><ele>279.5</ele><time>2026-04-12T08:02:24.999Z</time></trkpt><trkpt lat="43.585133180913786" lon="6.669705176001081"><ele>278.3333333333333</ele><time>2026-04-12T08:02:25.999Z</time></trkpt><trkpt lat="43.58520221125572" lon="6.669766817538964"><ele>277.1666666666667</ele><time>2026-04-12T08:02:26.999Z</time></trkpt><trkpt lat="43.58527179693007" lon="6.6698309168907475"><ele>276.0</ele><time>2026-04-12T08:02:28Z</time></trkpt><trkpt lat="43.58534246489891" lon="6.669887938387966"><ele>277.5</ele><time>2026-04-12T08:02:29Z</time></trkpt><trkpt lat="43.585411285823234" lon="6.669943432921407"><ele>279.0</ele><time>2026-04-12T08:02:30Z</time></trkpt><trkpt lat="43.58548129701737" lon="6.6699991396253795"><ele>280.5</ele><time>2026-04-12T08:02:31Z</time></trkpt><trkpt lat="43.58554981966371" lon="6.670052977781414"><ele>282.0</ele><time>2026-04-12T08:02:32Z</time></trkpt><trkpt lat="43.58561873033934" lon="6.670105444288387"><ele>283.5</ele><time>2026-04-12T08:02:33Z</time></trkpt><trkpt lat="43.585690277302064" lon="6.670158648597285"><ele>285.0</ele><time>2026-04-12T08:02:34Z</time></trkpt><trkpt lat="43.585764766147896" lon="6.6702023522789"><ele>285.0</ele><time>2026-04-12T08:02:35Z</time></trkpt><trkpt lat="43.585840127656816" lon="6.67023949576467"><ele>285.0</ele><time>2026-04-12T08:02:36Z</time></trkpt><trkpt lat="43.5859182208037" lon="6.670271956218557"><ele>285.0</ele><time>2026-04-12T08:02:37Z</time></trkpt><trkpt lat="43.58599507568867" lon="6.670298418557841"><ele>285.0</ele><time>2026-04-12T08:02:38Z</time></trkpt><trkpt lat="43.58607460093531" lon="6.670311872809122"><ele>285.0</ele><time>2026-04-12T08:02:39Z</time></trkpt><trkpt lat="43.586156435719204" lon="6.670314344076056"><ele>285.0</ele><time>2026-04-12T08:02:40Z</time></trkpt><trkpt lat="43.586235378109635" lon="6.67030337134585"><ele>284.6666666666667</ele><time>2026-04-12T08:02:41Z</time></trkpt><trkpt lat="43.586312698115094" lon="6.670275168636066"><ele>284.3333333333333</ele><time>2026-04-12T08:02:42Z</time></trkpt><trkpt lat="43.58639081896426" lon="6.670243740940789"><ele>284.0</ele><time>2026-04-12T08:02:43Z</time></trkpt><trkpt lat="43.586467557476205" lon="6.670200085222535"><ele>283.66666666666663</ele><time>2026-04-12T08:02:44Z</time></trkpt><trkpt lat="43.586538249091966" lon="6.670149156561734"><ele>283.3333333333333</ele><time>2026-04-12T08:02:45Z</time></trkpt><trkpt lat="43.58660288416198" lon="6.6700789211470894"><ele>283.0</ele><time>2026-04-12T08:02:46Z</time></trkpt><trkpt lat="43.58665766677057" lon="6.669991812880817"><ele>283.0</ele><time>2026-04-12T08:02:47Z</time></trkpt><trkpt lat="43.58671257098932" lon="6.669911768754961"><ele>283.0</ele><time>2026-04-12T08:02:48Z</time></trkpt><trkpt lat="43.586776179087245" lon="6.669838875704535"><ele>283.0</ele><time>2026-04-12T08:02:49Z</time></trkpt><trkpt lat="43.586842434416305" lon="6.6697703709111655"><ele>283.0</ele><time>2026-04-12T08:02:50Z</time></trkpt><trkpt lat="43.586903872802615" lon="6.669701450962456"><ele>283.0</ele><time>2026-04-12T08:02:51Z</time></trkpt><trkpt lat="43.58697444122331" lon="6.669635450886365"><ele>283.0</ele><time>2026-04-12T08:02:52Z</time></trkpt><trkpt lat="43.58705045981351" lon="6.669576609136452"><ele>282.66666666666663</ele><time>2026-04-12T08:02:53Z</time></trkpt><trkpt lat="43.58712556464428" lon="6.669523609582157"><ele>282.3333333333333</ele><time>2026-04-12T08:02:54Z</time></trkpt><trkpt lat="43.587203992157136" lon="6.669476547377512"><ele>282.0</ele><time>2026-04-12T08:02:55Z</time></trkpt><trkpt lat="43.58728667950079" lon="6.669442629788998"><ele>281.6666666666667</ele><time>2026-04-12T08:02:56Z</time></trkpt><trkpt lat="43.58737170374596" lon="6.669422718303022"><ele>281.33333333333337</ele><time>2026-04-12T08:02:57Z</time></trkpt><trkpt lat="43.58745990905142" lon="6.66943108792772"><ele>281.0</ele><time>2026-04-12T08:02:58Z</time></trkpt><trkpt lat="43.5875407059319" lon="6.669476250171877"><ele>280.5</ele><time>2026-04-12T08:02:59Z</time></trkpt><trkpt lat="43.5876085343368" lon="6.669560301697851"><ele>280.0</ele><time>2026-04-12T08:03:00Z</time></trkpt><trkpt lat="43.58765911223469" lon="6.669670996457379"><ele>279.5</ele><time>2026-04-12T08:03:01Z</time></trkpt><trkpt lat="43.587696324946236" lon="6.6697794995768795"><ele>279.0</ele><time>2026-04-12T08:03:02Z</time></trkpt><trkpt lat="43.587719929513526" lon="6.669888204283339"><ele>278.5</ele><time>2026-04-12T08:03:03Z</time></trkpt><trkpt lat="43.587722061320655" lon="6.670006753119578"><ele>278.0</ele><time>2026-04-12T08:03:04Z</time></trkpt><trkpt lat="43.58771164557371" lon="6.670121336028738"><ele>278.0</ele><time>2026-04-12T08:03:05Z</time></trkpt><trkpt lat="43.58769696012282" lon="6.6702332843580905"><ele>278.0</ele><time>2026-04-12T08:03:06Z</time></trkpt><trkpt lat="43.587678727167095" lon="6.670335758669633"><ele>278.0</ele><time>2026-04-12T08:03:07Z</time></trkpt><trkpt lat="43.58765824835368" lon="6.670439311512412"><ele>278.0</ele><time>2026-04-12T08:03:08Z</time></trkpt><trkpt lat="43.5876208982877" lon="6.670531280907173"><ele>278.0</ele><time>2026-04-12T08:03:09Z</time></trkpt><trkpt lat="43.587585960868196" lon="6.6706254614477185"><ele>278.0</ele><time>2026-04-12T08:03:10Z</time></trkpt><trkpt lat="43.587543590111636" lon="6.6707116561714415"><ele>278.57142857142856</ele><time>2026-04-12T08:03:11Z</time></trkpt><trkpt lat="43.58750458409362" lon="6.670801013197529"><ele>279.14285714285717</ele><time>2026-04-12T08:03:12Z</time></trkpt><trkpt lat="43.58746580741697" lon="6.670888987469283"><ele>279.7142857142857</ele><time>2026-04-12T08:03:13Z</time></trkpt><trkpt lat="43.58742789763844" lon="6.670972388110046"><ele>280.2857142857143</ele><time>2026-04-12T08:03:14Z</time></trkpt><trkpt lat="43.5873918786841" lon="6.6710599471501775"><ele>280.85714285714283</ele><time>2026-04-12T08:03:15Z</time></trkpt><trkpt lat="43.58735663138566" lon="6.671147313562091"><ele>281.42857142857144</ele><time>2026-04-12T08:03:16Z</time></trkpt><trkpt lat="43.587318738297306" lon="6.6712291212123125"><ele>282.0</ele><time>2026-04-12T08:03:17Z</time></trkpt><trkpt lat="43.5872796986787" lon="6.67131580768512"><ele>283.0</ele><time>2026-04-12T08:03:18Z</time></trkpt><trkpt lat="43.58724273014131" lon="6.671401529501326"><ele>284.0</ele><time>2026-04-12T08:03:19Z</time></trkpt><trkpt lat="43.58720726990106" lon="6.671485568342281"><ele>285.0</ele><time>2026-04-12T08:03:20Z</time></trkpt><trkpt lat="43.58717215891621" lon="6.671569135695869"><ele>286.0</ele><time>2026-04-12T08:03:21Z</time></trkpt><trkpt lat="43.58713999066682" lon="6.671653169175887"><ele>287.0</ele><time>2026-04-12T08:03:22Z</time></trkpt><trkpt lat="43.58710463424844" lon="6.671734910245357"><ele>288.0</ele><time>2026-04-12T08:03:23Z</time></trkpt><trkpt lat="43.58706861603957" lon="6.671813509901981"><ele>289.0</ele><time>2026-04-12T08:03:24Z</time></trkpt><trkpt lat="43.58703213881069" lon="6.671893524580921"><ele>288.8333333333333</ele><time>2026-04-12T08:03:25Z</time></trkpt><trkpt lat="43.58699950580786" lon="6.671973556479168"><ele>288.66666666666663</ele><time>2026-04-12T08:03:26Z</time></trkpt><trkpt lat="43.586969816005904" lon="6.672054937656356"><ele>288.5</ele><time>2026-04-12T08:03:27Z</time></trkpt><trkpt lat="43.58693885322721" lon="6.672133859718377"><ele>288.3333333333333</ele><time>2026-04-12T08:03:28Z</time></trkpt><trkpt lat="43.58690435149149" lon="6.672210677984643"><ele>288.1666666666667</ele><time>2026-04-12T08:03:29Z</time></trkpt><trkpt lat="43.58685114597605" lon="6.672367213905387"><ele>288.0</ele><time>2026-04-12T08:03:31Z</time></trkpt><trkpt lat="43.586815328740045" lon="6.672530162782671"><ele>288.0</ele><time>2026-04-12T08:03:32.999Z</time></trkpt><trkpt lat="43.58679692140049" lon="6.672613512826402"><ele>288.0</ele><time>2026-04-12T08:03:33.999Z</time></trkpt><trkpt lat="43.58678441839254" lon="6.672785240023635"><ele>288.0</ele><time>2026-04-12T08:03:35.999Z</time></trkpt><trkpt lat="43.58677560095467" lon="6.672871775204282"><ele>288.0</ele><time>2026-04-12T08:03:36.999Z</time></trkpt><trkpt lat="43.586772681321236" lon="6.672959708567131"><ele>288.0</ele><time>2026-04-12T08:03:37.999Z</time></trkpt><trkpt lat="43.58678176357097" lon="6.673125490383799"><ele>288.0</ele><time>2026-04-12T08:03:39.999Z</time></trkpt><trkpt lat="43.58679505263141" lon="6.673214401593163"><ele>287.8333333333333</ele><time>2026-04-12T08:03:40.999Z</time></trkpt><trkpt lat="43.58682986153875" lon="6.673381994336805"><ele>287.6666666666667</ele><time>2026-04-12T08:03:42.999Z</time></trkpt><trkpt lat="43.586850687675124" lon="6.6734666215230805"><ele>287.5</ele><time>2026-04-12T08:03:43.999Z</time></trkpt><trkpt lat="43.5868741642889" lon="6.673553876488496"><ele>287.33333333333337</ele><time>2026-04-12T08:03:44.999Z</time></trkpt><trkpt lat="43.58689271227027" lon="6.6736391478770924"><ele>287.1666666666667</ele><time>2026-04-12T08:03:45.999Z</time></trkpt><trkpt lat="43.58691296247518" lon="6.673725087099965"><ele>287.0</ele><time>2026-04-12T08:03:46.999Z</time></trkpt><trkpt lat="43.58693203214981" lon="6.67380989916069"><ele>286.6666666666667</ele><time>2026-04-12T08:03:47.999Z</time></trkpt><trkpt lat="43.586952053803934" lon="6.673895614092118"><ele>286.33333333333337</ele><time>2026-04-12T08:03:48.999Z</time></trkpt><trkpt lat="43.58697201328235" lon="6.673979944835459"><ele>286.0</ele><time>2026-04-12T08:03:49.999Z</time></trkpt><trkpt lat="43.58698986415591" lon="6.674066450273738"><ele>285.6666666666667</ele><time>2026-04-12T08:03:50.999Z</time></trkpt><trkpt lat="43.58702644891801" lon="6.674233505871925"><ele>285.3333333333333</ele><time>2026-04-12T08:03:52.999Z</time></trkpt><trkpt lat="43.58706592625492" lon="6.674397414297169"><ele>285.0</ele><time>2026-04-12T08:03:54.999Z</time></trkpt><trkpt lat="43.5870873570332" lon="6.674479584289743"><ele>285.8333333333333</ele><time>2026-04-12T08:03:55.999Z</time></trkpt><trkpt lat="43.58712495921119" lon="6.674644637111318"><ele>286.6666666666667</ele><time>2026-04-12T08:03:57.999Z</time></trkpt><trkpt lat="43.587159002530754" lon="6.674809245677574"><ele>287.5</ele><time>2026-04-12T08:03:59.999Z</time></trkpt><trkpt lat="43.58717767121819" lon="6.674894671811391"><ele>288.33333333333337</ele><time>2026-04-12T08:04:00.999Z</time></trkpt><trkpt lat="43.58719581685695" lon="6.674979487177263"><ele>289.1666666666667</ele><time>2026-04-12T08:04:01.999Z</time></trkpt><trkpt lat="43.587215522599436" lon="6.675062699147009"><ele>290.0</ele><time>2026-04-12T08:04:02.999Z</time></trkpt><trkpt lat="43.587237352816764" lon="6.67514691291394"><ele>290.0</ele><time>2026-04-12T08:04:03.999Z</time></trkpt><trkpt lat="43.587258540078686" lon="6.675229507463293"><ele>290.0</ele><time>2026-04-12T08:04:04.999Z</time></trkpt><trkpt lat="43.58729728847925" lon="6.675395759012741"><ele>290.0</ele><time>2026-04-12T08:04:06.999Z</time></trkpt><trkpt lat="43.5873407726874" lon="6.675555956248167"><ele>290.0</ele><time>2026-04-12T08:04:08.999Z</time></trkpt><trkpt lat="43.58740099636161" lon="6.675703393056125"><ele>290.0</ele><time>2026-04-12T08:04:10.999Z</time></trkpt><trkpt lat="43.58748205312595" lon="6.675831854450661"><ele>290.0</ele><time>2026-04-12T08:04:12.999Z</time></trkpt><trkpt lat="43.587585312044396" lon="6.675927519610488"><ele>290.0</ele><time>2026-04-12T08:04:14.999Z</time></trkpt><trkpt lat="43.58769830456558" lon="6.676004777336908"><ele>290.0</ele><time>2026-04-12T08:04:16.999Z</time></trkpt><trkpt lat="43.58781933074198" lon="6.6760361279608995"><ele>290.0</ele><time>2026-04-12T08:04:18.999Z</time></trkpt><trkpt lat="43.587883153941185" lon="6.676052654223029"><ele>290.0</ele><time>2026-04-12T08:04:19.999Z</time></trkpt><trkpt lat="43.58794629355374" lon="6.67607318785197"><ele>289.8571428571429</ele><time>2026-04-12T08:04:20.999Z</time></trkpt><trkpt lat="43.58801020281951" lon="6.676090200050726"><ele>289.7142857142857</ele><time>2026-04-12T08:04:21.999Z</time></trkpt><trkpt lat="43.58807594579178" lon="6.676106892320557"><ele>289.57142857142856</ele><time>2026-04-12T08:04:22.999Z</time></trkpt><trkpt lat="43.58814345974965" lon="6.67612203495916"><ele>289.42857142857144</ele><time>2026-04-12T08:04:23.999Z</time></trkpt><trkpt lat="43.58821136018561" lon="6.67613945740288"><ele>289.2857142857143</ele><time>2026-04-12T08:04:24.999Z</time></trkpt><trkpt lat="43.588277441738406" lon="6.676159307383817"><ele>289.14285714285717</ele><time>2026-04-12T08:04:25.999Z</time></trkpt><trkpt lat="43.5883452867936" lon="6.676176698058419"><ele>289.0</ele><time>2026-04-12T08:04:26.999Z</time></trkpt><trkpt lat="43.58841330859444" lon="6.676192891619697"><ele>289.0</ele><time>2026-04-12T08:04:27.999Z</time></trkpt><trkpt lat="43.58848137035847" lon="6.676213396673468"><ele>289.0</ele><time>2026-04-12T08:04:28.999Z</time></trkpt><trkpt lat="43.58854952131037" lon="6.676232639813581"><ele>289.0</ele><time>2026-04-12T08:04:29.999Z</time></trkpt><trkpt lat="43.58862146124163" lon="6.676246700899598"><ele>289.0</ele><time>2026-04-12T08:04:30.999Z</time></trkpt><trkpt lat="43.588689463877515" lon="6.676260866996178"><ele>289.0</ele><time>2026-04-12T08:04:31.999Z</time></trkpt><trkpt lat="43.58875740251491" lon="6.67628363678104"><ele>289.0</ele><time>2026-04-12T08:04:32.999Z</time></trkpt><trkpt lat="43.58882651151969" lon="6.676302739982341"><ele>289.0</ele><time>2026-04-12T08:04:34Z</time></trkpt><trkpt lat="43.588896111051426" lon="6.676316082581577"><ele>289.42857142857144</ele><time>2026-04-12T08:04:35Z</time></trkpt><trkpt lat="43.58896504037122" lon="6.676330943930864"><ele>289.85714285714283</ele><time>2026-04-12T08:04:36Z</time></trkpt><trkpt lat="43.589035303401516" lon="6.67634554183439"><ele>290.2857142857143</ele><time>2026-04-12T08:04:37Z</time></trkpt><trkpt lat="43.58910409366688" lon="6.676365124412091"><ele>290.7142857142857</ele><time>2026-04-12T08:04:38Z</time></trkpt><trkpt lat="43.58917558766815" lon="6.676386343590122"><ele>291.14285714285717</ele><time>2026-04-12T08:04:39Z</time></trkpt><trkpt lat="43.58924720519237" lon="6.676406066305977"><ele>291.57142857142856</ele><time>2026-04-12T08:04:40Z</time></trkpt><trkpt lat="43.589319197004436" lon="6.676422785402322"><ele>292.0</ele><time>2026-04-12T08:04:41Z</time></trkpt><trkpt lat="43.58939197222076" lon="6.676442974637121"><ele>292.0</ele><time>2026-04-12T08:04:42Z</time></trkpt><trkpt lat="43.58946412246864" lon="6.676462707059152"><ele>292.0</ele><time>2026-04-12T08:04:43Z</time></trkpt><trkpt lat="43.58953677276832" lon="6.676487514367432"><ele>292.0</ele><time>2026-04-12T08:04:44Z</time></trkpt><trkpt lat="43.58961127496835" lon="6.676504976073894"><ele>292.0</ele><time>2026-04-12T08:04:45Z</time></trkpt><trkpt lat="43.58968121496355" lon="6.676520575684473"><ele>292.0</ele><time>2026-04-12T08:04:46Z</time></trkpt><trkpt lat="43.58975474805124" lon="6.676532792603869"><ele>292.0</ele><time>2026-04-12T08:04:47Z</time></trkpt><trkpt lat="43.589827076165925" lon="6.6765599797940505"><ele>292.0</ele><time>2026-04-12T08:04:48Z</time></trkpt><trkpt lat="43.58989854374248" lon="6.676601103725685"><ele>292.3333333333333</ele><time>2026-04-12T08:04:49Z</time></trkpt><trkpt lat="43.58996496328079" lon="6.676651315487183"><ele>292.66666666666663</ele><time>2026-04-12T08:04:50Z</time></trkpt><trkpt lat="43.59002940712646" lon="6.67671413253647"><ele>293.0</ele><time>2026-04-12T08:04:51Z</time></trkpt><trkpt lat="43.59008997790646" lon="6.676792845802647"><ele>293.3333333333333</ele><time>2026-04-12T08:04:52Z</time></trkpt><trkpt lat="43.59013923879146" lon="6.676879107262655"><ele>293.6666666666667</ele><time>2026-04-12T08:04:53Z</time></trkpt><trkpt lat="43.59017709630755" lon="6.676975724627462"><ele>294.0</ele><time>2026-04-12T08:04:54Z</time></trkpt><trkpt lat="43.59020802763545" lon="6.677078155838396"><ele>294.0</ele><time>2026-04-12T08:04:55Z</time></trkpt><trkpt lat="43.59023122906043" lon="6.677180644341378"><ele>294.0</ele><time>2026-04-12T08:04:56Z</time></trkpt><trkpt lat="43.59024452987226" lon="6.677289963250593"><ele>294.0</ele><time>2026-04-12T08:04:57Z</time></trkpt><trkpt lat="43.59024837026088" lon="6.677400410582724"><ele>294.0</ele><time>2026-04-12T08:04:58Z</time></trkpt><trkpt lat="43.590243928417685" lon="6.67750926048376"><ele>294.0</ele><time>2026-04-12T08:04:59Z</time></trkpt><trkpt lat="43.590236212902944" lon="6.677621032110457"><ele>294.0</ele><time>2026-04-12T08:05:00Z</time></trkpt><trkpt lat="43.59021971054526" lon="6.677726120388361"><ele>294.8333333333333</ele><time>2026-04-12T08:05:01Z</time></trkpt><trkpt lat="43.590197064952946" lon="6.677830826210394"><ele>295.6666666666667</ele><time>2026-04-12T08:05:02Z</time></trkpt><trkpt lat="43.59016220725044" lon="6.677924729037953"><ele>296.5</ele><time>2026-04-12T08:05:03Z</time></trkpt><trkpt lat="43.590127420010916" lon="6.678015287629102"><ele>297.33333333333337</ele><time>2026-04-12T08:05:04Z</time></trkpt><trkpt lat="43.59008524816787" lon="6.678100134391292"><ele>298.1666666666667</ele><time>2026-04-12T08:05:05Z</time></trkpt><trkpt lat="43.59003859055207" lon="6.678180078597976"><ele>299.0</ele><time>2026-04-12T08:05:06Z</time></trkpt><trkpt lat="43.58998964319403" lon="6.678257304722064"><ele>299.0</ele><time>2026-04-12T08:05:07Z</time></trkpt><trkpt lat="43.589943901370326" lon="6.678337282751978"><ele>299.0</ele><time>2026-04-12T08:05:08Z</time></trkpt><trkpt lat="43.58989878943528" lon="6.678411326275828"><ele>299.0</ele><time>2026-04-12T08:05:09Z</time></trkpt><trkpt lat="43.58985838432759" lon="6.678494754063099"><ele>299.0</ele><time>2026-04-12T08:05:10Z</time></trkpt><trkpt lat="43.589810345239854" lon="6.678569260320963"><ele>299.0</ele><time>2026-04-12T08:05:11Z</time></trkpt><trkpt lat="43.58976577000528" lon="6.678643459306789"><ele>299.0</ele><time>2026-04-12T08:05:12Z</time></trkpt><trkpt lat="43.589721996195834" lon="6.678716494477042"><ele>299.0</ele><time>2026-04-12T08:05:13Z</time></trkpt><trkpt lat="43.589679226295594" lon="6.678791081787271"><ele>299.1428571428571</ele><time>2026-04-12T08:05:14Z</time></trkpt><trkpt lat="43.58963445627652" lon="6.678862038814007"><ele>299.2857142857143</ele><time>2026-04-12T08:05:15Z</time></trkpt><trkpt lat="43.58959336650335" lon="6.67893626355515"><ele>299.42857142857144</ele><time>2026-04-12T08:05:16Z</time></trkpt><trkpt lat="43.589550356050296" lon="6.679009069466997"><ele>299.57142857142856</ele><time>2026-04-12T08:05:17Z</time></trkpt><trkpt lat="43.58950935600389" lon="6.67908624601827"><ele>299.7142857142857</ele><time>2026-04-12T08:05:18Z</time></trkpt><trkpt lat="43.58946341370713" lon="6.679158871924707"><ele>299.85714285714283</ele><time>2026-04-12T08:05:19Z</time></trkpt><trkpt lat="43.58941825743008" lon="6.679232212227013"><ele>300.0</ele><time>2026-04-12T08:05:20Z</time></trkpt><trkpt lat="43.589372255496954" lon="6.67930357846602"><ele>300.0</ele><time>2026-04-12T08:05:21Z</time></trkpt><trkpt lat="43.58932717499132" lon="6.679376351752128"><ele>300.0</ele><time>2026-04-12T08:05:22Z</time></trkpt><trkpt lat="43.5892843702661" lon="6.6794488355875155"><ele>300.0</ele><time>2026-04-12T08:05:23Z</time></trkpt><trkpt lat="43.589241143016594" lon="6.679519190018979"><ele>300.0</ele><time>2026-04-12T08:05:24Z</time></trkpt><trkpt lat="43.58919933390077" lon="6.679590142304509"><ele>300.0</ele><time>2026-04-12T08:05:25Z</time></trkpt><trkpt lat="43.58915680331761" lon="6.679659213482665"><ele>300.0</ele><time>2026-04-12T08:05:26Z</time></trkpt><trkpt lat="43.58908517179709" lon="6.6798002588668"><ele>300.6666666666667</ele><time>2026-04-12T08:05:28Z</time></trkpt><trkpt lat="43.5890518208538" lon="6.679876426788433"><ele>301.3333333333333</ele><time>2026-04-12T08:05:29Z</time></trkpt><trkpt lat="43.58902377379226" lon="6.679954693020967"><ele>302.0</ele><time>2026-04-12T08:05:30Z</time></trkpt><trkpt lat="43.589002858187314" lon="6.680038372428923"><ele>302.66666666666663</ele><time>2026-04-12T08:05:31Z</time></trkpt><trkpt lat="43.588981209881574" lon="6.680210569808659"><ele>303.3333333333333</ele><time>2026-04-12T08:05:33Z</time></trkpt><trkpt lat="43.588970007556746" lon="6.680296267455559"><ele>304.0</ele><time>2026-04-12T08:05:34Z</time></trkpt><trkpt lat="43.58897605107762" lon="6.680469886078946"><ele>304.0</ele><time>2026-04-12T08:05:36Z</time></trkpt><trkpt lat="43.58898423141911" lon="6.680556383354131"><ele>304.0</ele><time>2026-04-12T08:05:37Z</time></trkpt><trkpt lat="43.58899948835182" lon="6.68064076942266"><ele>304.0</ele><time>2026-04-12T08:05:38Z</time></trkpt><trkpt lat="43.58901994392509" lon="6.680723956944136"><ele>304.0</ele><time>2026-04-12T08:05:39Z</time></trkpt><trkpt lat="43.589082152596326" lon="6.680876751619275"><ele>304.0</ele><time>2026-04-12T08:05:41Z</time></trkpt><trkpt lat="43.58912180739517" lon="6.680947769533713"><ele>304.0</ele><time>2026-04-12T08:05:42Z</time></trkpt><trkpt lat="43.58916793569687" lon="6.681013952097151"><ele>304.0</ele><time>2026-04-12T08:05:42.999Z</time></trkpt><trkpt lat="43.58922389717905" lon="6.681074240917107"><ele>304.0</ele><time>2026-04-12T08:05:43.999Z</time></trkpt><trkpt lat="43.58928360117028" lon="6.681133751402434"><ele>304.0</ele><time>2026-04-12T08:05:44.999Z</time></trkpt><trkpt lat="43.58935257163876" lon="6.6811814456231025"><ele>304.0</ele><time>2026-04-12T08:05:45.999Z</time></trkpt><trkpt lat="43.58942515544622" lon="6.681220308777043"><ele>304.0</ele><time>2026-04-12T08:05:46.999Z</time></trkpt><trkpt lat="43.58950488707295" lon="6.681255848734852"><ele>304.0</ele><time>2026-04-12T08:05:47.999Z</time></trkpt><trkpt lat="43.58958410969383" lon="6.681289355614625"><ele>304.0</ele><time>2026-04-12T08:05:48.999Z</time></trkpt><trkpt lat="43.589662504442856" lon="6.681319500347786"><ele>304.0</ele><time>2026-04-12T08:05:49.999Z</time></trkpt><trkpt lat="43.58974002628983" lon="6.681358831003626"><ele>304.0</ele><time>2026-04-12T08:05:50.999Z</time></trkpt><trkpt lat="43.589824184038484" lon="6.68139930139139"><ele>304.0</ele><time>2026-04-12T08:05:51.999Z</time></trkpt><trkpt lat="43.58990694041856" lon="6.681442725823349"><ele>304.0</ele><time>2026-04-12T08:05:52.999Z</time></trkpt><trkpt lat="43.5899955655385" lon="6.681475102812338"><ele>304.0</ele><time>2026-04-12T08:05:53.999Z</time></trkpt><trkpt lat="43.59008505527105" lon="6.6815081974438"><ele>304.0</ele><time>2026-04-12T08:05:54.999Z</time></trkpt><trkpt lat="43.590176415526386" lon="6.681542678675752"><ele>304.0</ele><time>2026-04-12T08:05:55.999Z</time></trkpt><trkpt lat="43.59026772523296" lon="6.68157660410002"><ele>304.0</ele><time>2026-04-12T08:05:56.999Z</time></trkpt><trkpt lat="43.590357398198066" lon="6.681607647552369"><ele>304.0</ele><time>2026-04-12T08:05:57.999Z</time></trkpt><trkpt lat="43.59045464622226" lon="6.681663950518603"><ele>304.0</ele><time>2026-04-12T08:05:58.999Z</time></trkpt><trkpt lat="43.590555049010874" lon="6.681709991297752"><ele>304.0</ele><time>2026-04-12T08:05:59.999Z</time></trkpt><trkpt lat="43.59065613287498" lon="6.681752569814839"><ele>303.75</ele><time>2026-04-12T08:06:00.999Z</time></trkpt><trkpt lat="43.590764044958874" lon="6.681791697379163"><ele>303.5</ele><time>2026-04-12T08:06:01.999Z</time></trkpt><trkpt lat="43.590870869419724" lon="6.681835906233215"><ele>303.25</ele><time>2026-04-12T08:06:02.999Z</time></trkpt><trkpt lat="43.59097865838717" lon="6.681881945363965"><ele>303.0</ele><time>2026-04-12T08:06:03.999Z</time></trkpt><trkpt lat="43.59108801434799" lon="6.681931096663869"><ele>300.25</ele><time>2026-04-12T08:06:04.999Z</time></trkpt><trkpt lat="43.59119766667201" lon="6.681978674735893"><ele>297.5</ele><time>2026-04-12T08:06:05.999Z</time></trkpt><trkpt lat="43.591308595269254" lon="6.6820208769244305"><ele>294.75</ele><time>2026-04-12T08:06:06.999Z</time></trkpt><trkpt lat="43.59142269421935" lon="6.682072844647564"><ele>292.0</ele><time>2026-04-12T08:06:07.999Z</time></trkpt><trkpt lat="43.591535759402056" lon="6.682122838421255"><ele>292.0</ele><time>2026-04-12T08:06:08.999Z</time></trkpt><trkpt lat="43.59165156140767" lon="6.682174082238296"><ele>292.0</ele><time>2026-04-12T08:06:09.999Z</time></trkpt><trkpt lat="43.59176765396791" lon="6.68222604883993"><ele>292.0</ele><time>2026-04-12T08:06:10.999Z</time></trkpt><trkpt lat="43.59188338708384" lon="6.682272758285519"><ele>292.0</ele><time>2026-04-12T08:06:11.999Z</time></trkpt><trkpt lat="43.59199744815343" lon="6.682321814807697"><ele>292.25</ele><time>2026-04-12T08:06:12.999Z</time></trkpt><trkpt lat="43.592110722386145" lon="6.682373590528781"><ele>292.5</ele><time>2026-04-12T08:06:13.999Z</time></trkpt><trkpt lat="43.59222748597432" lon="6.682426198659583"><ele>292.75</ele><time>2026-04-12T08:06:14.999Z</time></trkpt><trkpt lat="43.59234945839967" lon="6.682475780722707"><ele>293.0</ele><time>2026-04-12T08:06:15.999Z</time></trkpt><trkpt lat="43.592469747947334" lon="6.682518738835576"><ele>293.0</ele><time>2026-04-12T08:06:16.999Z</time></trkpt><trkpt lat="43.59259580479463" lon="6.682565758153828"><ele>293.0</ele><time>2026-04-12T08:06:17.999Z</time></trkpt><trkpt lat="43.59272360852963" lon="6.68262541423982"><ele>293.0</ele><time>2026-04-12T08:06:18.999Z</time></trkpt><trkpt lat="43.59285173025963" lon="6.6826790999645205"><ele>293.0</ele><time>2026-04-12T08:06:19.999Z</time></trkpt><trkpt lat="43.59298136125079" lon="6.682723210676072"><ele>292.75</ele><time>2026-04-12T08:06:20.999Z</time></trkpt><trkpt lat="43.59311420411243" lon="6.682756558747748"><ele>292.5</ele><time>2026-04-12T08:06:21.999Z</time></trkpt><trkpt lat="43.593244538732975" lon="6.682776448834899"><ele>292.25</ele><time>2026-04-12T08:06:22.999Z</time></trkpt><trkpt lat="43.59337417096879" lon="6.682792710754489"><ele>292.0</ele><time>2026-04-12T08:06:23.999Z</time></trkpt><trkpt lat="43.593501715131225" lon="6.68281456081963"><ele>292.0</ele><time>2026-04-12T08:06:24.999Z</time></trkpt><trkpt lat="43.59363529816906" lon="6.68283426488287"><ele>292.0</ele><time>2026-04-12T08:06:25.999Z</time></trkpt><trkpt lat="43.593769652708986" lon="6.682860511815562"><ele>292.0</ele><time>2026-04-12T08:06:26.999Z</time></trkpt><trkpt lat="43.59390329112678" lon="6.68287992889502"><ele>292.0</ele><time>2026-04-12T08:06:27.999Z</time></trkpt><trkpt lat="43.59403314685351" lon="6.682915954923545"><ele>291.25</ele><time>2026-04-12T08:06:28.999Z</time></trkpt><trkpt lat="43.59416691834955" lon="6.682925081702143"><ele>290.5</ele><time>2026-04-12T08:06:29.999Z</time></trkpt><trkpt lat="43.59429927778598" lon="6.6829502150583"><ele>289.75</ele><time>2026-04-12T08:06:30.999Z</time></trkpt><trkpt lat="43.594421506657696" lon="6.682993040351111"><ele>289.0</ele><time>2026-04-12T08:06:31.999Z</time></trkpt><trkpt lat="43.59453153883157" lon="6.683078364698029"><ele>286.5</ele><time>2026-04-12T08:06:32.999Z</time></trkpt><trkpt lat="43.59461864360321" lon="6.68321641478184"><ele>284.0</ele><time>2026-04-12T08:06:33.999Z</time></trkpt><trkpt lat="43.59467379863701" lon="6.683399563692457"><ele>281.5</ele><time>2026-04-12T08:06:34.999Z</time></trkpt><trkpt lat="43.594699197886236" lon="6.683586855517253"><ele>279.0</ele><time>2026-04-12T08:06:35.999Z</time></trkpt><trkpt lat="43.59470291460394" lon="6.68379103110365"><ele>278.25</ele><time>2026-04-12T08:06:36.999Z</time></trkpt><trkpt lat="43.594692111242004" lon="6.6839881250402104"><ele>277.5</ele><time>2026-04-12T08:06:37.999Z</time></trkpt><trkpt lat="43.594662986746336" lon="6.6841862225266215"><ele>276.75</ele><time>2026-04-12T08:06:38.999Z</time></trkpt><trkpt lat="43.59460692348626" lon="6.684376060136658"><ele>276.0</ele><time>2026-04-12T08:06:40Z</time></trkpt><trkpt lat="43.5945433170558" lon="6.684561115275265"><ele>276.5</ele><time>2026-04-12T08:06:41Z</time></trkpt><trkpt lat="43.59448247069875" lon="6.684744795938455"><ele>277.0</ele><time>2026-04-12T08:06:42Z</time></trkpt><trkpt lat="43.594427407420675" lon="6.6849281940726035"><ele>277.5</ele><time>2026-04-12T08:06:43Z</time></trkpt><trkpt lat="43.59436793125251" lon="6.685114060557893"><ele>278.0</ele><time>2026-04-12T08:06:44Z</time></trkpt><trkpt lat="43.59430755487287" lon="6.685298520370515"><ele>276.25</ele><time>2026-04-12T08:06:45Z</time></trkpt><trkpt lat="43.594252823669876" lon="6.685485088503823"><ele>274.5</ele><time>2026-04-12T08:06:46Z</time></trkpt><trkpt lat="43.594192988250505" lon="6.685668376423763"><ele>272.75</ele><time>2026-04-12T08:06:47Z</time></trkpt><trkpt lat="43.594136496985804" lon="6.685858180781816"><ele>271.0</ele><time>2026-04-12T08:06:48Z</time></trkpt><trkpt lat="43.59407869700617" lon="6.6860516637378735"><ele>270.66666666666663</ele><time>2026-04-12T08:06:49Z</time></trkpt><trkpt lat="43.5940188170827" lon="6.68624263699255"><ele>270.3333333333333</ele><time>2026-04-12T08:06:50Z</time></trkpt><trkpt lat="43.59395904606035" lon="6.68643097356122"><ele>270.0</ele><time>2026-04-12T08:06:51Z</time></trkpt><trkpt lat="43.593901480528196" lon="6.6866252405406605"><ele>270.0</ele><time>2026-04-12T08:06:52Z</time></trkpt><trkpt lat="43.593841535795235" lon="6.6868063353033484"><ele>270.0</ele><time>2026-04-12T08:06:53Z</time></trkpt><trkpt lat="43.59377825497045" lon="6.686985445902163"><ele>270.0</ele><time>2026-04-12T08:06:54Z</time></trkpt><trkpt lat="43.59372343651477" lon="6.687162896615265"><ele>270.0</ele><time>2026-04-12T08:06:55Z</time></trkpt><trkpt lat="43.593670302709" lon="6.687340750757037"><ele>267.75</ele><time>2026-04-12T08:06:56Z</time></trkpt><trkpt lat="43.59362509143544" lon="6.6875246074627555"><ele>265.5</ele><time>2026-04-12T08:06:57Z</time></trkpt><trkpt lat="43.59359349134676" lon="6.687713312399482"><ele>263.25</ele><time>2026-04-12T08:06:58Z</time></trkpt><trkpt lat="43.59359904702952" lon="6.687907884936307"><ele>261.0</ele><time>2026-04-12T08:06:59Z</time></trkpt><trkpt lat="43.59361843271584" lon="6.688097195740622"><ele>260.75</ele><time>2026-04-12T08:07:00Z</time></trkpt><trkpt lat="43.593665686194775" lon="6.688278317447415"><ele>260.5</ele><time>2026-04-12T08:07:01Z</time></trkpt><trkpt lat="43.59374481999331" lon="6.688446780442241"><ele>260.25</ele><time>2026-04-12T08:07:02Z</time></trkpt><trkpt lat="43.593838835416825" lon="6.6885947359243545"><ele>260.0</ele><time>2026-04-12T08:07:03Z</time></trkpt><trkpt lat="43.59394886328136" lon="6.688722642327543"><ele>259.5</ele><time>2026-04-12T08:07:04Z</time></trkpt><trkpt lat="43.59406445897399" lon="6.688835503306485"><ele>259.0</ele><time>2026-04-12T08:07:05Z</time></trkpt><trkpt lat="43.59418525502124" lon="6.688939108771066"><ele>258.5</ele><time>2026-04-12T08:07:06Z</time></trkpt><trkpt lat="43.59429773694196" lon="6.689057574943324"><ele>258.0</ele><time>2026-04-12T08:07:07Z</time></trkpt><trkpt lat="43.59441235528919" lon="6.689165296678811"><ele>257.5</ele><time>2026-04-12T08:07:08Z</time></trkpt><trkpt lat="43.59453480798973" lon="6.689265206760108"><ele>257.0</ele><time>2026-04-12T08:07:09Z</time></trkpt><trkpt lat="43.59466854756839" lon="6.6893383470812635"><ele>256.5</ele><time>2026-04-12T08:07:10Z</time></trkpt><trkpt lat="43.594810461930244" lon="6.6893693426926895"><ele>256.0</ele><time>2026-04-12T08:07:11Z</time></trkpt><trkpt lat="43.59495185324428" lon="6.689377698759593"><ele>256.0</ele><time>2026-04-12T08:07:12Z</time></trkpt><trkpt lat="43.59509293775024" lon="6.689360096360797"><ele>256.0</ele><time>2026-04-12T08:07:13Z</time></trkpt><trkpt lat="43.59522981508732" lon="6.689344227503679"><ele>256.0</ele><time>2026-04-12T08:07:14Z</time></trkpt><trkpt lat="43.59536710992679" lon="6.689326160042148"><ele>256.0</ele><time>2026-04-12T08:07:15Z</time></trkpt><trkpt lat="43.59550846235243" lon="6.6893234971935485"><ele>255.0</ele><time>2026-04-12T08:07:16Z</time></trkpt><trkpt lat="43.59564386091582" lon="6.6893127940680595"><ele>254.0</ele><time>2026-04-12T08:07:17Z</time></trkpt><trkpt lat="43.595780575447456" lon="6.689303869734725"><ele>253.0</ele><time>2026-04-12T08:07:18Z</time></trkpt><trkpt lat="43.595919618281044" lon="6.689311075055389"><ele>252.0</ele><time>2026-04-12T08:07:19Z</time></trkpt><trkpt lat="43.59606149720447" lon="6.689337850825206"><ele>251.0</ele><time>2026-04-12T08:07:20Z</time></trkpt><trkpt lat="43.59620125973523" lon="6.6893712439992195"><ele>250.0</ele><time>2026-04-12T08:07:21Z</time></trkpt><trkpt lat="43.596340301001625" lon="6.689442486059661"><ele>249.0</ele><time>2026-04-12T08:07:22Z</time></trkpt><trkpt lat="43.59647244734768" lon="6.689532334078683"><ele>248.0</ele><time>2026-04-12T08:07:23Z</time></trkpt><trkpt lat="43.59659337051531" lon="6.6896366586900236"><ele>247.5</ele><time>2026-04-12T08:07:24Z</time></trkpt><trkpt lat="43.59669923269619" lon="6.689756387705866"><ele>247.0</ele><time>2026-04-12T08:07:25Z</time></trkpt><trkpt lat="43.59678935847303" lon="6.68987258261846"><ele>246.5</ele><time>2026-04-12T08:07:26Z</time></trkpt><trkpt lat="43.59686690577988" lon="6.689997646661629"><ele>246.0</ele><time>2026-04-12T08:07:27Z</time></trkpt><trkpt lat="43.59692862101973" lon="6.69012962993718"><ele>245.8</ele><time>2026-04-12T08:07:28Z</time></trkpt><trkpt lat="43.596963221466645" lon="6.690275880954428"><ele>245.60000000000002</ele><time>2026-04-12T08:07:29Z</time></trkpt><trkpt lat="43.59697163521395" lon="6.690422657436519"><ele>245.4</ele><time>2026-04-12T08:07:30Z</time></trkpt><trkpt lat="43.596945097872094" lon="6.690566213746248"><ele>245.2</ele><time>2026-04-12T08:07:31Z</time></trkpt><trkpt lat="43.59698553092537" lon="6.690692188775555"><ele>245.0</ele><time>2026-04-12T08:07:32Z</time></trkpt><trkpt lat="43.597061973223084" lon="6.690783736393298"><ele>245.0</ele><time>2026-04-12T08:07:33Z</time></trkpt><trkpt lat="43.59712962221943" lon="6.69088116662451"><ele>245.0</ele><time>2026-04-12T08:07:34Z</time></trkpt><trkpt lat="43.59717231376922" lon="6.691013345271205"><ele>245.0</ele><time>2026-04-12T08:07:35Z</time></trkpt><trkpt lat="43.59717997297159" lon="6.691162203889523"><ele>245.0</ele><time>2026-04-12T08:07:36Z</time></trkpt><trkpt lat="43.59718507714589" lon="6.691310167514562"><ele>245.0</ele><time>2026-04-12T08:07:37Z</time></trkpt><trkpt lat="43.59718218126264" lon="6.691465151677073"><ele>245.0</ele><time>2026-04-12T08:07:38Z</time></trkpt><trkpt lat="43.59716752470883" lon="6.691621583143332"><ele>245.0</ele><time>2026-04-12T08:07:39Z</time></trkpt><trkpt lat="43.5971415493959" lon="6.6917783231478944"><ele>245.0</ele><time>2026-04-12T08:07:40Z</time></trkpt><trkpt lat="43.59710967269607" lon="6.69193636209843"><ele>245.0</ele><time>2026-04-12T08:07:41Z</time></trkpt><trkpt lat="43.597075922260494" lon="6.692096284025936"><ele>245.0</ele><time>2026-04-12T08:07:42Z</time></trkpt><trkpt lat="43.597040833947595" lon="6.692258095198266"><ele>245.0</ele><time>2026-04-12T08:07:43Z</time></trkpt><trkpt lat="43.59699877027765" lon="6.692415798456553"><ele>245.0</ele><time>2026-04-12T08:07:44Z</time></trkpt><trkpt lat="43.59694324470195" lon="6.692565804097277"><ele>245.0</ele><time>2026-04-12T08:07:45Z</time></trkpt><trkpt lat="43.59688353884842" lon="6.6927149737602045"><ele>244.75</ele><time>2026-04-12T08:07:45.999Z</time></trkpt><trkpt lat="43.59682200363825" lon="6.692854388770685"><ele>244.5</ele><time>2026-04-12T08:07:46.999Z</time></trkpt><trkpt lat="43.596759360291074" lon="6.692990009053406"><ele>244.25</ele><time>2026-04-12T08:07:47.999Z</time></trkpt><trkpt lat="43.596698737651984" lon="6.693127105076824"><ele>244.0</ele><time>2026-04-12T08:07:48.999Z</time></trkpt><trkpt lat="43.596634776695055" lon="6.693258319450142"><ele>244.0</ele><time>2026-04-12T08:07:49.999Z</time></trkpt><trkpt lat="43.59657220013652" lon="6.693385318775059"><ele>243.99999999999997</ele><time>2026-04-12T08:07:50.999Z</time></trkpt><trkpt lat="43.59651167992529" lon="6.693516423573841"><ele>243.99999999999997</ele><time>2026-04-12T08:07:51.999Z</time></trkpt><trkpt lat="43.59645377792653" lon="6.693642518325517"><ele>244.0</ele><time>2026-04-12T08:07:52.999Z</time></trkpt><trkpt lat="43.59639242431756" lon="6.693772351167783"><ele>244.0</ele><time>2026-04-12T08:07:53.999Z</time></trkpt><trkpt lat="43.596333948161714" lon="6.693902362019092"><ele>244.39999999999998</ele><time>2026-04-12T08:07:54.999Z</time></trkpt><trkpt lat="43.59628201087198" lon="6.694035286865671"><ele>244.79999999999998</ele><time>2026-04-12T08:07:55.999Z</time></trkpt><trkpt lat="43.59623331887537" lon="6.694168246260644"><ele>245.20000000000002</ele><time>2026-04-12T08:07:56.999Z</time></trkpt><trkpt lat="43.59618915068366" lon="6.694299090148487"><ele>245.60000000000002</ele><time>2026-04-12T08:07:57.999Z</time></trkpt><trkpt lat="43.596151231424" lon="6.694433063265924"><ele>246.0</ele><time>2026-04-12T08:07:58.999Z</time></trkpt><trkpt lat="43.59612276425401" lon="6.694570335020158"><ele>246.0</ele><time>2026-04-12T08:07:59.999Z</time></trkpt><trkpt lat="43.596097150129125" lon="6.694707576250093"><ele>246.00000000000003</ele><time>2026-04-12T08:08:00.999Z</time></trkpt><trkpt lat="43.59607429109334" lon="6.694845946813365"><ele>246.00000000000003</ele><time>2026-04-12T08:08:01.999Z</time></trkpt><trkpt lat="43.59605786923556" lon="6.6949870032618195"><ele>246.0</ele><time>2026-04-12T08:08:02.999Z</time></trkpt><trkpt lat="43.59604932474431" lon="6.695129298436698"><ele>246.0</ele><time>2026-04-12T08:08:03.999Z</time></trkpt><trkpt lat="43.596056609597774" lon="6.6952723771568605"><ele>245.8</ele><time>2026-04-12T08:08:04.999Z</time></trkpt><trkpt lat="43.59606900895964" lon="6.695414372617544"><ele>245.60000000000002</ele><time>2026-04-12T08:08:05.999Z</time></trkpt><trkpt lat="43.596084408512546" lon="6.695555080663477"><ele>245.4</ele><time>2026-04-12T08:08:06.999Z</time></trkpt><trkpt lat="43.59610786858256" lon="6.69569237437375"><ele>245.2</ele><time>2026-04-12T08:08:07.999Z</time></trkpt><trkpt lat="43.596137532779444" lon="6.6958276079387575"><ele>245.0</ele><time>2026-04-12T08:08:08.999Z</time></trkpt><trkpt lat="43.59617359762318" lon="6.695955936037801"><ele>245.4</ele><time>2026-04-12T08:08:09.999Z</time></trkpt><trkpt lat="43.59621161983331" lon="6.696083002462433"><ele>245.8</ele><time>2026-04-12T08:08:10.999Z</time></trkpt><trkpt lat="43.59625622018548" lon="6.696207787952475"><ele>246.2</ele><time>2026-04-12T08:08:11.999Z</time></trkpt><trkpt lat="43.59630253176634" lon="6.696331531023425"><ele>246.6</ele><time>2026-04-12T08:08:12.999Z</time></trkpt><trkpt lat="43.5963493810452" lon="6.696455726269777"><ele>247.0</ele><time>2026-04-12T08:08:13.999Z</time></trkpt><trkpt lat="43.59639615585615" lon="6.696579274964794"><ele>247.0</ele><time>2026-04-12T08:08:14.999Z</time></trkpt><trkpt lat="43.596442573855384" lon="6.696709409346241"><ele>247.0</ele><time>2026-04-12T08:08:15.999Z</time></trkpt><trkpt lat="43.59648664969554" lon="6.69683001934861"><ele>247.0</ele><time>2026-04-12T08:08:16.999Z</time></trkpt><trkpt lat="43.59652960950762" lon="6.696948451300217"><ele>247.0</ele><time>2026-04-12T08:08:17.999Z</time></trkpt><trkpt lat="43.59657307237624" lon="6.697065705106135"><ele>247.0</ele><time>2026-04-12T08:08:18.999Z</time></trkpt><trkpt lat="43.59661264365476" lon="6.69718097053706"><ele>246.6</ele><time>2026-04-12T08:08:19.999Z</time></trkpt><trkpt lat="43.596660031733165" lon="6.697293207903019"><ele>246.2</ele><time>2026-04-12T08:08:20.999Z</time></trkpt><trkpt lat="43.59670560645647" lon="6.697406011295434"><ele>245.8</ele><time>2026-04-12T08:08:21.999Z</time></trkpt><trkpt lat="43.59675908552436" lon="6.697514094137732"><ele>245.4</ele><time>2026-04-12T08:08:22.999Z</time></trkpt><trkpt lat="43.59681708619199" lon="6.697617782416112"><ele>245.0</ele><time>2026-04-12T08:08:23.999Z</time></trkpt><trkpt lat="43.59688243333662" lon="6.6977140896758165"><ele>245.0</ele><time>2026-04-12T08:08:24.999Z</time></trkpt><trkpt lat="43.59695035397877" lon="6.697806993368935"><ele>245.0</ele><time>2026-04-12T08:08:25.999Z</time></trkpt><trkpt lat="43.59702145621759" lon="6.697898355257425"><ele>245.0</ele><time>2026-04-12T08:08:26.999Z</time></trkpt><trkpt lat="43.5970966011046" lon="6.697991626599459"><ele>245.0</ele><time>2026-04-12T08:08:27.999Z</time></trkpt><trkpt lat="43.59717552740978" lon="6.69807814362968"><ele>245.0</ele><time>2026-04-12T08:08:28.999Z</time></trkpt><trkpt lat="43.59725778198644" lon="6.6981560598961405"><ele>245.0</ele><time>2026-04-12T08:08:29.999Z</time></trkpt><trkpt lat="43.59734088799626" lon="6.698226340897396"><ele>245.0</ele><time>2026-04-12T08:08:30.999Z</time></trkpt><trkpt lat="43.59742782403413" lon="6.698296124993432"><ele>245.0</ele><time>2026-04-12T08:08:31.999Z</time></trkpt><trkpt lat="43.59750872114078" lon="6.698362812587602"><ele>245.0</ele><time>2026-04-12T08:08:32.999Z</time></trkpt><trkpt lat="43.59759189935627" lon="6.698425735617045"><ele>245.0</ele><time>2026-04-12T08:08:33.999Z</time></trkpt><trkpt lat="43.597678752935444" lon="6.698476635241552"><ele>245.0</ele><time>2026-04-12T08:08:34.999Z</time></trkpt><trkpt lat="43.59777304355704" lon="6.698522140617503"><ele>245.0</ele><time>2026-04-12T08:08:35.999Z</time></trkpt><trkpt lat="43.59786480804182" lon="6.69855953170923"><ele>245.0</ele><time>2026-04-12T08:08:36.999Z</time></trkpt><trkpt lat="43.59795645208081" lon="6.698594059331325"><ele>245.0</ele><time>2026-04-12T08:08:37.999Z</time></trkpt><trkpt lat="43.59805085544743" lon="6.698625503273372"><ele>245.0</ele><time>2026-04-12T08:08:38.999Z</time></trkpt><trkpt lat="43.5981472357633" lon="6.6986564411511536"><ele>244.8</ele><time>2026-04-12T08:08:39.999Z</time></trkpt><trkpt lat="43.59824547073982" lon="6.698682846732591"><ele>244.6</ele><time>2026-04-12T08:08:40.999Z</time></trkpt><trkpt lat="43.59834421158788" lon="6.6987057676402"><ele>244.39999999999998</ele><time>2026-04-12T08:08:41.999Z</time></trkpt><trkpt lat="43.598444966401445" lon="6.698734919007913"><ele>244.2</ele><time>2026-04-12T08:08:42.999Z</time></trkpt><trkpt lat="43.59854784497005" lon="6.698760527886593"><ele>244.0</ele><time>2026-04-12T08:08:43.999Z</time></trkpt><trkpt lat="43.59865302714723" lon="6.698786453853417"><ele>242.75</ele><time>2026-04-12T08:08:44.999Z</time></trkpt><trkpt lat="43.59876164509539" lon="6.698807223591366"><ele>241.5</ele><time>2026-04-12T08:08:46Z</time></trkpt><trkpt lat="43.598874935754424" lon="6.698837565021002"><ele>240.25</ele><time>2026-04-12T08:08:47Z</time></trkpt><trkpt lat="43.59898877376475" lon="6.6988698003549985"><ele>239.0</ele><time>2026-04-12T08:08:48Z</time></trkpt><trkpt lat="43.59910352367137" lon="6.698891433206855"><ele>239.0</ele><time>2026-04-12T08:08:49Z</time></trkpt><trkpt lat="43.599222155169684" lon="6.698916352742068"><ele>239.0</ele><time>2026-04-12T08:08:50Z</time></trkpt><trkpt lat="43.59934307966316" lon="6.698952154878958"><ele>239.0</ele><time>2026-04-12T08:08:51Z</time></trkpt><trkpt lat="43.59946752686831" lon="6.698987033678706"><ele>239.0</ele><time>2026-04-12T08:08:52Z</time></trkpt><trkpt lat="43.59959156529388" lon="6.6990166568906675"><ele>238.25</ele><time>2026-04-12T08:08:53Z</time></trkpt><trkpt lat="43.599713307137044" lon="6.699042637658629"><ele>237.5</ele><time>2026-04-12T08:08:54Z</time></trkpt><trkpt lat="43.599835589683096" lon="6.6990710129330155"><ele>236.75</ele><time>2026-04-12T08:08:55Z</time></trkpt><trkpt lat="43.599961507026855" lon="6.699110011867975"><ele>236.0</ele><time>2026-04-12T08:08:56Z</time></trkpt><trkpt lat="43.60009101585039" lon="6.699139825370413"><ele>236.0</ele><time>2026-04-12T08:08:57Z</time></trkpt><trkpt lat="43.600215798696965" lon="6.699155568649995"><ele>236.0</ele><time>2026-04-12T08:08:58Z</time></trkpt><trkpt lat="43.60033764355755" lon="6.699204921704462"><ele>236.0</ele><time>2026-04-12T08:08:59Z</time></trkpt><trkpt lat="43.60047465838885" lon="6.69922166395921"><ele>236.0</ele><time>2026-04-12T08:09:00Z</time></trkpt><trkpt lat="43.60059622004527" lon="6.699269841749722"><ele>235.5</ele><time>2026-04-12T08:09:01Z</time></trkpt><trkpt lat="43.6007306607632" lon="6.699303290014461"><ele>235.0</ele><time>2026-04-12T08:09:02Z</time></trkpt><trkpt lat="43.600864414781604" lon="6.699336567459527"><ele>234.5</ele><time>2026-04-12T08:09:03Z</time></trkpt><trkpt lat="43.6009973864706" lon="6.699369650259744"><ele>234.0</ele><time>2026-04-12T08:09:04Z</time></trkpt><trkpt lat="43.6011304402143" lon="6.699402753471512"><ele>233.25</ele><time>2026-04-12T08:09:05Z</time></trkpt><trkpt lat="43.60126551356521" lon="6.699436359151931"><ele>232.5</ele><time>2026-04-12T08:09:06Z</time></trkpt><trkpt lat="43.60140126956918" lon="6.699465780136166"><ele>231.75</ele><time>2026-04-12T08:09:07Z</time></trkpt><trkpt lat="43.60153505247465" lon="6.699487834905681"><ele>231.0</ele><time>2026-04-12T08:09:08Z</time></trkpt><trkpt lat="43.601666515413754" lon="6.699516534817598"><ele>231.0</ele><time>2026-04-12T08:09:09Z</time></trkpt><trkpt lat="43.601795386825465" lon="6.699553901573469"><ele>231.0</ele><time>2026-04-12T08:09:10Z</time></trkpt><trkpt lat="43.60193253417858" lon="6.6995882983317605"><ele>231.0</ele><time>2026-04-12T08:09:11Z</time></trkpt><trkpt lat="43.60206357830762" lon="6.699620319002284"><ele>231.0</ele><time>2026-04-12T08:09:12Z</time></trkpt><trkpt lat="43.602195452446324" lon="6.699651618847506"><ele>229.0</ele><time>2026-04-12T08:09:13Z</time></trkpt><trkpt lat="43.6023308536692" lon="6.699693665465426"><ele>227.0</ele><time>2026-04-12T08:09:14Z</time></trkpt><trkpt lat="43.60246378963376" lon="6.699723955314352"><ele>225.0</ele><time>2026-04-12T08:09:15Z</time></trkpt><trkpt lat="43.602596078085504" lon="6.699760480008641"><ele>223.0</ele><time>2026-04-12T08:09:16Z</time></trkpt><trkpt lat="43.60273113589243" lon="6.699797002789214"><ele>222.25</ele><time>2026-04-12T08:09:17Z</time></trkpt><trkpt lat="43.602863926596314" lon="6.699831650775172"><ele>221.5</ele><time>2026-04-12T08:09:18Z</time></trkpt><trkpt lat="43.60299415035808" lon="6.699873324446864"><ele>220.75</ele><time>2026-04-12T08:09:19Z</time></trkpt><trkpt lat="43.60312185126169" lon="6.699907578664083"><ele>220.0</ele><time>2026-04-12T08:09:20Z</time></trkpt><trkpt lat="43.60324685925278" lon="6.699948605414374"><ele>220.0</ele><time>2026-04-12T08:09:21Z</time></trkpt><trkpt lat="43.60336894956178" lon="6.699989305604797"><ele>220.0</ele><time>2026-04-12T08:09:22Z</time></trkpt><trkpt lat="43.60348502825718" lon="6.700039157683195"><ele>220.0</ele><time>2026-04-12T08:09:23Z</time></trkpt><trkpt lat="43.60360175920072" lon="6.70008940826759"><ele>220.0</ele><time>2026-04-12T08:09:24Z</time></trkpt><trkpt lat="43.60371277086099" lon="6.700137505992567"><ele>220.0</ele><time>2026-04-12T08:09:25Z</time></trkpt><trkpt lat="43.60382123211968" lon="6.7001882655572995"><ele>220.0</ele><time>2026-04-12T08:09:26Z</time></trkpt><trkpt lat="43.60392948847834" lon="6.700241219548372"><ele>220.0</ele><time>2026-04-12T08:09:27Z</time></trkpt><trkpt lat="43.604041276984965" lon="6.700297470579817"><ele>220.0</ele><time>2026-04-12T08:09:28Z</time></trkpt><trkpt lat="43.60415559711785" lon="6.700349426116792"><ele>219.25</ele><time>2026-04-12T08:09:29Z</time></trkpt><trkpt lat="43.60426555854738" lon="6.700398792402895"><ele>218.5</ele><time>2026-04-12T08:09:30Z</time></trkpt><trkpt lat="43.604376799523635" lon="6.700453438767662"><ele>217.75</ele><time>2026-04-12T08:09:31Z</time></trkpt><trkpt lat="43.604488910008385" lon="6.700502548317511"><ele>217.0</ele><time>2026-04-12T08:09:32Z</time></trkpt><trkpt lat="43.604603848899245" lon="6.7005556970240265"><ele>217.0</ele><time>2026-04-12T08:09:33Z</time></trkpt><trkpt lat="43.60471690787347" lon="6.70061003066378"><ele>217.0</ele><time>2026-04-12T08:09:34Z</time></trkpt><trkpt lat="43.604829452908355" lon="6.700664362572102"><ele>217.0</ele><time>2026-04-12T08:09:35Z</time></trkpt><trkpt lat="43.60494148142332" lon="6.700717450461236"><ele>217.0</ele><time>2026-04-12T08:09:36Z</time></trkpt><trkpt lat="43.60505517555532" lon="6.7007704349729496"><ele>217.0</ele><time>2026-04-12T08:09:37Z</time></trkpt><trkpt lat="43.605171097291176" lon="6.700822246381228"><ele>217.0</ele><time>2026-04-12T08:09:38Z</time></trkpt><trkpt lat="43.60528541998174" lon="6.700873381626131"><ele>217.0</ele><time>2026-04-12T08:09:39Z</time></trkpt><trkpt lat="43.60540012502501" lon="6.700925664372859"><ele>217.0</ele><time>2026-04-12T08:09:40Z</time></trkpt><trkpt lat="43.605511386982556" lon="6.700972032930491"><ele>217.0</ele><time>2026-04-12T08:09:41Z</time></trkpt><trkpt lat="43.605619560615665" lon="6.701023517816714"><ele>217.0</ele><time>2026-04-12T08:09:42Z</time></trkpt><trkpt lat="43.60572227038606" lon="6.701080060466307"><ele>217.0</ele><time>2026-04-12T08:09:43Z</time></trkpt><trkpt lat="43.60582135324324" lon="6.701123247380314"><ele>217.0</ele><time>2026-04-12T08:09:44Z</time></trkpt><trkpt lat="43.60591861828372" lon="6.701170659745958"><ele>217.0</ele><time>2026-04-12T08:09:45Z</time></trkpt><trkpt lat="43.60601404447666" lon="6.701218218429087"><ele>217.0</ele><time>2026-04-12T08:09:46Z</time></trkpt><trkpt lat="43.60610827386555" lon="6.7012670973142265"><ele>217.0</ele><time>2026-04-12T08:09:47Z</time></trkpt><trkpt lat="43.60619854172293" lon="6.701326955118716"><ele>217.0</ele><time>2026-04-12T08:09:48Z</time></trkpt><trkpt lat="43.606286557818386" lon="6.701394233280028"><ele>217.0</ele><time>2026-04-12T08:09:49Z</time></trkpt><trkpt lat="43.60636987287362" lon="6.701470770335643"><ele>217.0</ele><time>2026-04-12T08:09:50Z</time></trkpt><trkpt lat="43.606449609815996" lon="6.701559938454306"><ele>217.0</ele><time>2026-04-12T08:09:51Z</time></trkpt><trkpt lat="43.606526941747504" lon="6.701656787096356"><ele>217.0</ele><time>2026-04-12T08:09:52Z</time></trkpt><trkpt lat="43.60659728336627" lon="6.701765818208712"><ele>217.0</ele><time>2026-04-12T08:09:53Z</time></trkpt><trkpt lat="43.60666413441715" lon="6.701877690276076"><ele>217.0</ele><time>2026-04-12T08:09:54Z</time></trkpt><trkpt lat="43.606723067737214" lon="6.701991422005855"><ele>217.0</ele><time>2026-04-12T08:09:54.999Z</time></trkpt><trkpt lat="43.60677299792327" lon="6.702114254530139"><ele>216.8</ele><time>2026-04-12T08:09:55.999Z</time></trkpt><trkpt lat="43.60680744123511" lon="6.7022465989154725"><ele>216.6</ele><time>2026-04-12T08:09:56.999Z</time></trkpt><trkpt lat="43.60683916480387" lon="6.702379888889071"><ele>216.40000000000003</ele><time>2026-04-12T08:09:57.999Z</time></trkpt><trkpt lat="43.60687014366466" lon="6.702511940647547"><ele>216.20000000000002</ele><time>2026-04-12T08:09:58.999Z</time></trkpt><trkpt lat="43.606897894941454" lon="6.702645352684468"><ele>216.0</ele><time>2026-04-12T08:09:59.999Z</time></trkpt><trkpt lat="43.60692116936512" lon="6.702776970935003"><ele>215.8</ele><time>2026-04-12T08:10:00.999Z</time></trkpt><trkpt lat="43.60694219037562" lon="6.702914135498168"><ele>215.60000000000002</ele><time>2026-04-12T08:10:01.999Z</time></trkpt><trkpt lat="43.60696000504068" lon="6.703046810326894"><ele>215.4</ele><time>2026-04-12T08:10:02.999Z</time></trkpt><trkpt lat="43.60697457652214" lon="6.703186889770773"><ele>215.2</ele><time>2026-04-12T08:10:03.999Z</time></trkpt><trkpt lat="43.60699231648595" lon="6.703328960957622"><ele>215.0</ele><time>2026-04-12T08:10:04.999Z</time></trkpt><trkpt lat="43.60701137607189" lon="6.703478324167057"><ele>214.6</ele><time>2026-04-12T08:10:05.999Z</time></trkpt><trkpt lat="43.607028336408305" lon="6.703618374339683"><ele>214.2</ele><time>2026-04-12T08:10:06.999Z</time></trkpt><trkpt lat="43.607047517286894" lon="6.703767978565904"><ele>213.8</ele><time>2026-04-12T08:10:07.999Z</time></trkpt><trkpt lat="43.6070700750901" lon="6.703916401036546"><ele>213.4</ele><time>2026-04-12T08:10:08.999Z</time></trkpt><trkpt lat="43.60709342131438" lon="6.704066288216159"><ele>213.0</ele><time>2026-04-12T08:10:09.999Z</time></trkpt><trkpt lat="43.60711732994464" lon="6.70421441371046"><ele>213.0</ele><time>2026-04-12T08:10:10.999Z</time></trkpt><trkpt lat="43.60714218542586" lon="6.704363808131202"><ele>213.0</ele><time>2026-04-12T08:10:11.999Z</time></trkpt><trkpt lat="43.607156215903075" lon="6.704507756003682"><ele>213.0</ele><time>2026-04-12T08:10:12.999Z</time></trkpt><trkpt lat="43.60717556258827" lon="6.704656374652424"><ele>213.0</ele><time>2026-04-12T08:10:13.999Z</time></trkpt><trkpt lat="43.60719302850851" lon="6.704801556078693"><ele>213.0</ele><time>2026-04-12T08:10:14.999Z</time></trkpt><trkpt lat="43.60720973824949" lon="6.704943345239406"><ele>212.8</ele><time>2026-04-12T08:10:15.999Z</time></trkpt><trkpt lat="43.607229861707985" lon="6.705081993927105"><ele>212.60000000000002</ele><time>2026-04-12T08:10:16.999Z</time></trkpt><trkpt lat="43.607248496375995" lon="6.7052195193513615"><ele>212.39999999999998</ele><time>2026-04-12T08:10:17.999Z</time></trkpt><trkpt lat="43.60726566954337" lon="6.705357342577823"><ele>212.2</ele><time>2026-04-12T08:10:18.999Z</time></trkpt><trkpt lat="43.60728405848245" lon="6.70549240059661"><ele>212.0</ele><time>2026-04-12T08:10:19.999Z</time></trkpt><trkpt lat="43.60730455040122" lon="6.705630889382858"><ele>212.2</ele><time>2026-04-12T08:10:20.999Z</time></trkpt><trkpt lat="43.60732654643201" lon="6.705767877921957"><ele>212.39999999999998</ele><time>2026-04-12T08:10:21.999Z</time></trkpt><trkpt lat="43.60734403205276" lon="6.705891337388182"><ele>212.60000000000002</ele><time>2026-04-12T08:10:22.999Z</time></trkpt><trkpt lat="43.60736994682984" lon="6.7060320793580726"><ele>212.8</ele><time>2026-04-12T08:10:23.999Z</time></trkpt><trkpt lat="43.60739681337733" lon="6.706168023329266"><ele>213.0</ele><time>2026-04-12T08:10:24.999Z</time></trkpt><trkpt lat="43.60742132414599" lon="6.706301312960652"><ele>213.0</ele><time>2026-04-12T08:10:25.999Z</time></trkpt><trkpt lat="43.607451475587396" lon="6.706451463407966"><ele>213.0</ele><time>2026-04-12T08:10:26.999Z</time></trkpt><trkpt lat="43.607473355505796" lon="6.706581033901379"><ele>213.0</ele><time>2026-04-12T08:10:27.999Z</time></trkpt><trkpt lat="43.60749493949821" lon="6.706717370649742"><ele>213.0</ele><time>2026-04-12T08:10:28.999Z</time></trkpt><trkpt lat="43.607511699052836" lon="6.706843918410749"><ele>213.0</ele><time>2026-04-12T08:10:29.999Z</time></trkpt><trkpt lat="43.60753014512199" lon="6.706985416085019"><ele>213.0</ele><time>2026-04-12T08:10:30.999Z</time></trkpt><trkpt lat="43.607547181926854" lon="6.707118226182182"><ele>213.0</ele><time>2026-04-12T08:10:31.999Z</time></trkpt><trkpt lat="43.607563997277715" lon="6.707247698287073"><ele>213.0</ele><time>2026-04-12T08:10:32.999Z</time></trkpt><trkpt lat="43.60757914115799" lon="6.707380293476588"><ele>213.0</ele><time>2026-04-12T08:10:33.999Z</time></trkpt><trkpt lat="43.607592536745166" lon="6.707510928670543"><ele>213.0</ele><time>2026-04-12T08:10:34.999Z</time></trkpt><trkpt lat="43.60760762150682" lon="6.707642286112953"><ele>213.0</ele><time>2026-04-12T08:10:35.999Z</time></trkpt><trkpt lat="43.60762395013817" lon="6.707776404973241"><ele>213.0</ele><time>2026-04-12T08:10:36.999Z</time></trkpt><trkpt lat="43.60764072236379" lon="6.707914358656431"><ele>213.0</ele><time>2026-04-12T08:10:37.999Z</time></trkpt><trkpt lat="43.60765583100805" lon="6.708051607579167"><ele>213.0</ele><time>2026-04-12T08:10:38.999Z</time></trkpt><trkpt lat="43.60766783323839" lon="6.7081854671128465"><ele>213.0</ele><time>2026-04-12T08:10:39.999Z</time></trkpt><trkpt lat="43.60768030580779" lon="6.708314125119952"><ele>213.0</ele><time>2026-04-12T08:10:40.999Z</time></trkpt><trkpt lat="43.60769300838812" lon="6.708441395033459"><ele>213.0</ele><time>2026-04-12T08:10:41.999Z</time></trkpt><trkpt lat="43.607707325394735" lon="6.708564260709061"><ele>213.0</ele><time>2026-04-12T08:10:42.999Z</time></trkpt><trkpt lat="43.60771974679122" lon="6.708685940158134"><ele>213.0</ele><time>2026-04-12T08:10:43.999Z</time></trkpt><trkpt lat="43.607734240744534" lon="6.708810614439177"><ele>213.0</ele><time>2026-04-12T08:10:44.999Z</time></trkpt><trkpt lat="43.60774835793233" lon="6.70893404726098"><ele>213.0</ele><time>2026-04-12T08:10:45.999Z</time></trkpt><trkpt lat="43.60776438461552" lon="6.709058517672847"><ele>213.0</ele><time>2026-04-12T08:10:46.999Z</time></trkpt><trkpt lat="43.60777987039155" lon="6.709187611912442"><ele>213.0</ele><time>2026-04-12T08:10:47.999Z</time></trkpt><trkpt lat="43.60779583447192" lon="6.709313009064908"><ele>213.0</ele><time>2026-04-12T08:10:48.999Z</time></trkpt><trkpt lat="43.60781111989492" lon="6.7094435407385635"><ele>213.0</ele><time>2026-04-12T08:10:49.999Z</time></trkpt><trkpt lat="43.60782951159474" lon="6.70957087695633"><ele>213.2</ele><time>2026-04-12T08:10:50.999Z</time></trkpt><trkpt lat="43.6078460907601" lon="6.709700869129448"><ele>213.4</ele><time>2026-04-12T08:10:52Z</time></trkpt><trkpt lat="43.60786362345595" lon="6.709828242744154"><ele>213.59999999999997</ele><time>2026-04-12T08:10:53Z</time></trkpt><trkpt lat="43.60788251746839" lon="6.70996017794008"><ele>213.79999999999998</ele><time>2026-04-12T08:10:54Z</time></trkpt><trkpt lat="43.60789949938313" lon="6.710094040948601"><ele>214.0</ele><time>2026-04-12T08:10:55Z</time></trkpt><trkpt lat="43.60791837127637" lon="6.7102256428072575"><ele>213.79999999999998</ele><time>2026-04-12T08:10:56Z</time></trkpt><trkpt lat="43.60793447440806" lon="6.710353813255465"><ele>213.59999999999997</ele><time>2026-04-12T08:10:57Z</time></trkpt><trkpt lat="43.60794991993652" lon="6.710481927522783"><ele>213.4</ele><time>2026-04-12T08:10:58Z</time></trkpt><trkpt lat="43.60796881992551" lon="6.710604722501067"><ele>213.2</ele><time>2026-04-12T08:10:59Z</time></trkpt><trkpt lat="43.60798940040078" lon="6.710725058647691"><ele>213.0</ele><time>2026-04-12T08:11:00Z</time></trkpt><trkpt lat="43.60800891272135" lon="6.7108446230600745"><ele>213.0</ele><time>2026-04-12T08:11:01Z</time></trkpt><trkpt lat="43.60802364323876" lon="6.710966612311685"><ele>213.0</ele><time>2026-04-12T08:11:02Z</time></trkpt><trkpt lat="43.60801798345918" lon="6.711090771672155"><ele>213.0</ele><time>2026-04-12T08:11:03Z</time></trkpt><trkpt lat="43.60799948600842" lon="6.711215793362829"><ele>213.0</ele><time>2026-04-12T08:11:04Z</time></trkpt><trkpt lat="43.60797072600337" lon="6.71133364237087"><ele>213.0</ele><time>2026-04-12T08:11:05Z</time></trkpt><trkpt lat="43.60796398091414" lon="6.711461920910432"><ele>213.0</ele><time>2026-04-12T08:11:06Z</time></trkpt><trkpt lat="43.60800170760853" lon="6.7115824966618804"><ele>213.0</ele><time>2026-04-12T08:11:07Z</time></trkpt><trkpt lat="43.60807371256674" lon="6.711673433526473"><ele>213.0</ele><time>2026-04-12T08:11:08Z</time></trkpt><trkpt lat="43.608126241622884" lon="6.711773935198777"><ele>213.0</ele><time>2026-04-12T08:11:09Z</time></trkpt><trkpt lat="43.60814726069966" lon="6.711898010292138"><ele>213.0</ele><time>2026-04-12T08:11:10Z</time></trkpt><trkpt lat="43.608159783935214" lon="6.712023819707173"><ele>213.0</ele><time>2026-04-12T08:11:11Z</time></trkpt><trkpt lat="43.60817655979478" lon="6.71214667026154"><ele>213.0</ele><time>2026-04-12T08:11:12Z</time></trkpt><trkpt lat="43.6081926967201" lon="6.712275767615753"><ele>213.0</ele><time>2026-04-12T08:11:13Z</time></trkpt><trkpt lat="43.60820856519463" lon="6.712407294568263"><ele>213.0</ele><time>2026-04-12T08:11:14Z</time></trkpt><trkpt lat="43.60822682296349" lon="6.712535931888398"><ele>213.0</ele><time>2026-04-12T08:11:15Z</time></trkpt><trkpt lat="43.608246523782746" lon="6.712667195631039"><ele>212.8</ele><time>2026-04-12T08:11:16Z</time></trkpt><trkpt lat="43.60826468857215" lon="6.71280305005962"><ele>212.60000000000002</ele><time>2026-04-12T08:11:17Z</time></trkpt><trkpt lat="43.608286169707" lon="6.712939015326722"><ele>212.39999999999998</ele><time>2026-04-12T08:11:18Z</time></trkpt><trkpt lat="43.60830322832709" lon="6.713077833023361"><ele>212.2</ele><time>2026-04-12T08:11:19Z</time></trkpt><trkpt lat="43.60831973960271" lon="6.7132183345503424"><ele>212.0</ele><time>2026-04-12T08:11:20Z</time></trkpt><trkpt lat="43.60833699395785" lon="6.713360711213329"><ele>212.0</ele><time>2026-04-12T08:11:21Z</time></trkpt><trkpt lat="43.60835868587774" lon="6.713503415525696"><ele>212.0</ele><time>2026-04-12T08:11:22Z</time></trkpt><trkpt lat="43.60837810977673" lon="6.713651145296132"><ele>212.0</ele><time>2026-04-12T08:11:23Z</time></trkpt><trkpt lat="43.60839795384974" lon="6.713801444504748"><ele>212.0</ele><time>2026-04-12T08:11:24Z</time></trkpt><trkpt lat="43.60841168902611" lon="6.713941764214373"><ele>212.0</ele><time>2026-04-12T08:11:25Z</time></trkpt><trkpt lat="43.608439223619726" lon="6.714097995381678"><ele>211.75</ele><time>2026-04-12T08:11:26Z</time></trkpt><trkpt lat="43.60846942523829" lon="6.7142487168711735"><ele>211.5</ele><time>2026-04-12T08:11:27Z</time></trkpt><trkpt lat="43.60849934894344" lon="6.714399998017231"><ele>211.25</ele><time>2026-04-12T08:11:28Z</time></trkpt><trkpt lat="43.608534188190006" lon="6.714545202559493"><ele>211.0</ele><time>2026-04-12T08:11:29Z</time></trkpt><trkpt lat="43.608578134919846" lon="6.714688033200218"><ele>211.0</ele><time>2026-04-12T08:11:30Z</time></trkpt><trkpt lat="43.60862852048843" lon="6.714833030375605"><ele>211.0</ele><time>2026-04-12T08:11:31Z</time></trkpt><trkpt lat="43.60867984561273" lon="6.714972533050276"><ele>211.0</ele><time>2026-04-12T08:11:32Z</time></trkpt><trkpt lat="43.60873158338393" lon="6.715117951098639"><ele>211.0</ele><time>2026-04-12T08:11:33Z</time></trkpt><trkpt lat="43.60878212679095" lon="6.715262449384632"><ele>211.0</ele><time>2026-04-12T08:11:34Z</time></trkpt><trkpt lat="43.608832500035604" lon="6.715407622634128"><ele>211.0</ele><time>2026-04-12T08:11:35Z</time></trkpt><trkpt lat="43.60888644232861" lon="6.715553220985919"><ele>211.0</ele><time>2026-04-12T08:11:36Z</time></trkpt><trkpt lat="43.6089392364271" lon="6.7156968212170876"><ele>211.0</ele><time>2026-04-12T08:11:37Z</time></trkpt><trkpt lat="43.60899525317994" lon="6.715840635169398"><ele>211.0</ele><time>2026-04-12T08:11:38Z</time></trkpt><trkpt lat="43.60904914779864" lon="6.715984760064074"><ele>211.0</ele><time>2026-04-12T08:11:39Z</time></trkpt><trkpt lat="43.60909802972927" lon="6.716120334591233"><ele>211.0</ele><time>2026-04-12T08:11:40Z</time></trkpt><trkpt lat="43.60914957642318" lon="6.716254067664405"><ele>211.0</ele><time>2026-04-12T08:11:41Z</time></trkpt><trkpt lat="43.60919536440527" lon="6.7163867634230225"><ele>211.0</ele><time>2026-04-12T08:11:42Z</time></trkpt><trkpt lat="43.60924492127634" lon="6.71651757342436"><ele>211.20000000000002</ele><time>2026-04-12T08:11:43Z</time></trkpt><trkpt lat="43.60929235307559" lon="6.716648285939912"><ele>211.4</ele><time>2026-04-12T08:11:44Z</time></trkpt><trkpt lat="43.60933960690117" lon="6.716780479561129"><ele>211.6</ele><time>2026-04-12T08:11:45Z</time></trkpt><trkpt lat="43.609389446844695" lon="6.716908331775812"><ele>211.8</ele><time>2026-04-12T08:11:46Z</time></trkpt><trkpt lat="43.609433473715846" lon="6.717035216654236"><ele>212.0</ele><time>2026-04-12T08:11:47Z</time></trkpt><trkpt lat="43.60947692379797" lon="6.717161392473569"><ele>212.0</ele><time>2026-04-12T08:11:48Z</time></trkpt><trkpt lat="43.60952165693229" lon="6.71728499283476"><ele>212.0</ele><time>2026-04-12T08:11:49Z</time></trkpt><trkpt lat="43.609563415629665" lon="6.717408820966378"><ele>212.0</ele><time>2026-04-12T08:11:50Z</time></trkpt><trkpt lat="43.60960283560258" lon="6.717534654301207"><ele>212.0</ele><time>2026-04-12T08:11:51Z</time></trkpt><trkpt lat="43.609639732846254" lon="6.71765923152102"><ele>212.0</ele><time>2026-04-12T08:11:52Z</time></trkpt><trkpt lat="43.60967115795232" lon="6.717783612622373"><ele>212.0</ele><time>2026-04-12T08:11:53Z</time></trkpt><trkpt lat="43.60970323587062" lon="6.717911546157156"><ele>212.0</ele><time>2026-04-12T08:11:54Z</time></trkpt><trkpt lat="43.609732951752775" lon="6.718041808622788"><ele>212.0</ele><time>2026-04-12T08:11:55Z</time></trkpt><trkpt lat="43.60975691746732" lon="6.718172390555115"><ele>212.0</ele><time>2026-04-12T08:11:56Z</time></trkpt><trkpt lat="43.60977486234011" lon="6.718307023321215"><ele>212.0</ele><time>2026-04-12T08:11:57Z</time></trkpt><trkpt lat="43.60979130137933" lon="6.718443610515983"><ele>212.0</ele><time>2026-04-12T08:11:57.999Z</time></trkpt><trkpt lat="43.60980599180047" lon="6.718576403530505"><ele>212.0</ele><time>2026-04-12T08:11:58.999Z</time></trkpt><trkpt lat="43.60981775348186" lon="6.7187118086267335"><ele>212.0</ele><time>2026-04-12T08:11:59.999Z</time></trkpt><trkpt lat="43.609832025083946" lon="6.718847180578446"><ele>212.0</ele><time>2026-04-12T08:12:00.999Z</time></trkpt><trkpt lat="43.609843914568756" lon="6.718982036559031"><ele>212.0</ele><time>2026-04-12T08:12:01.999Z</time></trkpt><trkpt lat="43.60985659230054" lon="6.719115299464779"><ele>212.0</ele><time>2026-04-12T08:12:02.999Z</time></trkpt><trkpt lat="43.60986772618175" lon="6.719250361617758"><ele>212.0</ele><time>2026-04-12T08:12:03.999Z</time></trkpt><trkpt lat="43.60988072579668" lon="6.719381593861271"><ele>212.0</ele><time>2026-04-12T08:12:04.999Z</time></trkpt><trkpt lat="43.609891587205816" lon="6.719515419606512"><ele>212.0</ele><time>2026-04-12T08:12:05.999Z</time></trkpt><trkpt lat="43.609909814026445" lon="6.719648469593195"><ele>212.0</ele><time>2026-04-12T08:12:06.999Z</time></trkpt><trkpt lat="43.60992391538001" lon="6.7197814225078965"><ele>211.8</ele><time>2026-04-12T08:12:07.999Z</time></trkpt><trkpt lat="43.609936865500245" lon="6.71991458912712"><ele>211.6</ele><time>2026-04-12T08:12:08.999Z</time></trkpt><trkpt lat="43.60995331616789" lon="6.720049579625342"><ele>211.4</ele><time>2026-04-12T08:12:09.999Z</time></trkpt><trkpt lat="43.60996420119639" lon="6.720176408459186"><ele>211.20000000000002</ele><time>2026-04-12T08:12:10.999Z</time></trkpt><trkpt lat="43.60997713849749" lon="6.72030272248663"><ele>211.0</ele><time>2026-04-12T08:12:11.999Z</time></trkpt><trkpt lat="43.60999183247263" lon="6.720427388750288"><ele>211.33333333333331</ele><time>2026-04-12T08:12:12.999Z</time></trkpt><trkpt lat="43.61000749120384" lon="6.720548187652579"><ele>211.66666666666666</ele><time>2026-04-12T08:12:13.999Z</time></trkpt><trkpt lat="43.610019387247995" lon="6.720673197098056"><ele>212.0</ele><time>2026-04-12T08:12:14.999Z</time></trkpt><trkpt lat="43.610030988178565" lon="6.720794059424292"><ele>212.33333333333331</ele><time>2026-04-12T08:12:15.999Z</time></trkpt><trkpt lat="43.610043732339854" lon="6.720911405283568"><ele>212.66666666666666</ele><time>2026-04-12T08:12:16.999Z</time></trkpt><trkpt lat="43.61005897114523" lon="6.721029470639668"><ele>213.0</ele><time>2026-04-12T08:12:17.999Z</time></trkpt><trkpt lat="43.61007176116278" lon="6.721141869462162"><ele>213.5</ele><time>2026-04-12T08:12:18.999Z</time></trkpt><trkpt lat="43.61008539208012" lon="6.721258429192056"><ele>214.0</ele><time>2026-04-12T08:12:19.999Z</time></trkpt><trkpt lat="43.61009896651154" lon="6.721370887378248"><ele>214.5</ele><time>2026-04-12T08:12:20.999Z</time></trkpt><trkpt lat="43.610112106506435" lon="6.721483312222125"><ele>215.0</ele><time>2026-04-12T08:12:21.999Z</time></trkpt><trkpt lat="43.61012600662715" lon="6.721595181459157"><ele>215.5</ele><time>2026-04-12T08:12:22.999Z</time></trkpt><trkpt lat="43.61014267787917" lon="6.721702139789509"><ele>216.0</ele><time>2026-04-12T08:12:23.999Z</time></trkpt><trkpt lat="43.610158225358326" lon="6.721808233905378"><ele>215.83333333333334</ele><time>2026-04-12T08:12:24.999Z</time></trkpt><trkpt lat="43.61017206209139" lon="6.721910224559407"><ele>215.66666666666669</ele><time>2026-04-12T08:12:25.999Z</time></trkpt><trkpt lat="43.610187659210176" lon="6.722011300340072"><ele>215.5</ele><time>2026-04-12T08:12:26.999Z</time></trkpt><trkpt lat="43.610204903084714" lon="6.722119909092114"><ele>215.33333333333334</ele><time>2026-04-12T08:12:27.999Z</time></trkpt><trkpt lat="43.61022038016996" lon="6.722229899815835"><ele>215.16666666666669</ele><time>2026-04-12T08:12:28.999Z</time></trkpt><trkpt lat="43.610238390377454" lon="6.7223401337492295"><ele>215.0</ele><time>2026-04-12T08:12:29.999Z</time></trkpt><trkpt lat="43.61025902376223" lon="6.722452882098002"><ele>215.00000000000003</ele><time>2026-04-12T08:12:30.999Z</time></trkpt><trkpt lat="43.61027102971991" lon="6.722566786462176"><ele>215.0</ele><time>2026-04-12T08:12:31.999Z</time></trkpt><trkpt lat="43.61028165413643" lon="6.722680435561968"><ele>215.0</ele><time>2026-04-12T08:12:32.999Z</time></trkpt><trkpt lat="43.610293537969525" lon="6.72279215885329"><ele>215.0</ele><time>2026-04-12T08:12:33.999Z</time></trkpt><trkpt lat="43.61029949780473" lon="6.722907931974915"><ele>215.00000000000003</ele><time>2026-04-12T08:12:34.999Z</time></trkpt><trkpt lat="43.610304684589956" lon="6.7230231947866175"><ele>215.0</ele><time>2026-04-12T08:12:35.999Z</time></trkpt><trkpt lat="43.61030964341038" lon="6.7231400733763635"><ele>215.00000000000003</ele><time>2026-04-12T08:12:36.999Z</time></trkpt><trkpt lat="43.61031786483991" lon="6.723259091559657"><ele>215.0</ele><time>2026-04-12T08:12:37.999Z</time></trkpt><trkpt lat="43.61031970599308" lon="6.723376654026171"><ele>215.0</ele><time>2026-04-12T08:12:38.999Z</time></trkpt><trkpt lat="43.610322833261776" lon="6.7234963867936095"><ele>215.0</ele><time>2026-04-12T08:12:39.999Z</time></trkpt><trkpt lat="43.61032732825385" lon="6.723613855604186"><ele>215.00000000000003</ele><time>2026-04-12T08:12:40.999Z</time></trkpt><trkpt lat="43.61033552952286" lon="6.723734323267395"><ele>215.0</ele><time>2026-04-12T08:12:41.999Z</time></trkpt><trkpt lat="43.61034445834865" lon="6.723855108024186"><ele>215.50000000000003</ele><time>2026-04-12T08:12:42.999Z</time></trkpt><trkpt lat="43.61035005406243" lon="6.723969645277446"><ele>216.0</ele><time>2026-04-12T08:12:43.999Z</time></trkpt><trkpt lat="43.61035888375257" lon="6.724087912615982"><ele>216.5</ele><time>2026-04-12T08:12:44.999Z</time></trkpt><trkpt lat="43.61036823957089" lon="6.72420464643818"><ele>217.0</ele><time>2026-04-12T08:12:45.999Z</time></trkpt><trkpt lat="43.61037877711696" lon="6.724322964446621"><ele>217.50000000000003</ele><time>2026-04-12T08:12:46.999Z</time></trkpt><trkpt lat="43.610386727214646" lon="6.724441824115062"><ele>218.0</ele><time>2026-04-12T08:12:47.999Z</time></trkpt><trkpt lat="43.61040327066874" lon="6.724564199898623"><ele>218.33333333333334</ele><time>2026-04-12T08:12:48.999Z</time></trkpt><trkpt lat="43.610418872474796" lon="6.724678400016412"><ele>218.66666666666669</ele><time>2026-04-12T08:12:49.999Z</time></trkpt><trkpt lat="43.610434894541456" lon="6.724793442561403"><ele>219.0</ele><time>2026-04-12T08:12:50.999Z</time></trkpt><trkpt lat="43.61045736691832" lon="6.724902116771075"><ele>219.33333333333331</ele><time>2026-04-12T08:12:51.999Z</time></trkpt><trkpt lat="43.61049353673535" lon="6.725015896881117"><ele>219.66666666666666</ele><time>2026-04-12T08:12:52.999Z</time></trkpt><trkpt lat="43.61051294646732" lon="6.72512027638137"><ele>220.0</ele><time>2026-04-12T08:12:53.999Z</time></trkpt><trkpt lat="43.610535844339964" lon="6.725229527957577"><ele>220.33333333333331</ele><time>2026-04-12T08:12:54.999Z</time></trkpt><trkpt lat="43.61055666344336" lon="6.725332606310583"><ele>220.66666666666666</ele><time>2026-04-12T08:12:55.999Z</time></trkpt><trkpt lat="43.61057485367652" lon="6.725437334423153"><ele>221.0</ele><time>2026-04-12T08:12:56.999Z</time></trkpt><trkpt lat="43.61059026855141" lon="6.7255389518128075"><ele>221.33333333333331</ele><time>2026-04-12T08:12:58Z</time></trkpt><trkpt lat="43.610605408888276" lon="6.725645284233032"><ele>221.66666666666666</ele><time>2026-04-12T08:12:59Z</time></trkpt><trkpt lat="43.61061893302537" lon="6.7257525031441485"><ele>222.0</ele><time>2026-04-12T08:13:00Z</time></trkpt><trkpt lat="43.61062730341515" lon="6.725855438096328"><ele>222.0</ele><time>2026-04-12T08:13:01Z</time></trkpt><trkpt lat="43.61062927292431" lon="6.725961271382977"><ele>222.0</ele><time>2026-04-12T08:13:02Z</time></trkpt><trkpt lat="43.61063192623254" lon="6.726068044582746"><ele>222.0</ele><time>2026-04-12T08:13:03Z</time></trkpt><trkpt lat="43.61062945646107" lon="6.726172343281518"><ele>222.0</ele><time>2026-04-12T08:13:04Z</time></trkpt><trkpt lat="43.61062606722448" lon="6.726276812858412"><ele>222.0</ele><time>2026-04-12T08:13:05Z</time></trkpt><trkpt lat="43.61062308705671" lon="6.726382140946981"><ele>222.0</ele><time>2026-04-12T08:13:06Z</time></trkpt><trkpt lat="43.61062146916904" lon="6.726487455372923"><ele>222.71428571428572</ele><time>2026-04-12T08:13:07Z</time></trkpt><trkpt lat="43.610617521514" lon="6.726591659420995"><ele>223.42857142857144</ele><time>2026-04-12T08:13:08Z</time></trkpt><trkpt lat="43.610608399639304" lon="6.726695570342891"><ele>224.14285714285717</ele><time>2026-04-12T08:13:09Z</time></trkpt><trkpt lat="43.61059900197108" lon="6.726798769786685"><ele>224.85714285714286</ele><time>2026-04-12T08:13:10Z</time></trkpt><trkpt lat="43.61058978780083" lon="6.726896802788957"><ele>225.5714285714286</ele><time>2026-04-12T08:13:11Z</time></trkpt><trkpt lat="43.610580915602" lon="6.726996962060767"><ele>226.2857142857143</ele><time>2026-04-12T08:13:12Z</time></trkpt><trkpt lat="43.61057406350439" lon="6.727096836905467"><ele>227.0</ele><time>2026-04-12T08:13:13Z</time></trkpt><trkpt lat="43.610563182962224" lon="6.7271986081645005"><ele>227.00000000000003</ele><time>2026-04-12T08:13:14Z</time></trkpt><trkpt lat="43.610551584740044" lon="6.727299767146559"><ele>227.0</ele><time>2026-04-12T08:13:15Z</time></trkpt><trkpt lat="43.61053749322775" lon="6.727402813589683"><ele>227.0</ele><time>2026-04-12T08:13:16Z</time></trkpt><trkpt lat="43.61052530461327" lon="6.727505410416514"><ele>227.0</ele><time>2026-04-12T08:13:17Z</time></trkpt><trkpt lat="43.61051238659492" lon="6.727611955865555"><ele>227.00000000000003</ele><time>2026-04-12T08:13:18Z</time></trkpt><trkpt lat="43.61049961741179" lon="6.72771879863389"><ele>227.0</ele><time>2026-04-12T08:13:19Z</time></trkpt><trkpt lat="43.61048818834374" lon="6.727825716949995"><ele>227.00000000000003</ele><time>2026-04-12T08:13:20Z</time></trkpt><trkpt lat="43.61047875661319" lon="6.72793473376669"><ele>227.0</ele><time>2026-04-12T08:13:21Z</time></trkpt><trkpt lat="43.610467738122374" lon="6.728041274816996"><ele>227.0</ele><time>2026-04-12T08:13:22Z</time></trkpt><trkpt lat="43.61045923395209" lon="6.7281467334057625"><ele>227.0</ele><time>2026-04-12T08:13:23Z</time></trkpt><trkpt lat="43.610450565934386" lon="6.728253539697072"><ele>227.00000000000003</ele><time>2026-04-12T08:13:24Z</time></trkpt><trkpt lat="43.61043936619644" lon="6.728363802003529"><ele>227.0</ele><time>2026-04-12T08:13:25Z</time></trkpt><trkpt lat="43.61042851095397" lon="6.728478559511169"><ele>226.50000000000003</ele><time>2026-04-12T08:13:26Z</time></trkpt><trkpt lat="43.6104171306249" lon="6.728595746472093"><ele>226.0</ele><time>2026-04-12T08:13:27Z</time></trkpt><trkpt lat="43.61040594823248" lon="6.728715513750679"><ele>225.5</ele><time>2026-04-12T08:13:28Z</time></trkpt><trkpt lat="43.61039507767877" lon="6.728836985899597"><ele>225.0</ele><time>2026-04-12T08:13:29Z</time></trkpt><trkpt lat="43.61038349006657" lon="6.728959654548953"><ele>224.50000000000003</ele><time>2026-04-12T08:13:30Z</time></trkpt><trkpt lat="43.61036935250258" lon="6.729083528112598"><ele>224.0</ele><time>2026-04-12T08:13:31Z</time></trkpt><trkpt lat="43.61035893594567" lon="6.7292083712318"><ele>224.0</ele><time>2026-04-12T08:13:32Z</time></trkpt><trkpt lat="43.61034685509815" lon="6.729333335940482"><ele>223.99999999999997</ele><time>2026-04-12T08:13:33Z</time></trkpt><trkpt lat="43.610334891272544" lon="6.729463801343726"><ele>223.99999999999997</ele><time>2026-04-12T08:13:34Z</time></trkpt><trkpt lat="43.61032207029242" lon="6.729596681863684"><ele>224.0</ele><time>2026-04-12T08:13:35Z</time></trkpt><trkpt lat="43.61030968626541" lon="6.729731686562667"><ele>224.0</ele><time>2026-04-12T08:13:36Z</time></trkpt><trkpt lat="43.61029389769199" lon="6.729867676866349"><ele>222.39999999999998</ele><time>2026-04-12T08:13:37Z</time></trkpt><trkpt lat="43.610281221784845" lon="6.730007024667943"><ele>220.79999999999998</ele><time>2026-04-12T08:13:38Z</time></trkpt><trkpt lat="43.61026452353093" lon="6.730146033083929"><ele>219.20000000000002</ele><time>2026-04-12T08:13:39Z</time></trkpt><trkpt lat="43.61024749206395" lon="6.730286321045008"><ele>217.60000000000002</ele><time>2026-04-12T08:13:40Z</time></trkpt><trkpt lat="43.610223825587234" lon="6.730428842632531"><ele>216.0</ele><time>2026-04-12T08:13:41Z</time></trkpt><trkpt lat="43.610199555694535" lon="6.730571851060984"><ele>216.0</ele><time>2026-04-12T08:13:42Z</time></trkpt><trkpt lat="43.61017514661536" lon="6.730713609178241"><ele>216.00000000000003</ele><time>2026-04-12T08:13:43Z</time></trkpt><trkpt lat="43.61015021312138" lon="6.7308470666443085"><ele>216.00000000000003</ele><time>2026-04-12T08:13:44Z</time></trkpt><trkpt lat="43.61012895339665" lon="6.730981512297227"><ele>216.0</ele><time>2026-04-12T08:13:45Z</time></trkpt><trkpt lat="43.61010472927065" lon="6.731115857955519"><ele>216.0</ele><time>2026-04-12T08:13:46Z</time></trkpt><trkpt lat="43.61008297915269" lon="6.73124983801239"><ele>216.0</ele><time>2026-04-12T08:13:47Z</time></trkpt><trkpt lat="43.61007790827837" lon="6.731386744578201"><ele>216.00000000000003</ele><time>2026-04-12T08:13:48Z</time></trkpt><trkpt lat="43.61008411969623" lon="6.731528215732996"><ele>216.00000000000003</ele><time>2026-04-12T08:13:49Z</time></trkpt><trkpt lat="43.6100874566928" lon="6.7316723805349055"><ele>216.0</ele><time>2026-04-12T08:13:50Z</time></trkpt><trkpt lat="43.61007586808969" lon="6.7318134786388235"><ele>216.0</ele><time>2026-04-12T08:13:51Z</time></trkpt><trkpt lat="43.610074232378054" lon="6.731954066773285"><ele>216.0</ele><time>2026-04-12T08:13:52Z</time></trkpt><trkpt lat="43.610102002611676" lon="6.732094087900812"><ele>216.00000000000003</ele><time>2026-04-12T08:13:53Z</time></trkpt><trkpt lat="43.61012338186964" lon="6.732225188229827"><ele>216.00000000000003</ele><time>2026-04-12T08:13:54Z</time></trkpt><trkpt lat="43.61014017065144" lon="6.732355118063991"><ele>216.0</ele><time>2026-04-12T08:13:55Z</time></trkpt><trkpt lat="43.61014417464385" lon="6.732487787665943"><ele>216.0</ele><time>2026-04-12T08:13:56Z</time></trkpt><trkpt lat="43.61013794050016" lon="6.732619670167805"><ele>216.20000000000002</ele><time>2026-04-12T08:13:57Z</time></trkpt><trkpt lat="43.61012504957894" lon="6.732751444784168"><ele>216.40000000000003</ele><time>2026-04-12T08:13:58Z</time></trkpt><trkpt lat="43.61010416598462" lon="6.732883885808027"><ele>216.6</ele><time>2026-04-12T08:13:59Z</time></trkpt><trkpt lat="43.61008237723993" lon="6.7330121256647795"><ele>216.8</ele><time>2026-04-12T08:14:00Z</time></trkpt><trkpt lat="43.6100611010747" lon="6.733140273641573"><ele>217.0</ele><time>2026-04-12T08:14:01Z</time></trkpt><trkpt lat="43.61003904792458" lon="6.733269611358589"><ele>217.0</ele><time>2026-04-12T08:14:02Z</time></trkpt><trkpt lat="43.6100145846372" lon="6.7333988923335895"><ele>217.0</ele><time>2026-04-12T08:14:02.999Z</time></trkpt><trkpt lat="43.6099886415778" lon="6.733528851766906"><ele>217.0</ele><time>2026-04-12T08:14:03.999Z</time></trkpt><trkpt lat="43.60996030612313" lon="6.733657876061596"><ele>217.0</ele><time>2026-04-12T08:14:04.999Z</time></trkpt><trkpt lat="43.60993173583029" lon="6.733785689794068"><ele>217.0</ele><time>2026-04-12T08:14:05.999Z</time></trkpt><trkpt lat="43.609907785388664" lon="6.733916909944413"><ele>216.0</ele><time>2026-04-12T08:14:06.999Z</time></trkpt><trkpt lat="43.60987761572366" lon="6.734050201760853"><ele>215.0</ele><time>2026-04-12T08:14:07.999Z</time></trkpt><trkpt lat="43.60984487880641" lon="6.734185243320444"><ele>214.0</ele><time>2026-04-12T08:14:08.999Z</time></trkpt><trkpt lat="43.609811415801005" lon="6.734322787711312"><ele>213.0</ele><time>2026-04-12T08:14:09.999Z</time></trkpt><trkpt lat="43.60977887413757" lon="6.734464465071668"><ele>212.0</ele><time>2026-04-12T08:14:10.999Z</time></trkpt><trkpt lat="43.609746050016014" lon="6.7346092891745855"><ele>211.25</ele><time>2026-04-12T08:14:11.999Z</time></trkpt><trkpt lat="43.60971219698547" lon="6.7347599918481365"><ele>210.5</ele><time>2026-04-12T08:14:12.999Z</time></trkpt><trkpt lat="43.609677181177226" lon="6.734914598762842"><ele>209.75</ele><time>2026-04-12T08:14:13.999Z</time></trkpt><trkpt lat="43.60963908138044" lon="6.735070469327003"><ele>209.0</ele><time>2026-04-12T08:14:14.999Z</time></trkpt><trkpt lat="43.6096006662285" lon="6.735228156113453"><ele>208.75</ele><time>2026-04-12T08:14:15.999Z</time></trkpt><trkpt lat="43.60956297841364" lon="6.735382439250391"><ele>208.5</ele><time>2026-04-12T08:14:16.999Z</time></trkpt><trkpt lat="43.609522505592544" lon="6.7355372422724455"><ele>208.25</ele><time>2026-04-12T08:14:17.999Z</time></trkpt><trkpt lat="43.60948614434876" lon="6.735692733860497"><ele>208.0</ele><time>2026-04-12T08:14:18.999Z</time></trkpt><trkpt lat="43.60945157019763" lon="6.735846942698496"><ele>207.5</ele><time>2026-04-12T08:14:19.999Z</time></trkpt><trkpt lat="43.609416890247566" lon="6.735999746784779"><ele>207.0</ele><time>2026-04-12T08:14:20.999Z</time></trkpt><trkpt lat="43.609380874206025" lon="6.7361502524532355"><ele>206.5</ele><time>2026-04-12T08:14:21.999Z</time></trkpt><trkpt lat="43.60934543018093" lon="6.73630191258331"><ele>206.0</ele><time>2026-04-12T08:14:22.999Z</time></trkpt><trkpt lat="43.60930952003605" lon="6.736449851484652"><ele>205.25</ele><time>2026-04-12T08:14:23.999Z</time></trkpt><trkpt lat="43.609275737129" lon="6.736597272681141"><ele>204.5</ele><time>2026-04-12T08:14:24.999Z</time></trkpt><trkpt lat="43.60924115926655" lon="6.736746836214618"><ele>203.75</ele><time>2026-04-12T08:14:25.999Z</time></trkpt><trkpt lat="43.609207666035324" lon="6.736895594655592"><ele>203.0</ele><time>2026-04-12T08:14:26.999Z</time></trkpt><trkpt lat="43.609174534874136" lon="6.737044139544177"><ele>203.0</ele><time>2026-04-12T08:14:27.999Z</time></trkpt><trkpt lat="43.60914067998111" lon="6.737192499860574"><ele>203.0</ele><time>2026-04-12T08:14:28.999Z</time></trkpt><trkpt lat="43.609107203459324" lon="6.737340684687076"><ele>203.0</ele><time>2026-04-12T08:14:29.999Z</time></trkpt><trkpt lat="43.60907004976954" lon="6.737485250310041"><ele>203.0</ele><time>2026-04-12T08:14:30.999Z</time></trkpt><trkpt lat="43.609036317129956" lon="6.737630896690826"><ele>203.0</ele><time>2026-04-12T08:14:31.999Z</time></trkpt><trkpt lat="43.60900274142359" lon="6.737774979226532"><ele>202.8</ele><time>2026-04-12T08:14:32.999Z</time></trkpt><trkpt lat="43.60896988494784" lon="6.7379210864964145"><ele>202.60000000000002</ele><time>2026-04-12T08:14:33.999Z</time></trkpt><trkpt lat="43.608936784584756" lon="6.738066929133226"><ele>202.39999999999998</ele><time>2026-04-12T08:14:34.999Z</time></trkpt><trkpt lat="43.6089034088135" lon="6.738208788942811"><ele>202.2</ele><time>2026-04-12T08:14:35.999Z</time></trkpt><trkpt lat="43.608869210193426" lon="6.738349166758329"><ele>202.0</ele><time>2026-04-12T08:14:36.999Z</time></trkpt><trkpt lat="43.60883886973274" lon="6.738492523590997"><ele>201.8</ele><time>2026-04-12T08:14:37.999Z</time></trkpt><trkpt lat="43.608804629325064" lon="6.7386337817654685"><ele>201.6</ele><time>2026-04-12T08:14:38.999Z</time></trkpt><trkpt lat="43.608774299401475" lon="6.738772997233138"><ele>201.4</ele><time>2026-04-12T08:14:39.999Z</time></trkpt><trkpt lat="43.608741299409665" lon="6.738912814307857"><ele>201.20000000000002</ele><time>2026-04-12T08:14:40.999Z</time></trkpt><trkpt lat="43.60870755020747" lon="6.739051709397858"><ele>201.0</ele><time>2026-04-12T08:14:41.999Z</time></trkpt><trkpt lat="43.60867251720828" lon="6.739192342092488"><ele>200.8</ele><time>2026-04-12T08:14:42.999Z</time></trkpt><trkpt lat="43.6086420830173" lon="6.739335180614118"><ele>200.60000000000002</ele><time>2026-04-12T08:14:43.999Z</time></trkpt><trkpt lat="43.60860948095816" lon="6.739476831399494"><ele>200.4</ele><time>2026-04-12T08:14:44.999Z</time></trkpt><trkpt lat="43.60857812119838" lon="6.73961898234911"><ele>200.2</ele><time>2026-04-12T08:14:45.999Z</time></trkpt><trkpt lat="43.6085453141914" lon="6.739760467230909"><ele>200.0</ele><time>2026-04-12T08:14:46.999Z</time></trkpt><trkpt lat="43.60851267139271" lon="6.7398996093260966"><ele>199.6</ele><time>2026-04-12T08:14:47.999Z</time></trkpt><trkpt lat="43.60847980401759" lon="6.7400406360102725"><ele>199.2</ele><time>2026-04-12T08:14:48.999Z</time></trkpt><trkpt lat="43.60844894067074" lon="6.740182166473676"><ele>198.8</ele><time>2026-04-12T08:14:49.999Z</time></trkpt><trkpt lat="43.60841699872039" lon="6.740321337033636"><ele>198.4</ele><time>2026-04-12T08:14:50.999Z</time></trkpt><trkpt lat="43.60838336062748" lon="6.740458433680957"><ele>198.0</ele><time>2026-04-12T08:14:51.999Z</time></trkpt><trkpt lat="43.608351413368226" lon="6.740596518754806"><ele>198.0</ele><time>2026-04-12T08:14:52.999Z</time></trkpt><trkpt lat="43.60831862245055" lon="6.740731051743805"><ele>198.0</ele><time>2026-04-12T08:14:53.999Z</time></trkpt><trkpt lat="43.608282704750174" lon="6.7408635293937165"><ele>198.0</ele><time>2026-04-12T08:14:54.999Z</time></trkpt><trkpt lat="43.608247724741666" lon="6.740997163990394"><ele>198.0</ele><time>2026-04-12T08:14:55.999Z</time></trkpt><trkpt lat="43.60820750203446" lon="6.741129612633176"><ele>198.0</ele><time>2026-04-12T08:14:56.999Z</time></trkpt><trkpt lat="43.608167479555426" lon="6.741262988776295"><ele>197.8</ele><time>2026-04-12T08:14:57.999Z</time></trkpt><trkpt lat="43.60812964538229" lon="6.741396756780211"><ele>197.60000000000002</ele><time>2026-04-12T08:14:58.999Z</time></trkpt><trkpt lat="43.60809948477768" lon="6.741533287740229"><ele>197.39999999999998</ele><time>2026-04-12T08:14:59.999Z</time></trkpt><trkpt lat="43.60807012778747" lon="6.74167000433559"><ele>197.2</ele><time>2026-04-12T08:15:00.999Z</time></trkpt><trkpt lat="43.60804418873301" lon="6.741808991486005"><ele>197.0</ele><time>2026-04-12T08:15:01.999Z</time></trkpt><trkpt lat="43.60802210231683" lon="6.741954044576305"><ele>196.39999999999998</ele><time>2026-04-12T08:15:02.999Z</time></trkpt><trkpt lat="43.608001354787525" lon="6.742098046600445"><ele>195.79999999999998</ele><time>2026-04-12T08:15:04Z</time></trkpt><trkpt lat="43.60797628053057" lon="6.742245632158123"><ele>195.2</ele><time>2026-04-12T08:15:05Z</time></trkpt><trkpt lat="43.60793332421256" lon="6.742386546138495"><ele>194.6</ele><time>2026-04-12T08:15:06Z</time></trkpt><trkpt lat="43.60786934271793" lon="6.742515805276002"><ele>194.0</ele><time>2026-04-12T08:15:07Z</time></trkpt><trkpt lat="43.60783045536082" lon="6.742654872415466"><ele>193.79999999999998</ele><time>2026-04-12T08:15:08Z</time></trkpt><trkpt lat="43.60785261854485" lon="6.742807847294325"><ele>193.6</ele><time>2026-04-12T08:15:09Z</time></trkpt><trkpt lat="43.60790167186553" lon="6.742951272610753"><ele>193.4</ele><time>2026-04-12T08:15:10Z</time></trkpt><trkpt lat="43.607923599040575" lon="6.743094839914808"><ele>193.2</ele><time>2026-04-12T08:15:11Z</time></trkpt><trkpt lat="43.60790882901776" lon="6.743245736325334"><ele>193.0</ele><time>2026-04-12T08:15:12Z</time></trkpt><trkpt lat="43.60788323368766" lon="6.743389121496825"><ele>193.0</ele><time>2026-04-12T08:15:13Z</time></trkpt><trkpt lat="43.60786304308212" lon="6.74353063016109"><ele>193.0</ele><time>2026-04-12T08:15:14Z</time></trkpt><trkpt lat="43.60785039894581" lon="6.743669212903651"><ele>193.0</ele><time>2026-04-12T08:15:15Z</time></trkpt><trkpt lat="43.6078379656243" lon="6.743807068438256"><ele>193.0</ele><time>2026-04-12T08:15:16Z</time></trkpt><trkpt lat="43.60782210073174" lon="6.743945483435977"><ele>193.0</ele><time>2026-04-12T08:15:17Z</time></trkpt><trkpt lat="43.60780594138089" lon="6.744083500920863"><ele>193.2</ele><time>2026-04-12T08:15:18Z</time></trkpt><trkpt lat="43.6077915323578" lon="6.744222942005744"><ele>193.4</ele><time>2026-04-12T08:15:19Z</time></trkpt><trkpt lat="43.60777917090478" lon="6.744360626279769"><ele>193.6</ele><time>2026-04-12T08:15:20Z</time></trkpt><trkpt lat="43.60777201222509" lon="6.744497201313355"><ele>193.79999999999998</ele><time>2026-04-12T08:15:21Z</time></trkpt><trkpt lat="43.60776450447592" lon="6.74463335036918"><ele>194.0</ele><time>2026-04-12T08:15:22Z</time></trkpt><trkpt lat="43.60775934094588" lon="6.744770876174005"><ele>193.39999999999998</ele><time>2026-04-12T08:15:23Z</time></trkpt><trkpt lat="43.60775526733751" lon="6.744910019005116"><ele>192.8</ele><time>2026-04-12T08:15:24Z</time></trkpt><trkpt lat="43.607749250577335" lon="6.745046626390012"><ele>192.2</ele><time>2026-04-12T08:15:25Z</time></trkpt><trkpt lat="43.60773844905589" lon="6.7451837561723496"><ele>191.60000000000002</ele><time>2026-04-12T08:15:26Z</time></trkpt><trkpt lat="43.60772989769396" lon="6.745320137402471"><ele>191.0</ele><time>2026-04-12T08:15:27Z</time></trkpt><trkpt lat="43.60772098885473" lon="6.7454556026691135"><ele>190.8</ele><time>2026-04-12T08:15:28Z</time></trkpt><trkpt lat="43.60770693189538" lon="6.745589031575455"><ele>190.60000000000002</ele><time>2026-04-12T08:15:29Z</time></trkpt><trkpt lat="43.60769396360493" lon="6.745721719854611"><ele>190.4</ele><time>2026-04-12T08:15:30Z</time></trkpt><trkpt lat="43.6076817185108" lon="6.745854899525617"><ele>190.2</ele><time>2026-04-12T08:15:31Z</time></trkpt><trkpt lat="43.60766660827526" lon="6.745991225208199"><ele>190.0</ele><time>2026-04-12T08:15:32Z</time></trkpt><trkpt lat="43.60764895880222" lon="6.746122675608434"><ele>190.4</ele><time>2026-04-12T08:15:33Z</time></trkpt><trkpt lat="43.60763050122963" lon="6.746256502402638"><ele>190.8</ele><time>2026-04-12T08:15:34Z</time></trkpt><trkpt lat="43.60760679441944" lon="6.746390286492561"><ele>191.2</ele><time>2026-04-12T08:15:35Z</time></trkpt><trkpt lat="43.607577276395546" lon="6.7465205538889"><ele>191.6</ele><time>2026-04-12T08:15:36Z</time></trkpt><trkpt lat="43.60754409494197" lon="6.746649433907454"><ele>192.0</ele><time>2026-04-12T08:15:37Z</time></trkpt><trkpt lat="43.607511796439745" lon="6.746778582512152"><ele>192.0</ele><time>2026-04-12T08:15:38Z</time></trkpt><trkpt lat="43.60748029571726" lon="6.746910519935446"><ele>192.0</ele><time>2026-04-12T08:15:39Z</time></trkpt><trkpt lat="43.607445918520455" lon="6.747042456549478"><ele>192.0</ele><time>2026-04-12T08:15:40Z</time></trkpt><trkpt lat="43.60741092878573" lon="6.747174350062895"><ele>192.0</ele><time>2026-04-12T08:15:41Z</time></trkpt><trkpt lat="43.60738115989944" lon="6.747308455092645"><ele>192.0</ele><time>2026-04-12T08:15:42Z</time></trkpt><trkpt lat="43.607344659637654" lon="6.747438865422227"><ele>192.0</ele><time>2026-04-12T08:15:43Z</time></trkpt><trkpt lat="43.6073082498949" lon="6.747573101509908"><ele>192.0</ele><time>2026-04-12T08:15:44Z</time></trkpt><trkpt lat="43.60727505103436" lon="6.747710048711784"><ele>192.0</ele><time>2026-04-12T08:15:45Z</time></trkpt><trkpt lat="43.6072333274174" lon="6.747844656248809"><ele>192.0</ele><time>2026-04-12T08:15:46Z</time></trkpt><trkpt lat="43.60719923252882" lon="6.747986650078742"><ele>192.0</ele><time>2026-04-12T08:15:47Z</time></trkpt><trkpt lat="43.607162434496594" lon="6.748131817256165"><ele>192.0</ele><time>2026-04-12T08:15:48Z</time></trkpt><trkpt lat="43.60712107863298" lon="6.7482732914640176"><ele>192.0</ele><time>2026-04-12T08:15:49Z</time></trkpt><trkpt lat="43.60708616802149" lon="6.748415832798813"><ele>192.0</ele><time>2026-04-12T08:15:50Z</time></trkpt><trkpt lat="43.60704904977091" lon="6.748556427002947"><ele>192.0</ele><time>2026-04-12T08:15:51Z</time></trkpt><trkpt lat="43.60701047460799" lon="6.748695341837928"><ele>192.0</ele><time>2026-04-12T08:15:52Z</time></trkpt><trkpt lat="43.60696945211548" lon="6.748833693344526"><ele>191.39999999999998</ele><time>2026-04-12T08:15:53Z</time></trkpt><trkpt lat="43.606926302680584" lon="6.748969780001175"><ele>190.79999999999998</ele><time>2026-04-12T08:15:54Z</time></trkpt><trkpt lat="43.60688366275455" lon="6.749108843104211"><ele>190.2</ele><time>2026-04-12T08:15:55Z</time></trkpt><trkpt lat="43.606842038963435" lon="6.749247901335893"><ele>189.6</ele><time>2026-04-12T08:15:56Z</time></trkpt><trkpt lat="43.60680173566289" lon="6.749388699935331"><ele>189.0</ele><time>2026-04-12T08:15:57Z</time></trkpt><trkpt lat="43.6067599324365" lon="6.749534274035414"><ele>189.0</ele><time>2026-04-12T08:15:58Z</time></trkpt><trkpt lat="43.606718143604944" lon="6.749677703371566"><ele>189.0</ele><time>2026-04-12T08:15:59Z</time></trkpt><trkpt lat="43.60667613427699" lon="6.7498167364494615"><ele>189.0</ele><time>2026-04-12T08:16:00Z</time></trkpt><trkpt lat="43.6066366320314" lon="6.749957412915513"><ele>189.0</ele><time>2026-04-12T08:16:01Z</time></trkpt><trkpt lat="43.60660224512111" lon="6.750102026729104"><ele>189.0</ele><time>2026-04-12T08:16:02Z</time></trkpt><trkpt lat="43.60657155146291" lon="6.750247106298882"><ele>189.0</ele><time>2026-04-12T08:16:03Z</time></trkpt><trkpt lat="43.606544134586805" lon="6.750393206466306"><ele>189.0</ele><time>2026-04-12T08:16:04Z</time></trkpt><trkpt lat="43.606517633612675" lon="6.7505396264517525"><ele>189.0</ele><time>2026-04-12T08:16:05Z</time></trkpt><trkpt lat="43.60649302792591" lon="6.750684217535231"><ele>189.0</ele><time>2026-04-12T08:16:06Z</time></trkpt><trkpt lat="43.6064626747897" lon="6.750828958356417"><ele>189.0</ele><time>2026-04-12T08:16:07Z</time></trkpt><trkpt lat="43.60643517870649" lon="6.750975787696749"><ele>188.6</ele><time>2026-04-12T08:16:08Z</time></trkpt><trkpt lat="43.60640621053522" lon="6.751120946730011"><ele>188.2</ele><time>2026-04-12T08:16:08.999Z</time></trkpt><trkpt lat="43.60638266738747" lon="6.751267274246124"><ele>187.79999999999998</ele><time>2026-04-12T08:16:09.999Z</time></trkpt><trkpt lat="43.606356183750975" lon="6.751412060250277"><ele>187.39999999999998</ele><time>2026-04-12T08:16:10.999Z</time></trkpt><trkpt lat="43.606325328193556" lon="6.751558490644567"><ele>187.0</ele><time>2026-04-12T08:16:11.999Z</time></trkpt><trkpt lat="43.60629751315453" lon="6.751707529282604"><ele>187.0</ele><time>2026-04-12T08:16:12.999Z</time></trkpt><trkpt lat="43.606270035640605" lon="6.751855062934616"><ele>187.0</ele><time>2026-04-12T08:16:13.999Z</time></trkpt><trkpt lat="43.60624190226217" lon="6.751998806087887"><ele>187.0</ele><time>2026-04-12T08:16:14.999Z</time></trkpt><trkpt lat="43.60621219244471" lon="6.752141270664121"><ele>187.0</ele><time>2026-04-12T08:16:15.999Z</time></trkpt><trkpt lat="43.606181277425804" lon="6.752285848996516"><ele>187.0</ele><time>2026-04-12T08:16:16.999Z</time></trkpt><trkpt lat="43.60615085596653" lon="6.75243370558104"><ele>186.6</ele><time>2026-04-12T08:16:17.999Z</time></trkpt><trkpt lat="43.60612080472905" lon="6.752575711825699"><ele>186.2</ele><time>2026-04-12T08:16:18.999Z</time></trkpt><trkpt lat="43.606090958422726" lon="6.752717554401498"><ele>185.8</ele><time>2026-04-12T08:16:19.999Z</time></trkpt><trkpt lat="43.60606530845826" lon="6.752862483002289"><ele>185.4</ele><time>2026-04-12T08:16:20.999Z</time></trkpt><trkpt lat="43.60603859958136" lon="6.752997196043091"><ele>185.0</ele><time>2026-04-12T08:16:21.999Z</time></trkpt><trkpt lat="43.60601538193481" lon="6.753136774700296"><ele>185.0</ele><time>2026-04-12T08:16:22.999Z</time></trkpt><trkpt lat="43.60599684545457" lon="6.753278501006805"><ele>185.0</ele><time>2026-04-12T08:16:23.999Z</time></trkpt><trkpt lat="43.605980993509085" lon="6.753418953377564"><ele>185.0</ele><time>2026-04-12T08:16:24.999Z</time></trkpt><trkpt lat="43.605968220774" lon="6.753556175818546"><ele>185.0</ele><time>2026-04-12T08:16:25.999Z</time></trkpt><trkpt lat="43.60595669135434" lon="6.753692695483232"><ele>185.0</ele><time>2026-04-12T08:16:26.999Z</time></trkpt><trkpt lat="43.60594270167658" lon="6.753828828458878"><ele>184.8</ele><time>2026-04-12T08:16:27.999Z</time></trkpt><trkpt lat="43.60592730788295" lon="6.753968224790393"><ele>184.6</ele><time>2026-04-12T08:16:28.999Z</time></trkpt><trkpt lat="43.60590620667029" lon="6.754105136191855"><ele>184.39999999999998</ele><time>2026-04-12T08:16:29.999Z</time></trkpt><trkpt lat="43.6058813992061" lon="6.754237898391623"><ele>184.2</ele><time>2026-04-12T08:16:30.999Z</time></trkpt><trkpt lat="43.6058590070074" lon="6.754371926522801"><ele>184.0</ele><time>2026-04-12T08:16:31.999Z</time></trkpt><trkpt lat="43.605842440147136" lon="6.754498680340336"><ele>184.0</ele><time>2026-04-12T08:16:32.999Z</time></trkpt><trkpt lat="43.60582260071234" lon="6.754622581759144"><ele>184.0</ele><time>2026-04-12T08:16:33.999Z</time></trkpt><trkpt lat="43.60579760105726" lon="6.754743060947104"><ele>184.0</ele><time>2026-04-12T08:16:34.999Z</time></trkpt><trkpt lat="43.60577214826288" lon="6.75485230274707"><ele>184.0</ele><time>2026-04-12T08:16:35.999Z</time></trkpt><trkpt lat="43.605746185548526" lon="6.754949366336427"><ele>184.0</ele><time>2026-04-12T08:16:36.999Z</time></trkpt><trkpt lat="43.60571240097272" lon="6.755025659616625"><ele>184.0</ele><time>2026-04-12T08:16:37.999Z</time></trkpt><trkpt lat="43.605647497001236" lon="6.7550775334452045"><ele>184.0</ele><time>2026-04-12T08:16:38.999Z</time></trkpt><trkpt lat="43.605612245376335" lon="6.755178299766861"><ele>184.0</ele><time>2026-04-12T08:16:39.999Z</time></trkpt><trkpt lat="43.605561358570114" lon="6.755279698709192"><ele>184.0</ele><time>2026-04-12T08:16:40.999Z</time></trkpt><trkpt lat="43.60560893201436" lon="6.755424006786275"><ele>184.0</ele><time>2026-04-12T08:16:41.999Z</time></trkpt><trkpt lat="43.60564969985079" lon="6.755529015366202"><ele>184.0</ele><time>2026-04-12T08:16:42.999Z</time></trkpt><trkpt lat="43.60570291358637" lon="6.755625137106046"><ele>184.0</ele><time>2026-04-12T08:16:43.999Z</time></trkpt><trkpt lat="43.60572511609549" lon="6.755739080564844"><ele>184.0</ele><time>2026-04-12T08:16:44.999Z</time></trkpt><trkpt lat="43.60571351629348" lon="6.7558600366336"><ele>184.0</ele><time>2026-04-12T08:16:45.999Z</time></trkpt><trkpt lat="43.60570475912635" lon="6.755980303847742"><ele>184.0</ele><time>2026-04-12T08:16:46.999Z</time></trkpt><trkpt lat="43.6057016865744" lon="6.756101045763093"><ele>184.0</ele><time>2026-04-12T08:16:47.999Z</time></trkpt><trkpt lat="43.6057025562105" lon="6.756224655041757"><ele>184.0</ele><time>2026-04-12T08:16:48.999Z</time></trkpt><trkpt lat="43.60570043308901" lon="6.756350398773212"><ele>184.0</ele><time>2026-04-12T08:16:49.999Z</time></trkpt><trkpt lat="43.60569382336917" lon="6.756476075363909"><ele>184.0</ele><time>2026-04-12T08:16:50.999Z</time></trkpt><trkpt lat="43.60568442278672" lon="6.75660894390442"><ele>184.0</ele><time>2026-04-12T08:16:51.999Z</time></trkpt><trkpt lat="43.60566903423865" lon="6.756739056793092"><ele>184.0</ele><time>2026-04-12T08:16:52.999Z</time></trkpt><trkpt lat="43.60565750650691" lon="6.75687467776126"><ele>184.0</ele><time>2026-04-12T08:16:53.999Z</time></trkpt><trkpt lat="43.605639913118495" lon="6.757011972839292"><ele>183.79999999999998</ele><time>2026-04-12T08:16:54.999Z</time></trkpt><trkpt lat="43.60561222092633" lon="6.757149059647286"><ele>183.6</ele><time>2026-04-12T08:16:55.999Z</time></trkpt><trkpt lat="43.60558323078654" lon="6.757287232006432"><ele>183.4</ele><time>2026-04-12T08:16:56.999Z</time></trkpt><trkpt lat="43.60555804563346" lon="6.7574265914459914"><ele>183.2</ele><time>2026-04-12T08:16:57.999Z</time></trkpt><trkpt lat="43.60553424111474" lon="6.757566332867937"><ele>183.0</ele><time>2026-04-12T08:16:58.999Z</time></trkpt><trkpt lat="43.60551021505699" lon="6.757706865863883"><ele>182.8</ele><time>2026-04-12T08:16:59.999Z</time></trkpt><trkpt lat="43.60549085700254" lon="6.757845363240323"><ele>182.60000000000002</ele><time>2026-04-12T08:17:00.999Z</time></trkpt><trkpt lat="43.60547979733518" lon="6.757992418127812"><ele>182.39999999999998</ele><time>2026-04-12T08:17:01.999Z</time></trkpt><trkpt lat="43.605481047776614" lon="6.758143920433788"><ele>182.2</ele><time>2026-04-12T08:17:02.999Z</time></trkpt><trkpt lat="43.60548224068109" lon="6.75828864796942"><ele>182.0</ele><time>2026-04-12T08:17:03.999Z</time></trkpt><trkpt lat="43.60548169671605" lon="6.758435528136489"><ele>182.0</ele><time>2026-04-12T08:17:04.999Z</time></trkpt><trkpt lat="43.60548311425624" lon="6.758577601851383"><ele>182.0</ele><time>2026-04-12T08:17:05.999Z</time></trkpt><trkpt lat="43.60548552073262" lon="6.7587308066756195"><ele>182.0</ele><time>2026-04-12T08:17:06.999Z</time></trkpt><trkpt lat="43.60548697805439" lon="6.758876465250887"><ele>182.0</ele><time>2026-04-12T08:17:07.999Z</time></trkpt><trkpt lat="43.60548865839059" lon="6.759021530458464"><ele>182.0</ele><time>2026-04-12T08:17:08.999Z</time></trkpt><trkpt lat="43.60549772897676" lon="6.7591646113510615"><ele>182.0</ele><time>2026-04-12T08:17:10Z</time></trkpt><trkpt lat="43.60549966766824" lon="6.759303852210437"><ele>182.0</ele><time>2026-04-12T08:17:11Z</time></trkpt><trkpt lat="43.60550788260602" lon="6.759441924910818"><ele>182.0</ele><time>2026-04-12T08:17:12Z</time></trkpt><trkpt lat="43.60551918486058" lon="6.75957922126486"><ele>182.0</ele><time>2026-04-12T08:17:13Z</time></trkpt><trkpt lat="43.605530878265974" lon="6.759713803676041"><ele>182.0</ele><time>2026-04-12T08:17:14Z</time></trkpt><trkpt lat="43.605542498749834" lon="6.759849187703629"><ele>182.0</ele><time>2026-04-12T08:17:15Z</time></trkpt><trkpt lat="43.60555299117409" lon="6.75998551305259"><ele>182.0</ele><time>2026-04-12T08:17:16Z</time></trkpt><trkpt lat="43.60556289654692" lon="6.760121050142993"><ele>182.0</ele><time>2026-04-12T08:17:17Z</time></trkpt><trkpt lat="43.60557515438791" lon="6.760258027700881"><ele>182.0</ele><time>2026-04-12T08:17:18Z</time></trkpt><trkpt lat="43.60558453984429" lon="6.760398358670555"><ele>182.0</ele><time>2026-04-12T08:17:19Z</time></trkpt><trkpt lat="43.60559576973406" lon="6.760540850370193"><ele>181.8</ele><time>2026-04-12T08:17:20Z</time></trkpt><trkpt lat="43.60561044471621" lon="6.760681587059158"><ele>181.6</ele><time>2026-04-12T08:17:21Z</time></trkpt><trkpt lat="43.60562277721462" lon="6.760823539528211"><ele>181.4</ele><time>2026-04-12T08:17:22Z</time></trkpt><trkpt lat="43.60563307140943" lon="6.760967051668259"><ele>181.20000000000002</ele><time>2026-04-12T08:17:23Z</time></trkpt><trkpt lat="43.605646536091115" lon="6.76111109562273"><ele>181.0</ele><time>2026-04-12T08:17:24Z</time></trkpt><trkpt lat="43.60566028590223" lon="6.761248212880193"><ele>181.0</ele><time>2026-04-12T08:17:25Z</time></trkpt><trkpt lat="43.60567432089576" lon="6.761389893822844"><ele>181.0</ele><time>2026-04-12T08:17:26Z</time></trkpt><trkpt lat="43.6056906939833" lon="6.761524803376752"><ele>181.0</ele><time>2026-04-12T08:17:27Z</time></trkpt><trkpt lat="43.605703625519084" lon="6.76165776664414"><ele>181.0</ele><time>2026-04-12T08:17:28Z</time></trkpt><trkpt lat="43.60571285216747" lon="6.761792083026732"><ele>181.0</ele><time>2026-04-12T08:17:29Z</time></trkpt><trkpt lat="43.605714233916274" lon="6.761923385259184"><ele>181.0</ele><time>2026-04-12T08:17:30Z</time></trkpt><trkpt lat="43.60570850236684" lon="6.762053341279244"><ele>181.0</ele><time>2026-04-12T08:17:31Z</time></trkpt><trkpt lat="43.605682781983205" lon="6.762180897675081"><ele>181.0</ele><time>2026-04-12T08:17:32Z</time></trkpt><trkpt lat="43.60570186643598" lon="6.762308291757467"><ele>181.0</ele><time>2026-04-12T08:17:33Z</time></trkpt><trkpt lat="43.6057065688066" lon="6.76243427644099"><ele>181.0</ele><time>2026-04-12T08:17:34Z</time></trkpt><trkpt lat="43.60570322841095" lon="6.7625559240287325"><ele>181.0</ele><time>2026-04-12T08:17:35Z</time></trkpt><trkpt lat="43.605701888661635" lon="6.762678778308929"><ele>181.0</ele><time>2026-04-12T08:17:36Z</time></trkpt><trkpt lat="43.60570109447706" lon="6.762802647124233"><ele>181.0</ele><time>2026-04-12T08:17:37Z</time></trkpt><trkpt lat="43.605701885419435" lon="6.762925899606512"><ele>181.0</ele><time>2026-04-12T08:17:38Z</time></trkpt><trkpt lat="43.605698650397365" lon="6.763050420294061"><ele>181.0</ele><time>2026-04-12T08:17:39Z</time></trkpt><trkpt lat="43.605696415266756" lon="6.763171692314406"><ele>181.0</ele><time>2026-04-12T08:17:40Z</time></trkpt><trkpt lat="43.605699019388396" lon="6.763296370123933"><ele>181.0</ele><time>2026-04-12T08:17:41Z</time></trkpt><trkpt lat="43.60570219258794" lon="6.76342109850447"><ele>181.0</ele><time>2026-04-12T08:17:42Z</time></trkpt><trkpt lat="43.605703716372034" lon="6.76354312176699"><ele>181.0</ele><time>2026-04-12T08:17:43Z</time></trkpt><trkpt lat="43.60570661618692" lon="6.763670734602221"><ele>181.0</ele><time>2026-04-12T08:17:44Z</time></trkpt><trkpt lat="43.60570253684042" lon="6.763793171644864"><ele>181.0</ele><time>2026-04-12T08:17:45Z</time></trkpt><trkpt lat="43.6057035495072" lon="6.763917580195655"><ele>181.0</ele><time>2026-04-12T08:17:46Z</time></trkpt><trkpt lat="43.60570958224261" lon="6.764043714303531"><ele>181.0</ele><time>2026-04-12T08:17:47Z</time></trkpt><trkpt lat="43.60571517817815" lon="6.764175034479335"><ele>181.0</ele><time>2026-04-12T08:17:48Z</time></trkpt><trkpt lat="43.60572236767153" lon="6.764300504797149"><ele>181.0</ele><time>2026-04-12T08:17:49Z</time></trkpt><trkpt lat="43.605732462591035" lon="6.764428881438726"><ele>181.0</ele><time>2026-04-12T08:17:50Z</time></trkpt><trkpt lat="43.605746745650286" lon="6.764563154199973"><ele>181.0</ele><time>2026-04-12T08:17:51Z</time></trkpt><trkpt lat="43.60575685618324" lon="6.764696026559398"><ele>181.0</ele><time>2026-04-12T08:17:52Z</time></trkpt><trkpt lat="43.605761694817886" lon="6.764832750145354"><ele>181.0</ele><time>2026-04-12T08:17:53Z</time></trkpt><trkpt lat="43.60576927805449" lon="6.7649728992267795"><ele>181.0</ele><time>2026-04-12T08:17:54Z</time></trkpt><trkpt lat="43.60577176316852" lon="6.7651150291489435"><ele>181.0</ele><time>2026-04-12T08:17:55Z</time></trkpt><trkpt lat="43.60576964810394" lon="6.76525149985875"><ele>181.0</ele><time>2026-04-12T08:17:56Z</time></trkpt><trkpt lat="43.60576994623407" lon="6.765389122502085"><ele>181.0</ele><time>2026-04-12T08:17:57Z</time></trkpt><trkpt lat="43.60577014184597" lon="6.765532732278557"><ele>181.0</ele><time>2026-04-12T08:17:58Z</time></trkpt><trkpt lat="43.60576882775834" lon="6.765673985077064"><ele>181.0</ele><time>2026-04-12T08:17:59Z</time></trkpt><trkpt lat="43.605767276608546" lon="6.765817545378269"><ele>181.0</ele><time>2026-04-12T08:18:00Z</time></trkpt><trkpt lat="43.6057707335586" lon="6.765967066740704"><ele>180.60000000000002</ele><time>2026-04-12T08:18:01Z</time></trkpt><trkpt lat="43.60577460461782" lon="6.766116571479997"><ele>180.2</ele><time>2026-04-12T08:18:02Z</time></trkpt><trkpt lat="43.6057755227598" lon="6.7662668684628535"><ele>179.8</ele><time>2026-04-12T08:18:03Z</time></trkpt><trkpt lat="43.60577502933989" lon="6.766417479906083"><ele>179.39999999999998</ele><time>2026-04-12T08:18:04Z</time></trkpt><trkpt lat="43.60577226373198" lon="6.766569906112171"><ele>179.0</ele><time>2026-04-12T08:18:05Z</time></trkpt><trkpt lat="43.60576334540165" lon="6.766722296832635"><ele>179.0</ele><time>2026-04-12T08:18:06Z</time></trkpt><trkpt lat="43.60574927590196" lon="6.766874651620142"><ele>179.0</ele><time>2026-04-12T08:18:07Z</time></trkpt><trkpt lat="43.60573652480751" lon="6.767028590815786"><ele>179.0</ele><time>2026-04-12T08:18:08Z</time></trkpt><trkpt lat="43.605720202573806" lon="6.767182181951198"><ele>179.0</ele><time>2026-04-12T08:18:09Z</time></trkpt><trkpt lat="43.60570246036126" lon="6.767334377845963"><ele>179.0</ele><time>2026-04-12T08:18:10Z</time></trkpt><trkpt lat="43.605682209209164" lon="6.767485314258709"><ele>179.0</ele><time>2026-04-12T08:18:11Z</time></trkpt><trkpt lat="43.605653576332564" lon="6.767637241294055"><ele>179.0</ele><time>2026-04-12T08:18:12Z</time></trkpt><trkpt lat="43.60561883603155" lon="6.767786189215526"><ele>179.0</ele><time>2026-04-12T08:18:13Z</time></trkpt><trkpt lat="43.60557828464759" lon="6.767933927940462"><ele>179.0</ele><time>2026-04-12T08:18:14Z</time></trkpt><trkpt lat="43.60553810883249" lon="6.768082265459542"><ele>179.5</ele><time>2026-04-12T08:18:15Z</time></trkpt><trkpt lat="43.605493673432896" lon="6.768223027365679"><ele>180.0</ele><time>2026-04-12T08:18:15.999Z</time></trkpt><trkpt lat="43.60544457277366" lon="6.7683677887476215"><ele>180.5</ele><time>2026-04-12T08:18:16.999Z</time></trkpt><trkpt lat="43.60539781563031" lon="6.768511000978157"><ele>181.0</ele><time>2026-04-12T08:18:17.999Z</time></trkpt><trkpt lat="43.60535376114659" lon="6.7686576977808075"><ele>179.75</ele><time>2026-04-12T08:18:18.999Z</time></trkpt><trkpt lat="43.60530824535518" lon="6.768799293787824"><ele>178.5</ele><time>2026-04-12T08:18:19.999Z</time></trkpt><trkpt lat="43.60526248029106" lon="6.768946120035358"><ele>177.25</ele><time>2026-04-12T08:18:20.999Z</time></trkpt><trkpt lat="43.60522254204349" lon="6.769092104458147"><ele>176.0</ele><time>2026-04-12T08:18:21.999Z</time></trkpt><trkpt lat="43.605183258208626" lon="6.76923442791339"><ele>176.20000000000002</ele><time>2026-04-12T08:18:22.999Z</time></trkpt><trkpt lat="43.60513803899349" lon="6.76937370991824"><ele>176.4</ele><time>2026-04-12T08:18:23.999Z</time></trkpt><trkpt lat="43.60509085540495" lon="6.769512430325124"><ele>176.6</ele><time>2026-04-12T08:18:24.999Z</time></trkpt><trkpt lat="43.605039464873414" lon="6.7696492639444905"><ele>176.8</ele><time>2026-04-12T08:18:25.999Z</time></trkpt><trkpt lat="43.6049954946436" lon="6.769790999963802"><ele>177.0</ele><time>2026-04-12T08:18:26.999Z</time></trkpt><trkpt lat="43.60497753367186" lon="6.769945215544327"><ele>177.0</ele><time>2026-04-12T08:18:27.999Z</time></trkpt><trkpt lat="43.6049790031221" lon="6.770104919894966"><ele>177.0</ele><time>2026-04-12T08:18:28.999Z</time></trkpt><trkpt lat="43.604965071438144" lon="6.770260038427303"><ele>177.0</ele><time>2026-04-12T08:18:29.999Z</time></trkpt><trkpt lat="43.604914441490834" lon="6.770401670711875"><ele>177.0</ele><time>2026-04-12T08:18:30.999Z</time></trkpt><trkpt lat="43.60484149083324" lon="6.770524086102764"><ele>177.39999999999998</ele><time>2026-04-12T08:18:31.999Z</time></trkpt><trkpt lat="43.60476703612532" lon="6.770642567760595"><ele>177.79999999999998</ele><time>2026-04-12T08:18:32.999Z</time></trkpt><trkpt lat="43.604704246408346" lon="6.77076934878202"><ele>178.2</ele><time>2026-04-12T08:18:33.999Z</time></trkpt><trkpt lat="43.604640985585" lon="6.770896915392976"><ele>178.6</ele><time>2026-04-12T08:18:34.999Z</time></trkpt><trkpt lat="43.604585592180456" lon="6.771027527521529"><ele>179.0</ele><time>2026-04-12T08:18:35.999Z</time></trkpt><trkpt lat="43.6045338734315" lon="6.771159912000151"><ele>179.0</ele><time>2026-04-12T08:18:36.999Z</time></trkpt><trkpt lat="43.60448507975136" lon="6.7712908128712685"><ele>179.0</ele><time>2026-04-12T08:18:37.999Z</time></trkpt><trkpt lat="43.60444116702385" lon="6.771424184194115"><ele>179.0</ele><time>2026-04-12T08:18:38.999Z</time></trkpt><trkpt lat="43.604396396081256" lon="6.771552619542372"><ele>179.0</ele><time>2026-04-12T08:18:39.999Z</time></trkpt><trkpt lat="43.60435269478044" lon="6.77167836900625"><ele>179.0</ele><time>2026-04-12T08:18:40.999Z</time></trkpt><trkpt lat="43.60431247542972" lon="6.771803575879616"><ele>179.39999999999998</ele><time>2026-04-12T08:18:41.999Z</time></trkpt><trkpt lat="43.60426894753358" lon="6.771921734146941"><ele>179.8</ele><time>2026-04-12T08:18:42.999Z</time></trkpt><trkpt lat="43.60422541151717" lon="6.772039864145856"><ele>180.2</ele><time>2026-04-12T08:18:43.999Z</time></trkpt><trkpt lat="43.604186320661526" lon="6.772157137132307"><ele>180.60000000000002</ele><time>2026-04-12T08:18:44.999Z</time></trkpt><trkpt lat="43.60414695491096" lon="6.772272389149094"><ele>181.0</ele><time>2026-04-12T08:18:45.999Z</time></trkpt><trkpt lat="43.60411014990567" lon="6.772386378588196"><ele>181.0</ele><time>2026-04-12T08:18:46.999Z</time></trkpt><trkpt lat="43.60406914592093" lon="6.772496920677927"><ele>181.0</ele><time>2026-04-12T08:18:47.999Z</time></trkpt><trkpt lat="43.60402361288864" lon="6.772604539491234"><ele>181.0</ele><time>2026-04-12T08:18:48.999Z</time></trkpt><trkpt lat="43.60398338311563" lon="6.772713542722611"><ele>181.0</ele><time>2026-04-12T08:18:49.999Z</time></trkpt><trkpt lat="43.603945491514196" lon="6.772824328535282"><ele>181.0</ele><time>2026-04-12T08:18:50.999Z</time></trkpt><trkpt lat="43.603908949848844" lon="6.772934581171944"><ele>181.0</ele><time>2026-04-12T08:18:51.999Z</time></trkpt><trkpt lat="43.603867462940954" lon="6.773042517382553"><ele>181.16666666666669</ele><time>2026-04-12T08:18:52.999Z</time></trkpt><trkpt lat="43.60382806271004" lon="6.773151014834065"><ele>181.33333333333334</ele><time>2026-04-12T08:18:53.999Z</time></trkpt><trkpt lat="43.60378829341233" lon="6.7732627459814285"><ele>181.5</ele><time>2026-04-12T08:18:54.999Z</time></trkpt><trkpt lat="43.603752793831255" lon="6.7733670253377625"><ele>181.66666666666666</ele><time>2026-04-12T08:18:55.999Z</time></trkpt><trkpt lat="43.603714576452234" lon="6.773475537372142"><ele>181.83333333333331</ele><time>2026-04-12T08:18:56.999Z</time></trkpt><trkpt lat="43.60367884660224" lon="6.773580129612953"><ele>182.0</ele><time>2026-04-12T08:18:57.999Z</time></trkpt><trkpt lat="43.603642603130275" lon="6.773683177197709"><ele>182.16666666666666</ele><time>2026-04-12T08:18:58.999Z</time></trkpt><trkpt lat="43.60360547886038" lon="6.773783609736796"><ele>182.33333333333331</ele><time>2026-04-12T08:18:59.999Z</time></trkpt><trkpt lat="43.60357075684239" lon="6.773884089631899"><ele>182.5</ele><time>2026-04-12T08:19:00.999Z</time></trkpt><trkpt lat="43.603538376349" lon="6.773984587840822"><ele>182.66666666666666</ele><time>2026-04-12T08:19:01.999Z</time></trkpt><trkpt lat="43.603506783483716" lon="6.774084572895287"><ele>182.83333333333334</ele><time>2026-04-12T08:19:02.999Z</time></trkpt><trkpt lat="43.6034712099818" lon="6.774177411443512"><ele>183.0</ele><time>2026-04-12T08:19:03.999Z</time></trkpt><trkpt lat="43.603434248590915" lon="6.774272619042398"><ele>183.16666666666666</ele><time>2026-04-12T08:19:04.999Z</time></trkpt><trkpt lat="43.60339899398957" lon="6.774366964085872"><ele>183.33333333333334</ele><time>2026-04-12T08:19:05.999Z</time></trkpt><trkpt lat="43.60336468038437" lon="6.7744613303081085"><ele>183.5</ele><time>2026-04-12T08:19:06.999Z</time></trkpt><trkpt lat="43.603338577549984" lon="6.774560596006624"><ele>183.66666666666669</ele><time>2026-04-12T08:19:07.999Z</time></trkpt><trkpt lat="43.603303676493226" lon="6.77465735803952"><ele>183.83333333333334</ele><time>2026-04-12T08:19:08.999Z</time></trkpt><trkpt lat="43.60326553769024" lon="6.774753450056593"><ele>184.0</ele><time>2026-04-12T08:19:09.999Z</time></trkpt><trkpt lat="43.603227722880455" lon="6.774851383767366"><ele>184.0</ele><time>2026-04-12T08:19:10.999Z</time></trkpt><trkpt lat="43.60319260769163" lon="6.77494862928596"><ele>184.0</ele><time>2026-04-12T08:19:11.999Z</time></trkpt><trkpt lat="43.60315629571523" lon="6.775050711202018"><ele>184.0</ele><time>2026-04-12T08:19:12.999Z</time></trkpt><trkpt lat="43.60312328059542" lon="6.775151948584549"><ele>184.0</ele><time>2026-04-12T08:19:13.999Z</time></trkpt><trkpt lat="43.603087876012346" lon="6.775254272598355"><ele>184.0</ele><time>2026-04-12T08:19:14.999Z</time></trkpt><trkpt lat="43.603052643693196" lon="6.77535830024737"><ele>184.0</ele><time>2026-04-12T08:19:16Z</time></trkpt><trkpt lat="43.603017076406424" lon="6.775461111131022"><ele>183.83333333333334</ele><time>2026-04-12T08:19:17Z</time></trkpt><trkpt lat="43.602981980808856" lon="6.775566652113703"><ele>183.66666666666669</ele><time>2026-04-12T08:19:18Z</time></trkpt><trkpt lat="43.60294033114512" lon="6.775667517021058"><ele>183.5</ele><time>2026-04-12T08:19:19Z</time></trkpt><trkpt lat="43.602904280099914" lon="6.775773423084715"><ele>183.33333333333334</ele><time>2026-04-12T08:19:20Z</time></trkpt><trkpt lat="43.602868455551075" lon="6.775881740919402"><ele>183.16666666666666</ele><time>2026-04-12T08:19:21Z</time></trkpt><trkpt lat="43.60283022182439" lon="6.775986325614327"><ele>183.0</ele><time>2026-04-12T08:19:22Z</time></trkpt><trkpt lat="43.602792197833246" lon="6.7760931732437"><ele>183.0</ele><time>2026-04-12T08:19:23Z</time></trkpt><trkpt lat="43.60275166493221" lon="6.776200846409546"><ele>183.0</ele><time>2026-04-12T08:19:24Z</time></trkpt><trkpt lat="43.60271431658791" lon="6.776310790417246"><ele>183.0</ele><time>2026-04-12T08:19:25Z</time></trkpt><trkpt lat="43.60267714487812" lon="6.776421877179868"><ele>183.0</ele><time>2026-04-12T08:19:26Z</time></trkpt><trkpt lat="43.60263907494868" lon="6.7765341225484335"><ele>183.0</ele><time>2026-04-12T08:19:27Z</time></trkpt><trkpt lat="43.602599217498756" lon="6.77664395196416"><ele>183.0</ele><time>2026-04-12T08:19:28Z</time></trkpt><trkpt lat="43.60255943904446" lon="6.7767600342929635"><ele>183.0</ele><time>2026-04-12T08:19:29Z</time></trkpt><trkpt lat="43.60251880545243" lon="6.776876094027438"><ele>183.0</ele><time>2026-04-12T08:19:30Z</time></trkpt><trkpt lat="43.6024771679782" lon="6.776996786448534"><ele>183.0</ele><time>2026-04-12T08:19:31Z</time></trkpt><trkpt lat="43.602434010207965" lon="6.777117029376119"><ele>183.0</ele><time>2026-04-12T08:19:32Z</time></trkpt><trkpt lat="43.60239065099444" lon="6.7772385878083155"><ele>183.0</ele><time>2026-04-12T08:19:33Z</time></trkpt><trkpt lat="43.60234526540866" lon="6.777360593748409"><ele>183.0</ele><time>2026-04-12T08:19:34Z</time></trkpt><trkpt lat="43.6023013389156" lon="6.777484011831023"><ele>183.0</ele><time>2026-04-12T08:19:35Z</time></trkpt><trkpt lat="43.602256405585614" lon="6.7776032614593875"><ele>183.0</ele><time>2026-04-12T08:19:36Z</time></trkpt><trkpt lat="43.602210972383496" lon="6.777724641957604"><ele>183.0</ele><time>2026-04-12T08:19:37Z</time></trkpt><trkpt lat="43.602167838532864" lon="6.777841806184055"><ele>183.0</ele><time>2026-04-12T08:19:38Z</time></trkpt><trkpt lat="43.602127800907596" lon="6.777957392246866"><ele>182.83333333333334</ele><time>2026-04-12T08:19:39Z</time></trkpt><trkpt lat="43.602087204087674" lon="6.778068744734153"><ele>182.66666666666666</ele><time>2026-04-12T08:19:40Z</time></trkpt><trkpt lat="43.602040124245214" lon="6.778174387054135"><ele>182.5</ele><time>2026-04-12T08:19:41Z</time></trkpt><trkpt lat="43.60197581490331" lon="6.778259656518326"><ele>182.33333333333331</ele><time>2026-04-12T08:19:42Z</time></trkpt><trkpt lat="43.601899850341155" lon="6.778328901749805"><ele>182.16666666666666</ele><time>2026-04-12T08:19:43Z</time></trkpt><trkpt lat="43.60183540576012" lon="6.778412734823567"><ele>182.0</ele><time>2026-04-12T08:19:44Z</time></trkpt><trkpt lat="43.60177449486932" lon="6.778504141240901"><ele>182.6</ele><time>2026-04-12T08:19:45Z</time></trkpt><trkpt lat="43.601792301311434" lon="6.7786532236402595"><ele>183.2</ele><time>2026-04-12T08:19:46Z</time></trkpt><trkpt lat="43.60180122016842" lon="6.778774874771739"><ele>183.8</ele><time>2026-04-12T08:19:47Z</time></trkpt><trkpt lat="43.60179200966872" lon="6.778888192489369"><ele>184.4</ele><time>2026-04-12T08:19:48Z</time></trkpt><trkpt lat="43.601761991356845" lon="6.7789999814581705"><ele>185.0</ele><time>2026-04-12T08:19:49Z</time></trkpt><trkpt lat="43.60171940902371" lon="6.77910695469996"><ele>185.0</ele><time>2026-04-12T08:19:50Z</time></trkpt><trkpt lat="43.60168005455213" lon="6.779213097124774"><ele>185.0</ele><time>2026-04-12T08:19:51Z</time></trkpt><trkpt lat="43.60164175482382" lon="6.779317012127224"><ele>185.0</ele><time>2026-04-12T08:19:52Z</time></trkpt><trkpt lat="43.60160463568051" lon="6.779417418979966"><ele>185.0</ele><time>2026-04-12T08:19:53Z</time></trkpt><trkpt lat="43.60156238035278" lon="6.77951278952233"><ele>185.0</ele><time>2026-04-12T08:19:54Z</time></trkpt><trkpt lat="43.60152258339859" lon="6.779609065737475"><ele>185.0</ele><time>2026-04-12T08:19:55Z</time></trkpt><trkpt lat="43.60148557817962" lon="6.779702888234573"><ele>185.5</ele><time>2026-04-12T08:19:56Z</time></trkpt><trkpt lat="43.60145444773497" lon="6.779798337180247"><ele>186.0</ele><time>2026-04-12T08:19:57Z</time></trkpt><trkpt lat="43.60142078120663" lon="6.779892466747416"><ele>186.5</ele><time>2026-04-12T08:19:58Z</time></trkpt><trkpt lat="43.60138390414667" lon="6.779985114173557"><ele>187.0</ele><time>2026-04-12T08:19:59Z</time></trkpt><trkpt lat="43.601348417799954" lon="6.780077449576359"><ele>187.5</ele><time>2026-04-12T08:20:00Z</time></trkpt><trkpt lat="43.60131417296126" lon="6.780169946887945"><ele>188.0</ele><time>2026-04-12T08:20:01Z</time></trkpt><trkpt lat="43.60128124884391" lon="6.780264910799063"><ele>188.16666666666666</ele><time>2026-04-12T08:20:02Z</time></trkpt><trkpt lat="43.60124315973495" lon="6.780355545793259"><ele>188.33333333333331</ele><time>2026-04-12T08:20:03Z</time></trkpt><trkpt lat="43.60120663418565" lon="6.780448925273245"><ele>188.5</ele><time>2026-04-12T08:20:04Z</time></trkpt><trkpt lat="43.60117231558879" lon="6.780544237180297"><ele>188.66666666666666</ele><time>2026-04-12T08:20:05Z</time></trkpt><trkpt lat="43.60113880733423" lon="6.7806367373195116"><ele>188.83333333333334</ele><time>2026-04-12T08:20:06Z</time></trkpt><trkpt lat="43.60110311362905" lon="6.780727159270531"><ele>189.0</ele><time>2026-04-12T08:20:07Z</time></trkpt><trkpt lat="43.60106974208846" lon="6.780820392840167"><ele>188.71428571428572</ele><time>2026-04-12T08:20:08Z</time></trkpt><trkpt lat="43.60103860283526" lon="6.7809160392195835"><ele>188.42857142857144</ele><time>2026-04-12T08:20:09Z</time></trkpt><trkpt lat="43.60100514418032" lon="6.781008953316728"><ele>188.14285714285714</ele><time>2026-04-12T08:20:10Z</time></trkpt><trkpt lat="43.60096779140598" lon="6.781098976706973"><ele>187.85714285714286</ele><time>2026-04-12T08:20:11Z</time></trkpt><trkpt lat="43.60093089186726" lon="6.7811887228117715"><ele>187.57142857142858</ele><time>2026-04-12T08:20:12Z</time></trkpt><trkpt lat="43.60089774056068" lon="6.78127868360966"><ele>187.28571428571428</ele><time>2026-04-12T08:20:13Z</time></trkpt><trkpt lat="43.60086501684154" lon="6.781367787218183"><ele>187.0</ele><time>2026-04-12T08:20:14Z</time></trkpt><trkpt lat="43.60083225780774" lon="6.781457592333481"><ele>187.57142857142856</ele><time>2026-04-12T08:20:15Z</time></trkpt><trkpt lat="43.600797725391075" lon="6.781545246812075"><ele>188.14285714285717</ele><time>2026-04-12T08:20:16Z</time></trkpt><trkpt lat="43.60076426418514" lon="6.781631253121283"><ele>188.71428571428572</ele><time>2026-04-12T08:20:17Z</time></trkpt><trkpt lat="43.60073120630588" lon="6.781716538776435"><ele>189.28571428571428</ele><time>2026-04-12T08:20:18Z</time></trkpt><trkpt lat="43.60069896340596" lon="6.781804530600698"><ele>189.85714285714283</ele><time>2026-04-12T08:20:19Z</time></trkpt><trkpt lat="43.60066710505155" lon="6.781892400068385"><ele>190.42857142857144</ele><time>2026-04-12T08:20:20Z</time></trkpt><trkpt lat="43.600634924860145" lon="6.781978713868208"><ele>191.0</ele><time>2026-04-12T08:20:20.999Z</time></trkpt><trkpt lat="43.60060324021336" lon="6.782063472244378"><ele>191.14285714285714</ele><time>2026-04-12T08:20:21.999Z</time></trkpt><trkpt lat="43.60057017556493" lon="6.782147497276702"><ele>191.28571428571428</ele><time>2026-04-12T08:20:22.999Z</time></trkpt><trkpt lat="43.60053742250528" lon="6.7822308151931106"><ele>191.42857142857142</ele><time>2026-04-12T08:20:23.999Z</time></trkpt><trkpt lat="43.60050466957441" lon="6.782315431394835"><ele>191.57142857142856</ele><time>2026-04-12T08:20:24.999Z</time></trkpt><trkpt lat="43.6004696558416" lon="6.782400283835664"><ele>191.71428571428572</ele><time>2026-04-12T08:20:25.999Z</time></trkpt><trkpt lat="43.600438115837285" lon="6.782484269086784"><ele>191.85714285714283</ele><time>2026-04-12T08:20:26.999Z</time></trkpt><trkpt lat="43.60040646784477" lon="6.7825680511954065"><ele>192.0</ele><time>2026-04-12T08:20:27.999Z</time></trkpt><trkpt lat="43.600377010388506" lon="6.782650637054962"><ele>192.14285714285714</ele><time>2026-04-12T08:20:28.999Z</time></trkpt><trkpt lat="43.6003459260757" lon="6.7827310545177735"><ele>192.28571428571428</ele><time>2026-04-12T08:20:29.999Z</time></trkpt><trkpt lat="43.60031556893218" lon="6.782812222646425"><ele>192.42857142857144</ele><time>2026-04-12T08:20:30.999Z</time></trkpt><trkpt lat="43.60028498318402" lon="6.782890019470215"><ele>192.57142857142856</ele><time>2026-04-12T08:20:31.999Z</time></trkpt><trkpt lat="43.60025395147268" lon="6.782970754174673"><ele>192.71428571428572</ele><time>2026-04-12T08:20:32.999Z</time></trkpt><trkpt lat="43.600225191526235" lon="6.7830503341226915"><ele>192.85714285714286</ele><time>2026-04-12T08:20:33.999Z</time></trkpt><trkpt lat="43.60019547426571" lon="6.783130574431015"><ele>193.0</ele><time>2026-04-12T08:20:34.999Z</time></trkpt><trkpt lat="43.60016581867291" lon="6.78320941333473"><ele>193.0</ele><time>2026-04-12T08:20:35.999Z</time></trkpt><trkpt lat="43.60013731967298" lon="6.7832886784287005"><ele>193.0</ele><time>2026-04-12T08:20:36.999Z</time></trkpt><trkpt lat="43.60007988309024" lon="6.783444606376909"><ele>193.0</ele><time>2026-04-12T08:20:38.999Z</time></trkpt><trkpt lat="43.60002619964596" lon="6.783595337392517"><ele>193.0</ele><time>2026-04-12T08:20:40.999Z</time></trkpt><trkpt lat="43.59997053056224" lon="6.783736876002035"><ele>193.0</ele><time>2026-04-12T08:20:42.999Z</time></trkpt><trkpt lat="43.599919675605484" lon="6.783877390943948"><ele>193.60000000000002</ele><time>2026-04-12T08:20:44.999Z</time></trkpt><trkpt lat="43.599862867678205" lon="6.7840106776418025"><ele>194.20000000000002</ele><time>2026-04-12T08:20:46.999Z</time></trkpt><trkpt lat="43.59981500125246" lon="6.784150694256924"><ele>194.8</ele><time>2026-04-12T08:20:48.999Z</time></trkpt><trkpt lat="43.599763771632944" lon="6.784288125331422"><ele>195.4</ele><time>2026-04-12T08:20:50.999Z</time></trkpt><trkpt lat="43.59971323115004" lon="6.784418908016942"><ele>196.0</ele><time>2026-04-12T08:20:52.999Z</time></trkpt><trkpt lat="43.59966377688973" lon="6.784547973376755"><ele>196.20000000000002</ele><time>2026-04-12T08:20:54.999Z</time></trkpt><trkpt lat="43.59961276030175" lon="6.7846840584845065"><ele>196.4</ele><time>2026-04-12T08:20:56.999Z</time></trkpt><trkpt lat="43.599561590059295" lon="6.784814100911505"><ele>196.6</ele><time>2026-04-12T08:20:58.999Z</time></trkpt><trkpt lat="43.59952056542749" lon="6.784901714835462"><ele>196.8</ele><time>2026-04-12T08:21:01.999Z</time></trkpt><trkpt lat="43.59945076963892" lon="6.785051908572064"><ele>197.0</ele><time>2026-04-12T08:21:02.999Z</time></trkpt><trkpt lat="43.59940224336406" lon="6.785180830608075"><ele>197.6</ele><time>2026-04-12T08:21:04.999Z</time></trkpt><trkpt lat="43.59934511165284" lon="6.78529428242154"><ele>198.2</ele><time>2026-04-12T08:21:06.999Z</time></trkpt><trkpt lat="43.59929127262356" lon="6.785421472497835"><ele>198.8</ele><time>2026-04-12T08:21:08.999Z</time></trkpt><trkpt lat="43.599218676704744" lon="6.785535894925966"><ele>199.4</ele><time>2026-04-12T08:21:10.999Z</time></trkpt><trkpt lat="43.59911239889959" lon="6.785599996036493"><ele>200.0</ele><time>2026-04-12T08:21:12.999Z</time></trkpt><trkpt lat="43.59904770273472" lon="6.785620024942866"><ele>200.0</ele><time>2026-04-12T08:21:13.999Z</time></trkpt><trkpt lat="43.59895060664316" lon="6.7857360807827325"><ele>200.0</ele><time>2026-04-12T08:21:15.999Z</time></trkpt><trkpt lat="43.5988724543425" lon="6.785861039555731"><ele>200.0</ele><time>2026-04-12T08:21:17.999Z</time></trkpt><trkpt lat="43.59880839623414" lon="6.785979589850523"><ele>200.0</ele><time>2026-04-12T08:21:19.999Z</time></trkpt><trkpt lat="43.598706636124426" lon="6.785967280362959"><ele>200.00000000000003</ele><time>2026-04-12T08:21:20.999Z</time></trkpt><trkpt lat="43.59864210039936" lon="6.785978386156125"><ele>200.0</ele><time>2026-04-12T08:21:22Z</time></trkpt><trkpt lat="43.59857446495057" lon="6.785975980081745"><ele>200.0</ele><time>2026-04-12T08:21:23Z</time></trkpt><trkpt lat="43.598501631888595" lon="6.785969448305571"><ele>200.0</ele><time>2026-04-12T08:21:24Z</time></trkpt><trkpt lat="43.59842829027208" lon="6.785958410948548"><ele>200.0</ele><time>2026-04-12T08:21:25Z</time></trkpt><trkpt lat="43.5983518053774" lon="6.78596309093737"><ele>200.00000000000003</ele><time>2026-04-12T08:21:26Z</time></trkpt><trkpt lat="43.59827666987774" lon="6.785971929973646"><ele>200.0</ele><time>2026-04-12T08:21:27Z</time></trkpt><trkpt lat="43.59819722735466" lon="6.785991226379499"><ele>201.16666666666669</ele><time>2026-04-12T08:21:28Z</time></trkpt><trkpt lat="43.59811731914953" lon="6.786013774577756"><ele>202.33333333333334</ele><time>2026-04-12T08:21:29Z</time></trkpt><trkpt lat="43.59803317468083" lon="6.786043428307873"><ele>203.5</ele><time>2026-04-12T08:21:30Z</time></trkpt><trkpt lat="43.597948797474274" lon="6.7860802547942125"><ele>204.66666666666669</ele><time>2026-04-12T08:21:31Z</time></trkpt><trkpt lat="43.59786574530912" lon="6.786121461125157"><ele>205.83333333333334</ele><time>2026-04-12T08:21:32Z</time></trkpt><trkpt lat="43.597781272393945" lon="6.786174550913189"><ele>207.0</ele><time>2026-04-12T08:21:33Z</time></trkpt><trkpt lat="43.597701186209086" lon="6.786231316986322"><ele>207.0</ele><time>2026-04-12T08:21:34Z</time></trkpt><trkpt lat="43.59762489757808" lon="6.78629249197368"><ele>207.0</ele><time>2026-04-12T08:21:35Z</time></trkpt><trkpt lat="43.59755254435264" lon="6.786353936501214"><ele>207.0</ele><time>2026-04-12T08:21:36Z</time></trkpt><trkpt lat="43.597484748107945" lon="6.786414716994096"><ele>207.0</ele><time>2026-04-12T08:21:37Z</time></trkpt><trkpt lat="43.59742486441211" lon="6.786480500011851"><ele>207.0</ele><time>2026-04-12T08:21:38Z</time></trkpt><trkpt lat="43.59736930214891" lon="6.786546901899193"><ele>207.0</ele><time>2026-04-12T08:21:39Z</time></trkpt><trkpt lat="43.59731229831378" lon="6.786611870355731"><ele>207.00000000000003</ele><time>2026-04-12T08:21:40Z</time></trkpt><trkpt lat="43.59725628865" lon="6.786674329779586"><ele>207.0</ele><time>2026-04-12T08:21:41Z</time></trkpt><trkpt lat="43.597199047788465" lon="6.7867393085321455"><ele>207.0</ele><time>2026-04-12T08:21:42Z</time></trkpt><trkpt lat="43.59714323745598" lon="6.786800204330703"><ele>207.0</ele><time>2026-04-12T08:21:43Z</time></trkpt><trkpt lat="43.5970877211438" lon="6.786863011655666"><ele>207.0</ele><time>2026-04-12T08:21:44Z</time></trkpt><trkpt lat="43.597033223705225" lon="6.7869269540911175"><ele>207.00000000000003</ele><time>2026-04-12T08:21:45Z</time></trkpt><trkpt lat="43.596980292809654" lon="6.786992131750909"><ele>207.0</ele><time>2026-04-12T08:21:46Z</time></trkpt><trkpt lat="43.5969265188308" lon="6.787056218655182"><ele>207.14285714285717</ele><time>2026-04-12T08:21:47Z</time></trkpt><trkpt lat="43.59687339306607" lon="6.787122490740913"><ele>207.28571428571428</ele><time>2026-04-12T08:21:48Z</time></trkpt><trkpt lat="43.596819471798725" lon="6.787185817837528"><ele>207.42857142857144</ele><time>2026-04-12T08:21:49Z</time></trkpt><trkpt lat="43.596765167120196" lon="6.787249882002178"><ele>207.57142857142858</ele><time>2026-04-12T08:21:50Z</time></trkpt><trkpt lat="43.59671218053056" lon="6.78731335850999"><ele>207.71428571428572</ele><time>2026-04-12T08:21:51Z</time></trkpt><trkpt lat="43.596662045060135" lon="6.787379017761829"><ele>207.85714285714286</ele><time>2026-04-12T08:21:52Z</time></trkpt><trkpt lat="43.596610408985384" lon="6.787441545409545"><ele>208.0</ele><time>2026-04-12T08:21:53Z</time></trkpt><trkpt lat="43.5965565759232" lon="6.787502086734598"><ele>208.0</ele><time>2026-04-12T08:21:54Z</time></trkpt><trkpt lat="43.596500781040795" lon="6.787564759426486"><ele>208.0</ele><time>2026-04-12T08:21:55Z</time></trkpt><trkpt lat="43.59644586084966" lon="6.787626236459379"><ele>208.0</ele><time>2026-04-12T08:21:56Z</time></trkpt><trkpt lat="43.59639102840575" lon="6.7876856443979605"><ele>208.0</ele><time>2026-04-12T08:21:57Z</time></trkpt><trkpt lat="43.59634041318099" lon="6.78774808905134"><ele>208.0</ele><time>2026-04-12T08:21:58Z</time></trkpt><trkpt lat="43.596284803140556" lon="6.787805864136049"><ele>208.0</ele><time>2026-04-12T08:21:59Z</time></trkpt><trkpt lat="43.596224699540656" lon="6.787855583809275"><ele>208.0</ele><time>2026-04-12T08:22:00Z</time></trkpt><trkpt lat="43.59616438126083" lon="6.787907103871221"><ele>208.42857142857142</ele><time>2026-04-12T08:22:01Z</time></trkpt><trkpt lat="43.59610531340934" lon="6.787956053995067"><ele>208.85714285714286</ele><time>2026-04-12T08:22:02Z</time></trkpt><trkpt lat="43.59604795736232" lon="6.788007467072726"><ele>209.28571428571428</ele><time>2026-04-12T08:22:03Z</time></trkpt><trkpt lat="43.595987078811646" lon="6.788067973889379"><ele>209.71428571428572</ele><time>2026-04-12T08:22:04Z</time></trkpt><trkpt lat="43.59593067690685" lon="6.7881311899490555"><ele>210.14285714285717</ele><time>2026-04-12T08:22:05Z</time></trkpt><trkpt lat="43.59587864864672" lon="6.788204021636145"><ele>210.57142857142858</ele><time>2026-04-12T08:22:06Z</time></trkpt><trkpt lat="43.59583671408246" lon="6.78828968115055"><ele>211.0</ele><time>2026-04-12T08:22:07Z</time></trkpt><trkpt lat="43.59580671513211" lon="6.788385528377832"><ele>210.99999999999997</ele><time>2026-04-12T08:22:08Z</time></trkpt><trkpt lat="43.59579384544151" lon="6.7884872922073445"><ele>211.0</ele><time>2026-04-12T08:22:09Z</time></trkpt><trkpt lat="43.59577943751756" lon="6.788592018938111"><ele>211.0</ele><time>2026-04-12T08:22:10Z</time></trkpt><trkpt lat="43.59574882323252" lon="6.788693371141101"><ele>211.0</ele><time>2026-04-12T08:22:11Z</time></trkpt><trkpt lat="43.59568276949565" lon="6.788774407057872"><ele>210.99999999999997</ele><time>2026-04-12T08:22:12Z</time></trkpt><trkpt lat="43.59558508748924" lon="6.7887887229710575"><ele>211.0</ele><time>2026-04-12T08:22:13Z</time></trkpt><trkpt lat="43.59548372398686" lon="6.788832732827732"><ele>211.20000000000002</ele><time>2026-04-12T08:22:14Z</time></trkpt><trkpt lat="43.59537916024174" lon="6.7888393763323505"><ele>211.4</ele><time>2026-04-12T08:22:15Z</time></trkpt><trkpt lat="43.59527530743697" lon="6.7888633057358625"><ele>211.6</ele><time>2026-04-12T08:22:16Z</time></trkpt><trkpt lat="43.59517341761034" lon="6.788895178971588"><ele>211.8</ele><time>2026-04-12T08:22:17Z</time></trkpt><trkpt lat="43.59506811912579" lon="6.788936438787449"><ele>212.0</ele><time>2026-04-12T08:22:18Z</time></trkpt><trkpt lat="43.59496178222393" lon="6.788980347866363"><ele>209.75</ele><time>2026-04-12T08:22:19Z</time></trkpt><trkpt lat="43.59485021139395" lon="6.789021552913429"><ele>207.5</ele><time>2026-04-12T08:22:20Z</time></trkpt><trkpt lat="43.59473475751204" lon="6.7890648911600815"><ele>205.25</ele><time>2026-04-12T08:22:21Z</time></trkpt><trkpt lat="43.59461276550396" lon="6.789122305756428"><ele>203.0</ele><time>2026-04-12T08:22:22Z</time></trkpt><trkpt lat="43.59449775313084" lon="6.789153155396533"><ele>202.5</ele><time>2026-04-12T08:22:23Z</time></trkpt><trkpt lat="43.59438826379585" lon="6.789207554403992"><ele>202.0</ele><time>2026-04-12T08:22:24Z</time></trkpt><trkpt lat="43.59426178059975" lon="6.789264944111614"><ele>201.5</ele><time>2026-04-12T08:22:25Z</time></trkpt><trkpt lat="43.59414600800549" lon="6.789331599190884"><ele>201.0</ele><time>2026-04-12T08:22:26Z</time></trkpt><trkpt lat="43.59403612762366" lon="6.789405579601985"><ele>198.75</ele><time>2026-04-12T08:22:27Z</time></trkpt><trkpt lat="43.593917341152796" lon="6.7894857117403955"><ele>196.5</ele><time>2026-04-12T08:22:28Z</time></trkpt><trkpt lat="43.59379337440575" lon="6.789519428266066"><ele>194.25</ele><time>2026-04-12T08:22:28.999Z</time></trkpt><trkpt lat="43.59365730692421" lon="6.7895363446505455"><ele>192.0</ele><time>2026-04-12T08:22:29.999Z</time></trkpt><trkpt lat="43.59351974291327" lon="6.7895589274880805"><ele>191.25</ele><time>2026-04-12T08:22:30.999Z</time></trkpt><trkpt lat="43.593379770988996" lon="6.789547941288929"><ele>190.5</ele><time>2026-04-12T08:22:31.999Z</time></trkpt><trkpt lat="43.59323730894106" lon="6.789542879915082"><ele>189.75</ele><time>2026-04-12T08:22:32.999Z</time></trkpt><trkpt lat="43.593092263781934" lon="6.789547668286078"><ele>189.0</ele><time>2026-04-12T08:22:33.999Z</time></trkpt><trkpt lat="43.59295347117447" lon="6.789554965027862"><ele>187.75</ele><time>2026-04-12T08:22:34.999Z</time></trkpt><trkpt lat="43.59281289535716" lon="6.789555951404254"><ele>186.5</ele><time>2026-04-12T08:22:35.999Z</time></trkpt><trkpt lat="43.59267306081038" lon="6.789549372792835"><ele>185.25</ele><time>2026-04-12T08:22:36.999Z</time></trkpt><trkpt lat="43.59253178828809" lon="6.789503505548618"><ele>184.0</ele><time>2026-04-12T08:22:37.999Z</time></trkpt><trkpt lat="43.59240287924165" lon="6.7893869404400595"><ele>184.75</ele><time>2026-04-12T08:22:38.999Z</time></trkpt><trkpt lat="43.592268859220766" lon="6.789303317189375"><ele>185.5</ele><time>2026-04-12T08:22:39.999Z</time></trkpt><trkpt lat="43.59213791659578" lon="6.7892038290107415"><ele>186.25</ele><time>2026-04-12T08:22:40.999Z</time></trkpt><trkpt lat="43.591992422474576" lon="6.789141930362067"><ele>187.0</ele><time>2026-04-12T08:22:41.999Z</time></trkpt><trkpt lat="43.591837062617266" lon="6.789121171005292"><ele>187.0</ele><time>2026-04-12T08:22:42.999Z</time></trkpt><trkpt lat="43.59168013984293" lon="6.789124537080186"><ele>187.0</ele><time>2026-04-12T08:22:43.999Z</time></trkpt><trkpt lat="43.59152474330422" lon="6.789140527280913"><ele>187.0</ele><time>2026-04-12T08:22:44.999Z</time></trkpt><trkpt lat="43.59137169736956" lon="6.789186936938777"><ele>187.0</ele><time>2026-04-12T08:22:45.999Z</time></trkpt><trkpt lat="43.591220816678955" lon="6.7892600007399"><ele>187.0</ele><time>2026-04-12T08:22:46.999Z</time></trkpt><trkpt lat="43.59107761035007" lon="6.789346785588805"><ele>187.0</ele><time>2026-04-12T08:22:47.999Z</time></trkpt><trkpt lat="43.59092491154632" lon="6.78939815257972"><ele>185.0</ele><time>2026-04-12T08:22:48.999Z</time></trkpt><trkpt lat="43.59077589362303" lon="6.789442445727927"><ele>183.0</ele><time>2026-04-12T08:22:49.999Z</time></trkpt><trkpt lat="43.59062203702" lon="6.789464664990525"><ele>181.0</ele><time>2026-04-12T08:22:50.999Z</time></trkpt><trkpt lat="43.59046450861958" lon="6.789488369247672"><ele>179.66666666666669</ele><time>2026-04-12T08:22:51.999Z</time></trkpt><trkpt lat="43.59030515967501" lon="6.789482543190776"><ele>178.33333333333334</ele><time>2026-04-12T08:22:52.999Z</time></trkpt><trkpt lat="43.59014755985804" lon="6.789471942927627"><ele>177.0</ele><time>2026-04-12T08:22:53.999Z</time></trkpt><trkpt lat="43.58998830644819" lon="6.789479275353087"><ele>177.0</ele><time>2026-04-12T08:22:54.999Z</time></trkpt><trkpt lat="43.589827919446996" lon="6.789523583522055"><ele>177.0</ele><time>2026-04-12T08:22:55.999Z</time></trkpt><trkpt lat="43.589677672100315" lon="6.789583659170056"><ele>177.0</ele><time>2026-04-12T08:22:56.999Z</time></trkpt><trkpt lat="43.58953082703779" lon="6.789671128899968"><ele>174.0</ele><time>2026-04-12T08:22:57.999Z</time></trkpt><trkpt lat="43.58939006893459" lon="6.789765347035927"><ele>171.0</ele><time>2026-04-12T08:22:58.999Z</time></trkpt><trkpt lat="43.589258748282724" lon="6.789874441427191"><ele>168.0</ele><time>2026-04-12T08:22:59.999Z</time></trkpt><trkpt lat="43.589137014503905" lon="6.789992730863071"><ele>168.0</ele><time>2026-04-12T08:23:00.999Z</time></trkpt><trkpt lat="43.58902192827162" lon="6.790105362755958"><ele>168.0</ele><time>2026-04-12T08:23:01.999Z</time></trkpt><trkpt lat="43.58891344834617" lon="6.790218476093448"><ele>168.0</ele><time>2026-04-12T08:23:02.999Z</time></trkpt><trkpt lat="43.58880880436763" lon="6.7903199458358205"><ele>168.0</ele><time>2026-04-12T08:23:03.999Z</time></trkpt><trkpt lat="43.58870648157352" lon="6.790406744147161"><ele>168.8</ele><time>2026-04-12T08:23:04.999Z</time></trkpt><trkpt lat="43.58860218618467" lon="6.790474491113675"><ele>169.60000000000002</ele><time>2026-04-12T08:23:05.999Z</time></trkpt><trkpt lat="43.58849315463684" lon="6.790523658914"><ele>170.39999999999998</ele><time>2026-04-12T08:23:06.999Z</time></trkpt><trkpt lat="43.588389289430694" lon="6.790541549320596"><ele>171.2</ele><time>2026-04-12T08:23:07.999Z</time></trkpt><trkpt lat="43.5882861620749" lon="6.790559089291583"><ele>172.0</ele><time>2026-04-12T08:23:08.999Z</time></trkpt><trkpt lat="43.58818879957721" lon="6.790582308383601"><ele>172.0</ele><time>2026-04-12T08:23:09.999Z</time></trkpt><trkpt lat="43.588098154479724" lon="6.7906267653811945"><ele>172.0</ele><time>2026-04-12T08:23:10.999Z</time></trkpt><trkpt lat="43.58801793911572" lon="6.790695789055933"><ele>172.0</ele><time>2026-04-12T08:23:11.999Z</time></trkpt><trkpt lat="43.58795042050688" lon="6.790788202230506"><ele>172.0</ele><time>2026-04-12T08:23:12.999Z</time></trkpt><trkpt lat="43.58789781049578" lon="6.790892598405088"><ele>172.0</ele><time>2026-04-12T08:23:13.999Z</time></trkpt><trkpt lat="43.58785858153296" lon="6.7910009537387195"><ele>171.16666666666669</ele><time>2026-04-12T08:23:14.999Z</time></trkpt><trkpt lat="43.58783704341575" lon="6.791117652399056"><ele>170.33333333333334</ele><time>2026-04-12T08:23:15.999Z</time></trkpt><trkpt lat="43.58783973008982" lon="6.791232948678674"><ele>169.5</ele><time>2026-04-12T08:23:16.999Z</time></trkpt><trkpt lat="43.58785083049471" lon="6.791340533359034"><ele>168.66666666666666</ele><time>2026-04-12T08:23:17.999Z</time></trkpt><trkpt lat="43.587868541627905" lon="6.791443419308073"><ele>167.83333333333331</ele><time>2026-04-12T08:23:18.999Z</time></trkpt><trkpt lat="43.587886806935934" lon="6.791539519731839"><ele>167.0</ele><time>2026-04-12T08:23:19.999Z</time></trkpt><trkpt lat="43.58790405268814" lon="6.79163378918588"><ele>168.71428571428572</ele><time>2026-04-12T08:23:20.999Z</time></trkpt><trkpt lat="43.58791977425409" lon="6.791727408983021"><ele>170.42857142857144</ele><time>2026-04-12T08:23:21.999Z</time></trkpt><trkpt lat="43.587927721023256" lon="6.791819281522238"><ele>172.14285714285717</ele><time>2026-04-12T08:23:22.999Z</time></trkpt><trkpt lat="43.58792322515706" lon="6.791911494209501"><ele>173.85714285714286</ele><time>2026-04-12T08:23:23.999Z</time></trkpt><trkpt lat="43.587908280978304" lon="6.792001936776923"><ele>175.57142857142858</ele><time>2026-04-12T08:23:24.999Z</time></trkpt><trkpt lat="43.587883148962156" lon="6.792088756897568"><ele>177.2857142857143</ele><time>2026-04-12T08:23:25.999Z</time></trkpt><trkpt lat="43.58784803555974" lon="6.7921692613004785"><ele>179.0</ele><time>2026-04-12T08:23:26.999Z</time></trkpt><trkpt lat="43.58776842735341" lon="6.792299335405096"><ele>179.39999999999998</ele><time>2026-04-12T08:23:29Z</time></trkpt><trkpt lat="43.58771250949438" lon="6.792344044489669"><ele>179.8</ele><time>2026-04-12T08:23:30Z</time></trkpt><trkpt lat="43.587593811542966" lon="6.792398284831286"><ele>180.2</ele><time>2026-04-12T08:23:32Z</time></trkpt><trkpt lat="43.587473232113524" lon="6.792403104317525"><ele>180.60000000000002</ele><time>2026-04-12T08:23:34Z</time></trkpt><trkpt lat="43.587356491797905" lon="6.792373062718015"><ele>181.0</ele><time>2026-04-12T08:23:36Z</time></trkpt><trkpt lat="43.587238867619924" lon="6.792348520648037"><ele>181.0</ele><time>2026-04-12T08:23:38Z</time></trkpt><trkpt lat="43.587125406188036" lon="6.792320943650625"><ele>181.0</ele><time>2026-04-12T08:23:40Z</time></trkpt><trkpt lat="43.587013027122936" lon="6.7923114685363535"><ele>181.0</ele><time>2026-04-12T08:23:42Z</time></trkpt><trkpt lat="43.58690832635829" lon="6.792348373174681"><ele>181.0</ele><time>2026-04-12T08:23:44Z</time></trkpt><trkpt lat="43.58680594311381" lon="6.792411156304786"><ele>181.0</ele><time>2026-04-12T08:23:46Z</time></trkpt><trkpt lat="43.58672178174677" lon="6.792503562922847"><ele>181.4</ele><time>2026-04-12T08:23:48Z</time></trkpt><trkpt lat="43.58665520911934" lon="6.792620493341318"><ele>181.8</ele><time>2026-04-12T08:23:50Z</time></trkpt><trkpt lat="43.58660371833564" lon="6.792758290711758"><ele>182.20000000000002</ele><time>2026-04-12T08:23:52Z</time></trkpt><trkpt lat="43.58657931675497" lon="6.792923500968596"><ele>182.60000000000002</ele><time>2026-04-12T08:23:54Z</time></trkpt><trkpt lat="43.5865729995938" lon="6.793010688634318"><ele>183.0</ele><time>2026-04-12T08:23:55Z</time></trkpt><trkpt lat="43.586579446297776" lon="6.793103287984869"><ele>183.0</ele><time>2026-04-12T08:23:56Z</time></trkpt><trkpt lat="43.586583692357344" lon="6.793191379653074"><ele>183.0</ele><time>2026-04-12T08:23:57Z</time></trkpt><trkpt lat="43.58659557602049" lon="6.793281983253146"><ele>183.0</ele><time>2026-04-12T08:23:58Z</time></trkpt><trkpt lat="43.58660673289151" lon="6.793374726551612"><ele>183.0</ele><time>2026-04-12T08:23:59Z</time></trkpt><trkpt lat="43.58661466810899" lon="6.793469000389653"><ele>183.0</ele><time>2026-04-12T08:24:00Z</time></trkpt><trkpt lat="43.58662059519843" lon="6.793564205486851"><ele>183.0</ele><time>2026-04-12T08:24:01Z</time></trkpt><trkpt lat="43.586618229627824" lon="6.793657522832761"><ele>183.0</ele><time>2026-04-12T08:24:02Z</time></trkpt><trkpt lat="43.5866121798749" lon="6.793753203522913"><ele>184.33333333333334</ele><time>2026-04-12T08:24:03Z</time></trkpt><trkpt lat="43.58659926479102" lon="6.793849457743014"><ele>185.66666666666666</ele><time>2026-04-12T08:24:04Z</time></trkpt><trkpt lat="43.58657954884134" lon="6.7939478524616685"><ele>187.0</ele><time>2026-04-12T08:24:05Z</time></trkpt><trkpt lat="43.58654417627501" lon="6.794038955373274"><ele>188.33333333333331</ele><time>2026-04-12T08:24:06Z</time></trkpt><trkpt lat="43.58649749877585" lon="6.794123330304443"><ele>189.66666666666666</ele><time>2026-04-12T08:24:07Z</time></trkpt><trkpt lat="43.586447842063095" lon="6.794205071833006"><ele>191.0</ele><time>2026-04-12T08:24:08Z</time></trkpt><trkpt lat="43.586389114110126" lon="6.794278941101989"><ele>191.0</ele><time>2026-04-12T08:24:09Z</time></trkpt><trkpt lat="43.586320726182755" lon="6.794337305519129"><ele>191.0</ele><time>2026-04-12T08:24:10Z</time></trkpt><trkpt lat="43.58624296731832" lon="6.794383251970806"><ele>191.0</ele><time>2026-04-12T08:24:11Z</time></trkpt><trkpt lat="43.5861625938193" lon="6.79442021937493"><ele>191.0</ele><time>2026-04-12T08:24:12Z</time></trkpt><trkpt lat="43.586079363457785" lon="6.794458929477611"><ele>191.0</ele><time>2026-04-12T08:24:13Z</time></trkpt><trkpt lat="43.58599577491886" lon="6.794511365378873"><ele>191.0</ele><time>2026-04-12T08:24:14Z</time></trkpt><trkpt lat="43.58591889547489" lon="6.794580964262098"><ele>190.20000000000002</ele><time>2026-04-12T08:24:15Z</time></trkpt><trkpt lat="43.585844623614356" lon="6.794658984339091"><ele>189.4</ele><time>2026-04-12T08:24:16Z</time></trkpt><trkpt lat="43.58577477104246" lon="6.794749069414354"><ele>188.6</ele><time>2026-04-12T08:24:17Z</time></trkpt><trkpt lat="43.585707140854915" lon="6.794852149716704"><ele>187.8</ele><time>2026-04-12T08:24:18Z</time></trkpt><trkpt lat="43.585639683682196" lon="6.794961095331328"><ele>187.0</ele><time>2026-04-12T08:24:19Z</time></trkpt><trkpt lat="43.585575680901385" lon="6.795081074818989"><ele>189.25</ele><time>2026-04-12T08:24:20Z</time></trkpt><trkpt lat="43.585517436659636" lon="6.795213698419317"><ele>191.5</ele><time>2026-04-12T08:24:21Z</time></trkpt><trkpt lat="43.58545947959144" lon="6.79534993012501"><ele>193.75</ele><time>2026-04-12T08:24:22Z</time></trkpt><trkpt lat="43.585398250182905" lon="6.7954855866356"><ele>196.0</ele><time>2026-04-12T08:24:23Z</time></trkpt><trkpt lat="43.585338115450966" lon="6.795623316241804"><ele>189.75</ele><time>2026-04-12T08:24:24Z</time></trkpt><trkpt lat="43.58527479316904" lon="6.795760766642442"><ele>183.5</ele><time>2026-04-12T08:24:25Z</time></trkpt><trkpt lat="43.585210490594605" lon="6.795900158939892"><ele>177.25</ele><time>2026-04-12T08:24:26Z</time></trkpt><trkpt lat="43.58514641055981" lon="6.796041818512642"><ele>171.0</ele><time>2026-04-12T08:24:27Z</time></trkpt><trkpt lat="43.58508066563011" lon="6.79618090457486"><ele>171.0</ele><time>2026-04-12T08:24:28Z</time></trkpt><trkpt lat="43.585017772045006" lon="6.796324527586677"><ele>171.0</ele><time>2026-04-12T08:24:29Z</time></trkpt><trkpt lat="43.58495925729166" lon="6.796470863455199"><ele>171.0</ele><time>2026-04-12T08:24:30Z</time></trkpt><trkpt lat="43.58491374407923" lon="6.796633552955572"><ele>171.0</ele><time>2026-04-12T08:24:31Z</time></trkpt><trkpt lat="43.58489306682248" lon="6.796809284580529"><ele>170.5</ele><time>2026-04-12T08:24:32Z</time></trkpt><trkpt lat="43.58488098741698" lon="6.796989032560187"><ele>170.0</ele><time>2026-04-12T08:24:32.999Z</time></trkpt><trkpt lat="43.58487839179582" lon="6.797171257688868"><ele>169.5</ele><time>2026-04-12T08:24:33.999Z</time></trkpt><trkpt lat="43.584882163322746" lon="6.797351877682975"><ele>169.0</ele><time>2026-04-12T08:24:34.999Z</time></trkpt><trkpt lat="43.58489985269227" lon="6.797535962255142"><ele>168.25</ele><time>2026-04-12T08:24:35.999Z</time></trkpt><trkpt lat="43.58493085135177" lon="6.797715027936356"><ele>167.5</ele><time>2026-04-12T08:24:36.999Z</time></trkpt><trkpt lat="43.584968636521545" lon="6.797897526411053"><ele>166.75</ele><time>2026-04-12T08:24:37.999Z</time></trkpt><trkpt lat="43.58500348295028" lon="6.798076557725545"><ele>166.0</ele><time>2026-04-12T08:24:38.999Z</time></trkpt><trkpt lat="43.585041677076134" lon="6.798266322974141"><ele>166.0</ele><time>2026-04-12T08:24:39.999Z</time></trkpt><trkpt lat="43.58507459282777" lon="6.798458101238033"><ele>166.0</ele><time>2026-04-12T08:24:40.999Z</time></trkpt><trkpt lat="43.58508313674415" lon="6.798648925856425"><ele>166.0</ele><time>2026-04-12T08:24:41.999Z</time></trkpt><trkpt lat="43.58505872098627" lon="6.798847586506806"><ele>166.0</ele><time>2026-04-12T08:24:42.999Z</time></trkpt><trkpt lat="43.58499405545187" lon="6.799033146253785"><ele>165.75</ele><time>2026-04-12T08:24:43.999Z</time></trkpt><trkpt lat="43.58490634706791" lon="6.799195815443865"><ele>165.5</ele><time>2026-04-12T08:24:44.999Z</time></trkpt><trkpt lat="43.584813219674956" lon="6.7993490491190345"><ele>165.25</ele><time>2026-04-12T08:24:45.999Z</time></trkpt><trkpt lat="43.58472941500467" lon="6.799512445516203"><ele>165.0</ele><time>2026-04-12T08:24:46.999Z</time></trkpt><trkpt lat="43.58464420586632" lon="6.799672653891723"><ele>165.5</ele><time>2026-04-12T08:24:47.999Z</time></trkpt><trkpt lat="43.58455839378666" lon="6.799832307724731"><ele>166.0</ele><time>2026-04-12T08:24:48.999Z</time></trkpt><trkpt lat="43.584476829243634" lon="6.799993798696093"><ele>166.5</ele><time>2026-04-12T08:24:49.999Z</time></trkpt><trkpt lat="43.58439404449514" lon="6.800156634249546"><ele>167.0</ele><time>2026-04-12T08:24:50.999Z</time></trkpt><trkpt lat="43.58430964132122" lon="6.800316741935986"><ele>163.0</ele><time>2026-04-12T08:24:51.999Z</time></trkpt><trkpt lat="43.584227755816116" lon="6.8004731531561555"><ele>159.0</ele><time>2026-04-12T08:24:52.999Z</time></trkpt><trkpt lat="43.58414801337782" lon="6.800625545123919"><ele>155.0</ele><time>2026-04-12T08:24:53.999Z</time></trkpt><trkpt lat="43.58406903422128" lon="6.800774114982691"><ele>151.0</ele><time>2026-04-12T08:24:54.999Z</time></trkpt><trkpt lat="43.58399214649421" lon="6.800919696264723"><ele>149.75</ele><time>2026-04-12T08:24:55.999Z</time></trkpt><trkpt lat="43.58391598815204" lon="6.801061782395472"><ele>148.5</ele><time>2026-04-12T08:24:56.999Z</time></trkpt><trkpt lat="43.58384189583586" lon="6.8011960330634285"><ele>147.25</ele><time>2026-04-12T08:24:57.999Z</time></trkpt><trkpt lat="43.58377104192848" lon="6.801326731342745"><ele>146.0</ele><time>2026-04-12T08:24:58.999Z</time></trkpt><trkpt lat="43.58370018436976" lon="6.801456918928569"><ele>145.75</ele><time>2026-04-12T08:24:59.999Z</time></trkpt><trkpt lat="43.58362987611163" lon="6.801584839054424"><ele>145.5</ele><time>2026-04-12T08:25:00.999Z</time></trkpt><trkpt lat="43.583560615293024" lon="6.801712241530512"><ele>145.25</ele><time>2026-04-12T08:25:01.999Z</time></trkpt><trkpt lat="43.58349269758817" lon="6.801842282402751"><ele>145.0</ele><time>2026-04-12T08:25:02.999Z</time></trkpt><trkpt lat="43.583424103104655" lon="6.801971692356412"><ele>145.0</ele><time>2026-04-12T08:25:03.999Z</time></trkpt><trkpt lat="43.58335675715633" lon="6.802103266575185"><ele>145.0</ele><time>2026-04-12T08:25:04.999Z</time></trkpt><trkpt lat="43.583291710684534" lon="6.802232130785779"><ele>145.0</ele><time>2026-04-12T08:25:05.999Z</time></trkpt><trkpt lat="43.5832270560724" lon="6.802356224181439"><ele>145.0</ele><time>2026-04-12T08:25:06.999Z</time></trkpt><trkpt lat="43.58316101149824" lon="6.802477250587878"><ele>145.0</ele><time>2026-04-12T08:25:07.999Z</time></trkpt><trkpt lat="43.58309442972993" lon="6.802595901439547"><ele>145.0</ele><time>2026-04-12T08:25:08.999Z</time></trkpt><trkpt lat="43.583029284001924" lon="6.802717568089281"><ele>145.0</ele><time>2026-04-12T08:25:09.999Z</time></trkpt><trkpt lat="43.58296748900223" lon="6.802838973853972"><ele>145.0</ele><time>2026-04-12T08:25:10.999Z</time></trkpt><trkpt lat="43.58290530179219" lon="6.802959564844824"><ele>145.0</ele><time>2026-04-12T08:25:11.999Z</time></trkpt><trkpt lat="43.58284348806313" lon="6.803080450000875"><ele>145.0</ele><time>2026-04-12T08:25:12.999Z</time></trkpt><trkpt lat="43.58277859344815" lon="6.803197893436971"><ele>145.0</ele><time>2026-04-12T08:25:13.999Z</time></trkpt><trkpt lat="43.582715780614706" lon="6.8033139783171075"><ele>145.0</ele><time>2026-04-12T08:25:14.999Z</time></trkpt><trkpt lat="43.582653304398576" lon="6.803433593035755"><ele>145.0</ele><time>2026-04-12T08:25:15.999Z</time></trkpt><trkpt lat="43.582592500529685" lon="6.803551128300656"><ele>145.0</ele><time>2026-04-12T08:25:16.999Z</time></trkpt><trkpt lat="43.582530962983284" lon="6.803667362674318"><ele>145.2</ele><time>2026-04-12T08:25:17.999Z</time></trkpt><trkpt lat="43.58246859732761" lon="6.803781721429234"><ele>145.4</ele><time>2026-04-12T08:25:18.999Z</time></trkpt><trkpt lat="43.58240629784458" lon="6.803901390164464"><ele>145.6</ele><time>2026-04-12T08:25:19.999Z</time></trkpt><trkpt lat="43.58234515140457" lon="6.804019379359817"><ele>145.8</ele><time>2026-04-12T08:25:20.999Z</time></trkpt><trkpt lat="43.58228501919576" lon="6.80413767210494"><ele>146.0</ele><time>2026-04-12T08:25:21.999Z</time></trkpt><trkpt lat="43.58222280458104" lon="6.804252784344842"><ele>147.2</ele><time>2026-04-12T08:25:22.999Z</time></trkpt><trkpt lat="43.582159479078605" lon="6.804369094435756"><ele>148.39999999999998</ele><time>2026-04-12T08:25:23.999Z</time></trkpt><trkpt lat="43.58209803305121" lon="6.80448498597001"><ele>149.6</ele><time>2026-04-12T08:25:24.999Z</time></trkpt><trkpt lat="43.58203664129457" lon="6.8046037776931705"><ele>150.79999999999998</ele><time>2026-04-12T08:25:25.999Z</time></trkpt><trkpt lat="43.5819738910317" lon="6.804718085199141"><ele>152.0</ele><time>2026-04-12T08:25:26.999Z</time></trkpt><trkpt lat="43.58190960929061" lon="6.804830016140693"><ele>152.0</ele><time>2026-04-12T08:25:27.999Z</time></trkpt><trkpt lat="43.58184635625041" lon="6.8049393810256396"><ele>152.0</ele><time>2026-04-12T08:25:28.999Z</time></trkpt><trkpt lat="43.58178597370096" lon="6.805052325719976"><ele>152.0</ele><time>2026-04-12T08:25:29.999Z</time></trkpt><trkpt lat="43.581730480084104" lon="6.805165876319392"><ele>152.0</ele><time>2026-04-12T08:25:30.999Z</time></trkpt><trkpt lat="43.58168218454746" lon="6.805281727437647"><ele>152.0</ele><time>2026-04-12T08:25:31.999Z</time></trkpt><trkpt lat="43.58165430808442" lon="6.805405536196709"><ele>152.0</ele><time>2026-04-12T08:25:32.999Z</time></trkpt><trkpt lat="43.581649102054925" lon="6.805538828075406"><ele>152.0</ele><time>2026-04-12T08:25:34Z</time></trkpt><trkpt lat="43.58165444060104" lon="6.805674684188608"><ele>152.0</ele><time>2026-04-12T08:25:35Z</time></trkpt><trkpt lat="43.58167258530757" lon="6.805805434377287"><ele>152.0</ele><time>2026-04-12T08:25:36Z</time></trkpt><trkpt lat="43.581695348179245" lon="6.805931332199666"><ele>152.0</ele><time>2026-04-12T08:25:37Z</time></trkpt><trkpt lat="43.58173173785761" lon="6.806052964555827"><ele>152.0</ele><time>2026-04-12T08:25:38Z</time></trkpt><trkpt lat="43.58178203892935" lon="6.806168467438014"><ele>152.0</ele><time>2026-04-12T08:25:39Z</time></trkpt><trkpt lat="43.581837020060036" lon="6.806276900599953"><ele>152.0</ele><time>2026-04-12T08:25:40Z</time></trkpt><trkpt lat="43.58189592107168" lon="6.806384470901415"><ele>152.0</ele><time>2026-04-12T08:25:41Z</time></trkpt><trkpt lat="43.581952540418655" lon="6.806490127030382"><ele>152.0</ele><time>2026-04-12T08:25:42Z</time></trkpt><trkpt lat="43.58200135461308" lon="6.806602023922181"><ele>153.6</ele><time>2026-04-12T08:25:43Z</time></trkpt><trkpt lat="43.58203701641877" lon="6.806726678583218"><ele>155.2</ele><time>2026-04-12T08:25:44Z</time></trkpt><trkpt lat="43.58206481000147" lon="6.806857254911754"><ele>156.8</ele><time>2026-04-12T08:25:45Z</time></trkpt><trkpt lat="43.58208301866029" lon="6.806992365148022"><ele>158.4</ele><time>2026-04-12T08:25:46Z</time></trkpt><trkpt lat="43.5820875347994" lon="6.8071261557629645"><ele>160.0</ele><time>2026-04-12T08:25:47Z</time></trkpt><trkpt lat="43.58208338252049" lon="6.807259487218962"><ele>160.0</ele><time>2026-04-12T08:25:48Z</time></trkpt><trkpt lat="43.58206896464908" lon="6.807385351389695"><ele>160.0</ele><time>2026-04-12T08:25:49Z</time></trkpt><trkpt lat="43.58204717270111" lon="6.807509681656836"><ele>160.0</ele><time>2026-04-12T08:25:50Z</time></trkpt><trkpt lat="43.582025948180394" lon="6.807628053316281"><ele>160.0</ele><time>2026-04-12T08:25:51Z</time></trkpt><trkpt lat="43.582010439851246" lon="6.807747546452942"><ele>160.0</ele><time>2026-04-12T08:25:52Z</time></trkpt><trkpt lat="43.581997988755106" lon="6.807867656627205"><ele>160.0</ele><time>2026-04-12T08:25:53Z</time></trkpt><trkpt lat="43.58198186057779" lon="6.807986003249403"><ele>159.16666666666669</ele><time>2026-04-12T08:25:54Z</time></trkpt><trkpt lat="43.581965106779975" lon="6.808104880472364"><ele>158.33333333333334</ele><time>2026-04-12T08:25:55Z</time></trkpt><trkpt lat="43.5819528804109" lon="6.80822760651858"><ele>157.5</ele><time>2026-04-12T08:25:56Z</time></trkpt><trkpt lat="43.58193784863821" lon="6.808353806279327"><ele>156.66666666666666</ele><time>2026-04-12T08:25:57Z</time></trkpt><trkpt lat="43.58193392369889" lon="6.8084814572358745"><ele>155.83333333333331</ele><time>2026-04-12T08:25:58Z</time></trkpt><trkpt lat="43.58192521930151" lon="6.808600024213292"><ele>155.0</ele><time>2026-04-12T08:25:59Z</time></trkpt><trkpt lat="43.58193163072754" lon="6.808730872685895"><ele>154.8</ele><time>2026-04-12T08:26:00Z</time></trkpt><trkpt lat="43.58193855576111" lon="6.808860714738716"><ele>154.6</ele><time>2026-04-12T08:26:01Z</time></trkpt><trkpt lat="43.58195161274874" lon="6.808989796993724"><ele>154.4</ele><time>2026-04-12T08:26:02Z</time></trkpt><trkpt lat="43.58197152005762" lon="6.8091168115140475"><ele>154.2</ele><time>2026-04-12T08:26:03Z</time></trkpt><trkpt lat="43.582002722252376" lon="6.8092453188255115"><ele>154.0</ele><time>2026-04-12T08:26:04Z</time></trkpt><trkpt lat="43.58204001445344" lon="6.809370881623165"><ele>155.4</ele><time>2026-04-12T08:26:05Z</time></trkpt><trkpt lat="43.5820783802585" lon="6.809494955651778"><ele>156.8</ele><time>2026-04-12T08:26:06Z</time></trkpt><trkpt lat="43.582115016783874" lon="6.8096216079922165"><ele>158.20000000000002</ele><time>2026-04-12T08:26:07Z</time></trkpt><trkpt lat="43.58215290872698" lon="6.809748680344095"><ele>159.60000000000002</ele><time>2026-04-12T08:26:08Z</time></trkpt><trkpt lat="43.58218792037221" lon="6.809876565568493"><ele>161.0</ele><time>2026-04-12T08:26:09Z</time></trkpt><trkpt lat="43.582224571226284" lon="6.8100062618410995"><ele>161.0</ele><time>2026-04-12T08:26:10Z</time></trkpt><trkpt lat="43.58225542818937" lon="6.810140440158456"><ele>161.0</ele><time>2026-04-12T08:26:11Z</time></trkpt><trkpt lat="43.582285946281296" lon="6.8102783605804005"><ele>161.0</ele><time>2026-04-12T08:26:12Z</time></trkpt><trkpt lat="43.58232213369742" lon="6.810414335518191"><ele>161.0</ele><time>2026-04-12T08:26:13Z</time></trkpt><trkpt lat="43.58235456253043" lon="6.810550770968491"><ele>161.0</ele><time>2026-04-12T08:26:14Z</time></trkpt><trkpt lat="43.58237927090968" lon="6.81068841652356"><ele>160.8</ele><time>2026-04-12T08:26:15Z</time></trkpt><trkpt lat="43.582388342073266" lon="6.810833722721155"><ele>160.60000000000002</ele><time>2026-04-12T08:26:16Z</time></trkpt><trkpt lat="43.58237797759355" lon="6.8109789187240874"><ele>160.4</ele><time>2026-04-12T08:26:17Z</time></trkpt><trkpt lat="43.58235528890672" lon="6.811117763868901"><ele>160.2</ele><time>2026-04-12T08:26:18Z</time></trkpt><trkpt lat="43.58232398174785" lon="6.811242838556633"><ele>160.0</ele><time>2026-04-12T08:26:19Z</time></trkpt><trkpt lat="43.58227420726781" lon="6.811347863170739"><ele>159.8</ele><time>2026-04-12T08:26:20Z</time></trkpt><trkpt lat="43.58224676403112" lon="6.811437698332768"><ele>159.6</ele><time>2026-04-12T08:26:21Z</time></trkpt><trkpt lat="43.58238685333296" lon="6.811580160847105"><ele>159.4</ele><time>2026-04-12T08:26:22Z</time></trkpt><trkpt lat="43.58247047115903" lon="6.811655622439956"><ele>159.2</ele><time>2026-04-12T08:26:23Z</time></trkpt><trkpt lat="43.58254436867896" lon="6.811737782263198"><ele>159.0</ele><time>2026-04-12T08:26:24Z</time></trkpt><trkpt lat="43.58260800438267" lon="6.811826293315977"><ele>159.0</ele><time>2026-04-12T08:26:25Z</time></trkpt><trkpt lat="43.582682087328905" lon="6.81189918395262"><ele>159.0</ele><time>2026-04-12T08:26:26Z</time></trkpt><trkpt lat="43.582760685303455" lon="6.811956676302362"><ele>159.0</ele><time>2026-04-12T08:26:27Z</time></trkpt><trkpt lat="43.58284373836364" lon="6.811999005886342"><ele>159.0</ele><time>2026-04-12T08:26:28Z</time></trkpt><trkpt lat="43.58292495417701" lon="6.81201868036565"><ele>159.0</ele><time>2026-04-12T08:26:29Z</time></trkpt><trkpt lat="43.58300702822046" lon="6.812025017067899"><ele>159.0</ele><time>2026-04-12T08:26:30Z</time></trkpt><trkpt lat="43.58308200349751" lon="6.8120281216181775"><ele>159.83333333333334</ele><time>2026-04-12T08:26:31Z</time></trkpt><trkpt lat="43.58315496553989" lon="6.81204233227554"><ele>160.66666666666666</ele><time>2026-04-12T08:26:32Z</time></trkpt><trkpt lat="43.58322276958267" lon="6.812067164837313"><ele>161.5</ele><time>2026-04-12T08:26:33Z</time></trkpt><trkpt lat="43.58329001206494" lon="6.812110443617781"><ele>162.33333333333331</ele><time>2026-04-12T08:26:34Z</time></trkpt><trkpt lat="43.583347004716266" lon="6.812158180490704"><ele>163.16666666666666</ele><time>2026-04-12T08:26:35Z</time></trkpt><trkpt lat="43.5834427935667" lon="6.812260904779471"><ele>164.0</ele><time>2026-04-12T08:26:37Z</time></trkpt><trkpt lat="43.58353379631641" lon="6.812369204628667"><ele>164.0</ele><time>2026-04-12T08:26:39Z</time></trkpt><trkpt lat="43.58361375277369" lon="6.812482031669027"><ele>164.0</ele><time>2026-04-12T08:26:40.999Z</time></trkpt><trkpt lat="43.583678552142885" lon="6.8126004036014995"><ele>164.0</ele><time>2026-04-12T08:26:42.999Z</time></trkpt><trkpt lat="43.583735371996305" lon="6.812720008574058"><ele>164.0</ele><time>2026-04-12T08:26:44.999Z</time></trkpt><trkpt lat="43.583767735835515" lon="6.8128571318155275"><ele>164.0</ele><time>2026-04-12T08:26:46.999Z</time></trkpt><trkpt lat="43.583773667205115" lon="6.812997998792087"><ele>164.6</ele><time>2026-04-12T08:26:48.999Z</time></trkpt><trkpt lat="43.583762519384116" lon="6.81314050605552"><ele>165.2</ele><time>2026-04-12T08:26:50.999Z</time></trkpt><trkpt lat="43.58371435042936" lon="6.81324461346"><ele>165.79999999999998</ele><time>2026-04-12T08:26:53.999Z</time></trkpt><trkpt lat="43.58365329702568" lon="6.8133640258832475"><ele>166.39999999999998</ele><time>2026-04-12T08:26:54.999Z</time></trkpt><trkpt lat="43.58358449525336" lon="6.813453855945914"><ele>167.0</ele><time>2026-04-12T08:26:56.999Z</time></trkpt><trkpt lat="43.58352359184927" lon="6.813551506843278"><ele>168.0</ele><time>2026-04-12T08:26:58.999Z</time></trkpt><trkpt lat="43.58345890075989" lon="6.813635292311422"><ele>169.0</ele><time>2026-04-12T08:27:00.999Z</time></trkpt><trkpt lat="43.58340289640471" lon="6.813736331010056"><ele>170.0</ele><time>2026-04-12T08:27:02.999Z</time></trkpt><trkpt lat="43.58335150707712" lon="6.813840621662921"><ele>171.0</ele><time>2026-04-12T08:27:04.999Z</time></trkpt><trkpt lat="43.58331105524452" lon="6.813963053521872"><ele>172.0</ele><time>2026-04-12T08:27:06.999Z</time></trkpt><trkpt lat="43.58327721483139" lon="6.814091638325374"><ele>172.0</ele><time>2026-04-12T08:27:08.999Z</time></trkpt><trkpt lat="43.58328390561598" lon="6.81425219260036"><ele>172.0</ele><time>2026-04-12T08:27:10.999Z</time></trkpt><trkpt lat="43.58328654085702" lon="6.814339072374712"><ele>172.0</ele><time>2026-04-12T08:27:11.999Z</time></trkpt><trkpt lat="43.58333509379783" lon="6.8144985264019295"><ele>172.0</ele><time>2026-04-12T08:27:13.999Z</time></trkpt><trkpt lat="43.583383953492906" lon="6.814662701213681"><ele>172.0</ele><time>2026-04-12T08:27:15.999Z</time></trkpt><trkpt lat="43.58341113867361" lon="6.814747325588585"><ele>173.16666666666669</ele><time>2026-04-12T08:27:16.999Z</time></trkpt><trkpt lat="43.58347898728569" lon="6.8148986052525595"><ele>174.33333333333334</ele><time>2026-04-12T08:27:18.999Z</time></trkpt><trkpt lat="43.583522556991696" lon="6.814969213885845"><ele>175.5</ele><time>2026-04-12T08:27:19.999Z</time></trkpt><trkpt lat="43.58356682729743" lon="6.815032357837833"><ele>176.66666666666666</ele><time>2026-04-12T08:27:20.999Z</time></trkpt><trkpt lat="43.583613455118574" lon="6.815100031849254"><ele>177.83333333333331</ele><time>2026-04-12T08:27:21.999Z</time></trkpt><trkpt lat="43.58365398544191" lon="6.815174966088818"><ele>179.0</ele><time>2026-04-12T08:27:22.999Z</time></trkpt><trkpt lat="43.58369398579481" lon="6.815255271823111"><ele>179.00000000000003</ele><time>2026-04-12T08:27:23.999Z</time></trkpt><trkpt lat="43.583730389184495" lon="6.815341914808085"><ele>179.0</ele><time>2026-04-12T08:27:24.999Z</time></trkpt><trkpt lat="43.583765207310975" lon="6.81542575018934"><ele>179.0</ele><time>2026-04-12T08:27:25.999Z</time></trkpt><trkpt lat="43.58380974349091" lon="6.815504395103721"><ele>179.0</ele><time>2026-04-12T08:27:26.999Z</time></trkpt><trkpt lat="43.58386493205855" lon="6.815573121711818"><ele>179.0</ele><time>2026-04-12T08:27:27.999Z</time></trkpt><trkpt lat="43.583930957907064" lon="6.815624876675311"><ele>179.00000000000003</ele><time>2026-04-12T08:27:28.999Z</time></trkpt><trkpt lat="43.58399788862817" lon="6.815665218675247"><ele>179.0</ele><time>2026-04-12T08:27:29.999Z</time></trkpt><trkpt lat="43.58406480094777" lon="6.815710306591645"><ele>179.0</ele><time>2026-04-12T08:27:30.999Z</time></trkpt><trkpt lat="43.58412374537195" lon="6.815773025010362"><ele>179.0</ele><time>2026-04-12T08:27:31.999Z</time></trkpt><trkpt lat="43.58415396259523" lon="6.815880826161115"><ele>179.0</ele><time>2026-04-12T08:27:32.999Z</time></trkpt><trkpt lat="43.58420288305111" lon="6.81596691485035"><ele>179.0</ele><time>2026-04-12T08:27:33.999Z</time></trkpt><trkpt lat="43.58426210204003" lon="6.816045031543413"><ele>179.0</ele><time>2026-04-12T08:27:34.999Z</time></trkpt><trkpt lat="43.58435011859323" lon="6.816092794400918"><ele>179.0</ele><time>2026-04-12T08:27:35.999Z</time></trkpt><trkpt lat="43.584448316932544" lon="6.816034155542023"><ele>178.83333333333331</ele><time>2026-04-12T08:27:36.999Z</time></trkpt><trkpt lat="43.584527903311475" lon="6.816005535346286"><ele>178.66666666666666</ele><time>2026-04-12T08:27:37.999Z</time></trkpt><trkpt lat="43.58459870746776" lon="6.815969195838139"><ele>178.5</ele><time>2026-04-12T08:27:38.999Z</time></trkpt><trkpt lat="43.58466906579284" lon="6.815929616586651"><ele>178.33333333333334</ele><time>2026-04-12T08:27:40Z</time></trkpt><trkpt lat="43.584741090298635" lon="6.815892441277335"><ele>178.16666666666669</ele><time>2026-04-12T08:27:41Z</time></trkpt><trkpt lat="43.58481098275791" lon="6.815859059664522"><ele>178.0</ele><time>2026-04-12T08:27:42Z</time></trkpt><trkpt lat="43.5848803772044" lon="6.815829712504612"><ele>177.99999999999997</ele><time>2026-04-12T08:27:43Z</time></trkpt><trkpt lat="43.58494989100679" lon="6.815815180139558"><ele>178.0</ele><time>2026-04-12T08:27:44Z</time></trkpt><trkpt lat="43.58502188811912" lon="6.815827870039104"><ele>178.0</ele><time>2026-04-12T08:27:45Z</time></trkpt><trkpt lat="43.58508755461247" lon="6.815877794321"><ele>178.0</ele><time>2026-04-12T08:27:46Z</time></trkpt><trkpt lat="43.58513557149486" lon="6.815963507379625"><ele>178.0</ele><time>2026-04-12T08:27:47Z</time></trkpt><trkpt lat="43.58519933885594" lon="6.816014315627582"><ele>177.99999999999997</ele><time>2026-04-12T08:27:48Z</time></trkpt><trkpt lat="43.585240890934436" lon="6.816093279721633"><ele>178.0</ele><time>2026-04-12T08:27:49Z</time></trkpt><trkpt lat="43.58529909945573" lon="6.816146156327088"><ele>179.7142857142857</ele><time>2026-04-12T08:27:50Z</time></trkpt><trkpt lat="43.585373663042915" lon="6.816162566620075"><ele>181.42857142857142</ele><time>2026-04-12T08:27:51Z</time></trkpt><trkpt lat="43.58543698823363" lon="6.816205519213279"><ele>183.14285714285714</ele><time>2026-04-12T08:27:52Z</time></trkpt><trkpt lat="43.58549894926127" lon="6.816253524816289"><ele>184.85714285714283</ele><time>2026-04-12T08:27:53Z</time></trkpt><trkpt lat="43.5855611126857" lon="6.81630182700797"><ele>186.57142857142858</ele><time>2026-04-12T08:27:54Z</time></trkpt><trkpt lat="43.58562460663959" lon="6.816347354536963"><ele>188.28571428571428</ele><time>2026-04-12T08:27:55Z</time></trkpt><trkpt lat="43.5856863047955" lon="6.8164001655740565"><ele>190.0</ele><time>2026-04-12T08:27:56Z</time></trkpt><trkpt lat="43.58573691715271" lon="6.816468544652105"><ele>190.0</ele><time>2026-04-12T08:27:57Z</time></trkpt><trkpt lat="43.585794223752615" lon="6.816521152811584"><ele>190.0</ele><time>2026-04-12T08:27:58Z</time></trkpt><trkpt lat="43.585847777256525" lon="6.816577637828401"><ele>190.0</ele><time>2026-04-12T08:27:59Z</time></trkpt><trkpt lat="43.585908614255956" lon="6.816630177273021"><ele>190.0</ele><time>2026-04-12T08:28:00Z</time></trkpt><trkpt lat="43.58594644590764" lon="6.8167065872759025"><ele>190.0</ele><time>2026-04-12T08:28:01Z</time></trkpt><trkpt lat="43.58598002293656" lon="6.816793039663422"><ele>190.0</ele><time>2026-04-12T08:28:02Z</time></trkpt><trkpt lat="43.58600672941469" lon="6.81688104251858"><ele>190.0</ele><time>2026-04-12T08:28:03Z</time></trkpt><trkpt lat="43.58603238083844" lon="6.816962138029607"><ele>189.16666666666669</ele><time>2026-04-12T08:28:04Z</time></trkpt><trkpt lat="43.586057830864554" lon="6.81704457263493"><ele>188.33333333333334</ele><time>2026-04-12T08:28:05Z</time></trkpt><trkpt lat="43.58607327065493" lon="6.817140214836999"><ele>187.5</ele><time>2026-04-12T08:28:06Z</time></trkpt><trkpt lat="43.586120561723924" lon="6.817207618447779"><ele>186.66666666666666</ele><time>2026-04-12T08:28:07Z</time></trkpt><trkpt lat="43.58621575951345" lon="6.817326335477287"><ele>185.83333333333331</ele><time>2026-04-12T08:28:09Z</time></trkpt><trkpt lat="43.58626896673316" lon="6.817380236227063"><ele>185.0</ele><time>2026-04-12T08:28:10Z</time></trkpt><trkpt lat="43.58636886280356" lon="6.817481594689668"><ele>185.0</ele><time>2026-04-12T08:28:12Z</time></trkpt><trkpt lat="43.58642543474373" lon="6.817528985202024"><ele>185.0</ele><time>2026-04-12T08:28:13Z</time></trkpt><trkpt lat="43.586482014439476" lon="6.817579080641758"><ele>185.0</ele><time>2026-04-12T08:28:14Z</time></trkpt><trkpt lat="43.586537333132604" lon="6.817626219529037"><ele>185.0</ele><time>2026-04-12T08:28:15Z</time></trkpt><trkpt lat="43.58663632743509" lon="6.817726540155204"><ele>185.0</ele><time>2026-04-12T08:28:17Z</time></trkpt><trkpt lat="43.58669190444192" lon="6.81777078689584"><ele>185.0</ele><time>2026-04-12T08:28:18Z</time></trkpt><trkpt lat="43.586804681913165" lon="6.817849366653165"><ele>184.8</ele><time>2026-04-12T08:28:20Z</time></trkpt><trkpt lat="43.5868661948531" lon="6.8178773916815825"><ele>184.6</ele><time>2026-04-12T08:28:21Z</time></trkpt><trkpt lat="43.58698430409085" lon="6.8179231251923715"><ele>184.39999999999998</ele><time>2026-04-12T08:28:23Z</time></trkpt><trkpt lat="43.587090862309005" lon="6.817991634857455"><ele>184.2</ele><time>2026-04-12T08:28:25Z</time></trkpt><trkpt lat="43.587194333230904" lon="6.8180769325383"><ele>184.0</ele><time>2026-04-12T08:28:27Z</time></trkpt><trkpt lat="43.58727583098902" lon="6.818196186533797"><ele>184.0</ele><time>2026-04-12T08:28:29Z</time></trkpt><trkpt lat="43.58727029908449" lon="6.818361385176741"><ele>184.0</ele><time>2026-04-12T08:28:31Z</time></trkpt><trkpt lat="43.58721301246435" lon="6.8184118279814845"><ele>184.0</ele><time>2026-04-12T08:28:32Z</time></trkpt><trkpt lat="43.587131008357524" lon="6.818535168895169"><ele>184.0</ele><time>2026-04-12T08:28:34Z</time></trkpt><trkpt lat="43.58701629557621" lon="6.818597569118208"><ele>184.0</ele><time>2026-04-12T08:28:36Z</time></trkpt><trkpt lat="43.58695439237206" lon="6.818616560797212"><ele>186.5</ele><time>2026-04-12T08:28:37Z</time></trkpt><trkpt lat="43.58683086101452" lon="6.8186519150416744"><ele>189.0</ele><time>2026-04-12T08:28:39Z</time></trkpt><trkpt lat="43.58670848452112" lon="6.81869566267128"><ele>191.5</ele><time>2026-04-12T08:28:41Z</time></trkpt><trkpt lat="43.586586959401245" lon="6.818743435869197"><ele>194.0</ele><time>2026-04-12T08:28:43Z</time></trkpt><trkpt lat="43.586495123288834" lon="6.818859736634966"><ele>194.00000000000003</ele><time>2026-04-12T08:28:45Z</time></trkpt><trkpt lat="43.586473612483445" lon="6.8189511012808515"><ele>194.0</ele><time>2026-04-12T08:28:45.999Z</time></trkpt><trkpt lat="43.5864774333643" lon="6.81903916360779"><ele>194.0</ele><time>2026-04-12T08:28:46.999Z</time></trkpt><trkpt lat="43.58649635404408" lon="6.819124249719675"><ele>194.0</ele><time>2026-04-12T08:28:47.999Z</time></trkpt><trkpt lat="43.58649782769059" lon="6.819291217843693"><ele>194.00000000000003</ele><time>2026-04-12T08:28:49.999Z</time></trkpt><trkpt lat="43.586473138520134" lon="6.8193713627357315"><ele>194.0</ele><time>2026-04-12T08:28:50.999Z</time></trkpt><trkpt lat="43.586401529237975" lon="6.81950413011083"><ele>193.75</ele><time>2026-04-12T08:28:52.999Z</time></trkpt><trkpt lat="43.586324799834465" lon="6.819627846886377"><ele>193.5</ele><time>2026-04-12T08:28:54.999Z</time></trkpt><trkpt lat="43.58625946526843" lon="6.819766942036008"><ele>193.25</ele><time>2026-04-12T08:28:56.999Z</time></trkpt><trkpt lat="43.58622568444237" lon="6.81992624111419"><ele>193.0</ele><time>2026-04-12T08:28:58.999Z</time></trkpt><trkpt lat="43.58621590314765" lon="6.820096013332295"><ele>194.75</ele><time>2026-04-12T08:29:00.999Z</time></trkpt><trkpt lat="43.58617596722379" lon="6.820261744495706"><ele>196.5</ele><time>2026-04-12T08:29:02.999Z</time></trkpt><trkpt lat="43.58611442578202" lon="6.820407426883537"><ele>198.25</ele><time>2026-04-12T08:29:04.999Z</time></trkpt><trkpt lat="43.58604473531585" lon="6.820542440710956"><ele>200.0</ele><time>2026-04-12T08:29:06.999Z</time></trkpt><trkpt lat="43.58596819931364" lon="6.8206683614952395"><ele>200.0</ele><time>2026-04-12T08:29:08.999Z</time></trkpt><trkpt lat="43.5858873337138" lon="6.82079234574435"><ele>200.0</ele><time>2026-04-12T08:29:10.999Z</time></trkpt><trkpt lat="43.585791791766084" lon="6.820895709775229"><ele>200.0</ele><time>2026-04-12T08:29:12.999Z</time></trkpt><trkpt lat="43.585671547150014" lon="6.82091694043319"><ele>200.0</ele><time>2026-04-12T08:29:14.999Z</time></trkpt><trkpt lat="43.58555309162383" lon="6.820894680224863"><ele>200.0</ele><time>2026-04-12T08:29:16.999Z</time></trkpt><trkpt lat="43.58544028809566" lon="6.820915036843144"><ele>200.0</ele><time>2026-04-12T08:29:18.999Z</time></trkpt><trkpt lat="43.58533565290519" lon="6.820973042270985"><ele>200.0</ele><time>2026-04-12T08:29:20.999Z</time></trkpt><trkpt lat="43.585234562949964" lon="6.821049496559359"><ele>200.0</ele><time>2026-04-12T08:29:22.999Z</time></trkpt><trkpt lat="43.58515923603744" lon="6.821184448462268"><ele>203.6</ele><time>2026-04-12T08:29:24.999Z</time></trkpt><trkpt lat="43.58513756897109" lon="6.821268882055766"><ele>207.2</ele><time>2026-04-12T08:29:25.999Z</time></trkpt><trkpt lat="43.585189766736384" lon="6.821374744383802"><ele>210.8</ele><time>2026-04-12T08:29:26.999Z</time></trkpt><trkpt lat="43.58523681139504" lon="6.8214404741529435"><ele>214.4</ele><time>2026-04-12T08:29:27.999Z</time></trkpt><trkpt lat="43.58529197547512" lon="6.821582273944824"><ele>218.0</ele><time>2026-04-12T08:29:29.999Z</time></trkpt><trkpt lat="43.58532878904532" lon="6.821725931189733"><ele>216.60000000000002</ele><time>2026-04-12T08:29:31.999Z</time></trkpt><trkpt lat="43.585337259393235" lon="6.821878872441488"><ele>215.20000000000002</ele><time>2026-04-12T08:29:33.999Z</time></trkpt><trkpt lat="43.585302147890566" lon="6.822023429832953"><ele>213.8</ele><time>2026-04-12T08:29:35.999Z</time></trkpt><trkpt lat="43.58525661747259" lon="6.822162705925619"><ele>212.4</ele><time>2026-04-12T08:29:37.999Z</time></trkpt><trkpt lat="43.58519739931695" lon="6.822297572249804"><ele>211.0</ele><time>2026-04-12T08:29:39.999Z</time></trkpt><trkpt lat="43.58511574070033" lon="6.822414073231656"><ele>211.0</ele><time>2026-04-12T08:29:41.999Z</time></trkpt><trkpt lat="43.5850221574576" lon="6.822485747826835"><ele>211.0</ele><time>2026-04-12T08:29:43.999Z</time></trkpt><trkpt lat="43.58493495604179" lon="6.822559207027664"><ele>211.0</ele><time>2026-04-12T08:29:46Z</time></trkpt><trkpt lat="43.584854535243814" lon="6.822634572541159"><ele>211.0</ele><time>2026-04-12T08:29:48Z</time></trkpt><trkpt lat="43.58479226252177" lon="6.822739654416467"><ele>211.0</ele><time>2026-04-12T08:29:50Z</time></trkpt><trkpt lat="43.58475572865612" lon="6.822872164236198"><ele>210.0</ele><time>2026-04-12T08:29:52Z</time></trkpt><trkpt lat="43.584773751942144" lon="6.823015553272426"><ele>209.0</ele><time>2026-04-12T08:29:54Z</time></trkpt><trkpt lat="43.584794401677485" lon="6.823149364245211"><ele>208.0</ele><time>2026-04-12T08:29:56Z</time></trkpt><trkpt lat="43.58478767851477" lon="6.8232945187017675"><ele>207.0</ele><time>2026-04-12T08:29:58Z</time></trkpt><trkpt lat="43.584769329373685" lon="6.823445351287234"><ele>206.0</ele><time>2026-04-12T08:30:00Z</time></trkpt><trkpt lat="43.58472288969644" lon="6.823580147657671"><ele>206.0</ele><time>2026-04-12T08:30:02Z</time></trkpt><trkpt lat="43.58466434051453" lon="6.823705906148116"><ele>206.0</ele><time>2026-04-12T08:30:04Z</time></trkpt><trkpt lat="43.58459161069232" lon="6.823813938192538"><ele>206.0</ele><time>2026-04-12T08:30:06Z</time></trkpt><trkpt lat="43.58449025332022" lon="6.8238597897136675"><ele>206.0</ele><time>2026-04-12T08:30:08Z</time></trkpt><trkpt lat="43.584384438095654" lon="6.823778363066916"><ele>206.0</ele><time>2026-04-12T08:30:10Z</time></trkpt><trkpt lat="43.58431096556881" lon="6.823647072681992"><ele>206.00000000000003</ele><time>2026-04-12T08:30:12Z</time></trkpt><trkpt lat="43.58426338968289" lon="6.823588036025718"><ele>206.0</ele><time>2026-04-12T08:30:13Z</time></trkpt><trkpt lat="43.58415646806744" lon="6.823497181701807"><ele>206.0</ele><time>2026-04-12T08:30:15Z</time></trkpt><trkpt lat="43.584097804436325" lon="6.823451905542785"><ele>206.0</ele><time>2026-04-12T08:30:16Z</time></trkpt><trkpt lat="43.58404001859223" lon="6.823412659599635"><ele>206.00000000000003</ele><time>2026-04-12T08:30:17Z</time></trkpt><trkpt lat="43.58397658372702" lon="6.823380940871617"><ele>206.0</ele><time>2026-04-12T08:30:18Z</time></trkpt><trkpt lat="43.5839099587987" lon="6.8233531444572835"><ele>208.33333333333334</ele><time>2026-04-12T08:30:19Z</time></trkpt><trkpt lat="43.58383709349945" lon="6.82334107074941"><ele>210.66666666666669</ele><time>2026-04-12T08:30:20Z</time></trkpt><trkpt lat="43.583760394323015" lon="6.823348669876102"><ele>213.0</ele><time>2026-04-12T08:30:21Z</time></trkpt><trkpt lat="43.58368572172198" lon="6.823357510916016"><ele>215.33333333333331</ele><time>2026-04-12T08:30:22Z</time></trkpt><trkpt lat="43.58360320615197" lon="6.823368192776692"><ele>217.66666666666666</ele><time>2026-04-12T08:30:23Z</time></trkpt><trkpt lat="43.58352048179743" lon="6.823372595206755"><ele>220.0</ele><time>2026-04-12T08:30:24Z</time></trkpt><trkpt lat="43.58343594342022" lon="6.823383249025631"><ele>220.4</ele><time>2026-04-12T08:30:25Z</time></trkpt><trkpt lat="43.58334913124375" lon="6.823389948764281"><ele>220.8</ele><time>2026-04-12T08:30:26Z</time></trkpt><trkpt lat="43.58326285646604" lon="6.82336580353662"><ele>221.2</ele><time>2026-04-12T08:30:27Z</time></trkpt><trkpt lat="43.58317482906686" lon="6.823357362650002"><ele>221.6</ele><time>2026-04-12T08:30:28Z</time></trkpt><trkpt lat="43.583083875625896" lon="6.823412686317103"><ele>222.0</ele><time>2026-04-12T08:30:29Z</time></trkpt><trkpt lat="43.582998042454896" lon="6.823472909656689"><ele>217.6</ele><time>2026-04-12T08:30:30Z</time></trkpt><trkpt lat="43.58290806522779" lon="6.823521545765488"><ele>213.2</ele><time>2026-04-12T08:30:31Z</time></trkpt><trkpt lat="43.58280877089932" lon="6.823508975312994"><ele>208.8</ele><time>2026-04-12T08:30:32Z</time></trkpt><trkpt lat="43.58270639581433" lon="6.823538502637731"><ele>204.4</ele><time>2026-04-12T08:30:33Z</time></trkpt><trkpt lat="43.58261732354007" lon="6.823616834396742"><ele>200.0</ele><time>2026-04-12T08:30:34Z</time></trkpt><trkpt lat="43.58253068471021" lon="6.8236944577228416"><ele>200.0</ele><time>2026-04-12T08:30:35Z</time></trkpt><trkpt lat="43.58244498688783" lon="6.823775552879768"><ele>200.0</ele><time>2026-04-12T08:30:36Z</time></trkpt><trkpt lat="43.58235626511631" lon="6.82385133060911"><ele>200.0</ele><time>2026-04-12T08:30:37Z</time></trkpt><trkpt lat="43.58226357315265" lon="6.823916470205229"><ele>200.0</ele><time>2026-04-12T08:30:38Z</time></trkpt><trkpt lat="43.58216721927447" lon="6.823973970084768"><ele>200.0</ele><time>2026-04-12T08:30:39Z</time></trkpt><trkpt lat="43.58206237723201" lon="6.824009898072477"><ele>200.6</ele><time>2026-04-12T08:30:40Z</time></trkpt><trkpt lat="43.58196122754093" lon="6.824063380674785"><ele>201.2</ele><time>2026-04-12T08:30:41Z</time></trkpt><trkpt lat="43.58185838373808" lon="6.8241068257314454"><ele>201.8</ele><time>2026-04-12T08:30:42Z</time></trkpt><trkpt lat="43.58175034214707" lon="6.824149881332628"><ele>202.4</ele><time>2026-04-12T08:30:43Z</time></trkpt><trkpt lat="43.581646115222" lon="6.824113582478285"><ele>203.0</ele><time>2026-04-12T08:30:44Z</time></trkpt><trkpt lat="43.58156838106588" lon="6.823993993728245"><ele>203.0</ele><time>2026-04-12T08:30:45Z</time></trkpt><trkpt lat="43.58157115528934" lon="6.823816258753936"><ele>203.0</ele><time>2026-04-12T08:30:46Z</time></trkpt><trkpt lat="43.58154414896696" lon="6.823666590073952"><ele>203.0</ele><time>2026-04-12T08:30:47Z</time></trkpt><trkpt lat="43.581512081502936" lon="6.823523741213145"><ele>203.0</ele><time>2026-04-12T08:30:48Z</time></trkpt><trkpt lat="43.58150300152873" lon="6.823374975953785"><ele>204.4</ele><time>2026-04-12T08:30:49Z</time></trkpt><trkpt lat="43.58151487881187" lon="6.823227887837098"><ele>205.8</ele><time>2026-04-12T08:30:50Z</time></trkpt><trkpt lat="43.58155030990183" lon="6.823077401448382"><ele>207.2</ele><time>2026-04-12T08:30:51Z</time></trkpt><trkpt lat="43.5816293620984" lon="6.8229608904594485"><ele>208.6</ele><time>2026-04-12T08:30:51.999Z</time></trkpt><trkpt lat="43.58169474482904" lon="6.822836224211005"><ele>210.0</ele><time>2026-04-12T08:30:52.999Z</time></trkpt><trkpt lat="43.581739137389846" lon="6.8227033142013624"><ele>211.0</ele><time>2026-04-12T08:30:53.999Z</time></trkpt><trkpt lat="43.58170628436001" lon="6.822552846859586"><ele>212.0</ele><time>2026-04-12T08:30:54.999Z</time></trkpt><trkpt lat="43.58159761077989" lon="6.822459367180583"><ele>213.0</ele><time>2026-04-12T08:30:55.999Z</time></trkpt><trkpt lat="43.581471178618656" lon="6.822463899371914"><ele>214.0</ele><time>2026-04-12T08:30:56.999Z</time></trkpt><trkpt lat="43.58135888852457" lon="6.822505036066661"><ele>214.0</ele><time>2026-04-12T08:30:57.999Z</time></trkpt><trkpt lat="43.58125537911081" lon="6.822537605077375"><ele>213.99999999999997</ele><time>2026-04-12T08:30:58.999Z</time></trkpt><trkpt lat="43.581151873411606" lon="6.82255825634667"><ele>213.99999999999997</ele><time>2026-04-12T08:30:59.999Z</time></trkpt><trkpt lat="43.58104599852881" lon="6.822574475715734"><ele>214.0</ele><time>2026-04-12T08:31:00.999Z</time></trkpt><trkpt lat="43.58094357190263" lon="6.822525980343049"><ele>214.0</ele><time>2026-04-12T08:31:01.999Z</time></trkpt><trkpt lat="43.58083903094325" lon="6.82248649151551"><ele>212.0</ele><time>2026-04-12T08:31:02.999Z</time></trkpt><trkpt lat="43.58072809106843" lon="6.822453571206547"><ele>210.0</ele><time>2026-04-12T08:31:03.999Z</time></trkpt><trkpt lat="43.58062266010921" lon="6.822402714983753"><ele>208.0</ele><time>2026-04-12T08:31:04.999Z</time></trkpt><trkpt lat="43.580517141282336" lon="6.8223448566125455"><ele>206.0</ele><time>2026-04-12T08:31:05.999Z</time></trkpt><trkpt lat="43.58043133035028" lon="6.822239056387379"><ele>204.5</ele><time>2026-04-12T08:31:06.999Z</time></trkpt><trkpt lat="43.5803242825301" lon="6.82217276388875"><ele>203.0</ele><time>2026-04-12T08:31:07.999Z</time></trkpt><trkpt lat="43.580223952444946" lon="6.822090108708895"><ele>201.5</ele><time>2026-04-12T08:31:08.999Z</time></trkpt><trkpt lat="43.580117686772404" lon="6.822030974040287"><ele>200.0</ele><time>2026-04-12T08:31:09.999Z</time></trkpt><trkpt lat="43.58000828464645" lon="6.821970533278689"><ele>200.0</ele><time>2026-04-12T08:31:10.999Z</time></trkpt><trkpt lat="43.579899077494076" lon="6.821909320049045"><ele>200.0</ele><time>2026-04-12T08:31:11.999Z</time></trkpt><trkpt lat="43.57978516661543" lon="6.8218626454423745"><ele>200.0</ele><time>2026-04-12T08:31:12.999Z</time></trkpt><trkpt lat="43.57967097395139" lon="6.821824484845182"><ele>200.0</ele><time>2026-04-12T08:31:13.999Z</time></trkpt><trkpt lat="43.57956552915264" lon="6.821755415519033"><ele>202.75</ele><time>2026-04-12T08:31:14.999Z</time></trkpt><trkpt lat="43.57945452785018" lon="6.82171370340083"><ele>205.5</ele><time>2026-04-12T08:31:15.999Z</time></trkpt><trkpt lat="43.57934889933154" lon="6.821653804903009"><ele>208.25</ele><time>2026-04-12T08:31:16.999Z</time></trkpt><trkpt lat="43.57924248348701" lon="6.821637284299899"><ele>211.0</ele><time>2026-04-12T08:31:17.999Z</time></trkpt><trkpt lat="43.57914065853752" lon="6.8217139626052345"><ele>209.20000000000002</ele><time>2026-04-12T08:31:18.999Z</time></trkpt><trkpt lat="43.57907895517513" lon="6.821860353487604"><ele>207.4</ele><time>2026-04-12T08:31:19.999Z</time></trkpt><trkpt lat="43.57906449211912" lon="6.822018394935482"><ele>205.6</ele><time>2026-04-12T08:31:20.999Z</time></trkpt><trkpt lat="43.579049025291454" lon="6.82215312332407"><ele>203.8</ele><time>2026-04-12T08:31:21.999Z</time></trkpt><trkpt lat="43.5790317154742" lon="6.82228478051432"><ele>202.0</ele><time>2026-04-12T08:31:22.999Z</time></trkpt><trkpt lat="43.579033363983726" lon="6.822415899695167"><ele>202.0</ele><time>2026-04-12T08:31:23.999Z</time></trkpt><trkpt lat="43.57906435907571" lon="6.822544761980888"><ele>202.0</ele><time>2026-04-12T08:31:24.999Z</time></trkpt><trkpt lat="43.57908832023283" lon="6.8226685136955165"><ele>202.0</ele><time>2026-04-12T08:31:25.999Z</time></trkpt><trkpt lat="43.57916598838226" lon="6.822750728064176"><ele>202.0</ele><time>2026-04-12T08:31:26.999Z</time></trkpt><trkpt lat="43.5792504802471" lon="6.822800415029179"><ele>202.0</ele><time>2026-04-12T08:31:27.999Z</time></trkpt><trkpt lat="43.57933325733261" lon="6.8228311633909655"><ele>202.28571428571428</ele><time>2026-04-12T08:31:28.999Z</time></trkpt><trkpt lat="43.57941098562827" lon="6.822860041946254"><ele>202.57142857142856</ele><time>2026-04-12T08:31:29.999Z</time></trkpt><trkpt lat="43.57948801616012" lon="6.822881600198042"><ele>202.85714285714286</ele><time>2026-04-12T08:31:30.999Z</time></trkpt><trkpt lat="43.57956203106304" lon="6.822894726001329"><ele>203.14285714285714</ele><time>2026-04-12T08:31:31.999Z</time></trkpt><trkpt lat="43.5796369574922" lon="6.822906260881599"><ele>203.42857142857144</ele><time>2026-04-12T08:31:32.999Z</time></trkpt><trkpt lat="43.57970730034195" lon="6.822914710024482"><ele>203.71428571428572</ele><time>2026-04-12T08:31:33.999Z</time></trkpt><trkpt lat="43.57977306971191" lon="6.822930515613065"><ele>204.0</ele><time>2026-04-12T08:31:34.999Z</time></trkpt><trkpt lat="43.57983915610442" lon="6.822952221041209"><ele>204.0</ele><time>2026-04-12T08:31:35.999Z</time></trkpt><trkpt lat="43.579902107356745" lon="6.822982773472798"><ele>204.0</ele><time>2026-04-12T08:31:36.999Z</time></trkpt><trkpt lat="43.57999559031707" lon="6.823089268105493"><ele>204.0</ele><time>2026-04-12T08:31:38.999Z</time></trkpt><trkpt lat="43.58001379520693" lon="6.82317741522949"><ele>204.0</ele><time>2026-04-12T08:31:39.999Z</time></trkpt><trkpt lat="43.57999028171553" lon="6.823258179399577"><ele>204.0</ele><time>2026-04-12T08:31:40.999Z</time></trkpt><trkpt lat="43.57992973254185" lon="6.823294429601735"><ele>204.0</ele><time>2026-04-12T08:31:41.999Z</time></trkpt><trkpt lat="43.579875968489155" lon="6.823407011227686"><ele>205.79999999999998</ele><time>2026-04-12T08:31:43.999Z</time></trkpt><trkpt lat="43.57981333151159" lon="6.823505464960449"><ele>207.6</ele><time>2026-04-12T08:31:45.999Z</time></trkpt><trkpt lat="43.579781275110626" lon="6.823585910701415"><ele>209.4</ele><time>2026-04-12T08:31:47.999Z</time></trkpt><trkpt lat="43.5797050805869" lon="6.823719020745769"><ele>211.2</ele><time>2026-04-12T08:31:49.999Z</time></trkpt><trkpt lat="43.57966220612621" lon="6.823829840951988"><ele>213.0</ele><time>2026-04-12T08:31:52Z</time></trkpt><trkpt lat="43.579657520911574" lon="6.823958363792299"><ele>213.0</ele><time>2026-04-12T08:31:54Z</time></trkpt><trkpt lat="43.57967514413764" lon="6.824076777595737"><ele>213.0</ele><time>2026-04-12T08:31:56Z</time></trkpt><trkpt lat="43.57973821641362" lon="6.8241775457741145"><ele>213.0</ele><time>2026-04-12T08:31:58Z</time></trkpt><trkpt lat="43.57978543626791" lon="6.8242804435122055"><ele>213.0</ele><time>2026-04-12T08:32:00Z</time></trkpt><trkpt lat="43.57982935335952" lon="6.82438131631085"><ele>213.0</ele><time>2026-04-12T08:32:02Z</time></trkpt><trkpt lat="43.57990514107303" lon="6.824436470145513"><ele>213.0</ele><time>2026-04-12T08:32:04Z</time></trkpt><trkpt lat="43.57999751814043" lon="6.824432825676002"><ele>213.0</ele><time>2026-04-12T08:32:06Z</time></trkpt><trkpt lat="43.58007503982387" lon="6.824392959187026"><ele>213.0</ele><time>2026-04-12T08:32:08Z</time></trkpt><trkpt lat="43.580139396989914" lon="6.8243329053847255"><ele>213.0</ele><time>2026-04-12T08:32:10Z</time></trkpt><trkpt lat="43.58021349859609" lon="6.824269054397662"><ele>213.0</ele><time>2026-04-12T08:32:12Z</time></trkpt><trkpt lat="43.58030296209461" lon="6.824256086009881"><ele>213.0</ele><time>2026-04-12T08:32:14Z</time></trkpt><trkpt lat="43.5803771219643" lon="6.8242968473537"><ele>213.0</ele><time>2026-04-12T08:32:16Z</time></trkpt><trkpt lat="43.58042145987618" lon="6.824383627426282"><ele>214.0</ele><time>2026-04-12T08:32:18Z</time></trkpt><trkpt lat="43.58047194612642" lon="6.8244824124564625"><ele>215.0</ele><time>2026-04-12T08:32:20Z</time></trkpt><trkpt lat="43.58051771893417" lon="6.824567311956732"><ele>216.0</ele><time>2026-04-12T08:32:22Z</time></trkpt><trkpt lat="43.5805540260305" lon="6.824659910574294"><ele>217.0</ele><time>2026-04-12T08:32:24Z</time></trkpt><trkpt lat="43.580588804430505" lon="6.824759216297056"><ele>218.0</ele><time>2026-04-12T08:32:26Z</time></trkpt><trkpt lat="43.580612216386456" lon="6.824861837967629"><ele>219.0</ele><time>2026-04-12T08:32:28Z</time></trkpt><trkpt lat="43.580635030042686" lon="6.8249579888773395"><ele>219.0</ele><time>2026-04-12T08:32:30Z</time></trkpt><trkpt lat="43.58066448876854" lon="6.825054823835947"><ele>219.0</ele><time>2026-04-12T08:32:32Z</time></trkpt><trkpt lat="43.58069618347048" lon="6.825155049504136"><ele>219.0</ele><time>2026-04-12T08:32:34Z</time></trkpt><trkpt lat="43.58074230495183" lon="6.825240375068627"><ele>219.0</ele><time>2026-04-12T08:32:36Z</time></trkpt><trkpt lat="43.580817172636074" lon="6.825340609437381"><ele>219.0</ele><time>2026-04-12T08:32:39Z</time></trkpt><trkpt lat="43.58087793434448" lon="6.825404833020826"><ele>219.0</ele><time>2026-04-12T08:32:41Z</time></trkpt><trkpt lat="43.580943747325" lon="6.825462988302327"><ele>218.33333333333334</ele><time>2026-04-12T08:32:43Z</time></trkpt><trkpt lat="43.581006323493845" lon="6.825520987490251"><ele>217.66666666666669</ele><time>2026-04-12T08:32:45Z</time></trkpt><trkpt lat="43.581077172981395" lon="6.825594649960808"><ele>217.0</ele><time>2026-04-12T08:32:47Z</time></trkpt><trkpt lat="43.58114350611082" lon="6.825656172456891"><ele>216.33333333333334</ele><time>2026-04-12T08:32:49Z</time></trkpt><trkpt lat="43.581201924381425" lon="6.82570908963434"><ele>215.66666666666669</ele><time>2026-04-12T08:32:51Z</time></trkpt><trkpt lat="43.58126598083372" lon="6.825780210659418"><ele>215.0</ele><time>2026-04-12T08:32:53Z</time></trkpt><trkpt lat="43.58131218737846" lon="6.825862510000674"><ele>215.0</ele><time>2026-04-12T08:32:55Z</time></trkpt><trkpt lat="43.58133506132007" lon="6.825970428266591"><ele>215.0</ele><time>2026-04-12T08:32:57Z</time></trkpt><trkpt lat="43.58133274306172" lon="6.826078725885727"><ele>215.0</ele><time>2026-04-12T08:32:58.999Z</time></trkpt><trkpt lat="43.58130236148627" lon="6.826175194475081"><ele>215.0</ele><time>2026-04-12T08:33:01.999Z</time></trkpt><trkpt lat="43.58124613898149" lon="6.826341178280575"><ele>215.0</ele><time>2026-04-12T08:33:04.999Z</time></trkpt><trkpt lat="43.5812155566262" lon="6.826464459519166"><ele>215.50000000000003</ele><time>2026-04-12T08:33:06.999Z</time></trkpt><trkpt lat="43.58121969939317" lon="6.826583430633102"><ele>216.0</ele><time>2026-04-12T08:33:08.999Z</time></trkpt><trkpt lat="43.58126229717628" lon="6.826687855984386"><ele>216.5</ele><time>2026-04-12T08:33:10.999Z</time></trkpt><trkpt lat="43.58131295137888" lon="6.826783801663066"><ele>217.0</ele><time>2026-04-12T08:33:12.999Z</time></trkpt><trkpt lat="43.58133511467661" lon="6.8268855720790995"><ele>217.50000000000003</ele><time>2026-04-12T08:33:14.999Z</time></trkpt><trkpt lat="43.58132880512831" lon="6.826996764940587"><ele>218.0</ele><time>2026-04-12T08:33:16.999Z</time></trkpt><trkpt lat="43.581310970076565" lon="6.827107476991761"><ele>218.66666666666669</ele><time>2026-04-12T08:33:18.999Z</time></trkpt><trkpt lat="43.58128579867942" lon="6.827221490293374"><ele>219.33333333333334</ele><time>2026-04-12T08:33:20.999Z</time></trkpt><trkpt lat="43.58123998024194" lon="6.827322388251985"><ele>220.0</ele><time>2026-04-12T08:33:22.999Z</time></trkpt><trkpt lat="43.58119935146698" lon="6.827410486075127"><ele>220.66666666666669</ele><time>2026-04-12T08:33:24.999Z</time></trkpt><trkpt lat="43.581182253363465" lon="6.827535550702791"><ele>221.33333333333334</ele><time>2026-04-12T08:33:26.999Z</time></trkpt><trkpt lat="43.58120766201137" lon="6.827647165236852"><ele>222.0</ele><time>2026-04-12T08:33:28.999Z</time></trkpt><trkpt lat="43.581238607030514" lon="6.827754110512166"><ele>224.5</ele><time>2026-04-12T08:33:30.999Z</time></trkpt><trkpt lat="43.58124520994816" lon="6.827852326067072"><ele>227.0</ele><time>2026-04-12T08:33:32.999Z</time></trkpt><trkpt lat="43.58125966717273" lon="6.827948143375661"><ele>229.5</ele><time>2026-04-12T08:33:34.999Z</time></trkpt><trkpt lat="43.58127770907789" lon="6.82805845913327"><ele>232.0</ele><time>2026-04-12T08:33:36.999Z</time></trkpt><trkpt lat="43.58130112463961" lon="6.828164691115249"><ele>234.5</ele><time>2026-04-12T08:33:38.999Z</time></trkpt><trkpt lat="43.58130517929708" lon="6.828263953103415"><ele>237.0</ele><time>2026-04-12T08:33:40.999Z</time></trkpt><trkpt lat="43.58133848912095" lon="6.82836317746049"><ele>237.0</ele><time>2026-04-12T08:33:42.999Z</time></trkpt><trkpt lat="43.58138218544468" lon="6.828459503605333"><ele>237.0</ele><time>2026-04-12T08:33:44.999Z</time></trkpt><trkpt lat="43.58141104885631" lon="6.828550462467343"><ele>237.0</ele><time>2026-04-12T08:33:46.999Z</time></trkpt><trkpt lat="43.581447816768915" lon="6.82864547626452"><ele>237.0</ele><time>2026-04-12T08:33:48.999Z</time></trkpt><trkpt lat="43.581513513467975" lon="6.828723634186017"><ele>237.0</ele><time>2026-04-12T08:33:50.999Z</time></trkpt><trkpt lat="43.58157253780734" lon="6.828791798375512"><ele>237.0</ele><time>2026-04-12T08:33:52.999Z</time></trkpt><trkpt lat="43.58164544635199" lon="6.828843168541838"><ele>238.83333333333334</ele><time>2026-04-12T08:33:54.999Z</time></trkpt><trkpt lat="43.58172832979198" lon="6.828862535841425"><ele>240.66666666666669</ele><time>2026-04-12T08:33:56.999Z</time></trkpt><trkpt lat="43.58180565604885" lon="6.828879864975548"><ele>242.5</ele><time>2026-04-12T08:33:59Z</time></trkpt><trkpt lat="43.581887463719475" lon="6.828898838503911"><ele>244.33333333333334</ele><time>2026-04-12T08:34:01Z</time></trkpt><trkpt lat="43.5819670529724" lon="6.828921050749473"><ele>246.16666666666669</ele><time>2026-04-12T08:34:03Z</time></trkpt><trkpt lat="43.582046981403096" lon="6.82893714064939"><ele>248.0</ele><time>2026-04-12T08:34:05Z</time></trkpt><trkpt lat="43.582125524350644" lon="6.82895932590843"><ele>248.00000000000003</ele><time>2026-04-12T08:34:07Z</time></trkpt><trkpt lat="43.58220396239762" lon="6.828976738562819"><ele>248.0</ele><time>2026-04-12T08:34:09Z</time></trkpt><trkpt lat="43.58228086907489" lon="6.828998145850765"><ele>248.0</ele><time>2026-04-12T08:34:11Z</time></trkpt><trkpt lat="43.582355767611766" lon="6.82902492543873"><ele>248.0</ele><time>2026-04-12T08:34:13Z</time></trkpt><trkpt lat="43.58243102184488" lon="6.829066564902006"><ele>248.00000000000003</ele><time>2026-04-12T08:34:15Z</time></trkpt><trkpt lat="43.58249696668521" lon="6.829110440544395"><ele>248.0</ele><time>2026-04-12T08:34:17Z</time></trkpt><trkpt lat="43.5825692053798" lon="6.829158936358701"><ele>248.00000000000003</ele><time>2026-04-12T08:34:19Z</time></trkpt><trkpt lat="43.58264343589688" lon="6.829206036263222"><ele>248.0</ele><time>2026-04-12T08:34:21Z</time></trkpt><trkpt lat="43.58271399678627" lon="6.829255048227133"><ele>248.0</ele><time>2026-04-12T08:34:23Z</time></trkpt><trkpt lat="43.58277886118891" lon="6.829320905702315"><ele>248.0</ele><time>2026-04-12T08:34:25Z</time></trkpt><trkpt lat="43.582827272432205" lon="6.829407408289092"><ele>248.00000000000003</ele><time>2026-04-12T08:34:27Z</time></trkpt><trkpt lat="43.582862362640874" lon="6.829494294723257"><ele>248.0</ele><time>2026-04-12T08:34:29Z</time></trkpt><trkpt lat="43.58289019128253" lon="6.829592725674068"><ele>247.66666666666669</ele><time>2026-04-12T08:34:31Z</time></trkpt><trkpt lat="43.582901446366954" lon="6.829696730828385"><ele>247.33333333333334</ele><time>2026-04-12T08:34:33Z</time></trkpt><trkpt lat="43.58290972192947" lon="6.82980703114758"><ele>247.0</ele><time>2026-04-12T08:34:35Z</time></trkpt><trkpt lat="43.582922643174754" lon="6.829921937514653"><ele>246.66666666666669</ele><time>2026-04-12T08:34:37Z</time></trkpt><trkpt lat="43.582932415309145" lon="6.8300372737625406"><ele>246.33333333333334</ele><time>2026-04-12T08:34:39Z</time></trkpt><trkpt lat="43.58293853555389" lon="6.8301270577634465"><ele>246.0</ele><time>2026-04-12T08:34:41Z</time></trkpt><trkpt lat="43.582949540426874" lon="6.830259846714351"><ele>246.0</ele><time>2026-04-12T08:34:43Z</time></trkpt><trkpt lat="43.58294842013909" lon="6.830372021192329"><ele>246.0</ele><time>2026-04-12T08:34:45Z</time></trkpt><trkpt lat="43.58293089615519" lon="6.830483346403611"><ele>246.0</ele><time>2026-04-12T08:34:47Z</time></trkpt><trkpt lat="43.58289481114624" lon="6.83059790588599"><ele>246.0</ele><time>2026-04-12T08:34:49Z</time></trkpt><trkpt lat="43.58285924017964" lon="6.8306906907580425"><ele>246.0</ele><time>2026-04-12T08:34:51Z</time></trkpt><trkpt lat="43.58281764232602" lon="6.830789060401924"><ele>246.0</ele><time>2026-04-12T08:34:53Z</time></trkpt><trkpt lat="43.58276371349848" lon="6.8308683474163985"><ele>249.0</ele><time>2026-04-12T08:34:55Z</time></trkpt><trkpt lat="43.58269895751651" lon="6.830939282492352"><ele>252.0</ele><time>2026-04-12T08:34:57Z</time></trkpt><trkpt lat="43.58263247665664" lon="6.831000117773168"><ele>255.0</ele><time>2026-04-12T08:34:59Z</time></trkpt><trkpt lat="43.582551760030256" lon="6.831051338026472"><ele>258.0</ele><time>2026-04-12T08:35:01Z</time></trkpt><trkpt lat="43.58247631906913" lon="6.831098696630783"><ele>261.0</ele><time>2026-04-12T08:35:02.999Z</time></trkpt><trkpt lat="43.58240401042427" lon="6.83115322377379"><ele>264.0</ele><time>2026-04-12T08:35:04.999Z</time></trkpt><trkpt lat="43.58233178477728" lon="6.831212856448557"><ele>264.0</ele><time>2026-04-12T08:35:06.999Z</time></trkpt><trkpt lat="43.58227118657905" lon="6.831265599181079"><ele>264.0</ele><time>2026-04-12T08:35:08.999Z</time></trkpt><trkpt lat="43.582212930439994" lon="6.8313211623248415"><ele>264.0</ele><time>2026-04-12T08:35:10.999Z</time></trkpt><trkpt lat="43.58217313256131" lon="6.8314135384383965"><ele>264.0</ele><time>2026-04-12T08:35:12.999Z</time></trkpt><trkpt lat="43.58216813041804" lon="6.831514080882515"><ele>264.0</ele><time>2026-04-12T08:35:14.999Z</time></trkpt><trkpt lat="43.58219055399381" lon="6.83163486592615"><ele>264.0</ele><time>2026-04-12T08:35:16.999Z</time></trkpt><trkpt lat="43.58221378560475" lon="6.831744609244187"><ele>265.1666666666667</ele><time>2026-04-12T08:35:18.999Z</time></trkpt><trkpt lat="43.582238969410746" lon="6.831847300072441"><ele>266.3333333333333</ele><time>2026-04-12T08:35:20.999Z</time></trkpt><trkpt lat="43.58226793257582" lon="6.831952910100878"><ele>267.5</ele><time>2026-04-12T08:35:22.999Z</time></trkpt><trkpt lat="43.58228595160799" lon="6.83204104557744"><ele>268.66666666666663</ele><time>2026-04-12T08:35:24.999Z</time></trkpt><trkpt lat="43.58231165641942" lon="6.832189468975852"><ele>269.8333333333333</ele><time>2026-04-12T08:35:27.999Z</time></trkpt><trkpt lat="43.58232685410672" lon="6.832284068337402"><ele>271.0</ele><time>2026-04-12T08:35:28.999Z</time></trkpt><trkpt lat="43.58232371764611" lon="6.832382197245794"><ele>271.0</ele><time>2026-04-12T08:35:31.999Z</time></trkpt><trkpt lat="43.58232623792783" lon="6.832488058780354"><ele>271.0</ele><time>2026-04-12T08:35:32.999Z</time></trkpt><trkpt lat="43.58233752259471" lon="6.832583654155095"><ele>271.0</ele><time>2026-04-12T08:35:34.999Z</time></trkpt><trkpt lat="43.5823877335791" lon="6.832710712514902"><ele>271.0</ele><time>2026-04-12T08:35:36.999Z</time></trkpt><trkpt lat="43.58246625183866" lon="6.832772476365724"><ele>271.0</ele><time>2026-04-12T08:35:38.999Z</time></trkpt><trkpt lat="43.58254956196296" lon="6.832786708103328"><ele>271.0</ele><time>2026-04-12T08:35:40.999Z</time></trkpt><trkpt lat="43.582630412841176" lon="6.832781262589016"><ele>271.16666666666663</ele><time>2026-04-12T08:35:42.999Z</time></trkpt><trkpt lat="43.58271913331196" lon="6.832784282020808"><ele>271.3333333333333</ele><time>2026-04-12T08:35:44.999Z</time></trkpt><trkpt lat="43.582803380331846" lon="6.832807062229033"><ele>271.5</ele><time>2026-04-12T08:35:46.999Z</time></trkpt><trkpt lat="43.58287218734709" lon="6.832870691514347"><ele>271.6666666666667</ele><time>2026-04-12T08:35:48.999Z</time></trkpt><trkpt lat="43.5829312290757" lon="6.832958421567208"><ele>271.83333333333337</ele><time>2026-04-12T08:35:50.999Z</time></trkpt><trkpt lat="43.5829762669674" lon="6.833048051366168"><ele>272.0</ele><time>2026-04-12T08:35:52.999Z</time></trkpt><trkpt lat="43.58302582279045" lon="6.833142045595507"><ele>272.0</ele><time>2026-04-12T08:35:54.999Z</time></trkpt><trkpt lat="43.583073103894705" lon="6.833242297767893"><ele>272.0</ele><time>2026-04-12T08:35:56.999Z</time></trkpt><trkpt lat="43.58311388629741" lon="6.8333525798984285"><ele>272.0</ele><time>2026-04-12T08:35:58.999Z</time></trkpt><trkpt lat="43.583138484670755" lon="6.833470687783407"><ele>272.0</ele><time>2026-04-12T08:36:00.999Z</time></trkpt><trkpt lat="43.583150774187345" lon="6.833596362355683"><ele>272.0</ele><time>2026-04-12T08:36:02.999Z</time></trkpt><trkpt lat="43.58316440692051" lon="6.833718248088115"><ele>272.0</ele><time>2026-04-12T08:36:05Z</time></trkpt><trkpt lat="43.583174637627124" lon="6.833843064270345"><ele>273.33333333333337</ele><time>2026-04-12T08:36:07Z</time></trkpt><trkpt lat="43.58319433376093" lon="6.83396728214238"><ele>274.6666666666667</ele><time>2026-04-12T08:36:09Z</time></trkpt><trkpt lat="43.58320099003976" lon="6.834085825295767"><ele>276.0</ele><time>2026-04-12T08:36:11Z</time></trkpt><trkpt lat="43.583221689359775" lon="6.834205743282893"><ele>277.3333333333333</ele><time>2026-04-12T08:36:13Z</time></trkpt><trkpt lat="43.58324697511797" lon="6.834325643968942"><ele>278.66666666666663</ele><time>2026-04-12T08:36:15Z</time></trkpt><trkpt lat="43.58326816930548" lon="6.834442556251475"><ele>280.0</ele><time>2026-04-12T08:36:17Z</time></trkpt><trkpt lat="43.58327777632314" lon="6.834562946764262"><ele>281.0</ele><time>2026-04-12T08:36:19Z</time></trkpt><trkpt lat="43.5833040537052" lon="6.8347134083847845"><ele>282.0</ele><time>2026-04-12T08:36:22Z</time></trkpt><trkpt lat="43.583321193833534" lon="6.834816231606752"><ele>283.0</ele><time>2026-04-12T08:36:24Z</time></trkpt><trkpt lat="43.58334953824554" lon="6.834935122943945"><ele>284.0</ele><time>2026-04-12T08:36:26Z</time></trkpt><trkpt lat="43.58338192676244" lon="6.83504108024728"><ele>285.0</ele><time>2026-04-12T08:36:28Z</time></trkpt><trkpt lat="43.583442400138644" lon="6.835169769040093"><ele>285.2</ele><time>2026-04-12T08:36:30Z</time></trkpt><trkpt lat="43.58349878053607" lon="6.835275559900933"><ele>285.4</ele><time>2026-04-12T08:36:32Z</time></trkpt><trkpt lat="43.583559856150345" lon="6.835374063602835"><ele>285.6</ele><time>2026-04-12T08:36:34Z</time></trkpt><trkpt lat="43.58361865078731" lon="6.835472147249094"><ele>285.8</ele><time>2026-04-12T08:36:36Z</time></trkpt><trkpt lat="43.58367323806842" lon="6.8355701283129475"><ele>286.0</ele><time>2026-04-12T08:36:38Z</time></trkpt><trkpt lat="43.58372366995363" lon="6.835678494266114"><ele>286.8333333333333</ele><time>2026-04-12T08:36:40Z</time></trkpt><trkpt lat="43.58376928415831" lon="6.835782372041765"><ele>287.66666666666663</ele><time>2026-04-12T08:36:42Z</time></trkpt><trkpt lat="43.58381423876914" lon="6.835882034198425"><ele>288.5</ele><time>2026-04-12T08:36:44Z</time></trkpt><trkpt lat="43.583866292309516" lon="6.835975007058256"><ele>289.3333333333333</ele><time>2026-04-12T08:36:46Z</time></trkpt><trkpt lat="43.58392142663348" lon="6.836064955723379"><ele>290.1666666666667</ele><time>2026-04-12T08:36:48Z</time></trkpt><trkpt lat="43.583971307419" lon="6.836137548495866"><ele>291.0</ele><time>2026-04-12T08:36:50Z</time></trkpt><trkpt lat="43.584034288199206" lon="6.836214508929876"><ele>291.0</ele><time>2026-04-12T08:36:52Z</time></trkpt><trkpt lat="43.58409405073192" lon="6.836276905787774"><ele>291.0</ele><time>2026-04-12T08:36:54Z</time></trkpt><trkpt lat="43.58415522251779" lon="6.836358679036148"><ele>291.0</ele><time>2026-04-12T08:36:56Z</time></trkpt><trkpt lat="43.5842149146409" lon="6.836439645453679"><ele>291.0</ele><time>2026-04-12T08:36:58Z</time></trkpt><trkpt lat="43.58427683711105" lon="6.836519984332369"><ele>291.0</ele><time>2026-04-12T08:37:00Z</time></trkpt><trkpt lat="43.584333109389966" lon="6.836598399256823"><ele>291.0</ele><time>2026-04-12T08:37:02Z</time></trkpt><trkpt lat="43.584396169627865" lon="6.836664260634183"><ele>291.0</ele><time>2026-04-12T08:37:04Z</time></trkpt><trkpt lat="43.58447373758225" lon="6.8367294464922885"><ele>291.0</ele><time>2026-04-12T08:37:06Z</time></trkpt><trkpt lat="43.584550296784634" lon="6.836769763164792"><ele>291.0</ele><time>2026-04-12T08:37:08Z</time></trkpt><trkpt lat="43.58464550845323" lon="6.836791234924753"><ele>291.0</ele><time>2026-04-12T08:37:10Z</time></trkpt><trkpt lat="43.58473034407619" lon="6.836792538856652"><ele>291.0</ele><time>2026-04-12T08:37:11.999Z</time></trkpt><trkpt lat="43.58482751092199" lon="6.836778925714947"><ele>291.2</ele><time>2026-04-12T08:37:13.999Z</time></trkpt><trkpt lat="43.58492604522488" lon="6.836769920104073"><ele>291.40000000000003</ele><time>2026-04-12T08:37:15.999Z</time></trkpt><trkpt lat="43.58502638237273" lon="6.836767893984922"><ele>291.6</ele><time>2026-04-12T08:37:17.999Z</time></trkpt><trkpt lat="43.58512308415335" lon="6.836778687871179"><ele>291.8</ele><time>2026-04-12T08:37:19.999Z</time></trkpt><trkpt lat="43.58521694356287" lon="6.836829351191158"><ele>292.0</ele><time>2026-04-12T08:37:21.999Z</time></trkpt><trkpt lat="43.585309337479856" lon="6.836885929811514"><ele>294.2</ele><time>2026-04-12T08:37:23.999Z</time></trkpt><trkpt lat="43.585391234937624" lon="6.83695961978842"><ele>296.4</ele><time>2026-04-12T08:37:25.999Z</time></trkpt><trkpt lat="43.5854642657453" lon="6.83705203540772"><ele>298.6</ele><time>2026-04-12T08:37:27.999Z</time></trkpt><trkpt lat="43.58552664267421" lon="6.837144044549452"><ele>300.8</ele><time>2026-04-12T08:37:29.999Z</time></trkpt><trkpt lat="43.585581496229615" lon="6.83725714621732"><ele>303.0</ele><time>2026-04-12T08:37:31.999Z</time></trkpt><trkpt lat="43.58562342623073" lon="6.837373156591012"><ele>303.0</ele><time>2026-04-12T08:37:33.999Z</time></trkpt><trkpt lat="43.5856675430303" lon="6.837483472526258"><ele>303.0</ele><time>2026-04-12T08:37:35.999Z</time></trkpt><trkpt lat="43.58571431201568" lon="6.837584191525715"><ele>303.0</ele><time>2026-04-12T08:37:37.999Z</time></trkpt><trkpt lat="43.58575958041208" lon="6.837682197364546"><ele>303.0</ele><time>2026-04-12T08:37:39.999Z</time></trkpt><trkpt lat="43.585804055328" lon="6.837776510890621"><ele>303.0</ele><time>2026-04-12T08:37:41.999Z</time></trkpt><trkpt lat="43.585848543629396" lon="6.837872455245297"><ele>303.0</ele><time>2026-04-12T08:37:43.999Z</time></trkpt><trkpt lat="43.58589527114854" lon="6.837971504125639"><ele>303.2</ele><time>2026-04-12T08:37:45.999Z</time></trkpt><trkpt lat="43.585937398601" lon="6.838069967693978"><ele>303.4</ele><time>2026-04-12T08:37:47.999Z</time></trkpt><trkpt lat="43.585988841445705" lon="6.838174019058689"><ele>303.59999999999997</ele><time>2026-04-12T08:37:49.999Z</time></trkpt><trkpt lat="43.5860378457344" lon="6.838280317298636"><ele>303.8</ele><time>2026-04-12T08:37:51.999Z</time></trkpt><trkpt lat="43.5860903503585" lon="6.838384831342922"><ele>304.0</ele><time>2026-04-12T08:37:53.999Z</time></trkpt><trkpt lat="43.5861490568587" lon="6.838483297475206"><ele>304.8</ele><time>2026-04-12T08:37:55.999Z</time></trkpt><trkpt lat="43.58621416029135" lon="6.838573658025298"><ele>305.59999999999997</ele><time>2026-04-12T08:37:57.999Z</time></trkpt><trkpt lat="43.58628773039857" lon="6.838646709340633"><ele>306.4</ele><time>2026-04-12T08:37:59.999Z</time></trkpt><trkpt lat="43.586365921533435" lon="6.838707098686317"><ele>307.2</ele><time>2026-04-12T08:38:01.999Z</time></trkpt><trkpt lat="43.58644480091093" lon="6.838758174359739"><ele>308.0</ele><time>2026-04-12T08:38:03.999Z</time></trkpt><trkpt lat="43.58652904473525" lon="6.838804476760639"><ele>308.0</ele><time>2026-04-12T08:38:05.999Z</time></trkpt><trkpt lat="43.586609549066026" lon="6.83884441327847"><ele>308.0</ele><time>2026-04-12T08:38:07.999Z</time></trkpt><trkpt lat="43.58669036104842" lon="6.838885135958612"><ele>308.0</ele><time>2026-04-12T08:38:10Z</time></trkpt><trkpt lat="43.586770134204635" lon="6.838921762260766"><ele>308.0</ele><time>2026-04-12T08:38:12Z</time></trkpt><trkpt lat="43.58684727921483" lon="6.838951909238502"><ele>308.0</ele><time>2026-04-12T08:38:14Z</time></trkpt><trkpt lat="43.586931830881234" lon="6.83899535717832"><ele>308.0</ele><time>2026-04-12T08:38:16Z</time></trkpt><trkpt lat="43.587013305460786" lon="6.839024738813514"><ele>309.6666666666667</ele><time>2026-04-12T08:38:18Z</time></trkpt><trkpt lat="43.58709667674332" lon="6.839063073711914"><ele>311.33333333333337</ele><time>2026-04-12T08:38:20Z</time></trkpt><trkpt lat="43.58716279148203" lon="6.839089207907455"><ele>313.0</ele><time>2026-04-12T08:38:22Z</time></trkpt><trkpt lat="43.58723883289239" lon="6.839117515979578"><ele>314.6666666666667</ele><time>2026-04-12T08:38:24Z</time></trkpt><trkpt lat="43.58731506241627" lon="6.839141564470748"><ele>316.3333333333333</ele><time>2026-04-12T08:38:26Z</time></trkpt><trkpt lat="43.58741252820551" lon="6.839158996794045"><ele>318.0</ele><time>2026-04-12T08:38:28Z</time></trkpt><trkpt lat="43.58749144944611" lon="6.839181616862278"><ele>318.0</ele><time>2026-04-12T08:38:30Z</time></trkpt><trkpt lat="43.58757914463052" lon="6.839186197568793"><ele>318.0</ele><time>2026-04-12T08:38:32Z</time></trkpt><trkpt lat="43.587667297136846" lon="6.839206115667014"><ele>318.0</ele><time>2026-04-12T08:38:34Z</time></trkpt><trkpt lat="43.58775726406257" lon="6.839228745933858"><ele>318.0</ele><time>2026-04-12T08:38:36Z</time></trkpt><trkpt lat="43.58784562052301" lon="6.8392606141331544"><ele>318.0</ele><time>2026-04-12T08:38:38Z</time></trkpt><trkpt lat="43.58792877677753" lon="6.8392874202373894"><ele>318.0</ele><time>2026-04-12T08:38:40Z</time></trkpt><trkpt lat="43.58801448563035" lon="6.8393180669110425"><ele>318.8333333333333</ele><time>2026-04-12T08:38:42Z</time></trkpt><trkpt lat="43.58809579944639" lon="6.839339788263306"><ele>319.6666666666667</ele><time>2026-04-12T08:38:44Z</time></trkpt><trkpt lat="43.58817849210557" lon="6.839353037174492"><ele>320.5</ele><time>2026-04-12T08:38:46Z</time></trkpt><trkpt lat="43.58825833254901" lon="6.839356714025985"><ele>321.33333333333337</ele><time>2026-04-12T08:38:48Z</time></trkpt><trkpt lat="43.58835723896651" lon="6.839399167368313"><ele>322.1666666666667</ele><time>2026-04-12T08:38:50Z</time></trkpt><trkpt lat="43.588428163766835" lon="6.839433960946126"><ele>323.0</ele><time>2026-04-12T08:38:52Z</time></trkpt><trkpt lat="43.588494212289305" lon="6.839496666821385"><ele>323.0</ele><time>2026-04-12T08:38:54Z</time></trkpt><trkpt lat="43.58856091094896" lon="6.839597893179102"><ele>323.0</ele><time>2026-04-12T08:38:56Z</time></trkpt><trkpt lat="43.588609474811236" lon="6.839728738526712"><ele>323.0</ele><time>2026-04-12T08:38:58Z</time></trkpt><trkpt lat="43.58862141161296" lon="6.8398725764072426"><ele>323.0</ele><time>2026-04-12T08:39:01Z</time></trkpt><trkpt lat="43.58861044302972" lon="6.840056263942149"><ele>323.0</ele><time>2026-04-12T08:39:03Z</time></trkpt><trkpt lat="43.58856509207972" lon="6.840181137527552"><ele>323.0</ele><time>2026-04-12T08:39:05Z</time></trkpt><trkpt lat="43.58853013781385" lon="6.840311437178514"><ele>323.0</ele><time>2026-04-12T08:39:07Z</time></trkpt><trkpt lat="43.588513845023876" lon="6.840461121973705"><ele>323.0</ele><time>2026-04-12T08:39:09Z</time></trkpt><trkpt lat="43.588492310631" lon="6.840624630130645"><ele>323.0</ele><time>2026-04-12T08:39:11Z</time></trkpt><trkpt lat="43.58848165801505" lon="6.840711801314993"><ele>323.0</ele><time>2026-04-12T08:39:12Z</time></trkpt><trkpt lat="43.58846870500317" lon="6.840810032262641"><ele>323.00000000000006</ele><time>2026-04-12T08:39:13Z</time></trkpt><trkpt lat="43.58845948764369" lon="6.8409008144421675"><ele>323.0</ele><time>2026-04-12T08:39:14Z</time></trkpt><trkpt lat="43.58844843992706" lon="6.8409922662363645"><ele>323.0</ele><time>2026-04-12T08:39:15Z</time></trkpt><trkpt lat="43.58844637824376" lon="6.841094583891828"><ele>323.0</ele><time>2026-04-12T08:39:15.999Z</time></trkpt><trkpt lat="43.588447118243" lon="6.841195971874891"><ele>323.0</ele><time>2026-04-12T08:39:16.999Z</time></trkpt><trkpt lat="43.58845606426234" lon="6.841297718094094"><ele>323.00000000000006</ele><time>2026-04-12T08:39:17.999Z</time></trkpt><trkpt lat="43.58844947168646" lon="6.841401098965727"><ele>323.0</ele><time>2026-04-12T08:39:18.999Z</time></trkpt><trkpt lat="43.588468648827025" lon="6.841506504596369"><ele>323.5714285714286</ele><time>2026-04-12T08:39:19.999Z</time></trkpt><trkpt lat="43.58845397516756" lon="6.841616451126671"><ele>324.14285714285717</ele><time>2026-04-12T08:39:20.999Z</time></trkpt><trkpt lat="43.588427245485185" lon="6.841717101077448"><ele>324.7142857142857</ele><time>2026-04-12T08:39:21.999Z</time></trkpt><trkpt lat="43.588401338358395" lon="6.841809881502681"><ele>325.28571428571433</ele><time>2026-04-12T08:39:22.999Z</time></trkpt><trkpt lat="43.58837594414118" lon="6.8419162006672565"><ele>325.8571428571429</ele><time>2026-04-12T08:39:23.999Z</time></trkpt><trkpt lat="43.58837347740312" lon="6.842012351623768"><ele>326.42857142857144</ele><time>2026-04-12T08:39:24.999Z</time></trkpt><trkpt lat="43.58835813473168" lon="6.84209694139092"><ele>327.0</ele><time>2026-04-12T08:39:25.999Z</time></trkpt><trkpt lat="43.588348450014365" lon="6.842184242840527"><ele>327.0</ele><time>2026-04-12T08:39:26.999Z</time></trkpt><trkpt lat="43.58833436813252" lon="6.842276981937214"><ele>327.0</ele><time>2026-04-12T08:39:27.999Z</time></trkpt><trkpt lat="43.58829658995042" lon="6.842366301355857"><ele>327.0</ele><time>2026-04-12T08:39:28.999Z</time></trkpt><trkpt lat="43.58827718283269" lon="6.842475986618332"><ele>327.0</ele><time>2026-04-12T08:39:29.999Z</time></trkpt><trkpt lat="43.58821950085079" lon="6.842562018474642"><ele>327.0</ele><time>2026-04-12T08:39:30.999Z</time></trkpt><trkpt lat="43.58819184166808" lon="6.842678254630019"><ele>327.0</ele><time>2026-04-12T08:39:31.999Z</time></trkpt><trkpt lat="43.58815092549533" lon="6.842790812871763"><ele>326.6</ele><time>2026-04-12T08:39:32.999Z</time></trkpt><trkpt lat="43.58812012685823" lon="6.842919724916035"><ele>326.20000000000005</ele><time>2026-04-12T08:39:33.999Z</time></trkpt><trkpt lat="43.58810263590641" lon="6.843054587294786"><ele>325.8</ele><time>2026-04-12T08:39:34.999Z</time></trkpt><trkpt lat="43.58809698618697" lon="6.84319742202966"><ele>325.4</ele><time>2026-04-12T08:39:35.999Z</time></trkpt><trkpt lat="43.588099481621484" lon="6.843341170594191"><ele>325.0</ele><time>2026-04-12T08:39:36.999Z</time></trkpt><trkpt lat="43.58814495413767" lon="6.843501727258406"><ele>327.5</ele><time>2026-04-12T08:39:37.999Z</time></trkpt><trkpt lat="43.58824933148901" lon="6.843606023234241"><ele>330.0</ele><time>2026-04-12T08:39:38.999Z</time></trkpt><trkpt lat="43.58840093338007" lon="6.843605486712252"><ele>332.5</ele><time>2026-04-12T08:39:39.999Z</time></trkpt><trkpt lat="43.5885053155294" lon="6.843675996053782"><ele>335.0</ele><time>2026-04-12T08:39:40.999Z</time></trkpt><trkpt lat="43.588607476702016" lon="6.843760364489826"><ele>335.0</ele><time>2026-04-12T08:39:41.999Z</time></trkpt><trkpt lat="43.58866915040073" lon="6.843876249786486"><ele>335.0</ele><time>2026-04-12T08:39:42.999Z</time></trkpt><trkpt lat="43.588761142103245" lon="6.844020011612783"><ele>335.0</ele><time>2026-04-12T08:39:43.999Z</time></trkpt><trkpt lat="43.58885262145726" lon="6.8441533633145415"><ele>335.0</ele><time>2026-04-12T08:39:44.999Z</time></trkpt><trkpt lat="43.588967358336674" lon="6.844258407856847"><ele>333.5</ele><time>2026-04-12T08:39:45.999Z</time></trkpt><trkpt lat="43.589081744414706" lon="6.844368318579345"><ele>332.0</ele><time>2026-04-12T08:39:46.999Z</time></trkpt><trkpt lat="43.58920908337108" lon="6.844453204282604"><ele>330.5</ele><time>2026-04-12T08:39:47.999Z</time></trkpt><trkpt lat="43.58932770609491" lon="6.844566226632432"><ele>329.0</ele><time>2026-04-12T08:39:48.999Z</time></trkpt><trkpt lat="43.589453271500886" lon="6.8446622971149385"><ele>322.6666666666667</ele><time>2026-04-12T08:39:49.999Z</time></trkpt><trkpt lat="43.589580415902525" lon="6.844759952939737"><ele>316.3333333333333</ele><time>2026-04-12T08:39:50.999Z</time></trkpt><trkpt lat="43.589713554014594" lon="6.844857746821744"><ele>310.0</ele><time>2026-04-12T08:39:51.999Z</time></trkpt><trkpt lat="43.58986312928941" lon="6.844923084524672"><ele>310.0</ele><time>2026-04-12T08:39:52.999Z</time></trkpt><trkpt lat="43.59001705573062" lon="6.844941995302559"><ele>310.0</ele><time>2026-04-12T08:39:53.999Z</time></trkpt><trkpt lat="43.590165614154905" lon="6.844999264074344"><ele>310.0</ele><time>2026-04-12T08:39:54.999Z</time></trkpt><trkpt lat="43.59032062115908" lon="6.845041227665583"><ele>313.66666666666663</ele><time>2026-04-12T08:39:55.999Z</time></trkpt><trkpt lat="43.59047409750036" lon="6.845095521175379"><ele>317.3333333333333</ele><time>2026-04-12T08:39:56.999Z</time></trkpt><trkpt lat="43.59062582771711" lon="6.845161104876378"><ele>321.0</ele><time>2026-04-12T08:39:57.999Z</time></trkpt><trkpt lat="43.59078586233931" lon="6.8452154873105435"><ele>321.0</ele><time>2026-04-12T08:39:58.999Z</time></trkpt><trkpt lat="43.5909477245509" lon="6.845245185053159"><ele>321.0</ele><time>2026-04-12T08:39:59.999Z</time></trkpt><trkpt lat="43.5911084599652" lon="6.8452664955307005"><ele>321.0</ele><time>2026-04-12T08:40:00.999Z</time></trkpt><trkpt lat="43.59125896391425" lon="6.845283237740987"><ele>315.0</ele><time>2026-04-12T08:40:01.999Z</time></trkpt><trkpt lat="43.59140037657255" lon="6.8453238846913775"><ele>309.0</ele><time>2026-04-12T08:40:02.999Z</time></trkpt><trkpt lat="43.59151979390372" lon="6.845419972055382"><ele>303.0</ele><time>2026-04-12T08:40:03.999Z</time></trkpt><trkpt lat="43.59162541375107" lon="6.845567442245458"><ele>297.0</ele><time>2026-04-12T08:40:04.999Z</time></trkpt><trkpt lat="43.59173486685117" lon="6.845725241935989"><ele>297.0</ele><time>2026-04-12T08:40:05.999Z</time></trkpt><trkpt lat="43.591842882372525" lon="6.845880967251132"><ele>297.0</ele><time>2026-04-12T08:40:06.999Z</time></trkpt><trkpt lat="43.591956546580214" lon="6.846043370043144"><ele>297.0</ele><time>2026-04-12T08:40:07.999Z</time></trkpt><trkpt lat="43.59208434246418" lon="6.846182317804912"><ele>293.3333333333333</ele><time>2026-04-12T08:40:08.999Z</time></trkpt><trkpt lat="43.59221560379797" lon="6.846306249716146"><ele>289.66666666666663</ele><time>2026-04-12T08:40:09.999Z</time></trkpt><trkpt lat="43.592355087890496" lon="6.846414172380473"><ele>286.0</ele><time>2026-04-12T08:40:10.999Z</time></trkpt><trkpt lat="43.59246926730085" lon="6.84655685187432"><ele>286.0</ele><time>2026-04-12T08:40:11.999Z</time></trkpt><trkpt lat="43.59257385554169" lon="6.846706985126029"><ele>286.0</ele><time>2026-04-12T08:40:12.999Z</time></trkpt><trkpt lat="43.59265909032788" lon="6.846875826021942"><ele>286.0</ele><time>2026-04-12T08:40:13.999Z</time></trkpt><trkpt lat="43.59272995150846" lon="6.847066446795519"><ele>289.66666666666663</ele><time>2026-04-12T08:40:14.999Z</time></trkpt><trkpt lat="43.59280115523915" lon="6.847261856565177"><ele>293.3333333333333</ele><time>2026-04-12T08:40:16Z</time></trkpt><trkpt lat="43.59290462976261" lon="6.847431363666689"><ele>297.0</ele><time>2026-04-12T08:40:17Z</time></trkpt><trkpt lat="43.593007866009984" lon="6.847587360382394"><ele>290.0</ele><time>2026-04-12T08:40:18Z</time></trkpt><trkpt lat="43.59308848119089" lon="6.847758287715795"><ele>283.0</ele><time>2026-04-12T08:40:19Z</time></trkpt><trkpt lat="43.5931771671643" lon="6.847920263161289"><ele>276.0</ele><time>2026-04-12T08:40:20Z</time></trkpt><trkpt lat="43.593253062376014" lon="6.848086392973313"><ele>269.0</ele><time>2026-04-12T08:40:21Z</time></trkpt><trkpt lat="43.593321300402636" lon="6.848247876069274"><ele>269.0</ele><time>2026-04-12T08:40:22Z</time></trkpt><trkpt lat="43.59337765089493" lon="6.848403194855671"><ele>269.0</ele><time>2026-04-12T08:40:23Z</time></trkpt><trkpt lat="43.59341778742407" lon="6.848549605952847"><ele>269.0</ele><time>2026-04-12T08:40:24Z</time></trkpt><trkpt lat="43.59340904968112" lon="6.848674536178962"><ele>269.0</ele><time>2026-04-12T08:40:25Z</time></trkpt><trkpt lat="43.593365105653106" lon="6.848784339125817"><ele>269.0</ele><time>2026-04-12T08:40:26Z</time></trkpt><trkpt lat="43.593235073529826" lon="6.84878155016248"><ele>265.25</ele><time>2026-04-12T08:40:27Z</time></trkpt><trkpt lat="43.59311631675752" lon="6.84876525404385"><ele>261.5</ele><time>2026-04-12T08:40:28Z</time></trkpt><trkpt lat="43.593001955016014" lon="6.8487844137219716"><ele>257.75</ele><time>2026-04-12T08:40:29Z</time></trkpt><trkpt lat="43.59288819396211" lon="6.848793373950762"><ele>254.0</ele><time>2026-04-12T08:40:30Z</time></trkpt><trkpt lat="43.592770027612914" lon="6.848812095171465"><ele>254.0</ele><time>2026-04-12T08:40:31Z</time></trkpt><trkpt lat="43.592645096086386" lon="6.848831572269147"><ele>254.0</ele><time>2026-04-12T08:40:32Z</time></trkpt><trkpt lat="43.592517221291075" lon="6.848853737542209"><ele>254.0</ele><time>2026-04-12T08:40:33Z</time></trkpt><trkpt lat="43.59238759204362" lon="6.848895068942962"><ele>254.0</ele><time>2026-04-12T08:40:34Z</time></trkpt><trkpt lat="43.592257457084806" lon="6.848958118453796"><ele>254.0</ele><time>2026-04-12T08:40:35Z</time></trkpt><trkpt lat="43.59213296488107" lon="6.8490267611495605"><ele>254.0</ele><time>2026-04-12T08:40:36Z</time></trkpt><trkpt lat="43.592008152423475" lon="6.849099399945358"><ele>254.0</ele><time>2026-04-12T08:40:37Z</time></trkpt><trkpt lat="43.59188093405101" lon="6.8491944981526895"><ele>254.0</ele><time>2026-04-12T08:40:38Z</time></trkpt><trkpt lat="43.59177896083567" lon="6.849320968275484"><ele>248.5</ele><time>2026-04-12T08:40:39Z</time></trkpt><trkpt lat="43.59168152087437" lon="6.849450595655837"><ele>243.0</ele><time>2026-04-12T08:40:40Z</time></trkpt><trkpt lat="43.59156488577305" lon="6.84952322317681"><ele>237.5</ele><time>2026-04-12T08:40:41Z</time></trkpt><trkpt lat="43.59144569620659" lon="6.849559449482122"><ele>232.0</ele><time>2026-04-12T08:40:42Z</time></trkpt><trkpt lat="43.59131286468899" lon="6.849543925577205"><ele>229.25</ele><time>2026-04-12T08:40:43Z</time></trkpt><trkpt lat="43.59117099420873" lon="6.849525390778218"><ele>226.5</ele><time>2026-04-12T08:40:44Z</time></trkpt><trkpt lat="43.59103353508881" lon="6.849526367879377"><ele>223.75</ele><time>2026-04-12T08:40:45Z</time></trkpt><trkpt lat="43.59089406766923" lon="6.849506606905892"><ele>221.0</ele><time>2026-04-12T08:40:46Z</time></trkpt><trkpt lat="43.59075146462773" lon="6.849456180378422"><ele>221.0</ele><time>2026-04-12T08:40:47Z</time></trkpt><trkpt lat="43.59062340517276" lon="6.84937338380977"><ele>221.0</ele><time>2026-04-12T08:40:48Z</time></trkpt><trkpt lat="43.59049200570307" lon="6.849261786860892"><ele>221.0</ele><time>2026-04-12T08:40:49Z</time></trkpt><trkpt lat="43.59035233131588" lon="6.8492276377205386"><ele>221.0</ele><time>2026-04-12T08:40:50Z</time></trkpt><trkpt lat="43.59021502370457" lon="6.849203512874114"><ele>220.0</ele><time>2026-04-12T08:40:51Z</time></trkpt><trkpt lat="43.59008268953191" lon="6.849198731865715"><ele>219.0</ele><time>2026-04-12T08:40:52Z</time></trkpt><trkpt lat="43.58994277994152" lon="6.8492017256631295"><ele>218.0</ele><time>2026-04-12T08:40:53Z</time></trkpt><trkpt lat="43.5898102299216" lon="6.849267094728456"><ele>217.0</ele><time>2026-04-12T08:40:54Z</time></trkpt><trkpt lat="43.58968808505599" lon="6.849357398739105"><ele>217.0</ele><time>2026-04-12T08:40:55Z</time></trkpt><trkpt lat="43.589568380314745" lon="6.849395916101701"><ele>217.0</ele><time>2026-04-12T08:40:56Z</time></trkpt><trkpt lat="43.589475129537014" lon="6.849461378425565"><ele>217.0</ele><time>2026-04-12T08:40:57Z</time></trkpt><trkpt lat="43.58943159865007" lon="6.8496168661419885"><ele>217.0</ele><time>2026-04-12T08:40:58Z</time></trkpt><trkpt lat="43.58946334209043" lon="6.8498017594816405"><ele>217.0</ele><time>2026-04-12T08:40:59Z</time></trkpt><trkpt lat="43.58953561746159" lon="6.8499593589748375"><ele>217.0</ele><time>2026-04-12T08:41:00Z</time></trkpt><trkpt lat="43.589604410682284" lon="6.850093655272682"><ele>217.0</ele><time>2026-04-12T08:41:01Z</time></trkpt><trkpt lat="43.58958118866627" lon="6.850258486031468"><ele>217.0</ele><time>2026-04-12T08:41:02Z</time></trkpt><trkpt lat="43.58952068670812" lon="6.850405218697938"><ele>215.0</ele><time>2026-04-12T08:41:03Z</time></trkpt><trkpt lat="43.58946457052648" lon="6.850571983443663"><ele>213.0</ele><time>2026-04-12T08:41:04Z</time></trkpt><trkpt lat="43.589407868244294" lon="6.850736711351529"><ele>211.0</ele><time>2026-04-12T08:41:05Z</time></trkpt><trkpt lat="43.589346131142946" lon="6.850906147049202"><ele>209.0</ele><time>2026-04-12T08:41:06Z</time></trkpt><trkpt lat="43.589280819492785" lon="6.851072538687712"><ele>209.0</ele><time>2026-04-12T08:41:07Z</time></trkpt><trkpt lat="43.5891958426663" lon="6.851214190198988"><ele>209.0</ele><time>2026-04-12T08:41:08Z</time></trkpt><trkpt lat="43.58905545995784" lon="6.851281612611588"><ele>209.0</ele><time>2026-04-12T08:41:09Z</time></trkpt><trkpt lat="43.588949235412805" lon="6.851403628023144"><ele>209.0</ele><time>2026-04-12T08:41:10Z</time></trkpt><trkpt lat="43.588884745881806" lon="6.851590695962555"><ele>209.0</ele><time>2026-04-12T08:41:11Z</time></trkpt><trkpt lat="43.588836012277625" lon="6.851784013772717"><ele>209.0</ele><time>2026-04-12T08:41:12Z</time></trkpt><trkpt lat="43.58875941788063" lon="6.85195396376282"><ele>209.0</ele><time>2026-04-12T08:41:13Z</time></trkpt><trkpt lat="43.58868681223191" lon="6.8521272618831555"><ele>209.0</ele><time>2026-04-12T08:41:14Z</time></trkpt><trkpt lat="43.58859622223927" lon="6.852286346669021"><ele>211.0</ele><time>2026-04-12T08:41:15Z</time></trkpt><trkpt lat="43.58849745752579" lon="6.852424762422933"><ele>213.0</ele><time>2026-04-12T08:41:16Z</time></trkpt><trkpt lat="43.588407290287684" lon="6.85254837549486"><ele>215.0</ele><time>2026-04-12T08:41:17Z</time></trkpt><trkpt lat="43.58832217461945" lon="6.8526415523568085"><ele>217.0</ele><time>2026-04-12T08:41:18Z</time></trkpt><trkpt lat="43.58821739012481" lon="6.852693748429508"><ele>217.0</ele><time>2026-04-12T08:41:19Z</time></trkpt><trkpt lat="43.588106174344304" lon="6.852599093671413"><ele>217.0</ele><time>2026-04-12T08:41:20Z</time></trkpt><trkpt lat="43.58798397803656" lon="6.85252040848706"><ele>217.0</ele><time>2026-04-12T08:41:21Z</time></trkpt><trkpt lat="43.58786173843306" lon="6.852512406460161"><ele>217.0</ele><time>2026-04-12T08:41:22Z</time></trkpt><trkpt lat="43.58774726035183" lon="6.852654693254955"><ele>210.75</ele><time>2026-04-12T08:41:23Z</time></trkpt><trkpt lat="43.587657073971116" lon="6.852810269208437"><ele>204.5</ele><time>2026-04-12T08:41:23.999Z</time></trkpt><trkpt lat="43.5875549457577" lon="6.85291614091981"><ele>198.25</ele><time>2026-04-12T08:41:24.999Z</time></trkpt><trkpt lat="43.58746052580364" lon="6.853003463920253"><ele>192.0</ele><time>2026-04-12T08:41:25.999Z</time></trkpt><trkpt lat="43.58734637815698" lon="6.853031143263599"><ele>192.0</ele><time>2026-04-12T08:41:26.999Z</time></trkpt><trkpt lat="43.58723362877444" lon="6.8529730305421515"><ele>192.0</ele><time>2026-04-12T08:41:27.999Z</time></trkpt><trkpt lat="43.58710867047428" lon="6.852943784848279"><ele>192.0</ele><time>2026-04-12T08:41:28.999Z</time></trkpt><trkpt lat="43.58699047094111" lon="6.852987780698778"><ele>192.0</ele><time>2026-04-12T08:41:29.999Z</time></trkpt><trkpt lat="43.58688167933113" lon="6.853087355736074"><ele>193.25</ele><time>2026-04-12T08:41:30.999Z</time></trkpt><trkpt lat="43.58680118873819" lon="6.85323798740292"><ele>194.5</ele><time>2026-04-12T08:41:31.999Z</time></trkpt><trkpt lat="43.58676120194551" lon="6.853431638413881"><ele>195.75</ele><time>2026-04-12T08:41:32.999Z</time></trkpt><trkpt lat="43.586754574047774" lon="6.853621514439713"><ele>197.0</ele><time>2026-04-12T08:41:33.999Z</time></trkpt><trkpt lat="43.58672934317847" lon="6.853798849974671"><ele>197.0</ele><time>2026-04-12T08:41:34.999Z</time></trkpt><trkpt lat="43.586650326533366" lon="6.853951094422079"><ele>197.0</ele><time>2026-04-12T08:41:35.999Z</time></trkpt><trkpt lat="43.58656379987633" lon="6.854101734342023"><ele>197.0</ele><time>2026-04-12T08:41:36.999Z</time></trkpt><trkpt lat="43.58648483797713" lon="6.854266630264797"><ele>197.0</ele><time>2026-04-12T08:41:37.999Z</time></trkpt><trkpt lat="43.586455258610854" lon="6.854467955827469"><ele>192.75</ele><time>2026-04-12T08:41:38.999Z</time></trkpt><trkpt lat="43.58644257386919" lon="6.854669580076408"><ele>188.5</ele><time>2026-04-12T08:41:39.999Z</time></trkpt><trkpt lat="43.58641136831978" lon="6.854862186607309"><ele>184.25</ele><time>2026-04-12T08:41:40.999Z</time></trkpt><trkpt lat="43.5863691265183" lon="6.855045309739987"><ele>180.0</ele><time>2026-04-12T08:41:41.999Z</time></trkpt><trkpt lat="43.586338445889375" lon="6.855226544088352"><ele>179.5</ele><time>2026-04-12T08:41:42.999Z</time></trkpt><trkpt lat="43.586314128077674" lon="6.855414994769747"><ele>179.0</ele><time>2026-04-12T08:41:43.999Z</time></trkpt><trkpt lat="43.58636174115626" lon="6.855612947202487"><ele>178.5</ele><time>2026-04-12T08:41:44.999Z</time></trkpt><trkpt lat="43.586422385975354" lon="6.855798014731834"><ele>178.0</ele><time>2026-04-12T08:41:45.999Z</time></trkpt><trkpt lat="43.58648741782027" lon="6.855973959721556"><ele>179.0</ele><time>2026-04-12T08:41:46.999Z</time></trkpt><trkpt lat="43.58657819017396" lon="6.856131436649663"><ele>180.0</ele><time>2026-04-12T08:41:47.999Z</time></trkpt><trkpt lat="43.58667437672299" lon="6.856267878148959"><ele>181.0</ele><time>2026-04-12T08:41:48.999Z</time></trkpt><trkpt lat="43.5867902951432" lon="6.856396980677874"><ele>182.0</ele><time>2026-04-12T08:41:49.999Z</time></trkpt><trkpt lat="43.58690821121126" lon="6.85649439827859"><ele>178.0</ele><time>2026-04-12T08:41:50.999Z</time></trkpt><trkpt lat="43.587012484364365" lon="6.856578767444026"><ele>174.0</ele><time>2026-04-12T08:41:51.999Z</time></trkpt><trkpt lat="43.587094856772595" lon="6.856655124883055"><ele>170.0</ele><time>2026-04-12T08:41:52.999Z</time></trkpt><trkpt lat="43.5871199530321" lon="6.856776057996949"><ele>166.0</ele><time>2026-04-12T08:41:53.999Z</time></trkpt><trkpt lat="43.587074720280164" lon="6.856904089843931"><ele>162.0</ele><time>2026-04-12T08:41:54.999Z</time></trkpt><trkpt lat="43.5869644504634" lon="6.85697632050055"><ele>162.0</ele><time>2026-04-12T08:41:55.999Z</time></trkpt><trkpt lat="43.58683427551127" lon="6.8569486391089765"><ele>162.0</ele><time>2026-04-12T08:41:56.999Z</time></trkpt><trkpt lat="43.58674541094386" lon="6.857045090994504"><ele>162.0</ele><time>2026-04-12T08:41:57.999Z</time></trkpt><trkpt lat="43.58664366029823" lon="6.857129103471256"><ele>162.0</ele><time>2026-04-12T08:41:58.999Z</time></trkpt><trkpt lat="43.586545300466845" lon="6.857230392238893"><ele>162.0</ele><time>2026-04-12T08:41:59.999Z</time></trkpt><trkpt lat="43.586453211494074" lon="6.8573635034562"><ele>162.0</ele><time>2026-04-12T08:42:00.999Z</time></trkpt><trkpt lat="43.58636140554089" lon="6.857492965743007"><ele>162.0</ele><time>2026-04-12T08:42:01.999Z</time></trkpt><trkpt lat="43.58627373080037" lon="6.8576394143578945"><ele>162.0</ele><time>2026-04-12T08:42:02.999Z</time></trkpt><trkpt lat="43.586223895686594" lon="6.857821474288946"><ele>162.0</ele><time>2026-04-12T08:42:03.999Z</time></trkpt><trkpt lat="43.586146627787215" lon="6.857960482313994"><ele>162.0</ele><time>2026-04-12T08:42:04.999Z</time></trkpt><trkpt lat="43.58601201514988" lon="6.858000108496061"><ele>162.0</ele><time>2026-04-12T08:42:05.999Z</time></trkpt><trkpt lat="43.58587582404778" lon="6.858051273788265"><ele>162.0</ele><time>2026-04-12T08:42:06.999Z</time></trkpt><trkpt lat="43.58576266618097" lon="6.858164081002579"><ele>162.0</ele><time>2026-04-12T08:42:07.999Z</time></trkpt><trkpt lat="43.58567770345192" lon="6.858323518915287"><ele>162.0</ele><time>2026-04-12T08:42:08.999Z</time></trkpt><trkpt lat="43.58561255941426" lon="6.858506901091702"><ele>162.0</ele><time>2026-04-12T08:42:09.999Z</time></trkpt><trkpt lat="43.585553220247604" lon="6.858680509334129"><ele>162.0</ele><time>2026-04-12T08:42:10.999Z</time></trkpt><trkpt lat="43.585472483713545" lon="6.85883494738247"><ele>161.75</ele><time>2026-04-12T08:42:11.999Z</time></trkpt><trkpt lat="43.585431316071215" lon="6.859003105016549"><ele>161.5</ele><time>2026-04-12T08:42:12.999Z</time></trkpt><trkpt lat="43.5853830028965" lon="6.859149327820961"><ele>161.25</ele><time>2026-04-12T08:42:13.999Z</time></trkpt><trkpt lat="43.58533901965843" lon="6.8592818216393585"><ele>161.0</ele><time>2026-04-12T08:42:14.999Z</time></trkpt><trkpt lat="43.58543427612534" lon="6.859422455115237"><ele>161.0</ele><time>2026-04-12T08:42:15.999Z</time></trkpt><trkpt lat="43.58553140309057" lon="6.859512840676633"><ele>161.0</ele><time>2026-04-12T08:42:16.999Z</time></trkpt><trkpt lat="43.58563024736387" lon="6.859587693521373"><ele>161.0</ele><time>2026-04-12T08:42:17.999Z</time></trkpt><trkpt lat="43.58572520610699" lon="6.8596703379447845"><ele>161.0</ele><time>2026-04-12T08:42:18.999Z</time></trkpt><trkpt lat="43.585808293626435" lon="6.859783760465002"><ele>161.0</ele><time>2026-04-12T08:42:19.999Z</time></trkpt><trkpt lat="43.58590935346346" lon="6.859847726080122"><ele>161.0</ele><time>2026-04-12T08:42:20.999Z</time></trkpt><trkpt lat="43.586032546886955" lon="6.859822024124122"><ele>161.0</ele><time>2026-04-12T08:42:22Z</time></trkpt><trkpt lat="43.586110114388426" lon="6.859676312301877"><ele>161.0</ele><time>2026-04-12T08:42:23Z</time></trkpt><trkpt lat="43.58615285555614" lon="6.859553365737232"><ele>162.71428571428572</ele><time>2026-04-12T08:42:24Z</time></trkpt><trkpt lat="43.58619462732671" lon="6.859457274866895"><ele>164.42857142857144</ele><time>2026-04-12T08:42:25Z</time></trkpt><trkpt lat="43.586237991598644" lon="6.8593758532238365"><ele>166.14285714285714</ele><time>2026-04-12T08:42:26Z</time></trkpt><trkpt lat="43.5862809791648" lon="6.859297254921805"><ele>167.85714285714286</ele><time>2026-04-12T08:42:27Z</time></trkpt><trkpt lat="43.58632183019454" lon="6.859217253097759"><ele>169.57142857142858</ele><time>2026-04-12T08:42:28Z</time></trkpt><trkpt lat="43.58636207841051" lon="6.859142902347185"><ele>171.28571428571428</ele><time>2026-04-12T08:42:29Z</time></trkpt><trkpt lat="43.58640915182621" lon="6.859078438482964"><ele>173.0</ele><time>2026-04-12T08:42:30Z</time></trkpt><trkpt lat="43.5864578409045" lon="6.85902267671975"><ele>173.0</ele><time>2026-04-12T08:42:31Z</time></trkpt><trkpt lat="43.586550612673825" lon="6.858915342743522"><ele>173.0</ele><time>2026-04-12T08:42:33Z</time></trkpt><trkpt lat="43.58663625140529" lon="6.85880952063462"><ele>173.0</ele><time>2026-04-12T08:42:35Z</time></trkpt><trkpt lat="43.586714199223344" lon="6.85869574762599"><ele>173.0</ele><time>2026-04-12T08:42:37Z</time></trkpt><trkpt lat="43.58678163239751" lon="6.8585662571135115"><ele>173.60000000000002</ele><time>2026-04-12T08:42:39Z</time></trkpt><trkpt lat="43.58682688619838" lon="6.858434522860361"><ele>174.20000000000002</ele><time>2026-04-12T08:42:41Z</time></trkpt><trkpt lat="43.58689182835307" lon="6.8583213412283595"><ele>174.8</ele><time>2026-04-12T08:42:43Z</time></trkpt><trkpt lat="43.58697558413675" lon="6.8582350051470735"><ele>175.4</ele><time>2026-04-12T08:42:45Z</time></trkpt><trkpt lat="43.587058687924376" lon="6.8582090093154395"><ele>176.0</ele><time>2026-04-12T08:42:47Z</time></trkpt><trkpt lat="43.58716954591116" lon="6.8581896479492235"><ele>176.0</ele><time>2026-04-12T08:42:49Z</time></trkpt><trkpt lat="43.58725963735366" lon="6.858195670162128"><ele>176.0</ele><time>2026-04-12T08:42:51Z</time></trkpt><trkpt lat="43.58734821496351" lon="6.8581957928929524"><ele>176.0</ele><time>2026-04-12T08:42:53Z</time></trkpt><trkpt lat="43.58743728213913" lon="6.858186776658701"><ele>176.0</ele><time>2026-04-12T08:42:55Z</time></trkpt><trkpt lat="43.5875217341361" lon="6.858163568063287"><ele>176.0</ele><time>2026-04-12T08:42:57Z</time></trkpt><trkpt lat="43.58760387118626" lon="6.858125184889088"><ele>176.0</ele><time>2026-04-12T08:42:59Z</time></trkpt><trkpt lat="43.587684882145275" lon="6.858079085996892"><ele>176.0</ele><time>2026-04-12T08:43:01Z</time></trkpt><trkpt lat="43.587766766768425" lon="6.858037864554119"><ele>176.0</ele><time>2026-04-12T08:43:03Z</time></trkpt><trkpt lat="43.587845761498876" lon="6.857990221674931"><ele>176.0</ele><time>2026-04-12T08:43:05Z</time></trkpt><trkpt lat="43.58791533005984" lon="6.857922907467617"><ele>176.0</ele><time>2026-04-12T08:43:07Z</time></trkpt><trkpt lat="43.5879657449194" lon="6.857830055497472"><ele>176.0</ele><time>2026-04-12T08:43:09Z</time></trkpt><trkpt lat="43.58797863733914" lon="6.857716871694186"><ele>176.0</ele><time>2026-04-12T08:43:11Z</time></trkpt><trkpt lat="43.58798602725812" lon="6.857607379036035"><ele>177.14285714285714</ele><time>2026-04-12T08:43:13Z</time></trkpt><trkpt lat="43.588003281017095" lon="6.857506501327198"><ele>178.28571428571428</ele><time>2026-04-12T08:43:15Z</time></trkpt><trkpt lat="43.58803319244143" lon="6.857402682551866"><ele>179.42857142857144</ele><time>2026-04-12T08:43:17Z</time></trkpt><trkpt lat="43.58809028107347" lon="6.857334682131304"><ele>180.57142857142856</ele><time>2026-04-12T08:43:19Z</time></trkpt><trkpt lat="43.588151946885326" lon="6.8572809526674945"><ele>181.7142857142857</ele><time>2026-04-12T08:43:21Z</time></trkpt><trkpt lat="43.58822235780402" lon="6.857255740020035"><ele>182.85714285714286</ele><time>2026-04-12T08:43:23Z</time></trkpt><trkpt lat="43.58829125771019" lon="6.8572354549383965"><ele>184.0</ele><time>2026-04-12T08:43:25Z</time></trkpt><trkpt lat="43.588354188224265" lon="6.85720339510488"><ele>184.0</ele><time>2026-04-12T08:43:27Z</time></trkpt><trkpt lat="43.58840916966065" lon="6.857141567942533"><ele>184.0</ele><time>2026-04-12T08:43:29Z</time></trkpt><trkpt lat="43.58844971017589" lon="6.85705292798089"><ele>184.0</ele><time>2026-04-12T08:43:30.999Z</time></trkpt><trkpt lat="43.5884566369061" lon="6.8569486247295055"><ele>184.0</ele><time>2026-04-12T08:43:32.999Z</time></trkpt><trkpt lat="43.58843739441479" lon="6.8568449021541"><ele>184.0</ele><time>2026-04-12T08:43:34.999Z</time></trkpt><trkpt lat="43.58840663842045" lon="6.856721193948485"><ele>184.0</ele><time>2026-04-12T08:43:37.999Z</time></trkpt><trkpt lat="43.58840317296818" lon="6.856618114956321"><ele>181.33333333333334</ele><time>2026-04-12T08:43:39.999Z</time></trkpt><trkpt lat="43.58842254500676" lon="6.856514778824795"><ele>178.66666666666669</ele><time>2026-04-12T08:43:41.999Z</time></trkpt><trkpt lat="43.58845117210127" lon="6.85643431809785"><ele>176.0</ele><time>2026-04-12T08:43:43.999Z</time></trkpt><trkpt lat="43.58849393464906" lon="6.856336316814702"><ele>173.33333333333334</ele><time>2026-04-12T08:43:45.999Z</time></trkpt><trkpt lat="43.58853787041772" lon="6.856267388871895"><ele>170.66666666666666</ele><time>2026-04-12T08:43:48.999Z</time></trkpt><trkpt lat="43.58860243803662" lon="6.856206660903075"><ele>168.0</ele><time>2026-04-12T08:43:50.999Z</time></trkpt><trkpt lat="43.5886872336575" lon="6.8561779163224434"><ele>173.66666666666666</ele><time>2026-04-12T08:43:52.999Z</time></trkpt><trkpt lat="43.58877121286648" lon="6.856158122149495"><ele>179.33333333333331</ele><time>2026-04-12T08:43:54.999Z</time></trkpt><trkpt lat="43.58885256886686" lon="6.856159881292057"><ele>185.0</ele><time>2026-04-12T08:43:56.999Z</time></trkpt><trkpt lat="43.58892847849245" lon="6.8561500757678555"><ele>190.66666666666666</ele><time>2026-04-12T08:43:58.999Z</time></trkpt><trkpt lat="43.58901208349962" lon="6.856153376420969"><ele>196.33333333333331</ele><time>2026-04-12T08:44:00.999Z</time></trkpt><trkpt lat="43.58908957547279" lon="6.85615852002474"><ele>202.0</ele><time>2026-04-12T08:44:02.999Z</time></trkpt><trkpt lat="43.58916693451145" lon="6.85616362218129"><ele>201.99999999999997</ele><time>2026-04-12T08:44:04.999Z</time></trkpt><trkpt lat="43.58924502899293" lon="6.8561610599913285"><ele>202.0</ele><time>2026-04-12T08:44:06.999Z</time></trkpt><trkpt lat="43.58932577738399" lon="6.856158064839216"><ele>202.0</ele><time>2026-04-12T08:44:08.999Z</time></trkpt><trkpt lat="43.58940801706624" lon="6.856150518156577"><ele>202.0</ele><time>2026-04-12T08:44:10.999Z</time></trkpt><trkpt lat="43.589503466456" lon="6.856137127419255"><ele>201.99999999999997</ele><time>2026-04-12T08:44:13.999Z</time></trkpt><trkpt lat="43.58957263556787" lon="6.856125896839664"><ele>202.0</ele><time>2026-04-12T08:44:16.999Z</time></trkpt><trkpt lat="43.58970456870438" lon="6.856133464319749"><ele>202.83333333333331</ele><time>2026-04-12T08:44:17.999Z</time></trkpt><trkpt lat="43.589785731808995" lon="6.856145781824437"><ele>203.66666666666666</ele><time>2026-04-12T08:44:19.999Z</time></trkpt><trkpt lat="43.589865073526056" lon="6.856167665517941"><ele>204.5</ele><time>2026-04-12T08:44:21.999Z</time></trkpt><trkpt lat="43.58994259247973" lon="6.856192728804086"><ele>205.33333333333331</ele><time>2026-04-12T08:44:23.999Z</time></trkpt><trkpt lat="43.59001391999576" lon="6.856235209058786"><ele>206.16666666666666</ele><time>2026-04-12T08:44:25.999Z</time></trkpt><trkpt lat="43.590082413493064" lon="6.85629134059177"><ele>207.0</ele><time>2026-04-12T08:44:28Z</time></trkpt><trkpt lat="43.59015253970039" lon="6.856341162133001"><ele>207.0</ele><time>2026-04-12T08:44:30Z</time></trkpt><trkpt lat="43.59022594940595" lon="6.856375973813546"><ele>207.0</ele><time>2026-04-12T08:44:32Z</time></trkpt><trkpt lat="43.59030658183814" lon="6.856385026476597"><ele>207.0</ele><time>2026-04-12T08:44:34Z</time></trkpt><trkpt lat="43.590381072530754" lon="6.856326906517913"><ele>207.0</ele><time>2026-04-12T08:44:36Z</time></trkpt><trkpt lat="43.590444500591566" lon="6.856254613817983"><ele>207.0</ele><time>2026-04-12T08:44:38Z</time></trkpt><trkpt lat="43.590466996764896" lon="6.856151600728482"><ele>207.0</ele><time>2026-04-12T08:44:40Z</time></trkpt><trkpt lat="43.590499601431674" lon="6.856047612109342"><ele>207.66666666666666</ele><time>2026-04-12T08:44:42Z</time></trkpt><trkpt lat="43.59052051336083" lon="6.855956998439712"><ele>208.33333333333331</ele><time>2026-04-12T08:44:44Z</time></trkpt><trkpt lat="43.5905586694014" lon="6.855861135154014"><ele>209.0</ele><time>2026-04-12T08:44:46Z</time></trkpt><trkpt lat="43.590586137207495" lon="6.855763332061532"><ele>209.66666666666666</ele><time>2026-04-12T08:44:48Z</time></trkpt><trkpt lat="43.59060951654947" lon="6.8556672692816"><ele>210.33333333333331</ele><time>2026-04-12T08:44:50Z</time></trkpt><trkpt lat="43.59064564630811" lon="6.855567433135589"><ele>211.0</ele><time>2026-04-12T08:44:52Z</time></trkpt><trkpt lat="43.59067997223397" lon="6.855472504951071"><ele>210.99999999999997</ele><time>2026-04-12T08:44:54Z</time></trkpt><trkpt lat="43.59071569185592" lon="6.85537876900876"><ele>211.0</ele><time>2026-04-12T08:44:56Z</time></trkpt><trkpt lat="43.59076317293239" lon="6.855295504413017"><ele>211.0</ele><time>2026-04-12T08:44:58Z</time></trkpt><trkpt lat="43.59081599606941" lon="6.8552144031904785"><ele>211.0</ele><time>2026-04-12T08:45:00Z</time></trkpt><trkpt lat="43.59089815924934" lon="6.855105773227327"><ele>210.99999999999997</ele><time>2026-04-12T08:45:03Z</time></trkpt><trkpt lat="43.59094596130479" lon="6.8550085132474745"><ele>211.0</ele><time>2026-04-12T08:45:05Z</time></trkpt><trkpt lat="43.59099254894117" lon="6.854921208299202"><ele>211.66666666666666</ele><time>2026-04-12T08:45:07Z</time></trkpt><trkpt lat="43.591039133807826" lon="6.854835223803654"><ele>212.33333333333331</ele><time>2026-04-12T08:45:09Z</time></trkpt><trkpt lat="43.59108099125926" lon="6.854741048875095"><ele>213.0</ele><time>2026-04-12T08:45:11Z</time></trkpt><trkpt lat="43.59112683178649" lon="6.854653748104254"><ele>213.66666666666669</ele><time>2026-04-12T08:45:13Z</time></trkpt><trkpt lat="43.59118181143277" lon="6.854575784570872"><ele>214.33333333333334</ele><time>2026-04-12T08:45:15Z</time></trkpt><trkpt lat="43.59124991650735" lon="6.854514328898664"><ele>215.0</ele><time>2026-04-12T08:45:17Z</time></trkpt><trkpt lat="43.5913250240832" lon="6.854472112518364"><ele>215.00000000000003</ele><time>2026-04-12T08:45:19Z</time></trkpt><trkpt lat="43.59140321068274" lon="6.85444322281876"><ele>215.0</ele><time>2026-04-12T08:45:21Z</time></trkpt><trkpt lat="43.59149070680922" lon="6.854437876270522"><ele>215.0</ele><time>2026-04-12T08:45:23Z</time></trkpt><trkpt lat="43.591563744088766" lon="6.854444564582784"><ele>215.0</ele><time>2026-04-12T08:45:25Z</time></trkpt><trkpt lat="43.59164258928886" lon="6.854472106472371"><ele>215.00000000000003</ele><time>2026-04-12T08:45:27Z</time></trkpt><trkpt lat="43.59171276058174" lon="6.854537173105214"><ele>215.0</ele><time>2026-04-12T08:45:29Z</time></trkpt><trkpt lat="43.59175998255981" lon="6.854625549236391"><ele>215.00000000000003</ele><time>2026-04-12T08:45:31Z</time></trkpt><trkpt lat="43.591797799951486" lon="6.854730756967532"><ele>215.0</ele><time>2026-04-12T08:45:33Z</time></trkpt><trkpt lat="43.59183147908655" lon="6.854833161874151"><ele>215.0</ele><time>2026-04-12T08:45:35Z</time></trkpt><trkpt lat="43.59186416494229" lon="6.854938801660774"><ele>215.0</ele><time>2026-04-12T08:45:36.999Z</time></trkpt><trkpt lat="43.59189942267246" lon="6.855035520679896"><ele>215.00000000000003</ele><time>2026-04-12T08:45:38.999Z</time></trkpt><trkpt lat="43.591948756727405" lon="6.85512200532586"><ele>215.0</ele><time>2026-04-12T08:45:40.999Z</time></trkpt><trkpt lat="43.59200279829346" lon="6.855197401821132"><ele>216.83333333333334</ele><time>2026-04-12T08:45:42.999Z</time></trkpt><trkpt lat="43.592068137589465" lon="6.85527137632639"><ele>218.66666666666669</ele><time>2026-04-12T08:45:44.999Z</time></trkpt><trkpt lat="43.59213505168673" lon="6.855317835439885"><ele>220.5</ele><time>2026-04-12T08:45:47.999Z</time></trkpt><trkpt lat="43.592221438226225" lon="6.855378343880452"><ele>222.33333333333331</ele><time>2026-04-12T08:45:49.999Z</time></trkpt><trkpt lat="43.59228959423596" lon="6.855433098568597"><ele>224.16666666666666</ele><time>2026-04-12T08:45:51.999Z</time></trkpt><trkpt lat="43.592352269395406" lon="6.855475378584813"><ele>226.0</ele><time>2026-04-12T08:45:54.999Z</time></trkpt><trkpt lat="43.59242302132123" lon="6.85552210516214"><ele>225.99999999999997</ele><time>2026-04-12T08:45:55.999Z</time></trkpt><trkpt lat="43.5924756974149" lon="6.855579518278443"><ele>226.0</ele><time>2026-04-12T08:45:58.999Z</time></trkpt><trkpt lat="43.59253548688415" lon="6.855651060419251"><ele>226.0</ele><time>2026-04-12T08:45:59.999Z</time></trkpt><trkpt lat="43.59258315834355" lon="6.855723932681907"><ele>226.0</ele><time>2026-04-12T08:46:01.999Z</time></trkpt><trkpt lat="43.59263654164649" lon="6.855833817839305"><ele>225.99999999999997</ele><time>2026-04-12T08:46:03.999Z</time></trkpt><trkpt lat="43.59269352331234" lon="6.855914228574673"><ele>226.0</ele><time>2026-04-12T08:46:05.999Z</time></trkpt><trkpt lat="43.59276898156786" lon="6.855952566874706"><ele>228.14285714285717</ele><time>2026-04-12T08:46:08.999Z</time></trkpt><trkpt lat="43.59283876517428" lon="6.855967815244747"><ele>230.28571428571428</ele><time>2026-04-12T08:46:10.999Z</time></trkpt><trkpt lat="43.59292249183958" lon="6.855984099549315"><ele>232.42857142857144</ele><time>2026-04-12T08:46:12.999Z</time></trkpt><trkpt lat="43.59299863029231" lon="6.856006606715282"><ele>234.57142857142858</ele><time>2026-04-12T08:46:14.999Z</time></trkpt><trkpt lat="43.59306870830802" lon="6.856053769047416"><ele>236.71428571428572</ele><time>2026-04-12T08:46:16.999Z</time></trkpt><trkpt lat="43.59312458984066" lon="6.8561155818198705"><ele>238.85714285714286</ele><time>2026-04-12T08:46:18.999Z</time></trkpt><trkpt lat="43.59317369388361" lon="6.856175748781705"><ele>241.0</ele><time>2026-04-12T08:46:20.999Z</time></trkpt><trkpt lat="43.59321414345183" lon="6.8562468320858265"><ele>241.0</ele><time>2026-04-12T08:46:22.999Z</time></trkpt><trkpt lat="43.59326601276788" lon="6.856310729494691"><ele>241.00000000000003</ele><time>2026-04-12T08:46:24.999Z</time></trkpt><trkpt lat="43.593321061148764" lon="6.856360189320793"><ele>241.0</ele><time>2026-04-12T08:46:26.999Z</time></trkpt><trkpt lat="43.59339083969976" lon="6.856395967728229"><ele>241.0</ele><time>2026-04-12T08:46:28.999Z</time></trkpt><trkpt lat="43.59348001182481" lon="6.856420552615687"><ele>241.00000000000003</ele><time>2026-04-12T08:46:31.999Z</time></trkpt><trkpt lat="43.59354511444077" lon="6.856440279301282"><ele>241.0</ele><time>2026-04-12T08:46:34Z</time></trkpt><trkpt lat="43.59361027219357" lon="6.856462325998507"><ele>241.0</ele><time>2026-04-12T08:46:36Z</time></trkpt><trkpt lat="43.59367585457185" lon="6.856486153263387"><ele>241.57142857142858</ele><time>2026-04-12T08:46:38Z</time></trkpt><trkpt lat="43.59373781394721" lon="6.856517766713122"><ele>242.14285714285717</ele><time>2026-04-12T08:46:40Z</time></trkpt><trkpt lat="43.593796590031644" lon="6.85655931362839"><ele>242.71428571428572</ele><time>2026-04-12T08:46:42Z</time></trkpt><trkpt lat="43.59384775264722" lon="6.856618343126309"><ele>243.28571428571428</ele><time>2026-04-12T08:46:44Z</time></trkpt><trkpt lat="43.59389456815222" lon="6.856689224005321"><ele>243.85714285714286</ele><time>2026-04-12T08:46:46Z</time></trkpt><trkpt lat="43.59393262470912" lon="6.856767191372449"><ele>244.42857142857144</ele><time>2026-04-12T08:46:48Z</time></trkpt><trkpt lat="43.593983490350205" lon="6.856879285523324"><ele>245.0</ele><time>2026-04-12T08:46:52Z</time></trkpt><trkpt lat="43.59401901266259" lon="6.856981619321796"><ele>245.00000000000003</ele><time>2026-04-12T08:46:55Z</time></trkpt><trkpt lat="43.594048677622744" lon="6.857091238385267"><ele>245.0</ele><time>2026-04-12T08:46:57Z</time></trkpt><trkpt lat="43.59407640494005" lon="6.857184095129241"><ele>245.0</ele><time>2026-04-12T08:46:59Z</time></trkpt><trkpt lat="43.59411740249941" lon="6.857275843711361"><ele>245.0</ele><time>2026-04-12T08:47:01Z</time></trkpt><trkpt lat="43.59415632130578" lon="6.857351899029061"><ele>245.00000000000003</ele><time>2026-04-12T08:47:04Z</time></trkpt><trkpt lat="43.594194768280396" lon="6.85742241496953"><ele>245.0</ele><time>2026-04-12T08:47:05Z</time></trkpt><trkpt lat="43.59422915375027" lon="6.8575269302543065"><ele>248.83333333333334</ele><time>2026-04-12T08:47:08Z</time></trkpt><trkpt lat="43.59425611277405" lon="6.8576311287058624"><ele>252.66666666666669</ele><time>2026-04-12T08:47:11Z</time></trkpt><trkpt lat="43.59429392937042" lon="6.857714133499154"><ele>256.5</ele><time>2026-04-12T08:47:13Z</time></trkpt><trkpt lat="43.594361822034436" lon="6.857786841680846"><ele>260.3333333333333</ele><time>2026-04-12T08:47:15Z</time></trkpt><trkpt lat="43.594454049299465" lon="6.857796379974742"><ele>264.16666666666663</ele><time>2026-04-12T08:47:18Z</time></trkpt><trkpt lat="43.59453527863525" lon="6.857813522151321"><ele>268.0</ele><time>2026-04-12T08:47:20Z</time></trkpt><trkpt lat="43.594606998859994" lon="6.857823479810251"><ele>268.0</ele><time>2026-04-12T08:47:22Z</time></trkpt><trkpt lat="43.59467810902719" lon="6.8578344055552165"><ele>268.0</ele><time>2026-04-12T08:47:25Z</time></trkpt><trkpt lat="43.594766515715555" lon="6.857833463947135"><ele>268.0</ele><time>2026-04-12T08:47:27Z</time></trkpt><trkpt lat="43.59484174949827" lon="6.857822775546895"><ele>268.0</ele><time>2026-04-12T08:47:29Z</time></trkpt><trkpt lat="43.59491442446138" lon="6.857788246525485"><ele>268.0</ele><time>2026-04-12T08:47:32Z</time></trkpt><trkpt lat="43.59498117490143" lon="6.857725320679091"><ele>268.0</ele><time>2026-04-12T08:47:34Z</time></trkpt><trkpt lat="43.59505071234754" lon="6.8576668801101865"><ele>268.0</ele><time>2026-04-12T08:47:36Z</time></trkpt><trkpt lat="43.59510762025193" lon="6.857621743379756"><ele>268.0</ele><time>2026-04-12T08:47:38Z</time></trkpt><trkpt lat="43.595174990440256" lon="6.857573936262917"><ele>268.0</ele><time>2026-04-12T08:47:40.999Z</time></trkpt><trkpt lat="43.59523460978941" lon="6.8575338425849806"><ele>268.0</ele><time>2026-04-12T08:47:41.999Z</time></trkpt><trkpt lat="43.595308896811666" lon="6.857479674684564"><ele>268.0</ele><time>2026-04-12T08:47:44.999Z</time></trkpt><trkpt lat="43.59538612897012" lon="6.857416777719852"><ele>268.0</ele><time>2026-04-12T08:47:46.999Z</time></trkpt><trkpt lat="43.595446483481986" lon="6.857382636597719"><ele>268.0</ele><time>2026-04-12T08:47:49.999Z</time></trkpt><trkpt lat="43.595518042011726" lon="6.857353256174708"><ele>266.3333333333333</ele><time>2026-04-12T08:47:51.999Z</time></trkpt><trkpt lat="43.59560079225852" lon="6.85733961689872"><ele>264.66666666666663</ele><time>2026-04-12T08:47:53.999Z</time></trkpt><trkpt lat="43.595684142880486" lon="6.857355746654958"><ele>263.0</ele><time>2026-04-12T08:47:55.999Z</time></trkpt><trkpt lat="43.59576000591874" lon="6.857351038006272"><ele>261.3333333333333</ele><time>2026-04-12T08:47:57.999Z</time></trkpt><trkpt lat="43.59582935254161" lon="6.85734729955265"><ele>259.6666666666667</ele><time>2026-04-12T08:48:00.999Z</time></trkpt><trkpt lat="43.595902105885756" lon="6.8573312109043885"><ele>258.0</ele><time>2026-04-12T08:48:01.999Z</time></trkpt><trkpt lat="43.595989257457745" lon="6.857296470992216"><ele>258.0</ele><time>2026-04-12T08:48:03.999Z</time></trkpt><trkpt lat="43.5960551295256" lon="6.857246998328007"><ele>258.0</ele><time>2026-04-12T08:48:05.999Z</time></trkpt><trkpt lat="43.59612702467887" lon="6.8572020445532145"><ele>258.0</ele><time>2026-04-12T08:48:07.999Z</time></trkpt><trkpt lat="43.59619861322525" lon="6.85716085347964"><ele>258.0</ele><time>2026-04-12T08:48:09.999Z</time></trkpt><trkpt lat="43.596268736192684" lon="6.857125840467449"><ele>258.0</ele><time>2026-04-12T08:48:11.999Z</time></trkpt><trkpt lat="43.596340490892096" lon="6.857089698190566"><ele>258.0</ele><time>2026-04-12T08:48:13.999Z</time></trkpt><trkpt lat="43.59641143734814" lon="6.857049441879044"><ele>256.6666666666667</ele><time>2026-04-12T08:48:15.999Z</time></trkpt><trkpt lat="43.59647981997596" lon="6.857002797253469"><ele>255.33333333333331</ele><time>2026-04-12T08:48:17.999Z</time></trkpt><trkpt lat="43.59654635820462" lon="6.856953680160214"><ele>254.0</ele><time>2026-04-12T08:48:19.999Z</time></trkpt><trkpt lat="43.59661468201999" lon="6.856910207449655"><ele>252.66666666666666</ele><time>2026-04-12T08:48:21.999Z</time></trkpt><trkpt lat="43.596686081634275" lon="6.856883141323451"><ele>251.33333333333331</ele><time>2026-04-12T08:48:23.999Z</time></trkpt><trkpt lat="43.59675290437551" lon="6.856829036288162"><ele>250.0</ele><time>2026-04-12T08:48:25.999Z</time></trkpt><trkpt lat="43.5968225650807" lon="6.856783302273339"><ele>250.0</ele><time>2026-04-12T08:48:27.999Z</time></trkpt><trkpt lat="43.59688962897895" lon="6.856731519180959"><ele>250.0</ele><time>2026-04-12T08:48:29.999Z</time></trkpt><trkpt lat="43.59695864496315" lon="6.85670243396167"><ele>250.0</ele><time>2026-04-12T08:48:31.999Z</time></trkpt><trkpt lat="43.59703240290922" lon="6.85667006249553"><ele>250.0</ele><time>2026-04-12T08:48:33.999Z</time></trkpt><trkpt lat="43.59709981501267" lon="6.856651783734817"><ele>250.0</ele><time>2026-04-12T08:48:35.999Z</time></trkpt><trkpt lat="43.59717653156952" lon="6.8566642669381235"><ele>250.0</ele><time>2026-04-12T08:48:37.999Z</time></trkpt><trkpt lat="43.597246544891185" lon="6.8566788001208465"><ele>250.0</ele><time>2026-04-12T08:48:40Z</time></trkpt><trkpt lat="43.597320362335324" lon="6.856694768984046"><ele>251.85714285714283</ele><time>2026-04-12T08:48:42Z</time></trkpt><trkpt lat="43.597390989931874" lon="6.856715958849872"><ele>253.71428571428572</ele><time>2026-04-12T08:48:44Z</time></trkpt><trkpt lat="43.597460180077675" lon="6.85673821754483"><ele>255.57142857142856</ele><time>2026-04-12T08:48:46Z</time></trkpt><trkpt lat="43.59752716666966" lon="6.856748516807909"><ele>257.42857142857144</ele><time>2026-04-12T08:48:49Z</time></trkpt><trkpt lat="43.59759235317471" lon="6.8567559867485155"><ele>259.2857142857143</ele><time>2026-04-12T08:48:51Z</time></trkpt><trkpt lat="43.59766417402126" lon="6.856764448791027"><ele>261.1428571428571</ele><time>2026-04-12T08:48:52Z</time></trkpt><trkpt lat="43.59774778597359" lon="6.856790972589151"><ele>263.0</ele><time>2026-04-12T08:48:54Z</time></trkpt><trkpt lat="43.59781741432954" lon="6.8568110043960395"><ele>264.1666666666667</ele><time>2026-04-12T08:48:56Z</time></trkpt><trkpt lat="43.597887429255785" lon="6.856818437476119"><ele>265.33333333333337</ele><time>2026-04-12T08:48:58Z</time></trkpt><trkpt lat="43.59796494929128" lon="6.856833178609878"><ele>266.5</ele><time>2026-04-12T08:49:00Z</time></trkpt><trkpt lat="43.598039240083686" lon="6.856850284684193"><ele>267.6666666666667</ele><time>2026-04-12T08:49:02Z</time></trkpt><trkpt lat="43.598116955734184" lon="6.856851068798861"><ele>268.8333333333333</ele><time>2026-04-12T08:49:04Z</time></trkpt><trkpt lat="43.5982015699431" lon="6.856815063070466"><ele>270.0</ele><time>2026-04-12T08:49:06Z</time></trkpt><trkpt lat="43.5982769265402" lon="6.856762025984145"><ele>270.0</ele><time>2026-04-12T08:49:08Z</time></trkpt><trkpt lat="43.59835146420884" lon="6.856700211287232"><ele>270.0</ele><time>2026-04-12T08:49:10Z</time></trkpt><trkpt lat="43.59842699261109" lon="6.856636918742705"><ele>270.0</ele><time>2026-04-12T08:49:12Z</time></trkpt><trkpt lat="43.598474576080235" lon="6.856568698535031"><ele>270.0</ele><time>2026-04-12T08:49:14Z</time></trkpt><trkpt lat="43.59854406488038" lon="6.856499020121429"><ele>270.0</ele><time>2026-04-12T08:49:16Z</time></trkpt><trkpt lat="43.59861127191497" lon="6.856446386926655"><ele>270.0</ele><time>2026-04-12T08:49:18Z</time></trkpt><trkpt lat="43.598698131412945" lon="6.856493358103344"><ele>270.0</ele><time>2026-04-12T08:49:20Z</time></trkpt><trkpt lat="43.59871414364679" lon="6.856616867632038"><ele>270.0</ele><time>2026-04-12T08:49:22Z</time></trkpt><trkpt lat="43.598658741964" lon="6.856715955189128"><ele>270.0</ele><time>2026-04-12T08:49:24Z</time></trkpt><trkpt lat="43.598584423395494" lon="6.856746819387533"><ele>270.0</ele><time>2026-04-12T08:49:26Z</time></trkpt><trkpt lat="43.59850461992928" lon="6.856783434782049"><ele>270.0</ele><time>2026-04-12T08:49:28Z</time></trkpt><trkpt lat="43.59843891863588" lon="6.856853573425423"><ele>270.0</ele><time>2026-04-12T08:49:30Z</time></trkpt><trkpt lat="43.59838127554189" lon="6.856930880353595"><ele>272.3333333333333</ele><time>2026-04-12T08:49:32Z</time></trkpt><trkpt lat="43.598327067808505" lon="6.8570124389906875"><ele>274.6666666666667</ele><time>2026-04-12T08:49:34Z</time></trkpt><trkpt lat="43.59824311090492" lon="6.85708400895945"><ele>277.0</ele><time>2026-04-12T08:49:37Z</time></trkpt><trkpt lat="43.59818217566605" lon="6.857130505074707"><ele>279.33333333333337</ele><time>2026-04-12T08:49:39Z</time></trkpt><trkpt lat="43.59812031168977" lon="6.857153671014319"><ele>281.6666666666667</ele><time>2026-04-12T08:49:41Z</time></trkpt><trkpt lat="43.59803857146328" lon="6.857190966565694"><ele>284.0</ele><time>2026-04-12T08:49:43Z</time></trkpt><trkpt lat="43.59797287384521" lon="6.8572028706254216"><ele>284.0</ele><time>2026-04-12T08:49:44Z</time></trkpt><trkpt lat="43.59789504562351" lon="6.857199176379172"><ele>284.0</ele><time>2026-04-12T08:49:47Z</time></trkpt><trkpt lat="43.597800046593555" lon="6.857192302181416"><ele>284.0</ele><time>2026-04-12T08:49:48.999Z</time></trkpt><trkpt lat="43.597697069250536" lon="6.857176861131852"><ele>284.0</ele><time>2026-04-12T08:49:50.999Z</time></trkpt><trkpt lat="43.597612884860666" lon="6.8571769814589985"><ele>284.0</ele><time>2026-04-12T08:49:52.999Z</time></trkpt><trkpt lat="43.59752901940503" lon="6.857192227827204"><ele>284.0</ele><time>2026-04-12T08:49:54.999Z</time></trkpt><trkpt lat="43.59744849209665" lon="6.857223596791807"><ele>284.6666666666667</ele><time>2026-04-12T08:49:56.999Z</time></trkpt><trkpt lat="43.597371772989035" lon="6.85727410898295"><ele>285.33333333333337</ele><time>2026-04-12T08:49:58.999Z</time></trkpt><trkpt lat="43.59730345500948" lon="6.857338411981748"><ele>286.0</ele><time>2026-04-12T08:50:00.999Z</time></trkpt><trkpt lat="43.59724308000142" lon="6.857422650816111"><ele>286.6666666666667</ele><time>2026-04-12T08:50:02.999Z</time></trkpt><trkpt lat="43.59716923883181" lon="6.85749076570898"><ele>287.3333333333333</ele><time>2026-04-12T08:50:04.999Z</time></trkpt><trkpt lat="43.59708653412401" lon="6.857544370731814"><ele>288.0</ele><time>2026-04-12T08:50:06.999Z</time></trkpt><trkpt lat="43.59700299661073" lon="6.857577953724112"><ele>286.3333333333333</ele><time>2026-04-12T08:50:08.999Z</time></trkpt><trkpt lat="43.59692073780959" lon="6.857606043320243"><ele>284.6666666666667</ele><time>2026-04-12T08:50:10.999Z</time></trkpt><trkpt lat="43.59683942007142" lon="6.857641942129856"><ele>283.0</ele><time>2026-04-12T08:50:12.999Z</time></trkpt><trkpt lat="43.596766549026725" lon="6.857703642059144"><ele>281.33333333333337</ele><time>2026-04-12T08:50:14.999Z</time></trkpt><trkpt lat="43.59671321703072" lon="6.857791493859427"><ele>279.6666666666667</ele><time>2026-04-12T08:50:16.999Z</time></trkpt><trkpt lat="43.59666241973464" lon="6.857878863871313"><ele>278.0</ele><time>2026-04-12T08:50:18.999Z</time></trkpt><trkpt lat="43.59660868408569" lon="6.857960005258019"><ele>279.1666666666667</ele><time>2026-04-12T08:50:20.999Z</time></trkpt><trkpt lat="43.596540542449844" lon="6.858029309870891"><ele>280.33333333333337</ele><time>2026-04-12T08:50:22.999Z</time></trkpt><trkpt lat="43.5964551728105" lon="6.858065613025367"><ele>281.5</ele><time>2026-04-12T08:50:24.999Z</time></trkpt><trkpt lat="43.59637729858643" lon="6.8580887018081915"><ele>282.6666666666667</ele><time>2026-04-12T08:50:26.999Z</time></trkpt><trkpt lat="43.596316918932494" lon="6.85813341325486"><ele>283.8333333333333</ele><time>2026-04-12T08:50:28.999Z</time></trkpt><trkpt lat="43.59624563279404" lon="6.858193889233478"><ele>285.0</ele><time>2026-04-12T08:50:30.999Z</time></trkpt><trkpt lat="43.59615524316057" lon="6.858258628158021"><ele>285.0</ele><time>2026-04-12T08:50:32.999Z</time></trkpt><trkpt lat="43.59607419180009" lon="6.858299917974496"><ele>285.0</ele><time>2026-04-12T08:50:34.999Z</time></trkpt><trkpt lat="43.595995971063985" lon="6.858342759452412"><ele>285.0</ele><time>2026-04-12T08:50:36.999Z</time></trkpt><trkpt lat="43.59591896996478" lon="6.85838313690277"><ele>285.0</ele><time>2026-04-12T08:50:38.999Z</time></trkpt><trkpt lat="43.59584143806729" lon="6.8584404950305515"><ele>285.0</ele><time>2026-04-12T08:50:40.999Z</time></trkpt><trkpt lat="43.595777543016176" lon="6.858521176974827"><ele>285.0</ele><time>2026-04-12T08:50:42.999Z</time></trkpt><trkpt lat="43.59573239042152" lon="6.858630391291627"><ele>286.6666666666667</ele><time>2026-04-12T08:50:44.999Z</time></trkpt><trkpt lat="43.595710456477335" lon="6.858740397387918"><ele>288.3333333333333</ele><time>2026-04-12T08:50:47Z</time></trkpt><trkpt lat="43.595684701950354" lon="6.858854698588324"><ele>290.0</ele><time>2026-04-12T08:50:49Z</time></trkpt><trkpt lat="43.595645018640134" lon="6.8589701342024005"><ele>291.66666666666663</ele><time>2026-04-12T08:50:51Z</time></trkpt><trkpt lat="43.595590383323255" lon="6.859047283297123"><ele>293.3333333333333</ele><time>2026-04-12T08:50:53Z</time></trkpt><trkpt lat="43.59552991805228" lon="6.859131626909127"><ele>295.0</ele><time>2026-04-12T08:50:55Z</time></trkpt><trkpt lat="43.59547650661671" lon="6.859183510623655"><ele>295.0</ele><time>2026-04-12T08:50:56Z</time></trkpt><trkpt lat="43.59539521791275" lon="6.859248961988774"><ele>295.0</ele><time>2026-04-12T08:50:58Z</time></trkpt><trkpt lat="43.59531268379488" lon="6.859301331763864"><ele>295.0</ele><time>2026-04-12T08:51:00Z</time></trkpt><trkpt lat="43.59522973520479" lon="6.859374019045689"><ele>295.0</ele><time>2026-04-12T08:51:02Z</time></trkpt><trkpt lat="43.59514009246539" lon="6.859429134724004"><ele>295.0</ele><time>2026-04-12T08:51:04Z</time></trkpt><trkpt lat="43.59505176062543" lon="6.859485143092234"><ele>293.0</ele><time>2026-04-12T08:51:06Z</time></trkpt><trkpt lat="43.59496235834974" lon="6.859535834628255"><ele>291.0</ele><time>2026-04-12T08:51:08Z</time></trkpt><trkpt lat="43.59488299608032" lon="6.859599090403956"><ele>289.0</ele><time>2026-04-12T08:51:10Z</time></trkpt><trkpt lat="43.59480170877589" lon="6.859654779602"><ele>287.0</ele><time>2026-04-12T08:51:12Z</time></trkpt><trkpt lat="43.59472167009586" lon="6.85971344825579"><ele>285.0</ele><time>2026-04-12T08:51:14Z</time></trkpt><trkpt lat="43.59464302702554" lon="6.859770647516465"><ele>285.0</ele><time>2026-04-12T08:51:16Z</time></trkpt><trkpt lat="43.59456221358834" lon="6.859838157111286"><ele>285.0</ele><time>2026-04-12T08:51:18Z</time></trkpt><trkpt lat="43.59448808220427" lon="6.859917439576394"><ele>285.0</ele><time>2026-04-12T08:51:20Z</time></trkpt><trkpt lat="43.59440960465265" lon="6.859991777109449"><ele>285.0</ele><time>2026-04-12T08:51:22Z</time></trkpt><trkpt lat="43.59433753258398" lon="6.860078069027026"><ele>285.0</ele><time>2026-04-12T08:51:24Z</time></trkpt><trkpt lat="43.59426970965928" lon="6.860174860550913"><ele>285.8</ele><time>2026-04-12T08:51:26Z</time></trkpt><trkpt lat="43.594213872010236" lon="6.860290798907091"><ele>286.6</ele><time>2026-04-12T08:51:28Z</time></trkpt><trkpt lat="43.59415036027887" lon="6.860403216766513"><ele>287.4</ele><time>2026-04-12T08:51:30Z</time></trkpt><trkpt lat="43.594071426970345" lon="6.86049385964683"><ele>288.2</ele><time>2026-04-12T08:51:32Z</time></trkpt><trkpt lat="43.59397524926285" lon="6.860558333653038"><ele>289.0</ele><time>2026-04-12T08:51:34Z</time></trkpt><trkpt lat="43.59390471847744" lon="6.8605847595656035"><ele>289.0</ele><time>2026-04-12T08:51:36Z</time></trkpt><trkpt lat="43.59374981996995" lon="6.860749230710902"><ele>289.0</ele><time>2026-04-12T08:51:39Z</time></trkpt><trkpt lat="43.59369051453727" lon="6.860867499984431"><ele>289.0</ele><time>2026-04-12T08:51:41Z</time></trkpt><trkpt lat="43.59363984455773" lon="6.861007780905354"><ele>289.0</ele><time>2026-04-12T08:51:43Z</time></trkpt><trkpt lat="43.593600927058574" lon="6.8610780940347675"><ele>291.59999999999997</ele><time>2026-04-12T08:51:44Z</time></trkpt><trkpt lat="43.593532331498025" lon="6.861201465343352"><ele>294.2</ele><time>2026-04-12T08:51:46Z</time></trkpt><trkpt lat="43.59345345313261" lon="6.861316967665924"><ele>296.79999999999995</ele><time>2026-04-12T08:51:48Z</time></trkpt><trkpt lat="43.59337591908266" lon="6.861430040287236"><ele>299.4</ele><time>2026-04-12T08:51:50Z</time></trkpt><trkpt lat="43.59330444584498" lon="6.861533616319429"><ele>302.0</ele><time>2026-04-12T08:51:51.999Z</time></trkpt><trkpt lat="43.59321552192482" lon="6.86163964324871"><ele>302.0</ele><time>2026-04-12T08:51:53.999Z</time></trkpt><trkpt lat="43.59315777356482" lon="6.861681539462638"><ele>302.0</ele><time>2026-04-12T08:51:54.999Z</time></trkpt><trkpt lat="43.593060875566394" lon="6.861769786370452"><ele>302.0</ele><time>2026-04-12T08:51:56.999Z</time></trkpt><trkpt lat="43.59299801304944" lon="6.861774740683469"><ele>302.0</ele><time>2026-04-12T08:51:57.999Z</time></trkpt><trkpt lat="43.59288501833606" lon="6.861841146793562"><ele>302.0</ele><time>2026-04-12T08:51:59.999Z</time></trkpt><trkpt lat="43.59278575726256" lon="6.861922745289577"><ele>304.5</ele><time>2026-04-12T08:52:01.999Z</time></trkpt><trkpt lat="43.59270457902649" lon="6.86203017369653"><ele>307.0</ele><time>2026-04-12T08:52:03.999Z</time></trkpt><trkpt lat="43.59263245923808" lon="6.862156771292981"><ele>309.5</ele><time>2026-04-12T08:52:05.999Z</time></trkpt><trkpt lat="43.59258336968818" lon="6.862303100771702"><ele>312.0</ele><time>2026-04-12T08:52:07.999Z</time></trkpt><trkpt lat="43.59253061900859" lon="6.862434299837211"><ele>312.0</ele><time>2026-04-12T08:52:09.999Z</time></trkpt><trkpt lat="43.59244141331872" lon="6.862541129202735"><ele>312.0</ele><time>2026-04-12T08:52:11.999Z</time></trkpt><trkpt lat="43.592370043552975" lon="6.862659525383821"><ele>312.0</ele><time>2026-04-12T08:52:13.999Z</time></trkpt><trkpt lat="43.592290712769845" lon="6.8627738566709695"><ele>312.0</ele><time>2026-04-12T08:52:15.999Z</time></trkpt><trkpt lat="43.59223230902494" lon="6.862903211146097"><ele>311.4</ele><time>2026-04-12T08:52:17.999Z</time></trkpt><trkpt lat="43.59219837251836" lon="6.863043581621173"><ele>310.79999999999995</ele><time>2026-04-12T08:52:19.999Z</time></trkpt><trkpt lat="43.59217464635456" lon="6.863188511408163"><ele>310.2</ele><time>2026-04-12T08:52:21.999Z</time></trkpt><trkpt lat="43.59215866161055" lon="6.8633232267251705"><ele>309.59999999999997</ele><time>2026-04-12T08:52:23.999Z</time></trkpt><trkpt lat="43.592152955634226" lon="6.86345580379214"><ele>309.0</ele><time>2026-04-12T08:52:25.999Z</time></trkpt><trkpt lat="43.59214683007624" lon="6.863582163614051"><ele>309.0</ele><time>2026-04-12T08:52:27.999Z</time></trkpt><trkpt lat="43.59215070021206" lon="6.863712915643676"><ele>309.0</ele><time>2026-04-12T08:52:29.999Z</time></trkpt><trkpt lat="43.59216168191208" lon="6.863844287168343"><ele>309.0</ele><time>2026-04-12T08:52:31.999Z</time></trkpt><trkpt lat="43.59218120545874" lon="6.86397124217087"><ele>309.0</ele><time>2026-04-12T08:52:33.999Z</time></trkpt><trkpt lat="43.5921977688764" lon="6.864096146613398"><ele>309.0</ele><time>2026-04-12T08:52:35.999Z</time></trkpt><trkpt lat="43.592214954357146" lon="6.864217959214903"><ele>310.6666666666667</ele><time>2026-04-12T08:52:37.999Z</time></trkpt><trkpt lat="43.59222853698631" lon="6.8643354373432395"><ele>312.3333333333333</ele><time>2026-04-12T08:52:39.999Z</time></trkpt><trkpt lat="43.59224934097579" lon="6.864451302927193"><ele>314.0</ele><time>2026-04-12T08:52:41.999Z</time></trkpt><trkpt lat="43.59226387357252" lon="6.8645680130346305"><ele>315.66666666666663</ele><time>2026-04-12T08:52:43.999Z</time></trkpt><trkpt lat="43.592277709915734" lon="6.864671167586146"><ele>317.3333333333333</ele><time>2026-04-12T08:52:45.999Z</time></trkpt><trkpt lat="43.59229518212546" lon="6.864796289741988"><ele>319.0</ele><time>2026-04-12T08:52:47.999Z</time></trkpt><trkpt lat="43.59231287196399" lon="6.864911237141558"><ele>319.0</ele><time>2026-04-12T08:52:49.999Z</time></trkpt><trkpt lat="43.592327956067166" lon="6.8650259104413855"><ele>319.0</ele><time>2026-04-12T08:52:52Z</time></trkpt><trkpt lat="43.59234645370063" lon="6.865137515320606"><ele>319.0</ele><time>2026-04-12T08:52:54Z</time></trkpt><trkpt lat="43.592378130515705" lon="6.86526096288658"><ele>319.0</ele><time>2026-04-12T08:52:56Z</time></trkpt><trkpt lat="43.592409550039406" lon="6.865353568722415"><ele>319.0</ele><time>2026-04-12T08:52:58Z</time></trkpt><trkpt lat="43.592454597315495" lon="6.8654544568419595"><ele>319.0</ele><time>2026-04-12T08:53:00Z</time></trkpt><trkpt lat="43.59250134163647" lon="6.865535534036877"><ele>321.16666666666663</ele><time>2026-04-12T08:53:02Z</time></trkpt><trkpt lat="43.59255825348702" lon="6.865612821074482"><ele>323.3333333333333</ele><time>2026-04-12T08:53:04Z</time></trkpt><trkpt lat="43.592607702906434" lon="6.865703188235979"><ele>325.5</ele><time>2026-04-12T08:53:06Z</time></trkpt><trkpt lat="43.59265414073389" lon="6.865794542974182"><ele>327.6666666666667</ele><time>2026-04-12T08:53:08Z</time></trkpt><trkpt lat="43.59268490979074" lon="6.865901047111014"><ele>329.83333333333337</ele><time>2026-04-12T08:53:10Z</time></trkpt><trkpt lat="43.59272697850456" lon="6.865994513806566"><ele>332.0</ele><time>2026-04-12T08:53:12Z</time></trkpt><trkpt lat="43.592787435591084" lon="6.866069963787325"><ele>333.1666666666667</ele><time>2026-04-12T08:53:14Z</time></trkpt><trkpt lat="43.592861783140975" lon="6.866122372666072"><ele>334.33333333333337</ele><time>2026-04-12T08:53:16Z</time></trkpt><trkpt lat="43.59294703426618" lon="6.8661463215053224"><ele>335.5</ele><time>2026-04-12T08:53:18Z</time></trkpt><trkpt lat="43.593030739164945" lon="6.866171581853009"><ele>336.6666666666667</ele><time>2026-04-12T08:53:20Z</time></trkpt><trkpt lat="43.5931139356848" lon="6.866194505469339"><ele>337.8333333333333</ele><time>2026-04-12T08:53:22Z</time></trkpt><trkpt lat="43.59319476225899" lon="6.866252247165871"><ele>339.0</ele><time>2026-04-12T08:53:24Z</time></trkpt><trkpt lat="43.593253649185094" lon="6.866300326760062"><ele>339.0</ele><time>2026-04-12T08:53:26Z</time></trkpt><trkpt lat="43.5933161698075" lon="6.86634967946585"><ele>339.0</ele><time>2026-04-12T08:53:27Z</time></trkpt><trkpt lat="43.59337328893956" lon="6.86645494872113"><ele>339.0</ele><time>2026-04-12T08:53:29Z</time></trkpt><trkpt lat="43.59342845768884" lon="6.866500954465877"><ele>339.0</ele><time>2026-04-12T08:53:31Z</time></trkpt><trkpt lat="43.59350217487221" lon="6.866550735717685"><ele>339.0</ele><time>2026-04-12T08:53:33Z</time></trkpt><trkpt lat="43.59367920794428" lon="6.866652480797759"><ele>336.0</ele><time>2026-04-12T08:53:36Z</time></trkpt><trkpt lat="43.59377186544289" lon="6.866684824887149"><ele>333.0</ele><time>2026-04-12T08:53:38Z</time></trkpt><trkpt lat="43.59385714832779" lon="6.866740639260467"><ele>330.0</ele><time>2026-04-12T08:53:40Z</time></trkpt><trkpt lat="43.59391195324835" lon="6.8668431054327925"><ele>327.0</ele><time>2026-04-12T08:53:42Z</time></trkpt><trkpt lat="43.593939653749246" lon="6.866968953866436"><ele>324.0</ele><time>2026-04-12T08:53:44Z</time></trkpt><trkpt lat="43.593914809136066" lon="6.867103356504174"><ele>324.0</ele><time>2026-04-12T08:53:46Z</time></trkpt><trkpt lat="43.59386023810664" lon="6.86720680017427"><ele>324.0</ele><time>2026-04-12T08:53:48Z</time></trkpt><trkpt lat="43.593790655144595" lon="6.8672781334858986"><ele>324.0</ele><time>2026-04-12T08:53:50Z</time></trkpt><trkpt lat="43.59372396546434" lon="6.867353262423197"><ele>324.0</ele><time>2026-04-12T08:53:52Z</time></trkpt><trkpt lat="43.59366128901757" lon="6.867443063946769"><ele>324.0</ele><time>2026-04-12T08:53:54Z</time></trkpt><trkpt lat="43.593600853412184" lon="6.867520073544026"><ele>324.0</ele><time>2026-04-12T08:53:56Z</time></trkpt><trkpt lat="43.5935450497673" lon="6.867662149433611"><ele>329.3333333333333</ele><time>2026-04-12T08:53:58.999Z</time></trkpt><trkpt lat="43.5935204502581" lon="6.8677597255370815"><ele>334.6666666666667</ele><time>2026-04-12T08:54:00.999Z</time></trkpt><trkpt lat="43.59350966961089" lon="6.867864598749446"><ele>340.0</ele><time>2026-04-12T08:54:02.999Z</time></trkpt><trkpt lat="43.5934851085811" lon="6.867995594028416"><ele>345.33333333333337</ele><time>2026-04-12T08:54:04.999Z</time></trkpt><trkpt lat="43.593475472129" lon="6.868130375944287"><ele>350.6666666666667</ele><time>2026-04-12T08:54:06.999Z</time></trkpt><trkpt lat="43.593484286895084" lon="6.868268237545813"><ele>356.0</ele><time>2026-04-12T08:54:08.999Z</time></trkpt><trkpt lat="43.59348416540434" lon="6.868414124637218"><ele>357.0</ele><time>2026-04-12T08:54:10.999Z</time></trkpt><trkpt lat="43.59347267995454" lon="6.868545565963169"><ele>358.0</ele><time>2026-04-12T08:54:12.999Z</time></trkpt><trkpt lat="43.59344019769689" lon="6.868676917715881"><ele>359.0</ele><time>2026-04-12T08:54:14.999Z</time></trkpt><trkpt lat="43.593421652186976" lon="6.868804704468449"><ele>360.0</ele><time>2026-04-12T08:54:16.999Z</time></trkpt><trkpt lat="43.593437750741685" lon="6.868937040845218"><ele>361.0</ele><time>2026-04-12T08:54:18.999Z</time></trkpt><trkpt lat="43.593479007381575" lon="6.86905800733587"><ele>361.0</ele><time>2026-04-12T08:54:20.999Z</time></trkpt><trkpt lat="43.593546519794764" lon="6.869153408552842"><ele>361.0</ele><time>2026-04-12T08:54:22.999Z</time></trkpt><trkpt lat="43.593612772131735" lon="6.869244417115674"><ele>361.0</ele><time>2026-04-12T08:54:24.999Z</time></trkpt><trkpt lat="43.593672088138156" lon="6.869348431626312"><ele>361.0</ele><time>2026-04-12T08:54:26.999Z</time></trkpt><trkpt lat="43.59371777286826" lon="6.869470394290243"><ele>361.0</ele><time>2026-04-12T08:54:28.999Z</time></trkpt><trkpt lat="43.59374732107204" lon="6.869597028487992"><ele>358.4</ele><time>2026-04-12T08:54:30.999Z</time></trkpt><trkpt lat="43.59376843057596" lon="6.869723875560305"><ele>355.8</ele><time>2026-04-12T08:54:32.999Z</time></trkpt><trkpt lat="43.593782242240074" lon="6.869850797930937"><ele>353.2</ele><time>2026-04-12T08:54:34.999Z</time></trkpt><trkpt lat="43.59376465103453" lon="6.8699831591085925"><ele>350.59999999999997</ele><time>2026-04-12T08:54:36.999Z</time></trkpt><trkpt lat="43.59370587265794" lon="6.870091610708515"><ele>348.0</ele><time>2026-04-12T08:54:38.999Z</time></trkpt><trkpt lat="43.593627645332866" lon="6.870164360929172"><ele>348.0</ele><time>2026-04-12T08:54:40.999Z</time></trkpt><trkpt lat="43.59353985168701" lon="6.87021232054946"><ele>348.0</ele><time>2026-04-12T08:54:42.999Z</time></trkpt><trkpt lat="43.59345466679954" lon="6.870265149431646"><ele>348.0</ele><time>2026-04-12T08:54:44.999Z</time></trkpt><trkpt lat="43.59336554993717" lon="6.870313639271629"><ele>348.0</ele><time>2026-04-12T08:54:46.999Z</time></trkpt><trkpt lat="43.59327746260531" lon="6.870364622890449"><ele>348.0</ele><time>2026-04-12T08:54:48.999Z</time></trkpt><trkpt lat="43.59319290137053" lon="6.8704260921153235"><ele>348.0</ele><time>2026-04-12T08:54:50.999Z</time></trkpt><trkpt lat="43.59311190993781" lon="6.870495325108475"><ele>348.0</ele><time>2026-04-12T08:54:52.999Z</time></trkpt><trkpt lat="43.59304886750875" lon="6.87059474356385"><ele>348.0</ele><time>2026-04-12T08:54:54.999Z</time></trkpt><trkpt lat="43.593008445231376" lon="6.8707135949696445"><ele>348.0</ele><time>2026-04-12T08:54:56.999Z</time></trkpt><trkpt lat="43.59298428217235" lon="6.870840735577264"><ele>348.0</ele><time>2026-04-12T08:54:59Z</time></trkpt><trkpt lat="43.5929745509177" lon="6.870977190741626"><ele>346.4</ele><time>2026-04-12T08:55:01Z</time></trkpt><trkpt lat="43.59296561163413" lon="6.871114315351856"><ele>344.79999999999995</ele><time>2026-04-12T08:55:03Z</time></trkpt><trkpt lat="43.592959424047656" lon="6.8712571709429975"><ele>343.2</ele><time>2026-04-12T08:55:05Z</time></trkpt><trkpt lat="43.592952112093286" lon="6.871402963386423"><ele>341.6</ele><time>2026-04-12T08:55:07Z</time></trkpt><trkpt lat="43.59295754486173" lon="6.871544403159619"><ele>340.0</ele><time>2026-04-12T08:55:09Z</time></trkpt><trkpt lat="43.592942417075214" lon="6.871682727642713"><ele>338.2</ele><time>2026-04-12T08:55:11Z</time></trkpt><trkpt lat="43.59291985297171" lon="6.871824135476462"><ele>336.4</ele><time>2026-04-12T08:55:13Z</time></trkpt><trkpt lat="43.59287323703674" lon="6.87196018972958"><ele>334.6</ele><time>2026-04-12T08:55:15Z</time></trkpt><trkpt lat="43.59281185206862" lon="6.8720796139747256"><ele>332.8</ele><time>2026-04-12T08:55:17Z</time></trkpt><trkpt lat="43.59273831726258" lon="6.872174947837025"><ele>331.0</ele><time>2026-04-12T08:55:19Z</time></trkpt><trkpt lat="43.592652384021456" lon="6.872259883868606"><ele>336.4</ele><time>2026-04-12T08:55:21Z</time></trkpt><trkpt lat="43.59256210507311" lon="6.872331818397971"><ele>341.8</ele><time>2026-04-12T08:55:23Z</time></trkpt><trkpt lat="43.59246830226785" lon="6.872383679291777"><ele>347.2</ele><time>2026-04-12T08:55:25Z</time></trkpt><trkpt lat="43.59237472547356" lon="6.872426940209729"><ele>352.59999999999997</ele><time>2026-04-12T08:55:27Z</time></trkpt><trkpt lat="43.59227898416695" lon="6.872464443577696"><ele>358.0</ele><time>2026-04-12T08:55:29Z</time></trkpt><trkpt lat="43.59218099050532" lon="6.872489495765597"><ele>358.0</ele><time>2026-04-12T08:55:31Z</time></trkpt><trkpt lat="43.592082997271795" lon="6.872501150115537"><ele>358.0</ele><time>2026-04-12T08:55:33Z</time></trkpt><trkpt lat="43.59198773464747" lon="6.872532728648097"><ele>358.0</ele><time>2026-04-12T08:55:35Z</time></trkpt><trkpt lat="43.59189717711442" lon="6.872577684857184"><ele>358.0</ele><time>2026-04-12T08:55:37Z</time></trkpt><trkpt lat="43.59181487580907" lon="6.872640699187148"><ele>358.0</ele><time>2026-04-12T08:55:39Z</time></trkpt><trkpt lat="43.59173922894123" lon="6.872716096247701"><ele>358.5</ele><time>2026-04-12T08:55:41Z</time></trkpt><trkpt lat="43.591668786891226" lon="6.8727939000710725"><ele>359.0</ele><time>2026-04-12T08:55:43Z</time></trkpt><trkpt lat="43.59161043156231" lon="6.872874121835883"><ele>359.5</ele><time>2026-04-12T08:55:45Z</time></trkpt><trkpt lat="43.591557317156195" lon="6.872952762751462"><ele>360.0</ele><time>2026-04-12T08:55:47Z</time></trkpt><trkpt lat="43.59151637979643" lon="6.8730511867504145"><ele>360.5</ele><time>2026-04-12T08:55:49Z</time></trkpt><trkpt lat="43.591485789085695" lon="6.873137511100798"><ele>361.0</ele><time>2026-04-12T08:55:51Z</time></trkpt><trkpt lat="43.5914533058218" lon="6.8732185873652565"><ele>361.0</ele><time>2026-04-12T08:55:53Z</time></trkpt><trkpt lat="43.591427366918325" lon="6.873303789842143"><ele>361.0</ele><time>2026-04-12T08:55:55Z</time></trkpt><trkpt lat="43.59140763748356" lon="6.873390572944798"><ele>361.0</ele><time>2026-04-12T08:55:57Z</time></trkpt><trkpt lat="43.5913827512265" lon="6.873476388755255"><ele>361.0</ele><time>2026-04-12T08:55:59Z</time></trkpt><trkpt lat="43.59135531079168" lon="6.873567260554517"><ele>361.0</ele><time>2026-04-12T08:56:01Z</time></trkpt><trkpt lat="43.591328975554745" lon="6.873661991595962"><ele>361.0</ele><time>2026-04-12T08:56:03Z</time></trkpt><trkpt lat="43.59130077804501" lon="6.873752097481426"><ele>361.0</ele><time>2026-04-12T08:56:05Z</time></trkpt><trkpt lat="43.591270432831855" lon="6.87383920528692"><ele>360.0</ele><time>2026-04-12T08:56:06.999Z</time></trkpt><trkpt lat="43.59124360932919" lon="6.873935222147148"><ele>359.0</ele><time>2026-04-12T08:56:08.999Z</time></trkpt><trkpt lat="43.59123566356005" lon="6.874033613764815"><ele>358.0</ele><time>2026-04-12T08:56:10.999Z</time></trkpt><trkpt lat="43.591227831812034" lon="6.87413280870048"><ele>357.0</ele><time>2026-04-12T08:56:12.999Z</time></trkpt><trkpt lat="43.591221386407874" lon="6.874234819997648"><ele>356.0</ele><time>2026-04-12T08:56:15.999Z</time></trkpt><trkpt lat="43.59120756186802" lon="6.874342411480305"><ele>355.0</ele><time>2026-04-12T08:56:17.999Z</time></trkpt><trkpt lat="43.59120066242899" lon="6.874449358776294"><ele>354.5</ele><time>2026-04-12T08:56:20.999Z</time></trkpt><trkpt lat="43.59118626311642" lon="6.874563692712633"><ele>354.0</ele><time>2026-04-12T08:56:22.999Z</time></trkpt><trkpt lat="43.59117506109279" lon="6.874651858631185"><ele>353.5</ele><time>2026-04-12T08:56:24.999Z</time></trkpt><trkpt lat="43.59114128203733" lon="6.8747711011538195"><ele>353.0</ele><time>2026-04-12T08:56:26.999Z</time></trkpt><trkpt lat="43.59110945833259" lon="6.8748479271986875"><ele>352.5</ele><time>2026-04-12T08:56:28.999Z</time></trkpt><trkpt lat="43.59106082685758" lon="6.874946005898268"><ele>352.0</ele><time>2026-04-12T08:56:31.999Z</time></trkpt><trkpt lat="43.59100932835349" lon="6.8750400880791105"><ele>354.3333333333333</ele><time>2026-04-12T08:56:34.999Z</time></trkpt><trkpt lat="43.59095247846657" lon="6.875121769846098"><ele>356.66666666666663</ele><time>2026-04-12T08:56:37.999Z</time></trkpt><trkpt lat="43.59088711429233" lon="6.875198514855797"><ele>359.0</ele><time>2026-04-12T08:56:40.999Z</time></trkpt><trkpt lat="43.590811237258" lon="6.875255668325282"><ele>361.3333333333333</ele><time>2026-04-12T08:56:43.999Z</time></trkpt><trkpt lat="43.59073890061989" lon="6.875320477561378"><ele>363.6666666666667</ele><time>2026-04-12T08:56:46.999Z</time></trkpt><trkpt lat="43.59067343234081" lon="6.875391324329016"><ele>366.0</ele><time>2026-04-12T08:56:49.999Z</time></trkpt><trkpt lat="43.59060804484058" lon="6.875464304965647"><ele>366.0</ele><time>2026-04-12T08:56:52.999Z</time></trkpt><trkpt lat="43.59055760369672" lon="6.875539923719179"><ele>366.0</ele><time>2026-04-12T08:56:55.999Z</time></trkpt><trkpt lat="43.59049662876446" lon="6.875570507614401"><ele>366.0</ele><time>2026-04-12T08:56:59.999Z</time></trkpt></trkseg></trk></gpx>